<?xml version="1.0" encoding="UTF-8" standalone="no" ?>
<gpx xmlns="http://www.topografix.com/GPX/1/1" xmlns:xsi="http://www.w3.org/2001/XMLSchema-instance" xsi:schemaLocation="http://www.topografix.com/GPX/1/1 http://www.topografix.com/GPX/1/1/gpx.xsd" version="1.1" creator="VisuGPX - https://www.visugpx.com">
  <metadata>
    <name>rando moulon 12 km</name>
  </metadata>
  <trk>
    <name><![CDATA[rando moulon 12 km_1]]></name>
    <trkseg>
      <trkpt lat="44.8293" lon="-0.22565">
        <ele>26.4</ele>
        <time>2020-09-09T11:39:46Z</time>
      </trkpt>
      <trkpt lat="44.82937" lon="-0.22562">
        <ele>26.3</ele>
        <time>2020-09-09T11:39:48Z</time>
      </trkpt>
      <trkpt lat="44.82937" lon="-0.22562">
        <ele>26.3</ele>
        <time>2020-09-09T11:39:49Z</time>
      </trkpt>
      <trkpt lat="44.82937" lon="-0.22562">
        <ele>26.3</ele>
        <time>2020-09-09T11:39:51Z</time>
      </trkpt>
      <trkpt lat="44.82937" lon="-0.22562">
        <ele>26.3</ele>
        <time>2020-09-09T11:39:53Z</time>
      </trkpt>
      <trkpt lat="44.82937" lon="-0.22562">
        <ele>26.3</ele>
        <time>2020-09-09T11:39:55Z</time>
      </trkpt>
      <trkpt lat="44.82937" lon="-0.22562">
        <ele>26.3</ele>
        <time>2020-09-09T11:39:57Z</time>
      </trkpt>
      <trkpt lat="44.82937" lon="-0.22562">
        <ele>26.3</ele>
        <time>2020-09-09T11:39:59Z</time>
      </trkpt>
      <trkpt lat="44.82937" lon="-0.22562">
        <ele>26.3</ele>
        <time>2020-09-09T11:40:01Z</time>
      </trkpt>
      <trkpt lat="44.82937" lon="-0.22562">
        <ele>26.3</ele>
        <time>2020-09-09T11:40:03Z</time>
      </trkpt>
      <trkpt lat="44.82937" lon="-0.22562">
        <ele>26.3</ele>
        <time>2020-09-09T11:40:05Z</time>
      </trkpt>
      <trkpt lat="44.82937" lon="-0.22562">
        <ele>26.3</ele>
        <time>2020-09-09T11:40:06Z</time>
      </trkpt>
      <trkpt lat="44.82937" lon="-0.22562">
        <ele>26.3</ele>
        <time>2020-09-09T11:40:07Z</time>
      </trkpt>
      <trkpt lat="44.82937" lon="-0.22562">
        <ele>26.3</ele>
        <time>2020-09-09T11:40:09Z</time>
      </trkpt>
      <trkpt lat="44.82937" lon="-0.22562">
        <ele>26.3</ele>
        <time>2020-09-09T11:40:10Z</time>
      </trkpt>
      <trkpt lat="44.82937" lon="-0.22562">
        <ele>26.3</ele>
        <time>2020-09-09T11:40:11Z</time>
      </trkpt>
      <trkpt lat="44.82937" lon="-0.22562">
        <ele>26.3</ele>
        <time>2020-09-09T11:40:13Z</time>
      </trkpt>
      <trkpt lat="44.82937" lon="-0.22562">
        <ele>26.3</ele>
        <time>2020-09-09T11:40:14Z</time>
      </trkpt>
      <trkpt lat="44.82937" lon="-0.22562">
        <ele>26.3</ele>
        <time>2020-09-09T11:40:16Z</time>
      </trkpt>
      <trkpt lat="44.82937" lon="-0.22562">
        <ele>26.3</ele>
        <time>2020-09-09T11:40:17Z</time>
      </trkpt>
      <trkpt lat="44.82938" lon="-0.22566">
        <ele>26.2</ele>
        <time>2020-09-09T11:40:19Z</time>
      </trkpt>
      <trkpt lat="44.82942" lon="-0.22579">
        <ele>26</ele>
        <time>2020-09-09T11:40:21Z</time>
      </trkpt>
      <trkpt lat="44.82943" lon="-0.22582">
        <ele>25.9</ele>
        <time>2020-09-09T11:40:23Z</time>
      </trkpt>
      <trkpt lat="44.82945" lon="-0.22583">
        <ele>25.9</ele>
        <time>2020-09-09T11:40:25Z</time>
      </trkpt>
      <trkpt lat="44.82945" lon="-0.22584">
        <ele>25.8</ele>
        <time>2020-09-09T11:40:26Z</time>
      </trkpt>
      <trkpt lat="44.82946" lon="-0.22583">
        <ele>25.8</ele>
        <time>2020-09-09T11:40:27Z</time>
      </trkpt>
      <trkpt lat="44.82946" lon="-0.22583">
        <ele>25.8</ele>
        <time>2020-09-09T11:40:28Z</time>
      </trkpt>
      <trkpt lat="44.82945" lon="-0.22583">
        <ele>25.8</ele>
        <time>2020-09-09T11:40:30Z</time>
      </trkpt>
      <trkpt lat="44.82945" lon="-0.22584">
        <ele>25.8</ele>
        <time>2020-09-09T11:40:32Z</time>
      </trkpt>
      <trkpt lat="44.82946" lon="-0.22584">
        <ele>25.8</ele>
        <time>2020-09-09T11:40:34Z</time>
      </trkpt>
      <trkpt lat="44.82949" lon="-0.22586">
        <ele>25.7</ele>
        <time>2020-09-09T11:40:36Z</time>
      </trkpt>
      <trkpt lat="44.82951" lon="-0.22588">
        <ele>25.7</ele>
        <time>2020-09-09T11:40:37Z</time>
      </trkpt>
      <trkpt lat="44.82951" lon="-0.22588">
        <ele>25.6</ele>
        <time>2020-09-09T11:40:39Z</time>
      </trkpt>
      <trkpt lat="44.82952" lon="-0.22588">
        <ele>25.6</ele>
        <time>2020-09-09T11:40:41Z</time>
      </trkpt>
      <trkpt lat="44.82953" lon="-0.22589">
        <ele>25.6</ele>
        <time>2020-09-09T11:40:42Z</time>
      </trkpt>
      <trkpt lat="44.82953" lon="-0.22589">
        <ele>25.6</ele>
        <time>2020-09-09T11:40:43Z</time>
      </trkpt>
      <trkpt lat="44.82954" lon="-0.22589">
        <ele>25.6</ele>
        <time>2020-09-09T11:40:45Z</time>
      </trkpt>
      <trkpt lat="44.82955" lon="-0.2259">
        <ele>25.6</ele>
        <time>2020-09-09T11:40:46Z</time>
      </trkpt>
      <trkpt lat="44.82955" lon="-0.2259">
        <ele>25.5</ele>
        <time>2020-09-09T11:40:48Z</time>
      </trkpt>
      <trkpt lat="44.82956" lon="-0.2259">
        <ele>25.5</ele>
        <time>2020-09-09T11:40:50Z</time>
      </trkpt>
      <trkpt lat="44.82957" lon="-0.22591">
        <ele>25.5</ele>
        <time>2020-09-09T11:40:52Z</time>
      </trkpt>
      <trkpt lat="44.82957" lon="-0.22591">
        <ele>25.5</ele>
        <time>2020-09-09T11:40:54Z</time>
      </trkpt>
      <trkpt lat="44.82958" lon="-0.22592">
        <ele>25.5</ele>
        <time>2020-09-09T11:40:55Z</time>
      </trkpt>
      <trkpt lat="44.82959" lon="-0.22592">
        <ele>25.5</ele>
        <time>2020-09-09T11:40:56Z</time>
      </trkpt>
      <trkpt lat="44.82961" lon="-0.22593">
        <ele>25.4</ele>
        <time>2020-09-09T11:40:58Z</time>
      </trkpt>
      <trkpt lat="44.82963" lon="-0.22593">
        <ele>25.4</ele>
        <time>2020-09-09T11:41:00Z</time>
      </trkpt>
      <trkpt lat="44.82963" lon="-0.22593">
        <ele>25.3</ele>
        <time>2020-09-09T11:41:01Z</time>
      </trkpt>
      <trkpt lat="44.82965" lon="-0.22595">
        <ele>25.3</ele>
        <time>2020-09-09T11:41:03Z</time>
      </trkpt>
      <trkpt lat="44.82968" lon="-0.22595">
        <ele>25.2</ele>
        <time>2020-09-09T11:41:05Z</time>
      </trkpt>
      <trkpt lat="44.82972" lon="-0.22594">
        <ele>25.1</ele>
        <time>2020-09-09T11:41:07Z</time>
      </trkpt>
      <trkpt lat="44.82975" lon="-0.22594">
        <ele>25.1</ele>
        <time>2020-09-09T11:41:08Z</time>
      </trkpt>
      <trkpt lat="44.82975" lon="-0.22594">
        <ele>25</ele>
        <time>2020-09-09T11:41:09Z</time>
      </trkpt>
      <trkpt lat="44.82976" lon="-0.22594">
        <ele>25</ele>
        <time>2020-09-09T11:41:10Z</time>
      </trkpt>
      <trkpt lat="44.82979" lon="-0.22593">
        <ele>24.9</ele>
        <time>2020-09-09T11:41:12Z</time>
      </trkpt>
      <trkpt lat="44.8298" lon="-0.22593">
        <ele>24.9</ele>
        <time>2020-09-09T11:41:13Z</time>
      </trkpt>
      <trkpt lat="44.82982" lon="-0.22591">
        <ele>24.9</ele>
        <time>2020-09-09T11:41:14Z</time>
      </trkpt>
      <trkpt lat="44.82983" lon="-0.22591">
        <ele>24.8</ele>
        <time>2020-09-09T11:41:15Z</time>
      </trkpt>
      <trkpt lat="44.82983" lon="-0.2259">
        <ele>24.8</ele>
        <time>2020-09-09T11:41:16Z</time>
      </trkpt>
      <trkpt lat="44.82984" lon="-0.22589">
        <ele>24.8</ele>
        <time>2020-09-09T11:41:17Z</time>
      </trkpt>
      <trkpt lat="44.82986" lon="-0.22588">
        <ele>24.8</ele>
        <time>2020-09-09T11:41:19Z</time>
      </trkpt>
      <trkpt lat="44.82986" lon="-0.22588">
        <ele>24.7</ele>
        <time>2020-09-09T11:41:20Z</time>
      </trkpt>
      <trkpt lat="44.82988" lon="-0.22586">
        <ele>24.7</ele>
        <time>2020-09-09T11:41:22Z</time>
      </trkpt>
      <trkpt lat="44.82989" lon="-0.22585">
        <ele>24.7</ele>
        <time>2020-09-09T11:41:23Z</time>
      </trkpt>
      <trkpt lat="44.8299" lon="-0.22585">
        <ele>24.6</ele>
        <time>2020-09-09T11:41:24Z</time>
      </trkpt>
      <trkpt lat="44.82992" lon="-0.22583">
        <ele>24.6</ele>
        <time>2020-09-09T11:41:25Z</time>
      </trkpt>
      <trkpt lat="44.82993" lon="-0.22583">
        <ele>24.6</ele>
        <time>2020-09-09T11:41:26Z</time>
      </trkpt>
      <trkpt lat="44.82994" lon="-0.22582">
        <ele>24.5</ele>
        <time>2020-09-09T11:41:27Z</time>
      </trkpt>
      <trkpt lat="44.82996" lon="-0.22581">
        <ele>24.5</ele>
        <time>2020-09-09T11:41:28Z</time>
      </trkpt>
      <trkpt lat="44.82996" lon="-0.22581">
        <ele>24.5</ele>
        <time>2020-09-09T11:41:29Z</time>
      </trkpt>
      <trkpt lat="44.82998" lon="-0.22579">
        <ele>24.4</ele>
        <time>2020-09-09T11:41:31Z</time>
      </trkpt>
      <trkpt lat="44.82999" lon="-0.22578">
        <ele>24.4</ele>
        <time>2020-09-09T11:41:32Z</time>
      </trkpt>
      <trkpt lat="44.83" lon="-0.22577">
        <ele>24.4</ele>
        <time>2020-09-09T11:41:33Z</time>
      </trkpt>
      <trkpt lat="44.83001" lon="-0.22575">
        <ele>24.3</ele>
        <time>2020-09-09T11:41:35Z</time>
      </trkpt>
      <trkpt lat="44.83002" lon="-0.22574">
        <ele>24.3</ele>
        <time>2020-09-09T11:41:36Z</time>
      </trkpt>
      <trkpt lat="44.83003" lon="-0.22573">
        <ele>24.3</ele>
        <time>2020-09-09T11:41:37Z</time>
      </trkpt>
      <trkpt lat="44.83004" lon="-0.22572">
        <ele>24.3</ele>
        <time>2020-09-09T11:41:38Z</time>
      </trkpt>
      <trkpt lat="44.83005" lon="-0.22572">
        <ele>24.2</ele>
        <time>2020-09-09T11:41:39Z</time>
      </trkpt>
      <trkpt lat="44.83007" lon="-0.2257">
        <ele>24.2</ele>
        <time>2020-09-09T11:41:40Z</time>
      </trkpt>
      <trkpt lat="44.83008" lon="-0.2257">
        <ele>24.2</ele>
        <time>2020-09-09T11:41:41Z</time>
      </trkpt>
      <trkpt lat="44.83008" lon="-0.2257">
        <ele>24.2</ele>
        <time>2020-09-09T11:41:42Z</time>
      </trkpt>
      <trkpt lat="44.83011" lon="-0.22568">
        <ele>24.1</ele>
        <time>2020-09-09T11:41:44Z</time>
      </trkpt>
      <trkpt lat="44.83012" lon="-0.22568">
        <ele>24.1</ele>
        <time>2020-09-09T11:41:45Z</time>
      </trkpt>
      <trkpt lat="44.83013" lon="-0.22567">
        <ele>24</ele>
        <time>2020-09-09T11:41:46Z</time>
      </trkpt>
      <trkpt lat="44.83014" lon="-0.22567">
        <ele>24</ele>
        <time>2020-09-09T11:41:47Z</time>
      </trkpt>
      <trkpt lat="44.83015" lon="-0.22567">
        <ele>24</ele>
        <time>2020-09-09T11:41:48Z</time>
      </trkpt>
      <trkpt lat="44.83017" lon="-0.22565">
        <ele>24</ele>
        <time>2020-09-09T11:41:50Z</time>
      </trkpt>
      <trkpt lat="44.83018" lon="-0.22564">
        <ele>23.9</ele>
        <time>2020-09-09T11:41:51Z</time>
      </trkpt>
      <trkpt lat="44.83019" lon="-0.22564">
        <ele>23.9</ele>
        <time>2020-09-09T11:41:52Z</time>
      </trkpt>
      <trkpt lat="44.8302" lon="-0.22563">
        <ele>23.9</ele>
        <time>2020-09-09T11:41:53Z</time>
      </trkpt>
      <trkpt lat="44.83021" lon="-0.22563">
        <ele>23.9</ele>
        <time>2020-09-09T11:41:54Z</time>
      </trkpt>
      <trkpt lat="44.83021" lon="-0.22562">
        <ele>23.9</ele>
        <time>2020-09-09T11:41:55Z</time>
      </trkpt>
      <trkpt lat="44.83022" lon="-0.22561">
        <ele>23.8</ele>
        <time>2020-09-09T11:41:56Z</time>
      </trkpt>
      <trkpt lat="44.83023" lon="-0.22561">
        <ele>23.8</ele>
        <time>2020-09-09T11:41:57Z</time>
      </trkpt>
      <trkpt lat="44.83024" lon="-0.2256">
        <ele>23.8</ele>
        <time>2020-09-09T11:41:58Z</time>
      </trkpt>
      <trkpt lat="44.83025" lon="-0.22559">
        <ele>23.8</ele>
        <time>2020-09-09T11:41:59Z</time>
      </trkpt>
      <trkpt lat="44.83026" lon="-0.22558">
        <ele>23.8</ele>
        <time>2020-09-09T11:42:01Z</time>
      </trkpt>
      <trkpt lat="44.83028" lon="-0.22556">
        <ele>23.7</ele>
        <time>2020-09-09T11:42:02Z</time>
      </trkpt>
      <trkpt lat="44.83029" lon="-0.22555">
        <ele>23.7</ele>
        <time>2020-09-09T11:42:03Z</time>
      </trkpt>
      <trkpt lat="44.83029" lon="-0.22555">
        <ele>23.7</ele>
        <time>2020-09-09T11:42:04Z</time>
      </trkpt>
      <trkpt lat="44.83031" lon="-0.22553">
        <ele>23.7</ele>
        <time>2020-09-09T11:42:05Z</time>
      </trkpt>
      <trkpt lat="44.83032" lon="-0.22552">
        <ele>23.7</ele>
        <time>2020-09-09T11:42:07Z</time>
      </trkpt>
      <trkpt lat="44.83033" lon="-0.22551">
        <ele>23.6</ele>
        <time>2020-09-09T11:42:08Z</time>
      </trkpt>
      <trkpt lat="44.83034" lon="-0.2255">
        <ele>23.6</ele>
        <time>2020-09-09T11:42:09Z</time>
      </trkpt>
      <trkpt lat="44.83035" lon="-0.22549">
        <ele>23.6</ele>
        <time>2020-09-09T11:42:10Z</time>
      </trkpt>
      <trkpt lat="44.83036" lon="-0.22549">
        <ele>23.6</ele>
        <time>2020-09-09T11:42:11Z</time>
      </trkpt>
      <trkpt lat="44.83037" lon="-0.22548">
        <ele>23.6</ele>
        <time>2020-09-09T11:42:12Z</time>
      </trkpt>
      <trkpt lat="44.83038" lon="-0.22547">
        <ele>23.6</ele>
        <time>2020-09-09T11:42:13Z</time>
      </trkpt>
      <trkpt lat="44.83039" lon="-0.22545">
        <ele>23.5</ele>
        <time>2020-09-09T11:42:14Z</time>
      </trkpt>
      <trkpt lat="44.83041" lon="-0.22543">
        <ele>23.5</ele>
        <time>2020-09-09T11:42:16Z</time>
      </trkpt>
      <trkpt lat="44.83042" lon="-0.22543">
        <ele>23.5</ele>
        <time>2020-09-09T11:42:17Z</time>
      </trkpt>
      <trkpt lat="44.83043" lon="-0.22542">
        <ele>23.5</ele>
        <time>2020-09-09T11:42:18Z</time>
      </trkpt>
      <trkpt lat="44.83044" lon="-0.22541">
        <ele>23.5</ele>
        <time>2020-09-09T11:42:20Z</time>
      </trkpt>
      <trkpt lat="44.83045" lon="-0.2254">
        <ele>23.4</ele>
        <time>2020-09-09T11:42:21Z</time>
      </trkpt>
      <trkpt lat="44.83046" lon="-0.2254">
        <ele>23.4</ele>
        <time>2020-09-09T11:42:22Z</time>
      </trkpt>
      <trkpt lat="44.83048" lon="-0.22539">
        <ele>23.4</ele>
        <time>2020-09-09T11:42:24Z</time>
      </trkpt>
      <trkpt lat="44.83048" lon="-0.22538">
        <ele>23.4</ele>
        <time>2020-09-09T11:42:25Z</time>
      </trkpt>
      <trkpt lat="44.83048" lon="-0.22538">
        <ele>23.4</ele>
        <time>2020-09-09T11:42:26Z</time>
      </trkpt>
      <trkpt lat="44.83048" lon="-0.22538">
        <ele>23.4</ele>
        <time>2020-09-09T11:42:28Z</time>
      </trkpt>
      <trkpt lat="44.83049" lon="-0.22537">
        <ele>23.4</ele>
        <time>2020-09-09T11:42:29Z</time>
      </trkpt>
      <trkpt lat="44.8305" lon="-0.22536">
        <ele>23.4</ele>
        <time>2020-09-09T11:42:30Z</time>
      </trkpt>
      <trkpt lat="44.8305" lon="-0.22535">
        <ele>23.3</ele>
        <time>2020-09-09T11:42:32Z</time>
      </trkpt>
      <trkpt lat="44.83051" lon="-0.22535">
        <ele>23.3</ele>
        <time>2020-09-09T11:42:33Z</time>
      </trkpt>
      <trkpt lat="44.83052" lon="-0.22534">
        <ele>23.3</ele>
        <time>2020-09-09T11:42:34Z</time>
      </trkpt>
      <trkpt lat="44.83054" lon="-0.22533">
        <ele>23.3</ele>
        <time>2020-09-09T11:42:35Z</time>
      </trkpt>
      <trkpt lat="44.83055" lon="-0.22532">
        <ele>23.3</ele>
        <time>2020-09-09T11:42:36Z</time>
      </trkpt>
      <trkpt lat="44.83056" lon="-0.22531">
        <ele>23.3</ele>
        <time>2020-09-09T11:42:37Z</time>
      </trkpt>
      <trkpt lat="44.83057" lon="-0.2253">
        <ele>23.3</ele>
        <time>2020-09-09T11:42:38Z</time>
      </trkpt>
      <trkpt lat="44.83059" lon="-0.22529">
        <ele>23.2</ele>
        <time>2020-09-09T11:42:40Z</time>
      </trkpt>
      <trkpt lat="44.8306" lon="-0.22528">
        <ele>23.2</ele>
        <time>2020-09-09T11:42:41Z</time>
      </trkpt>
      <trkpt lat="44.83061" lon="-0.22526">
        <ele>23.2</ele>
        <time>2020-09-09T11:42:42Z</time>
      </trkpt>
      <trkpt lat="44.83062" lon="-0.22525">
        <ele>23.2</ele>
        <time>2020-09-09T11:42:43Z</time>
      </trkpt>
      <trkpt lat="44.83062" lon="-0.22524">
        <ele>23.2</ele>
        <time>2020-09-09T11:42:44Z</time>
      </trkpt>
      <trkpt lat="44.83063" lon="-0.22521">
        <ele>23.1</ele>
        <time>2020-09-09T11:42:45Z</time>
      </trkpt>
      <trkpt lat="44.83064" lon="-0.22521">
        <ele>23.1</ele>
        <time>2020-09-09T11:42:47Z</time>
      </trkpt>
      <trkpt lat="44.83064" lon="-0.2252">
        <ele>23.1</ele>
        <time>2020-09-09T11:42:48Z</time>
      </trkpt>
      <trkpt lat="44.83067" lon="-0.22518">
        <ele>23.1</ele>
        <time>2020-09-09T11:42:49Z</time>
      </trkpt>
      <trkpt lat="44.83068" lon="-0.22517">
        <ele>23.1</ele>
        <time>2020-09-09T11:42:50Z</time>
      </trkpt>
      <trkpt lat="44.8307" lon="-0.22515">
        <ele>23</ele>
        <time>2020-09-09T11:42:51Z</time>
      </trkpt>
      <trkpt lat="44.83071" lon="-0.22513">
        <ele>23</ele>
        <time>2020-09-09T11:42:52Z</time>
      </trkpt>
      <trkpt lat="44.83074" lon="-0.22511">
        <ele>23</ele>
        <time>2020-09-09T11:42:54Z</time>
      </trkpt>
      <trkpt lat="44.83077" lon="-0.2251">
        <ele>22.9</ele>
        <time>2020-09-09T11:42:55Z</time>
      </trkpt>
      <trkpt lat="44.83078" lon="-0.22509">
        <ele>22.9</ele>
        <time>2020-09-09T11:42:56Z</time>
      </trkpt>
      <trkpt lat="44.8308" lon="-0.22507">
        <ele>22.9</ele>
        <time>2020-09-09T11:42:57Z</time>
      </trkpt>
      <trkpt lat="44.83081" lon="-0.22507">
        <ele>22.9</ele>
        <time>2020-09-09T11:42:58Z</time>
      </trkpt>
      <trkpt lat="44.83083" lon="-0.22506">
        <ele>22.9</ele>
        <time>2020-09-09T11:42:59Z</time>
      </trkpt>
      <trkpt lat="44.83085" lon="-0.22504">
        <ele>22.8</ele>
        <time>2020-09-09T11:43:01Z</time>
      </trkpt>
      <trkpt lat="44.83087" lon="-0.22504">
        <ele>22.8</ele>
        <time>2020-09-09T11:43:02Z</time>
      </trkpt>
      <trkpt lat="44.83088" lon="-0.22503">
        <ele>22.8</ele>
        <time>2020-09-09T11:43:03Z</time>
      </trkpt>
      <trkpt lat="44.83089" lon="-0.22502">
        <ele>22.8</ele>
        <time>2020-09-09T11:43:05Z</time>
      </trkpt>
      <trkpt lat="44.8309" lon="-0.22501">
        <ele>22.8</ele>
        <time>2020-09-09T11:43:06Z</time>
      </trkpt>
      <trkpt lat="44.83092" lon="-0.225">
        <ele>22.8</ele>
        <time>2020-09-09T11:43:07Z</time>
      </trkpt>
      <trkpt lat="44.83094" lon="-0.22499">
        <ele>22.7</ele>
        <time>2020-09-09T11:43:08Z</time>
      </trkpt>
      <trkpt lat="44.83095" lon="-0.22498">
        <ele>22.7</ele>
        <time>2020-09-09T11:43:09Z</time>
      </trkpt>
      <trkpt lat="44.83096" lon="-0.22498">
        <ele>22.7</ele>
        <time>2020-09-09T11:43:10Z</time>
      </trkpt>
      <trkpt lat="44.83098" lon="-0.22497">
        <ele>22.7</ele>
        <time>2020-09-09T11:43:11Z</time>
      </trkpt>
      <trkpt lat="44.83099" lon="-0.22496">
        <ele>22.7</ele>
        <time>2020-09-09T11:43:13Z</time>
      </trkpt>
      <trkpt lat="44.83101" lon="-0.22495">
        <ele>22.6</ele>
        <time>2020-09-09T11:43:14Z</time>
      </trkpt>
      <trkpt lat="44.83102" lon="-0.22494">
        <ele>22.6</ele>
        <time>2020-09-09T11:43:15Z</time>
      </trkpt>
      <trkpt lat="44.83103" lon="-0.22493">
        <ele>22.6</ele>
        <time>2020-09-09T11:43:17Z</time>
      </trkpt>
      <trkpt lat="44.83105" lon="-0.22492">
        <ele>22.6</ele>
        <time>2020-09-09T11:43:18Z</time>
      </trkpt>
      <trkpt lat="44.83106" lon="-0.22491">
        <ele>22.6</ele>
        <time>2020-09-09T11:43:19Z</time>
      </trkpt>
      <trkpt lat="44.83108" lon="-0.2249">
        <ele>22.6</ele>
        <time>2020-09-09T11:43:20Z</time>
      </trkpt>
      <trkpt lat="44.83109" lon="-0.22489">
        <ele>22.6</ele>
        <time>2020-09-09T11:43:21Z</time>
      </trkpt>
      <trkpt lat="44.83111" lon="-0.22488">
        <ele>22.6</ele>
        <time>2020-09-09T11:43:22Z</time>
      </trkpt>
      <trkpt lat="44.83112" lon="-0.22488">
        <ele>22.5</ele>
        <time>2020-09-09T11:43:24Z</time>
      </trkpt>
      <trkpt lat="44.83113" lon="-0.22487">
        <ele>22.5</ele>
        <time>2020-09-09T11:43:25Z</time>
      </trkpt>
      <trkpt lat="44.83114" lon="-0.22487">
        <ele>22.5</ele>
        <time>2020-09-09T11:43:26Z</time>
      </trkpt>
      <trkpt lat="44.83115" lon="-0.22486">
        <ele>22.5</ele>
        <time>2020-09-09T11:43:27Z</time>
      </trkpt>
      <trkpt lat="44.83117" lon="-0.22485">
        <ele>22.5</ele>
        <time>2020-09-09T11:43:28Z</time>
      </trkpt>
      <trkpt lat="44.83119" lon="-0.22484">
        <ele>22.5</ele>
        <time>2020-09-09T11:43:30Z</time>
      </trkpt>
      <trkpt lat="44.83121" lon="-0.22484">
        <ele>22.5</ele>
        <time>2020-09-09T11:43:32Z</time>
      </trkpt>
      <trkpt lat="44.83122" lon="-0.22484">
        <ele>22.5</ele>
        <time>2020-09-09T11:43:33Z</time>
      </trkpt>
      <trkpt lat="44.83124" lon="-0.22483">
        <ele>22.5</ele>
        <time>2020-09-09T11:43:34Z</time>
      </trkpt>
      <trkpt lat="44.83125" lon="-0.22482">
        <ele>22.4</ele>
        <time>2020-09-09T11:43:35Z</time>
      </trkpt>
      <trkpt lat="44.83126" lon="-0.22482">
        <ele>22.4</ele>
        <time>2020-09-09T11:43:36Z</time>
      </trkpt>
      <trkpt lat="44.83128" lon="-0.22481">
        <ele>22.4</ele>
        <time>2020-09-09T11:43:37Z</time>
      </trkpt>
      <trkpt lat="44.83129" lon="-0.22481">
        <ele>22.4</ele>
        <time>2020-09-09T11:43:38Z</time>
      </trkpt>
      <trkpt lat="44.83131" lon="-0.22481">
        <ele>22.4</ele>
        <time>2020-09-09T11:43:39Z</time>
      </trkpt>
      <trkpt lat="44.83132" lon="-0.22481">
        <ele>22.4</ele>
        <time>2020-09-09T11:43:40Z</time>
      </trkpt>
      <trkpt lat="44.83134" lon="-0.2248">
        <ele>22.3</ele>
        <time>2020-09-09T11:43:42Z</time>
      </trkpt>
      <trkpt lat="44.83135" lon="-0.2248">
        <ele>22.3</ele>
        <time>2020-09-09T11:43:43Z</time>
      </trkpt>
      <trkpt lat="44.83137" lon="-0.2248">
        <ele>22.3</ele>
        <time>2020-09-09T11:43:44Z</time>
      </trkpt>
      <trkpt lat="44.83138" lon="-0.22479">
        <ele>22.3</ele>
        <time>2020-09-09T11:43:46Z</time>
      </trkpt>
      <trkpt lat="44.83139" lon="-0.22479">
        <ele>22.3</ele>
        <time>2020-09-09T11:43:47Z</time>
      </trkpt>
      <trkpt lat="44.8314" lon="-0.22479">
        <ele>22.3</ele>
        <time>2020-09-09T11:43:48Z</time>
      </trkpt>
      <trkpt lat="44.83141" lon="-0.22479">
        <ele>22.3</ele>
        <time>2020-09-09T11:43:49Z</time>
      </trkpt>
      <trkpt lat="44.83142" lon="-0.22478">
        <ele>22.3</ele>
        <time>2020-09-09T11:43:50Z</time>
      </trkpt>
      <trkpt lat="44.83144" lon="-0.22478">
        <ele>22.2</ele>
        <time>2020-09-09T11:43:51Z</time>
      </trkpt>
      <trkpt lat="44.83144" lon="-0.22477">
        <ele>22.2</ele>
        <time>2020-09-09T11:43:52Z</time>
      </trkpt>
      <trkpt lat="44.83145" lon="-0.22477">
        <ele>22.2</ele>
        <time>2020-09-09T11:43:53Z</time>
      </trkpt>
      <trkpt lat="44.83146" lon="-0.22477">
        <ele>22.2</ele>
        <time>2020-09-09T11:43:54Z</time>
      </trkpt>
      <trkpt lat="44.83147" lon="-0.22477">
        <ele>22.2</ele>
        <time>2020-09-09T11:43:55Z</time>
      </trkpt>
      <trkpt lat="44.83149" lon="-0.22476">
        <ele>22.2</ele>
        <time>2020-09-09T11:43:57Z</time>
      </trkpt>
      <trkpt lat="44.8315" lon="-0.22475">
        <ele>22.2</ele>
        <time>2020-09-09T11:43:58Z</time>
      </trkpt>
      <trkpt lat="44.83151" lon="-0.22474">
        <ele>22.2</ele>
        <time>2020-09-09T11:44:00Z</time>
      </trkpt>
      <trkpt lat="44.83152" lon="-0.22474">
        <ele>22.2</ele>
        <time>2020-09-09T11:44:01Z</time>
      </trkpt>
      <trkpt lat="44.83154" lon="-0.22473">
        <ele>22.2</ele>
        <time>2020-09-09T11:44:02Z</time>
      </trkpt>
      <trkpt lat="44.83155" lon="-0.22472">
        <ele>22.2</ele>
        <time>2020-09-09T11:44:03Z</time>
      </trkpt>
      <trkpt lat="44.83157" lon="-0.22472">
        <ele>22.2</ele>
        <time>2020-09-09T11:44:04Z</time>
      </trkpt>
      <trkpt lat="44.83158" lon="-0.22471">
        <ele>22.2</ele>
        <time>2020-09-09T11:44:05Z</time>
      </trkpt>
      <trkpt lat="44.83161" lon="-0.22471">
        <ele>22.2</ele>
        <time>2020-09-09T11:44:07Z</time>
      </trkpt>
      <trkpt lat="44.83162" lon="-0.2247">
        <ele>22.2</ele>
        <time>2020-09-09T11:44:08Z</time>
      </trkpt>
      <trkpt lat="44.83164" lon="-0.2247">
        <ele>22.2</ele>
        <time>2020-09-09T11:44:09Z</time>
      </trkpt>
      <trkpt lat="44.83164" lon="-0.2247">
        <ele>22.2</ele>
        <time>2020-09-09T11:44:10Z</time>
      </trkpt>
      <trkpt lat="44.83167" lon="-0.22469">
        <ele>22.1</ele>
        <time>2020-09-09T11:44:12Z</time>
      </trkpt>
      <trkpt lat="44.83168" lon="-0.22469">
        <ele>22.1</ele>
        <time>2020-09-09T11:44:13Z</time>
      </trkpt>
      <trkpt lat="44.83169" lon="-0.22468">
        <ele>22.1</ele>
        <time>2020-09-09T11:44:14Z</time>
      </trkpt>
      <trkpt lat="44.8317" lon="-0.22468">
        <ele>22.1</ele>
        <time>2020-09-09T11:44:15Z</time>
      </trkpt>
      <trkpt lat="44.83171" lon="-0.22468">
        <ele>22.1</ele>
        <time>2020-09-09T11:44:16Z</time>
      </trkpt>
      <trkpt lat="44.83173" lon="-0.22468">
        <ele>22.1</ele>
        <time>2020-09-09T11:44:17Z</time>
      </trkpt>
      <trkpt lat="44.83173" lon="-0.22468">
        <ele>22.1</ele>
        <time>2020-09-09T11:44:18Z</time>
      </trkpt>
      <trkpt lat="44.83174" lon="-0.22468">
        <ele>22.1</ele>
        <time>2020-09-09T11:44:20Z</time>
      </trkpt>
      <trkpt lat="44.83175" lon="-0.22467">
        <ele>22.1</ele>
        <time>2020-09-09T11:44:21Z</time>
      </trkpt>
      <trkpt lat="44.83177" lon="-0.22467">
        <ele>22.1</ele>
        <time>2020-09-09T11:44:22Z</time>
      </trkpt>
      <trkpt lat="44.83177" lon="-0.22467">
        <ele>22.1</ele>
        <time>2020-09-09T11:44:23Z</time>
      </trkpt>
      <trkpt lat="44.83178" lon="-0.22467">
        <ele>22.1</ele>
        <time>2020-09-09T11:44:24Z</time>
      </trkpt>
      <trkpt lat="44.8318" lon="-0.22467">
        <ele>22.1</ele>
        <time>2020-09-09T11:44:25Z</time>
      </trkpt>
      <trkpt lat="44.83181" lon="-0.22467">
        <ele>22.1</ele>
        <time>2020-09-09T11:44:26Z</time>
      </trkpt>
      <trkpt lat="44.83184" lon="-0.22466">
        <ele>22</ele>
        <time>2020-09-09T11:44:28Z</time>
      </trkpt>
      <trkpt lat="44.83185" lon="-0.22465">
        <ele>22</ele>
        <time>2020-09-09T11:44:29Z</time>
      </trkpt>
      <trkpt lat="44.83187" lon="-0.22465">
        <ele>22</ele>
        <time>2020-09-09T11:44:30Z</time>
      </trkpt>
      <trkpt lat="44.83188" lon="-0.22464">
        <ele>22</ele>
        <time>2020-09-09T11:44:31Z</time>
      </trkpt>
      <trkpt lat="44.8319" lon="-0.22463">
        <ele>22</ele>
        <time>2020-09-09T11:44:33Z</time>
      </trkpt>
      <trkpt lat="44.83192" lon="-0.22461">
        <ele>22.1</ele>
        <time>2020-09-09T11:44:34Z</time>
      </trkpt>
      <trkpt lat="44.83193" lon="-0.2246">
        <ele>22.1</ele>
        <time>2020-09-09T11:44:36Z</time>
      </trkpt>
      <trkpt lat="44.83194" lon="-0.2246">
        <ele>22.1</ele>
        <time>2020-09-09T11:44:37Z</time>
      </trkpt>
      <trkpt lat="44.83195" lon="-0.22459">
        <ele>22.1</ele>
        <time>2020-09-09T11:44:38Z</time>
      </trkpt>
      <trkpt lat="44.83196" lon="-0.22458">
        <ele>22.1</ele>
        <time>2020-09-09T11:44:39Z</time>
      </trkpt>
      <trkpt lat="44.83198" lon="-0.22456">
        <ele>22.1</ele>
        <time>2020-09-09T11:44:40Z</time>
      </trkpt>
      <trkpt lat="44.83199" lon="-0.22455">
        <ele>22.1</ele>
        <time>2020-09-09T11:44:41Z</time>
      </trkpt>
      <trkpt lat="44.83199" lon="-0.22454">
        <ele>22.2</ele>
        <time>2020-09-09T11:44:42Z</time>
      </trkpt>
      <trkpt lat="44.83201" lon="-0.22452">
        <ele>22.2</ele>
        <time>2020-09-09T11:44:44Z</time>
      </trkpt>
      <trkpt lat="44.83204" lon="-0.22449">
        <ele>22.3</ele>
        <time>2020-09-09T11:44:46Z</time>
      </trkpt>
      <trkpt lat="44.83206" lon="-0.22448">
        <ele>22.3</ele>
        <time>2020-09-09T11:44:48Z</time>
      </trkpt>
      <trkpt lat="44.83207" lon="-0.22447">
        <ele>22.3</ele>
        <time>2020-09-09T11:44:49Z</time>
      </trkpt>
      <trkpt lat="44.8321" lon="-0.22445">
        <ele>22.4</ele>
        <time>2020-09-09T11:44:50Z</time>
      </trkpt>
      <trkpt lat="44.8321" lon="-0.22444">
        <ele>22.4</ele>
        <time>2020-09-09T11:44:51Z</time>
      </trkpt>
      <trkpt lat="44.83212" lon="-0.22443">
        <ele>22.4</ele>
        <time>2020-09-09T11:44:53Z</time>
      </trkpt>
      <trkpt lat="44.83212" lon="-0.22443">
        <ele>22.4</ele>
        <time>2020-09-09T11:44:54Z</time>
      </trkpt>
      <trkpt lat="44.83213" lon="-0.22442">
        <ele>22.4</ele>
        <time>2020-09-09T11:44:55Z</time>
      </trkpt>
      <trkpt lat="44.83214" lon="-0.22442">
        <ele>22.5</ele>
        <time>2020-09-09T11:44:56Z</time>
      </trkpt>
      <trkpt lat="44.83215" lon="-0.22441">
        <ele>22.5</ele>
        <time>2020-09-09T11:44:57Z</time>
      </trkpt>
      <trkpt lat="44.83216" lon="-0.22441">
        <ele>22.5</ele>
        <time>2020-09-09T11:44:58Z</time>
      </trkpt>
      <trkpt lat="44.83218" lon="-0.2244">
        <ele>22.5</ele>
        <time>2020-09-09T11:45:00Z</time>
      </trkpt>
      <trkpt lat="44.83219" lon="-0.22439">
        <ele>22.6</ele>
        <time>2020-09-09T11:45:02Z</time>
      </trkpt>
      <trkpt lat="44.8322" lon="-0.22438">
        <ele>22.6</ele>
        <time>2020-09-09T11:45:03Z</time>
      </trkpt>
      <trkpt lat="44.83221" lon="-0.22437">
        <ele>22.6</ele>
        <time>2020-09-09T11:45:04Z</time>
      </trkpt>
      <trkpt lat="44.83222" lon="-0.22437">
        <ele>22.6</ele>
        <time>2020-09-09T11:45:05Z</time>
      </trkpt>
      <trkpt lat="44.83224" lon="-0.22437">
        <ele>22.7</ele>
        <time>2020-09-09T11:45:06Z</time>
      </trkpt>
      <trkpt lat="44.83226" lon="-0.22437">
        <ele>22.7</ele>
        <time>2020-09-09T11:45:07Z</time>
      </trkpt>
      <trkpt lat="44.83227" lon="-0.22436">
        <ele>22.8</ele>
        <time>2020-09-09T11:45:08Z</time>
      </trkpt>
      <trkpt lat="44.83229" lon="-0.22436">
        <ele>22.8</ele>
        <time>2020-09-09T11:45:09Z</time>
      </trkpt>
      <trkpt lat="44.83231" lon="-0.22435">
        <ele>22.9</ele>
        <time>2020-09-09T11:45:10Z</time>
      </trkpt>
      <trkpt lat="44.83234" lon="-0.22435">
        <ele>22.9</ele>
        <time>2020-09-09T11:45:12Z</time>
      </trkpt>
      <trkpt lat="44.83237" lon="-0.22434">
        <ele>23</ele>
        <time>2020-09-09T11:45:13Z</time>
      </trkpt>
      <trkpt lat="44.83238" lon="-0.22434">
        <ele>23.1</ele>
        <time>2020-09-09T11:45:14Z</time>
      </trkpt>
      <trkpt lat="44.8324" lon="-0.22434">
        <ele>23.1</ele>
        <time>2020-09-09T11:45:16Z</time>
      </trkpt>
      <trkpt lat="44.83241" lon="-0.22433">
        <ele>23.2</ele>
        <time>2020-09-09T11:45:17Z</time>
      </trkpt>
      <trkpt lat="44.83243" lon="-0.22433">
        <ele>23.3</ele>
        <time>2020-09-09T11:45:18Z</time>
      </trkpt>
      <trkpt lat="44.83244" lon="-0.22433">
        <ele>23.3</ele>
        <time>2020-09-09T11:45:19Z</time>
      </trkpt>
      <trkpt lat="44.83245" lon="-0.22433">
        <ele>23.4</ele>
        <time>2020-09-09T11:45:20Z</time>
      </trkpt>
      <trkpt lat="44.83247" lon="-0.22432">
        <ele>23.4</ele>
        <time>2020-09-09T11:45:21Z</time>
      </trkpt>
      <trkpt lat="44.8325" lon="-0.22432">
        <ele>23.5</ele>
        <time>2020-09-09T11:45:23Z</time>
      </trkpt>
      <trkpt lat="44.83251" lon="-0.22432">
        <ele>23.6</ele>
        <time>2020-09-09T11:45:24Z</time>
      </trkpt>
      <trkpt lat="44.83253" lon="-0.22433">
        <ele>23.7</ele>
        <time>2020-09-09T11:45:26Z</time>
      </trkpt>
      <trkpt lat="44.83254" lon="-0.22433">
        <ele>23.7</ele>
        <time>2020-09-09T11:45:27Z</time>
      </trkpt>
      <trkpt lat="44.83256" lon="-0.22434">
        <ele>23.8</ele>
        <time>2020-09-09T11:45:28Z</time>
      </trkpt>
      <trkpt lat="44.83258" lon="-0.22434">
        <ele>23.9</ele>
        <time>2020-09-09T11:45:29Z</time>
      </trkpt>
      <trkpt lat="44.83259" lon="-0.22434">
        <ele>23.9</ele>
        <time>2020-09-09T11:45:30Z</time>
      </trkpt>
      <trkpt lat="44.83261" lon="-0.22434">
        <ele>24</ele>
        <time>2020-09-09T11:45:31Z</time>
      </trkpt>
      <trkpt lat="44.83262" lon="-0.22434">
        <ele>24.1</ele>
        <time>2020-09-09T11:45:32Z</time>
      </trkpt>
      <trkpt lat="44.83264" lon="-0.22434">
        <ele>24.1</ele>
        <time>2020-09-09T11:45:33Z</time>
      </trkpt>
      <trkpt lat="44.83266" lon="-0.22434">
        <ele>24.2</ele>
        <time>2020-09-09T11:45:35Z</time>
      </trkpt>
      <trkpt lat="44.83268" lon="-0.22433">
        <ele>24.3</ele>
        <time>2020-09-09T11:45:37Z</time>
      </trkpt>
      <trkpt lat="44.83269" lon="-0.22433">
        <ele>24.3</ele>
        <time>2020-09-09T11:45:38Z</time>
      </trkpt>
      <trkpt lat="44.8327" lon="-0.22432">
        <ele>24.3</ele>
        <time>2020-09-09T11:45:39Z</time>
      </trkpt>
      <trkpt lat="44.83271" lon="-0.22432">
        <ele>24.3</ele>
        <time>2020-09-09T11:45:40Z</time>
      </trkpt>
      <trkpt lat="44.83272" lon="-0.22431">
        <ele>24.4</ele>
        <time>2020-09-09T11:45:41Z</time>
      </trkpt>
      <trkpt lat="44.83273" lon="-0.22431">
        <ele>24.4</ele>
        <time>2020-09-09T11:45:42Z</time>
      </trkpt>
      <trkpt lat="44.83274" lon="-0.2243">
        <ele>24.4</ele>
        <time>2020-09-09T11:45:43Z</time>
      </trkpt>
      <trkpt lat="44.83274" lon="-0.22429">
        <ele>24.5</ele>
        <time>2020-09-09T11:45:44Z</time>
      </trkpt>
      <trkpt lat="44.83276" lon="-0.22429">
        <ele>24.5</ele>
        <time>2020-09-09T11:45:45Z</time>
      </trkpt>
      <trkpt lat="44.83276" lon="-0.22428">
        <ele>24.5</ele>
        <time>2020-09-09T11:45:47Z</time>
      </trkpt>
      <trkpt lat="44.83277" lon="-0.22428">
        <ele>24.6</ele>
        <time>2020-09-09T11:45:48Z</time>
      </trkpt>
      <trkpt lat="44.83277" lon="-0.22428">
        <ele>24.6</ele>
        <time>2020-09-09T11:45:49Z</time>
      </trkpt>
      <trkpt lat="44.83278" lon="-0.22428">
        <ele>24.6</ele>
        <time>2020-09-09T11:45:50Z</time>
      </trkpt>
      <trkpt lat="44.83279" lon="-0.22427">
        <ele>24.6</ele>
        <time>2020-09-09T11:45:51Z</time>
      </trkpt>
      <trkpt lat="44.8328" lon="-0.22427">
        <ele>24.6</ele>
        <time>2020-09-09T11:45:52Z</time>
      </trkpt>
      <trkpt lat="44.8328" lon="-0.22427">
        <ele>24.6</ele>
        <time>2020-09-09T11:45:53Z</time>
      </trkpt>
      <trkpt lat="44.83281" lon="-0.22426">
        <ele>24.7</ele>
        <time>2020-09-09T11:45:54Z</time>
      </trkpt>
      <trkpt lat="44.83282" lon="-0.22426">
        <ele>24.7</ele>
        <time>2020-09-09T11:45:55Z</time>
      </trkpt>
      <trkpt lat="44.83284" lon="-0.22425">
        <ele>24.7</ele>
        <time>2020-09-09T11:45:57Z</time>
      </trkpt>
      <trkpt lat="44.83285" lon="-0.22424">
        <ele>24.7</ele>
        <time>2020-09-09T11:45:58Z</time>
      </trkpt>
      <trkpt lat="44.83287" lon="-0.22424">
        <ele>24.8</ele>
        <time>2020-09-09T11:45:59Z</time>
      </trkpt>
      <trkpt lat="44.83288" lon="-0.22423">
        <ele>24.8</ele>
        <time>2020-09-09T11:46:00Z</time>
      </trkpt>
      <trkpt lat="44.83289" lon="-0.22423">
        <ele>24.8</ele>
        <time>2020-09-09T11:46:01Z</time>
      </trkpt>
      <trkpt lat="44.83291" lon="-0.22421">
        <ele>24.8</ele>
        <time>2020-09-09T11:46:02Z</time>
      </trkpt>
      <trkpt lat="44.83291" lon="-0.22421">
        <ele>24.8</ele>
        <time>2020-09-09T11:46:03Z</time>
      </trkpt>
      <trkpt lat="44.83292" lon="-0.2242">
        <ele>24.8</ele>
        <time>2020-09-09T11:46:04Z</time>
      </trkpt>
      <trkpt lat="44.83294" lon="-0.22419">
        <ele>24.9</ele>
        <time>2020-09-09T11:46:05Z</time>
      </trkpt>
      <trkpt lat="44.83295" lon="-0.22418">
        <ele>24.9</ele>
        <time>2020-09-09T11:46:07Z</time>
      </trkpt>
      <trkpt lat="44.83296" lon="-0.22417">
        <ele>24.9</ele>
        <time>2020-09-09T11:46:08Z</time>
      </trkpt>
      <trkpt lat="44.83298" lon="-0.22416">
        <ele>24.9</ele>
        <time>2020-09-09T11:46:09Z</time>
      </trkpt>
      <trkpt lat="44.83301" lon="-0.22415">
        <ele>24.9</ele>
        <time>2020-09-09T11:46:10Z</time>
      </trkpt>
      <trkpt lat="44.83301" lon="-0.22415">
        <ele>24.9</ele>
        <time>2020-09-09T11:46:11Z</time>
      </trkpt>
      <trkpt lat="44.83303" lon="-0.22415">
        <ele>24.9</ele>
        <time>2020-09-09T11:46:12Z</time>
      </trkpt>
      <trkpt lat="44.83304" lon="-0.22415">
        <ele>24.9</ele>
        <time>2020-09-09T11:46:13Z</time>
      </trkpt>
      <trkpt lat="44.83305" lon="-0.22415">
        <ele>24.9</ele>
        <time>2020-09-09T11:46:14Z</time>
      </trkpt>
      <trkpt lat="44.83306" lon="-0.22416">
        <ele>24.9</ele>
        <time>2020-09-09T11:46:15Z</time>
      </trkpt>
      <trkpt lat="44.83308" lon="-0.22417">
        <ele>24.8</ele>
        <time>2020-09-09T11:46:16Z</time>
      </trkpt>
      <trkpt lat="44.83309" lon="-0.22416">
        <ele>24.8</ele>
        <time>2020-09-09T11:46:18Z</time>
      </trkpt>
      <trkpt lat="44.8331" lon="-0.22416">
        <ele>24.8</ele>
        <time>2020-09-09T11:46:19Z</time>
      </trkpt>
      <trkpt lat="44.83311" lon="-0.22416">
        <ele>24.8</ele>
        <time>2020-09-09T11:46:20Z</time>
      </trkpt>
      <trkpt lat="44.83312" lon="-0.22415">
        <ele>24.8</ele>
        <time>2020-09-09T11:46:21Z</time>
      </trkpt>
      <trkpt lat="44.83313" lon="-0.22416">
        <ele>24.8</ele>
        <time>2020-09-09T11:46:23Z</time>
      </trkpt>
      <trkpt lat="44.83313" lon="-0.22417">
        <ele>24.8</ele>
        <time>2020-09-09T11:46:25Z</time>
      </trkpt>
      <trkpt lat="44.83312" lon="-0.22417">
        <ele>24.8</ele>
        <time>2020-09-09T11:46:26Z</time>
      </trkpt>
      <trkpt lat="44.83312" lon="-0.22418">
        <ele>24.8</ele>
        <time>2020-09-09T11:46:28Z</time>
      </trkpt>
      <trkpt lat="44.83313" lon="-0.22418">
        <ele>24.8</ele>
        <time>2020-09-09T11:46:29Z</time>
      </trkpt>
      <trkpt lat="44.83313" lon="-0.22418">
        <ele>24.8</ele>
        <time>2020-09-09T11:46:30Z</time>
      </trkpt>
      <trkpt lat="44.83314" lon="-0.22418">
        <ele>24.8</ele>
        <time>2020-09-09T11:46:32Z</time>
      </trkpt>
      <trkpt lat="44.83315" lon="-0.22418">
        <ele>24.7</ele>
        <time>2020-09-09T11:46:33Z</time>
      </trkpt>
      <trkpt lat="44.83316" lon="-0.22417">
        <ele>24.7</ele>
        <time>2020-09-09T11:46:34Z</time>
      </trkpt>
      <trkpt lat="44.83318" lon="-0.22417">
        <ele>24.7</ele>
        <time>2020-09-09T11:46:35Z</time>
      </trkpt>
      <trkpt lat="44.83319" lon="-0.22417">
        <ele>24.7</ele>
        <time>2020-09-09T11:46:36Z</time>
      </trkpt>
      <trkpt lat="44.8332" lon="-0.22417">
        <ele>24.6</ele>
        <time>2020-09-09T11:46:37Z</time>
      </trkpt>
      <trkpt lat="44.83322" lon="-0.22418">
        <ele>24.6</ele>
        <time>2020-09-09T11:46:39Z</time>
      </trkpt>
      <trkpt lat="44.83322" lon="-0.22419">
        <ele>24.6</ele>
        <time>2020-09-09T11:46:40Z</time>
      </trkpt>
      <trkpt lat="44.83322" lon="-0.22421">
        <ele>24.6</ele>
        <time>2020-09-09T11:46:42Z</time>
      </trkpt>
      <trkpt lat="44.83321" lon="-0.22423">
        <ele>24.5</ele>
        <time>2020-09-09T11:46:44Z</time>
      </trkpt>
      <trkpt lat="44.83321" lon="-0.22423">
        <ele>24.5</ele>
        <time>2020-09-09T11:46:45Z</time>
      </trkpt>
      <trkpt lat="44.83321" lon="-0.22424">
        <ele>24.5</ele>
        <time>2020-09-09T11:46:46Z</time>
      </trkpt>
      <trkpt lat="44.83321" lon="-0.22424">
        <ele>24.5</ele>
        <time>2020-09-09T11:46:47Z</time>
      </trkpt>
      <trkpt lat="44.8332" lon="-0.22424">
        <ele>24.5</ele>
        <time>2020-09-09T11:46:49Z</time>
      </trkpt>
      <trkpt lat="44.8332" lon="-0.22424">
        <ele>24.5</ele>
        <time>2020-09-09T11:46:50Z</time>
      </trkpt>
      <trkpt lat="44.83321" lon="-0.22423">
        <ele>24.5</ele>
        <time>2020-09-09T11:46:52Z</time>
      </trkpt>
      <trkpt lat="44.83322" lon="-0.22421">
        <ele>24.5</ele>
        <time>2020-09-09T11:46:53Z</time>
      </trkpt>
      <trkpt lat="44.83323" lon="-0.2242">
        <ele>24.4</ele>
        <time>2020-09-09T11:46:54Z</time>
      </trkpt>
      <trkpt lat="44.83325" lon="-0.22418">
        <ele>24.4</ele>
        <time>2020-09-09T11:46:55Z</time>
      </trkpt>
      <trkpt lat="44.83326" lon="-0.22417">
        <ele>24.4</ele>
        <time>2020-09-09T11:46:56Z</time>
      </trkpt>
      <trkpt lat="44.83326" lon="-0.22417">
        <ele>24.3</ele>
        <time>2020-09-09T11:46:57Z</time>
      </trkpt>
      <trkpt lat="44.83329" lon="-0.22414">
        <ele>24.3</ele>
        <time>2020-09-09T11:46:59Z</time>
      </trkpt>
      <trkpt lat="44.8333" lon="-0.22413">
        <ele>24.3</ele>
        <time>2020-09-09T11:47:00Z</time>
      </trkpt>
      <trkpt lat="44.83331" lon="-0.2241">
        <ele>24.2</ele>
        <time>2020-09-09T11:47:02Z</time>
      </trkpt>
      <trkpt lat="44.83332" lon="-0.22406">
        <ele>24.2</ele>
        <time>2020-09-09T11:47:03Z</time>
      </trkpt>
      <trkpt lat="44.83333" lon="-0.22403">
        <ele>24.1</ele>
        <time>2020-09-09T11:47:05Z</time>
      </trkpt>
      <trkpt lat="44.83333" lon="-0.22402">
        <ele>24.1</ele>
        <time>2020-09-09T11:47:06Z</time>
      </trkpt>
      <trkpt lat="44.83334" lon="-0.22401">
        <ele>24.1</ele>
        <time>2020-09-09T11:47:07Z</time>
      </trkpt>
      <trkpt lat="44.83334" lon="-0.224">
        <ele>24.1</ele>
        <time>2020-09-09T11:47:08Z</time>
      </trkpt>
      <trkpt lat="44.83335" lon="-0.22398">
        <ele>24</ele>
        <time>2020-09-09T11:47:09Z</time>
      </trkpt>
      <trkpt lat="44.83338" lon="-0.22395">
        <ele>24</ele>
        <time>2020-09-09T11:47:11Z</time>
      </trkpt>
      <trkpt lat="44.83338" lon="-0.22394">
        <ele>23.9</ele>
        <time>2020-09-09T11:47:12Z</time>
      </trkpt>
      <trkpt lat="44.83339" lon="-0.22393">
        <ele>23.9</ele>
        <time>2020-09-09T11:47:13Z</time>
      </trkpt>
      <trkpt lat="44.83339" lon="-0.22392">
        <ele>23.9</ele>
        <time>2020-09-09T11:47:14Z</time>
      </trkpt>
      <trkpt lat="44.8334" lon="-0.22392">
        <ele>23.9</ele>
        <time>2020-09-09T11:47:15Z</time>
      </trkpt>
      <trkpt lat="44.8334" lon="-0.22391">
        <ele>23.9</ele>
        <time>2020-09-09T11:47:16Z</time>
      </trkpt>
      <trkpt lat="44.83341" lon="-0.2239">
        <ele>23.9</ele>
        <time>2020-09-09T11:47:17Z</time>
      </trkpt>
      <trkpt lat="44.83342" lon="-0.22389">
        <ele>23.8</ele>
        <time>2020-09-09T11:47:19Z</time>
      </trkpt>
      <trkpt lat="44.83343" lon="-0.22388">
        <ele>23.8</ele>
        <time>2020-09-09T11:47:20Z</time>
      </trkpt>
      <trkpt lat="44.83346" lon="-0.22385">
        <ele>23.8</ele>
        <time>2020-09-09T11:47:22Z</time>
      </trkpt>
      <trkpt lat="44.83348" lon="-0.22382">
        <ele>23.7</ele>
        <time>2020-09-09T11:47:24Z</time>
      </trkpt>
      <trkpt lat="44.83351" lon="-0.22379">
        <ele>23.7</ele>
        <time>2020-09-09T11:47:26Z</time>
      </trkpt>
      <trkpt lat="44.83353" lon="-0.22378">
        <ele>23.6</ele>
        <time>2020-09-09T11:47:27Z</time>
      </trkpt>
      <trkpt lat="44.83355" lon="-0.22376">
        <ele>23.6</ele>
        <time>2020-09-09T11:47:29Z</time>
      </trkpt>
      <trkpt lat="44.83358" lon="-0.22374">
        <ele>23.6</ele>
        <time>2020-09-09T11:47:30Z</time>
      </trkpt>
      <trkpt lat="44.83358" lon="-0.22373">
        <ele>23.6</ele>
        <time>2020-09-09T11:47:31Z</time>
      </trkpt>
      <trkpt lat="44.8336" lon="-0.22372">
        <ele>23.5</ele>
        <time>2020-09-09T11:47:33Z</time>
      </trkpt>
      <trkpt lat="44.83361" lon="-0.22372">
        <ele>23.5</ele>
        <time>2020-09-09T11:47:34Z</time>
      </trkpt>
      <trkpt lat="44.83363" lon="-0.22371">
        <ele>23.5</ele>
        <time>2020-09-09T11:47:35Z</time>
      </trkpt>
      <trkpt lat="44.83364" lon="-0.2237">
        <ele>23.5</ele>
        <time>2020-09-09T11:47:36Z</time>
      </trkpt>
      <trkpt lat="44.83365" lon="-0.2237">
        <ele>23.5</ele>
        <time>2020-09-09T11:47:37Z</time>
      </trkpt>
      <trkpt lat="44.83366" lon="-0.22369">
        <ele>23.5</ele>
        <time>2020-09-09T11:47:38Z</time>
      </trkpt>
      <trkpt lat="44.83367" lon="-0.22367">
        <ele>23.5</ele>
        <time>2020-09-09T11:47:39Z</time>
      </trkpt>
      <trkpt lat="44.83368" lon="-0.22367">
        <ele>23.5</ele>
        <time>2020-09-09T11:47:40Z</time>
      </trkpt>
      <trkpt lat="44.83369" lon="-0.22366">
        <ele>23.5</ele>
        <time>2020-09-09T11:47:41Z</time>
      </trkpt>
      <trkpt lat="44.8337" lon="-0.22364">
        <ele>23.5</ele>
        <time>2020-09-09T11:47:43Z</time>
      </trkpt>
      <trkpt lat="44.8337" lon="-0.22363">
        <ele>23.2</ele>
        <time>2020-09-09T11:47:44Z</time>
      </trkpt>
      <trkpt lat="44.8337" lon="-0.22362">
        <ele>23.2</ele>
        <time>2020-09-09T11:47:46Z</time>
      </trkpt>
      <trkpt lat="44.83369" lon="-0.22361">
        <ele>23.2</ele>
        <time>2020-09-09T11:47:47Z</time>
      </trkpt>
      <trkpt lat="44.83368" lon="-0.2236">
        <ele>23.2</ele>
        <time>2020-09-09T11:47:48Z</time>
      </trkpt>
      <trkpt lat="44.83368" lon="-0.22359">
        <ele>22.9</ele>
        <time>2020-09-09T11:47:49Z</time>
      </trkpt>
      <trkpt lat="44.83367" lon="-0.22357">
        <ele>22.9</ele>
        <time>2020-09-09T11:47:50Z</time>
      </trkpt>
      <trkpt lat="44.83365" lon="-0.22355">
        <ele>22.9</ele>
        <time>2020-09-09T11:47:51Z</time>
      </trkpt>
      <trkpt lat="44.83363" lon="-0.22353">
        <ele>22.6</ele>
        <time>2020-09-09T11:47:53Z</time>
      </trkpt>
      <trkpt lat="44.83362" lon="-0.22351">
        <ele>22.6</ele>
        <time>2020-09-09T11:47:54Z</time>
      </trkpt>
      <trkpt lat="44.83361" lon="-0.2235">
        <ele>22.3</ele>
        <time>2020-09-09T11:47:55Z</time>
      </trkpt>
      <trkpt lat="44.8336" lon="-0.22347">
        <ele>22.3</ele>
        <time>2020-09-09T11:47:56Z</time>
      </trkpt>
      <trkpt lat="44.83359" lon="-0.22346">
        <ele>22.3</ele>
        <time>2020-09-09T11:47:58Z</time>
      </trkpt>
      <trkpt lat="44.83358" lon="-0.22345">
        <ele>22</ele>
        <time>2020-09-09T11:47:59Z</time>
      </trkpt>
      <trkpt lat="44.83357" lon="-0.22344">
        <ele>22</ele>
        <time>2020-09-09T11:48:00Z</time>
      </trkpt>
      <trkpt lat="44.83356" lon="-0.22342">
        <ele>22</ele>
        <time>2020-09-09T11:48:01Z</time>
      </trkpt>
      <trkpt lat="44.83355" lon="-0.22341">
        <ele>21.7</ele>
        <time>2020-09-09T11:48:02Z</time>
      </trkpt>
      <trkpt lat="44.83353" lon="-0.22339">
        <ele>21.7</ele>
        <time>2020-09-09T11:48:04Z</time>
      </trkpt>
      <trkpt lat="44.83352" lon="-0.22338">
        <ele>21.7</ele>
        <time>2020-09-09T11:48:05Z</time>
      </trkpt>
      <trkpt lat="44.8335" lon="-0.22337">
        <ele>21.4</ele>
        <time>2020-09-09T11:48:06Z</time>
      </trkpt>
      <trkpt lat="44.83348" lon="-0.22335">
        <ele>21.4</ele>
        <time>2020-09-09T11:48:07Z</time>
      </trkpt>
      <trkpt lat="44.83347" lon="-0.22335">
        <ele>21.4</ele>
        <time>2020-09-09T11:48:08Z</time>
      </trkpt>
      <trkpt lat="44.83346" lon="-0.22333">
        <ele>21.3</ele>
        <time>2020-09-09T11:48:10Z</time>
      </trkpt>
      <trkpt lat="44.83345" lon="-0.22332">
        <ele>21.1</ele>
        <time>2020-09-09T11:48:12Z</time>
      </trkpt>
      <trkpt lat="44.83345" lon="-0.22331">
        <ele>21.1</ele>
        <time>2020-09-09T11:48:13Z</time>
      </trkpt>
      <trkpt lat="44.83344" lon="-0.2233">
        <ele>21.1</ele>
        <time>2020-09-09T11:48:14Z</time>
      </trkpt>
      <trkpt lat="44.83343" lon="-0.22329">
        <ele>20.8</ele>
        <time>2020-09-09T11:48:15Z</time>
      </trkpt>
      <trkpt lat="44.83341" lon="-0.22326">
        <ele>20.8</ele>
        <time>2020-09-09T11:48:16Z</time>
      </trkpt>
      <trkpt lat="44.8334" lon="-0.22325">
        <ele>20.8</ele>
        <time>2020-09-09T11:48:17Z</time>
      </trkpt>
      <trkpt lat="44.83339" lon="-0.22324">
        <ele>20.6</ele>
        <time>2020-09-09T11:48:19Z</time>
      </trkpt>
      <trkpt lat="44.83338" lon="-0.22322">
        <ele>20.5</ele>
        <time>2020-09-09T11:48:20Z</time>
      </trkpt>
      <trkpt lat="44.83336" lon="-0.22319">
        <ele>20.4</ele>
        <time>2020-09-09T11:48:21Z</time>
      </trkpt>
      <trkpt lat="44.83335" lon="-0.22318">
        <ele>20.3</ele>
        <time>2020-09-09T11:48:22Z</time>
      </trkpt>
      <trkpt lat="44.83334" lon="-0.22314">
        <ele>20.1</ele>
        <time>2020-09-09T11:48:23Z</time>
      </trkpt>
      <trkpt lat="44.83334" lon="-0.22312">
        <ele>20.1</ele>
        <time>2020-09-09T11:48:24Z</time>
      </trkpt>
      <trkpt lat="44.83334" lon="-0.22307">
        <ele>19.8</ele>
        <time>2020-09-09T11:48:25Z</time>
      </trkpt>
      <trkpt lat="44.83333" lon="-0.22303">
        <ele>19.7</ele>
        <time>2020-09-09T11:48:27Z</time>
      </trkpt>
      <trkpt lat="44.83332" lon="-0.223">
        <ele>19.7</ele>
        <time>2020-09-09T11:48:29Z</time>
      </trkpt>
      <trkpt lat="44.83332" lon="-0.22298">
        <ele>19.5</ele>
        <time>2020-09-09T11:48:30Z</time>
      </trkpt>
      <trkpt lat="44.83331" lon="-0.22297">
        <ele>19.5</ele>
        <time>2020-09-09T11:48:31Z</time>
      </trkpt>
      <trkpt lat="44.83331" lon="-0.22295">
        <ele>19.5</ele>
        <time>2020-09-09T11:48:32Z</time>
      </trkpt>
      <trkpt lat="44.83331" lon="-0.22294">
        <ele>19.4</ele>
        <time>2020-09-09T11:48:33Z</time>
      </trkpt>
      <trkpt lat="44.8333" lon="-0.22292">
        <ele>19.4</ele>
        <time>2020-09-09T11:48:34Z</time>
      </trkpt>
      <trkpt lat="44.8333" lon="-0.22291">
        <ele>19.4</ele>
        <time>2020-09-09T11:48:35Z</time>
      </trkpt>
      <trkpt lat="44.83331" lon="-0.2229">
        <ele>19.2</ele>
        <time>2020-09-09T11:48:36Z</time>
      </trkpt>
      <trkpt lat="44.83331" lon="-0.22287">
        <ele>19.2</ele>
        <time>2020-09-09T11:48:38Z</time>
      </trkpt>
      <trkpt lat="44.8333" lon="-0.22286">
        <ele>19.1</ele>
        <time>2020-09-09T11:48:39Z</time>
      </trkpt>
      <trkpt lat="44.8333" lon="-0.22285">
        <ele>19.1</ele>
        <time>2020-09-09T11:48:40Z</time>
      </trkpt>
      <trkpt lat="44.83329" lon="-0.22282">
        <ele>19</ele>
        <time>2020-09-09T11:48:41Z</time>
      </trkpt>
      <trkpt lat="44.83329" lon="-0.2228">
        <ele>19</ele>
        <time>2020-09-09T11:48:43Z</time>
      </trkpt>
      <trkpt lat="44.83328" lon="-0.22279">
        <ele>19</ele>
        <time>2020-09-09T11:48:44Z</time>
      </trkpt>
      <trkpt lat="44.83328" lon="-0.22277">
        <ele>18.9</ele>
        <time>2020-09-09T11:48:45Z</time>
      </trkpt>
      <trkpt lat="44.83327" lon="-0.22276">
        <ele>18.9</ele>
        <time>2020-09-09T11:48:46Z</time>
      </trkpt>
      <trkpt lat="44.83325" lon="-0.22272">
        <ele>18.7</ele>
        <time>2020-09-09T11:48:47Z</time>
      </trkpt>
      <trkpt lat="44.83325" lon="-0.22271">
        <ele>18.7</ele>
        <time>2020-09-09T11:48:48Z</time>
      </trkpt>
      <trkpt lat="44.83324" lon="-0.22269">
        <ele>18.7</ele>
        <time>2020-09-09T11:48:49Z</time>
      </trkpt>
      <trkpt lat="44.83323" lon="-0.22266">
        <ele>18.7</ele>
        <time>2020-09-09T11:48:51Z</time>
      </trkpt>
      <trkpt lat="44.83323" lon="-0.22265">
        <ele>18.6</ele>
        <time>2020-09-09T11:48:52Z</time>
      </trkpt>
      <trkpt lat="44.83322" lon="-0.22262">
        <ele>18.6</ele>
        <time>2020-09-09T11:48:54Z</time>
      </trkpt>
      <trkpt lat="44.83322" lon="-0.22261">
        <ele>18.6</ele>
        <time>2020-09-09T11:48:55Z</time>
      </trkpt>
      <trkpt lat="44.83322" lon="-0.22259">
        <ele>18.5</ele>
        <time>2020-09-09T11:48:56Z</time>
      </trkpt>
      <trkpt lat="44.83322" lon="-0.22258">
        <ele>18.5</ele>
        <time>2020-09-09T11:48:57Z</time>
      </trkpt>
      <trkpt lat="44.83322" lon="-0.22257">
        <ele>18.5</ele>
        <time>2020-09-09T11:48:59Z</time>
      </trkpt>
      <trkpt lat="44.83321" lon="-0.22255">
        <ele>18.4</ele>
        <time>2020-09-09T11:49:00Z</time>
      </trkpt>
      <trkpt lat="44.8332" lon="-0.22254">
        <ele>18.4</ele>
        <time>2020-09-09T11:49:01Z</time>
      </trkpt>
      <trkpt lat="44.8332" lon="-0.22252">
        <ele>18.4</ele>
        <time>2020-09-09T11:49:02Z</time>
      </trkpt>
      <trkpt lat="44.83319" lon="-0.2225">
        <ele>18.3</ele>
        <time>2020-09-09T11:49:04Z</time>
      </trkpt>
      <trkpt lat="44.83316" lon="-0.22245">
        <ele>18.2</ele>
        <time>2020-09-09T11:49:05Z</time>
      </trkpt>
      <trkpt lat="44.83316" lon="-0.22245">
        <ele>18.2</ele>
        <time>2020-09-09T11:49:06Z</time>
      </trkpt>
      <trkpt lat="44.83317" lon="-0.22245">
        <ele>18.2</ele>
        <time>2020-09-09T11:49:07Z</time>
      </trkpt>
      <trkpt lat="44.83316" lon="-0.22243">
        <ele>18.2</ele>
        <time>2020-09-09T11:49:08Z</time>
      </trkpt>
      <trkpt lat="44.83315" lon="-0.22241">
        <ele>18.2</ele>
        <time>2020-09-09T11:49:09Z</time>
      </trkpt>
      <trkpt lat="44.83315" lon="-0.2224">
        <ele>18.2</ele>
        <time>2020-09-09T11:49:11Z</time>
      </trkpt>
      <trkpt lat="44.83314" lon="-0.22239">
        <ele>18.1</ele>
        <time>2020-09-09T11:49:12Z</time>
      </trkpt>
      <trkpt lat="44.83314" lon="-0.22237">
        <ele>18.1</ele>
        <time>2020-09-09T11:49:13Z</time>
      </trkpt>
      <trkpt lat="44.83313" lon="-0.22235">
        <ele>18.1</ele>
        <time>2020-09-09T11:49:14Z</time>
      </trkpt>
      <trkpt lat="44.83312" lon="-0.22234">
        <ele>18.1</ele>
        <time>2020-09-09T11:49:15Z</time>
      </trkpt>
      <trkpt lat="44.83312" lon="-0.22232">
        <ele>18.1</ele>
        <time>2020-09-09T11:49:16Z</time>
      </trkpt>
      <trkpt lat="44.83312" lon="-0.22231">
        <ele>18.1</ele>
        <time>2020-09-09T11:49:17Z</time>
      </trkpt>
      <trkpt lat="44.83312" lon="-0.22229">
        <ele>18</ele>
        <time>2020-09-09T11:49:18Z</time>
      </trkpt>
      <trkpt lat="44.83311" lon="-0.22227">
        <ele>18</ele>
        <time>2020-09-09T11:49:19Z</time>
      </trkpt>
      <trkpt lat="44.83311" lon="-0.22226">
        <ele>18</ele>
        <time>2020-09-09T11:49:20Z</time>
      </trkpt>
      <trkpt lat="44.83311" lon="-0.22225">
        <ele>18</ele>
        <time>2020-09-09T11:49:21Z</time>
      </trkpt>
      <trkpt lat="44.83311" lon="-0.22223">
        <ele>18</ele>
        <time>2020-09-09T11:49:23Z</time>
      </trkpt>
      <trkpt lat="44.8331" lon="-0.22222">
        <ele>18</ele>
        <time>2020-09-09T11:49:24Z</time>
      </trkpt>
      <trkpt lat="44.8331" lon="-0.22221">
        <ele>18</ele>
        <time>2020-09-09T11:49:25Z</time>
      </trkpt>
      <trkpt lat="44.8331" lon="-0.2222">
        <ele>18</ele>
        <time>2020-09-09T11:49:26Z</time>
      </trkpt>
      <trkpt lat="44.8331" lon="-0.22219">
        <ele>18</ele>
        <time>2020-09-09T11:49:27Z</time>
      </trkpt>
      <trkpt lat="44.8331" lon="-0.22218">
        <ele>18</ele>
        <time>2020-09-09T11:49:28Z</time>
      </trkpt>
      <trkpt lat="44.83309" lon="-0.22215">
        <ele>18</ele>
        <time>2020-09-09T11:49:30Z</time>
      </trkpt>
      <trkpt lat="44.83308" lon="-0.22214">
        <ele>18</ele>
        <time>2020-09-09T11:49:31Z</time>
      </trkpt>
      <trkpt lat="44.83308" lon="-0.22212">
        <ele>18</ele>
        <time>2020-09-09T11:49:32Z</time>
      </trkpt>
      <trkpt lat="44.83308" lon="-0.22211">
        <ele>18</ele>
        <time>2020-09-09T11:49:33Z</time>
      </trkpt>
      <trkpt lat="44.83308" lon="-0.22209">
        <ele>18</ele>
        <time>2020-09-09T11:49:34Z</time>
      </trkpt>
      <trkpt lat="44.83307" lon="-0.22207">
        <ele>18</ele>
        <time>2020-09-09T11:49:36Z</time>
      </trkpt>
      <trkpt lat="44.83307" lon="-0.22205">
        <ele>18</ele>
        <time>2020-09-09T11:49:37Z</time>
      </trkpt>
      <trkpt lat="44.83307" lon="-0.22204">
        <ele>18</ele>
        <time>2020-09-09T11:49:38Z</time>
      </trkpt>
      <trkpt lat="44.83307" lon="-0.22201">
        <ele>18</ele>
        <time>2020-09-09T11:49:40Z</time>
      </trkpt>
      <trkpt lat="44.83306" lon="-0.222">
        <ele>18</ele>
        <time>2020-09-09T11:49:41Z</time>
      </trkpt>
      <trkpt lat="44.83306" lon="-0.22198">
        <ele>18</ele>
        <time>2020-09-09T11:49:42Z</time>
      </trkpt>
      <trkpt lat="44.83306" lon="-0.22196">
        <ele>18</ele>
        <time>2020-09-09T11:49:43Z</time>
      </trkpt>
      <trkpt lat="44.83306" lon="-0.22194">
        <ele>18.1</ele>
        <time>2020-09-09T11:49:44Z</time>
      </trkpt>
      <trkpt lat="44.83305" lon="-0.22192">
        <ele>18.1</ele>
        <time>2020-09-09T11:49:45Z</time>
      </trkpt>
      <trkpt lat="44.83305" lon="-0.2219">
        <ele>18.1</ele>
        <time>2020-09-09T11:49:46Z</time>
      </trkpt>
      <trkpt lat="44.83305" lon="-0.22188">
        <ele>18.1</ele>
        <time>2020-09-09T11:49:47Z</time>
      </trkpt>
      <trkpt lat="44.83305" lon="-0.22186">
        <ele>18.1</ele>
        <time>2020-09-09T11:49:49Z</time>
      </trkpt>
      <trkpt lat="44.83305" lon="-0.22182">
        <ele>18.1</ele>
        <time>2020-09-09T11:49:50Z</time>
      </trkpt>
      <trkpt lat="44.83304" lon="-0.22181">
        <ele>18.1</ele>
        <time>2020-09-09T11:49:51Z</time>
      </trkpt>
      <trkpt lat="44.83304" lon="-0.22179">
        <ele>18.1</ele>
        <time>2020-09-09T11:49:52Z</time>
      </trkpt>
      <trkpt lat="44.83304" lon="-0.22177">
        <ele>18.1</ele>
        <time>2020-09-09T11:49:53Z</time>
      </trkpt>
      <trkpt lat="44.83304" lon="-0.22175">
        <ele>18.1</ele>
        <time>2020-09-09T11:49:54Z</time>
      </trkpt>
      <trkpt lat="44.83303" lon="-0.22171">
        <ele>18.2</ele>
        <time>2020-09-09T11:49:56Z</time>
      </trkpt>
      <trkpt lat="44.83303" lon="-0.22169">
        <ele>18.2</ele>
        <time>2020-09-09T11:49:57Z</time>
      </trkpt>
      <trkpt lat="44.83303" lon="-0.22167">
        <ele>18.2</ele>
        <time>2020-09-09T11:49:58Z</time>
      </trkpt>
      <trkpt lat="44.83303" lon="-0.22165">
        <ele>18.2</ele>
        <time>2020-09-09T11:49:59Z</time>
      </trkpt>
      <trkpt lat="44.83303" lon="-0.22163">
        <ele>18.2</ele>
        <time>2020-09-09T11:50:01Z</time>
      </trkpt>
      <trkpt lat="44.83302" lon="-0.22161">
        <ele>18.3</ele>
        <time>2020-09-09T11:50:03Z</time>
      </trkpt>
      <trkpt lat="44.83302" lon="-0.2216">
        <ele>18.3</ele>
        <time>2020-09-09T11:50:04Z</time>
      </trkpt>
      <trkpt lat="44.83302" lon="-0.22159">
        <ele>18.3</ele>
        <time>2020-09-09T11:50:06Z</time>
      </trkpt>
      <trkpt lat="44.83301" lon="-0.22158">
        <ele>18.3</ele>
        <time>2020-09-09T11:50:07Z</time>
      </trkpt>
      <trkpt lat="44.833" lon="-0.22156">
        <ele>18.3</ele>
        <time>2020-09-09T11:50:09Z</time>
      </trkpt>
      <trkpt lat="44.833" lon="-0.22153">
        <ele>18.3</ele>
        <time>2020-09-09T11:50:10Z</time>
      </trkpt>
      <trkpt lat="44.833" lon="-0.22152">
        <ele>18.4</ele>
        <time>2020-09-09T11:50:11Z</time>
      </trkpt>
      <trkpt lat="44.833" lon="-0.22151">
        <ele>18.4</ele>
        <time>2020-09-09T11:50:13Z</time>
      </trkpt>
      <trkpt lat="44.833" lon="-0.2215">
        <ele>18.4</ele>
        <time>2020-09-09T11:50:14Z</time>
      </trkpt>
      <trkpt lat="44.83299" lon="-0.22147">
        <ele>18.5</ele>
        <time>2020-09-09T11:50:15Z</time>
      </trkpt>
      <trkpt lat="44.83299" lon="-0.22146">
        <ele>18.5</ele>
        <time>2020-09-09T11:50:16Z</time>
      </trkpt>
      <trkpt lat="44.83299" lon="-0.22144">
        <ele>18.5</ele>
        <time>2020-09-09T11:50:17Z</time>
      </trkpt>
      <trkpt lat="44.83299" lon="-0.22143">
        <ele>18.5</ele>
        <time>2020-09-09T11:50:18Z</time>
      </trkpt>
      <trkpt lat="44.83299" lon="-0.2214">
        <ele>18.6</ele>
        <time>2020-09-09T11:50:19Z</time>
      </trkpt>
      <trkpt lat="44.83299" lon="-0.22139">
        <ele>18.6</ele>
        <time>2020-09-09T11:50:20Z</time>
      </trkpt>
      <trkpt lat="44.83299" lon="-0.22137">
        <ele>18.6</ele>
        <time>2020-09-09T11:50:22Z</time>
      </trkpt>
      <trkpt lat="44.83299" lon="-0.22136">
        <ele>18.6</ele>
        <time>2020-09-09T11:50:23Z</time>
      </trkpt>
      <trkpt lat="44.83299" lon="-0.22135">
        <ele>18.7</ele>
        <time>2020-09-09T11:50:24Z</time>
      </trkpt>
      <trkpt lat="44.83299" lon="-0.22134">
        <ele>18.7</ele>
        <time>2020-09-09T11:50:25Z</time>
      </trkpt>
      <trkpt lat="44.83299" lon="-0.22133">
        <ele>18.7</ele>
        <time>2020-09-09T11:50:26Z</time>
      </trkpt>
      <trkpt lat="44.83299" lon="-0.22132">
        <ele>18.7</ele>
        <time>2020-09-09T11:50:27Z</time>
      </trkpt>
      <trkpt lat="44.83298" lon="-0.22129">
        <ele>18.8</ele>
        <time>2020-09-09T11:50:29Z</time>
      </trkpt>
      <trkpt lat="44.83298" lon="-0.22128">
        <ele>18.8</ele>
        <time>2020-09-09T11:50:30Z</time>
      </trkpt>
      <trkpt lat="44.83299" lon="-0.22127">
        <ele>18.8</ele>
        <time>2020-09-09T11:50:32Z</time>
      </trkpt>
      <trkpt lat="44.83298" lon="-0.22125">
        <ele>18.9</ele>
        <time>2020-09-09T11:50:34Z</time>
      </trkpt>
      <trkpt lat="44.83298" lon="-0.22122">
        <ele>19</ele>
        <time>2020-09-09T11:50:35Z</time>
      </trkpt>
      <trkpt lat="44.83297" lon="-0.22119">
        <ele>19</ele>
        <time>2020-09-09T11:50:37Z</time>
      </trkpt>
      <trkpt lat="44.83296" lon="-0.22118">
        <ele>19</ele>
        <time>2020-09-09T11:50:38Z</time>
      </trkpt>
      <trkpt lat="44.83296" lon="-0.22114">
        <ele>19.1</ele>
        <time>2020-09-09T11:50:40Z</time>
      </trkpt>
      <trkpt lat="44.83296" lon="-0.22113">
        <ele>19.2</ele>
        <time>2020-09-09T11:50:41Z</time>
      </trkpt>
      <trkpt lat="44.83295" lon="-0.22111">
        <ele>19.2</ele>
        <time>2020-09-09T11:50:43Z</time>
      </trkpt>
      <trkpt lat="44.83295" lon="-0.22108">
        <ele>19.3</ele>
        <time>2020-09-09T11:50:45Z</time>
      </trkpt>
      <trkpt lat="44.83295" lon="-0.22107">
        <ele>19.3</ele>
        <time>2020-09-09T11:50:46Z</time>
      </trkpt>
      <trkpt lat="44.83294" lon="-0.22106">
        <ele>19.4</ele>
        <time>2020-09-09T11:50:48Z</time>
      </trkpt>
      <trkpt lat="44.83294" lon="-0.22104">
        <ele>19.4</ele>
        <time>2020-09-09T11:50:49Z</time>
      </trkpt>
      <trkpt lat="44.83293" lon="-0.22101">
        <ele>19.5</ele>
        <time>2020-09-09T11:50:50Z</time>
      </trkpt>
      <trkpt lat="44.83293" lon="-0.221">
        <ele>19.5</ele>
        <time>2020-09-09T11:50:51Z</time>
      </trkpt>
      <trkpt lat="44.83292" lon="-0.22097">
        <ele>19.7</ele>
        <time>2020-09-09T11:50:52Z</time>
      </trkpt>
      <trkpt lat="44.83291" lon="-0.22095">
        <ele>19.7</ele>
        <time>2020-09-09T11:50:53Z</time>
      </trkpt>
      <trkpt lat="44.83291" lon="-0.22094">
        <ele>19.7</ele>
        <time>2020-09-09T11:50:54Z</time>
      </trkpt>
      <trkpt lat="44.83289" lon="-0.2209">
        <ele>19.9</ele>
        <time>2020-09-09T11:50:56Z</time>
      </trkpt>
      <trkpt lat="44.83289" lon="-0.22089">
        <ele>19.9</ele>
        <time>2020-09-09T11:50:57Z</time>
      </trkpt>
      <trkpt lat="44.83288" lon="-0.22087">
        <ele>20</ele>
        <time>2020-09-09T11:50:58Z</time>
      </trkpt>
      <trkpt lat="44.83287" lon="-0.22084">
        <ele>20.1</ele>
        <time>2020-09-09T11:51:00Z</time>
      </trkpt>
      <trkpt lat="44.83286" lon="-0.22082">
        <ele>20.2</ele>
        <time>2020-09-09T11:51:01Z</time>
      </trkpt>
      <trkpt lat="44.83286" lon="-0.2208">
        <ele>20.3</ele>
        <time>2020-09-09T11:51:03Z</time>
      </trkpt>
      <trkpt lat="44.83285" lon="-0.22078">
        <ele>20.3</ele>
        <time>2020-09-09T11:51:04Z</time>
      </trkpt>
      <trkpt lat="44.83284" lon="-0.22076">
        <ele>20.3</ele>
        <time>2020-09-09T11:51:05Z</time>
      </trkpt>
      <trkpt lat="44.83284" lon="-0.22074">
        <ele>20.4</ele>
        <time>2020-09-09T11:51:06Z</time>
      </trkpt>
      <trkpt lat="44.83285" lon="-0.22071">
        <ele>20.6</ele>
        <time>2020-09-09T11:51:08Z</time>
      </trkpt>
      <trkpt lat="44.83287" lon="-0.2207">
        <ele>20.5</ele>
        <time>2020-09-09T11:51:09Z</time>
      </trkpt>
      <trkpt lat="44.83289" lon="-0.2207">
        <ele>20.5</ele>
        <time>2020-09-09T11:51:11Z</time>
      </trkpt>
      <trkpt lat="44.83291" lon="-0.22069">
        <ele>20.4</ele>
        <time>2020-09-09T11:51:12Z</time>
      </trkpt>
      <trkpt lat="44.83293" lon="-0.2207">
        <ele>20.4</ele>
        <time>2020-09-09T11:51:13Z</time>
      </trkpt>
      <trkpt lat="44.83295" lon="-0.2207">
        <ele>20.3</ele>
        <time>2020-09-09T11:51:14Z</time>
      </trkpt>
      <trkpt lat="44.83298" lon="-0.22071">
        <ele>20.2</ele>
        <time>2020-09-09T11:51:16Z</time>
      </trkpt>
      <trkpt lat="44.83301" lon="-0.22071">
        <ele>20.1</ele>
        <time>2020-09-09T11:51:18Z</time>
      </trkpt>
      <trkpt lat="44.83303" lon="-0.22071">
        <ele>20</ele>
        <time>2020-09-09T11:51:19Z</time>
      </trkpt>
      <trkpt lat="44.83304" lon="-0.22071">
        <ele>20</ele>
        <time>2020-09-09T11:51:20Z</time>
      </trkpt>
      <trkpt lat="44.83307" lon="-0.22071">
        <ele>20</ele>
        <time>2020-09-09T11:51:21Z</time>
      </trkpt>
      <trkpt lat="44.83308" lon="-0.22071">
        <ele>20</ele>
        <time>2020-09-09T11:51:22Z</time>
      </trkpt>
      <trkpt lat="44.83308" lon="-0.22071">
        <ele>19.9</ele>
        <time>2020-09-09T11:51:23Z</time>
      </trkpt>
      <trkpt lat="44.8331" lon="-0.2207">
        <ele>19.9</ele>
        <time>2020-09-09T11:51:24Z</time>
      </trkpt>
      <trkpt lat="44.83312" lon="-0.2207">
        <ele>19.8</ele>
        <time>2020-09-09T11:51:26Z</time>
      </trkpt>
      <trkpt lat="44.83314" lon="-0.22068">
        <ele>19.8</ele>
        <time>2020-09-09T11:51:27Z</time>
      </trkpt>
      <trkpt lat="44.83315" lon="-0.22068">
        <ele>19.7</ele>
        <time>2020-09-09T11:51:28Z</time>
      </trkpt>
      <trkpt lat="44.83317" lon="-0.22066">
        <ele>19.8</ele>
        <time>2020-09-09T11:51:30Z</time>
      </trkpt>
      <trkpt lat="44.83317" lon="-0.22066">
        <ele>19.8</ele>
        <time>2020-09-09T11:51:31Z</time>
      </trkpt>
      <trkpt lat="44.83318" lon="-0.22066">
        <ele>19.8</ele>
        <time>2020-09-09T11:51:32Z</time>
      </trkpt>
      <trkpt lat="44.83318" lon="-0.22065">
        <ele>19.8</ele>
        <time>2020-09-09T11:51:33Z</time>
      </trkpt>
      <trkpt lat="44.8332" lon="-0.22064">
        <ele>19.7</ele>
        <time>2020-09-09T11:51:35Z</time>
      </trkpt>
      <trkpt lat="44.83321" lon="-0.22063">
        <ele>19.7</ele>
        <time>2020-09-09T11:51:36Z</time>
      </trkpt>
      <trkpt lat="44.83322" lon="-0.22063">
        <ele>19.7</ele>
        <time>2020-09-09T11:51:37Z</time>
      </trkpt>
      <trkpt lat="44.83323" lon="-0.22062">
        <ele>19.8</ele>
        <time>2020-09-09T11:51:39Z</time>
      </trkpt>
      <trkpt lat="44.83324" lon="-0.22061">
        <ele>19.8</ele>
        <time>2020-09-09T11:51:40Z</time>
      </trkpt>
      <trkpt lat="44.83325" lon="-0.22061">
        <ele>19.8</ele>
        <time>2020-09-09T11:51:41Z</time>
      </trkpt>
      <trkpt lat="44.83327" lon="-0.2206">
        <ele>19.7</ele>
        <time>2020-09-09T11:51:42Z</time>
      </trkpt>
      <trkpt lat="44.83328" lon="-0.22059">
        <ele>19.7</ele>
        <time>2020-09-09T11:51:43Z</time>
      </trkpt>
      <trkpt lat="44.83329" lon="-0.22059">
        <ele>19.7</ele>
        <time>2020-09-09T11:51:44Z</time>
      </trkpt>
      <trkpt lat="44.83331" lon="-0.22058">
        <ele>19.7</ele>
        <time>2020-09-09T11:51:46Z</time>
      </trkpt>
      <trkpt lat="44.83333" lon="-0.22057">
        <ele>19.7</ele>
        <time>2020-09-09T11:51:47Z</time>
      </trkpt>
      <trkpt lat="44.83334" lon="-0.22057">
        <ele>19.7</ele>
        <time>2020-09-09T11:51:49Z</time>
      </trkpt>
      <trkpt lat="44.83335" lon="-0.22056">
        <ele>19.7</ele>
        <time>2020-09-09T11:51:50Z</time>
      </trkpt>
      <trkpt lat="44.83336" lon="-0.22056">
        <ele>19.6</ele>
        <time>2020-09-09T11:51:51Z</time>
      </trkpt>
      <trkpt lat="44.83337" lon="-0.22055">
        <ele>19.6</ele>
        <time>2020-09-09T11:51:52Z</time>
      </trkpt>
      <trkpt lat="44.83338" lon="-0.22055">
        <ele>19.6</ele>
        <time>2020-09-09T11:51:54Z</time>
      </trkpt>
      <trkpt lat="44.83339" lon="-0.22054">
        <ele>19.6</ele>
        <time>2020-09-09T11:51:55Z</time>
      </trkpt>
      <trkpt lat="44.83343" lon="-0.22052">
        <ele>19.6</ele>
        <time>2020-09-09T11:51:57Z</time>
      </trkpt>
      <trkpt lat="44.83345" lon="-0.22051">
        <ele>19.5</ele>
        <time>2020-09-09T11:51:59Z</time>
      </trkpt>
      <trkpt lat="44.83347" lon="-0.2205">
        <ele>19.5</ele>
        <time>2020-09-09T11:52:01Z</time>
      </trkpt>
      <trkpt lat="44.8335" lon="-0.22048">
        <ele>19.6</ele>
        <time>2020-09-09T11:52:02Z</time>
      </trkpt>
      <trkpt lat="44.83351" lon="-0.22047">
        <ele>19.5</ele>
        <time>2020-09-09T11:52:03Z</time>
      </trkpt>
      <trkpt lat="44.83353" lon="-0.22046">
        <ele>19.5</ele>
        <time>2020-09-09T11:52:04Z</time>
      </trkpt>
      <trkpt lat="44.83355" lon="-0.22046">
        <ele>19.5</ele>
        <time>2020-09-09T11:52:06Z</time>
      </trkpt>
      <trkpt lat="44.83356" lon="-0.22046">
        <ele>19.5</ele>
        <time>2020-09-09T11:52:07Z</time>
      </trkpt>
      <trkpt lat="44.83357" lon="-0.22045">
        <ele>19.6</ele>
        <time>2020-09-09T11:52:08Z</time>
      </trkpt>
      <trkpt lat="44.83357" lon="-0.22045">
        <ele>19.5</ele>
        <time>2020-09-09T11:52:09Z</time>
      </trkpt>
      <trkpt lat="44.83358" lon="-0.22045">
        <ele>19.5</ele>
        <time>2020-09-09T11:52:10Z</time>
      </trkpt>
      <trkpt lat="44.8336" lon="-0.22044">
        <ele>19.5</ele>
        <time>2020-09-09T11:52:11Z</time>
      </trkpt>
      <trkpt lat="44.83361" lon="-0.22043">
        <ele>19.4</ele>
        <time>2020-09-09T11:52:12Z</time>
      </trkpt>
      <trkpt lat="44.83364" lon="-0.22041">
        <ele>19.5</ele>
        <time>2020-09-09T11:52:14Z</time>
      </trkpt>
      <trkpt lat="44.83366" lon="-0.2204">
        <ele>19.5</ele>
        <time>2020-09-09T11:52:15Z</time>
      </trkpt>
      <trkpt lat="44.83366" lon="-0.2204">
        <ele>19.4</ele>
        <time>2020-09-09T11:52:16Z</time>
      </trkpt>
      <trkpt lat="44.83367" lon="-0.22039">
        <ele>19.4</ele>
        <time>2020-09-09T11:52:17Z</time>
      </trkpt>
      <trkpt lat="44.83367" lon="-0.22039">
        <ele>19.4</ele>
        <time>2020-09-09T11:52:18Z</time>
      </trkpt>
      <trkpt lat="44.83369" lon="-0.22038">
        <ele>19.4</ele>
        <time>2020-09-09T11:52:19Z</time>
      </trkpt>
      <trkpt lat="44.8337" lon="-0.22037">
        <ele>19.4</ele>
        <time>2020-09-09T11:52:20Z</time>
      </trkpt>
      <trkpt lat="44.83371" lon="-0.22037">
        <ele>19.5</ele>
        <time>2020-09-09T11:52:21Z</time>
      </trkpt>
      <trkpt lat="44.83373" lon="-0.22036">
        <ele>19.4</ele>
        <time>2020-09-09T11:52:22Z</time>
      </trkpt>
      <trkpt lat="44.83374" lon="-0.22035">
        <ele>19.4</ele>
        <time>2020-09-09T11:52:23Z</time>
      </trkpt>
      <trkpt lat="44.83375" lon="-0.22035">
        <ele>19.4</ele>
        <time>2020-09-09T11:52:24Z</time>
      </trkpt>
      <trkpt lat="44.83376" lon="-0.22035">
        <ele>19.4</ele>
        <time>2020-09-09T11:52:26Z</time>
      </trkpt>
      <trkpt lat="44.83377" lon="-0.22034">
        <ele>19.4</ele>
        <time>2020-09-09T11:52:27Z</time>
      </trkpt>
      <trkpt lat="44.83379" lon="-0.22034">
        <ele>19.3</ele>
        <time>2020-09-09T11:52:28Z</time>
      </trkpt>
      <trkpt lat="44.83381" lon="-0.22032">
        <ele>19.5</ele>
        <time>2020-09-09T11:52:30Z</time>
      </trkpt>
      <trkpt lat="44.83381" lon="-0.22031">
        <ele>19.4</ele>
        <time>2020-09-09T11:52:31Z</time>
      </trkpt>
      <trkpt lat="44.83382" lon="-0.22031">
        <ele>19.4</ele>
        <time>2020-09-09T11:52:32Z</time>
      </trkpt>
      <trkpt lat="44.83383" lon="-0.2203">
        <ele>19.4</ele>
        <time>2020-09-09T11:52:33Z</time>
      </trkpt>
      <trkpt lat="44.83384" lon="-0.2203">
        <ele>19.4</ele>
        <time>2020-09-09T11:52:34Z</time>
      </trkpt>
      <trkpt lat="44.83385" lon="-0.22029">
        <ele>19.3</ele>
        <time>2020-09-09T11:52:36Z</time>
      </trkpt>
      <trkpt lat="44.83386" lon="-0.22027">
        <ele>19.5</ele>
        <time>2020-09-09T11:52:37Z</time>
      </trkpt>
      <trkpt lat="44.83387" lon="-0.22027">
        <ele>19.4</ele>
        <time>2020-09-09T11:52:38Z</time>
      </trkpt>
      <trkpt lat="44.83388" lon="-0.22026">
        <ele>19.4</ele>
        <time>2020-09-09T11:52:40Z</time>
      </trkpt>
      <trkpt lat="44.83389" lon="-0.22026">
        <ele>19.4</ele>
        <time>2020-09-09T11:52:41Z</time>
      </trkpt>
      <trkpt lat="44.8339" lon="-0.22025">
        <ele>19.4</ele>
        <time>2020-09-09T11:52:42Z</time>
      </trkpt>
      <trkpt lat="44.83391" lon="-0.22024">
        <ele>19.5</ele>
        <time>2020-09-09T11:52:43Z</time>
      </trkpt>
      <trkpt lat="44.83392" lon="-0.22023">
        <ele>19.5</ele>
        <time>2020-09-09T11:52:44Z</time>
      </trkpt>
      <trkpt lat="44.83394" lon="-0.22022">
        <ele>19.4</ele>
        <time>2020-09-09T11:52:46Z</time>
      </trkpt>
      <trkpt lat="44.83395" lon="-0.22022">
        <ele>19.4</ele>
        <time>2020-09-09T11:52:47Z</time>
      </trkpt>
      <trkpt lat="44.83396" lon="-0.22021">
        <ele>19.3</ele>
        <time>2020-09-09T11:52:48Z</time>
      </trkpt>
      <trkpt lat="44.83397" lon="-0.2202">
        <ele>19.3</ele>
        <time>2020-09-09T11:52:49Z</time>
      </trkpt>
      <trkpt lat="44.83398" lon="-0.2202">
        <ele>19.5</ele>
        <time>2020-09-09T11:52:50Z</time>
      </trkpt>
      <trkpt lat="44.83398" lon="-0.22019">
        <ele>19.5</ele>
        <time>2020-09-09T11:52:51Z</time>
      </trkpt>
      <trkpt lat="44.83401" lon="-0.22017">
        <ele>19.4</ele>
        <time>2020-09-09T11:52:52Z</time>
      </trkpt>
      <trkpt lat="44.83402" lon="-0.22016">
        <ele>19.4</ele>
        <time>2020-09-09T11:52:54Z</time>
      </trkpt>
      <trkpt lat="44.83403" lon="-0.22016">
        <ele>19.4</ele>
        <time>2020-09-09T11:52:55Z</time>
      </trkpt>
      <trkpt lat="44.83405" lon="-0.22015">
        <ele>19.5</ele>
        <time>2020-09-09T11:52:56Z</time>
      </trkpt>
      <trkpt lat="44.83407" lon="-0.22014">
        <ele>19.5</ele>
        <time>2020-09-09T11:52:58Z</time>
      </trkpt>
      <trkpt lat="44.83408" lon="-0.22013">
        <ele>19.5</ele>
        <time>2020-09-09T11:52:59Z</time>
      </trkpt>
      <trkpt lat="44.83408" lon="-0.22013">
        <ele>19.5</ele>
        <time>2020-09-09T11:53:00Z</time>
      </trkpt>
      <trkpt lat="44.83409" lon="-0.22012">
        <ele>19.4</ele>
        <time>2020-09-09T11:53:01Z</time>
      </trkpt>
      <trkpt lat="44.8341" lon="-0.22011">
        <ele>19.4</ele>
        <time>2020-09-09T11:53:02Z</time>
      </trkpt>
      <trkpt lat="44.83411" lon="-0.2201">
        <ele>19.6</ele>
        <time>2020-09-09T11:53:04Z</time>
      </trkpt>
      <trkpt lat="44.83412" lon="-0.2201">
        <ele>19.5</ele>
        <time>2020-09-09T11:53:05Z</time>
      </trkpt>
      <trkpt lat="44.83413" lon="-0.22009">
        <ele>19.5</ele>
        <time>2020-09-09T11:53:06Z</time>
      </trkpt>
      <trkpt lat="44.83415" lon="-0.22008">
        <ele>19.4</ele>
        <time>2020-09-09T11:53:08Z</time>
      </trkpt>
      <trkpt lat="44.83417" lon="-0.22007">
        <ele>19.6</ele>
        <time>2020-09-09T11:53:09Z</time>
      </trkpt>
      <trkpt lat="44.83417" lon="-0.22006">
        <ele>19.5</ele>
        <time>2020-09-09T11:53:10Z</time>
      </trkpt>
      <trkpt lat="44.83418" lon="-0.22006">
        <ele>19.5</ele>
        <time>2020-09-09T11:53:11Z</time>
      </trkpt>
      <trkpt lat="44.83422" lon="-0.22003">
        <ele>19.5</ele>
        <time>2020-09-09T11:53:13Z</time>
      </trkpt>
      <trkpt lat="44.83424" lon="-0.22002">
        <ele>19.4</ele>
        <time>2020-09-09T11:53:15Z</time>
      </trkpt>
      <trkpt lat="44.83425" lon="-0.22001">
        <ele>19.4</ele>
        <time>2020-09-09T11:53:16Z</time>
      </trkpt>
      <trkpt lat="44.83426" lon="-0.22">
        <ele>19.4</ele>
        <time>2020-09-09T11:53:17Z</time>
      </trkpt>
      <trkpt lat="44.83428" lon="-0.21999">
        <ele>19.4</ele>
        <time>2020-09-09T11:53:19Z</time>
      </trkpt>
      <trkpt lat="44.83429" lon="-0.21998">
        <ele>19.5</ele>
        <time>2020-09-09T11:53:20Z</time>
      </trkpt>
      <trkpt lat="44.83431" lon="-0.21997">
        <ele>19.4</ele>
        <time>2020-09-09T11:53:21Z</time>
      </trkpt>
      <trkpt lat="44.83432" lon="-0.21996">
        <ele>19.4</ele>
        <time>2020-09-09T11:53:23Z</time>
      </trkpt>
      <trkpt lat="44.83434" lon="-0.21994">
        <ele>19.3</ele>
        <time>2020-09-09T11:53:24Z</time>
      </trkpt>
      <trkpt lat="44.83436" lon="-0.21993">
        <ele>19.4</ele>
        <time>2020-09-09T11:53:25Z</time>
      </trkpt>
      <trkpt lat="44.83437" lon="-0.21993">
        <ele>19.4</ele>
        <time>2020-09-09T11:53:26Z</time>
      </trkpt>
      <trkpt lat="44.83437" lon="-0.21992">
        <ele>19.4</ele>
        <time>2020-09-09T11:53:27Z</time>
      </trkpt>
      <trkpt lat="44.83438" lon="-0.21992">
        <ele>19.4</ele>
        <time>2020-09-09T11:53:28Z</time>
      </trkpt>
      <trkpt lat="44.83438" lon="-0.21992">
        <ele>19.4</ele>
        <time>2020-09-09T11:53:29Z</time>
      </trkpt>
      <trkpt lat="44.83439" lon="-0.21991">
        <ele>19.3</ele>
        <time>2020-09-09T11:53:30Z</time>
      </trkpt>
      <trkpt lat="44.83441" lon="-0.21989">
        <ele>19.5</ele>
        <time>2020-09-09T11:53:32Z</time>
      </trkpt>
      <trkpt lat="44.83442" lon="-0.21988">
        <ele>19.4</ele>
        <time>2020-09-09T11:53:33Z</time>
      </trkpt>
      <trkpt lat="44.83444" lon="-0.21988">
        <ele>19.4</ele>
        <time>2020-09-09T11:53:35Z</time>
      </trkpt>
      <trkpt lat="44.83445" lon="-0.21987">
        <ele>19.2</ele>
        <time>2020-09-09T11:53:36Z</time>
      </trkpt>
      <trkpt lat="44.83446" lon="-0.21986">
        <ele>19.2</ele>
        <time>2020-09-09T11:53:37Z</time>
      </trkpt>
      <trkpt lat="44.83447" lon="-0.21985">
        <ele>19.4</ele>
        <time>2020-09-09T11:53:38Z</time>
      </trkpt>
      <trkpt lat="44.83449" lon="-0.21984">
        <ele>19.3</ele>
        <time>2020-09-09T11:53:39Z</time>
      </trkpt>
      <trkpt lat="44.83449" lon="-0.21984">
        <ele>19.3</ele>
        <time>2020-09-09T11:53:40Z</time>
      </trkpt>
      <trkpt lat="44.83449" lon="-0.21984">
        <ele>19.3</ele>
        <time>2020-09-09T11:53:41Z</time>
      </trkpt>
      <trkpt lat="44.83451" lon="-0.21983">
        <ele>19.3</ele>
        <time>2020-09-09T11:53:43Z</time>
      </trkpt>
      <trkpt lat="44.83452" lon="-0.21982">
        <ele>19.2</ele>
        <time>2020-09-09T11:53:45Z</time>
      </trkpt>
      <trkpt lat="44.83453" lon="-0.21981">
        <ele>19.2</ele>
        <time>2020-09-09T11:53:46Z</time>
      </trkpt>
      <trkpt lat="44.83454" lon="-0.21981">
        <ele>19.3</ele>
        <time>2020-09-09T11:53:48Z</time>
      </trkpt>
      <trkpt lat="44.83456" lon="-0.21979">
        <ele>19.3</ele>
        <time>2020-09-09T11:53:49Z</time>
      </trkpt>
      <trkpt lat="44.83457" lon="-0.21978">
        <ele>19.3</ele>
        <time>2020-09-09T11:53:50Z</time>
      </trkpt>
      <trkpt lat="44.83457" lon="-0.21978">
        <ele>19.2</ele>
        <time>2020-09-09T11:53:51Z</time>
      </trkpt>
      <trkpt lat="44.83458" lon="-0.21977">
        <ele>19.4</ele>
        <time>2020-09-09T11:53:52Z</time>
      </trkpt>
      <trkpt lat="44.8346" lon="-0.21975">
        <ele>19.3</ele>
        <time>2020-09-09T11:53:54Z</time>
      </trkpt>
      <trkpt lat="44.83461" lon="-0.21975">
        <ele>19.3</ele>
        <time>2020-09-09T11:53:55Z</time>
      </trkpt>
      <trkpt lat="44.83462" lon="-0.21974">
        <ele>19.3</ele>
        <time>2020-09-09T11:53:56Z</time>
      </trkpt>
      <trkpt lat="44.83463" lon="-0.21973">
        <ele>19.2</ele>
        <time>2020-09-09T11:53:58Z</time>
      </trkpt>
      <trkpt lat="44.83465" lon="-0.21971">
        <ele>19.5</ele>
        <time>2020-09-09T11:53:59Z</time>
      </trkpt>
      <trkpt lat="44.83466" lon="-0.21971">
        <ele>19.5</ele>
        <time>2020-09-09T11:54:00Z</time>
      </trkpt>
      <trkpt lat="44.83467" lon="-0.2197">
        <ele>19.3</ele>
        <time>2020-09-09T11:54:01Z</time>
      </trkpt>
      <trkpt lat="44.83469" lon="-0.21969">
        <ele>19.4</ele>
        <time>2020-09-09T11:54:03Z</time>
      </trkpt>
      <trkpt lat="44.83471" lon="-0.21968">
        <ele>19.4</ele>
        <time>2020-09-09T11:54:04Z</time>
      </trkpt>
      <trkpt lat="44.83472" lon="-0.21967">
        <ele>19.4</ele>
        <time>2020-09-09T11:54:05Z</time>
      </trkpt>
      <trkpt lat="44.83473" lon="-0.21966">
        <ele>19.3</ele>
        <time>2020-09-09T11:54:06Z</time>
      </trkpt>
      <trkpt lat="44.83474" lon="-0.21966">
        <ele>19.3</ele>
        <time>2020-09-09T11:54:07Z</time>
      </trkpt>
      <trkpt lat="44.83477" lon="-0.21964">
        <ele>19.3</ele>
        <time>2020-09-09T11:54:09Z</time>
      </trkpt>
      <trkpt lat="44.83479" lon="-0.21963">
        <ele>19.2</ele>
        <time>2020-09-09T11:54:10Z</time>
      </trkpt>
      <trkpt lat="44.83479" lon="-0.21962">
        <ele>19.2</ele>
        <time>2020-09-09T11:54:12Z</time>
      </trkpt>
      <trkpt lat="44.8348" lon="-0.21962">
        <ele>19.2</ele>
        <time>2020-09-09T11:54:13Z</time>
      </trkpt>
      <trkpt lat="44.83482" lon="-0.21961">
        <ele>19.1</ele>
        <time>2020-09-09T11:54:14Z</time>
      </trkpt>
      <trkpt lat="44.83483" lon="-0.21961">
        <ele>19.1</ele>
        <time>2020-09-09T11:54:15Z</time>
      </trkpt>
      <trkpt lat="44.83483" lon="-0.2196">
        <ele>19.1</ele>
        <time>2020-09-09T11:54:16Z</time>
      </trkpt>
      <trkpt lat="44.83485" lon="-0.2196">
        <ele>19.2</ele>
        <time>2020-09-09T11:54:18Z</time>
      </trkpt>
      <trkpt lat="44.83487" lon="-0.21959">
        <ele>19.2</ele>
        <time>2020-09-09T11:54:19Z</time>
      </trkpt>
      <trkpt lat="44.83489" lon="-0.21958">
        <ele>19.1</ele>
        <time>2020-09-09T11:54:21Z</time>
      </trkpt>
      <trkpt lat="44.8349" lon="-0.21958">
        <ele>19.1</ele>
        <time>2020-09-09T11:54:23Z</time>
      </trkpt>
      <trkpt lat="44.83492" lon="-0.21957">
        <ele>18.9</ele>
        <time>2020-09-09T11:54:24Z</time>
      </trkpt>
      <trkpt lat="44.83494" lon="-0.21956">
        <ele>18.8</ele>
        <time>2020-09-09T11:54:26Z</time>
      </trkpt>
      <trkpt lat="44.83495" lon="-0.21956">
        <ele>18.8</ele>
        <time>2020-09-09T11:54:27Z</time>
      </trkpt>
      <trkpt lat="44.83498" lon="-0.21956">
        <ele>18.8</ele>
        <time>2020-09-09T11:54:29Z</time>
      </trkpt>
      <trkpt lat="44.83499" lon="-0.21955">
        <ele>18.9</ele>
        <time>2020-09-09T11:54:30Z</time>
      </trkpt>
      <trkpt lat="44.835" lon="-0.21955">
        <ele>18.8</ele>
        <time>2020-09-09T11:54:31Z</time>
      </trkpt>
      <trkpt lat="44.83503" lon="-0.21954">
        <ele>18.7</ele>
        <time>2020-09-09T11:54:33Z</time>
      </trkpt>
      <trkpt lat="44.83504" lon="-0.21954">
        <ele>18.7</ele>
        <time>2020-09-09T11:54:34Z</time>
      </trkpt>
      <trkpt lat="44.83506" lon="-0.21953">
        <ele>18.6</ele>
        <time>2020-09-09T11:54:36Z</time>
      </trkpt>
      <trkpt lat="44.83507" lon="-0.21952">
        <ele>18.6</ele>
        <time>2020-09-09T11:54:37Z</time>
      </trkpt>
      <trkpt lat="44.83508" lon="-0.21952">
        <ele>18.6</ele>
        <time>2020-09-09T11:54:38Z</time>
      </trkpt>
      <trkpt lat="44.8351" lon="-0.2195">
        <ele>18.7</ele>
        <time>2020-09-09T11:54:40Z</time>
      </trkpt>
      <trkpt lat="44.83512" lon="-0.21948">
        <ele>18.6</ele>
        <time>2020-09-09T11:54:41Z</time>
      </trkpt>
      <trkpt lat="44.83513" lon="-0.21948">
        <ele>18.6</ele>
        <time>2020-09-09T11:54:42Z</time>
      </trkpt>
      <trkpt lat="44.83516" lon="-0.21946">
        <ele>18.7</ele>
        <time>2020-09-09T11:54:44Z</time>
      </trkpt>
      <trkpt lat="44.83517" lon="-0.21945">
        <ele>18.7</ele>
        <time>2020-09-09T11:54:45Z</time>
      </trkpt>
      <trkpt lat="44.83518" lon="-0.21945">
        <ele>18.7</ele>
        <time>2020-09-09T11:54:46Z</time>
      </trkpt>
      <trkpt lat="44.83519" lon="-0.21944">
        <ele>18.6</ele>
        <time>2020-09-09T11:54:47Z</time>
      </trkpt>
      <trkpt lat="44.83522" lon="-0.21942">
        <ele>18.7</ele>
        <time>2020-09-09T11:54:49Z</time>
      </trkpt>
      <trkpt lat="44.83524" lon="-0.21941">
        <ele>18.7</ele>
        <time>2020-09-09T11:54:51Z</time>
      </trkpt>
      <trkpt lat="44.83525" lon="-0.2194">
        <ele>18.6</ele>
        <time>2020-09-09T11:54:52Z</time>
      </trkpt>
      <trkpt lat="44.83526" lon="-0.21939">
        <ele>18.6</ele>
        <time>2020-09-09T11:54:53Z</time>
      </trkpt>
      <trkpt lat="44.83529" lon="-0.21937">
        <ele>18.7</ele>
        <time>2020-09-09T11:54:54Z</time>
      </trkpt>
      <trkpt lat="44.8353" lon="-0.21936">
        <ele>18.7</ele>
        <time>2020-09-09T11:54:55Z</time>
      </trkpt>
      <trkpt lat="44.83531" lon="-0.21935">
        <ele>18.7</ele>
        <time>2020-09-09T11:54:56Z</time>
      </trkpt>
      <trkpt lat="44.83533" lon="-0.21934">
        <ele>18.7</ele>
        <time>2020-09-09T11:54:57Z</time>
      </trkpt>
      <trkpt lat="44.83535" lon="-0.21933">
        <ele>18.8</ele>
        <time>2020-09-09T11:54:59Z</time>
      </trkpt>
      <trkpt lat="44.83536" lon="-0.21933">
        <ele>18.8</ele>
        <time>2020-09-09T11:55:01Z</time>
      </trkpt>
      <trkpt lat="44.83537" lon="-0.21932">
        <ele>18.7</ele>
        <time>2020-09-09T11:55:02Z</time>
      </trkpt>
      <trkpt lat="44.83538" lon="-0.21932">
        <ele>18.7</ele>
        <time>2020-09-09T11:55:03Z</time>
      </trkpt>
      <trkpt lat="44.83539" lon="-0.21931">
        <ele>18.7</ele>
        <time>2020-09-09T11:55:04Z</time>
      </trkpt>
      <trkpt lat="44.83541" lon="-0.2193">
        <ele>18.6</ele>
        <time>2020-09-09T11:55:05Z</time>
      </trkpt>
      <trkpt lat="44.83541" lon="-0.2193">
        <ele>18.6</ele>
        <time>2020-09-09T11:55:06Z</time>
      </trkpt>
      <trkpt lat="44.83542" lon="-0.2193">
        <ele>18.8</ele>
        <time>2020-09-09T11:55:07Z</time>
      </trkpt>
      <trkpt lat="44.83543" lon="-0.2193">
        <ele>18.6</ele>
        <time>2020-09-09T11:55:08Z</time>
      </trkpt>
      <trkpt lat="44.83545" lon="-0.2193">
        <ele>18.8</ele>
        <time>2020-09-09T11:55:09Z</time>
      </trkpt>
      <trkpt lat="44.83545" lon="-0.2193">
        <ele>18.6</ele>
        <time>2020-09-09T11:55:10Z</time>
      </trkpt>
      <trkpt lat="44.83546" lon="-0.21931">
        <ele>18.6</ele>
        <time>2020-09-09T11:55:11Z</time>
      </trkpt>
      <trkpt lat="44.83548" lon="-0.21932">
        <ele>18.6</ele>
        <time>2020-09-09T11:55:13Z</time>
      </trkpt>
      <trkpt lat="44.83549" lon="-0.21933">
        <ele>18.5</ele>
        <time>2020-09-09T11:55:15Z</time>
      </trkpt>
      <trkpt lat="44.8355" lon="-0.21934">
        <ele>18.5</ele>
        <time>2020-09-09T11:55:16Z</time>
      </trkpt>
      <trkpt lat="44.83551" lon="-0.21936">
        <ele>18.3</ele>
        <time>2020-09-09T11:55:17Z</time>
      </trkpt>
      <trkpt lat="44.83552" lon="-0.21938">
        <ele>18.3</ele>
        <time>2020-09-09T11:55:18Z</time>
      </trkpt>
      <trkpt lat="44.83552" lon="-0.21939">
        <ele>18.1</ele>
        <time>2020-09-09T11:55:19Z</time>
      </trkpt>
      <trkpt lat="44.83553" lon="-0.21941">
        <ele>18.1</ele>
        <time>2020-09-09T11:55:20Z</time>
      </trkpt>
      <trkpt lat="44.83553" lon="-0.21943">
        <ele>18</ele>
        <time>2020-09-09T11:55:21Z</time>
      </trkpt>
      <trkpt lat="44.83554" lon="-0.21944">
        <ele>18</ele>
        <time>2020-09-09T11:55:22Z</time>
      </trkpt>
      <trkpt lat="44.83555" lon="-0.21949">
        <ele>17.8</ele>
        <time>2020-09-09T11:55:24Z</time>
      </trkpt>
      <trkpt lat="44.83557" lon="-0.2195">
        <ele>17.8</ele>
        <time>2020-09-09T11:55:25Z</time>
      </trkpt>
      <trkpt lat="44.83558" lon="-0.2195">
        <ele>17.7</ele>
        <time>2020-09-09T11:55:27Z</time>
      </trkpt>
      <trkpt lat="44.83559" lon="-0.21951">
        <ele>17.7</ele>
        <time>2020-09-09T11:55:28Z</time>
      </trkpt>
      <trkpt lat="44.83562" lon="-0.21951">
        <ele>17.7</ele>
        <time>2020-09-09T11:55:29Z</time>
      </trkpt>
      <trkpt lat="44.83563" lon="-0.21951">
        <ele>17.7</ele>
        <time>2020-09-09T11:55:30Z</time>
      </trkpt>
      <trkpt lat="44.83565" lon="-0.2195">
        <ele>17.6</ele>
        <time>2020-09-09T11:55:31Z</time>
      </trkpt>
      <trkpt lat="44.83566" lon="-0.21949">
        <ele>17.6</ele>
        <time>2020-09-09T11:55:32Z</time>
      </trkpt>
      <trkpt lat="44.83567" lon="-0.21948">
        <ele>17.6</ele>
        <time>2020-09-09T11:55:33Z</time>
      </trkpt>
      <trkpt lat="44.83568" lon="-0.21948">
        <ele>17.6</ele>
        <time>2020-09-09T11:55:34Z</time>
      </trkpt>
      <trkpt lat="44.83569" lon="-0.21946">
        <ele>17.7</ele>
        <time>2020-09-09T11:55:36Z</time>
      </trkpt>
      <trkpt lat="44.8357" lon="-0.21946">
        <ele>17.7</ele>
        <time>2020-09-09T11:55:37Z</time>
      </trkpt>
      <trkpt lat="44.83571" lon="-0.21946">
        <ele>17.7</ele>
        <time>2020-09-09T11:55:38Z</time>
      </trkpt>
      <trkpt lat="44.83572" lon="-0.21945">
        <ele>17.7</ele>
        <time>2020-09-09T11:55:39Z</time>
      </trkpt>
      <trkpt lat="44.83575" lon="-0.21943">
        <ele>17.7</ele>
        <time>2020-09-09T11:55:41Z</time>
      </trkpt>
      <trkpt lat="44.83576" lon="-0.21943">
        <ele>17.8</ele>
        <time>2020-09-09T11:55:42Z</time>
      </trkpt>
      <trkpt lat="44.83576" lon="-0.21942">
        <ele>17.8</ele>
        <time>2020-09-09T11:55:43Z</time>
      </trkpt>
      <trkpt lat="44.83577" lon="-0.21941">
        <ele>17.8</ele>
        <time>2020-09-09T11:55:44Z</time>
      </trkpt>
      <trkpt lat="44.83578" lon="-0.2194">
        <ele>17.8</ele>
        <time>2020-09-09T11:55:45Z</time>
      </trkpt>
      <trkpt lat="44.83579" lon="-0.2194">
        <ele>17.7</ele>
        <time>2020-09-09T11:55:47Z</time>
      </trkpt>
      <trkpt lat="44.8358" lon="-0.21939">
        <ele>17.7</ele>
        <time>2020-09-09T11:55:48Z</time>
      </trkpt>
      <trkpt lat="44.83581" lon="-0.21938">
        <ele>17.9</ele>
        <time>2020-09-09T11:55:49Z</time>
      </trkpt>
      <trkpt lat="44.83582" lon="-0.21938">
        <ele>17.9</ele>
        <time>2020-09-09T11:55:50Z</time>
      </trkpt>
      <trkpt lat="44.83584" lon="-0.21937">
        <ele>17.9</ele>
        <time>2020-09-09T11:55:51Z</time>
      </trkpt>
      <trkpt lat="44.83585" lon="-0.21936">
        <ele>17.8</ele>
        <time>2020-09-09T11:55:52Z</time>
      </trkpt>
      <trkpt lat="44.83586" lon="-0.21935">
        <ele>17.8</ele>
        <time>2020-09-09T11:55:53Z</time>
      </trkpt>
      <trkpt lat="44.83587" lon="-0.21935">
        <ele>17.8</ele>
        <time>2020-09-09T11:55:54Z</time>
      </trkpt>
      <trkpt lat="44.83589" lon="-0.21934">
        <ele>18</ele>
        <time>2020-09-09T11:55:55Z</time>
      </trkpt>
      <trkpt lat="44.8359" lon="-0.21934">
        <ele>18</ele>
        <time>2020-09-09T11:55:57Z</time>
      </trkpt>
      <trkpt lat="44.83591" lon="-0.21933">
        <ele>18</ele>
        <time>2020-09-09T11:55:58Z</time>
      </trkpt>
      <trkpt lat="44.83592" lon="-0.21933">
        <ele>17.9</ele>
        <time>2020-09-09T11:55:59Z</time>
      </trkpt>
      <trkpt lat="44.83594" lon="-0.21932">
        <ele>18</ele>
        <time>2020-09-09T11:56:00Z</time>
      </trkpt>
      <trkpt lat="44.83595" lon="-0.21933">
        <ele>17.9</ele>
        <time>2020-09-09T11:56:01Z</time>
      </trkpt>
      <trkpt lat="44.83596" lon="-0.21932">
        <ele>17.9</ele>
        <time>2020-09-09T11:56:02Z</time>
      </trkpt>
      <trkpt lat="44.83598" lon="-0.21931">
        <ele>17.9</ele>
        <time>2020-09-09T11:56:04Z</time>
      </trkpt>
      <trkpt lat="44.83599" lon="-0.2193">
        <ele>17.9</ele>
        <time>2020-09-09T11:56:05Z</time>
      </trkpt>
      <trkpt lat="44.836" lon="-0.2193">
        <ele>18.1</ele>
        <time>2020-09-09T11:56:06Z</time>
      </trkpt>
      <trkpt lat="44.83601" lon="-0.21929">
        <ele>18</ele>
        <time>2020-09-09T11:56:07Z</time>
      </trkpt>
      <trkpt lat="44.83602" lon="-0.21928">
        <ele>18</ele>
        <time>2020-09-09T11:56:08Z</time>
      </trkpt>
      <trkpt lat="44.83603" lon="-0.21928">
        <ele>18</ele>
        <time>2020-09-09T11:56:09Z</time>
      </trkpt>
      <trkpt lat="44.83605" lon="-0.21926">
        <ele>18</ele>
        <time>2020-09-09T11:56:11Z</time>
      </trkpt>
      <trkpt lat="44.83607" lon="-0.21926">
        <ele>18</ele>
        <time>2020-09-09T11:56:12Z</time>
      </trkpt>
      <trkpt lat="44.83609" lon="-0.21926">
        <ele>18</ele>
        <time>2020-09-09T11:56:14Z</time>
      </trkpt>
      <trkpt lat="44.8361" lon="-0.21926">
        <ele>18</ele>
        <time>2020-09-09T11:56:15Z</time>
      </trkpt>
      <trkpt lat="44.83611" lon="-0.21926">
        <ele>18</ele>
        <time>2020-09-09T11:56:16Z</time>
      </trkpt>
      <trkpt lat="44.83611" lon="-0.21926">
        <ele>18</ele>
        <time>2020-09-09T11:56:17Z</time>
      </trkpt>
      <trkpt lat="44.83613" lon="-0.21925">
        <ele>18.1</ele>
        <time>2020-09-09T11:56:19Z</time>
      </trkpt>
      <trkpt lat="44.83614" lon="-0.21925">
        <ele>18.1</ele>
        <time>2020-09-09T11:56:20Z</time>
      </trkpt>
      <trkpt lat="44.83615" lon="-0.21925">
        <ele>18.1</ele>
        <time>2020-09-09T11:56:21Z</time>
      </trkpt>
      <trkpt lat="44.83616" lon="-0.21924">
        <ele>18.1</ele>
        <time>2020-09-09T11:56:23Z</time>
      </trkpt>
      <trkpt lat="44.83617" lon="-0.21923">
        <ele>18.1</ele>
        <time>2020-09-09T11:56:24Z</time>
      </trkpt>
      <trkpt lat="44.83618" lon="-0.21922">
        <ele>18.1</ele>
        <time>2020-09-09T11:56:26Z</time>
      </trkpt>
      <trkpt lat="44.83619" lon="-0.21922">
        <ele>18.1</ele>
        <time>2020-09-09T11:56:27Z</time>
      </trkpt>
      <trkpt lat="44.83623" lon="-0.21921">
        <ele>18</ele>
        <time>2020-09-09T11:56:29Z</time>
      </trkpt>
      <trkpt lat="44.83624" lon="-0.21921">
        <ele>18</ele>
        <time>2020-09-09T11:56:30Z</time>
      </trkpt>
      <trkpt lat="44.83625" lon="-0.21922">
        <ele>18</ele>
        <time>2020-09-09T11:56:31Z</time>
      </trkpt>
      <trkpt lat="44.83625" lon="-0.21922">
        <ele>18</ele>
        <time>2020-09-09T11:56:32Z</time>
      </trkpt>
      <trkpt lat="44.83628" lon="-0.21923">
        <ele>18</ele>
        <time>2020-09-09T11:56:34Z</time>
      </trkpt>
      <trkpt lat="44.83629" lon="-0.21924">
        <ele>18</ele>
        <time>2020-09-09T11:56:36Z</time>
      </trkpt>
      <trkpt lat="44.8363" lon="-0.21924">
        <ele>18</ele>
        <time>2020-09-09T11:56:38Z</time>
      </trkpt>
      <trkpt lat="44.8363" lon="-0.21925">
        <ele>18</ele>
        <time>2020-09-09T11:56:39Z</time>
      </trkpt>
      <trkpt lat="44.8363" lon="-0.21925">
        <ele>18</ele>
        <time>2020-09-09T11:56:41Z</time>
      </trkpt>
      <trkpt lat="44.8363" lon="-0.21926">
        <ele>17.9</ele>
        <time>2020-09-09T11:56:43Z</time>
      </trkpt>
      <trkpt lat="44.83629" lon="-0.21926">
        <ele>17.9</ele>
        <time>2020-09-09T11:56:44Z</time>
      </trkpt>
      <trkpt lat="44.83629" lon="-0.21925">
        <ele>18</ele>
        <time>2020-09-09T11:56:45Z</time>
      </trkpt>
      <trkpt lat="44.83628" lon="-0.21923">
        <ele>18</ele>
        <time>2020-09-09T11:56:47Z</time>
      </trkpt>
      <trkpt lat="44.83627" lon="-0.21922">
        <ele>18.1</ele>
        <time>2020-09-09T11:56:49Z</time>
      </trkpt>
      <trkpt lat="44.83627" lon="-0.21919">
        <ele>18.2</ele>
        <time>2020-09-09T11:56:50Z</time>
      </trkpt>
      <trkpt lat="44.83626" lon="-0.21918">
        <ele>18.2</ele>
        <time>2020-09-09T11:56:52Z</time>
      </trkpt>
      <trkpt lat="44.83626" lon="-0.21916">
        <ele>18.3</ele>
        <time>2020-09-09T11:56:53Z</time>
      </trkpt>
      <trkpt lat="44.83626" lon="-0.21916">
        <ele>18.3</ele>
        <time>2020-09-09T11:56:54Z</time>
      </trkpt>
      <trkpt lat="44.83626" lon="-0.21915">
        <ele>18.3</ele>
        <time>2020-09-09T11:56:56Z</time>
      </trkpt>
      <trkpt lat="44.83627" lon="-0.21914">
        <ele>18.3</ele>
        <time>2020-09-09T11:56:57Z</time>
      </trkpt>
      <trkpt lat="44.83628" lon="-0.21914">
        <ele>18.3</ele>
        <time>2020-09-09T11:56:58Z</time>
      </trkpt>
      <trkpt lat="44.83628" lon="-0.21913">
        <ele>18.3</ele>
        <time>2020-09-09T11:57:00Z</time>
      </trkpt>
      <trkpt lat="44.83628" lon="-0.21913">
        <ele>18.3</ele>
        <time>2020-09-09T11:57:02Z</time>
      </trkpt>
      <trkpt lat="44.83628" lon="-0.21913">
        <ele>18.3</ele>
        <time>2020-09-09T11:57:03Z</time>
      </trkpt>
      <trkpt lat="44.83628" lon="-0.21913">
        <ele>18.3</ele>
        <time>2020-09-09T11:57:04Z</time>
      </trkpt>
      <trkpt lat="44.83629" lon="-0.21912">
        <ele>18.4</ele>
        <time>2020-09-09T11:57:05Z</time>
      </trkpt>
      <trkpt lat="44.83629" lon="-0.21912">
        <ele>18.4</ele>
        <time>2020-09-09T11:57:06Z</time>
      </trkpt>
      <trkpt lat="44.83631" lon="-0.21913">
        <ele>18.3</ele>
        <time>2020-09-09T11:57:08Z</time>
      </trkpt>
      <trkpt lat="44.83631" lon="-0.21914">
        <ele>18.3</ele>
        <time>2020-09-09T11:57:09Z</time>
      </trkpt>
      <trkpt lat="44.83632" lon="-0.21915">
        <ele>18.3</ele>
        <time>2020-09-09T11:57:11Z</time>
      </trkpt>
      <trkpt lat="44.83632" lon="-0.21918">
        <ele>18.2</ele>
        <time>2020-09-09T11:57:12Z</time>
      </trkpt>
      <trkpt lat="44.83633" lon="-0.21922">
        <ele>18</ele>
        <time>2020-09-09T11:57:13Z</time>
      </trkpt>
      <trkpt lat="44.83633" lon="-0.21924">
        <ele>18.1</ele>
        <time>2020-09-09T11:57:15Z</time>
      </trkpt>
      <trkpt lat="44.83634" lon="-0.21926">
        <ele>17.9</ele>
        <time>2020-09-09T11:57:16Z</time>
      </trkpt>
      <trkpt lat="44.83636" lon="-0.21933">
        <ele>17.8</ele>
        <time>2020-09-09T11:57:18Z</time>
      </trkpt>
      <trkpt lat="44.83636" lon="-0.21935">
        <ele>17.7</ele>
        <time>2020-09-09T11:57:19Z</time>
      </trkpt>
      <trkpt lat="44.83636" lon="-0.21936">
        <ele>17.7</ele>
        <time>2020-09-09T11:57:20Z</time>
      </trkpt>
      <trkpt lat="44.83637" lon="-0.21938">
        <ele>17.7</ele>
        <time>2020-09-09T11:57:21Z</time>
      </trkpt>
      <trkpt lat="44.83637" lon="-0.2194">
        <ele>17.5</ele>
        <time>2020-09-09T11:57:22Z</time>
      </trkpt>
      <trkpt lat="44.83637" lon="-0.21943">
        <ele>17.4</ele>
        <time>2020-09-09T11:57:23Z</time>
      </trkpt>
      <trkpt lat="44.83638" lon="-0.21945">
        <ele>17.4</ele>
        <time>2020-09-09T11:57:25Z</time>
      </trkpt>
      <trkpt lat="44.83639" lon="-0.21947">
        <ele>17.4</ele>
        <time>2020-09-09T11:57:26Z</time>
      </trkpt>
      <trkpt lat="44.83639" lon="-0.21948">
        <ele>17.3</ele>
        <time>2020-09-09T11:57:27Z</time>
      </trkpt>
      <trkpt lat="44.8364" lon="-0.21951">
        <ele>17.2</ele>
        <time>2020-09-09T11:57:29Z</time>
      </trkpt>
      <trkpt lat="44.83641" lon="-0.21953">
        <ele>17.2</ele>
        <time>2020-09-09T11:57:30Z</time>
      </trkpt>
      <trkpt lat="44.83642" lon="-0.21955">
        <ele>17.2</ele>
        <time>2020-09-09T11:57:31Z</time>
      </trkpt>
      <trkpt lat="44.83643" lon="-0.21959">
        <ele>17</ele>
        <time>2020-09-09T11:57:32Z</time>
      </trkpt>
      <trkpt lat="44.83644" lon="-0.21961">
        <ele>16.9</ele>
        <time>2020-09-09T11:57:33Z</time>
      </trkpt>
      <trkpt lat="44.83645" lon="-0.21963">
        <ele>16.9</ele>
        <time>2020-09-09T11:57:34Z</time>
      </trkpt>
      <trkpt lat="44.83645" lon="-0.21964">
        <ele>16.9</ele>
        <time>2020-09-09T11:57:35Z</time>
      </trkpt>
      <trkpt lat="44.83646" lon="-0.21966">
        <ele>16.9</ele>
        <time>2020-09-09T11:57:36Z</time>
      </trkpt>
      <trkpt lat="44.83645" lon="-0.21967">
        <ele>16.9</ele>
        <time>2020-09-09T11:57:37Z</time>
      </trkpt>
      <trkpt lat="44.83646" lon="-0.21969">
        <ele>16.8</ele>
        <time>2020-09-09T11:57:38Z</time>
      </trkpt>
      <trkpt lat="44.83646" lon="-0.2197">
        <ele>16.7</ele>
        <time>2020-09-09T11:57:39Z</time>
      </trkpt>
      <trkpt lat="44.83646" lon="-0.21972">
        <ele>16.7</ele>
        <time>2020-09-09T11:57:41Z</time>
      </trkpt>
      <trkpt lat="44.83647" lon="-0.21974">
        <ele>16.6</ele>
        <time>2020-09-09T11:57:42Z</time>
      </trkpt>
      <trkpt lat="44.83647" lon="-0.21977">
        <ele>16.6</ele>
        <time>2020-09-09T11:57:43Z</time>
      </trkpt>
      <trkpt lat="44.83647" lon="-0.21978">
        <ele>16.6</ele>
        <time>2020-09-09T11:57:45Z</time>
      </trkpt>
      <trkpt lat="44.83648" lon="-0.21979">
        <ele>16.6</ele>
        <time>2020-09-09T11:57:46Z</time>
      </trkpt>
      <trkpt lat="44.83648" lon="-0.21981">
        <ele>16.6</ele>
        <time>2020-09-09T11:57:47Z</time>
      </trkpt>
      <trkpt lat="44.83649" lon="-0.21984">
        <ele>16.5</ele>
        <time>2020-09-09T11:57:49Z</time>
      </trkpt>
      <trkpt lat="44.8365" lon="-0.21986">
        <ele>16.4</ele>
        <time>2020-09-09T11:57:50Z</time>
      </trkpt>
      <trkpt lat="44.8365" lon="-0.21989">
        <ele>16.4</ele>
        <time>2020-09-09T11:57:51Z</time>
      </trkpt>
      <trkpt lat="44.8365" lon="-0.21992">
        <ele>16.4</ele>
        <time>2020-09-09T11:57:53Z</time>
      </trkpt>
      <trkpt lat="44.8365" lon="-0.21993">
        <ele>16.4</ele>
        <time>2020-09-09T11:57:54Z</time>
      </trkpt>
      <trkpt lat="44.8365" lon="-0.21994">
        <ele>16.4</ele>
        <time>2020-09-09T11:57:55Z</time>
      </trkpt>
      <trkpt lat="44.8365" lon="-0.21996">
        <ele>16.4</ele>
        <time>2020-09-09T11:57:56Z</time>
      </trkpt>
      <trkpt lat="44.83651" lon="-0.21998">
        <ele>16.4</ele>
        <time>2020-09-09T11:57:58Z</time>
      </trkpt>
      <trkpt lat="44.83651" lon="-0.22001">
        <ele>16.4</ele>
        <time>2020-09-09T11:57:59Z</time>
      </trkpt>
      <trkpt lat="44.83651" lon="-0.22003">
        <ele>16.4</ele>
        <time>2020-09-09T11:58:00Z</time>
      </trkpt>
      <trkpt lat="44.83651" lon="-0.22004">
        <ele>16.4</ele>
        <time>2020-09-09T11:58:01Z</time>
      </trkpt>
      <trkpt lat="44.83651" lon="-0.22005">
        <ele>16.4</ele>
        <time>2020-09-09T11:58:02Z</time>
      </trkpt>
      <trkpt lat="44.83651" lon="-0.22007">
        <ele>16.4</ele>
        <time>2020-09-09T11:58:03Z</time>
      </trkpt>
      <trkpt lat="44.83652" lon="-0.2201">
        <ele>16.4</ele>
        <time>2020-09-09T11:58:05Z</time>
      </trkpt>
      <trkpt lat="44.83653" lon="-0.22011">
        <ele>16.4</ele>
        <time>2020-09-09T11:58:07Z</time>
      </trkpt>
      <trkpt lat="44.83653" lon="-0.2201">
        <ele>16.4</ele>
        <time>2020-09-09T11:58:08Z</time>
      </trkpt>
      <trkpt lat="44.83654" lon="-0.2201">
        <ele>16.4</ele>
        <time>2020-09-09T11:58:09Z</time>
      </trkpt>
      <trkpt lat="44.83656" lon="-0.22009">
        <ele>16.3</ele>
        <time>2020-09-09T11:58:11Z</time>
      </trkpt>
      <trkpt lat="44.83658" lon="-0.22009">
        <ele>16.4</ele>
        <time>2020-09-09T11:58:12Z</time>
      </trkpt>
      <trkpt lat="44.83659" lon="-0.22008">
        <ele>16.3</ele>
        <time>2020-09-09T11:58:14Z</time>
      </trkpt>
      <trkpt lat="44.83662" lon="-0.22007">
        <ele>16.3</ele>
        <time>2020-09-09T11:58:15Z</time>
      </trkpt>
      <trkpt lat="44.83662" lon="-0.22006">
        <ele>16.3</ele>
        <time>2020-09-09T11:58:16Z</time>
      </trkpt>
      <trkpt lat="44.83663" lon="-0.22004">
        <ele>16.3</ele>
        <time>2020-09-09T11:58:17Z</time>
      </trkpt>
      <trkpt lat="44.83666" lon="-0.22003">
        <ele>16.3</ele>
        <time>2020-09-09T11:58:19Z</time>
      </trkpt>
      <trkpt lat="44.83667" lon="-0.22002">
        <ele>16.2</ele>
        <time>2020-09-09T11:58:20Z</time>
      </trkpt>
      <trkpt lat="44.83669" lon="-0.22001">
        <ele>16.2</ele>
        <time>2020-09-09T11:58:22Z</time>
      </trkpt>
      <trkpt lat="44.83669" lon="-0.22">
        <ele>16.2</ele>
        <time>2020-09-09T11:58:24Z</time>
      </trkpt>
      <trkpt lat="44.83671" lon="-0.21999">
        <ele>16.2</ele>
        <time>2020-09-09T11:58:25Z</time>
      </trkpt>
      <trkpt lat="44.83672" lon="-0.21998">
        <ele>16.2</ele>
        <time>2020-09-09T11:58:26Z</time>
      </trkpt>
      <trkpt lat="44.83673" lon="-0.21997">
        <ele>16.2</ele>
        <time>2020-09-09T11:58:27Z</time>
      </trkpt>
      <trkpt lat="44.83674" lon="-0.21996">
        <ele>16.1</ele>
        <time>2020-09-09T11:58:29Z</time>
      </trkpt>
      <trkpt lat="44.83675" lon="-0.21996">
        <ele>16.1</ele>
        <time>2020-09-09T11:58:30Z</time>
      </trkpt>
      <trkpt lat="44.83676" lon="-0.21995">
        <ele>16.1</ele>
        <time>2020-09-09T11:58:31Z</time>
      </trkpt>
      <trkpt lat="44.83677" lon="-0.21994">
        <ele>16.1</ele>
        <time>2020-09-09T11:58:32Z</time>
      </trkpt>
      <trkpt lat="44.83679" lon="-0.21993">
        <ele>16.1</ele>
        <time>2020-09-09T11:58:33Z</time>
      </trkpt>
      <trkpt lat="44.8368" lon="-0.21993">
        <ele>16</ele>
        <time>2020-09-09T11:58:35Z</time>
      </trkpt>
      <trkpt lat="44.83681" lon="-0.21992">
        <ele>16</ele>
        <time>2020-09-09T11:58:36Z</time>
      </trkpt>
      <trkpt lat="44.83682" lon="-0.21992">
        <ele>16</ele>
        <time>2020-09-09T11:58:38Z</time>
      </trkpt>
      <trkpt lat="44.83683" lon="-0.21991">
        <ele>16</ele>
        <time>2020-09-09T11:58:39Z</time>
      </trkpt>
      <trkpt lat="44.83685" lon="-0.21991">
        <ele>16</ele>
        <time>2020-09-09T11:58:40Z</time>
      </trkpt>
      <trkpt lat="44.83686" lon="-0.2199">
        <ele>15.9</ele>
        <time>2020-09-09T11:58:42Z</time>
      </trkpt>
      <trkpt lat="44.83687" lon="-0.2199">
        <ele>15.9</ele>
        <time>2020-09-09T11:58:43Z</time>
      </trkpt>
      <trkpt lat="44.83689" lon="-0.21989">
        <ele>15.9</ele>
        <time>2020-09-09T11:58:44Z</time>
      </trkpt>
      <trkpt lat="44.8369" lon="-0.21989">
        <ele>15.9</ele>
        <time>2020-09-09T11:58:45Z</time>
      </trkpt>
      <trkpt lat="44.83691" lon="-0.21989">
        <ele>15.9</ele>
        <time>2020-09-09T11:58:46Z</time>
      </trkpt>
      <trkpt lat="44.83692" lon="-0.21988">
        <ele>15.8</ele>
        <time>2020-09-09T11:58:47Z</time>
      </trkpt>
      <trkpt lat="44.83693" lon="-0.21988">
        <ele>15.8</ele>
        <time>2020-09-09T11:58:49Z</time>
      </trkpt>
      <trkpt lat="44.83695" lon="-0.21987">
        <ele>15.8</ele>
        <time>2020-09-09T11:58:50Z</time>
      </trkpt>
      <trkpt lat="44.83697" lon="-0.21987">
        <ele>15.8</ele>
        <time>2020-09-09T11:58:51Z</time>
      </trkpt>
      <trkpt lat="44.83698" lon="-0.21987">
        <ele>15.7</ele>
        <time>2020-09-09T11:58:52Z</time>
      </trkpt>
      <trkpt lat="44.837" lon="-0.21986">
        <ele>15.7</ele>
        <time>2020-09-09T11:58:54Z</time>
      </trkpt>
      <trkpt lat="44.83702" lon="-0.21985">
        <ele>15.6</ele>
        <time>2020-09-09T11:58:55Z</time>
      </trkpt>
      <trkpt lat="44.83703" lon="-0.21985">
        <ele>15.6</ele>
        <time>2020-09-09T11:58:56Z</time>
      </trkpt>
      <trkpt lat="44.83704" lon="-0.21985">
        <ele>15.6</ele>
        <time>2020-09-09T11:58:57Z</time>
      </trkpt>
      <trkpt lat="44.83705" lon="-0.21984">
        <ele>15.6</ele>
        <time>2020-09-09T11:58:58Z</time>
      </trkpt>
      <trkpt lat="44.83707" lon="-0.21984">
        <ele>15.5</ele>
        <time>2020-09-09T11:59:00Z</time>
      </trkpt>
      <trkpt lat="44.83708" lon="-0.21983">
        <ele>15.5</ele>
        <time>2020-09-09T11:59:01Z</time>
      </trkpt>
      <trkpt lat="44.83709" lon="-0.21982">
        <ele>15.5</ele>
        <time>2020-09-09T11:59:03Z</time>
      </trkpt>
      <trkpt lat="44.83711" lon="-0.21981">
        <ele>15.4</ele>
        <time>2020-09-09T11:59:05Z</time>
      </trkpt>
      <trkpt lat="44.83713" lon="-0.21981">
        <ele>15.4</ele>
        <time>2020-09-09T11:59:06Z</time>
      </trkpt>
      <trkpt lat="44.83714" lon="-0.2198">
        <ele>15.4</ele>
        <time>2020-09-09T11:59:07Z</time>
      </trkpt>
      <trkpt lat="44.83715" lon="-0.2198">
        <ele>15.4</ele>
        <time>2020-09-09T11:59:08Z</time>
      </trkpt>
      <trkpt lat="44.83718" lon="-0.2198">
        <ele>15.3</ele>
        <time>2020-09-09T11:59:09Z</time>
      </trkpt>
      <trkpt lat="44.83719" lon="-0.21979">
        <ele>15.3</ele>
        <time>2020-09-09T11:59:11Z</time>
      </trkpt>
      <trkpt lat="44.8372" lon="-0.21979">
        <ele>15.3</ele>
        <time>2020-09-09T11:59:12Z</time>
      </trkpt>
      <trkpt lat="44.83721" lon="-0.21978">
        <ele>15.3</ele>
        <time>2020-09-09T11:59:14Z</time>
      </trkpt>
      <trkpt lat="44.83722" lon="-0.21978">
        <ele>15.2</ele>
        <time>2020-09-09T11:59:15Z</time>
      </trkpt>
      <trkpt lat="44.83724" lon="-0.21977">
        <ele>15.2</ele>
        <time>2020-09-09T11:59:16Z</time>
      </trkpt>
      <trkpt lat="44.83725" lon="-0.21977">
        <ele>15.1</ele>
        <time>2020-09-09T11:59:17Z</time>
      </trkpt>
      <trkpt lat="44.83726" lon="-0.21977">
        <ele>15.1</ele>
        <time>2020-09-09T11:59:18Z</time>
      </trkpt>
      <trkpt lat="44.83728" lon="-0.21976">
        <ele>15</ele>
        <time>2020-09-09T11:59:20Z</time>
      </trkpt>
      <trkpt lat="44.83729" lon="-0.21976">
        <ele>15</ele>
        <time>2020-09-09T11:59:21Z</time>
      </trkpt>
      <trkpt lat="44.83731" lon="-0.21976">
        <ele>15.1</ele>
        <time>2020-09-09T11:59:22Z</time>
      </trkpt>
      <trkpt lat="44.83732" lon="-0.21975">
        <ele>15</ele>
        <time>2020-09-09T11:59:24Z</time>
      </trkpt>
      <trkpt lat="44.83734" lon="-0.21975">
        <ele>14.9</ele>
        <time>2020-09-09T11:59:25Z</time>
      </trkpt>
      <trkpt lat="44.83735" lon="-0.21974">
        <ele>14.9</ele>
        <time>2020-09-09T11:59:26Z</time>
      </trkpt>
      <trkpt lat="44.83737" lon="-0.21974">
        <ele>14.9</ele>
        <time>2020-09-09T11:59:27Z</time>
      </trkpt>
      <trkpt lat="44.83738" lon="-0.21973">
        <ele>14.9</ele>
        <time>2020-09-09T11:59:28Z</time>
      </trkpt>
      <trkpt lat="44.83739" lon="-0.21973">
        <ele>14.9</ele>
        <time>2020-09-09T11:59:29Z</time>
      </trkpt>
      <trkpt lat="44.8374" lon="-0.21973">
        <ele>14.8</ele>
        <time>2020-09-09T11:59:30Z</time>
      </trkpt>
      <trkpt lat="44.83742" lon="-0.21972">
        <ele>14.8</ele>
        <time>2020-09-09T11:59:32Z</time>
      </trkpt>
      <trkpt lat="44.83743" lon="-0.21971">
        <ele>14.7</ele>
        <time>2020-09-09T11:59:33Z</time>
      </trkpt>
      <trkpt lat="44.83745" lon="-0.2197">
        <ele>14.7</ele>
        <time>2020-09-09T11:59:34Z</time>
      </trkpt>
      <trkpt lat="44.83747" lon="-0.2197">
        <ele>14.7</ele>
        <time>2020-09-09T11:59:35Z</time>
      </trkpt>
      <trkpt lat="44.83748" lon="-0.21969">
        <ele>14.7</ele>
        <time>2020-09-09T11:59:37Z</time>
      </trkpt>
      <trkpt lat="44.83749" lon="-0.21969">
        <ele>14.7</ele>
        <time>2020-09-09T11:59:38Z</time>
      </trkpt>
      <trkpt lat="44.8375" lon="-0.21968">
        <ele>14.6</ele>
        <time>2020-09-09T11:59:39Z</time>
      </trkpt>
      <trkpt lat="44.83752" lon="-0.21967">
        <ele>14.5</ele>
        <time>2020-09-09T11:59:40Z</time>
      </trkpt>
      <trkpt lat="44.83753" lon="-0.21967">
        <ele>14.5</ele>
        <time>2020-09-09T11:59:41Z</time>
      </trkpt>
      <trkpt lat="44.83754" lon="-0.21967">
        <ele>14.5</ele>
        <time>2020-09-09T11:59:42Z</time>
      </trkpt>
      <trkpt lat="44.83756" lon="-0.21967">
        <ele>14.4</ele>
        <time>2020-09-09T11:59:43Z</time>
      </trkpt>
      <trkpt lat="44.83757" lon="-0.21966">
        <ele>14.4</ele>
        <time>2020-09-09T11:59:44Z</time>
      </trkpt>
      <trkpt lat="44.83758" lon="-0.21965">
        <ele>14.4</ele>
        <time>2020-09-09T11:59:45Z</time>
      </trkpt>
      <trkpt lat="44.8376" lon="-0.21965">
        <ele>14.4</ele>
        <time>2020-09-09T11:59:46Z</time>
      </trkpt>
      <trkpt lat="44.83761" lon="-0.21964">
        <ele>14.4</ele>
        <time>2020-09-09T11:59:47Z</time>
      </trkpt>
      <trkpt lat="44.83762" lon="-0.21964">
        <ele>14.3</ele>
        <time>2020-09-09T11:59:48Z</time>
      </trkpt>
      <trkpt lat="44.83763" lon="-0.21963">
        <ele>14.3</ele>
        <time>2020-09-09T11:59:50Z</time>
      </trkpt>
      <trkpt lat="44.83765" lon="-0.21963">
        <ele>14.2</ele>
        <time>2020-09-09T11:59:51Z</time>
      </trkpt>
      <trkpt lat="44.83767" lon="-0.21962">
        <ele>14.2</ele>
        <time>2020-09-09T11:59:52Z</time>
      </trkpt>
      <trkpt lat="44.83769" lon="-0.21961">
        <ele>14.1</ele>
        <time>2020-09-09T11:59:54Z</time>
      </trkpt>
      <trkpt lat="44.83771" lon="-0.2196">
        <ele>14.1</ele>
        <time>2020-09-09T11:59:55Z</time>
      </trkpt>
      <trkpt lat="44.83773" lon="-0.2196">
        <ele>14.1</ele>
        <time>2020-09-09T11:59:57Z</time>
      </trkpt>
      <trkpt lat="44.83776" lon="-0.21959">
        <ele>14</ele>
        <time>2020-09-09T11:59:59Z</time>
      </trkpt>
      <trkpt lat="44.83779" lon="-0.21958">
        <ele>13.9</ele>
        <time>2020-09-09T12:00:01Z</time>
      </trkpt>
      <trkpt lat="44.83782" lon="-0.21957">
        <ele>13.8</ele>
        <time>2020-09-09T12:00:03Z</time>
      </trkpt>
      <trkpt lat="44.83783" lon="-0.21957">
        <ele>13.7</ele>
        <time>2020-09-09T12:00:05Z</time>
      </trkpt>
      <trkpt lat="44.83784" lon="-0.21957">
        <ele>13.7</ele>
        <time>2020-09-09T12:00:06Z</time>
      </trkpt>
      <trkpt lat="44.83785" lon="-0.21957">
        <ele>13.7</ele>
        <time>2020-09-09T12:00:07Z</time>
      </trkpt>
      <trkpt lat="44.83786" lon="-0.21956">
        <ele>13.7</ele>
        <time>2020-09-09T12:00:08Z</time>
      </trkpt>
      <trkpt lat="44.83788" lon="-0.21956">
        <ele>13.7</ele>
        <time>2020-09-09T12:00:09Z</time>
      </trkpt>
      <trkpt lat="44.83791" lon="-0.21956">
        <ele>13.6</ele>
        <time>2020-09-09T12:00:11Z</time>
      </trkpt>
      <trkpt lat="44.83791" lon="-0.21956">
        <ele>13.6</ele>
        <time>2020-09-09T12:00:12Z</time>
      </trkpt>
      <trkpt lat="44.83792" lon="-0.21956">
        <ele>13.5</ele>
        <time>2020-09-09T12:00:13Z</time>
      </trkpt>
      <trkpt lat="44.83793" lon="-0.21955">
        <ele>13.5</ele>
        <time>2020-09-09T12:00:14Z</time>
      </trkpt>
      <trkpt lat="44.83794" lon="-0.21955">
        <ele>13.5</ele>
        <time>2020-09-09T12:00:15Z</time>
      </trkpt>
      <trkpt lat="44.83796" lon="-0.21954">
        <ele>13.5</ele>
        <time>2020-09-09T12:00:17Z</time>
      </trkpt>
      <trkpt lat="44.83797" lon="-0.21954">
        <ele>13.5</ele>
        <time>2020-09-09T12:00:18Z</time>
      </trkpt>
      <trkpt lat="44.83799" lon="-0.21952">
        <ele>13.4</ele>
        <time>2020-09-09T12:00:19Z</time>
      </trkpt>
      <trkpt lat="44.838" lon="-0.21951">
        <ele>13.4</ele>
        <time>2020-09-09T12:00:20Z</time>
      </trkpt>
      <trkpt lat="44.83801" lon="-0.21951">
        <ele>13.3</ele>
        <time>2020-09-09T12:00:21Z</time>
      </trkpt>
      <trkpt lat="44.83802" lon="-0.2195">
        <ele>13.3</ele>
        <time>2020-09-09T12:00:23Z</time>
      </trkpt>
      <trkpt lat="44.83803" lon="-0.21949">
        <ele>13.3</ele>
        <time>2020-09-09T12:00:24Z</time>
      </trkpt>
      <trkpt lat="44.83804" lon="-0.21949">
        <ele>13.3</ele>
        <time>2020-09-09T12:00:25Z</time>
      </trkpt>
      <trkpt lat="44.83806" lon="-0.21948">
        <ele>13.3</ele>
        <time>2020-09-09T12:00:26Z</time>
      </trkpt>
      <trkpt lat="44.83806" lon="-0.21947">
        <ele>13.3</ele>
        <time>2020-09-09T12:00:27Z</time>
      </trkpt>
      <trkpt lat="44.83807" lon="-0.21947">
        <ele>13.2</ele>
        <time>2020-09-09T12:00:28Z</time>
      </trkpt>
      <trkpt lat="44.83808" lon="-0.21945">
        <ele>13.2</ele>
        <time>2020-09-09T12:00:30Z</time>
      </trkpt>
      <trkpt lat="44.8381" lon="-0.21944">
        <ele>13.2</ele>
        <time>2020-09-09T12:00:32Z</time>
      </trkpt>
      <trkpt lat="44.83811" lon="-0.21944">
        <ele>13.2</ele>
        <time>2020-09-09T12:00:33Z</time>
      </trkpt>
      <trkpt lat="44.83811" lon="-0.21943">
        <ele>13.2</ele>
        <time>2020-09-09T12:00:34Z</time>
      </trkpt>
      <trkpt lat="44.83812" lon="-0.21943">
        <ele>13.2</ele>
        <time>2020-09-09T12:00:35Z</time>
      </trkpt>
      <trkpt lat="44.83814" lon="-0.21942">
        <ele>13.1</ele>
        <time>2020-09-09T12:00:36Z</time>
      </trkpt>
      <trkpt lat="44.83816" lon="-0.21942">
        <ele>13.1</ele>
        <time>2020-09-09T12:00:37Z</time>
      </trkpt>
      <trkpt lat="44.83818" lon="-0.21942">
        <ele>13.1</ele>
        <time>2020-09-09T12:00:39Z</time>
      </trkpt>
      <trkpt lat="44.83821" lon="-0.21941">
        <ele>13</ele>
        <time>2020-09-09T12:00:41Z</time>
      </trkpt>
      <trkpt lat="44.83823" lon="-0.2194">
        <ele>13</ele>
        <time>2020-09-09T12:00:42Z</time>
      </trkpt>
      <trkpt lat="44.83824" lon="-0.2194">
        <ele>13</ele>
        <time>2020-09-09T12:00:44Z</time>
      </trkpt>
      <trkpt lat="44.83825" lon="-0.21939">
        <ele>13</ele>
        <time>2020-09-09T12:00:45Z</time>
      </trkpt>
      <trkpt lat="44.83827" lon="-0.21938">
        <ele>13</ele>
        <time>2020-09-09T12:00:46Z</time>
      </trkpt>
      <trkpt lat="44.83828" lon="-0.21938">
        <ele>13</ele>
        <time>2020-09-09T12:00:47Z</time>
      </trkpt>
      <trkpt lat="44.83829" lon="-0.21937">
        <ele>12.9</ele>
        <time>2020-09-09T12:00:48Z</time>
      </trkpt>
      <trkpt lat="44.83831" lon="-0.21937">
        <ele>12.9</ele>
        <time>2020-09-09T12:00:50Z</time>
      </trkpt>
      <trkpt lat="44.83832" lon="-0.21936">
        <ele>12.9</ele>
        <time>2020-09-09T12:00:51Z</time>
      </trkpt>
      <trkpt lat="44.83833" lon="-0.21936">
        <ele>12.9</ele>
        <time>2020-09-09T12:00:52Z</time>
      </trkpt>
      <trkpt lat="44.83834" lon="-0.21935">
        <ele>12.9</ele>
        <time>2020-09-09T12:00:53Z</time>
      </trkpt>
      <trkpt lat="44.83835" lon="-0.21935">
        <ele>12.8</ele>
        <time>2020-09-09T12:00:54Z</time>
      </trkpt>
      <trkpt lat="44.83836" lon="-0.21934">
        <ele>12.9</ele>
        <time>2020-09-09T12:00:55Z</time>
      </trkpt>
      <trkpt lat="44.83839" lon="-0.21933">
        <ele>12.8</ele>
        <time>2020-09-09T12:00:57Z</time>
      </trkpt>
      <trkpt lat="44.83841" lon="-0.21932">
        <ele>12.8</ele>
        <time>2020-09-09T12:00:58Z</time>
      </trkpt>
      <trkpt lat="44.83842" lon="-0.21932">
        <ele>12.8</ele>
        <time>2020-09-09T12:00:59Z</time>
      </trkpt>
      <trkpt lat="44.83845" lon="-0.21931">
        <ele>12.8</ele>
        <time>2020-09-09T12:01:00Z</time>
      </trkpt>
      <trkpt lat="44.83847" lon="-0.2193">
        <ele>12.8</ele>
        <time>2020-09-09T12:01:02Z</time>
      </trkpt>
      <trkpt lat="44.8385" lon="-0.21929">
        <ele>12.8</ele>
        <time>2020-09-09T12:01:03Z</time>
      </trkpt>
      <trkpt lat="44.83851" lon="-0.21929">
        <ele>12.8</ele>
        <time>2020-09-09T12:01:04Z</time>
      </trkpt>
      <trkpt lat="44.83851" lon="-0.21929">
        <ele>12.8</ele>
        <time>2020-09-09T12:01:05Z</time>
      </trkpt>
      <trkpt lat="44.83853" lon="-0.21928">
        <ele>12.8</ele>
        <time>2020-09-09T12:01:06Z</time>
      </trkpt>
      <trkpt lat="44.83854" lon="-0.21927">
        <ele>12.8</ele>
        <time>2020-09-09T12:01:08Z</time>
      </trkpt>
      <trkpt lat="44.83856" lon="-0.21926">
        <ele>12.8</ele>
        <time>2020-09-09T12:01:09Z</time>
      </trkpt>
      <trkpt lat="44.83857" lon="-0.21926">
        <ele>12.8</ele>
        <time>2020-09-09T12:01:10Z</time>
      </trkpt>
      <trkpt lat="44.83858" lon="-0.21925">
        <ele>12.8</ele>
        <time>2020-09-09T12:01:11Z</time>
      </trkpt>
      <trkpt lat="44.83859" lon="-0.21925">
        <ele>12.8</ele>
        <time>2020-09-09T12:01:12Z</time>
      </trkpt>
      <trkpt lat="44.8386" lon="-0.21924">
        <ele>12.8</ele>
        <time>2020-09-09T12:01:13Z</time>
      </trkpt>
      <trkpt lat="44.83862" lon="-0.21923">
        <ele>12.8</ele>
        <time>2020-09-09T12:01:15Z</time>
      </trkpt>
      <trkpt lat="44.83863" lon="-0.21923">
        <ele>12.8</ele>
        <time>2020-09-09T12:01:16Z</time>
      </trkpt>
      <trkpt lat="44.83864" lon="-0.21923">
        <ele>12.8</ele>
        <time>2020-09-09T12:01:18Z</time>
      </trkpt>
      <trkpt lat="44.83866" lon="-0.21922">
        <ele>12.8</ele>
        <time>2020-09-09T12:01:19Z</time>
      </trkpt>
      <trkpt lat="44.83866" lon="-0.21921">
        <ele>12.9</ele>
        <time>2020-09-09T12:01:20Z</time>
      </trkpt>
      <trkpt lat="44.83868" lon="-0.2192">
        <ele>12.9</ele>
        <time>2020-09-09T12:01:21Z</time>
      </trkpt>
      <trkpt lat="44.83869" lon="-0.2192">
        <ele>12.9</ele>
        <time>2020-09-09T12:01:22Z</time>
      </trkpt>
      <trkpt lat="44.83869" lon="-0.21919">
        <ele>12.9</ele>
        <time>2020-09-09T12:01:23Z</time>
      </trkpt>
      <trkpt lat="44.83871" lon="-0.21918">
        <ele>12.9</ele>
        <time>2020-09-09T12:01:25Z</time>
      </trkpt>
      <trkpt lat="44.83873" lon="-0.21917">
        <ele>12.9</ele>
        <time>2020-09-09T12:01:27Z</time>
      </trkpt>
      <trkpt lat="44.83875" lon="-0.21916">
        <ele>12.9</ele>
        <time>2020-09-09T12:01:28Z</time>
      </trkpt>
      <trkpt lat="44.83876" lon="-0.21916">
        <ele>12.9</ele>
        <time>2020-09-09T12:01:29Z</time>
      </trkpt>
      <trkpt lat="44.83878" lon="-0.21914">
        <ele>12.9</ele>
        <time>2020-09-09T12:01:31Z</time>
      </trkpt>
      <trkpt lat="44.83881" lon="-0.21914">
        <ele>12.9</ele>
        <time>2020-09-09T12:01:32Z</time>
      </trkpt>
      <trkpt lat="44.83882" lon="-0.21913">
        <ele>12.9</ele>
        <time>2020-09-09T12:01:33Z</time>
      </trkpt>
      <trkpt lat="44.83884" lon="-0.21913">
        <ele>12.9</ele>
        <time>2020-09-09T12:01:34Z</time>
      </trkpt>
      <trkpt lat="44.83885" lon="-0.21912">
        <ele>13</ele>
        <time>2020-09-09T12:01:35Z</time>
      </trkpt>
      <trkpt lat="44.83887" lon="-0.21912">
        <ele>13</ele>
        <time>2020-09-09T12:01:37Z</time>
      </trkpt>
      <trkpt lat="44.83888" lon="-0.21911">
        <ele>13</ele>
        <time>2020-09-09T12:01:38Z</time>
      </trkpt>
      <trkpt lat="44.8389" lon="-0.21911">
        <ele>12.9</ele>
        <time>2020-09-09T12:01:39Z</time>
      </trkpt>
      <trkpt lat="44.83891" lon="-0.21911">
        <ele>12.9</ele>
        <time>2020-09-09T12:01:40Z</time>
      </trkpt>
      <trkpt lat="44.83892" lon="-0.21911">
        <ele>12.9</ele>
        <time>2020-09-09T12:01:42Z</time>
      </trkpt>
      <trkpt lat="44.83893" lon="-0.2191">
        <ele>12.9</ele>
        <time>2020-09-09T12:01:43Z</time>
      </trkpt>
      <trkpt lat="44.83894" lon="-0.2191">
        <ele>12.9</ele>
        <time>2020-09-09T12:01:44Z</time>
      </trkpt>
      <trkpt lat="44.83896" lon="-0.21909">
        <ele>12.9</ele>
        <time>2020-09-09T12:01:45Z</time>
      </trkpt>
      <trkpt lat="44.83897" lon="-0.21908">
        <ele>12.9</ele>
        <time>2020-09-09T12:01:46Z</time>
      </trkpt>
      <trkpt lat="44.83899" lon="-0.21908">
        <ele>13</ele>
        <time>2020-09-09T12:01:48Z</time>
      </trkpt>
      <trkpt lat="44.839" lon="-0.21908">
        <ele>13</ele>
        <time>2020-09-09T12:01:49Z</time>
      </trkpt>
      <trkpt lat="44.83901" lon="-0.21907">
        <ele>13</ele>
        <time>2020-09-09T12:01:50Z</time>
      </trkpt>
      <trkpt lat="44.83902" lon="-0.21906">
        <ele>13</ele>
        <time>2020-09-09T12:01:51Z</time>
      </trkpt>
      <trkpt lat="44.83903" lon="-0.21902">
        <ele>13</ele>
        <time>2020-09-09T12:01:53Z</time>
      </trkpt>
      <trkpt lat="44.83903" lon="-0.219">
        <ele>13</ele>
        <time>2020-09-09T12:01:55Z</time>
      </trkpt>
      <trkpt lat="44.83903" lon="-0.21899">
        <ele>13</ele>
        <time>2020-09-09T12:01:56Z</time>
      </trkpt>
      <trkpt lat="44.83903" lon="-0.21897">
        <ele>13</ele>
        <time>2020-09-09T12:01:57Z</time>
      </trkpt>
      <trkpt lat="44.83903" lon="-0.21896">
        <ele>13</ele>
        <time>2020-09-09T12:01:58Z</time>
      </trkpt>
      <trkpt lat="44.83902" lon="-0.21894">
        <ele>13.1</ele>
        <time>2020-09-09T12:01:59Z</time>
      </trkpt>
      <trkpt lat="44.83901" lon="-0.21893">
        <ele>13.1</ele>
        <time>2020-09-09T12:02:00Z</time>
      </trkpt>
      <trkpt lat="44.83901" lon="-0.21892">
        <ele>13.1</ele>
        <time>2020-09-09T12:02:01Z</time>
      </trkpt>
      <trkpt lat="44.839" lon="-0.21891">
        <ele>13.1</ele>
        <time>2020-09-09T12:02:02Z</time>
      </trkpt>
      <trkpt lat="44.83899" lon="-0.21888">
        <ele>13.1</ele>
        <time>2020-09-09T12:02:03Z</time>
      </trkpt>
      <trkpt lat="44.83898" lon="-0.21886">
        <ele>13.1</ele>
        <time>2020-09-09T12:02:05Z</time>
      </trkpt>
      <trkpt lat="44.83897" lon="-0.21884">
        <ele>13.2</ele>
        <time>2020-09-09T12:02:06Z</time>
      </trkpt>
      <trkpt lat="44.83895" lon="-0.21881">
        <ele>13.2</ele>
        <time>2020-09-09T12:02:08Z</time>
      </trkpt>
      <trkpt lat="44.83894" lon="-0.21878">
        <ele>13.2</ele>
        <time>2020-09-09T12:02:09Z</time>
      </trkpt>
      <trkpt lat="44.83893" lon="-0.21877">
        <ele>13.2</ele>
        <time>2020-09-09T12:02:10Z</time>
      </trkpt>
      <trkpt lat="44.83893" lon="-0.21876">
        <ele>13.3</ele>
        <time>2020-09-09T12:02:11Z</time>
      </trkpt>
      <trkpt lat="44.83892" lon="-0.21874">
        <ele>13.3</ele>
        <time>2020-09-09T12:02:12Z</time>
      </trkpt>
      <trkpt lat="44.83891" lon="-0.21872">
        <ele>13.3</ele>
        <time>2020-09-09T12:02:13Z</time>
      </trkpt>
      <trkpt lat="44.8389" lon="-0.2187">
        <ele>13.3</ele>
        <time>2020-09-09T12:02:14Z</time>
      </trkpt>
      <trkpt lat="44.83889" lon="-0.21868">
        <ele>13.3</ele>
        <time>2020-09-09T12:02:15Z</time>
      </trkpt>
      <trkpt lat="44.83889" lon="-0.21866">
        <ele>13.3</ele>
        <time>2020-09-09T12:02:16Z</time>
      </trkpt>
      <trkpt lat="44.83888" lon="-0.21864">
        <ele>13.3</ele>
        <time>2020-09-09T12:02:17Z</time>
      </trkpt>
      <trkpt lat="44.83887" lon="-0.21862">
        <ele>13.4</ele>
        <time>2020-09-09T12:02:18Z</time>
      </trkpt>
      <trkpt lat="44.83887" lon="-0.21859">
        <ele>13.4</ele>
        <time>2020-09-09T12:02:20Z</time>
      </trkpt>
      <trkpt lat="44.83886" lon="-0.21857">
        <ele>13.4</ele>
        <time>2020-09-09T12:02:22Z</time>
      </trkpt>
      <trkpt lat="44.83886" lon="-0.21856">
        <ele>13.4</ele>
        <time>2020-09-09T12:02:23Z</time>
      </trkpt>
      <trkpt lat="44.83885" lon="-0.21854">
        <ele>13.4</ele>
        <time>2020-09-09T12:02:24Z</time>
      </trkpt>
      <trkpt lat="44.83885" lon="-0.21852">
        <ele>13.5</ele>
        <time>2020-09-09T12:02:25Z</time>
      </trkpt>
      <trkpt lat="44.83885" lon="-0.2185">
        <ele>13.5</ele>
        <time>2020-09-09T12:02:26Z</time>
      </trkpt>
      <trkpt lat="44.83885" lon="-0.21849">
        <ele>13.5</ele>
        <time>2020-09-09T12:02:27Z</time>
      </trkpt>
      <trkpt lat="44.83884" lon="-0.21847">
        <ele>13.5</ele>
        <time>2020-09-09T12:02:28Z</time>
      </trkpt>
      <trkpt lat="44.83884" lon="-0.21845">
        <ele>13.6</ele>
        <time>2020-09-09T12:02:29Z</time>
      </trkpt>
      <trkpt lat="44.83884" lon="-0.21844">
        <ele>13.6</ele>
        <time>2020-09-09T12:02:30Z</time>
      </trkpt>
      <trkpt lat="44.83884" lon="-0.21843">
        <ele>13.6</ele>
        <time>2020-09-09T12:02:31Z</time>
      </trkpt>
      <trkpt lat="44.83883" lon="-0.21841">
        <ele>13.6</ele>
        <time>2020-09-09T12:02:32Z</time>
      </trkpt>
      <trkpt lat="44.83883" lon="-0.21839">
        <ele>13.7</ele>
        <time>2020-09-09T12:02:33Z</time>
      </trkpt>
      <trkpt lat="44.83883" lon="-0.21838">
        <ele>13.7</ele>
        <time>2020-09-09T12:02:34Z</time>
      </trkpt>
      <trkpt lat="44.83883" lon="-0.21836">
        <ele>13.7</ele>
        <time>2020-09-09T12:02:36Z</time>
      </trkpt>
      <trkpt lat="44.83883" lon="-0.21835">
        <ele>13.8</ele>
        <time>2020-09-09T12:02:37Z</time>
      </trkpt>
      <trkpt lat="44.83883" lon="-0.21833">
        <ele>13.8</ele>
        <time>2020-09-09T12:02:38Z</time>
      </trkpt>
      <trkpt lat="44.83883" lon="-0.21833">
        <ele>13.8</ele>
        <time>2020-09-09T12:02:39Z</time>
      </trkpt>
      <trkpt lat="44.83883" lon="-0.21831">
        <ele>13.8</ele>
        <time>2020-09-09T12:02:40Z</time>
      </trkpt>
      <trkpt lat="44.83883" lon="-0.2183">
        <ele>13.8</ele>
        <time>2020-09-09T12:02:41Z</time>
      </trkpt>
      <trkpt lat="44.83883" lon="-0.21829">
        <ele>13.9</ele>
        <time>2020-09-09T12:02:42Z</time>
      </trkpt>
      <trkpt lat="44.83883" lon="-0.21825">
        <ele>13.9</ele>
        <time>2020-09-09T12:02:44Z</time>
      </trkpt>
      <trkpt lat="44.83882" lon="-0.21824">
        <ele>14</ele>
        <time>2020-09-09T12:02:45Z</time>
      </trkpt>
      <trkpt lat="44.83882" lon="-0.21822">
        <ele>14</ele>
        <time>2020-09-09T12:02:46Z</time>
      </trkpt>
      <trkpt lat="44.83882" lon="-0.2182">
        <ele>14</ele>
        <time>2020-09-09T12:02:48Z</time>
      </trkpt>
      <trkpt lat="44.83882" lon="-0.21818">
        <ele>14.1</ele>
        <time>2020-09-09T12:02:49Z</time>
      </trkpt>
      <trkpt lat="44.83882" lon="-0.21817">
        <ele>14.1</ele>
        <time>2020-09-09T12:02:50Z</time>
      </trkpt>
      <trkpt lat="44.83882" lon="-0.21814">
        <ele>14.1</ele>
        <time>2020-09-09T12:02:52Z</time>
      </trkpt>
      <trkpt lat="44.83882" lon="-0.2181">
        <ele>14.2</ele>
        <time>2020-09-09T12:02:54Z</time>
      </trkpt>
      <trkpt lat="44.83881" lon="-0.21809">
        <ele>14.2</ele>
        <time>2020-09-09T12:02:55Z</time>
      </trkpt>
      <trkpt lat="44.83881" lon="-0.21808">
        <ele>14.2</ele>
        <time>2020-09-09T12:02:56Z</time>
      </trkpt>
      <trkpt lat="44.83881" lon="-0.21805">
        <ele>14.2</ele>
        <time>2020-09-09T12:02:57Z</time>
      </trkpt>
      <trkpt lat="44.83881" lon="-0.21803">
        <ele>14.3</ele>
        <time>2020-09-09T12:02:58Z</time>
      </trkpt>
      <trkpt lat="44.83881" lon="-0.218">
        <ele>14.3</ele>
        <time>2020-09-09T12:02:59Z</time>
      </trkpt>
      <trkpt lat="44.83881" lon="-0.21799">
        <ele>14.3</ele>
        <time>2020-09-09T12:03:00Z</time>
      </trkpt>
      <trkpt lat="44.83881" lon="-0.21798">
        <ele>14.4</ele>
        <time>2020-09-09T12:03:01Z</time>
      </trkpt>
      <trkpt lat="44.8388" lon="-0.21794">
        <ele>14.4</ele>
        <time>2020-09-09T12:03:03Z</time>
      </trkpt>
      <trkpt lat="44.8388" lon="-0.21793">
        <ele>14.4</ele>
        <time>2020-09-09T12:03:04Z</time>
      </trkpt>
      <trkpt lat="44.8388" lon="-0.21789">
        <ele>14.5</ele>
        <time>2020-09-09T12:03:06Z</time>
      </trkpt>
      <trkpt lat="44.8388" lon="-0.21787">
        <ele>14.5</ele>
        <time>2020-09-09T12:03:08Z</time>
      </trkpt>
      <trkpt lat="44.83879" lon="-0.21785">
        <ele>14.6</ele>
        <time>2020-09-09T12:03:09Z</time>
      </trkpt>
      <trkpt lat="44.83879" lon="-0.21783">
        <ele>14.6</ele>
        <time>2020-09-09T12:03:10Z</time>
      </trkpt>
      <trkpt lat="44.83879" lon="-0.2178">
        <ele>14.7</ele>
        <time>2020-09-09T12:03:11Z</time>
      </trkpt>
      <trkpt lat="44.83879" lon="-0.21777">
        <ele>14.8</ele>
        <time>2020-09-09T12:03:13Z</time>
      </trkpt>
      <trkpt lat="44.83879" lon="-0.21773">
        <ele>14.9</ele>
        <time>2020-09-09T12:03:14Z</time>
      </trkpt>
      <trkpt lat="44.83879" lon="-0.21772">
        <ele>14.9</ele>
        <time>2020-09-09T12:03:15Z</time>
      </trkpt>
      <trkpt lat="44.83878" lon="-0.2177">
        <ele>14.9</ele>
        <time>2020-09-09T12:03:16Z</time>
      </trkpt>
      <trkpt lat="44.83878" lon="-0.21768">
        <ele>15</ele>
        <time>2020-09-09T12:03:17Z</time>
      </trkpt>
      <trkpt lat="44.83877" lon="-0.21766">
        <ele>15.1</ele>
        <time>2020-09-09T12:03:19Z</time>
      </trkpt>
      <trkpt lat="44.83877" lon="-0.21765">
        <ele>15.1</ele>
        <time>2020-09-09T12:03:20Z</time>
      </trkpt>
      <trkpt lat="44.83876" lon="-0.21763">
        <ele>15.1</ele>
        <time>2020-09-09T12:03:21Z</time>
      </trkpt>
      <trkpt lat="44.83876" lon="-0.21761">
        <ele>15.2</ele>
        <time>2020-09-09T12:03:23Z</time>
      </trkpt>
      <trkpt lat="44.83876" lon="-0.21758">
        <ele>15.2</ele>
        <time>2020-09-09T12:03:24Z</time>
      </trkpt>
      <trkpt lat="44.83875" lon="-0.21757">
        <ele>15.2</ele>
        <time>2020-09-09T12:03:25Z</time>
      </trkpt>
      <trkpt lat="44.83875" lon="-0.21755">
        <ele>15.3</ele>
        <time>2020-09-09T12:03:26Z</time>
      </trkpt>
      <trkpt lat="44.83875" lon="-0.21753">
        <ele>15.3</ele>
        <time>2020-09-09T12:03:27Z</time>
      </trkpt>
      <trkpt lat="44.83875" lon="-0.2175">
        <ele>15.3</ele>
        <time>2020-09-09T12:03:28Z</time>
      </trkpt>
      <trkpt lat="44.83874" lon="-0.21748">
        <ele>15.3</ele>
        <time>2020-09-09T12:03:29Z</time>
      </trkpt>
      <trkpt lat="44.83874" lon="-0.21746">
        <ele>15.4</ele>
        <time>2020-09-09T12:03:30Z</time>
      </trkpt>
      <trkpt lat="44.83874" lon="-0.21744">
        <ele>15.4</ele>
        <time>2020-09-09T12:03:31Z</time>
      </trkpt>
      <trkpt lat="44.83873" lon="-0.21742">
        <ele>15.4</ele>
        <time>2020-09-09T12:03:32Z</time>
      </trkpt>
      <trkpt lat="44.83873" lon="-0.2174">
        <ele>15.5</ele>
        <time>2020-09-09T12:03:33Z</time>
      </trkpt>
      <trkpt lat="44.83871" lon="-0.21732">
        <ele>15.6</ele>
        <time>2020-09-09T12:03:35Z</time>
      </trkpt>
      <trkpt lat="44.83871" lon="-0.2173">
        <ele>15.6</ele>
        <time>2020-09-09T12:03:37Z</time>
      </trkpt>
      <trkpt lat="44.83871" lon="-0.21728">
        <ele>15.6</ele>
        <time>2020-09-09T12:03:38Z</time>
      </trkpt>
      <trkpt lat="44.83871" lon="-0.21727">
        <ele>15.7</ele>
        <time>2020-09-09T12:03:39Z</time>
      </trkpt>
      <trkpt lat="44.83871" lon="-0.21725">
        <ele>15.7</ele>
        <time>2020-09-09T12:03:40Z</time>
      </trkpt>
      <trkpt lat="44.8387" lon="-0.21723">
        <ele>15.8</ele>
        <time>2020-09-09T12:03:42Z</time>
      </trkpt>
      <trkpt lat="44.8387" lon="-0.21722">
        <ele>15.8</ele>
        <time>2020-09-09T12:03:43Z</time>
      </trkpt>
      <trkpt lat="44.8387" lon="-0.21721">
        <ele>15.8</ele>
        <time>2020-09-09T12:03:44Z</time>
      </trkpt>
      <trkpt lat="44.8387" lon="-0.2172">
        <ele>15.8</ele>
        <time>2020-09-09T12:03:45Z</time>
      </trkpt>
      <trkpt lat="44.83869" lon="-0.21718">
        <ele>15.9</ele>
        <time>2020-09-09T12:03:46Z</time>
      </trkpt>
      <trkpt lat="44.83869" lon="-0.21716">
        <ele>15.9</ele>
        <time>2020-09-09T12:03:48Z</time>
      </trkpt>
      <trkpt lat="44.83868" lon="-0.21715">
        <ele>16</ele>
        <time>2020-09-09T12:03:50Z</time>
      </trkpt>
      <trkpt lat="44.83868" lon="-0.21713">
        <ele>16</ele>
        <time>2020-09-09T12:03:51Z</time>
      </trkpt>
      <trkpt lat="44.83867" lon="-0.2171">
        <ele>16.1</ele>
        <time>2020-09-09T12:03:53Z</time>
      </trkpt>
      <trkpt lat="44.83867" lon="-0.21709">
        <ele>16.1</ele>
        <time>2020-09-09T12:03:54Z</time>
      </trkpt>
      <trkpt lat="44.83866" lon="-0.21708">
        <ele>16.2</ele>
        <time>2020-09-09T12:03:55Z</time>
      </trkpt>
      <trkpt lat="44.83866" lon="-0.21706">
        <ele>16.2</ele>
        <time>2020-09-09T12:03:56Z</time>
      </trkpt>
      <trkpt lat="44.83865" lon="-0.21704">
        <ele>16.2</ele>
        <time>2020-09-09T12:03:58Z</time>
      </trkpt>
      <trkpt lat="44.83865" lon="-0.21702">
        <ele>16.3</ele>
        <time>2020-09-09T12:03:59Z</time>
      </trkpt>
      <trkpt lat="44.83864" lon="-0.217">
        <ele>16.3</ele>
        <time>2020-09-09T12:04:00Z</time>
      </trkpt>
      <trkpt lat="44.83864" lon="-0.21698">
        <ele>16.3</ele>
        <time>2020-09-09T12:04:01Z</time>
      </trkpt>
      <trkpt lat="44.83863" lon="-0.21695">
        <ele>16.4</ele>
        <time>2020-09-09T12:04:03Z</time>
      </trkpt>
      <trkpt lat="44.83863" lon="-0.21693">
        <ele>16.4</ele>
        <time>2020-09-09T12:04:04Z</time>
      </trkpt>
      <trkpt lat="44.83862" lon="-0.21691">
        <ele>16.4</ele>
        <time>2020-09-09T12:04:05Z</time>
      </trkpt>
      <trkpt lat="44.83862" lon="-0.21689">
        <ele>16.5</ele>
        <time>2020-09-09T12:04:06Z</time>
      </trkpt>
      <trkpt lat="44.83861" lon="-0.21685">
        <ele>16.5</ele>
        <time>2020-09-09T12:04:07Z</time>
      </trkpt>
      <trkpt lat="44.8386" lon="-0.21684">
        <ele>16.5</ele>
        <time>2020-09-09T12:04:08Z</time>
      </trkpt>
      <trkpt lat="44.8386" lon="-0.21682">
        <ele>16.5</ele>
        <time>2020-09-09T12:04:09Z</time>
      </trkpt>
      <trkpt lat="44.83859" lon="-0.2168">
        <ele>16.5</ele>
        <time>2020-09-09T12:04:11Z</time>
      </trkpt>
      <trkpt lat="44.83858" lon="-0.21676">
        <ele>16.6</ele>
        <time>2020-09-09T12:04:12Z</time>
      </trkpt>
      <trkpt lat="44.83858" lon="-0.21674">
        <ele>16.6</ele>
        <time>2020-09-09T12:04:14Z</time>
      </trkpt>
      <trkpt lat="44.83858" lon="-0.21673">
        <ele>16.5</ele>
        <time>2020-09-09T12:04:15Z</time>
      </trkpt>
      <trkpt lat="44.83858" lon="-0.21671">
        <ele>16.5</ele>
        <time>2020-09-09T12:04:16Z</time>
      </trkpt>
      <trkpt lat="44.83858" lon="-0.2167">
        <ele>16.5</ele>
        <time>2020-09-09T12:04:17Z</time>
      </trkpt>
      <trkpt lat="44.83857" lon="-0.21669">
        <ele>16.5</ele>
        <time>2020-09-09T12:04:18Z</time>
      </trkpt>
      <trkpt lat="44.83857" lon="-0.21667">
        <ele>16.5</ele>
        <time>2020-09-09T12:04:19Z</time>
      </trkpt>
      <trkpt lat="44.83857" lon="-0.21666">
        <ele>16.4</ele>
        <time>2020-09-09T12:04:20Z</time>
      </trkpt>
      <trkpt lat="44.83857" lon="-0.21663">
        <ele>16.4</ele>
        <time>2020-09-09T12:04:22Z</time>
      </trkpt>
      <trkpt lat="44.83857" lon="-0.21662">
        <ele>16.4</ele>
        <time>2020-09-09T12:04:23Z</time>
      </trkpt>
      <trkpt lat="44.83855" lon="-0.21659">
        <ele>16.4</ele>
        <time>2020-09-09T12:04:24Z</time>
      </trkpt>
      <trkpt lat="44.83855" lon="-0.21658">
        <ele>16.4</ele>
        <time>2020-09-09T12:04:26Z</time>
      </trkpt>
      <trkpt lat="44.83854" lon="-0.21658">
        <ele>16.4</ele>
        <time>2020-09-09T12:04:27Z</time>
      </trkpt>
      <trkpt lat="44.83853" lon="-0.21657">
        <ele>16.5</ele>
        <time>2020-09-09T12:04:29Z</time>
      </trkpt>
      <trkpt lat="44.83853" lon="-0.21656">
        <ele>16.5</ele>
        <time>2020-09-09T12:04:30Z</time>
      </trkpt>
      <trkpt lat="44.83852" lon="-0.21656">
        <ele>16.5</ele>
        <time>2020-09-09T12:04:32Z</time>
      </trkpt>
      <trkpt lat="44.83851" lon="-0.21655">
        <ele>16.5</ele>
        <time>2020-09-09T12:04:33Z</time>
      </trkpt>
      <trkpt lat="44.83851" lon="-0.21655">
        <ele>16.5</ele>
        <time>2020-09-09T12:04:34Z</time>
      </trkpt>
      <trkpt lat="44.8385" lon="-0.21654">
        <ele>16.5</ele>
        <time>2020-09-09T12:04:36Z</time>
      </trkpt>
      <trkpt lat="44.83849" lon="-0.21653">
        <ele>16.5</ele>
        <time>2020-09-09T12:04:37Z</time>
      </trkpt>
      <trkpt lat="44.83849" lon="-0.21653">
        <ele>16.5</ele>
        <time>2020-09-09T12:04:38Z</time>
      </trkpt>
      <trkpt lat="44.83848" lon="-0.21652">
        <ele>16.5</ele>
        <time>2020-09-09T12:04:40Z</time>
      </trkpt>
      <trkpt lat="44.83847" lon="-0.21651">
        <ele>16.5</ele>
        <time>2020-09-09T12:04:41Z</time>
      </trkpt>
      <trkpt lat="44.83847" lon="-0.21651">
        <ele>16.5</ele>
        <time>2020-09-09T12:04:43Z</time>
      </trkpt>
      <trkpt lat="44.83846" lon="-0.2165">
        <ele>16.5</ele>
        <time>2020-09-09T12:04:44Z</time>
      </trkpt>
      <trkpt lat="44.83845" lon="-0.2165">
        <ele>16.6</ele>
        <time>2020-09-09T12:04:45Z</time>
      </trkpt>
      <trkpt lat="44.83845" lon="-0.21649">
        <ele>16.6</ele>
        <time>2020-09-09T12:04:46Z</time>
      </trkpt>
      <trkpt lat="44.83844" lon="-0.21649">
        <ele>16.6</ele>
        <time>2020-09-09T12:04:47Z</time>
      </trkpt>
      <trkpt lat="44.83843" lon="-0.21649">
        <ele>16.6</ele>
        <time>2020-09-09T12:04:48Z</time>
      </trkpt>
      <trkpt lat="44.83841" lon="-0.21649">
        <ele>16.6</ele>
        <time>2020-09-09T12:04:49Z</time>
      </trkpt>
      <trkpt lat="44.8384" lon="-0.21649">
        <ele>16.7</ele>
        <time>2020-09-09T12:04:51Z</time>
      </trkpt>
      <trkpt lat="44.83838" lon="-0.21648">
        <ele>16.8</ele>
        <time>2020-09-09T12:04:52Z</time>
      </trkpt>
      <trkpt lat="44.83838" lon="-0.21647">
        <ele>16.8</ele>
        <time>2020-09-09T12:04:53Z</time>
      </trkpt>
      <trkpt lat="44.83837" lon="-0.21646">
        <ele>16.8</ele>
        <time>2020-09-09T12:04:54Z</time>
      </trkpt>
      <trkpt lat="44.83837" lon="-0.21645">
        <ele>16.8</ele>
        <time>2020-09-09T12:04:55Z</time>
      </trkpt>
      <trkpt lat="44.83836" lon="-0.21644">
        <ele>16.9</ele>
        <time>2020-09-09T12:04:56Z</time>
      </trkpt>
      <trkpt lat="44.83836" lon="-0.21642">
        <ele>16.9</ele>
        <time>2020-09-09T12:04:57Z</time>
      </trkpt>
      <trkpt lat="44.83836" lon="-0.21641">
        <ele>16.9</ele>
        <time>2020-09-09T12:04:59Z</time>
      </trkpt>
      <trkpt lat="44.83835" lon="-0.2164">
        <ele>16.9</ele>
        <time>2020-09-09T12:05:00Z</time>
      </trkpt>
      <trkpt lat="44.83835" lon="-0.21639">
        <ele>17</ele>
        <time>2020-09-09T12:05:01Z</time>
      </trkpt>
      <trkpt lat="44.83834" lon="-0.21637">
        <ele>17</ele>
        <time>2020-09-09T12:05:03Z</time>
      </trkpt>
      <trkpt lat="44.83834" lon="-0.21636">
        <ele>17</ele>
        <time>2020-09-09T12:05:04Z</time>
      </trkpt>
      <trkpt lat="44.83834" lon="-0.21635">
        <ele>17.1</ele>
        <time>2020-09-09T12:05:05Z</time>
      </trkpt>
      <trkpt lat="44.83833" lon="-0.21634">
        <ele>17.1</ele>
        <time>2020-09-09T12:05:06Z</time>
      </trkpt>
      <trkpt lat="44.83833" lon="-0.21633">
        <ele>17.1</ele>
        <time>2020-09-09T12:05:07Z</time>
      </trkpt>
      <trkpt lat="44.83833" lon="-0.21632">
        <ele>17.2</ele>
        <time>2020-09-09T12:05:08Z</time>
      </trkpt>
      <trkpt lat="44.83833" lon="-0.21629">
        <ele>17.3</ele>
        <time>2020-09-09T12:05:10Z</time>
      </trkpt>
      <trkpt lat="44.83832" lon="-0.21624">
        <ele>17.4</ele>
        <time>2020-09-09T12:05:12Z</time>
      </trkpt>
      <trkpt lat="44.83831" lon="-0.21623">
        <ele>17.4</ele>
        <time>2020-09-09T12:05:13Z</time>
      </trkpt>
      <trkpt lat="44.83831" lon="-0.21621">
        <ele>17.5</ele>
        <time>2020-09-09T12:05:14Z</time>
      </trkpt>
      <trkpt lat="44.83831" lon="-0.21619">
        <ele>17.5</ele>
        <time>2020-09-09T12:05:15Z</time>
      </trkpt>
      <trkpt lat="44.8383" lon="-0.21617">
        <ele>17.6</ele>
        <time>2020-09-09T12:05:16Z</time>
      </trkpt>
      <trkpt lat="44.8383" lon="-0.21612">
        <ele>17.7</ele>
        <time>2020-09-09T12:05:18Z</time>
      </trkpt>
      <trkpt lat="44.83829" lon="-0.21609">
        <ele>17.8</ele>
        <time>2020-09-09T12:05:19Z</time>
      </trkpt>
      <trkpt lat="44.83829" lon="-0.21605">
        <ele>17.9</ele>
        <time>2020-09-09T12:05:21Z</time>
      </trkpt>
      <trkpt lat="44.83829" lon="-0.216">
        <ele>18</ele>
        <time>2020-09-09T12:05:23Z</time>
      </trkpt>
      <trkpt lat="44.83829" lon="-0.21599">
        <ele>18</ele>
        <time>2020-09-09T12:05:24Z</time>
      </trkpt>
      <trkpt lat="44.83829" lon="-0.21597">
        <ele>18.1</ele>
        <time>2020-09-09T12:05:25Z</time>
      </trkpt>
      <trkpt lat="44.83829" lon="-0.21595">
        <ele>18.1</ele>
        <time>2020-09-09T12:05:26Z</time>
      </trkpt>
      <trkpt lat="44.83828" lon="-0.21592">
        <ele>18.2</ele>
        <time>2020-09-09T12:05:28Z</time>
      </trkpt>
      <trkpt lat="44.83828" lon="-0.2159">
        <ele>18.3</ele>
        <time>2020-09-09T12:05:29Z</time>
      </trkpt>
      <trkpt lat="44.83828" lon="-0.21588">
        <ele>18.3</ele>
        <time>2020-09-09T12:05:31Z</time>
      </trkpt>
      <trkpt lat="44.83827" lon="-0.21587">
        <ele>18.3</ele>
        <time>2020-09-09T12:05:32Z</time>
      </trkpt>
      <trkpt lat="44.83827" lon="-0.21586">
        <ele>18.4</ele>
        <time>2020-09-09T12:05:34Z</time>
      </trkpt>
      <trkpt lat="44.83826" lon="-0.21584">
        <ele>18.4</ele>
        <time>2020-09-09T12:05:35Z</time>
      </trkpt>
      <trkpt lat="44.83825" lon="-0.21581">
        <ele>18.5</ele>
        <time>2020-09-09T12:05:37Z</time>
      </trkpt>
      <trkpt lat="44.83825" lon="-0.21581">
        <ele>18.5</ele>
        <time>2020-09-09T12:05:38Z</time>
      </trkpt>
      <trkpt lat="44.83825" lon="-0.2158">
        <ele>18.5</ele>
        <time>2020-09-09T12:05:40Z</time>
      </trkpt>
      <trkpt lat="44.83825" lon="-0.21579">
        <ele>18.5</ele>
        <time>2020-09-09T12:05:41Z</time>
      </trkpt>
      <trkpt lat="44.83824" lon="-0.21576">
        <ele>18.6</ele>
        <time>2020-09-09T12:05:42Z</time>
      </trkpt>
      <trkpt lat="44.83824" lon="-0.21575">
        <ele>18.6</ele>
        <time>2020-09-09T12:05:43Z</time>
      </trkpt>
      <trkpt lat="44.83824" lon="-0.21574">
        <ele>18.6</ele>
        <time>2020-09-09T12:05:44Z</time>
      </trkpt>
      <trkpt lat="44.83823" lon="-0.21572">
        <ele>18.6</ele>
        <time>2020-09-09T12:05:46Z</time>
      </trkpt>
      <trkpt lat="44.83822" lon="-0.21568">
        <ele>18.6</ele>
        <time>2020-09-09T12:05:47Z</time>
      </trkpt>
      <trkpt lat="44.83821" lon="-0.21563">
        <ele>18.6</ele>
        <time>2020-09-09T12:05:49Z</time>
      </trkpt>
      <trkpt lat="44.8382" lon="-0.21562">
        <ele>18.6</ele>
        <time>2020-09-09T12:05:51Z</time>
      </trkpt>
      <trkpt lat="44.8382" lon="-0.2156">
        <ele>18.6</ele>
        <time>2020-09-09T12:05:52Z</time>
      </trkpt>
      <trkpt lat="44.83819" lon="-0.21558">
        <ele>18.6</ele>
        <time>2020-09-09T12:05:53Z</time>
      </trkpt>
      <trkpt lat="44.83818" lon="-0.21554">
        <ele>18.6</ele>
        <time>2020-09-09T12:05:54Z</time>
      </trkpt>
      <trkpt lat="44.83817" lon="-0.21553">
        <ele>18.6</ele>
        <time>2020-09-09T12:05:55Z</time>
      </trkpt>
      <trkpt lat="44.83816" lon="-0.21552">
        <ele>18.7</ele>
        <time>2020-09-09T12:05:56Z</time>
      </trkpt>
      <trkpt lat="44.83816" lon="-0.2155">
        <ele>18.7</ele>
        <time>2020-09-09T12:05:57Z</time>
      </trkpt>
      <trkpt lat="44.83815" lon="-0.21549">
        <ele>18.7</ele>
        <time>2020-09-09T12:05:58Z</time>
      </trkpt>
      <trkpt lat="44.83815" lon="-0.21549">
        <ele>18.7</ele>
        <time>2020-09-09T12:05:59Z</time>
      </trkpt>
      <trkpt lat="44.83814" lon="-0.21547">
        <ele>18.8</ele>
        <time>2020-09-09T12:06:00Z</time>
      </trkpt>
      <trkpt lat="44.83813" lon="-0.21545">
        <ele>18.8</ele>
        <time>2020-09-09T12:06:02Z</time>
      </trkpt>
      <trkpt lat="44.83812" lon="-0.21544">
        <ele>18.9</ele>
        <time>2020-09-09T12:06:03Z</time>
      </trkpt>
      <trkpt lat="44.83812" lon="-0.21544">
        <ele>18.9</ele>
        <time>2020-09-09T12:06:04Z</time>
      </trkpt>
      <trkpt lat="44.83811" lon="-0.21543">
        <ele>18.9</ele>
        <time>2020-09-09T12:06:06Z</time>
      </trkpt>
      <trkpt lat="44.83811" lon="-0.21542">
        <ele>19</ele>
        <time>2020-09-09T12:06:07Z</time>
      </trkpt>
      <trkpt lat="44.8381" lon="-0.2154">
        <ele>19</ele>
        <time>2020-09-09T12:06:08Z</time>
      </trkpt>
      <trkpt lat="44.8381" lon="-0.2154">
        <ele>19</ele>
        <time>2020-09-09T12:06:09Z</time>
      </trkpt>
      <trkpt lat="44.8381" lon="-0.21539">
        <ele>19.1</ele>
        <time>2020-09-09T12:06:10Z</time>
      </trkpt>
      <trkpt lat="44.83809" lon="-0.21538">
        <ele>19.1</ele>
        <time>2020-09-09T12:06:11Z</time>
      </trkpt>
      <trkpt lat="44.83808" lon="-0.21535">
        <ele>19.2</ele>
        <time>2020-09-09T12:06:13Z</time>
      </trkpt>
      <trkpt lat="44.83808" lon="-0.21533">
        <ele>19.3</ele>
        <time>2020-09-09T12:06:14Z</time>
      </trkpt>
      <trkpt lat="44.83808" lon="-0.21531">
        <ele>19.3</ele>
        <time>2020-09-09T12:06:16Z</time>
      </trkpt>
      <trkpt lat="44.83807" lon="-0.2153">
        <ele>19.4</ele>
        <time>2020-09-09T12:06:17Z</time>
      </trkpt>
      <trkpt lat="44.83807" lon="-0.21528">
        <ele>19.4</ele>
        <time>2020-09-09T12:06:18Z</time>
      </trkpt>
      <trkpt lat="44.83807" lon="-0.21527">
        <ele>19.4</ele>
        <time>2020-09-09T12:06:19Z</time>
      </trkpt>
      <trkpt lat="44.83806" lon="-0.21526">
        <ele>19.5</ele>
        <time>2020-09-09T12:06:20Z</time>
      </trkpt>
      <trkpt lat="44.83806" lon="-0.21523">
        <ele>19.6</ele>
        <time>2020-09-09T12:06:22Z</time>
      </trkpt>
      <trkpt lat="44.83805" lon="-0.21519">
        <ele>19.6</ele>
        <time>2020-09-09T12:06:23Z</time>
      </trkpt>
      <trkpt lat="44.83804" lon="-0.21514">
        <ele>19.7</ele>
        <time>2020-09-09T12:06:25Z</time>
      </trkpt>
      <trkpt lat="44.83804" lon="-0.2151">
        <ele>19.7</ele>
        <time>2020-09-09T12:06:27Z</time>
      </trkpt>
      <trkpt lat="44.83803" lon="-0.21509">
        <ele>19.8</ele>
        <time>2020-09-09T12:06:28Z</time>
      </trkpt>
      <trkpt lat="44.83803" lon="-0.21507">
        <ele>19.8</ele>
        <time>2020-09-09T12:06:29Z</time>
      </trkpt>
      <trkpt lat="44.83802" lon="-0.21505">
        <ele>19.8</ele>
        <time>2020-09-09T12:06:30Z</time>
      </trkpt>
      <trkpt lat="44.83802" lon="-0.21503">
        <ele>19.8</ele>
        <time>2020-09-09T12:06:31Z</time>
      </trkpt>
      <trkpt lat="44.83802" lon="-0.21502">
        <ele>19.8</ele>
        <time>2020-09-09T12:06:32Z</time>
      </trkpt>
      <trkpt lat="44.83802" lon="-0.21501">
        <ele>19.8</ele>
        <time>2020-09-09T12:06:33Z</time>
      </trkpt>
      <trkpt lat="44.83801" lon="-0.215">
        <ele>19.9</ele>
        <time>2020-09-09T12:06:35Z</time>
      </trkpt>
      <trkpt lat="44.83801" lon="-0.21499">
        <ele>19.9</ele>
        <time>2020-09-09T12:06:36Z</time>
      </trkpt>
      <trkpt lat="44.838" lon="-0.21496">
        <ele>19.9</ele>
        <time>2020-09-09T12:06:38Z</time>
      </trkpt>
      <trkpt lat="44.838" lon="-0.21496">
        <ele>19.9</ele>
        <time>2020-09-09T12:06:39Z</time>
      </trkpt>
      <trkpt lat="44.83799" lon="-0.21494">
        <ele>19.9</ele>
        <time>2020-09-09T12:06:40Z</time>
      </trkpt>
      <trkpt lat="44.83799" lon="-0.21493">
        <ele>19.9</ele>
        <time>2020-09-09T12:06:41Z</time>
      </trkpt>
      <trkpt lat="44.83799" lon="-0.21492">
        <ele>20</ele>
        <time>2020-09-09T12:06:42Z</time>
      </trkpt>
      <trkpt lat="44.83798" lon="-0.2149">
        <ele>20</ele>
        <time>2020-09-09T12:06:44Z</time>
      </trkpt>
      <trkpt lat="44.83798" lon="-0.21489">
        <ele>20</ele>
        <time>2020-09-09T12:06:45Z</time>
      </trkpt>
      <trkpt lat="44.83797" lon="-0.21488">
        <ele>20</ele>
        <time>2020-09-09T12:06:46Z</time>
      </trkpt>
      <trkpt lat="44.83797" lon="-0.21486">
        <ele>20</ele>
        <time>2020-09-09T12:06:47Z</time>
      </trkpt>
      <trkpt lat="44.83796" lon="-0.21483">
        <ele>20.1</ele>
        <time>2020-09-09T12:06:49Z</time>
      </trkpt>
      <trkpt lat="44.83796" lon="-0.21482">
        <ele>20.1</ele>
        <time>2020-09-09T12:06:50Z</time>
      </trkpt>
      <trkpt lat="44.83796" lon="-0.21481">
        <ele>20.1</ele>
        <time>2020-09-09T12:06:51Z</time>
      </trkpt>
      <trkpt lat="44.83795" lon="-0.2148">
        <ele>20.1</ele>
        <time>2020-09-09T12:06:52Z</time>
      </trkpt>
      <trkpt lat="44.83795" lon="-0.21477">
        <ele>20.2</ele>
        <time>2020-09-09T12:06:54Z</time>
      </trkpt>
      <trkpt lat="44.83794" lon="-0.21476">
        <ele>20.2</ele>
        <time>2020-09-09T12:06:55Z</time>
      </trkpt>
      <trkpt lat="44.83794" lon="-0.21474">
        <ele>20.3</ele>
        <time>2020-09-09T12:06:56Z</time>
      </trkpt>
      <trkpt lat="44.83794" lon="-0.21473">
        <ele>20.3</ele>
        <time>2020-09-09T12:06:57Z</time>
      </trkpt>
      <trkpt lat="44.83793" lon="-0.2147">
        <ele>20.4</ele>
        <time>2020-09-09T12:06:58Z</time>
      </trkpt>
      <trkpt lat="44.83792" lon="-0.21469">
        <ele>20.5</ele>
        <time>2020-09-09T12:06:59Z</time>
      </trkpt>
      <trkpt lat="44.83792" lon="-0.21467">
        <ele>20.5</ele>
        <time>2020-09-09T12:07:00Z</time>
      </trkpt>
      <trkpt lat="44.83792" lon="-0.21465">
        <ele>20.6</ele>
        <time>2020-09-09T12:07:01Z</time>
      </trkpt>
      <trkpt lat="44.83791" lon="-0.2146">
        <ele>20.7</ele>
        <time>2020-09-09T12:07:03Z</time>
      </trkpt>
      <trkpt lat="44.8379" lon="-0.21459">
        <ele>20.8</ele>
        <time>2020-09-09T12:07:04Z</time>
      </trkpt>
      <trkpt lat="44.8379" lon="-0.21457">
        <ele>20.8</ele>
        <time>2020-09-09T12:07:05Z</time>
      </trkpt>
      <trkpt lat="44.8379" lon="-0.21454">
        <ele>20.9</ele>
        <time>2020-09-09T12:07:07Z</time>
      </trkpt>
      <trkpt lat="44.8379" lon="-0.21449">
        <ele>20.9</ele>
        <time>2020-09-09T12:07:08Z</time>
      </trkpt>
      <trkpt lat="44.8379" lon="-0.21448">
        <ele>20.9</ele>
        <time>2020-09-09T12:07:09Z</time>
      </trkpt>
      <trkpt lat="44.8379" lon="-0.21446">
        <ele>20.9</ele>
        <time>2020-09-09T12:07:10Z</time>
      </trkpt>
      <trkpt lat="44.83789" lon="-0.21444">
        <ele>21</ele>
        <time>2020-09-09T12:07:11Z</time>
      </trkpt>
      <trkpt lat="44.83789" lon="-0.21442">
        <ele>21</ele>
        <time>2020-09-09T12:07:12Z</time>
      </trkpt>
      <trkpt lat="44.83789" lon="-0.2144">
        <ele>21</ele>
        <time>2020-09-09T12:07:13Z</time>
      </trkpt>
      <trkpt lat="44.83789" lon="-0.21436">
        <ele>21</ele>
        <time>2020-09-09T12:07:14Z</time>
      </trkpt>
      <trkpt lat="44.83789" lon="-0.21435">
        <ele>21</ele>
        <time>2020-09-09T12:07:16Z</time>
      </trkpt>
      <trkpt lat="44.83788" lon="-0.21434">
        <ele>21</ele>
        <time>2020-09-09T12:07:17Z</time>
      </trkpt>
      <trkpt lat="44.83788" lon="-0.21432">
        <ele>21</ele>
        <time>2020-09-09T12:07:19Z</time>
      </trkpt>
      <trkpt lat="44.83788" lon="-0.2143">
        <ele>21</ele>
        <time>2020-09-09T12:07:20Z</time>
      </trkpt>
      <trkpt lat="44.83787" lon="-0.21427">
        <ele>21</ele>
        <time>2020-09-09T12:07:22Z</time>
      </trkpt>
      <trkpt lat="44.83787" lon="-0.21423">
        <ele>21.1</ele>
        <time>2020-09-09T12:07:23Z</time>
      </trkpt>
      <trkpt lat="44.83787" lon="-0.21421">
        <ele>21.1</ele>
        <time>2020-09-09T12:07:24Z</time>
      </trkpt>
      <trkpt lat="44.83787" lon="-0.21417">
        <ele>21.2</ele>
        <time>2020-09-09T12:07:26Z</time>
      </trkpt>
      <trkpt lat="44.83787" lon="-0.21415">
        <ele>21.3</ele>
        <time>2020-09-09T12:07:27Z</time>
      </trkpt>
      <trkpt lat="44.83786" lon="-0.21411">
        <ele>21.4</ele>
        <time>2020-09-09T12:07:29Z</time>
      </trkpt>
      <trkpt lat="44.83785" lon="-0.21409">
        <ele>21.4</ele>
        <time>2020-09-09T12:07:30Z</time>
      </trkpt>
      <trkpt lat="44.83785" lon="-0.21407">
        <ele>21.5</ele>
        <time>2020-09-09T12:07:31Z</time>
      </trkpt>
      <trkpt lat="44.83785" lon="-0.21404">
        <ele>21.6</ele>
        <time>2020-09-09T12:07:32Z</time>
      </trkpt>
      <trkpt lat="44.83785" lon="-0.21402">
        <ele>21.6</ele>
        <time>2020-09-09T12:07:33Z</time>
      </trkpt>
      <trkpt lat="44.83784" lon="-0.21401">
        <ele>21.7</ele>
        <time>2020-09-09T12:07:34Z</time>
      </trkpt>
      <trkpt lat="44.83784" lon="-0.21397">
        <ele>21.7</ele>
        <time>2020-09-09T12:07:36Z</time>
      </trkpt>
      <trkpt lat="44.83784" lon="-0.21395">
        <ele>21.8</ele>
        <time>2020-09-09T12:07:37Z</time>
      </trkpt>
      <trkpt lat="44.83783" lon="-0.21392">
        <ele>21.8</ele>
        <time>2020-09-09T12:07:39Z</time>
      </trkpt>
      <trkpt lat="44.83783" lon="-0.2139">
        <ele>21.9</ele>
        <time>2020-09-09T12:07:40Z</time>
      </trkpt>
      <trkpt lat="44.83783" lon="-0.21389">
        <ele>21.9</ele>
        <time>2020-09-09T12:07:41Z</time>
      </trkpt>
      <trkpt lat="44.83782" lon="-0.21387">
        <ele>21.9</ele>
        <time>2020-09-09T12:07:42Z</time>
      </trkpt>
      <trkpt lat="44.83782" lon="-0.21386">
        <ele>22</ele>
        <time>2020-09-09T12:07:43Z</time>
      </trkpt>
      <trkpt lat="44.83782" lon="-0.21383">
        <ele>22</ele>
        <time>2020-09-09T12:07:44Z</time>
      </trkpt>
      <trkpt lat="44.83782" lon="-0.21381">
        <ele>22.1</ele>
        <time>2020-09-09T12:07:45Z</time>
      </trkpt>
      <trkpt lat="44.83782" lon="-0.21379">
        <ele>22.1</ele>
        <time>2020-09-09T12:07:47Z</time>
      </trkpt>
      <trkpt lat="44.83782" lon="-0.21378">
        <ele>22.1</ele>
        <time>2020-09-09T12:07:48Z</time>
      </trkpt>
      <trkpt lat="44.83781" lon="-0.21377">
        <ele>22.2</ele>
        <time>2020-09-09T12:07:49Z</time>
      </trkpt>
      <trkpt lat="44.83781" lon="-0.21375">
        <ele>22.2</ele>
        <time>2020-09-09T12:07:50Z</time>
      </trkpt>
      <trkpt lat="44.83781" lon="-0.21375">
        <ele>22.2</ele>
        <time>2020-09-09T12:07:51Z</time>
      </trkpt>
      <trkpt lat="44.8378" lon="-0.21374">
        <ele>22.2</ele>
        <time>2020-09-09T12:07:52Z</time>
      </trkpt>
      <trkpt lat="44.8378" lon="-0.21373">
        <ele>22.2</ele>
        <time>2020-09-09T12:07:53Z</time>
      </trkpt>
      <trkpt lat="44.8378" lon="-0.21372">
        <ele>22.3</ele>
        <time>2020-09-09T12:07:55Z</time>
      </trkpt>
      <trkpt lat="44.83779" lon="-0.21369">
        <ele>22.3</ele>
        <time>2020-09-09T12:07:56Z</time>
      </trkpt>
      <trkpt lat="44.83779" lon="-0.21365">
        <ele>22.4</ele>
        <time>2020-09-09T12:07:58Z</time>
      </trkpt>
      <trkpt lat="44.83778" lon="-0.21364">
        <ele>22.4</ele>
        <time>2020-09-09T12:07:59Z</time>
      </trkpt>
      <trkpt lat="44.83778" lon="-0.21363">
        <ele>22.4</ele>
        <time>2020-09-09T12:08:00Z</time>
      </trkpt>
      <trkpt lat="44.83777" lon="-0.21362">
        <ele>22.5</ele>
        <time>2020-09-09T12:08:01Z</time>
      </trkpt>
      <trkpt lat="44.83774" lon="-0.21359">
        <ele>22.5</ele>
        <time>2020-09-09T12:08:03Z</time>
      </trkpt>
      <trkpt lat="44.83773" lon="-0.21358">
        <ele>22.6</ele>
        <time>2020-09-09T12:08:04Z</time>
      </trkpt>
      <trkpt lat="44.83772" lon="-0.21357">
        <ele>22.6</ele>
        <time>2020-09-09T12:08:05Z</time>
      </trkpt>
      <trkpt lat="44.83772" lon="-0.21356">
        <ele>22.7</ele>
        <time>2020-09-09T12:08:06Z</time>
      </trkpt>
      <trkpt lat="44.83771" lon="-0.21356">
        <ele>22.7</ele>
        <time>2020-09-09T12:08:08Z</time>
      </trkpt>
      <trkpt lat="44.8377" lon="-0.21354">
        <ele>22.7</ele>
        <time>2020-09-09T12:08:09Z</time>
      </trkpt>
      <trkpt lat="44.83769" lon="-0.21353">
        <ele>22.8</ele>
        <time>2020-09-09T12:08:10Z</time>
      </trkpt>
      <trkpt lat="44.83768" lon="-0.21351">
        <ele>22.9</ele>
        <time>2020-09-09T12:08:11Z</time>
      </trkpt>
      <trkpt lat="44.83768" lon="-0.2135">
        <ele>22.9</ele>
        <time>2020-09-09T12:08:12Z</time>
      </trkpt>
      <trkpt lat="44.83767" lon="-0.21349">
        <ele>22.9</ele>
        <time>2020-09-09T12:08:13Z</time>
      </trkpt>
      <trkpt lat="44.83767" lon="-0.21347">
        <ele>23</ele>
        <time>2020-09-09T12:08:15Z</time>
      </trkpt>
      <trkpt lat="44.83766" lon="-0.21346">
        <ele>23</ele>
        <time>2020-09-09T12:08:16Z</time>
      </trkpt>
      <trkpt lat="44.83765" lon="-0.21344">
        <ele>23</ele>
        <time>2020-09-09T12:08:17Z</time>
      </trkpt>
      <trkpt lat="44.83765" lon="-0.21343">
        <ele>23.1</ele>
        <time>2020-09-09T12:08:18Z</time>
      </trkpt>
      <trkpt lat="44.83764" lon="-0.21342">
        <ele>23.1</ele>
        <time>2020-09-09T12:08:19Z</time>
      </trkpt>
      <trkpt lat="44.83764" lon="-0.21341">
        <ele>23.1</ele>
        <time>2020-09-09T12:08:20Z</time>
      </trkpt>
      <trkpt lat="44.83761" lon="-0.21339">
        <ele>23.2</ele>
        <time>2020-09-09T12:08:21Z</time>
      </trkpt>
      <trkpt lat="44.8376" lon="-0.21338">
        <ele>23.3</ele>
        <time>2020-09-09T12:08:22Z</time>
      </trkpt>
      <trkpt lat="44.83759" lon="-0.21336">
        <ele>23.3</ele>
        <time>2020-09-09T12:08:23Z</time>
      </trkpt>
      <trkpt lat="44.83757" lon="-0.21333">
        <ele>23.3</ele>
        <time>2020-09-09T12:08:25Z</time>
      </trkpt>
      <trkpt lat="44.83755" lon="-0.21332">
        <ele>23.4</ele>
        <time>2020-09-09T12:08:26Z</time>
      </trkpt>
      <trkpt lat="44.83754" lon="-0.2133">
        <ele>23.4</ele>
        <time>2020-09-09T12:08:28Z</time>
      </trkpt>
      <trkpt lat="44.83754" lon="-0.21329">
        <ele>23.4</ele>
        <time>2020-09-09T12:08:29Z</time>
      </trkpt>
      <trkpt lat="44.83753" lon="-0.21328">
        <ele>23.4</ele>
        <time>2020-09-09T12:08:30Z</time>
      </trkpt>
      <trkpt lat="44.83753" lon="-0.21327">
        <ele>23.4</ele>
        <time>2020-09-09T12:08:31Z</time>
      </trkpt>
      <trkpt lat="44.83752" lon="-0.21326">
        <ele>23.5</ele>
        <time>2020-09-09T12:08:32Z</time>
      </trkpt>
      <trkpt lat="44.83752" lon="-0.21325">
        <ele>23.5</ele>
        <time>2020-09-09T12:08:33Z</time>
      </trkpt>
      <trkpt lat="44.83751" lon="-0.21324">
        <ele>23.5</ele>
        <time>2020-09-09T12:08:35Z</time>
      </trkpt>
      <trkpt lat="44.83751" lon="-0.21323">
        <ele>23.5</ele>
        <time>2020-09-09T12:08:36Z</time>
      </trkpt>
      <trkpt lat="44.8375" lon="-0.21321">
        <ele>23.5</ele>
        <time>2020-09-09T12:08:38Z</time>
      </trkpt>
      <trkpt lat="44.83749" lon="-0.2132">
        <ele>23.5</ele>
        <time>2020-09-09T12:08:39Z</time>
      </trkpt>
      <trkpt lat="44.83748" lon="-0.21317">
        <ele>23.6</ele>
        <time>2020-09-09T12:08:40Z</time>
      </trkpt>
      <trkpt lat="44.83747" lon="-0.21316">
        <ele>23.6</ele>
        <time>2020-09-09T12:08:41Z</time>
      </trkpt>
      <trkpt lat="44.83747" lon="-0.21315">
        <ele>23.6</ele>
        <time>2020-09-09T12:08:42Z</time>
      </trkpt>
      <trkpt lat="44.83746" lon="-0.21313">
        <ele>23.6</ele>
        <time>2020-09-09T12:08:44Z</time>
      </trkpt>
      <trkpt lat="44.83745" lon="-0.21311">
        <ele>23.7</ele>
        <time>2020-09-09T12:08:45Z</time>
      </trkpt>
      <trkpt lat="44.83745" lon="-0.2131">
        <ele>23.7</ele>
        <time>2020-09-09T12:08:46Z</time>
      </trkpt>
      <trkpt lat="44.83745" lon="-0.21308">
        <ele>23.7</ele>
        <time>2020-09-09T12:08:47Z</time>
      </trkpt>
      <trkpt lat="44.83745" lon="-0.21306">
        <ele>23.7</ele>
        <time>2020-09-09T12:08:48Z</time>
      </trkpt>
      <trkpt lat="44.83743" lon="-0.21303">
        <ele>23.7</ele>
        <time>2020-09-09T12:08:49Z</time>
      </trkpt>
      <trkpt lat="44.83743" lon="-0.21302">
        <ele>23.7</ele>
        <time>2020-09-09T12:08:51Z</time>
      </trkpt>
      <trkpt lat="44.83743" lon="-0.213">
        <ele>23.7</ele>
        <time>2020-09-09T12:08:52Z</time>
      </trkpt>
      <trkpt lat="44.83742" lon="-0.21299">
        <ele>23.8</ele>
        <time>2020-09-09T12:08:53Z</time>
      </trkpt>
      <trkpt lat="44.83742" lon="-0.21298">
        <ele>23.8</ele>
        <time>2020-09-09T12:08:54Z</time>
      </trkpt>
      <trkpt lat="44.83741" lon="-0.21295">
        <ele>23.8</ele>
        <time>2020-09-09T12:08:55Z</time>
      </trkpt>
      <trkpt lat="44.83741" lon="-0.21294">
        <ele>23.8</ele>
        <time>2020-09-09T12:08:56Z</time>
      </trkpt>
      <trkpt lat="44.83741" lon="-0.21293">
        <ele>23.8</ele>
        <time>2020-09-09T12:08:57Z</time>
      </trkpt>
      <trkpt lat="44.8374" lon="-0.21292">
        <ele>23.8</ele>
        <time>2020-09-09T12:08:58Z</time>
      </trkpt>
      <trkpt lat="44.8374" lon="-0.2129">
        <ele>23.8</ele>
        <time>2020-09-09T12:08:59Z</time>
      </trkpt>
      <trkpt lat="44.83739" lon="-0.21289">
        <ele>23.8</ele>
        <time>2020-09-09T12:09:00Z</time>
      </trkpt>
      <trkpt lat="44.83738" lon="-0.21287">
        <ele>23.8</ele>
        <time>2020-09-09T12:09:01Z</time>
      </trkpt>
      <trkpt lat="44.83737" lon="-0.21284">
        <ele>23.8</ele>
        <time>2020-09-09T12:09:02Z</time>
      </trkpt>
      <trkpt lat="44.83736" lon="-0.2128">
        <ele>23.8</ele>
        <time>2020-09-09T12:09:04Z</time>
      </trkpt>
      <trkpt lat="44.83736" lon="-0.21279">
        <ele>23.8</ele>
        <time>2020-09-09T12:09:05Z</time>
      </trkpt>
      <trkpt lat="44.83735" lon="-0.21274">
        <ele>23.7</ele>
        <time>2020-09-09T12:09:07Z</time>
      </trkpt>
      <trkpt lat="44.83734" lon="-0.21273">
        <ele>23.7</ele>
        <time>2020-09-09T12:09:08Z</time>
      </trkpt>
      <trkpt lat="44.83734" lon="-0.2127">
        <ele>23.7</ele>
        <time>2020-09-09T12:09:10Z</time>
      </trkpt>
      <trkpt lat="44.83734" lon="-0.21269">
        <ele>23.6</ele>
        <time>2020-09-09T12:09:11Z</time>
      </trkpt>
      <trkpt lat="44.83734" lon="-0.21267">
        <ele>23.6</ele>
        <time>2020-09-09T12:09:12Z</time>
      </trkpt>
      <trkpt lat="44.83733" lon="-0.21265">
        <ele>23.6</ele>
        <time>2020-09-09T12:09:13Z</time>
      </trkpt>
      <trkpt lat="44.83732" lon="-0.21262">
        <ele>23.5</ele>
        <time>2020-09-09T12:09:15Z</time>
      </trkpt>
      <trkpt lat="44.83732" lon="-0.2126">
        <ele>23.5</ele>
        <time>2020-09-09T12:09:16Z</time>
      </trkpt>
      <trkpt lat="44.83731" lon="-0.21258">
        <ele>23.5</ele>
        <time>2020-09-09T12:09:17Z</time>
      </trkpt>
      <trkpt lat="44.83731" lon="-0.21255">
        <ele>23.4</ele>
        <time>2020-09-09T12:09:19Z</time>
      </trkpt>
      <trkpt lat="44.83731" lon="-0.21253">
        <ele>23.4</ele>
        <time>2020-09-09T12:09:20Z</time>
      </trkpt>
      <trkpt lat="44.8373" lon="-0.21251">
        <ele>23.3</ele>
        <time>2020-09-09T12:09:22Z</time>
      </trkpt>
      <trkpt lat="44.8373" lon="-0.21249">
        <ele>23.3</ele>
        <time>2020-09-09T12:09:23Z</time>
      </trkpt>
      <trkpt lat="44.8373" lon="-0.21245">
        <ele>23.2</ele>
        <time>2020-09-09T12:09:24Z</time>
      </trkpt>
      <trkpt lat="44.8373" lon="-0.21244">
        <ele>23.2</ele>
        <time>2020-09-09T12:09:25Z</time>
      </trkpt>
      <trkpt lat="44.83729" lon="-0.2124">
        <ele>23.1</ele>
        <time>2020-09-09T12:09:27Z</time>
      </trkpt>
      <trkpt lat="44.83728" lon="-0.21237">
        <ele>23.1</ele>
        <time>2020-09-09T12:09:29Z</time>
      </trkpt>
      <trkpt lat="44.83728" lon="-0.21234">
        <ele>23.1</ele>
        <time>2020-09-09T12:09:31Z</time>
      </trkpt>
      <trkpt lat="44.83727" lon="-0.21233">
        <ele>23</ele>
        <time>2020-09-09T12:09:32Z</time>
      </trkpt>
      <trkpt lat="44.83727" lon="-0.2123">
        <ele>23</ele>
        <time>2020-09-09T12:09:34Z</time>
      </trkpt>
      <trkpt lat="44.83727" lon="-0.2123">
        <ele>23</ele>
        <time>2020-09-09T12:09:35Z</time>
      </trkpt>
      <trkpt lat="44.83726" lon="-0.21229">
        <ele>23</ele>
        <time>2020-09-09T12:09:36Z</time>
      </trkpt>
      <trkpt lat="44.83726" lon="-0.21227">
        <ele>23</ele>
        <time>2020-09-09T12:09:37Z</time>
      </trkpt>
      <trkpt lat="44.83725" lon="-0.21225">
        <ele>22.9</ele>
        <time>2020-09-09T12:09:39Z</time>
      </trkpt>
      <trkpt lat="44.83725" lon="-0.21224">
        <ele>22.9</ele>
        <time>2020-09-09T12:09:40Z</time>
      </trkpt>
      <trkpt lat="44.83725" lon="-0.21223">
        <ele>22.9</ele>
        <time>2020-09-09T12:09:41Z</time>
      </trkpt>
      <trkpt lat="44.83724" lon="-0.21221">
        <ele>22.9</ele>
        <time>2020-09-09T12:09:42Z</time>
      </trkpt>
      <trkpt lat="44.83724" lon="-0.21219">
        <ele>22.9</ele>
        <time>2020-09-09T12:09:44Z</time>
      </trkpt>
      <trkpt lat="44.83723" lon="-0.21217">
        <ele>22.9</ele>
        <time>2020-09-09T12:09:45Z</time>
      </trkpt>
      <trkpt lat="44.83722" lon="-0.21214">
        <ele>22.8</ele>
        <time>2020-09-09T12:09:47Z</time>
      </trkpt>
      <trkpt lat="44.83722" lon="-0.21213">
        <ele>22.8</ele>
        <time>2020-09-09T12:09:48Z</time>
      </trkpt>
      <trkpt lat="44.83721" lon="-0.21208">
        <ele>22.8</ele>
        <time>2020-09-09T12:09:50Z</time>
      </trkpt>
      <trkpt lat="44.8372" lon="-0.21207">
        <ele>22.8</ele>
        <time>2020-09-09T12:09:52Z</time>
      </trkpt>
      <trkpt lat="44.8372" lon="-0.21206">
        <ele>22.8</ele>
        <time>2020-09-09T12:09:53Z</time>
      </trkpt>
      <trkpt lat="44.8372" lon="-0.21205">
        <ele>22.8</ele>
        <time>2020-09-09T12:09:54Z</time>
      </trkpt>
      <trkpt lat="44.83719" lon="-0.21204">
        <ele>22.8</ele>
        <time>2020-09-09T12:09:55Z</time>
      </trkpt>
      <trkpt lat="44.83719" lon="-0.21202">
        <ele>22.7</ele>
        <time>2020-09-09T12:09:56Z</time>
      </trkpt>
      <trkpt lat="44.83718" lon="-0.212">
        <ele>22.7</ele>
        <time>2020-09-09T12:09:57Z</time>
      </trkpt>
      <trkpt lat="44.83718" lon="-0.21197">
        <ele>22.7</ele>
        <time>2020-09-09T12:09:59Z</time>
      </trkpt>
      <trkpt lat="44.83718" lon="-0.21195">
        <ele>22.7</ele>
        <time>2020-09-09T12:10:00Z</time>
      </trkpt>
      <trkpt lat="44.83718" lon="-0.21194">
        <ele>22.7</ele>
        <time>2020-09-09T12:10:01Z</time>
      </trkpt>
      <trkpt lat="44.83717" lon="-0.21192">
        <ele>22.7</ele>
        <time>2020-09-09T12:10:02Z</time>
      </trkpt>
      <trkpt lat="44.83717" lon="-0.2119">
        <ele>22.6</ele>
        <time>2020-09-09T12:10:04Z</time>
      </trkpt>
      <trkpt lat="44.83716" lon="-0.21187">
        <ele>22.6</ele>
        <time>2020-09-09T12:10:05Z</time>
      </trkpt>
      <trkpt lat="44.83716" lon="-0.21186">
        <ele>22.6</ele>
        <time>2020-09-09T12:10:06Z</time>
      </trkpt>
      <trkpt lat="44.83715" lon="-0.21184">
        <ele>22.6</ele>
        <time>2020-09-09T12:10:07Z</time>
      </trkpt>
      <trkpt lat="44.83715" lon="-0.21179">
        <ele>22.6</ele>
        <time>2020-09-09T12:10:09Z</time>
      </trkpt>
      <trkpt lat="44.83714" lon="-0.21174">
        <ele>22.6</ele>
        <time>2020-09-09T12:10:11Z</time>
      </trkpt>
      <trkpt lat="44.83714" lon="-0.21173">
        <ele>22.6</ele>
        <time>2020-09-09T12:10:12Z</time>
      </trkpt>
      <trkpt lat="44.83713" lon="-0.21171">
        <ele>22.6</ele>
        <time>2020-09-09T12:10:13Z</time>
      </trkpt>
      <trkpt lat="44.83712" lon="-0.2117">
        <ele>22.6</ele>
        <time>2020-09-09T12:10:14Z</time>
      </trkpt>
      <trkpt lat="44.83712" lon="-0.21168">
        <ele>22.6</ele>
        <time>2020-09-09T12:10:15Z</time>
      </trkpt>
      <trkpt lat="44.83711" lon="-0.21166">
        <ele>22.6</ele>
        <time>2020-09-09T12:10:16Z</time>
      </trkpt>
      <trkpt lat="44.8371" lon="-0.21165">
        <ele>22.6</ele>
        <time>2020-09-09T12:10:18Z</time>
      </trkpt>
      <trkpt lat="44.8371" lon="-0.21163">
        <ele>22.6</ele>
        <time>2020-09-09T12:10:19Z</time>
      </trkpt>
      <trkpt lat="44.83709" lon="-0.21162">
        <ele>22.6</ele>
        <time>2020-09-09T12:10:20Z</time>
      </trkpt>
      <trkpt lat="44.83709" lon="-0.2116">
        <ele>22.6</ele>
        <time>2020-09-09T12:10:21Z</time>
      </trkpt>
      <trkpt lat="44.83708" lon="-0.21159">
        <ele>22.6</ele>
        <time>2020-09-09T12:10:22Z</time>
      </trkpt>
      <trkpt lat="44.83708" lon="-0.21158">
        <ele>22.6</ele>
        <time>2020-09-09T12:10:23Z</time>
      </trkpt>
      <trkpt lat="44.83708" lon="-0.21156">
        <ele>22.7</ele>
        <time>2020-09-09T12:10:24Z</time>
      </trkpt>
      <trkpt lat="44.83707" lon="-0.21155">
        <ele>22.7</ele>
        <time>2020-09-09T12:10:25Z</time>
      </trkpt>
      <trkpt lat="44.83707" lon="-0.21153">
        <ele>22.7</ele>
        <time>2020-09-09T12:10:26Z</time>
      </trkpt>
      <trkpt lat="44.83706" lon="-0.21151">
        <ele>22.7</ele>
        <time>2020-09-09T12:10:28Z</time>
      </trkpt>
      <trkpt lat="44.83706" lon="-0.21149">
        <ele>22.7</ele>
        <time>2020-09-09T12:10:30Z</time>
      </trkpt>
      <trkpt lat="44.83705" lon="-0.21147">
        <ele>22.8</ele>
        <time>2020-09-09T12:10:31Z</time>
      </trkpt>
      <trkpt lat="44.83705" lon="-0.21146">
        <ele>22.8</ele>
        <time>2020-09-09T12:10:32Z</time>
      </trkpt>
      <trkpt lat="44.83704" lon="-0.21144">
        <ele>22.8</ele>
        <time>2020-09-09T12:10:34Z</time>
      </trkpt>
      <trkpt lat="44.83704" lon="-0.21143">
        <ele>22.8</ele>
        <time>2020-09-09T12:10:35Z</time>
      </trkpt>
      <trkpt lat="44.83704" lon="-0.21142">
        <ele>22.8</ele>
        <time>2020-09-09T12:10:36Z</time>
      </trkpt>
      <trkpt lat="44.83703" lon="-0.2114">
        <ele>22.8</ele>
        <time>2020-09-09T12:10:38Z</time>
      </trkpt>
      <trkpt lat="44.83702" lon="-0.21139">
        <ele>22.8</ele>
        <time>2020-09-09T12:10:39Z</time>
      </trkpt>
      <trkpt lat="44.83702" lon="-0.21136">
        <ele>22.9</ele>
        <time>2020-09-09T12:10:41Z</time>
      </trkpt>
      <trkpt lat="44.83701" lon="-0.21134">
        <ele>22.9</ele>
        <time>2020-09-09T12:10:42Z</time>
      </trkpt>
      <trkpt lat="44.83701" lon="-0.21132">
        <ele>22.9</ele>
        <time>2020-09-09T12:10:43Z</time>
      </trkpt>
      <trkpt lat="44.837" lon="-0.2113">
        <ele>22.9</ele>
        <time>2020-09-09T12:10:44Z</time>
      </trkpt>
      <trkpt lat="44.837" lon="-0.21129">
        <ele>22.9</ele>
        <time>2020-09-09T12:10:45Z</time>
      </trkpt>
      <trkpt lat="44.83699" lon="-0.21126">
        <ele>22.9</ele>
        <time>2020-09-09T12:10:46Z</time>
      </trkpt>
      <trkpt lat="44.83699" lon="-0.21124">
        <ele>22.9</ele>
        <time>2020-09-09T12:10:47Z</time>
      </trkpt>
      <trkpt lat="44.83698" lon="-0.21122">
        <ele>22.9</ele>
        <time>2020-09-09T12:10:48Z</time>
      </trkpt>
      <trkpt lat="44.83697" lon="-0.21119">
        <ele>22.9</ele>
        <time>2020-09-09T12:10:50Z</time>
      </trkpt>
      <trkpt lat="44.83696" lon="-0.21118">
        <ele>22.8</ele>
        <time>2020-09-09T12:10:51Z</time>
      </trkpt>
      <trkpt lat="44.83696" lon="-0.21116">
        <ele>22.8</ele>
        <time>2020-09-09T12:10:52Z</time>
      </trkpt>
      <trkpt lat="44.83694" lon="-0.21113">
        <ele>22.7</ele>
        <time>2020-09-09T12:10:53Z</time>
      </trkpt>
      <trkpt lat="44.83693" lon="-0.21111">
        <ele>22.7</ele>
        <time>2020-09-09T12:10:55Z</time>
      </trkpt>
      <trkpt lat="44.83693" lon="-0.2111">
        <ele>22.6</ele>
        <time>2020-09-09T12:10:56Z</time>
      </trkpt>
      <trkpt lat="44.83692" lon="-0.21108">
        <ele>22.5</ele>
        <time>2020-09-09T12:10:57Z</time>
      </trkpt>
      <trkpt lat="44.83691" lon="-0.21106">
        <ele>22.4</ele>
        <time>2020-09-09T12:10:59Z</time>
      </trkpt>
      <trkpt lat="44.8369" lon="-0.21104">
        <ele>22.3</ele>
        <time>2020-09-09T12:11:00Z</time>
      </trkpt>
      <trkpt lat="44.8369" lon="-0.21102">
        <ele>22.1</ele>
        <time>2020-09-09T12:11:02Z</time>
      </trkpt>
      <trkpt lat="44.8369" lon="-0.21101">
        <ele>22</ele>
        <time>2020-09-09T12:11:03Z</time>
      </trkpt>
      <trkpt lat="44.83691" lon="-0.21097">
        <ele>21.9</ele>
        <time>2020-09-09T12:11:04Z</time>
      </trkpt>
      <trkpt lat="44.83691" lon="-0.21096">
        <ele>21.9</ele>
        <time>2020-09-09T12:11:06Z</time>
      </trkpt>
      <trkpt lat="44.83692" lon="-0.21095">
        <ele>21.8</ele>
        <time>2020-09-09T12:11:07Z</time>
      </trkpt>
      <trkpt lat="44.83693" lon="-0.21094">
        <ele>21.8</ele>
        <time>2020-09-09T12:11:08Z</time>
      </trkpt>
      <trkpt lat="44.83694" lon="-0.21093">
        <ele>21.8</ele>
        <time>2020-09-09T12:11:09Z</time>
      </trkpt>
      <trkpt lat="44.83698" lon="-0.21092">
        <ele>21.8</ele>
        <time>2020-09-09T12:11:11Z</time>
      </trkpt>
      <trkpt lat="44.83702" lon="-0.21092">
        <ele>21.7</ele>
        <time>2020-09-09T12:11:12Z</time>
      </trkpt>
      <trkpt lat="44.83703" lon="-0.21092">
        <ele>21.7</ele>
        <time>2020-09-09T12:11:13Z</time>
      </trkpt>
      <trkpt lat="44.83708" lon="-0.21092">
        <ele>21.6</ele>
        <time>2020-09-09T12:11:14Z</time>
      </trkpt>
      <trkpt lat="44.83709" lon="-0.21093">
        <ele>21.6</ele>
        <time>2020-09-09T12:11:15Z</time>
      </trkpt>
      <trkpt lat="44.83713" lon="-0.21093">
        <ele>21.5</ele>
        <time>2020-09-09T12:11:17Z</time>
      </trkpt>
      <trkpt lat="44.83714" lon="-0.21093">
        <ele>21.5</ele>
        <time>2020-09-09T12:11:18Z</time>
      </trkpt>
      <trkpt lat="44.83716" lon="-0.21094">
        <ele>21.5</ele>
        <time>2020-09-09T12:11:19Z</time>
      </trkpt>
      <trkpt lat="44.83717" lon="-0.21095">
        <ele>21.4</ele>
        <time>2020-09-09T12:11:21Z</time>
      </trkpt>
      <trkpt lat="44.83719" lon="-0.21095">
        <ele>21.4</ele>
        <time>2020-09-09T12:11:22Z</time>
      </trkpt>
      <trkpt lat="44.83721" lon="-0.21095">
        <ele>21.4</ele>
        <time>2020-09-09T12:11:23Z</time>
      </trkpt>
      <trkpt lat="44.83722" lon="-0.21095">
        <ele>21.4</ele>
        <time>2020-09-09T12:11:25Z</time>
      </trkpt>
      <trkpt lat="44.83724" lon="-0.21095">
        <ele>21.3</ele>
        <time>2020-09-09T12:11:26Z</time>
      </trkpt>
      <trkpt lat="44.83727" lon="-0.21096">
        <ele>21.3</ele>
        <time>2020-09-09T12:11:28Z</time>
      </trkpt>
      <trkpt lat="44.83728" lon="-0.21096">
        <ele>21.3</ele>
        <time>2020-09-09T12:11:29Z</time>
      </trkpt>
      <trkpt lat="44.83729" lon="-0.21096">
        <ele>21.2</ele>
        <time>2020-09-09T12:11:30Z</time>
      </trkpt>
      <trkpt lat="44.83731" lon="-0.21096">
        <ele>21.2</ele>
        <time>2020-09-09T12:11:31Z</time>
      </trkpt>
      <trkpt lat="44.83732" lon="-0.21096">
        <ele>21.2</ele>
        <time>2020-09-09T12:11:32Z</time>
      </trkpt>
      <trkpt lat="44.83735" lon="-0.21096">
        <ele>21.1</ele>
        <time>2020-09-09T12:11:34Z</time>
      </trkpt>
      <trkpt lat="44.83738" lon="-0.21097">
        <ele>21.1</ele>
        <time>2020-09-09T12:11:35Z</time>
      </trkpt>
      <trkpt lat="44.83739" lon="-0.21097">
        <ele>21.1</ele>
        <time>2020-09-09T12:11:36Z</time>
      </trkpt>
      <trkpt lat="44.83742" lon="-0.21097">
        <ele>21</ele>
        <time>2020-09-09T12:11:38Z</time>
      </trkpt>
      <trkpt lat="44.83744" lon="-0.21097">
        <ele>21</ele>
        <time>2020-09-09T12:11:39Z</time>
      </trkpt>
      <trkpt lat="44.83746" lon="-0.21097">
        <ele>21</ele>
        <time>2020-09-09T12:11:41Z</time>
      </trkpt>
      <trkpt lat="44.83748" lon="-0.21097">
        <ele>20.9</ele>
        <time>2020-09-09T12:11:42Z</time>
      </trkpt>
      <trkpt lat="44.83749" lon="-0.21097">
        <ele>20.9</ele>
        <time>2020-09-09T12:11:43Z</time>
      </trkpt>
      <trkpt lat="44.83751" lon="-0.21097">
        <ele>20.9</ele>
        <time>2020-09-09T12:11:44Z</time>
      </trkpt>
      <trkpt lat="44.83752" lon="-0.21098">
        <ele>20.9</ele>
        <time>2020-09-09T12:11:45Z</time>
      </trkpt>
      <trkpt lat="44.83753" lon="-0.21098">
        <ele>20.8</ele>
        <time>2020-09-09T12:11:46Z</time>
      </trkpt>
      <trkpt lat="44.83755" lon="-0.21099">
        <ele>21</ele>
        <time>2020-09-09T12:11:47Z</time>
      </trkpt>
      <trkpt lat="44.83756" lon="-0.21099">
        <ele>21.1</ele>
        <time>2020-09-09T12:11:49Z</time>
      </trkpt>
      <trkpt lat="44.83757" lon="-0.21098">
        <ele>21.2</ele>
        <time>2020-09-09T12:11:51Z</time>
      </trkpt>
      <trkpt lat="44.83758" lon="-0.21097">
        <ele>21.2</ele>
        <time>2020-09-09T12:11:52Z</time>
      </trkpt>
      <trkpt lat="44.83759" lon="-0.21094">
        <ele>21.3</ele>
        <time>2020-09-09T12:11:53Z</time>
      </trkpt>
      <trkpt lat="44.8376" lon="-0.21093">
        <ele>21.4</ele>
        <time>2020-09-09T12:11:54Z</time>
      </trkpt>
      <trkpt lat="44.8376" lon="-0.21093">
        <ele>21.4</ele>
        <time>2020-09-09T12:11:55Z</time>
      </trkpt>
      <trkpt lat="44.83761" lon="-0.21091">
        <ele>21.4</ele>
        <time>2020-09-09T12:11:56Z</time>
      </trkpt>
      <trkpt lat="44.83761" lon="-0.2109">
        <ele>21.4</ele>
        <time>2020-09-09T12:11:57Z</time>
      </trkpt>
      <trkpt lat="44.83762" lon="-0.21089">
        <ele>21.4</ele>
        <time>2020-09-09T12:11:58Z</time>
      </trkpt>
      <trkpt lat="44.83764" lon="-0.21087">
        <ele>21.3</ele>
        <time>2020-09-09T12:12:00Z</time>
      </trkpt>
      <trkpt lat="44.83765" lon="-0.21086">
        <ele>21.3</ele>
        <time>2020-09-09T12:12:01Z</time>
      </trkpt>
      <trkpt lat="44.83766" lon="-0.21085">
        <ele>21.2</ele>
        <time>2020-09-09T12:12:02Z</time>
      </trkpt>
      <trkpt lat="44.83767" lon="-0.21084">
        <ele>21.2</ele>
        <time>2020-09-09T12:12:03Z</time>
      </trkpt>
      <trkpt lat="44.83768" lon="-0.21082">
        <ele>21.1</ele>
        <time>2020-09-09T12:12:05Z</time>
      </trkpt>
      <trkpt lat="44.8377" lon="-0.21082">
        <ele>21</ele>
        <time>2020-09-09T12:12:07Z</time>
      </trkpt>
      <trkpt lat="44.83771" lon="-0.21081">
        <ele>20.9</ele>
        <time>2020-09-09T12:12:08Z</time>
      </trkpt>
      <trkpt lat="44.83772" lon="-0.2108">
        <ele>20.8</ele>
        <time>2020-09-09T12:12:10Z</time>
      </trkpt>
      <trkpt lat="44.83773" lon="-0.21078">
        <ele>20.7</ele>
        <time>2020-09-09T12:12:11Z</time>
      </trkpt>
      <trkpt lat="44.83774" lon="-0.21077">
        <ele>20.6</ele>
        <time>2020-09-09T12:12:12Z</time>
      </trkpt>
      <trkpt lat="44.83774" lon="-0.21076">
        <ele>20.6</ele>
        <time>2020-09-09T12:12:13Z</time>
      </trkpt>
      <trkpt lat="44.83775" lon="-0.21075">
        <ele>20.5</ele>
        <time>2020-09-09T12:12:14Z</time>
      </trkpt>
      <trkpt lat="44.83775" lon="-0.21076">
        <ele>20.5</ele>
        <time>2020-09-09T12:12:15Z</time>
      </trkpt>
      <trkpt lat="44.83776" lon="-0.21074">
        <ele>20.4</ele>
        <time>2020-09-09T12:12:16Z</time>
      </trkpt>
      <trkpt lat="44.83778" lon="-0.21072">
        <ele>20.2</ele>
        <time>2020-09-09T12:12:17Z</time>
      </trkpt>
      <trkpt lat="44.83779" lon="-0.21071">
        <ele>20.2</ele>
        <time>2020-09-09T12:12:19Z</time>
      </trkpt>
      <trkpt lat="44.8378" lon="-0.21071">
        <ele>20.1</ele>
        <time>2020-09-09T12:12:21Z</time>
      </trkpt>
      <trkpt lat="44.83781" lon="-0.2107">
        <ele>20.1</ele>
        <time>2020-09-09T12:12:22Z</time>
      </trkpt>
      <trkpt lat="44.83782" lon="-0.21069">
        <ele>20</ele>
        <time>2020-09-09T12:12:23Z</time>
      </trkpt>
      <trkpt lat="44.83783" lon="-0.21067">
        <ele>19.9</ele>
        <time>2020-09-09T12:12:24Z</time>
      </trkpt>
      <trkpt lat="44.83784" lon="-0.21067">
        <ele>19.9</ele>
        <time>2020-09-09T12:12:25Z</time>
      </trkpt>
      <trkpt lat="44.83785" lon="-0.21067">
        <ele>19.9</ele>
        <time>2020-09-09T12:12:26Z</time>
      </trkpt>
      <trkpt lat="44.83786" lon="-0.21066">
        <ele>19.8</ele>
        <time>2020-09-09T12:12:27Z</time>
      </trkpt>
      <trkpt lat="44.8379" lon="-0.21063">
        <ele>19.7</ele>
        <time>2020-09-09T12:12:29Z</time>
      </trkpt>
      <trkpt lat="44.83792" lon="-0.21062">
        <ele>19.6</ele>
        <time>2020-09-09T12:12:30Z</time>
      </trkpt>
      <trkpt lat="44.83793" lon="-0.21061">
        <ele>19.6</ele>
        <time>2020-09-09T12:12:31Z</time>
      </trkpt>
      <trkpt lat="44.83794" lon="-0.2106">
        <ele>19.5</ele>
        <time>2020-09-09T12:12:32Z</time>
      </trkpt>
      <trkpt lat="44.83796" lon="-0.21059">
        <ele>19.5</ele>
        <time>2020-09-09T12:12:34Z</time>
      </trkpt>
      <trkpt lat="44.83797" lon="-0.21058">
        <ele>19.4</ele>
        <time>2020-09-09T12:12:35Z</time>
      </trkpt>
      <trkpt lat="44.83797" lon="-0.21057">
        <ele>19.4</ele>
        <time>2020-09-09T12:12:37Z</time>
      </trkpt>
      <trkpt lat="44.83798" lon="-0.21056">
        <ele>19.4</ele>
        <time>2020-09-09T12:12:38Z</time>
      </trkpt>
      <trkpt lat="44.83799" lon="-0.21055">
        <ele>19.3</ele>
        <time>2020-09-09T12:12:40Z</time>
      </trkpt>
      <trkpt lat="44.838" lon="-0.21055">
        <ele>19.3</ele>
        <time>2020-09-09T12:12:41Z</time>
      </trkpt>
      <trkpt lat="44.83801" lon="-0.21054">
        <ele>19.3</ele>
        <time>2020-09-09T12:12:42Z</time>
      </trkpt>
      <trkpt lat="44.83802" lon="-0.21053">
        <ele>19.3</ele>
        <time>2020-09-09T12:12:43Z</time>
      </trkpt>
      <trkpt lat="44.83803" lon="-0.21053">
        <ele>19.3</ele>
        <time>2020-09-09T12:12:44Z</time>
      </trkpt>
      <trkpt lat="44.83804" lon="-0.21051">
        <ele>19.2</ele>
        <time>2020-09-09T12:12:46Z</time>
      </trkpt>
      <trkpt lat="44.83807" lon="-0.21048">
        <ele>19.1</ele>
        <time>2020-09-09T12:12:47Z</time>
      </trkpt>
      <trkpt lat="44.83808" lon="-0.21047">
        <ele>19.1</ele>
        <time>2020-09-09T12:12:48Z</time>
      </trkpt>
      <trkpt lat="44.83812" lon="-0.21044">
        <ele>19</ele>
        <time>2020-09-09T12:12:50Z</time>
      </trkpt>
      <trkpt lat="44.83814" lon="-0.21043">
        <ele>19</ele>
        <time>2020-09-09T12:12:52Z</time>
      </trkpt>
      <trkpt lat="44.83815" lon="-0.21042">
        <ele>18.9</ele>
        <time>2020-09-09T12:12:53Z</time>
      </trkpt>
      <trkpt lat="44.83818" lon="-0.21041">
        <ele>18.8</ele>
        <time>2020-09-09T12:12:54Z</time>
      </trkpt>
      <trkpt lat="44.83819" lon="-0.2104">
        <ele>18.8</ele>
        <time>2020-09-09T12:12:55Z</time>
      </trkpt>
      <trkpt lat="44.83821" lon="-0.21039">
        <ele>18.7</ele>
        <time>2020-09-09T12:12:57Z</time>
      </trkpt>
      <trkpt lat="44.83821" lon="-0.21038">
        <ele>18.6</ele>
        <time>2020-09-09T12:12:58Z</time>
      </trkpt>
      <trkpt lat="44.83822" lon="-0.21038">
        <ele>18.6</ele>
        <time>2020-09-09T12:12:59Z</time>
      </trkpt>
      <trkpt lat="44.83823" lon="-0.21037">
        <ele>18.6</ele>
        <time>2020-09-09T12:13:00Z</time>
      </trkpt>
      <trkpt lat="44.83824" lon="-0.21036">
        <ele>18.5</ele>
        <time>2020-09-09T12:13:01Z</time>
      </trkpt>
      <trkpt lat="44.83826" lon="-0.21036">
        <ele>18.4</ele>
        <time>2020-09-09T12:13:02Z</time>
      </trkpt>
      <trkpt lat="44.83827" lon="-0.21035">
        <ele>18.3</ele>
        <time>2020-09-09T12:13:03Z</time>
      </trkpt>
      <trkpt lat="44.83829" lon="-0.21033">
        <ele>18.2</ele>
        <time>2020-09-09T12:13:05Z</time>
      </trkpt>
      <trkpt lat="44.8383" lon="-0.21031">
        <ele>18.1</ele>
        <time>2020-09-09T12:13:06Z</time>
      </trkpt>
      <trkpt lat="44.83831" lon="-0.21031">
        <ele>18.1</ele>
        <time>2020-09-09T12:13:08Z</time>
      </trkpt>
      <trkpt lat="44.83832" lon="-0.2103">
        <ele>18</ele>
        <time>2020-09-09T12:13:09Z</time>
      </trkpt>
      <trkpt lat="44.83833" lon="-0.2103">
        <ele>17.9</ele>
        <time>2020-09-09T12:13:11Z</time>
      </trkpt>
      <trkpt lat="44.83834" lon="-0.21029">
        <ele>17.8</ele>
        <time>2020-09-09T12:13:12Z</time>
      </trkpt>
      <trkpt lat="44.83835" lon="-0.21028">
        <ele>17.8</ele>
        <time>2020-09-09T12:13:13Z</time>
      </trkpt>
      <trkpt lat="44.83838" lon="-0.21026">
        <ele>17.5</ele>
        <time>2020-09-09T12:13:15Z</time>
      </trkpt>
      <trkpt lat="44.83839" lon="-0.21024">
        <ele>17.5</ele>
        <time>2020-09-09T12:13:16Z</time>
      </trkpt>
      <trkpt lat="44.8384" lon="-0.21024">
        <ele>17.4</ele>
        <time>2020-09-09T12:13:17Z</time>
      </trkpt>
      <trkpt lat="44.83841" lon="-0.21023">
        <ele>17.3</ele>
        <time>2020-09-09T12:13:18Z</time>
      </trkpt>
      <trkpt lat="44.83841" lon="-0.21022">
        <ele>17.3</ele>
        <time>2020-09-09T12:13:19Z</time>
      </trkpt>
      <trkpt lat="44.83843" lon="-0.2102">
        <ele>17.2</ele>
        <time>2020-09-09T12:13:20Z</time>
      </trkpt>
      <trkpt lat="44.83846" lon="-0.21017">
        <ele>17</ele>
        <time>2020-09-09T12:13:22Z</time>
      </trkpt>
      <trkpt lat="44.83849" lon="-0.21014">
        <ele>16.8</ele>
        <time>2020-09-09T12:13:24Z</time>
      </trkpt>
      <trkpt lat="44.8385" lon="-0.21013">
        <ele>16.8</ele>
        <time>2020-09-09T12:13:25Z</time>
      </trkpt>
      <trkpt lat="44.83851" lon="-0.21011">
        <ele>16.7</ele>
        <time>2020-09-09T12:13:26Z</time>
      </trkpt>
      <trkpt lat="44.83852" lon="-0.21011">
        <ele>16.7</ele>
        <time>2020-09-09T12:13:27Z</time>
      </trkpt>
      <trkpt lat="44.83853" lon="-0.21008">
        <ele>16.6</ele>
        <time>2020-09-09T12:13:28Z</time>
      </trkpt>
      <trkpt lat="44.83854" lon="-0.21007">
        <ele>16.5</ele>
        <time>2020-09-09T12:13:29Z</time>
      </trkpt>
      <trkpt lat="44.83854" lon="-0.21007">
        <ele>16.5</ele>
        <time>2020-09-09T12:13:30Z</time>
      </trkpt>
      <trkpt lat="44.83855" lon="-0.21005">
        <ele>16.4</ele>
        <time>2020-09-09T12:13:32Z</time>
      </trkpt>
      <trkpt lat="44.83856" lon="-0.21003">
        <ele>16.3</ele>
        <time>2020-09-09T12:13:33Z</time>
      </trkpt>
      <trkpt lat="44.83857" lon="-0.21001">
        <ele>16.2</ele>
        <time>2020-09-09T12:13:35Z</time>
      </trkpt>
      <trkpt lat="44.83857" lon="-0.20998">
        <ele>16.1</ele>
        <time>2020-09-09T12:13:37Z</time>
      </trkpt>
      <trkpt lat="44.83858" lon="-0.20996">
        <ele>16.1</ele>
        <time>2020-09-09T12:13:38Z</time>
      </trkpt>
      <trkpt lat="44.83858" lon="-0.20994">
        <ele>16</ele>
        <time>2020-09-09T12:13:39Z</time>
      </trkpt>
      <trkpt lat="44.83858" lon="-0.20991">
        <ele>15.9</ele>
        <time>2020-09-09T12:13:41Z</time>
      </trkpt>
      <trkpt lat="44.83857" lon="-0.20989">
        <ele>15.8</ele>
        <time>2020-09-09T12:13:42Z</time>
      </trkpt>
      <trkpt lat="44.83856" lon="-0.20987">
        <ele>15.8</ele>
        <time>2020-09-09T12:13:43Z</time>
      </trkpt>
      <trkpt lat="44.83856" lon="-0.20984">
        <ele>15.7</ele>
        <time>2020-09-09T12:13:45Z</time>
      </trkpt>
      <trkpt lat="44.83855" lon="-0.20982">
        <ele>15.6</ele>
        <time>2020-09-09T12:13:46Z</time>
      </trkpt>
      <trkpt lat="44.83854" lon="-0.2098">
        <ele>15.6</ele>
        <time>2020-09-09T12:13:47Z</time>
      </trkpt>
      <trkpt lat="44.83854" lon="-0.20978">
        <ele>15.5</ele>
        <time>2020-09-09T12:13:48Z</time>
      </trkpt>
      <trkpt lat="44.83853" lon="-0.20976">
        <ele>15.5</ele>
        <time>2020-09-09T12:13:49Z</time>
      </trkpt>
      <trkpt lat="44.83852" lon="-0.20975">
        <ele>15.4</ele>
        <time>2020-09-09T12:13:50Z</time>
      </trkpt>
      <trkpt lat="44.83851" lon="-0.20973">
        <ele>15.4</ele>
        <time>2020-09-09T12:13:52Z</time>
      </trkpt>
      <trkpt lat="44.83851" lon="-0.20972">
        <ele>15.4</ele>
        <time>2020-09-09T12:13:53Z</time>
      </trkpt>
      <trkpt lat="44.8385" lon="-0.2097">
        <ele>15.3</ele>
        <time>2020-09-09T12:13:54Z</time>
      </trkpt>
      <trkpt lat="44.83849" lon="-0.20969">
        <ele>15.2</ele>
        <time>2020-09-09T12:13:55Z</time>
      </trkpt>
      <trkpt lat="44.83849" lon="-0.20967">
        <ele>15.2</ele>
        <time>2020-09-09T12:13:57Z</time>
      </trkpt>
      <trkpt lat="44.83848" lon="-0.20966">
        <ele>15.1</ele>
        <time>2020-09-09T12:13:59Z</time>
      </trkpt>
      <trkpt lat="44.83847" lon="-0.20965">
        <ele>15.1</ele>
        <time>2020-09-09T12:14:00Z</time>
      </trkpt>
      <trkpt lat="44.83847" lon="-0.20964">
        <ele>15</ele>
        <time>2020-09-09T12:14:01Z</time>
      </trkpt>
      <trkpt lat="44.83846" lon="-0.20963">
        <ele>15</ele>
        <time>2020-09-09T12:14:02Z</time>
      </trkpt>
      <trkpt lat="44.83847" lon="-0.2096">
        <ele>14.8</ele>
        <time>2020-09-09T12:14:04Z</time>
      </trkpt>
      <trkpt lat="44.83847" lon="-0.20959">
        <ele>14.8</ele>
        <time>2020-09-09T12:14:05Z</time>
      </trkpt>
      <trkpt lat="44.83847" lon="-0.20958">
        <ele>14.7</ele>
        <time>2020-09-09T12:14:06Z</time>
      </trkpt>
      <trkpt lat="44.83846" lon="-0.20957">
        <ele>14.7</ele>
        <time>2020-09-09T12:14:07Z</time>
      </trkpt>
      <trkpt lat="44.83846" lon="-0.20955">
        <ele>14.6</ele>
        <time>2020-09-09T12:14:08Z</time>
      </trkpt>
      <trkpt lat="44.83846" lon="-0.20954">
        <ele>14.5</ele>
        <time>2020-09-09T12:14:10Z</time>
      </trkpt>
      <trkpt lat="44.83845" lon="-0.20952">
        <ele>14.4</ele>
        <time>2020-09-09T12:14:11Z</time>
      </trkpt>
      <trkpt lat="44.83845" lon="-0.2095">
        <ele>14.3</ele>
        <time>2020-09-09T12:14:13Z</time>
      </trkpt>
      <trkpt lat="44.83846" lon="-0.20947">
        <ele>14.1</ele>
        <time>2020-09-09T12:14:14Z</time>
      </trkpt>
      <trkpt lat="44.83846" lon="-0.20945">
        <ele>14</ele>
        <time>2020-09-09T12:14:15Z</time>
      </trkpt>
      <trkpt lat="44.83845" lon="-0.20943">
        <ele>13.9</ele>
        <time>2020-09-09T12:14:16Z</time>
      </trkpt>
      <trkpt lat="44.83845" lon="-0.20941">
        <ele>13.8</ele>
        <time>2020-09-09T12:14:17Z</time>
      </trkpt>
      <trkpt lat="44.83846" lon="-0.20938">
        <ele>13.7</ele>
        <time>2020-09-09T12:14:18Z</time>
      </trkpt>
      <trkpt lat="44.83845" lon="-0.20936">
        <ele>13.6</ele>
        <time>2020-09-09T12:14:19Z</time>
      </trkpt>
      <trkpt lat="44.83845" lon="-0.20933">
        <ele>13.5</ele>
        <time>2020-09-09T12:14:20Z</time>
      </trkpt>
      <trkpt lat="44.83845" lon="-0.20931">
        <ele>13.4</ele>
        <time>2020-09-09T12:14:21Z</time>
      </trkpt>
      <trkpt lat="44.83844" lon="-0.20927">
        <ele>13.2</ele>
        <time>2020-09-09T12:14:23Z</time>
      </trkpt>
      <trkpt lat="44.83844" lon="-0.20925">
        <ele>13.1</ele>
        <time>2020-09-09T12:14:24Z</time>
      </trkpt>
      <trkpt lat="44.83844" lon="-0.20922">
        <ele>13</ele>
        <time>2020-09-09T12:14:25Z</time>
      </trkpt>
      <trkpt lat="44.83843" lon="-0.20918">
        <ele>12.8</ele>
        <time>2020-09-09T12:14:27Z</time>
      </trkpt>
      <trkpt lat="44.83842" lon="-0.20917">
        <ele>12.8</ele>
        <time>2020-09-09T12:14:29Z</time>
      </trkpt>
      <trkpt lat="44.83842" lon="-0.20914">
        <ele>12.6</ele>
        <time>2020-09-09T12:14:30Z</time>
      </trkpt>
      <trkpt lat="44.83842" lon="-0.2091">
        <ele>12.5</ele>
        <time>2020-09-09T12:14:31Z</time>
      </trkpt>
      <trkpt lat="44.83841" lon="-0.20908">
        <ele>12.4</ele>
        <time>2020-09-09T12:14:32Z</time>
      </trkpt>
      <trkpt lat="44.8384" lon="-0.20907">
        <ele>12.3</ele>
        <time>2020-09-09T12:14:33Z</time>
      </trkpt>
      <trkpt lat="44.83839" lon="-0.20905">
        <ele>12.3</ele>
        <time>2020-09-09T12:14:34Z</time>
      </trkpt>
      <trkpt lat="44.83839" lon="-0.20903">
        <ele>12.2</ele>
        <time>2020-09-09T12:14:35Z</time>
      </trkpt>
      <trkpt lat="44.83838" lon="-0.20901">
        <ele>12.1</ele>
        <time>2020-09-09T12:14:36Z</time>
      </trkpt>
      <trkpt lat="44.83838" lon="-0.20899">
        <ele>12</ele>
        <time>2020-09-09T12:14:37Z</time>
      </trkpt>
      <trkpt lat="44.83837" lon="-0.20899">
        <ele>11.9</ele>
        <time>2020-09-09T12:14:38Z</time>
      </trkpt>
      <trkpt lat="44.83836" lon="-0.20898">
        <ele>11.9</ele>
        <time>2020-09-09T12:14:39Z</time>
      </trkpt>
      <trkpt lat="44.83835" lon="-0.20894">
        <ele>11.7</ele>
        <time>2020-09-09T12:14:41Z</time>
      </trkpt>
      <trkpt lat="44.83835" lon="-0.20892">
        <ele>11.7</ele>
        <time>2020-09-09T12:14:42Z</time>
      </trkpt>
      <trkpt lat="44.83834" lon="-0.20891">
        <ele>11.6</ele>
        <time>2020-09-09T12:14:43Z</time>
      </trkpt>
      <trkpt lat="44.83834" lon="-0.20889">
        <ele>11.6</ele>
        <time>2020-09-09T12:14:44Z</time>
      </trkpt>
      <trkpt lat="44.83833" lon="-0.20886">
        <ele>11.5</ele>
        <time>2020-09-09T12:14:46Z</time>
      </trkpt>
      <trkpt lat="44.83833" lon="-0.20885">
        <ele>11.5</ele>
        <time>2020-09-09T12:14:47Z</time>
      </trkpt>
      <trkpt lat="44.83832" lon="-0.20885">
        <ele>11.5</ele>
        <time>2020-09-09T12:14:49Z</time>
      </trkpt>
      <trkpt lat="44.83832" lon="-0.20884">
        <ele>11.5</ele>
        <time>2020-09-09T12:14:50Z</time>
      </trkpt>
      <trkpt lat="44.83831" lon="-0.20881">
        <ele>11.4</ele>
        <time>2020-09-09T12:14:52Z</time>
      </trkpt>
      <trkpt lat="44.83831" lon="-0.2088">
        <ele>11.4</ele>
        <time>2020-09-09T12:14:53Z</time>
      </trkpt>
      <trkpt lat="44.83833" lon="-0.20879">
        <ele>11.3</ele>
        <time>2020-09-09T12:14:55Z</time>
      </trkpt>
      <trkpt lat="44.83833" lon="-0.20878">
        <ele>11.3</ele>
        <time>2020-09-09T12:14:56Z</time>
      </trkpt>
      <trkpt lat="44.83834" lon="-0.20876">
        <ele>11.2</ele>
        <time>2020-09-09T12:14:57Z</time>
      </trkpt>
      <trkpt lat="44.83834" lon="-0.20875">
        <ele>11.2</ele>
        <time>2020-09-09T12:14:58Z</time>
      </trkpt>
      <trkpt lat="44.83836" lon="-0.20872">
        <ele>11.1</ele>
        <time>2020-09-09T12:15:00Z</time>
      </trkpt>
      <trkpt lat="44.83837" lon="-0.20871">
        <ele>11.1</ele>
        <time>2020-09-09T12:15:01Z</time>
      </trkpt>
      <trkpt lat="44.8384" lon="-0.2087">
        <ele>11.5</ele>
        <time>2020-09-09T12:15:03Z</time>
      </trkpt>
      <trkpt lat="44.83842" lon="-0.20869">
        <ele>11.8</ele>
        <time>2020-09-09T12:15:05Z</time>
      </trkpt>
      <trkpt lat="44.83844" lon="-0.20869">
        <ele>11.9</ele>
        <time>2020-09-09T12:15:06Z</time>
      </trkpt>
      <trkpt lat="44.83847" lon="-0.20869">
        <ele>12.1</ele>
        <time>2020-09-09T12:15:08Z</time>
      </trkpt>
      <trkpt lat="44.83848" lon="-0.2087">
        <ele>12.1</ele>
        <time>2020-09-09T12:15:09Z</time>
      </trkpt>
      <trkpt lat="44.8385" lon="-0.2087">
        <ele>12.2</ele>
        <time>2020-09-09T12:15:11Z</time>
      </trkpt>
      <trkpt lat="44.83851" lon="-0.2087">
        <ele>12.3</ele>
        <time>2020-09-09T12:15:12Z</time>
      </trkpt>
      <trkpt lat="44.83853" lon="-0.2087">
        <ele>12.3</ele>
        <time>2020-09-09T12:15:13Z</time>
      </trkpt>
      <trkpt lat="44.83855" lon="-0.2087">
        <ele>12.3</ele>
        <time>2020-09-09T12:15:15Z</time>
      </trkpt>
      <trkpt lat="44.83857" lon="-0.2087">
        <ele>12.3</ele>
        <time>2020-09-09T12:15:16Z</time>
      </trkpt>
      <trkpt lat="44.83859" lon="-0.2087">
        <ele>12.3</ele>
        <time>2020-09-09T12:15:18Z</time>
      </trkpt>
      <trkpt lat="44.83862" lon="-0.2087">
        <ele>12.2</ele>
        <time>2020-09-09T12:15:19Z</time>
      </trkpt>
      <trkpt lat="44.83865" lon="-0.20869">
        <ele>12.2</ele>
        <time>2020-09-09T12:15:20Z</time>
      </trkpt>
      <trkpt lat="44.83868" lon="-0.20868">
        <ele>12.1</ele>
        <time>2020-09-09T12:15:21Z</time>
      </trkpt>
      <trkpt lat="44.83869" lon="-0.20868">
        <ele>12.1</ele>
        <time>2020-09-09T12:15:22Z</time>
      </trkpt>
      <trkpt lat="44.83872" lon="-0.20868">
        <ele>12</ele>
        <time>2020-09-09T12:15:24Z</time>
      </trkpt>
      <trkpt lat="44.83873" lon="-0.20867">
        <ele>12</ele>
        <time>2020-09-09T12:15:25Z</time>
      </trkpt>
      <trkpt lat="44.83875" lon="-0.20867">
        <ele>12</ele>
        <time>2020-09-09T12:15:27Z</time>
      </trkpt>
      <trkpt lat="44.83877" lon="-0.20867">
        <ele>12</ele>
        <time>2020-09-09T12:15:28Z</time>
      </trkpt>
      <trkpt lat="44.83879" lon="-0.20867">
        <ele>12</ele>
        <time>2020-09-09T12:15:29Z</time>
      </trkpt>
      <trkpt lat="44.8388" lon="-0.20867">
        <ele>12</ele>
        <time>2020-09-09T12:15:30Z</time>
      </trkpt>
      <trkpt lat="44.83882" lon="-0.20867">
        <ele>12</ele>
        <time>2020-09-09T12:15:31Z</time>
      </trkpt>
      <trkpt lat="44.83884" lon="-0.20867">
        <ele>12.1</ele>
        <time>2020-09-09T12:15:33Z</time>
      </trkpt>
      <trkpt lat="44.83886" lon="-0.20867">
        <ele>12.1</ele>
        <time>2020-09-09T12:15:35Z</time>
      </trkpt>
      <trkpt lat="44.83888" lon="-0.20866">
        <ele>12.1</ele>
        <time>2020-09-09T12:15:36Z</time>
      </trkpt>
      <trkpt lat="44.83889" lon="-0.20866">
        <ele>12.1</ele>
        <time>2020-09-09T12:15:37Z</time>
      </trkpt>
      <trkpt lat="44.8389" lon="-0.20866">
        <ele>12.1</ele>
        <time>2020-09-09T12:15:38Z</time>
      </trkpt>
      <trkpt lat="44.83892" lon="-0.20866">
        <ele>12.2</ele>
        <time>2020-09-09T12:15:39Z</time>
      </trkpt>
      <trkpt lat="44.83893" lon="-0.20866">
        <ele>12.2</ele>
        <time>2020-09-09T12:15:40Z</time>
      </trkpt>
      <trkpt lat="44.83894" lon="-0.20866">
        <ele>12.2</ele>
        <time>2020-09-09T12:15:41Z</time>
      </trkpt>
      <trkpt lat="44.83895" lon="-0.20866">
        <ele>12.2</ele>
        <time>2020-09-09T12:15:42Z</time>
      </trkpt>
      <trkpt lat="44.83897" lon="-0.20865">
        <ele>12.2</ele>
        <time>2020-09-09T12:15:43Z</time>
      </trkpt>
      <trkpt lat="44.839" lon="-0.20866">
        <ele>12.2</ele>
        <time>2020-09-09T12:15:45Z</time>
      </trkpt>
      <trkpt lat="44.83901" lon="-0.20865">
        <ele>12.2</ele>
        <time>2020-09-09T12:15:46Z</time>
      </trkpt>
      <trkpt lat="44.83902" lon="-0.20866">
        <ele>12.2</ele>
        <time>2020-09-09T12:15:48Z</time>
      </trkpt>
      <trkpt lat="44.83903" lon="-0.20865">
        <ele>12.2</ele>
        <time>2020-09-09T12:15:49Z</time>
      </trkpt>
      <trkpt lat="44.83904" lon="-0.20865">
        <ele>12.2</ele>
        <time>2020-09-09T12:15:50Z</time>
      </trkpt>
      <trkpt lat="44.83905" lon="-0.20865">
        <ele>12.2</ele>
        <time>2020-09-09T12:15:51Z</time>
      </trkpt>
      <trkpt lat="44.83905" lon="-0.20865">
        <ele>12.2</ele>
        <time>2020-09-09T12:15:52Z</time>
      </trkpt>
      <trkpt lat="44.83906" lon="-0.20865">
        <ele>12.1</ele>
        <time>2020-09-09T12:15:53Z</time>
      </trkpt>
      <trkpt lat="44.83907" lon="-0.20865">
        <ele>12.1</ele>
        <time>2020-09-09T12:15:54Z</time>
      </trkpt>
      <trkpt lat="44.83908" lon="-0.20865">
        <ele>12.1</ele>
        <time>2020-09-09T12:15:55Z</time>
      </trkpt>
      <trkpt lat="44.8391" lon="-0.20864">
        <ele>12.1</ele>
        <time>2020-09-09T12:15:56Z</time>
      </trkpt>
      <trkpt lat="44.83911" lon="-0.20864">
        <ele>12.1</ele>
        <time>2020-09-09T12:15:57Z</time>
      </trkpt>
      <trkpt lat="44.83912" lon="-0.20864">
        <ele>12.1</ele>
        <time>2020-09-09T12:15:59Z</time>
      </trkpt>
      <trkpt lat="44.83913" lon="-0.20864">
        <ele>12.1</ele>
        <time>2020-09-09T12:16:00Z</time>
      </trkpt>
      <trkpt lat="44.83918" lon="-0.20864">
        <ele>12.1</ele>
        <time>2020-09-09T12:16:02Z</time>
      </trkpt>
      <trkpt lat="44.83919" lon="-0.20864">
        <ele>12.1</ele>
        <time>2020-09-09T12:16:03Z</time>
      </trkpt>
      <trkpt lat="44.83921" lon="-0.20864">
        <ele>12.1</ele>
        <time>2020-09-09T12:16:04Z</time>
      </trkpt>
      <trkpt lat="44.83923" lon="-0.20864">
        <ele>12.1</ele>
        <time>2020-09-09T12:16:06Z</time>
      </trkpt>
      <trkpt lat="44.83925" lon="-0.20863">
        <ele>12.1</ele>
        <time>2020-09-09T12:16:07Z</time>
      </trkpt>
      <trkpt lat="44.83927" lon="-0.20862">
        <ele>12.1</ele>
        <time>2020-09-09T12:16:08Z</time>
      </trkpt>
      <trkpt lat="44.83928" lon="-0.20862">
        <ele>12.1</ele>
        <time>2020-09-09T12:16:10Z</time>
      </trkpt>
      <trkpt lat="44.8393" lon="-0.20862">
        <ele>12.1</ele>
        <time>2020-09-09T12:16:11Z</time>
      </trkpt>
      <trkpt lat="44.83931" lon="-0.20862">
        <ele>12.1</ele>
        <time>2020-09-09T12:16:12Z</time>
      </trkpt>
      <trkpt lat="44.83932" lon="-0.20862">
        <ele>12.2</ele>
        <time>2020-09-09T12:16:13Z</time>
      </trkpt>
      <trkpt lat="44.83933" lon="-0.20862">
        <ele>12.2</ele>
        <time>2020-09-09T12:16:14Z</time>
      </trkpt>
      <trkpt lat="44.83935" lon="-0.20861">
        <ele>12.2</ele>
        <time>2020-09-09T12:16:15Z</time>
      </trkpt>
      <trkpt lat="44.83936" lon="-0.20861">
        <ele>12.2</ele>
        <time>2020-09-09T12:16:17Z</time>
      </trkpt>
      <trkpt lat="44.83937" lon="-0.20861">
        <ele>12.2</ele>
        <time>2020-09-09T12:16:18Z</time>
      </trkpt>
      <trkpt lat="44.83938" lon="-0.20861">
        <ele>12.2</ele>
        <time>2020-09-09T12:16:20Z</time>
      </trkpt>
      <trkpt lat="44.83938" lon="-0.2086">
        <ele>12.2</ele>
        <time>2020-09-09T12:16:21Z</time>
      </trkpt>
      <trkpt lat="44.83939" lon="-0.2086">
        <ele>12.2</ele>
        <time>2020-09-09T12:16:22Z</time>
      </trkpt>
      <trkpt lat="44.83939" lon="-0.20859">
        <ele>12.2</ele>
        <time>2020-09-09T12:16:23Z</time>
      </trkpt>
      <trkpt lat="44.8394" lon="-0.20858">
        <ele>12.2</ele>
        <time>2020-09-09T12:16:24Z</time>
      </trkpt>
      <trkpt lat="44.83941" lon="-0.20857">
        <ele>12.3</ele>
        <time>2020-09-09T12:16:26Z</time>
      </trkpt>
      <trkpt lat="44.83942" lon="-0.20856">
        <ele>12.3</ele>
        <time>2020-09-09T12:16:27Z</time>
      </trkpt>
      <trkpt lat="44.83943" lon="-0.20854">
        <ele>12.3</ele>
        <time>2020-09-09T12:16:29Z</time>
      </trkpt>
      <trkpt lat="44.83944" lon="-0.20854">
        <ele>12.3</ele>
        <time>2020-09-09T12:16:30Z</time>
      </trkpt>
      <trkpt lat="44.83946" lon="-0.20852">
        <ele>12.3</ele>
        <time>2020-09-09T12:16:32Z</time>
      </trkpt>
      <trkpt lat="44.83947" lon="-0.2085">
        <ele>12.3</ele>
        <time>2020-09-09T12:16:34Z</time>
      </trkpt>
      <trkpt lat="44.83948" lon="-0.2085">
        <ele>12.3</ele>
        <time>2020-09-09T12:16:35Z</time>
      </trkpt>
      <trkpt lat="44.83948" lon="-0.2085">
        <ele>12.3</ele>
        <time>2020-09-09T12:16:36Z</time>
      </trkpt>
      <trkpt lat="44.83949" lon="-0.20849">
        <ele>12.3</ele>
        <time>2020-09-09T12:16:37Z</time>
      </trkpt>
      <trkpt lat="44.8395" lon="-0.20849">
        <ele>12.3</ele>
        <time>2020-09-09T12:16:38Z</time>
      </trkpt>
      <trkpt lat="44.83951" lon="-0.20848">
        <ele>12.3</ele>
        <time>2020-09-09T12:16:39Z</time>
      </trkpt>
      <trkpt lat="44.83952" lon="-0.20849">
        <ele>12.3</ele>
        <time>2020-09-09T12:16:40Z</time>
      </trkpt>
      <trkpt lat="44.83953" lon="-0.20848">
        <ele>12.3</ele>
        <time>2020-09-09T12:16:41Z</time>
      </trkpt>
      <trkpt lat="44.83954" lon="-0.20847">
        <ele>12.3</ele>
        <time>2020-09-09T12:16:42Z</time>
      </trkpt>
      <trkpt lat="44.83956" lon="-0.20845">
        <ele>12.3</ele>
        <time>2020-09-09T12:16:44Z</time>
      </trkpt>
      <trkpt lat="44.83957" lon="-0.20846">
        <ele>12.2</ele>
        <time>2020-09-09T12:16:45Z</time>
      </trkpt>
      <trkpt lat="44.83958" lon="-0.20845">
        <ele>12.2</ele>
        <time>2020-09-09T12:16:46Z</time>
      </trkpt>
      <trkpt lat="44.83959" lon="-0.20844">
        <ele>12.2</ele>
        <time>2020-09-09T12:16:47Z</time>
      </trkpt>
      <trkpt lat="44.8396" lon="-0.20844">
        <ele>12.2</ele>
        <time>2020-09-09T12:16:48Z</time>
      </trkpt>
      <trkpt lat="44.83962" lon="-0.20843">
        <ele>12.2</ele>
        <time>2020-09-09T12:16:49Z</time>
      </trkpt>
      <trkpt lat="44.83963" lon="-0.20843">
        <ele>12.1</ele>
        <time>2020-09-09T12:16:50Z</time>
      </trkpt>
      <trkpt lat="44.83965" lon="-0.20842">
        <ele>12.1</ele>
        <time>2020-09-09T12:16:52Z</time>
      </trkpt>
      <trkpt lat="44.83966" lon="-0.20841">
        <ele>12.1</ele>
        <time>2020-09-09T12:16:53Z</time>
      </trkpt>
      <trkpt lat="44.83968" lon="-0.2084">
        <ele>12.1</ele>
        <time>2020-09-09T12:16:54Z</time>
      </trkpt>
      <trkpt lat="44.83971" lon="-0.20839">
        <ele>12.1</ele>
        <time>2020-09-09T12:16:55Z</time>
      </trkpt>
      <trkpt lat="44.83973" lon="-0.20839">
        <ele>12.1</ele>
        <time>2020-09-09T12:16:56Z</time>
      </trkpt>
      <trkpt lat="44.83976" lon="-0.20839">
        <ele>12.1</ele>
        <time>2020-09-09T12:16:57Z</time>
      </trkpt>
      <trkpt lat="44.83977" lon="-0.20839">
        <ele>12.2</ele>
        <time>2020-09-09T12:16:58Z</time>
      </trkpt>
      <trkpt lat="44.8398" lon="-0.20839">
        <ele>12.2</ele>
        <time>2020-09-09T12:16:59Z</time>
      </trkpt>
      <trkpt lat="44.83981" lon="-0.20839">
        <ele>12.2</ele>
        <time>2020-09-09T12:17:00Z</time>
      </trkpt>
      <trkpt lat="44.83984" lon="-0.20839">
        <ele>12.2</ele>
        <time>2020-09-09T12:17:02Z</time>
      </trkpt>
      <trkpt lat="44.83985" lon="-0.20839">
        <ele>12.2</ele>
        <time>2020-09-09T12:17:03Z</time>
      </trkpt>
      <trkpt lat="44.83986" lon="-0.20839">
        <ele>12.2</ele>
        <time>2020-09-09T12:17:04Z</time>
      </trkpt>
      <trkpt lat="44.8399" lon="-0.20838">
        <ele>12.2</ele>
        <time>2020-09-09T12:17:06Z</time>
      </trkpt>
      <trkpt lat="44.83991" lon="-0.20839">
        <ele>12.2</ele>
        <time>2020-09-09T12:17:07Z</time>
      </trkpt>
      <trkpt lat="44.83993" lon="-0.20839">
        <ele>12.2</ele>
        <time>2020-09-09T12:17:08Z</time>
      </trkpt>
      <trkpt lat="44.83994" lon="-0.2084">
        <ele>12.2</ele>
        <time>2020-09-09T12:17:09Z</time>
      </trkpt>
      <trkpt lat="44.83995" lon="-0.2084">
        <ele>12.2</ele>
        <time>2020-09-09T12:17:11Z</time>
      </trkpt>
      <trkpt lat="44.83996" lon="-0.2084">
        <ele>12.2</ele>
        <time>2020-09-09T12:17:12Z</time>
      </trkpt>
      <trkpt lat="44.83997" lon="-0.2084">
        <ele>12.2</ele>
        <time>2020-09-09T12:17:13Z</time>
      </trkpt>
      <trkpt lat="44.83998" lon="-0.2084">
        <ele>12.2</ele>
        <time>2020-09-09T12:17:14Z</time>
      </trkpt>
      <trkpt lat="44.83999" lon="-0.20839">
        <ele>12.1</ele>
        <time>2020-09-09T12:17:15Z</time>
      </trkpt>
      <trkpt lat="44.84" lon="-0.20839">
        <ele>12.1</ele>
        <time>2020-09-09T12:17:16Z</time>
      </trkpt>
      <trkpt lat="44.84001" lon="-0.20839">
        <ele>12.1</ele>
        <time>2020-09-09T12:17:17Z</time>
      </trkpt>
      <trkpt lat="44.84003" lon="-0.20839">
        <ele>12.1</ele>
        <time>2020-09-09T12:17:18Z</time>
      </trkpt>
      <trkpt lat="44.84004" lon="-0.2084">
        <ele>12.1</ele>
        <time>2020-09-09T12:17:19Z</time>
      </trkpt>
      <trkpt lat="44.84005" lon="-0.2084">
        <ele>12.1</ele>
        <time>2020-09-09T12:17:20Z</time>
      </trkpt>
      <trkpt lat="44.84005" lon="-0.2084">
        <ele>12</ele>
        <time>2020-09-09T12:17:22Z</time>
      </trkpt>
      <trkpt lat="44.84006" lon="-0.20839">
        <ele>12</ele>
        <time>2020-09-09T12:17:23Z</time>
      </trkpt>
      <trkpt lat="44.84007" lon="-0.20839">
        <ele>12</ele>
        <time>2020-09-09T12:17:24Z</time>
      </trkpt>
      <trkpt lat="44.84007" lon="-0.20839">
        <ele>12</ele>
        <time>2020-09-09T12:17:26Z</time>
      </trkpt>
      <trkpt lat="44.84008" lon="-0.2084">
        <ele>11.9</ele>
        <time>2020-09-09T12:17:27Z</time>
      </trkpt>
      <trkpt lat="44.84009" lon="-0.2084">
        <ele>11.9</ele>
        <time>2020-09-09T12:17:28Z</time>
      </trkpt>
      <trkpt lat="44.84011" lon="-0.2084">
        <ele>11.8</ele>
        <time>2020-09-09T12:17:29Z</time>
      </trkpt>
      <trkpt lat="44.84012" lon="-0.2084">
        <ele>11.8</ele>
        <time>2020-09-09T12:17:31Z</time>
      </trkpt>
      <trkpt lat="44.84013" lon="-0.2084">
        <ele>11.8</ele>
        <time>2020-09-09T12:17:32Z</time>
      </trkpt>
      <trkpt lat="44.84014" lon="-0.2084">
        <ele>11.7</ele>
        <time>2020-09-09T12:17:33Z</time>
      </trkpt>
      <trkpt lat="44.84015" lon="-0.2084">
        <ele>11.7</ele>
        <time>2020-09-09T12:17:34Z</time>
      </trkpt>
      <trkpt lat="44.84016" lon="-0.2084">
        <ele>11.7</ele>
        <time>2020-09-09T12:17:35Z</time>
      </trkpt>
      <trkpt lat="44.84016" lon="-0.2084">
        <ele>11.7</ele>
        <time>2020-09-09T12:17:36Z</time>
      </trkpt>
      <trkpt lat="44.84018" lon="-0.2084">
        <ele>11.7</ele>
        <time>2020-09-09T12:17:38Z</time>
      </trkpt>
      <trkpt lat="44.84019" lon="-0.20841">
        <ele>11.7</ele>
        <time>2020-09-09T12:17:39Z</time>
      </trkpt>
      <trkpt lat="44.8402" lon="-0.20841">
        <ele>11.6</ele>
        <time>2020-09-09T12:17:41Z</time>
      </trkpt>
      <trkpt lat="44.84022" lon="-0.20842">
        <ele>11.6</ele>
        <time>2020-09-09T12:17:42Z</time>
      </trkpt>
      <trkpt lat="44.84023" lon="-0.20843">
        <ele>11.5</ele>
        <time>2020-09-09T12:17:43Z</time>
      </trkpt>
      <trkpt lat="44.84024" lon="-0.20843">
        <ele>11.5</ele>
        <time>2020-09-09T12:17:44Z</time>
      </trkpt>
      <trkpt lat="44.84026" lon="-0.20844">
        <ele>11.5</ele>
        <time>2020-09-09T12:17:45Z</time>
      </trkpt>
      <trkpt lat="44.84027" lon="-0.20845">
        <ele>11.4</ele>
        <time>2020-09-09T12:17:46Z</time>
      </trkpt>
      <trkpt lat="44.84028" lon="-0.20845">
        <ele>11.4</ele>
        <time>2020-09-09T12:17:47Z</time>
      </trkpt>
      <trkpt lat="44.84029" lon="-0.20846">
        <ele>11.4</ele>
        <time>2020-09-09T12:17:49Z</time>
      </trkpt>
      <trkpt lat="44.8403" lon="-0.20847">
        <ele>11.3</ele>
        <time>2020-09-09T12:17:50Z</time>
      </trkpt>
      <trkpt lat="44.84031" lon="-0.20848">
        <ele>11.3</ele>
        <time>2020-09-09T12:17:52Z</time>
      </trkpt>
      <trkpt lat="44.84032" lon="-0.20849">
        <ele>11.2</ele>
        <time>2020-09-09T12:17:53Z</time>
      </trkpt>
      <trkpt lat="44.84033" lon="-0.20849">
        <ele>11.2</ele>
        <time>2020-09-09T12:17:54Z</time>
      </trkpt>
      <trkpt lat="44.84035" lon="-0.2085">
        <ele>11.2</ele>
        <time>2020-09-09T12:17:55Z</time>
      </trkpt>
      <trkpt lat="44.84036" lon="-0.2085">
        <ele>11.1</ele>
        <time>2020-09-09T12:17:56Z</time>
      </trkpt>
      <trkpt lat="44.84038" lon="-0.20851">
        <ele>11.1</ele>
        <time>2020-09-09T12:17:58Z</time>
      </trkpt>
      <trkpt lat="44.84039" lon="-0.20851">
        <ele>11.1</ele>
        <time>2020-09-09T12:17:59Z</time>
      </trkpt>
      <trkpt lat="44.84041" lon="-0.20851">
        <ele>11.1</ele>
        <time>2020-09-09T12:18:01Z</time>
      </trkpt>
      <trkpt lat="44.84043" lon="-0.20851">
        <ele>11</ele>
        <time>2020-09-09T12:18:02Z</time>
      </trkpt>
      <trkpt lat="44.84044" lon="-0.20851">
        <ele>11</ele>
        <time>2020-09-09T12:18:03Z</time>
      </trkpt>
      <trkpt lat="44.84045" lon="-0.20851">
        <ele>10.9</ele>
        <time>2020-09-09T12:18:04Z</time>
      </trkpt>
      <trkpt lat="44.84046" lon="-0.20851">
        <ele>10.9</ele>
        <time>2020-09-09T12:18:05Z</time>
      </trkpt>
      <trkpt lat="44.84047" lon="-0.2085">
        <ele>10.9</ele>
        <time>2020-09-09T12:18:07Z</time>
      </trkpt>
      <trkpt lat="44.84048" lon="-0.2085">
        <ele>10.9</ele>
        <time>2020-09-09T12:18:08Z</time>
      </trkpt>
      <trkpt lat="44.84049" lon="-0.20849">
        <ele>10.9</ele>
        <time>2020-09-09T12:18:10Z</time>
      </trkpt>
      <trkpt lat="44.8405" lon="-0.20849">
        <ele>10.9</ele>
        <time>2020-09-09T12:18:11Z</time>
      </trkpt>
      <trkpt lat="44.84051" lon="-0.20849">
        <ele>10.8</ele>
        <time>2020-09-09T12:18:12Z</time>
      </trkpt>
      <trkpt lat="44.84053" lon="-0.20848">
        <ele>10.8</ele>
        <time>2020-09-09T12:18:13Z</time>
      </trkpt>
      <trkpt lat="44.84054" lon="-0.20848">
        <ele>10.7</ele>
        <time>2020-09-09T12:18:14Z</time>
      </trkpt>
      <trkpt lat="44.84055" lon="-0.20848">
        <ele>10.7</ele>
        <time>2020-09-09T12:18:15Z</time>
      </trkpt>
      <trkpt lat="44.84057" lon="-0.20848">
        <ele>10.6</ele>
        <time>2020-09-09T12:18:16Z</time>
      </trkpt>
      <trkpt lat="44.84059" lon="-0.20848">
        <ele>10.6</ele>
        <time>2020-09-09T12:18:17Z</time>
      </trkpt>
      <trkpt lat="44.8406" lon="-0.20848">
        <ele>10.6</ele>
        <time>2020-09-09T12:18:18Z</time>
      </trkpt>
      <trkpt lat="44.84062" lon="-0.20847">
        <ele>10.6</ele>
        <time>2020-09-09T12:18:20Z</time>
      </trkpt>
      <trkpt lat="44.84062" lon="-0.20847">
        <ele>10.6</ele>
        <time>2020-09-09T12:18:21Z</time>
      </trkpt>
      <trkpt lat="44.84064" lon="-0.20847">
        <ele>10.5</ele>
        <time>2020-09-09T12:18:22Z</time>
      </trkpt>
      <trkpt lat="44.84065" lon="-0.20846">
        <ele>10.5</ele>
        <time>2020-09-09T12:18:24Z</time>
      </trkpt>
      <trkpt lat="44.84066" lon="-0.20846">
        <ele>10.4</ele>
        <time>2020-09-09T12:18:25Z</time>
      </trkpt>
      <trkpt lat="44.84067" lon="-0.20845">
        <ele>10.4</ele>
        <time>2020-09-09T12:18:26Z</time>
      </trkpt>
      <trkpt lat="44.84069" lon="-0.20845">
        <ele>10.4</ele>
        <time>2020-09-09T12:18:27Z</time>
      </trkpt>
      <trkpt lat="44.84071" lon="-0.20844">
        <ele>10.4</ele>
        <time>2020-09-09T12:18:28Z</time>
      </trkpt>
      <trkpt lat="44.84073" lon="-0.20844">
        <ele>10.3</ele>
        <time>2020-09-09T12:18:30Z</time>
      </trkpt>
      <trkpt lat="44.84075" lon="-0.20843">
        <ele>10.2</ele>
        <time>2020-09-09T12:18:32Z</time>
      </trkpt>
      <trkpt lat="44.84075" lon="-0.20843">
        <ele>10.2</ele>
        <time>2020-09-09T12:18:34Z</time>
      </trkpt>
      <trkpt lat="44.84076" lon="-0.20843">
        <ele>10.2</ele>
        <time>2020-09-09T12:18:35Z</time>
      </trkpt>
      <trkpt lat="44.84078" lon="-0.20842">
        <ele>10.1</ele>
        <time>2020-09-09T12:18:36Z</time>
      </trkpt>
      <trkpt lat="44.84079" lon="-0.20842">
        <ele>10.1</ele>
        <time>2020-09-09T12:18:38Z</time>
      </trkpt>
      <trkpt lat="44.8408" lon="-0.20841">
        <ele>10.1</ele>
        <time>2020-09-09T12:18:39Z</time>
      </trkpt>
      <trkpt lat="44.84081" lon="-0.20841">
        <ele>10.1</ele>
        <time>2020-09-09T12:18:40Z</time>
      </trkpt>
      <trkpt lat="44.84083" lon="-0.20841">
        <ele>10.1</ele>
        <time>2020-09-09T12:18:41Z</time>
      </trkpt>
      <trkpt lat="44.84084" lon="-0.2084">
        <ele>10.1</ele>
        <time>2020-09-09T12:18:42Z</time>
      </trkpt>
      <trkpt lat="44.84085" lon="-0.2084">
        <ele>10</ele>
        <time>2020-09-09T12:18:43Z</time>
      </trkpt>
      <trkpt lat="44.84086" lon="-0.20839">
        <ele>10</ele>
        <time>2020-09-09T12:18:44Z</time>
      </trkpt>
      <trkpt lat="44.84087" lon="-0.20839">
        <ele>9.9</ele>
        <time>2020-09-09T12:18:45Z</time>
      </trkpt>
      <trkpt lat="44.84088" lon="-0.20838">
        <ele>9.9</ele>
        <time>2020-09-09T12:18:46Z</time>
      </trkpt>
      <trkpt lat="44.8409" lon="-0.20836">
        <ele>9.8</ele>
        <time>2020-09-09T12:18:48Z</time>
      </trkpt>
      <trkpt lat="44.84091" lon="-0.20836">
        <ele>9.8</ele>
        <time>2020-09-09T12:18:49Z</time>
      </trkpt>
      <trkpt lat="44.84092" lon="-0.20835">
        <ele>9.8</ele>
        <time>2020-09-09T12:18:50Z</time>
      </trkpt>
      <trkpt lat="44.84095" lon="-0.20833">
        <ele>9.7</ele>
        <time>2020-09-09T12:18:52Z</time>
      </trkpt>
      <trkpt lat="44.84096" lon="-0.20833">
        <ele>9.7</ele>
        <time>2020-09-09T12:18:53Z</time>
      </trkpt>
      <trkpt lat="44.84097" lon="-0.20832">
        <ele>9.7</ele>
        <time>2020-09-09T12:18:54Z</time>
      </trkpt>
      <trkpt lat="44.84097" lon="-0.20831">
        <ele>9.7</ele>
        <time>2020-09-09T12:18:55Z</time>
      </trkpt>
      <trkpt lat="44.84098" lon="-0.2083">
        <ele>9.7</ele>
        <time>2020-09-09T12:18:56Z</time>
      </trkpt>
      <trkpt lat="44.841" lon="-0.20828">
        <ele>9.6</ele>
        <time>2020-09-09T12:18:58Z</time>
      </trkpt>
      <trkpt lat="44.84101" lon="-0.20826">
        <ele>9.6</ele>
        <time>2020-09-09T12:19:00Z</time>
      </trkpt>
      <trkpt lat="44.84102" lon="-0.20825">
        <ele>9.6</ele>
        <time>2020-09-09T12:19:01Z</time>
      </trkpt>
      <trkpt lat="44.84103" lon="-0.20824">
        <ele>9.5</ele>
        <time>2020-09-09T12:19:02Z</time>
      </trkpt>
      <trkpt lat="44.84104" lon="-0.20823">
        <ele>9.5</ele>
        <time>2020-09-09T12:19:03Z</time>
      </trkpt>
      <trkpt lat="44.84105" lon="-0.20822">
        <ele>9.4</ele>
        <time>2020-09-09T12:19:05Z</time>
      </trkpt>
      <trkpt lat="44.84106" lon="-0.20821">
        <ele>9.4</ele>
        <time>2020-09-09T12:19:06Z</time>
      </trkpt>
      <trkpt lat="44.84107" lon="-0.2082">
        <ele>9.4</ele>
        <time>2020-09-09T12:19:07Z</time>
      </trkpt>
      <trkpt lat="44.84108" lon="-0.20818">
        <ele>9.4</ele>
        <time>2020-09-09T12:19:08Z</time>
      </trkpt>
      <trkpt lat="44.84109" lon="-0.20816">
        <ele>9.3</ele>
        <time>2020-09-09T12:19:10Z</time>
      </trkpt>
      <trkpt lat="44.8411" lon="-0.20815">
        <ele>9.3</ele>
        <time>2020-09-09T12:19:11Z</time>
      </trkpt>
      <trkpt lat="44.84113" lon="-0.20812">
        <ele>9.2</ele>
        <time>2020-09-09T12:19:13Z</time>
      </trkpt>
      <trkpt lat="44.84114" lon="-0.20811">
        <ele>9.2</ele>
        <time>2020-09-09T12:19:14Z</time>
      </trkpt>
      <trkpt lat="44.84114" lon="-0.2081">
        <ele>9.1</ele>
        <time>2020-09-09T12:19:15Z</time>
      </trkpt>
      <trkpt lat="44.84116" lon="-0.20808">
        <ele>9.1</ele>
        <time>2020-09-09T12:19:17Z</time>
      </trkpt>
      <trkpt lat="44.84118" lon="-0.20806">
        <ele>9</ele>
        <time>2020-09-09T12:19:18Z</time>
      </trkpt>
      <trkpt lat="44.84118" lon="-0.20806">
        <ele>9</ele>
        <time>2020-09-09T12:19:19Z</time>
      </trkpt>
      <trkpt lat="44.84119" lon="-0.20804">
        <ele>8.9</ele>
        <time>2020-09-09T12:19:21Z</time>
      </trkpt>
      <trkpt lat="44.8412" lon="-0.20803">
        <ele>8.9</ele>
        <time>2020-09-09T12:19:22Z</time>
      </trkpt>
      <trkpt lat="44.84122" lon="-0.208">
        <ele>8.8</ele>
        <time>2020-09-09T12:19:24Z</time>
      </trkpt>
      <trkpt lat="44.84123" lon="-0.20798">
        <ele>8.8</ele>
        <time>2020-09-09T12:19:26Z</time>
      </trkpt>
      <trkpt lat="44.84124" lon="-0.20798">
        <ele>8.8</ele>
        <time>2020-09-09T12:19:27Z</time>
      </trkpt>
      <trkpt lat="44.84125" lon="-0.20796">
        <ele>8.7</ele>
        <time>2020-09-09T12:19:29Z</time>
      </trkpt>
      <trkpt lat="44.84126" lon="-0.20795">
        <ele>8.7</ele>
        <time>2020-09-09T12:19:30Z</time>
      </trkpt>
      <trkpt lat="44.84127" lon="-0.20794">
        <ele>8.7</ele>
        <time>2020-09-09T12:19:32Z</time>
      </trkpt>
      <trkpt lat="44.84128" lon="-0.20792">
        <ele>8.6</ele>
        <time>2020-09-09T12:19:33Z</time>
      </trkpt>
      <trkpt lat="44.84128" lon="-0.20791">
        <ele>8.6</ele>
        <time>2020-09-09T12:19:34Z</time>
      </trkpt>
      <trkpt lat="44.84129" lon="-0.2079">
        <ele>8.6</ele>
        <time>2020-09-09T12:19:35Z</time>
      </trkpt>
      <trkpt lat="44.8413" lon="-0.20788">
        <ele>8.5</ele>
        <time>2020-09-09T12:19:37Z</time>
      </trkpt>
      <trkpt lat="44.84131" lon="-0.20786">
        <ele>8.5</ele>
        <time>2020-09-09T12:19:38Z</time>
      </trkpt>
      <trkpt lat="44.84132" lon="-0.20785">
        <ele>8.5</ele>
        <time>2020-09-09T12:19:39Z</time>
      </trkpt>
      <trkpt lat="44.84132" lon="-0.20784">
        <ele>8.5</ele>
        <time>2020-09-09T12:19:40Z</time>
      </trkpt>
      <trkpt lat="44.84134" lon="-0.20783">
        <ele>8.4</ele>
        <time>2020-09-09T12:19:41Z</time>
      </trkpt>
      <trkpt lat="44.84135" lon="-0.20782">
        <ele>8.4</ele>
        <time>2020-09-09T12:19:43Z</time>
      </trkpt>
      <trkpt lat="44.84136" lon="-0.20782">
        <ele>8.3</ele>
        <time>2020-09-09T12:19:44Z</time>
      </trkpt>
      <trkpt lat="44.84137" lon="-0.20781">
        <ele>8.3</ele>
        <time>2020-09-09T12:19:45Z</time>
      </trkpt>
      <trkpt lat="44.84138" lon="-0.2078">
        <ele>8.3</ele>
        <time>2020-09-09T12:19:47Z</time>
      </trkpt>
      <trkpt lat="44.84139" lon="-0.20779">
        <ele>8.2</ele>
        <time>2020-09-09T12:19:48Z</time>
      </trkpt>
      <trkpt lat="44.8414" lon="-0.20779">
        <ele>8.2</ele>
        <time>2020-09-09T12:19:49Z</time>
      </trkpt>
      <trkpt lat="44.84141" lon="-0.20778">
        <ele>8.2</ele>
        <time>2020-09-09T12:19:50Z</time>
      </trkpt>
      <trkpt lat="44.84143" lon="-0.20777">
        <ele>8.1</ele>
        <time>2020-09-09T12:19:52Z</time>
      </trkpt>
      <trkpt lat="44.84145" lon="-0.20776">
        <ele>8.1</ele>
        <time>2020-09-09T12:19:53Z</time>
      </trkpt>
      <trkpt lat="44.84146" lon="-0.20776">
        <ele>8.1</ele>
        <time>2020-09-09T12:19:54Z</time>
      </trkpt>
      <trkpt lat="44.84146" lon="-0.20775">
        <ele>8</ele>
        <time>2020-09-09T12:19:55Z</time>
      </trkpt>
      <trkpt lat="44.84147" lon="-0.20775">
        <ele>8</ele>
        <time>2020-09-09T12:19:56Z</time>
      </trkpt>
      <trkpt lat="44.8415" lon="-0.20773">
        <ele>8</ele>
        <time>2020-09-09T12:19:58Z</time>
      </trkpt>
      <trkpt lat="44.8415" lon="-0.20773">
        <ele>8</ele>
        <time>2020-09-09T12:19:59Z</time>
      </trkpt>
      <trkpt lat="44.84152" lon="-0.20772">
        <ele>7.9</ele>
        <time>2020-09-09T12:20:01Z</time>
      </trkpt>
      <trkpt lat="44.84153" lon="-0.20771">
        <ele>7.9</ele>
        <time>2020-09-09T12:20:02Z</time>
      </trkpt>
      <trkpt lat="44.84154" lon="-0.2077">
        <ele>7.8</ele>
        <time>2020-09-09T12:20:03Z</time>
      </trkpt>
      <trkpt lat="44.84155" lon="-0.2077">
        <ele>7.8</ele>
        <time>2020-09-09T12:20:04Z</time>
      </trkpt>
      <trkpt lat="44.84155" lon="-0.2077">
        <ele>7.8</ele>
        <time>2020-09-09T12:20:05Z</time>
      </trkpt>
      <trkpt lat="44.84156" lon="-0.20769">
        <ele>7.8</ele>
        <time>2020-09-09T12:20:06Z</time>
      </trkpt>
      <trkpt lat="44.84157" lon="-0.20768">
        <ele>7.8</ele>
        <time>2020-09-09T12:20:07Z</time>
      </trkpt>
      <trkpt lat="44.84159" lon="-0.20767">
        <ele>7.8</ele>
        <time>2020-09-09T12:20:08Z</time>
      </trkpt>
      <trkpt lat="44.8416" lon="-0.20766">
        <ele>7.7</ele>
        <time>2020-09-09T12:20:09Z</time>
      </trkpt>
      <trkpt lat="44.8416" lon="-0.20766">
        <ele>7.7</ele>
        <time>2020-09-09T12:20:10Z</time>
      </trkpt>
      <trkpt lat="44.84163" lon="-0.20763">
        <ele>7.6</ele>
        <time>2020-09-09T12:20:12Z</time>
      </trkpt>
      <trkpt lat="44.84164" lon="-0.20763">
        <ele>7.6</ele>
        <time>2020-09-09T12:20:13Z</time>
      </trkpt>
      <trkpt lat="44.84166" lon="-0.20761">
        <ele>7.5</ele>
        <time>2020-09-09T12:20:14Z</time>
      </trkpt>
      <trkpt lat="44.84167" lon="-0.2076">
        <ele>7.5</ele>
        <time>2020-09-09T12:20:16Z</time>
      </trkpt>
      <trkpt lat="44.84167" lon="-0.2076">
        <ele>7.5</ele>
        <time>2020-09-09T12:20:17Z</time>
      </trkpt>
      <trkpt lat="44.84169" lon="-0.20758">
        <ele>7.4</ele>
        <time>2020-09-09T12:20:18Z</time>
      </trkpt>
      <trkpt lat="44.8417" lon="-0.20758">
        <ele>7.4</ele>
        <time>2020-09-09T12:20:19Z</time>
      </trkpt>
      <trkpt lat="44.84171" lon="-0.20757">
        <ele>7.4</ele>
        <time>2020-09-09T12:20:20Z</time>
      </trkpt>
      <trkpt lat="44.84172" lon="-0.20755">
        <ele>7.4</ele>
        <time>2020-09-09T12:20:21Z</time>
      </trkpt>
      <trkpt lat="44.84173" lon="-0.20754">
        <ele>7.3</ele>
        <time>2020-09-09T12:20:22Z</time>
      </trkpt>
      <trkpt lat="44.84174" lon="-0.20753">
        <ele>7.3</ele>
        <time>2020-09-09T12:20:23Z</time>
      </trkpt>
      <trkpt lat="44.84175" lon="-0.20751">
        <ele>7.3</ele>
        <time>2020-09-09T12:20:25Z</time>
      </trkpt>
      <trkpt lat="44.84176" lon="-0.20749">
        <ele>7.2</ele>
        <time>2020-09-09T12:20:27Z</time>
      </trkpt>
      <trkpt lat="44.84178" lon="-0.20748">
        <ele>7.2</ele>
        <time>2020-09-09T12:20:28Z</time>
      </trkpt>
      <trkpt lat="44.84179" lon="-0.20746">
        <ele>7.1</ele>
        <time>2020-09-09T12:20:30Z</time>
      </trkpt>
      <trkpt lat="44.8418" lon="-0.20745">
        <ele>7.1</ele>
        <time>2020-09-09T12:20:31Z</time>
      </trkpt>
      <trkpt lat="44.84181" lon="-0.20743">
        <ele>7.1</ele>
        <time>2020-09-09T12:20:32Z</time>
      </trkpt>
      <trkpt lat="44.84183" lon="-0.20741">
        <ele>7</ele>
        <time>2020-09-09T12:20:34Z</time>
      </trkpt>
      <trkpt lat="44.84183" lon="-0.20739">
        <ele>7</ele>
        <time>2020-09-09T12:20:35Z</time>
      </trkpt>
      <trkpt lat="44.84184" lon="-0.20738">
        <ele>7</ele>
        <time>2020-09-09T12:20:36Z</time>
      </trkpt>
      <trkpt lat="44.84185" lon="-0.20737">
        <ele>6.9</ele>
        <time>2020-09-09T12:20:37Z</time>
      </trkpt>
      <trkpt lat="44.84187" lon="-0.20735">
        <ele>6.9</ele>
        <time>2020-09-09T12:20:38Z</time>
      </trkpt>
      <trkpt lat="44.84187" lon="-0.20734">
        <ele>6.9</ele>
        <time>2020-09-09T12:20:39Z</time>
      </trkpt>
      <trkpt lat="44.84189" lon="-0.20732">
        <ele>6.8</ele>
        <time>2020-09-09T12:20:41Z</time>
      </trkpt>
      <trkpt lat="44.84191" lon="-0.20729">
        <ele>6.7</ele>
        <time>2020-09-09T12:20:43Z</time>
      </trkpt>
      <trkpt lat="44.84192" lon="-0.20728">
        <ele>6.7</ele>
        <time>2020-09-09T12:20:44Z</time>
      </trkpt>
      <trkpt lat="44.84193" lon="-0.20727">
        <ele>6.6</ele>
        <time>2020-09-09T12:20:45Z</time>
      </trkpt>
      <trkpt lat="44.84193" lon="-0.20726">
        <ele>6.6</ele>
        <time>2020-09-09T12:20:46Z</time>
      </trkpt>
      <trkpt lat="44.84195" lon="-0.20723">
        <ele>6.5</ele>
        <time>2020-09-09T12:20:48Z</time>
      </trkpt>
      <trkpt lat="44.84196" lon="-0.20722">
        <ele>6.5</ele>
        <time>2020-09-09T12:20:49Z</time>
      </trkpt>
      <trkpt lat="44.84197" lon="-0.2072">
        <ele>6.5</ele>
        <time>2020-09-09T12:20:50Z</time>
      </trkpt>
      <trkpt lat="44.84198" lon="-0.20719">
        <ele>6.4</ele>
        <time>2020-09-09T12:20:51Z</time>
      </trkpt>
      <trkpt lat="44.84199" lon="-0.20718">
        <ele>6.4</ele>
        <time>2020-09-09T12:20:52Z</time>
      </trkpt>
      <trkpt lat="44.842" lon="-0.20716">
        <ele>6.3</ele>
        <time>2020-09-09T12:20:53Z</time>
      </trkpt>
      <trkpt lat="44.84201" lon="-0.20714">
        <ele>6.2</ele>
        <time>2020-09-09T12:20:55Z</time>
      </trkpt>
      <trkpt lat="44.84203" lon="-0.20711">
        <ele>6.1</ele>
        <time>2020-09-09T12:20:57Z</time>
      </trkpt>
      <trkpt lat="44.84204" lon="-0.2071">
        <ele>6.1</ele>
        <time>2020-09-09T12:20:58Z</time>
      </trkpt>
      <trkpt lat="44.84205" lon="-0.20707">
        <ele>6.1</ele>
        <time>2020-09-09T12:21:00Z</time>
      </trkpt>
      <trkpt lat="44.84206" lon="-0.20705">
        <ele>5.9</ele>
        <time>2020-09-09T12:21:02Z</time>
      </trkpt>
      <trkpt lat="44.84207" lon="-0.20703">
        <ele>5.9</ele>
        <time>2020-09-09T12:21:03Z</time>
      </trkpt>
      <trkpt lat="44.84208" lon="-0.20701">
        <ele>5.8</ele>
        <time>2020-09-09T12:21:05Z</time>
      </trkpt>
      <trkpt lat="44.84209" lon="-0.207">
        <ele>5.8</ele>
        <time>2020-09-09T12:21:06Z</time>
      </trkpt>
      <trkpt lat="44.8421" lon="-0.20699">
        <ele>5.8</ele>
        <time>2020-09-09T12:21:07Z</time>
      </trkpt>
      <trkpt lat="44.84211" lon="-0.20696">
        <ele>5.7</ele>
        <time>2020-09-09T12:21:09Z</time>
      </trkpt>
      <trkpt lat="44.84212" lon="-0.20695">
        <ele>5.7</ele>
        <time>2020-09-09T12:21:10Z</time>
      </trkpt>
      <trkpt lat="44.84214" lon="-0.20694">
        <ele>5.6</ele>
        <time>2020-09-09T12:21:12Z</time>
      </trkpt>
      <trkpt lat="44.84217" lon="-0.20691">
        <ele>5.5</ele>
        <time>2020-09-09T12:21:13Z</time>
      </trkpt>
      <trkpt lat="44.84218" lon="-0.20689">
        <ele>5.4</ele>
        <time>2020-09-09T12:21:15Z</time>
      </trkpt>
      <trkpt lat="44.84219" lon="-0.20688">
        <ele>5.4</ele>
        <time>2020-09-09T12:21:16Z</time>
      </trkpt>
      <trkpt lat="44.8422" lon="-0.20687">
        <ele>5.4</ele>
        <time>2020-09-09T12:21:17Z</time>
      </trkpt>
      <trkpt lat="44.84222" lon="-0.20685">
        <ele>5.2</ele>
        <time>2020-09-09T12:21:19Z</time>
      </trkpt>
      <trkpt lat="44.84224" lon="-0.20683">
        <ele>5.2</ele>
        <time>2020-09-09T12:21:21Z</time>
      </trkpt>
      <trkpt lat="44.84225" lon="-0.20683">
        <ele>5.2</ele>
        <time>2020-09-09T12:21:22Z</time>
      </trkpt>
      <trkpt lat="44.84228" lon="-0.20679">
        <ele>5.1</ele>
        <time>2020-09-09T12:21:24Z</time>
      </trkpt>
      <trkpt lat="44.84228" lon="-0.20679">
        <ele>5.1</ele>
        <time>2020-09-09T12:21:26Z</time>
      </trkpt>
      <trkpt lat="44.84229" lon="-0.20678">
        <ele>5.1</ele>
        <time>2020-09-09T12:21:27Z</time>
      </trkpt>
      <trkpt lat="44.8423" lon="-0.20677">
        <ele>5.1</ele>
        <time>2020-09-09T12:21:28Z</time>
      </trkpt>
      <trkpt lat="44.84231" lon="-0.20675">
        <ele>4.9</ele>
        <time>2020-09-09T12:21:29Z</time>
      </trkpt>
      <trkpt lat="44.84232" lon="-0.20673">
        <ele>4.9</ele>
        <time>2020-09-09T12:21:30Z</time>
      </trkpt>
      <trkpt lat="44.84233" lon="-0.20672">
        <ele>4.8</ele>
        <time>2020-09-09T12:21:31Z</time>
      </trkpt>
      <trkpt lat="44.84234" lon="-0.20671">
        <ele>4.8</ele>
        <time>2020-09-09T12:21:32Z</time>
      </trkpt>
      <trkpt lat="44.84236" lon="-0.20668">
        <ele>4.7</ele>
        <time>2020-09-09T12:21:34Z</time>
      </trkpt>
      <trkpt lat="44.84238" lon="-0.20665">
        <ele>4.7</ele>
        <time>2020-09-09T12:21:36Z</time>
      </trkpt>
      <trkpt lat="44.8424" lon="-0.20664">
        <ele>4.7</ele>
        <time>2020-09-09T12:21:38Z</time>
      </trkpt>
      <trkpt lat="44.84241" lon="-0.20662">
        <ele>4.6</ele>
        <time>2020-09-09T12:21:39Z</time>
      </trkpt>
      <trkpt lat="44.84242" lon="-0.20661">
        <ele>4.6</ele>
        <time>2020-09-09T12:21:40Z</time>
      </trkpt>
      <trkpt lat="44.84242" lon="-0.20661">
        <ele>4.5</ele>
        <time>2020-09-09T12:21:41Z</time>
      </trkpt>
      <trkpt lat="44.84243" lon="-0.20659">
        <ele>4.5</ele>
        <time>2020-09-09T12:21:42Z</time>
      </trkpt>
      <trkpt lat="44.84245" lon="-0.20658">
        <ele>4.5</ele>
        <time>2020-09-09T12:21:43Z</time>
      </trkpt>
      <trkpt lat="44.84247" lon="-0.20655">
        <ele>4.5</ele>
        <time>2020-09-09T12:21:45Z</time>
      </trkpt>
      <trkpt lat="44.84247" lon="-0.20654">
        <ele>4.4</ele>
        <time>2020-09-09T12:21:46Z</time>
      </trkpt>
      <trkpt lat="44.8425" lon="-0.20651">
        <ele>4.4</ele>
        <time>2020-09-09T12:21:49Z</time>
      </trkpt>
      <trkpt lat="44.84251" lon="-0.2065">
        <ele>4.3</ele>
        <time>2020-09-09T12:21:50Z</time>
      </trkpt>
      <trkpt lat="44.84252" lon="-0.20649">
        <ele>4.3</ele>
        <time>2020-09-09T12:21:51Z</time>
      </trkpt>
      <trkpt lat="44.84253" lon="-0.20647">
        <ele>4.3</ele>
        <time>2020-09-09T12:21:53Z</time>
      </trkpt>
      <trkpt lat="44.84254" lon="-0.20645">
        <ele>4.2</ele>
        <time>2020-09-09T12:21:54Z</time>
      </trkpt>
      <trkpt lat="44.84255" lon="-0.20644">
        <ele>4.2</ele>
        <time>2020-09-09T12:21:55Z</time>
      </trkpt>
      <trkpt lat="44.84256" lon="-0.20643">
        <ele>4.2</ele>
        <time>2020-09-09T12:21:56Z</time>
      </trkpt>
      <trkpt lat="44.84257" lon="-0.20642">
        <ele>4.2</ele>
        <time>2020-09-09T12:21:57Z</time>
      </trkpt>
      <trkpt lat="44.84258" lon="-0.20641">
        <ele>4.2</ele>
        <time>2020-09-09T12:21:58Z</time>
      </trkpt>
      <trkpt lat="44.84259" lon="-0.20639">
        <ele>4.2</ele>
        <time>2020-09-09T12:22:00Z</time>
      </trkpt>
      <trkpt lat="44.8426" lon="-0.20638">
        <ele>4.1</ele>
        <time>2020-09-09T12:22:01Z</time>
      </trkpt>
      <trkpt lat="44.84261" lon="-0.20636">
        <ele>4.1</ele>
        <time>2020-09-09T12:22:04Z</time>
      </trkpt>
      <trkpt lat="44.84262" lon="-0.20635">
        <ele>4.1</ele>
        <time>2020-09-09T12:22:05Z</time>
      </trkpt>
      <trkpt lat="44.84265" lon="-0.20634">
        <ele>4.1</ele>
        <time>2020-09-09T12:22:07Z</time>
      </trkpt>
      <trkpt lat="44.84266" lon="-0.20633">
        <ele>4.1</ele>
        <time>2020-09-09T12:22:08Z</time>
      </trkpt>
      <trkpt lat="44.84267" lon="-0.20632">
        <ele>4</ele>
        <time>2020-09-09T12:22:09Z</time>
      </trkpt>
      <trkpt lat="44.84268" lon="-0.20632">
        <ele>4</ele>
        <time>2020-09-09T12:22:10Z</time>
      </trkpt>
      <trkpt lat="44.84269" lon="-0.20632">
        <ele>4</ele>
        <time>2020-09-09T12:22:12Z</time>
      </trkpt>
      <trkpt lat="44.8427" lon="-0.20632">
        <ele>4</ele>
        <time>2020-09-09T12:22:14Z</time>
      </trkpt>
      <trkpt lat="44.84271" lon="-0.20633">
        <ele>4</ele>
        <time>2020-09-09T12:22:16Z</time>
      </trkpt>
      <trkpt lat="44.84272" lon="-0.20634">
        <ele>4</ele>
        <time>2020-09-09T12:22:17Z</time>
      </trkpt>
      <trkpt lat="44.84273" lon="-0.20634">
        <ele>4</ele>
        <time>2020-09-09T12:22:18Z</time>
      </trkpt>
      <trkpt lat="44.84275" lon="-0.20636">
        <ele>4</ele>
        <time>2020-09-09T12:22:20Z</time>
      </trkpt>
      <trkpt lat="44.84276" lon="-0.20637">
        <ele>3.9</ele>
        <time>2020-09-09T12:22:21Z</time>
      </trkpt>
      <trkpt lat="44.84277" lon="-0.20638">
        <ele>3.9</ele>
        <time>2020-09-09T12:22:22Z</time>
      </trkpt>
      <trkpt lat="44.84279" lon="-0.20641">
        <ele>3.9</ele>
        <time>2020-09-09T12:22:24Z</time>
      </trkpt>
      <trkpt lat="44.84281" lon="-0.20642">
        <ele>3.9</ele>
        <time>2020-09-09T12:22:25Z</time>
      </trkpt>
      <trkpt lat="44.84281" lon="-0.20643">
        <ele>3.9</ele>
        <time>2020-09-09T12:22:27Z</time>
      </trkpt>
      <trkpt lat="44.84282" lon="-0.20644">
        <ele>3.8</ele>
        <time>2020-09-09T12:22:28Z</time>
      </trkpt>
      <trkpt lat="44.84284" lon="-0.20646">
        <ele>3.8</ele>
        <time>2020-09-09T12:22:29Z</time>
      </trkpt>
      <trkpt lat="44.84285" lon="-0.20647">
        <ele>3.8</ele>
        <time>2020-09-09T12:22:30Z</time>
      </trkpt>
      <trkpt lat="44.84286" lon="-0.20648">
        <ele>3.8</ele>
        <time>2020-09-09T12:22:31Z</time>
      </trkpt>
      <trkpt lat="44.84287" lon="-0.2065">
        <ele>3.8</ele>
        <time>2020-09-09T12:22:32Z</time>
      </trkpt>
      <trkpt lat="44.8429" lon="-0.20653">
        <ele>3.8</ele>
        <time>2020-09-09T12:22:34Z</time>
      </trkpt>
      <trkpt lat="44.84291" lon="-0.20654">
        <ele>3.8</ele>
        <time>2020-09-09T12:22:35Z</time>
      </trkpt>
      <trkpt lat="44.84292" lon="-0.20656">
        <ele>3.8</ele>
        <time>2020-09-09T12:22:37Z</time>
      </trkpt>
      <trkpt lat="44.84293" lon="-0.20657">
        <ele>3.8</ele>
        <time>2020-09-09T12:22:38Z</time>
      </trkpt>
      <trkpt lat="44.84294" lon="-0.20659">
        <ele>3.7</ele>
        <time>2020-09-09T12:22:39Z</time>
      </trkpt>
      <trkpt lat="44.84296" lon="-0.2066">
        <ele>3.8</ele>
        <time>2020-09-09T12:22:40Z</time>
      </trkpt>
      <trkpt lat="44.84296" lon="-0.20661">
        <ele>3.8</ele>
        <time>2020-09-09T12:22:41Z</time>
      </trkpt>
      <trkpt lat="44.84297" lon="-0.20662">
        <ele>3.7</ele>
        <time>2020-09-09T12:22:42Z</time>
      </trkpt>
      <trkpt lat="44.84298" lon="-0.20663">
        <ele>3.7</ele>
        <time>2020-09-09T12:22:43Z</time>
      </trkpt>
      <trkpt lat="44.843" lon="-0.20666">
        <ele>3.7</ele>
        <time>2020-09-09T12:22:45Z</time>
      </trkpt>
      <trkpt lat="44.84301" lon="-0.20667">
        <ele>3.7</ele>
        <time>2020-09-09T12:22:46Z</time>
      </trkpt>
      <trkpt lat="44.84301" lon="-0.20669">
        <ele>3.7</ele>
        <time>2020-09-09T12:22:48Z</time>
      </trkpt>
      <trkpt lat="44.84302" lon="-0.20672">
        <ele>3.7</ele>
        <time>2020-09-09T12:22:49Z</time>
      </trkpt>
      <trkpt lat="44.84302" lon="-0.20674">
        <ele>3.8</ele>
        <time>2020-09-09T12:22:50Z</time>
      </trkpt>
      <trkpt lat="44.84301" lon="-0.20676">
        <ele>3.8</ele>
        <time>2020-09-09T12:22:51Z</time>
      </trkpt>
      <trkpt lat="44.843" lon="-0.20678">
        <ele>3.8</ele>
        <time>2020-09-09T12:22:53Z</time>
      </trkpt>
      <trkpt lat="44.84299" lon="-0.20681">
        <ele>3.8</ele>
        <time>2020-09-09T12:22:54Z</time>
      </trkpt>
      <trkpt lat="44.84298" lon="-0.20681">
        <ele>3.8</ele>
        <time>2020-09-09T12:22:55Z</time>
      </trkpt>
      <trkpt lat="44.84297" lon="-0.2068">
        <ele>3.8</ele>
        <time>2020-09-09T12:22:57Z</time>
      </trkpt>
      <trkpt lat="44.84297" lon="-0.2068">
        <ele>3.9</ele>
        <time>2020-09-09T12:22:58Z</time>
      </trkpt>
      <trkpt lat="44.84296" lon="-0.20678">
        <ele>3.9</ele>
        <time>2020-09-09T12:23:00Z</time>
      </trkpt>
      <trkpt lat="44.84296" lon="-0.20677">
        <ele>3.9</ele>
        <time>2020-09-09T12:23:01Z</time>
      </trkpt>
      <trkpt lat="44.84296" lon="-0.20677">
        <ele>3.9</ele>
        <time>2020-09-09T12:23:02Z</time>
      </trkpt>
      <trkpt lat="44.84297" lon="-0.20676">
        <ele>3.8</ele>
        <time>2020-09-09T12:23:04Z</time>
      </trkpt>
      <trkpt lat="44.84297" lon="-0.20675">
        <ele>3.8</ele>
        <time>2020-09-09T12:23:06Z</time>
      </trkpt>
      <trkpt lat="44.84298" lon="-0.20674">
        <ele>3.8</ele>
        <time>2020-09-09T12:23:08Z</time>
      </trkpt>
      <trkpt lat="44.84298" lon="-0.20673">
        <ele>3.8</ele>
        <time>2020-09-09T12:23:09Z</time>
      </trkpt>
      <trkpt lat="44.84298" lon="-0.20673">
        <ele>3.8</ele>
        <time>2020-09-09T12:23:10Z</time>
      </trkpt>
      <trkpt lat="44.84299" lon="-0.20673">
        <ele>3.8</ele>
        <time>2020-09-09T12:23:11Z</time>
      </trkpt>
      <trkpt lat="44.84299" lon="-0.20673">
        <ele>3.8</ele>
        <time>2020-09-09T12:23:13Z</time>
      </trkpt>
      <trkpt lat="44.84299" lon="-0.20673">
        <ele>3.8</ele>
        <time>2020-09-09T12:23:14Z</time>
      </trkpt>
      <trkpt lat="44.84299" lon="-0.20672">
        <ele>3.8</ele>
        <time>2020-09-09T12:23:16Z</time>
      </trkpt>
      <trkpt lat="44.84299" lon="-0.20672">
        <ele>3.8</ele>
        <time>2020-09-09T12:23:17Z</time>
      </trkpt>
      <trkpt lat="44.84299" lon="-0.20672">
        <ele>3.8</ele>
        <time>2020-09-09T12:23:19Z</time>
      </trkpt>
      <trkpt lat="44.84299" lon="-0.20672">
        <ele>3.8</ele>
        <time>2020-09-09T12:23:21Z</time>
      </trkpt>
      <trkpt lat="44.84299" lon="-0.20672">
        <ele>3.8</ele>
        <time>2020-09-09T12:23:23Z</time>
      </trkpt>
      <trkpt lat="44.84299" lon="-0.20672">
        <ele>3.8</ele>
        <time>2020-09-09T12:23:24Z</time>
      </trkpt>
      <trkpt lat="44.84299" lon="-0.20672">
        <ele>3.8</ele>
        <time>2020-09-09T12:23:26Z</time>
      </trkpt>
      <trkpt lat="44.84299" lon="-0.20672">
        <ele>3.8</ele>
        <time>2020-09-09T12:23:28Z</time>
      </trkpt>
      <trkpt lat="44.84299" lon="-0.20672">
        <ele>3.8</ele>
        <time>2020-09-09T12:23:30Z</time>
      </trkpt>
      <trkpt lat="44.84299" lon="-0.20672">
        <ele>3.8</ele>
        <time>2020-09-09T12:23:32Z</time>
      </trkpt>
      <trkpt lat="44.843" lon="-0.20671">
        <ele>3.8</ele>
        <time>2020-09-09T12:23:33Z</time>
      </trkpt>
      <trkpt lat="44.84301" lon="-0.20671">
        <ele>3.7</ele>
        <time>2020-09-09T12:23:34Z</time>
      </trkpt>
      <trkpt lat="44.84302" lon="-0.2067">
        <ele>3.7</ele>
        <time>2020-09-09T12:23:36Z</time>
      </trkpt>
      <trkpt lat="44.84302" lon="-0.20668">
        <ele>3.7</ele>
        <time>2020-09-09T12:23:38Z</time>
      </trkpt>
      <trkpt lat="44.84302" lon="-0.20668">
        <ele>3.7</ele>
        <time>2020-09-09T12:23:40Z</time>
      </trkpt>
      <trkpt lat="44.84302" lon="-0.20668">
        <ele>3.7</ele>
        <time>2020-09-09T12:23:41Z</time>
      </trkpt>
      <trkpt lat="44.84301" lon="-0.20669">
        <ele>3.7</ele>
        <time>2020-09-09T12:23:43Z</time>
      </trkpt>
      <trkpt lat="44.84301" lon="-0.2067">
        <ele>3.7</ele>
        <time>2020-09-09T12:23:44Z</time>
      </trkpt>
      <trkpt lat="44.843" lon="-0.2067">
        <ele>3.7</ele>
        <time>2020-09-09T12:23:45Z</time>
      </trkpt>
      <trkpt lat="44.843" lon="-0.20671">
        <ele>3.7</ele>
        <time>2020-09-09T12:23:47Z</time>
      </trkpt>
      <trkpt lat="44.843" lon="-0.20671">
        <ele>3.8</ele>
        <time>2020-09-09T12:23:48Z</time>
      </trkpt>
      <trkpt lat="44.84299" lon="-0.20672">
        <ele>3.8</ele>
        <time>2020-09-09T12:23:50Z</time>
      </trkpt>
      <trkpt lat="44.84299" lon="-0.20672">
        <ele>3.8</ele>
        <time>2020-09-09T12:23:51Z</time>
      </trkpt>
      <trkpt lat="44.84298" lon="-0.20673">
        <ele>3.8</ele>
        <time>2020-09-09T12:23:53Z</time>
      </trkpt>
      <trkpt lat="44.84298" lon="-0.20674">
        <ele>3.8</ele>
        <time>2020-09-09T12:23:55Z</time>
      </trkpt>
      <trkpt lat="44.84298" lon="-0.20674">
        <ele>3.8</ele>
        <time>2020-09-09T12:23:56Z</time>
      </trkpt>
      <trkpt lat="44.84298" lon="-0.20673">
        <ele>3.8</ele>
        <time>2020-09-09T12:23:58Z</time>
      </trkpt>
      <trkpt lat="44.84299" lon="-0.20672">
        <ele>3.8</ele>
        <time>2020-09-09T12:24:00Z</time>
      </trkpt>
      <trkpt lat="44.843" lon="-0.20672">
        <ele>3.7</ele>
        <time>2020-09-09T12:24:01Z</time>
      </trkpt>
      <trkpt lat="44.84301" lon="-0.20673">
        <ele>3.8</ele>
        <time>2020-09-09T12:24:02Z</time>
      </trkpt>
      <trkpt lat="44.84302" lon="-0.20674">
        <ele>3.8</ele>
        <time>2020-09-09T12:24:03Z</time>
      </trkpt>
      <trkpt lat="44.84303" lon="-0.20677">
        <ele>3.7</ele>
        <time>2020-09-09T12:24:05Z</time>
      </trkpt>
      <trkpt lat="44.84304" lon="-0.20679">
        <ele>3.7</ele>
        <time>2020-09-09T12:24:06Z</time>
      </trkpt>
      <trkpt lat="44.84305" lon="-0.2068">
        <ele>3.7</ele>
        <time>2020-09-09T12:24:07Z</time>
      </trkpt>
      <trkpt lat="44.84306" lon="-0.20682">
        <ele>3.7</ele>
        <time>2020-09-09T12:24:09Z</time>
      </trkpt>
      <trkpt lat="44.84308" lon="-0.20684">
        <ele>3.7</ele>
        <time>2020-09-09T12:24:10Z</time>
      </trkpt>
      <trkpt lat="44.84308" lon="-0.20685">
        <ele>3.7</ele>
        <time>2020-09-09T12:24:11Z</time>
      </trkpt>
      <trkpt lat="44.84308" lon="-0.20686">
        <ele>3.7</ele>
        <time>2020-09-09T12:24:12Z</time>
      </trkpt>
      <trkpt lat="44.84309" lon="-0.20687">
        <ele>3.7</ele>
        <time>2020-09-09T12:24:13Z</time>
      </trkpt>
      <trkpt lat="44.8431" lon="-0.20688">
        <ele>3.7</ele>
        <time>2020-09-09T12:24:14Z</time>
      </trkpt>
      <trkpt lat="44.84311" lon="-0.20689">
        <ele>3.7</ele>
        <time>2020-09-09T12:24:16Z</time>
      </trkpt>
      <trkpt lat="44.84311" lon="-0.20689">
        <ele>3.7</ele>
        <time>2020-09-09T12:24:17Z</time>
      </trkpt>
      <trkpt lat="44.84312" lon="-0.20691">
        <ele>3.7</ele>
        <time>2020-09-09T12:24:18Z</time>
      </trkpt>
      <trkpt lat="44.84313" lon="-0.20692">
        <ele>3.7</ele>
        <time>2020-09-09T12:24:19Z</time>
      </trkpt>
      <trkpt lat="44.84314" lon="-0.20694">
        <ele>3.7</ele>
        <time>2020-09-09T12:24:20Z</time>
      </trkpt>
      <trkpt lat="44.84315" lon="-0.20695">
        <ele>3.6</ele>
        <time>2020-09-09T12:24:21Z</time>
      </trkpt>
      <trkpt lat="44.84316" lon="-0.20697">
        <ele>3.6</ele>
        <time>2020-09-09T12:24:23Z</time>
      </trkpt>
      <trkpt lat="44.84318" lon="-0.20698">
        <ele>3.6</ele>
        <time>2020-09-09T12:24:24Z</time>
      </trkpt>
      <trkpt lat="44.84319" lon="-0.207">
        <ele>3.6</ele>
        <time>2020-09-09T12:24:25Z</time>
      </trkpt>
      <trkpt lat="44.8432" lon="-0.20702">
        <ele>3.6</ele>
        <time>2020-09-09T12:24:26Z</time>
      </trkpt>
      <trkpt lat="44.84321" lon="-0.20703">
        <ele>3.6</ele>
        <time>2020-09-09T12:24:27Z</time>
      </trkpt>
      <trkpt lat="44.84322" lon="-0.20705">
        <ele>3.6</ele>
        <time>2020-09-09T12:24:28Z</time>
      </trkpt>
      <trkpt lat="44.84322" lon="-0.20706">
        <ele>3.6</ele>
        <time>2020-09-09T12:24:29Z</time>
      </trkpt>
      <trkpt lat="44.84324" lon="-0.20708">
        <ele>3.6</ele>
        <time>2020-09-09T12:24:30Z</time>
      </trkpt>
      <trkpt lat="44.84325" lon="-0.20709">
        <ele>3.6</ele>
        <time>2020-09-09T12:24:31Z</time>
      </trkpt>
      <trkpt lat="44.84326" lon="-0.2071">
        <ele>3.6</ele>
        <time>2020-09-09T12:24:33Z</time>
      </trkpt>
      <trkpt lat="44.84328" lon="-0.20713">
        <ele>3.5</ele>
        <time>2020-09-09T12:24:34Z</time>
      </trkpt>
      <trkpt lat="44.84331" lon="-0.20716">
        <ele>3.5</ele>
        <time>2020-09-09T12:24:36Z</time>
      </trkpt>
      <trkpt lat="44.84334" lon="-0.20719">
        <ele>3.5</ele>
        <time>2020-09-09T12:24:37Z</time>
      </trkpt>
      <trkpt lat="44.84335" lon="-0.2072">
        <ele>3.5</ele>
        <time>2020-09-09T12:24:38Z</time>
      </trkpt>
      <trkpt lat="44.84336" lon="-0.20722">
        <ele>3.5</ele>
        <time>2020-09-09T12:24:39Z</time>
      </trkpt>
      <trkpt lat="44.84338" lon="-0.20726">
        <ele>3.5</ele>
        <time>2020-09-09T12:24:41Z</time>
      </trkpt>
      <trkpt lat="44.84339" lon="-0.20727">
        <ele>3.5</ele>
        <time>2020-09-09T12:24:42Z</time>
      </trkpt>
      <trkpt lat="44.84339" lon="-0.20728">
        <ele>3.5</ele>
        <time>2020-09-09T12:24:44Z</time>
      </trkpt>
      <trkpt lat="44.84339" lon="-0.20729">
        <ele>3.5</ele>
        <time>2020-09-09T12:24:45Z</time>
      </trkpt>
      <trkpt lat="44.8434" lon="-0.2073">
        <ele>3.5</ele>
        <time>2020-09-09T12:24:46Z</time>
      </trkpt>
      <trkpt lat="44.8434" lon="-0.20731">
        <ele>3.5</ele>
        <time>2020-09-09T12:24:47Z</time>
      </trkpt>
      <trkpt lat="44.84341" lon="-0.20731">
        <ele>3.5</ele>
        <time>2020-09-09T12:24:48Z</time>
      </trkpt>
      <trkpt lat="44.84343" lon="-0.20733">
        <ele>3.5</ele>
        <time>2020-09-09T12:24:50Z</time>
      </trkpt>
      <trkpt lat="44.84344" lon="-0.20734">
        <ele>3.5</ele>
        <time>2020-09-09T12:24:51Z</time>
      </trkpt>
      <trkpt lat="44.84345" lon="-0.20734">
        <ele>3.5</ele>
        <time>2020-09-09T12:24:52Z</time>
      </trkpt>
      <trkpt lat="44.84346" lon="-0.20735">
        <ele>3.5</ele>
        <time>2020-09-09T12:24:53Z</time>
      </trkpt>
      <trkpt lat="44.84347" lon="-0.20736">
        <ele>3.5</ele>
        <time>2020-09-09T12:24:54Z</time>
      </trkpt>
      <trkpt lat="44.84348" lon="-0.20736">
        <ele>3.5</ele>
        <time>2020-09-09T12:24:56Z</time>
      </trkpt>
      <trkpt lat="44.84349" lon="-0.20736">
        <ele>3.5</ele>
        <time>2020-09-09T12:24:57Z</time>
      </trkpt>
      <trkpt lat="44.8435" lon="-0.20736">
        <ele>3.5</ele>
        <time>2020-09-09T12:24:58Z</time>
      </trkpt>
      <trkpt lat="44.84352" lon="-0.20735">
        <ele>3.5</ele>
        <time>2020-09-09T12:25:00Z</time>
      </trkpt>
      <trkpt lat="44.84352" lon="-0.20733">
        <ele>3.5</ele>
        <time>2020-09-09T12:25:01Z</time>
      </trkpt>
      <trkpt lat="44.84353" lon="-0.20731">
        <ele>3.5</ele>
        <time>2020-09-09T12:25:02Z</time>
      </trkpt>
      <trkpt lat="44.84353" lon="-0.2073">
        <ele>3.5</ele>
        <time>2020-09-09T12:25:04Z</time>
      </trkpt>
      <trkpt lat="44.84353" lon="-0.20727">
        <ele>3.5</ele>
        <time>2020-09-09T12:25:05Z</time>
      </trkpt>
      <trkpt lat="44.84355" lon="-0.20723">
        <ele>3.5</ele>
        <time>2020-09-09T12:25:06Z</time>
      </trkpt>
      <trkpt lat="44.84355" lon="-0.20721">
        <ele>3.5</ele>
        <time>2020-09-09T12:25:07Z</time>
      </trkpt>
      <trkpt lat="44.84357" lon="-0.20716">
        <ele>3.5</ele>
        <time>2020-09-09T12:25:09Z</time>
      </trkpt>
      <trkpt lat="44.84358" lon="-0.20714">
        <ele>3.5</ele>
        <time>2020-09-09T12:25:10Z</time>
      </trkpt>
      <trkpt lat="44.84359" lon="-0.20713">
        <ele>3.5</ele>
        <time>2020-09-09T12:25:11Z</time>
      </trkpt>
      <trkpt lat="44.8436" lon="-0.20711">
        <ele>3.5</ele>
        <time>2020-09-09T12:25:12Z</time>
      </trkpt>
      <trkpt lat="44.84361" lon="-0.20711">
        <ele>3.6</ele>
        <time>2020-09-09T12:25:13Z</time>
      </trkpt>
      <trkpt lat="44.84363" lon="-0.20711">
        <ele>3.6</ele>
        <time>2020-09-09T12:25:15Z</time>
      </trkpt>
      <trkpt lat="44.84364" lon="-0.20712">
        <ele>3.6</ele>
        <time>2020-09-09T12:25:16Z</time>
      </trkpt>
      <trkpt lat="44.84366" lon="-0.20713">
        <ele>3.6</ele>
        <time>2020-09-09T12:25:17Z</time>
      </trkpt>
      <trkpt lat="44.84367" lon="-0.20714">
        <ele>3.6</ele>
        <time>2020-09-09T12:25:18Z</time>
      </trkpt>
      <trkpt lat="44.8437" lon="-0.20717">
        <ele>3.5</ele>
        <time>2020-09-09T12:25:20Z</time>
      </trkpt>
      <trkpt lat="44.8437" lon="-0.20718">
        <ele>3.6</ele>
        <time>2020-09-09T12:25:21Z</time>
      </trkpt>
      <trkpt lat="44.84371" lon="-0.20719">
        <ele>3.6</ele>
        <time>2020-09-09T12:25:22Z</time>
      </trkpt>
      <trkpt lat="44.84372" lon="-0.20721">
        <ele>3.5</ele>
        <time>2020-09-09T12:25:23Z</time>
      </trkpt>
      <trkpt lat="44.84373" lon="-0.20722">
        <ele>3.5</ele>
        <time>2020-09-09T12:25:24Z</time>
      </trkpt>
      <trkpt lat="44.84374" lon="-0.20723">
        <ele>3.5</ele>
        <time>2020-09-09T12:25:25Z</time>
      </trkpt>
      <trkpt lat="44.84375" lon="-0.20725">
        <ele>3.5</ele>
        <time>2020-09-09T12:25:27Z</time>
      </trkpt>
      <trkpt lat="44.84376" lon="-0.20727">
        <ele>3.5</ele>
        <time>2020-09-09T12:25:28Z</time>
      </trkpt>
      <trkpt lat="44.84377" lon="-0.20729">
        <ele>3.5</ele>
        <time>2020-09-09T12:25:30Z</time>
      </trkpt>
      <trkpt lat="44.84378" lon="-0.2073">
        <ele>3.5</ele>
        <time>2020-09-09T12:25:31Z</time>
      </trkpt>
      <trkpt lat="44.84381" lon="-0.20733">
        <ele>3.5</ele>
        <time>2020-09-09T12:25:32Z</time>
      </trkpt>
      <trkpt lat="44.84381" lon="-0.20733">
        <ele>3.5</ele>
        <time>2020-09-09T12:25:33Z</time>
      </trkpt>
      <trkpt lat="44.84382" lon="-0.20735">
        <ele>3.5</ele>
        <time>2020-09-09T12:25:34Z</time>
      </trkpt>
      <trkpt lat="44.84384" lon="-0.20736">
        <ele>3.5</ele>
        <time>2020-09-09T12:25:35Z</time>
      </trkpt>
      <trkpt lat="44.84387" lon="-0.20739">
        <ele>3.5</ele>
        <time>2020-09-09T12:25:37Z</time>
      </trkpt>
      <trkpt lat="44.84388" lon="-0.2074">
        <ele>3.5</ele>
        <time>2020-09-09T12:25:38Z</time>
      </trkpt>
      <trkpt lat="44.8439" lon="-0.20742">
        <ele>3.4</ele>
        <time>2020-09-09T12:25:39Z</time>
      </trkpt>
      <trkpt lat="44.84391" lon="-0.20744">
        <ele>3.4</ele>
        <time>2020-09-09T12:25:40Z</time>
      </trkpt>
      <trkpt lat="44.84392" lon="-0.20745">
        <ele>3.4</ele>
        <time>2020-09-09T12:25:42Z</time>
      </trkpt>
      <trkpt lat="44.84393" lon="-0.20746">
        <ele>3.4</ele>
        <time>2020-09-09T12:25:43Z</time>
      </trkpt>
      <trkpt lat="44.84394" lon="-0.20747">
        <ele>3.4</ele>
        <time>2020-09-09T12:25:44Z</time>
      </trkpt>
      <trkpt lat="44.84396" lon="-0.20749">
        <ele>3.4</ele>
        <time>2020-09-09T12:25:45Z</time>
      </trkpt>
      <trkpt lat="44.84397" lon="-0.2075">
        <ele>3.4</ele>
        <time>2020-09-09T12:25:46Z</time>
      </trkpt>
      <trkpt lat="44.84398" lon="-0.20752">
        <ele>3.4</ele>
        <time>2020-09-09T12:25:48Z</time>
      </trkpt>
      <trkpt lat="44.84399" lon="-0.20753">
        <ele>3.4</ele>
        <time>2020-09-09T12:25:49Z</time>
      </trkpt>
      <trkpt lat="44.844" lon="-0.20755">
        <ele>3.4</ele>
        <time>2020-09-09T12:25:50Z</time>
      </trkpt>
      <trkpt lat="44.84402" lon="-0.20757">
        <ele>3.3</ele>
        <time>2020-09-09T12:25:51Z</time>
      </trkpt>
      <trkpt lat="44.84403" lon="-0.20759">
        <ele>3.3</ele>
        <time>2020-09-09T12:25:53Z</time>
      </trkpt>
      <trkpt lat="44.84404" lon="-0.2076">
        <ele>3.3</ele>
        <time>2020-09-09T12:25:54Z</time>
      </trkpt>
      <trkpt lat="44.84405" lon="-0.20762">
        <ele>3.3</ele>
        <time>2020-09-09T12:25:55Z</time>
      </trkpt>
      <trkpt lat="44.84406" lon="-0.20762">
        <ele>3.3</ele>
        <time>2020-09-09T12:25:56Z</time>
      </trkpt>
      <trkpt lat="44.84407" lon="-0.20764">
        <ele>3.3</ele>
        <time>2020-09-09T12:25:58Z</time>
      </trkpt>
      <trkpt lat="44.84408" lon="-0.20765">
        <ele>3.3</ele>
        <time>2020-09-09T12:25:59Z</time>
      </trkpt>
      <trkpt lat="44.84409" lon="-0.20766">
        <ele>3.3</ele>
        <time>2020-09-09T12:26:00Z</time>
      </trkpt>
      <trkpt lat="44.8441" lon="-0.20768">
        <ele>3.3</ele>
        <time>2020-09-09T12:26:01Z</time>
      </trkpt>
      <trkpt lat="44.84411" lon="-0.20768">
        <ele>3.3</ele>
        <time>2020-09-09T12:26:02Z</time>
      </trkpt>
      <trkpt lat="44.84412" lon="-0.20769">
        <ele>3.3</ele>
        <time>2020-09-09T12:26:03Z</time>
      </trkpt>
      <trkpt lat="44.84414" lon="-0.20771">
        <ele>3.2</ele>
        <time>2020-09-09T12:26:05Z</time>
      </trkpt>
      <trkpt lat="44.84415" lon="-0.20772">
        <ele>3.2</ele>
        <time>2020-09-09T12:26:06Z</time>
      </trkpt>
      <trkpt lat="44.84416" lon="-0.20773">
        <ele>3.2</ele>
        <time>2020-09-09T12:26:08Z</time>
      </trkpt>
      <trkpt lat="44.84417" lon="-0.20774">
        <ele>3.2</ele>
        <time>2020-09-09T12:26:09Z</time>
      </trkpt>
      <trkpt lat="44.84418" lon="-0.20774">
        <ele>3.2</ele>
        <time>2020-09-09T12:26:10Z</time>
      </trkpt>
      <trkpt lat="44.84419" lon="-0.20775">
        <ele>3.2</ele>
        <time>2020-09-09T12:26:11Z</time>
      </trkpt>
      <trkpt lat="44.84419" lon="-0.20776">
        <ele>3.2</ele>
        <time>2020-09-09T12:26:12Z</time>
      </trkpt>
      <trkpt lat="44.8442" lon="-0.20777">
        <ele>3.2</ele>
        <time>2020-09-09T12:26:13Z</time>
      </trkpt>
      <trkpt lat="44.84421" lon="-0.20779">
        <ele>3.2</ele>
        <time>2020-09-09T12:26:14Z</time>
      </trkpt>
      <trkpt lat="44.84423" lon="-0.2078">
        <ele>3.1</ele>
        <time>2020-09-09T12:26:15Z</time>
      </trkpt>
      <trkpt lat="44.84423" lon="-0.20781">
        <ele>3.1</ele>
        <time>2020-09-09T12:26:16Z</time>
      </trkpt>
      <trkpt lat="44.84424" lon="-0.20782">
        <ele>3.1</ele>
        <time>2020-09-09T12:26:17Z</time>
      </trkpt>
      <trkpt lat="44.84425" lon="-0.20783">
        <ele>3.1</ele>
        <time>2020-09-09T12:26:19Z</time>
      </trkpt>
      <trkpt lat="44.84428" lon="-0.20786">
        <ele>3.1</ele>
        <time>2020-09-09T12:26:20Z</time>
      </trkpt>
      <trkpt lat="44.84429" lon="-0.20786">
        <ele>3.1</ele>
        <time>2020-09-09T12:26:22Z</time>
      </trkpt>
      <trkpt lat="44.8443" lon="-0.20787">
        <ele>3.1</ele>
        <time>2020-09-09T12:26:23Z</time>
      </trkpt>
      <trkpt lat="44.84432" lon="-0.20788">
        <ele>3</ele>
        <time>2020-09-09T12:26:24Z</time>
      </trkpt>
      <trkpt lat="44.84433" lon="-0.2079">
        <ele>3</ele>
        <time>2020-09-09T12:26:25Z</time>
      </trkpt>
      <trkpt lat="44.84434" lon="-0.20791">
        <ele>3</ele>
        <time>2020-09-09T12:26:26Z</time>
      </trkpt>
      <trkpt lat="44.84436" lon="-0.20792">
        <ele>3</ele>
        <time>2020-09-09T12:26:27Z</time>
      </trkpt>
      <trkpt lat="44.84438" lon="-0.20794">
        <ele>3</ele>
        <time>2020-09-09T12:26:29Z</time>
      </trkpt>
      <trkpt lat="44.84439" lon="-0.20795">
        <ele>3</ele>
        <time>2020-09-09T12:26:30Z</time>
      </trkpt>
      <trkpt lat="44.84439" lon="-0.20795">
        <ele>3</ele>
        <time>2020-09-09T12:26:31Z</time>
      </trkpt>
      <trkpt lat="44.8444" lon="-0.20796">
        <ele>2.9</ele>
        <time>2020-09-09T12:26:32Z</time>
      </trkpt>
      <trkpt lat="44.84441" lon="-0.20797">
        <ele>2.9</ele>
        <time>2020-09-09T12:26:33Z</time>
      </trkpt>
      <trkpt lat="44.84442" lon="-0.20798">
        <ele>2.9</ele>
        <time>2020-09-09T12:26:34Z</time>
      </trkpt>
      <trkpt lat="44.84443" lon="-0.20799">
        <ele>2.9</ele>
        <time>2020-09-09T12:26:36Z</time>
      </trkpt>
      <trkpt lat="44.84444" lon="-0.208">
        <ele>2.9</ele>
        <time>2020-09-09T12:26:37Z</time>
      </trkpt>
      <trkpt lat="44.84446" lon="-0.20801">
        <ele>2.9</ele>
        <time>2020-09-09T12:26:38Z</time>
      </trkpt>
      <trkpt lat="44.84447" lon="-0.20803">
        <ele>2.9</ele>
        <time>2020-09-09T12:26:40Z</time>
      </trkpt>
      <trkpt lat="44.84448" lon="-0.20805">
        <ele>2.9</ele>
        <time>2020-09-09T12:26:41Z</time>
      </trkpt>
      <trkpt lat="44.84449" lon="-0.20806">
        <ele>2.9</ele>
        <time>2020-09-09T12:26:42Z</time>
      </trkpt>
      <trkpt lat="44.8445" lon="-0.20807">
        <ele>2.9</ele>
        <time>2020-09-09T12:26:43Z</time>
      </trkpt>
      <trkpt lat="44.84451" lon="-0.20808">
        <ele>2.9</ele>
        <time>2020-09-09T12:26:45Z</time>
      </trkpt>
      <trkpt lat="44.84452" lon="-0.20809">
        <ele>2.9</ele>
        <time>2020-09-09T12:26:46Z</time>
      </trkpt>
      <trkpt lat="44.84452" lon="-0.2081">
        <ele>2.8</ele>
        <time>2020-09-09T12:26:47Z</time>
      </trkpt>
      <trkpt lat="44.84453" lon="-0.20811">
        <ele>2.8</ele>
        <time>2020-09-09T12:26:48Z</time>
      </trkpt>
      <trkpt lat="44.84454" lon="-0.20812">
        <ele>2.8</ele>
        <time>2020-09-09T12:26:49Z</time>
      </trkpt>
      <trkpt lat="44.84454" lon="-0.20813">
        <ele>2.8</ele>
        <time>2020-09-09T12:26:50Z</time>
      </trkpt>
      <trkpt lat="44.84456" lon="-0.20816">
        <ele>2.8</ele>
        <time>2020-09-09T12:26:52Z</time>
      </trkpt>
      <trkpt lat="44.84456" lon="-0.20818">
        <ele>2.8</ele>
        <time>2020-09-09T12:26:54Z</time>
      </trkpt>
      <trkpt lat="44.84456" lon="-0.20819">
        <ele>2.9</ele>
        <time>2020-09-09T12:26:56Z</time>
      </trkpt>
      <trkpt lat="44.84456" lon="-0.20819">
        <ele>2.9</ele>
        <time>2020-09-09T12:26:58Z</time>
      </trkpt>
      <trkpt lat="44.84457" lon="-0.20821">
        <ele>2.9</ele>
        <time>2020-09-09T12:26:59Z</time>
      </trkpt>
      <trkpt lat="44.84457" lon="-0.20822">
        <ele>2.9</ele>
        <time>2020-09-09T12:27:00Z</time>
      </trkpt>
      <trkpt lat="44.84458" lon="-0.20823">
        <ele>2.9</ele>
        <time>2020-09-09T12:27:01Z</time>
      </trkpt>
      <trkpt lat="44.84459" lon="-0.20825">
        <ele>2.9</ele>
        <time>2020-09-09T12:27:02Z</time>
      </trkpt>
      <trkpt lat="44.84461" lon="-0.20827">
        <ele>2.9</ele>
        <time>2020-09-09T12:27:04Z</time>
      </trkpt>
      <trkpt lat="44.84463" lon="-0.20828">
        <ele>2.9</ele>
        <time>2020-09-09T12:27:06Z</time>
      </trkpt>
      <trkpt lat="44.84464" lon="-0.20829">
        <ele>2.9</ele>
        <time>2020-09-09T12:27:07Z</time>
      </trkpt>
      <trkpt lat="44.84466" lon="-0.2083">
        <ele>2.8</ele>
        <time>2020-09-09T12:27:09Z</time>
      </trkpt>
      <trkpt lat="44.84467" lon="-0.20831">
        <ele>2.8</ele>
        <time>2020-09-09T12:27:10Z</time>
      </trkpt>
      <trkpt lat="44.84468" lon="-0.20832">
        <ele>2.9</ele>
        <time>2020-09-09T12:27:11Z</time>
      </trkpt>
      <trkpt lat="44.84469" lon="-0.20833">
        <ele>2.9</ele>
        <time>2020-09-09T12:27:12Z</time>
      </trkpt>
      <trkpt lat="44.8447" lon="-0.20833">
        <ele>2.9</ele>
        <time>2020-09-09T12:27:13Z</time>
      </trkpt>
      <trkpt lat="44.84472" lon="-0.20835">
        <ele>2.8</ele>
        <time>2020-09-09T12:27:14Z</time>
      </trkpt>
      <trkpt lat="44.84473" lon="-0.20835">
        <ele>2.8</ele>
        <time>2020-09-09T12:27:15Z</time>
      </trkpt>
      <trkpt lat="44.84475" lon="-0.20836">
        <ele>2.8</ele>
        <time>2020-09-09T12:27:17Z</time>
      </trkpt>
      <trkpt lat="44.84476" lon="-0.20836">
        <ele>2.8</ele>
        <time>2020-09-09T12:27:18Z</time>
      </trkpt>
      <trkpt lat="44.84478" lon="-0.20837">
        <ele>2.8</ele>
        <time>2020-09-09T12:27:19Z</time>
      </trkpt>
      <trkpt lat="44.8448" lon="-0.20838">
        <ele>2.8</ele>
        <time>2020-09-09T12:27:21Z</time>
      </trkpt>
      <trkpt lat="44.84482" lon="-0.20839">
        <ele>2.8</ele>
        <time>2020-09-09T12:27:22Z</time>
      </trkpt>
      <trkpt lat="44.84483" lon="-0.2084">
        <ele>2.8</ele>
        <time>2020-09-09T12:27:23Z</time>
      </trkpt>
      <trkpt lat="44.84484" lon="-0.20841">
        <ele>2.8</ele>
        <time>2020-09-09T12:27:25Z</time>
      </trkpt>
      <trkpt lat="44.84485" lon="-0.20842">
        <ele>2.8</ele>
        <time>2020-09-09T12:27:26Z</time>
      </trkpt>
      <trkpt lat="44.84486" lon="-0.20842">
        <ele>2.8</ele>
        <time>2020-09-09T12:27:27Z</time>
      </trkpt>
      <trkpt lat="44.84487" lon="-0.20844">
        <ele>2.8</ele>
        <time>2020-09-09T12:27:28Z</time>
      </trkpt>
      <trkpt lat="44.84488" lon="-0.20845">
        <ele>2.9</ele>
        <time>2020-09-09T12:27:29Z</time>
      </trkpt>
      <trkpt lat="44.84489" lon="-0.20846">
        <ele>2.9</ele>
        <time>2020-09-09T12:27:30Z</time>
      </trkpt>
      <trkpt lat="44.84491" lon="-0.20848">
        <ele>2.9</ele>
        <time>2020-09-09T12:27:32Z</time>
      </trkpt>
      <trkpt lat="44.84492" lon="-0.20849">
        <ele>2.9</ele>
        <time>2020-09-09T12:27:33Z</time>
      </trkpt>
      <trkpt lat="44.84492" lon="-0.2085">
        <ele>2.9</ele>
        <time>2020-09-09T12:27:34Z</time>
      </trkpt>
      <trkpt lat="44.84494" lon="-0.20851">
        <ele>2.9</ele>
        <time>2020-09-09T12:27:35Z</time>
      </trkpt>
      <trkpt lat="44.84495" lon="-0.20853">
        <ele>3</ele>
        <time>2020-09-09T12:27:36Z</time>
      </trkpt>
      <trkpt lat="44.84496" lon="-0.20853">
        <ele>3</ele>
        <time>2020-09-09T12:27:37Z</time>
      </trkpt>
      <trkpt lat="44.84498" lon="-0.20855">
        <ele>3</ele>
        <time>2020-09-09T12:27:39Z</time>
      </trkpt>
      <trkpt lat="44.84498" lon="-0.20856">
        <ele>3</ele>
        <time>2020-09-09T12:27:40Z</time>
      </trkpt>
      <trkpt lat="44.84499" lon="-0.20857">
        <ele>3</ele>
        <time>2020-09-09T12:27:41Z</time>
      </trkpt>
      <trkpt lat="44.84501" lon="-0.20859">
        <ele>3</ele>
        <time>2020-09-09T12:27:43Z</time>
      </trkpt>
      <trkpt lat="44.84502" lon="-0.2086">
        <ele>3</ele>
        <time>2020-09-09T12:27:44Z</time>
      </trkpt>
      <trkpt lat="44.84502" lon="-0.2086">
        <ele>3</ele>
        <time>2020-09-09T12:27:45Z</time>
      </trkpt>
      <trkpt lat="44.84504" lon="-0.20862">
        <ele>3</ele>
        <time>2020-09-09T12:27:46Z</time>
      </trkpt>
      <trkpt lat="44.84505" lon="-0.20863">
        <ele>3</ele>
        <time>2020-09-09T12:27:47Z</time>
      </trkpt>
      <trkpt lat="44.84505" lon="-0.20864">
        <ele>3</ele>
        <time>2020-09-09T12:27:48Z</time>
      </trkpt>
      <trkpt lat="44.84506" lon="-0.20865">
        <ele>3</ele>
        <time>2020-09-09T12:27:50Z</time>
      </trkpt>
      <trkpt lat="44.84507" lon="-0.20866">
        <ele>3.1</ele>
        <time>2020-09-09T12:27:51Z</time>
      </trkpt>
      <trkpt lat="44.84507" lon="-0.20868">
        <ele>3.1</ele>
        <time>2020-09-09T12:27:52Z</time>
      </trkpt>
      <trkpt lat="44.84508" lon="-0.20869">
        <ele>3.1</ele>
        <time>2020-09-09T12:27:53Z</time>
      </trkpt>
      <trkpt lat="44.84509" lon="-0.2087">
        <ele>3.1</ele>
        <time>2020-09-09T12:27:54Z</time>
      </trkpt>
      <trkpt lat="44.84509" lon="-0.20871">
        <ele>3.1</ele>
        <time>2020-09-09T12:27:55Z</time>
      </trkpt>
      <trkpt lat="44.84511" lon="-0.20873">
        <ele>3.1</ele>
        <time>2020-09-09T12:27:56Z</time>
      </trkpt>
      <trkpt lat="44.84512" lon="-0.20876">
        <ele>3.2</ele>
        <time>2020-09-09T12:27:57Z</time>
      </trkpt>
      <trkpt lat="44.84512" lon="-0.20877">
        <ele>3.2</ele>
        <time>2020-09-09T12:27:59Z</time>
      </trkpt>
      <trkpt lat="44.84513" lon="-0.20878">
        <ele>3.2</ele>
        <time>2020-09-09T12:28:00Z</time>
      </trkpt>
      <trkpt lat="44.84514" lon="-0.2088">
        <ele>3.2</ele>
        <time>2020-09-09T12:28:01Z</time>
      </trkpt>
      <trkpt lat="44.84515" lon="-0.20882">
        <ele>3.2</ele>
        <time>2020-09-09T12:28:03Z</time>
      </trkpt>
      <trkpt lat="44.84516" lon="-0.20883">
        <ele>3.3</ele>
        <time>2020-09-09T12:28:04Z</time>
      </trkpt>
      <trkpt lat="44.84517" lon="-0.20885">
        <ele>3.3</ele>
        <time>2020-09-09T12:28:05Z</time>
      </trkpt>
      <trkpt lat="44.84518" lon="-0.20887">
        <ele>3.3</ele>
        <time>2020-09-09T12:28:06Z</time>
      </trkpt>
      <trkpt lat="44.84519" lon="-0.20888">
        <ele>3.3</ele>
        <time>2020-09-09T12:28:07Z</time>
      </trkpt>
      <trkpt lat="44.8452" lon="-0.2089">
        <ele>3.3</ele>
        <time>2020-09-09T12:28:08Z</time>
      </trkpt>
      <trkpt lat="44.84521" lon="-0.20891">
        <ele>3.3</ele>
        <time>2020-09-09T12:28:10Z</time>
      </trkpt>
      <trkpt lat="44.84523" lon="-0.20894">
        <ele>3.3</ele>
        <time>2020-09-09T12:28:11Z</time>
      </trkpt>
      <trkpt lat="44.84523" lon="-0.20895">
        <ele>3.3</ele>
        <time>2020-09-09T12:28:12Z</time>
      </trkpt>
      <trkpt lat="44.84524" lon="-0.20896">
        <ele>3.4</ele>
        <time>2020-09-09T12:28:13Z</time>
      </trkpt>
      <trkpt lat="44.84524" lon="-0.20897">
        <ele>3.4</ele>
        <time>2020-09-09T12:28:14Z</time>
      </trkpt>
      <trkpt lat="44.84525" lon="-0.20898">
        <ele>3.4</ele>
        <time>2020-09-09T12:28:15Z</time>
      </trkpt>
      <trkpt lat="44.84526" lon="-0.209">
        <ele>3.4</ele>
        <time>2020-09-09T12:28:16Z</time>
      </trkpt>
      <trkpt lat="44.84527" lon="-0.20901">
        <ele>3.4</ele>
        <time>2020-09-09T12:28:18Z</time>
      </trkpt>
      <trkpt lat="44.84527" lon="-0.20902">
        <ele>3.4</ele>
        <time>2020-09-09T12:28:19Z</time>
      </trkpt>
      <trkpt lat="44.84529" lon="-0.20905">
        <ele>3.4</ele>
        <time>2020-09-09T12:28:20Z</time>
      </trkpt>
      <trkpt lat="44.8453" lon="-0.20906">
        <ele>3.4</ele>
        <time>2020-09-09T12:28:21Z</time>
      </trkpt>
      <trkpt lat="44.8453" lon="-0.20907">
        <ele>3.4</ele>
        <time>2020-09-09T12:28:22Z</time>
      </trkpt>
      <trkpt lat="44.84531" lon="-0.20908">
        <ele>3.4</ele>
        <time>2020-09-09T12:28:23Z</time>
      </trkpt>
      <trkpt lat="44.84532" lon="-0.20909">
        <ele>3.4</ele>
        <time>2020-09-09T12:28:25Z</time>
      </trkpt>
      <trkpt lat="44.84534" lon="-0.20911">
        <ele>3.4</ele>
        <time>2020-09-09T12:28:26Z</time>
      </trkpt>
      <trkpt lat="44.84534" lon="-0.20912">
        <ele>3.4</ele>
        <time>2020-09-09T12:28:27Z</time>
      </trkpt>
      <trkpt lat="44.84535" lon="-0.20913">
        <ele>3.5</ele>
        <time>2020-09-09T12:28:28Z</time>
      </trkpt>
      <trkpt lat="44.84536" lon="-0.20914">
        <ele>3.5</ele>
        <time>2020-09-09T12:28:29Z</time>
      </trkpt>
      <trkpt lat="44.84538" lon="-0.20917">
        <ele>3.4</ele>
        <time>2020-09-09T12:28:31Z</time>
      </trkpt>
      <trkpt lat="44.84539" lon="-0.20919">
        <ele>3.5</ele>
        <time>2020-09-09T12:28:33Z</time>
      </trkpt>
      <trkpt lat="44.8454" lon="-0.20919">
        <ele>3.5</ele>
        <time>2020-09-09T12:28:34Z</time>
      </trkpt>
      <trkpt lat="44.84541" lon="-0.2092">
        <ele>3.5</ele>
        <time>2020-09-09T12:28:35Z</time>
      </trkpt>
      <trkpt lat="44.84542" lon="-0.20921">
        <ele>3.5</ele>
        <time>2020-09-09T12:28:36Z</time>
      </trkpt>
      <trkpt lat="44.84543" lon="-0.20923">
        <ele>3.5</ele>
        <time>2020-09-09T12:28:37Z</time>
      </trkpt>
      <trkpt lat="44.84545" lon="-0.20925">
        <ele>3.5</ele>
        <time>2020-09-09T12:28:38Z</time>
      </trkpt>
      <trkpt lat="44.84546" lon="-0.20926">
        <ele>3.5</ele>
        <time>2020-09-09T12:28:39Z</time>
      </trkpt>
      <trkpt lat="44.84546" lon="-0.20927">
        <ele>3.5</ele>
        <time>2020-09-09T12:28:40Z</time>
      </trkpt>
      <trkpt lat="44.84548" lon="-0.20929">
        <ele>3.5</ele>
        <time>2020-09-09T12:28:41Z</time>
      </trkpt>
      <trkpt lat="44.84549" lon="-0.2093">
        <ele>3.5</ele>
        <time>2020-09-09T12:28:42Z</time>
      </trkpt>
      <trkpt lat="44.8455" lon="-0.20931">
        <ele>3.5</ele>
        <time>2020-09-09T12:28:43Z</time>
      </trkpt>
      <trkpt lat="44.84551" lon="-0.20932">
        <ele>3.5</ele>
        <time>2020-09-09T12:28:44Z</time>
      </trkpt>
      <trkpt lat="44.84553" lon="-0.20934">
        <ele>3.5</ele>
        <time>2020-09-09T12:28:46Z</time>
      </trkpt>
      <trkpt lat="44.84554" lon="-0.20935">
        <ele>3.5</ele>
        <time>2020-09-09T12:28:47Z</time>
      </trkpt>
      <trkpt lat="44.84555" lon="-0.20936">
        <ele>3.5</ele>
        <time>2020-09-09T12:28:49Z</time>
      </trkpt>
      <trkpt lat="44.84555" lon="-0.20937">
        <ele>3.5</ele>
        <time>2020-09-09T12:28:50Z</time>
      </trkpt>
      <trkpt lat="44.84556" lon="-0.20938">
        <ele>3.5</ele>
        <time>2020-09-09T12:28:51Z</time>
      </trkpt>
      <trkpt lat="44.84558" lon="-0.2094">
        <ele>3.5</ele>
        <time>2020-09-09T12:28:52Z</time>
      </trkpt>
      <trkpt lat="44.8456" lon="-0.20942">
        <ele>3.5</ele>
        <time>2020-09-09T12:28:53Z</time>
      </trkpt>
      <trkpt lat="44.8456" lon="-0.20943">
        <ele>3.5</ele>
        <time>2020-09-09T12:28:54Z</time>
      </trkpt>
      <trkpt lat="44.84561" lon="-0.20943">
        <ele>3.5</ele>
        <time>2020-09-09T12:28:55Z</time>
      </trkpt>
      <trkpt lat="44.84563" lon="-0.20945">
        <ele>3.5</ele>
        <time>2020-09-09T12:28:56Z</time>
      </trkpt>
      <trkpt lat="44.84565" lon="-0.20947">
        <ele>3.5</ele>
        <time>2020-09-09T12:28:58Z</time>
      </trkpt>
      <trkpt lat="44.84566" lon="-0.20948">
        <ele>3.5</ele>
        <time>2020-09-09T12:28:59Z</time>
      </trkpt>
      <trkpt lat="44.84567" lon="-0.20949">
        <ele>3.5</ele>
        <time>2020-09-09T12:29:00Z</time>
      </trkpt>
      <trkpt lat="44.84569" lon="-0.2095">
        <ele>3.5</ele>
        <time>2020-09-09T12:29:01Z</time>
      </trkpt>
      <trkpt lat="44.8457" lon="-0.20951">
        <ele>3.5</ele>
        <time>2020-09-09T12:29:02Z</time>
      </trkpt>
      <trkpt lat="44.84571" lon="-0.20952">
        <ele>3.5</ele>
        <time>2020-09-09T12:29:03Z</time>
      </trkpt>
      <trkpt lat="44.84572" lon="-0.20953">
        <ele>3.5</ele>
        <time>2020-09-09T12:29:05Z</time>
      </trkpt>
      <trkpt lat="44.84573" lon="-0.20954">
        <ele>3.5</ele>
        <time>2020-09-09T12:29:06Z</time>
      </trkpt>
      <trkpt lat="44.84574" lon="-0.20956">
        <ele>3.5</ele>
        <time>2020-09-09T12:29:07Z</time>
      </trkpt>
      <trkpt lat="44.84576" lon="-0.20958">
        <ele>3.5</ele>
        <time>2020-09-09T12:29:08Z</time>
      </trkpt>
      <trkpt lat="44.84576" lon="-0.20959">
        <ele>3.5</ele>
        <time>2020-09-09T12:29:09Z</time>
      </trkpt>
      <trkpt lat="44.84577" lon="-0.2096">
        <ele>3.5</ele>
        <time>2020-09-09T12:29:10Z</time>
      </trkpt>
      <trkpt lat="44.84577" lon="-0.20961">
        <ele>3.5</ele>
        <time>2020-09-09T12:29:11Z</time>
      </trkpt>
      <trkpt lat="44.84579" lon="-0.20963">
        <ele>3.5</ele>
        <time>2020-09-09T12:29:12Z</time>
      </trkpt>
      <trkpt lat="44.8458" lon="-0.20964">
        <ele>3.5</ele>
        <time>2020-09-09T12:29:13Z</time>
      </trkpt>
      <trkpt lat="44.8458" lon="-0.20965">
        <ele>3.5</ele>
        <time>2020-09-09T12:29:14Z</time>
      </trkpt>
      <trkpt lat="44.84581" lon="-0.20966">
        <ele>3.5</ele>
        <time>2020-09-09T12:29:15Z</time>
      </trkpt>
      <trkpt lat="44.84583" lon="-0.20969">
        <ele>3.6</ele>
        <time>2020-09-09T12:29:17Z</time>
      </trkpt>
      <trkpt lat="44.84584" lon="-0.20971">
        <ele>3.6</ele>
        <time>2020-09-09T12:29:19Z</time>
      </trkpt>
      <trkpt lat="44.84585" lon="-0.20972">
        <ele>3.6</ele>
        <time>2020-09-09T12:29:20Z</time>
      </trkpt>
      <trkpt lat="44.84586" lon="-0.20974">
        <ele>3.6</ele>
        <time>2020-09-09T12:29:21Z</time>
      </trkpt>
      <trkpt lat="44.84588" lon="-0.20976">
        <ele>3.6</ele>
        <time>2020-09-09T12:29:22Z</time>
      </trkpt>
      <trkpt lat="44.84589" lon="-0.20977">
        <ele>3.6</ele>
        <time>2020-09-09T12:29:23Z</time>
      </trkpt>
      <trkpt lat="44.8459" lon="-0.20979">
        <ele>3.6</ele>
        <time>2020-09-09T12:29:24Z</time>
      </trkpt>
      <trkpt lat="44.84591" lon="-0.2098">
        <ele>3.6</ele>
        <time>2020-09-09T12:29:25Z</time>
      </trkpt>
      <trkpt lat="44.84592" lon="-0.20981">
        <ele>3.7</ele>
        <time>2020-09-09T12:29:26Z</time>
      </trkpt>
      <trkpt lat="44.84593" lon="-0.20982">
        <ele>3.7</ele>
        <time>2020-09-09T12:29:27Z</time>
      </trkpt>
      <trkpt lat="44.84593" lon="-0.20983">
        <ele>3.7</ele>
        <time>2020-09-09T12:29:28Z</time>
      </trkpt>
      <trkpt lat="44.84595" lon="-0.20985">
        <ele>3.7</ele>
        <time>2020-09-09T12:29:30Z</time>
      </trkpt>
      <trkpt lat="44.84596" lon="-0.20986">
        <ele>3.7</ele>
        <time>2020-09-09T12:29:31Z</time>
      </trkpt>
      <trkpt lat="44.84596" lon="-0.20987">
        <ele>3.7</ele>
        <time>2020-09-09T12:29:33Z</time>
      </trkpt>
      <trkpt lat="44.84597" lon="-0.20989">
        <ele>3.7</ele>
        <time>2020-09-09T12:29:34Z</time>
      </trkpt>
      <trkpt lat="44.84599" lon="-0.20992">
        <ele>3.7</ele>
        <time>2020-09-09T12:29:35Z</time>
      </trkpt>
      <trkpt lat="44.84599" lon="-0.20993">
        <ele>3.7</ele>
        <time>2020-09-09T12:29:36Z</time>
      </trkpt>
      <trkpt lat="44.846" lon="-0.20995">
        <ele>3.7</ele>
        <time>2020-09-09T12:29:37Z</time>
      </trkpt>
      <trkpt lat="44.84601" lon="-0.20996">
        <ele>3.7</ele>
        <time>2020-09-09T12:29:38Z</time>
      </trkpt>
      <trkpt lat="44.84602" lon="-0.20997">
        <ele>3.8</ele>
        <time>2020-09-09T12:29:39Z</time>
      </trkpt>
      <trkpt lat="44.84602" lon="-0.20999">
        <ele>3.8</ele>
        <time>2020-09-09T12:29:40Z</time>
      </trkpt>
      <trkpt lat="44.84605" lon="-0.21002">
        <ele>3.8</ele>
        <time>2020-09-09T12:29:42Z</time>
      </trkpt>
      <trkpt lat="44.84605" lon="-0.21004">
        <ele>3.8</ele>
        <time>2020-09-09T12:29:43Z</time>
      </trkpt>
      <trkpt lat="44.84606" lon="-0.21006">
        <ele>3.8</ele>
        <time>2020-09-09T12:29:44Z</time>
      </trkpt>
      <trkpt lat="44.84608" lon="-0.2101">
        <ele>3.8</ele>
        <time>2020-09-09T12:29:46Z</time>
      </trkpt>
      <trkpt lat="44.84609" lon="-0.21011">
        <ele>3.8</ele>
        <time>2020-09-09T12:29:47Z</time>
      </trkpt>
      <trkpt lat="44.84611" lon="-0.21013">
        <ele>3.9</ele>
        <time>2020-09-09T12:29:49Z</time>
      </trkpt>
      <trkpt lat="44.84611" lon="-0.21014">
        <ele>3.9</ele>
        <time>2020-09-09T12:29:50Z</time>
      </trkpt>
      <trkpt lat="44.84612" lon="-0.21016">
        <ele>3.9</ele>
        <time>2020-09-09T12:29:51Z</time>
      </trkpt>
      <trkpt lat="44.84613" lon="-0.21017">
        <ele>3.9</ele>
        <time>2020-09-09T12:29:52Z</time>
      </trkpt>
      <trkpt lat="44.84614" lon="-0.21018">
        <ele>3.9</ele>
        <time>2020-09-09T12:29:53Z</time>
      </trkpt>
      <trkpt lat="44.84614" lon="-0.21019">
        <ele>3.9</ele>
        <time>2020-09-09T12:29:54Z</time>
      </trkpt>
      <trkpt lat="44.84615" lon="-0.21022">
        <ele>3.9</ele>
        <time>2020-09-09T12:29:56Z</time>
      </trkpt>
      <trkpt lat="44.84615" lon="-0.21023">
        <ele>3.9</ele>
        <time>2020-09-09T12:29:57Z</time>
      </trkpt>
      <trkpt lat="44.84616" lon="-0.21024">
        <ele>3.9</ele>
        <time>2020-09-09T12:29:58Z</time>
      </trkpt>
      <trkpt lat="44.84617" lon="-0.21026">
        <ele>4</ele>
        <time>2020-09-09T12:29:59Z</time>
      </trkpt>
      <trkpt lat="44.84618" lon="-0.21027">
        <ele>4</ele>
        <time>2020-09-09T12:30:00Z</time>
      </trkpt>
      <trkpt lat="44.84619" lon="-0.21028">
        <ele>4</ele>
        <time>2020-09-09T12:30:02Z</time>
      </trkpt>
      <trkpt lat="44.84619" lon="-0.2103">
        <ele>4</ele>
        <time>2020-09-09T12:30:03Z</time>
      </trkpt>
      <trkpt lat="44.8462" lon="-0.21032">
        <ele>4</ele>
        <time>2020-09-09T12:30:04Z</time>
      </trkpt>
      <trkpt lat="44.8462" lon="-0.21034">
        <ele>4</ele>
        <time>2020-09-09T12:30:05Z</time>
      </trkpt>
      <trkpt lat="44.84621" lon="-0.21035">
        <ele>4</ele>
        <time>2020-09-09T12:30:06Z</time>
      </trkpt>
      <trkpt lat="44.84621" lon="-0.21035">
        <ele>4</ele>
        <time>2020-09-09T12:30:07Z</time>
      </trkpt>
      <trkpt lat="44.84621" lon="-0.21035">
        <ele>4</ele>
        <time>2020-09-09T12:30:08Z</time>
      </trkpt>
      <trkpt lat="44.84621" lon="-0.21035">
        <ele>4</ele>
        <time>2020-09-09T12:30:10Z</time>
      </trkpt>
      <trkpt lat="44.8462" lon="-0.21035">
        <ele>4</ele>
        <time>2020-09-09T12:30:11Z</time>
      </trkpt>
      <trkpt lat="44.8462" lon="-0.21034">
        <ele>4</ele>
        <time>2020-09-09T12:30:13Z</time>
      </trkpt>
      <trkpt lat="44.8462" lon="-0.21035">
        <ele>4</ele>
        <time>2020-09-09T12:30:14Z</time>
      </trkpt>
      <trkpt lat="44.8462" lon="-0.21035">
        <ele>4.1</ele>
        <time>2020-09-09T12:30:15Z</time>
      </trkpt>
      <trkpt lat="44.84622" lon="-0.21037">
        <ele>4.1</ele>
        <time>2020-09-09T12:30:16Z</time>
      </trkpt>
      <trkpt lat="44.84622" lon="-0.21038">
        <ele>4.1</ele>
        <time>2020-09-09T12:30:17Z</time>
      </trkpt>
      <trkpt lat="44.84623" lon="-0.21039">
        <ele>4.1</ele>
        <time>2020-09-09T12:30:19Z</time>
      </trkpt>
      <trkpt lat="44.84624" lon="-0.2104">
        <ele>4.1</ele>
        <time>2020-09-09T12:30:20Z</time>
      </trkpt>
      <trkpt lat="44.84626" lon="-0.21043">
        <ele>4.2</ele>
        <time>2020-09-09T12:30:21Z</time>
      </trkpt>
      <trkpt lat="44.84626" lon="-0.21044">
        <ele>4.2</ele>
        <time>2020-09-09T12:30:22Z</time>
      </trkpt>
      <trkpt lat="44.84627" lon="-0.21045">
        <ele>4.2</ele>
        <time>2020-09-09T12:30:23Z</time>
      </trkpt>
      <trkpt lat="44.84628" lon="-0.21046">
        <ele>4.2</ele>
        <time>2020-09-09T12:30:24Z</time>
      </trkpt>
      <trkpt lat="44.84629" lon="-0.21047">
        <ele>4.2</ele>
        <time>2020-09-09T12:30:26Z</time>
      </trkpt>
      <trkpt lat="44.84631" lon="-0.21049">
        <ele>4.3</ele>
        <time>2020-09-09T12:30:27Z</time>
      </trkpt>
      <trkpt lat="44.84631" lon="-0.2105">
        <ele>4.3</ele>
        <time>2020-09-09T12:30:28Z</time>
      </trkpt>
      <trkpt lat="44.84632" lon="-0.2105">
        <ele>4.3</ele>
        <time>2020-09-09T12:30:29Z</time>
      </trkpt>
      <trkpt lat="44.84633" lon="-0.21051">
        <ele>4.3</ele>
        <time>2020-09-09T12:30:30Z</time>
      </trkpt>
      <trkpt lat="44.84635" lon="-0.21053">
        <ele>4.3</ele>
        <time>2020-09-09T12:30:31Z</time>
      </trkpt>
      <trkpt lat="44.84635" lon="-0.21053">
        <ele>4.4</ele>
        <time>2020-09-09T12:30:32Z</time>
      </trkpt>
      <trkpt lat="44.84636" lon="-0.21054">
        <ele>4.4</ele>
        <time>2020-09-09T12:30:33Z</time>
      </trkpt>
      <trkpt lat="44.84637" lon="-0.21055">
        <ele>4.4</ele>
        <time>2020-09-09T12:30:34Z</time>
      </trkpt>
      <trkpt lat="44.84639" lon="-0.21057">
        <ele>4.4</ele>
        <time>2020-09-09T12:30:36Z</time>
      </trkpt>
      <trkpt lat="44.8464" lon="-0.21058">
        <ele>4.4</ele>
        <time>2020-09-09T12:30:37Z</time>
      </trkpt>
      <trkpt lat="44.84641" lon="-0.2106">
        <ele>4.5</ele>
        <time>2020-09-09T12:30:39Z</time>
      </trkpt>
      <trkpt lat="44.84642" lon="-0.21061">
        <ele>4.5</ele>
        <time>2020-09-09T12:30:40Z</time>
      </trkpt>
      <trkpt lat="44.84643" lon="-0.21062">
        <ele>4.5</ele>
        <time>2020-09-09T12:30:41Z</time>
      </trkpt>
      <trkpt lat="44.84645" lon="-0.21064">
        <ele>4.5</ele>
        <time>2020-09-09T12:30:43Z</time>
      </trkpt>
      <trkpt lat="44.84645" lon="-0.21065">
        <ele>4.5</ele>
        <time>2020-09-09T12:30:44Z</time>
      </trkpt>
      <trkpt lat="44.84647" lon="-0.21067">
        <ele>4.6</ele>
        <time>2020-09-09T12:30:46Z</time>
      </trkpt>
      <trkpt lat="44.84648" lon="-0.21068">
        <ele>4.6</ele>
        <time>2020-09-09T12:30:47Z</time>
      </trkpt>
      <trkpt lat="44.84648" lon="-0.21069">
        <ele>4.6</ele>
        <time>2020-09-09T12:30:48Z</time>
      </trkpt>
      <trkpt lat="44.8465" lon="-0.21071">
        <ele>4.6</ele>
        <time>2020-09-09T12:30:50Z</time>
      </trkpt>
      <trkpt lat="44.84652" lon="-0.21074">
        <ele>4.7</ele>
        <time>2020-09-09T12:30:51Z</time>
      </trkpt>
      <trkpt lat="44.84652" lon="-0.21074">
        <ele>4.7</ele>
        <time>2020-09-09T12:30:52Z</time>
      </trkpt>
      <trkpt lat="44.84654" lon="-0.21076">
        <ele>4.7</ele>
        <time>2020-09-09T12:30:53Z</time>
      </trkpt>
      <trkpt lat="44.84654" lon="-0.21077">
        <ele>4.8</ele>
        <time>2020-09-09T12:30:54Z</time>
      </trkpt>
      <trkpt lat="44.84655" lon="-0.21079">
        <ele>4.8</ele>
        <time>2020-09-09T12:30:55Z</time>
      </trkpt>
      <trkpt lat="44.84656" lon="-0.21081">
        <ele>4.8</ele>
        <time>2020-09-09T12:30:56Z</time>
      </trkpt>
      <trkpt lat="44.84657" lon="-0.21082">
        <ele>4.8</ele>
        <time>2020-09-09T12:30:57Z</time>
      </trkpt>
      <trkpt lat="44.84659" lon="-0.21084">
        <ele>4.8</ele>
        <time>2020-09-09T12:30:59Z</time>
      </trkpt>
      <trkpt lat="44.84659" lon="-0.21085">
        <ele>4.9</ele>
        <time>2020-09-09T12:31:00Z</time>
      </trkpt>
      <trkpt lat="44.84661" lon="-0.21088">
        <ele>4.9</ele>
        <time>2020-09-09T12:31:01Z</time>
      </trkpt>
      <trkpt lat="44.84661" lon="-0.21089">
        <ele>4.9</ele>
        <time>2020-09-09T12:31:02Z</time>
      </trkpt>
      <trkpt lat="44.84662" lon="-0.2109">
        <ele>5</ele>
        <time>2020-09-09T12:31:04Z</time>
      </trkpt>
      <trkpt lat="44.84663" lon="-0.21091">
        <ele>5</ele>
        <time>2020-09-09T12:31:05Z</time>
      </trkpt>
      <trkpt lat="44.84664" lon="-0.21093">
        <ele>5</ele>
        <time>2020-09-09T12:31:06Z</time>
      </trkpt>
      <trkpt lat="44.84665" lon="-0.21094">
        <ele>5</ele>
        <time>2020-09-09T12:31:07Z</time>
      </trkpt>
      <trkpt lat="44.84667" lon="-0.21097">
        <ele>5</ele>
        <time>2020-09-09T12:31:08Z</time>
      </trkpt>
      <trkpt lat="44.84668" lon="-0.21098">
        <ele>5</ele>
        <time>2020-09-09T12:31:10Z</time>
      </trkpt>
      <trkpt lat="44.84669" lon="-0.21099">
        <ele>5.1</ele>
        <time>2020-09-09T12:31:11Z</time>
      </trkpt>
      <trkpt lat="44.8467" lon="-0.211">
        <ele>5.1</ele>
        <time>2020-09-09T12:31:12Z</time>
      </trkpt>
      <trkpt lat="44.84671" lon="-0.21102">
        <ele>5.2</ele>
        <time>2020-09-09T12:31:14Z</time>
      </trkpt>
      <trkpt lat="44.84673" lon="-0.21103">
        <ele>5.2</ele>
        <time>2020-09-09T12:31:15Z</time>
      </trkpt>
      <trkpt lat="44.84674" lon="-0.21105">
        <ele>5.2</ele>
        <time>2020-09-09T12:31:17Z</time>
      </trkpt>
      <trkpt lat="44.84675" lon="-0.21106">
        <ele>5.3</ele>
        <time>2020-09-09T12:31:18Z</time>
      </trkpt>
      <trkpt lat="44.84676" lon="-0.21108">
        <ele>5.3</ele>
        <time>2020-09-09T12:31:19Z</time>
      </trkpt>
      <trkpt lat="44.84677" lon="-0.21109">
        <ele>5.3</ele>
        <time>2020-09-09T12:31:20Z</time>
      </trkpt>
      <trkpt lat="44.84678" lon="-0.21111">
        <ele>5.4</ele>
        <time>2020-09-09T12:31:21Z</time>
      </trkpt>
      <trkpt lat="44.84679" lon="-0.21112">
        <ele>5.4</ele>
        <time>2020-09-09T12:31:22Z</time>
      </trkpt>
      <trkpt lat="44.8468" lon="-0.21114">
        <ele>5.4</ele>
        <time>2020-09-09T12:31:23Z</time>
      </trkpt>
      <trkpt lat="44.84681" lon="-0.21115">
        <ele>5.5</ele>
        <time>2020-09-09T12:31:25Z</time>
      </trkpt>
      <trkpt lat="44.84684" lon="-0.21118">
        <ele>5.5</ele>
        <time>2020-09-09T12:31:27Z</time>
      </trkpt>
      <trkpt lat="44.84684" lon="-0.21119">
        <ele>5.5</ele>
        <time>2020-09-09T12:31:28Z</time>
      </trkpt>
      <trkpt lat="44.84686" lon="-0.21123">
        <ele>5.5</ele>
        <time>2020-09-09T12:31:30Z</time>
      </trkpt>
      <trkpt lat="44.84687" lon="-0.21124">
        <ele>5.6</ele>
        <time>2020-09-09T12:31:31Z</time>
      </trkpt>
      <trkpt lat="44.84687" lon="-0.21126">
        <ele>5.7</ele>
        <time>2020-09-09T12:31:33Z</time>
      </trkpt>
      <trkpt lat="44.84688" lon="-0.21128">
        <ele>5.7</ele>
        <time>2020-09-09T12:31:34Z</time>
      </trkpt>
      <trkpt lat="44.84689" lon="-0.21129">
        <ele>5.7</ele>
        <time>2020-09-09T12:31:35Z</time>
      </trkpt>
      <trkpt lat="44.8469" lon="-0.21132">
        <ele>5.8</ele>
        <time>2020-09-09T12:31:37Z</time>
      </trkpt>
      <trkpt lat="44.8469" lon="-0.21133">
        <ele>5.8</ele>
        <time>2020-09-09T12:31:38Z</time>
      </trkpt>
      <trkpt lat="44.84691" lon="-0.21135">
        <ele>5.8</ele>
        <time>2020-09-09T12:31:39Z</time>
      </trkpt>
      <trkpt lat="44.84692" lon="-0.21136">
        <ele>5.9</ele>
        <time>2020-09-09T12:31:40Z</time>
      </trkpt>
      <trkpt lat="44.84693" lon="-0.21138">
        <ele>5.9</ele>
        <time>2020-09-09T12:31:41Z</time>
      </trkpt>
      <trkpt lat="44.84693" lon="-0.2114">
        <ele>5.9</ele>
        <time>2020-09-09T12:31:42Z</time>
      </trkpt>
      <trkpt lat="44.84695" lon="-0.21143">
        <ele>6</ele>
        <time>2020-09-09T12:31:43Z</time>
      </trkpt>
      <trkpt lat="44.84695" lon="-0.21144">
        <ele>6</ele>
        <time>2020-09-09T12:31:45Z</time>
      </trkpt>
      <trkpt lat="44.84696" lon="-0.21146">
        <ele>6.1</ele>
        <time>2020-09-09T12:31:46Z</time>
      </trkpt>
      <trkpt lat="44.84697" lon="-0.21147">
        <ele>6.1</ele>
        <time>2020-09-09T12:31:47Z</time>
      </trkpt>
      <trkpt lat="44.84698" lon="-0.21149">
        <ele>6.1</ele>
        <time>2020-09-09T12:31:49Z</time>
      </trkpt>
      <trkpt lat="44.84698" lon="-0.2115">
        <ele>6.1</ele>
        <time>2020-09-09T12:31:50Z</time>
      </trkpt>
      <trkpt lat="44.84699" lon="-0.21152">
        <ele>6.2</ele>
        <time>2020-09-09T12:31:51Z</time>
      </trkpt>
      <trkpt lat="44.847" lon="-0.21153">
        <ele>6.3</ele>
        <time>2020-09-09T12:31:52Z</time>
      </trkpt>
      <trkpt lat="44.847" lon="-0.21154">
        <ele>6.3</ele>
        <time>2020-09-09T12:31:53Z</time>
      </trkpt>
      <trkpt lat="44.84701" lon="-0.21156">
        <ele>6.3</ele>
        <time>2020-09-09T12:31:54Z</time>
      </trkpt>
      <trkpt lat="44.84701" lon="-0.21157">
        <ele>6.3</ele>
        <time>2020-09-09T12:31:55Z</time>
      </trkpt>
      <trkpt lat="44.84703" lon="-0.2116">
        <ele>6.3</ele>
        <time>2020-09-09T12:31:56Z</time>
      </trkpt>
      <trkpt lat="44.84703" lon="-0.21161">
        <ele>6.3</ele>
        <time>2020-09-09T12:31:58Z</time>
      </trkpt>
      <trkpt lat="44.84704" lon="-0.21163">
        <ele>6.4</ele>
        <time>2020-09-09T12:31:59Z</time>
      </trkpt>
      <trkpt lat="44.84705" lon="-0.21164">
        <ele>6.4</ele>
        <time>2020-09-09T12:32:01Z</time>
      </trkpt>
      <trkpt lat="44.84705" lon="-0.21165">
        <ele>6.4</ele>
        <time>2020-09-09T12:32:02Z</time>
      </trkpt>
      <trkpt lat="44.84706" lon="-0.21166">
        <ele>6.5</ele>
        <time>2020-09-09T12:32:03Z</time>
      </trkpt>
      <trkpt lat="44.84706" lon="-0.21168">
        <ele>6.5</ele>
        <time>2020-09-09T12:32:04Z</time>
      </trkpt>
      <trkpt lat="44.84707" lon="-0.21169">
        <ele>6.5</ele>
        <time>2020-09-09T12:32:05Z</time>
      </trkpt>
      <trkpt lat="44.84708" lon="-0.21171">
        <ele>6.5</ele>
        <time>2020-09-09T12:32:06Z</time>
      </trkpt>
      <trkpt lat="44.84708" lon="-0.21173">
        <ele>6.6</ele>
        <time>2020-09-09T12:32:07Z</time>
      </trkpt>
      <trkpt lat="44.84709" lon="-0.21175">
        <ele>6.6</ele>
        <time>2020-09-09T12:32:08Z</time>
      </trkpt>
      <trkpt lat="44.84709" lon="-0.21176">
        <ele>6.6</ele>
        <time>2020-09-09T12:32:10Z</time>
      </trkpt>
      <trkpt lat="44.8471" lon="-0.21177">
        <ele>6.6</ele>
        <time>2020-09-09T12:32:11Z</time>
      </trkpt>
      <trkpt lat="44.8471" lon="-0.2118">
        <ele>6.6</ele>
        <time>2020-09-09T12:32:12Z</time>
      </trkpt>
      <trkpt lat="44.84711" lon="-0.21181">
        <ele>6.6</ele>
        <time>2020-09-09T12:32:13Z</time>
      </trkpt>
      <trkpt lat="44.84712" lon="-0.21184">
        <ele>6.6</ele>
        <time>2020-09-09T12:32:15Z</time>
      </trkpt>
      <trkpt lat="44.84713" lon="-0.21185">
        <ele>6.6</ele>
        <time>2020-09-09T12:32:16Z</time>
      </trkpt>
      <trkpt lat="44.84714" lon="-0.21188">
        <ele>6.6</ele>
        <time>2020-09-09T12:32:17Z</time>
      </trkpt>
      <trkpt lat="44.84714" lon="-0.21189">
        <ele>6.6</ele>
        <time>2020-09-09T12:32:18Z</time>
      </trkpt>
      <trkpt lat="44.84715" lon="-0.2119">
        <ele>6.6</ele>
        <time>2020-09-09T12:32:19Z</time>
      </trkpt>
      <trkpt lat="44.84716" lon="-0.21191">
        <ele>6.6</ele>
        <time>2020-09-09T12:32:20Z</time>
      </trkpt>
      <trkpt lat="44.84718" lon="-0.21193">
        <ele>6.6</ele>
        <time>2020-09-09T12:32:22Z</time>
      </trkpt>
      <trkpt lat="44.84719" lon="-0.21195">
        <ele>6.6</ele>
        <time>2020-09-09T12:32:23Z</time>
      </trkpt>
      <trkpt lat="44.8472" lon="-0.21195">
        <ele>6.6</ele>
        <time>2020-09-09T12:32:24Z</time>
      </trkpt>
      <trkpt lat="44.84721" lon="-0.21196">
        <ele>6.6</ele>
        <time>2020-09-09T12:32:25Z</time>
      </trkpt>
      <trkpt lat="44.84723" lon="-0.21199">
        <ele>6.6</ele>
        <time>2020-09-09T12:32:26Z</time>
      </trkpt>
      <trkpt lat="44.84723" lon="-0.212">
        <ele>6.5</ele>
        <time>2020-09-09T12:32:27Z</time>
      </trkpt>
      <trkpt lat="44.84724" lon="-0.21201">
        <ele>6.5</ele>
        <time>2020-09-09T12:32:28Z</time>
      </trkpt>
      <trkpt lat="44.84726" lon="-0.21203">
        <ele>6.5</ele>
        <time>2020-09-09T12:32:30Z</time>
      </trkpt>
      <trkpt lat="44.84726" lon="-0.21204">
        <ele>6.5</ele>
        <time>2020-09-09T12:32:31Z</time>
      </trkpt>
      <trkpt lat="44.84728" lon="-0.21206">
        <ele>6.5</ele>
        <time>2020-09-09T12:32:32Z</time>
      </trkpt>
      <trkpt lat="44.84728" lon="-0.21208">
        <ele>6.5</ele>
        <time>2020-09-09T12:32:34Z</time>
      </trkpt>
      <trkpt lat="44.84729" lon="-0.2121">
        <ele>6.4</ele>
        <time>2020-09-09T12:32:35Z</time>
      </trkpt>
      <trkpt lat="44.8473" lon="-0.21213">
        <ele>6.4</ele>
        <time>2020-09-09T12:32:37Z</time>
      </trkpt>
      <trkpt lat="44.8473" lon="-0.21215">
        <ele>6.4</ele>
        <time>2020-09-09T12:32:38Z</time>
      </trkpt>
      <trkpt lat="44.84729" lon="-0.21217">
        <ele>6.4</ele>
        <time>2020-09-09T12:32:40Z</time>
      </trkpt>
      <trkpt lat="44.84728" lon="-0.21218">
        <ele>6.4</ele>
        <time>2020-09-09T12:32:41Z</time>
      </trkpt>
      <trkpt lat="44.84726" lon="-0.21221">
        <ele>6.4</ele>
        <time>2020-09-09T12:32:43Z</time>
      </trkpt>
      <trkpt lat="44.84725" lon="-0.21222">
        <ele>6.4</ele>
        <time>2020-09-09T12:32:44Z</time>
      </trkpt>
      <trkpt lat="44.84724" lon="-0.21223">
        <ele>6.4</ele>
        <time>2020-09-09T12:32:45Z</time>
      </trkpt>
      <trkpt lat="44.84722" lon="-0.21224">
        <ele>6.4</ele>
        <time>2020-09-09T12:32:46Z</time>
      </trkpt>
      <trkpt lat="44.84718" lon="-0.21226">
        <ele>6.4</ele>
        <time>2020-09-09T12:32:48Z</time>
      </trkpt>
      <trkpt lat="44.84717" lon="-0.21227">
        <ele>6.4</ele>
        <time>2020-09-09T12:32:50Z</time>
      </trkpt>
      <trkpt lat="44.84716" lon="-0.21227">
        <ele>6.5</ele>
        <time>2020-09-09T12:32:51Z</time>
      </trkpt>
      <trkpt lat="44.84713" lon="-0.21228">
        <ele>6.5</ele>
        <time>2020-09-09T12:32:52Z</time>
      </trkpt>
      <trkpt lat="44.84709" lon="-0.21228">
        <ele>6.5</ele>
        <time>2020-09-09T12:32:54Z</time>
      </trkpt>
      <trkpt lat="44.84708" lon="-0.21228">
        <ele>6.5</ele>
        <time>2020-09-09T12:32:55Z</time>
      </trkpt>
      <trkpt lat="44.84706" lon="-0.21228">
        <ele>6.5</ele>
        <time>2020-09-09T12:32:57Z</time>
      </trkpt>
      <trkpt lat="44.84705" lon="-0.21229">
        <ele>6.5</ele>
        <time>2020-09-09T12:32:58Z</time>
      </trkpt>
      <trkpt lat="44.84703" lon="-0.2123">
        <ele>6.6</ele>
        <time>2020-09-09T12:33:00Z</time>
      </trkpt>
      <trkpt lat="44.84702" lon="-0.2123">
        <ele>6.6</ele>
        <time>2020-09-09T12:33:01Z</time>
      </trkpt>
      <trkpt lat="44.84701" lon="-0.21231">
        <ele>6.6</ele>
        <time>2020-09-09T12:33:02Z</time>
      </trkpt>
      <trkpt lat="44.84701" lon="-0.21232">
        <ele>6.6</ele>
        <time>2020-09-09T12:33:03Z</time>
      </trkpt>
      <trkpt lat="44.847" lon="-0.21233">
        <ele>6.6</ele>
        <time>2020-09-09T12:33:04Z</time>
      </trkpt>
      <trkpt lat="44.84698" lon="-0.21234">
        <ele>6.6</ele>
        <time>2020-09-09T12:33:06Z</time>
      </trkpt>
      <trkpt lat="44.84698" lon="-0.21235">
        <ele>6.6</ele>
        <time>2020-09-09T12:33:07Z</time>
      </trkpt>
      <trkpt lat="44.84696" lon="-0.21236">
        <ele>6.6</ele>
        <time>2020-09-09T12:33:08Z</time>
      </trkpt>
      <trkpt lat="44.84695" lon="-0.21238">
        <ele>6.6</ele>
        <time>2020-09-09T12:33:09Z</time>
      </trkpt>
      <trkpt lat="44.84693" lon="-0.21239">
        <ele>6.6</ele>
        <time>2020-09-09T12:33:10Z</time>
      </trkpt>
      <trkpt lat="44.84692" lon="-0.2124">
        <ele>6.6</ele>
        <time>2020-09-09T12:33:11Z</time>
      </trkpt>
      <trkpt lat="44.84689" lon="-0.21243">
        <ele>6.7</ele>
        <time>2020-09-09T12:33:13Z</time>
      </trkpt>
      <trkpt lat="44.84689" lon="-0.21243">
        <ele>6.6</ele>
        <time>2020-09-09T12:33:14Z</time>
      </trkpt>
      <trkpt lat="44.84688" lon="-0.21244">
        <ele>6.6</ele>
        <time>2020-09-09T12:33:15Z</time>
      </trkpt>
      <trkpt lat="44.84687" lon="-0.21245">
        <ele>6.6</ele>
        <time>2020-09-09T12:33:16Z</time>
      </trkpt>
      <trkpt lat="44.84686" lon="-0.21246">
        <ele>6.7</ele>
        <time>2020-09-09T12:33:17Z</time>
      </trkpt>
      <trkpt lat="44.84685" lon="-0.21247">
        <ele>6.7</ele>
        <time>2020-09-09T12:33:19Z</time>
      </trkpt>
      <trkpt lat="44.84684" lon="-0.21247">
        <ele>6.7</ele>
        <time>2020-09-09T12:33:21Z</time>
      </trkpt>
      <trkpt lat="44.84683" lon="-0.21247">
        <ele>6.7</ele>
        <time>2020-09-09T12:33:22Z</time>
      </trkpt>
      <trkpt lat="44.84682" lon="-0.21248">
        <ele>6.7</ele>
        <time>2020-09-09T12:33:23Z</time>
      </trkpt>
      <trkpt lat="44.84681" lon="-0.21249">
        <ele>6.7</ele>
        <time>2020-09-09T12:33:24Z</time>
      </trkpt>
      <trkpt lat="44.8468" lon="-0.2125">
        <ele>6.7</ele>
        <time>2020-09-09T12:33:25Z</time>
      </trkpt>
      <trkpt lat="44.84679" lon="-0.21251">
        <ele>6.7</ele>
        <time>2020-09-09T12:33:26Z</time>
      </trkpt>
      <trkpt lat="44.84677" lon="-0.21252">
        <ele>6.7</ele>
        <time>2020-09-09T12:33:28Z</time>
      </trkpt>
      <trkpt lat="44.84674" lon="-0.21254">
        <ele>6.7</ele>
        <time>2020-09-09T12:33:29Z</time>
      </trkpt>
      <trkpt lat="44.84673" lon="-0.21254">
        <ele>6.7</ele>
        <time>2020-09-09T12:33:30Z</time>
      </trkpt>
      <trkpt lat="44.84672" lon="-0.21256">
        <ele>6.7</ele>
        <time>2020-09-09T12:33:32Z</time>
      </trkpt>
      <trkpt lat="44.84671" lon="-0.21257">
        <ele>6.7</ele>
        <time>2020-09-09T12:33:33Z</time>
      </trkpt>
      <trkpt lat="44.84669" lon="-0.21258">
        <ele>6.7</ele>
        <time>2020-09-09T12:33:35Z</time>
      </trkpt>
      <trkpt lat="44.84669" lon="-0.21259">
        <ele>6.7</ele>
        <time>2020-09-09T12:33:36Z</time>
      </trkpt>
      <trkpt lat="44.84668" lon="-0.2126">
        <ele>6.7</ele>
        <time>2020-09-09T12:33:37Z</time>
      </trkpt>
      <trkpt lat="44.84667" lon="-0.2126">
        <ele>6.7</ele>
        <time>2020-09-09T12:33:38Z</time>
      </trkpt>
      <trkpt lat="44.84666" lon="-0.21262">
        <ele>6.7</ele>
        <time>2020-09-09T12:33:39Z</time>
      </trkpt>
      <trkpt lat="44.84665" lon="-0.21262">
        <ele>6.7</ele>
        <time>2020-09-09T12:33:40Z</time>
      </trkpt>
      <trkpt lat="44.84664" lon="-0.21263">
        <ele>6.7</ele>
        <time>2020-09-09T12:33:41Z</time>
      </trkpt>
      <trkpt lat="44.84663" lon="-0.21264">
        <ele>6.7</ele>
        <time>2020-09-09T12:33:43Z</time>
      </trkpt>
      <trkpt lat="44.84661" lon="-0.21266">
        <ele>6.6</ele>
        <time>2020-09-09T12:33:44Z</time>
      </trkpt>
      <trkpt lat="44.8466" lon="-0.21267">
        <ele>6.6</ele>
        <time>2020-09-09T12:33:45Z</time>
      </trkpt>
      <trkpt lat="44.84659" lon="-0.21268">
        <ele>6.6</ele>
        <time>2020-09-09T12:33:46Z</time>
      </trkpt>
      <trkpt lat="44.84657" lon="-0.21269">
        <ele>6.6</ele>
        <time>2020-09-09T12:33:47Z</time>
      </trkpt>
      <trkpt lat="44.84655" lon="-0.2127">
        <ele>6.6</ele>
        <time>2020-09-09T12:33:49Z</time>
      </trkpt>
      <trkpt lat="44.84654" lon="-0.21271">
        <ele>6.6</ele>
        <time>2020-09-09T12:33:50Z</time>
      </trkpt>
      <trkpt lat="44.84653" lon="-0.21271">
        <ele>6.6</ele>
        <time>2020-09-09T12:33:51Z</time>
      </trkpt>
      <trkpt lat="44.84652" lon="-0.21272">
        <ele>6.6</ele>
        <time>2020-09-09T12:33:52Z</time>
      </trkpt>
      <trkpt lat="44.84651" lon="-0.21273">
        <ele>6.6</ele>
        <time>2020-09-09T12:33:53Z</time>
      </trkpt>
      <trkpt lat="44.8465" lon="-0.21274">
        <ele>6.5</ele>
        <time>2020-09-09T12:33:54Z</time>
      </trkpt>
      <trkpt lat="44.84648" lon="-0.21276">
        <ele>6.5</ele>
        <time>2020-09-09T12:33:56Z</time>
      </trkpt>
      <trkpt lat="44.84647" lon="-0.21277">
        <ele>6.5</ele>
        <time>2020-09-09T12:33:57Z</time>
      </trkpt>
      <trkpt lat="44.84647" lon="-0.21278">
        <ele>6.5</ele>
        <time>2020-09-09T12:33:58Z</time>
      </trkpt>
      <trkpt lat="44.84645" lon="-0.21279">
        <ele>6.5</ele>
        <time>2020-09-09T12:34:00Z</time>
      </trkpt>
      <trkpt lat="44.84644" lon="-0.2128">
        <ele>6.5</ele>
        <time>2020-09-09T12:34:01Z</time>
      </trkpt>
      <trkpt lat="44.84643" lon="-0.21282">
        <ele>6.4</ele>
        <time>2020-09-09T12:34:02Z</time>
      </trkpt>
      <trkpt lat="44.84642" lon="-0.21282">
        <ele>6.4</ele>
        <time>2020-09-09T12:34:03Z</time>
      </trkpt>
      <trkpt lat="44.84642" lon="-0.21283">
        <ele>6.4</ele>
        <time>2020-09-09T12:34:04Z</time>
      </trkpt>
      <trkpt lat="44.8464" lon="-0.21286">
        <ele>6.4</ele>
        <time>2020-09-09T12:34:06Z</time>
      </trkpt>
      <trkpt lat="44.84639" lon="-0.21288">
        <ele>6.3</ele>
        <time>2020-09-09T12:34:07Z</time>
      </trkpt>
      <trkpt lat="44.84638" lon="-0.21289">
        <ele>6.3</ele>
        <time>2020-09-09T12:34:08Z</time>
      </trkpt>
      <trkpt lat="44.84637" lon="-0.21291">
        <ele>6.2</ele>
        <time>2020-09-09T12:34:10Z</time>
      </trkpt>
      <trkpt lat="44.84636" lon="-0.21292">
        <ele>6.2</ele>
        <time>2020-09-09T12:34:11Z</time>
      </trkpt>
      <trkpt lat="44.84635" lon="-0.21294">
        <ele>6.2</ele>
        <time>2020-09-09T12:34:12Z</time>
      </trkpt>
      <trkpt lat="44.84633" lon="-0.21295">
        <ele>6.2</ele>
        <time>2020-09-09T12:34:13Z</time>
      </trkpt>
      <trkpt lat="44.84632" lon="-0.21296">
        <ele>6.2</ele>
        <time>2020-09-09T12:34:14Z</time>
      </trkpt>
      <trkpt lat="44.84632" lon="-0.21297">
        <ele>6.1</ele>
        <time>2020-09-09T12:34:15Z</time>
      </trkpt>
      <trkpt lat="44.84631" lon="-0.21298">
        <ele>6.1</ele>
        <time>2020-09-09T12:34:16Z</time>
      </trkpt>
      <trkpt lat="44.84629" lon="-0.21299">
        <ele>6.1</ele>
        <time>2020-09-09T12:34:18Z</time>
      </trkpt>
      <trkpt lat="44.84629" lon="-0.213">
        <ele>6.1</ele>
        <time>2020-09-09T12:34:19Z</time>
      </trkpt>
      <trkpt lat="44.84628" lon="-0.213">
        <ele>6.1</ele>
        <time>2020-09-09T12:34:20Z</time>
      </trkpt>
      <trkpt lat="44.84627" lon="-0.21301">
        <ele>6.1</ele>
        <time>2020-09-09T12:34:21Z</time>
      </trkpt>
      <trkpt lat="44.84626" lon="-0.21302">
        <ele>6.1</ele>
        <time>2020-09-09T12:34:22Z</time>
      </trkpt>
      <trkpt lat="44.84625" lon="-0.21303">
        <ele>6</ele>
        <time>2020-09-09T12:34:24Z</time>
      </trkpt>
      <trkpt lat="44.84624" lon="-0.21304">
        <ele>6</ele>
        <time>2020-09-09T12:34:25Z</time>
      </trkpt>
      <trkpt lat="44.84623" lon="-0.21306">
        <ele>6</ele>
        <time>2020-09-09T12:34:26Z</time>
      </trkpt>
      <trkpt lat="44.84622" lon="-0.21307">
        <ele>5.9</ele>
        <time>2020-09-09T12:34:27Z</time>
      </trkpt>
      <trkpt lat="44.8462" lon="-0.21308">
        <ele>5.9</ele>
        <time>2020-09-09T12:34:28Z</time>
      </trkpt>
      <trkpt lat="44.84619" lon="-0.2131">
        <ele>5.9</ele>
        <time>2020-09-09T12:34:29Z</time>
      </trkpt>
      <trkpt lat="44.84618" lon="-0.2131">
        <ele>5.9</ele>
        <time>2020-09-09T12:34:30Z</time>
      </trkpt>
      <trkpt lat="44.84616" lon="-0.21312">
        <ele>5.8</ele>
        <time>2020-09-09T12:34:32Z</time>
      </trkpt>
      <trkpt lat="44.84616" lon="-0.21312">
        <ele>5.8</ele>
        <time>2020-09-09T12:34:33Z</time>
      </trkpt>
      <trkpt lat="44.84615" lon="-0.21313">
        <ele>5.8</ele>
        <time>2020-09-09T12:34:34Z</time>
      </trkpt>
      <trkpt lat="44.84613" lon="-0.21313">
        <ele>5.8</ele>
        <time>2020-09-09T12:34:35Z</time>
      </trkpt>
      <trkpt lat="44.84612" lon="-0.21314">
        <ele>5.8</ele>
        <time>2020-09-09T12:34:36Z</time>
      </trkpt>
      <trkpt lat="44.8461" lon="-0.21316">
        <ele>5.8</ele>
        <time>2020-09-09T12:34:38Z</time>
      </trkpt>
      <trkpt lat="44.8461" lon="-0.21317">
        <ele>5.7</ele>
        <time>2020-09-09T12:34:39Z</time>
      </trkpt>
      <trkpt lat="44.84608" lon="-0.21318">
        <ele>5.7</ele>
        <time>2020-09-09T12:34:40Z</time>
      </trkpt>
      <trkpt lat="44.84607" lon="-0.21319">
        <ele>5.7</ele>
        <time>2020-09-09T12:34:41Z</time>
      </trkpt>
      <trkpt lat="44.84605" lon="-0.21321">
        <ele>5.6</ele>
        <time>2020-09-09T12:34:42Z</time>
      </trkpt>
      <trkpt lat="44.84604" lon="-0.21322">
        <ele>5.6</ele>
        <time>2020-09-09T12:34:43Z</time>
      </trkpt>
      <trkpt lat="44.84603" lon="-0.21323">
        <ele>5.6</ele>
        <time>2020-09-09T12:34:45Z</time>
      </trkpt>
      <trkpt lat="44.84602" lon="-0.21324">
        <ele>5.6</ele>
        <time>2020-09-09T12:34:46Z</time>
      </trkpt>
      <trkpt lat="44.84601" lon="-0.21324">
        <ele>5.6</ele>
        <time>2020-09-09T12:34:47Z</time>
      </trkpt>
      <trkpt lat="44.846" lon="-0.21325">
        <ele>5.6</ele>
        <time>2020-09-09T12:34:48Z</time>
      </trkpt>
      <trkpt lat="44.84598" lon="-0.21327">
        <ele>5.6</ele>
        <time>2020-09-09T12:34:50Z</time>
      </trkpt>
      <trkpt lat="44.84597" lon="-0.21328">
        <ele>5.5</ele>
        <time>2020-09-09T12:34:52Z</time>
      </trkpt>
      <trkpt lat="44.84595" lon="-0.21329">
        <ele>5.5</ele>
        <time>2020-09-09T12:34:54Z</time>
      </trkpt>
      <trkpt lat="44.84594" lon="-0.2133">
        <ele>5.5</ele>
        <time>2020-09-09T12:34:55Z</time>
      </trkpt>
      <trkpt lat="44.84594" lon="-0.2133">
        <ele>5.5</ele>
        <time>2020-09-09T12:34:56Z</time>
      </trkpt>
      <trkpt lat="44.84592" lon="-0.21331">
        <ele>5.5</ele>
        <time>2020-09-09T12:34:57Z</time>
      </trkpt>
      <trkpt lat="44.8459" lon="-0.21334">
        <ele>5.4</ele>
        <time>2020-09-09T12:34:58Z</time>
      </trkpt>
      <trkpt lat="44.84589" lon="-0.21334">
        <ele>5.4</ele>
        <time>2020-09-09T12:34:59Z</time>
      </trkpt>
      <trkpt lat="44.84589" lon="-0.21336">
        <ele>5.4</ele>
        <time>2020-09-09T12:35:00Z</time>
      </trkpt>
      <trkpt lat="44.84587" lon="-0.21338">
        <ele>5.4</ele>
        <time>2020-09-09T12:35:02Z</time>
      </trkpt>
      <trkpt lat="44.84586" lon="-0.2134">
        <ele>5.4</ele>
        <time>2020-09-09T12:35:03Z</time>
      </trkpt>
      <trkpt lat="44.84585" lon="-0.2134">
        <ele>5.4</ele>
        <time>2020-09-09T12:35:04Z</time>
      </trkpt>
      <trkpt lat="44.84585" lon="-0.21341">
        <ele>5.4</ele>
        <time>2020-09-09T12:35:05Z</time>
      </trkpt>
      <trkpt lat="44.84584" lon="-0.21343">
        <ele>5.4</ele>
        <time>2020-09-09T12:35:06Z</time>
      </trkpt>
      <trkpt lat="44.84582" lon="-0.21344">
        <ele>5.4</ele>
        <time>2020-09-09T12:35:07Z</time>
      </trkpt>
      <trkpt lat="44.8458" lon="-0.21347">
        <ele>5.3</ele>
        <time>2020-09-09T12:35:08Z</time>
      </trkpt>
      <trkpt lat="44.84579" lon="-0.21348">
        <ele>5.3</ele>
        <time>2020-09-09T12:35:10Z</time>
      </trkpt>
      <trkpt lat="44.84579" lon="-0.21349">
        <ele>5.3</ele>
        <time>2020-09-09T12:35:11Z</time>
      </trkpt>
      <trkpt lat="44.84578" lon="-0.2135">
        <ele>5.3</ele>
        <time>2020-09-09T12:35:12Z</time>
      </trkpt>
      <trkpt lat="44.84577" lon="-0.21351">
        <ele>5.3</ele>
        <time>2020-09-09T12:35:13Z</time>
      </trkpt>
      <trkpt lat="44.84576" lon="-0.21352">
        <ele>5.3</ele>
        <time>2020-09-09T12:35:15Z</time>
      </trkpt>
      <trkpt lat="44.84576" lon="-0.21354">
        <ele>5.3</ele>
        <time>2020-09-09T12:35:16Z</time>
      </trkpt>
      <trkpt lat="44.84575" lon="-0.21355">
        <ele>5.3</ele>
        <time>2020-09-09T12:35:17Z</time>
      </trkpt>
      <trkpt lat="44.84574" lon="-0.21357">
        <ele>5.3</ele>
        <time>2020-09-09T12:35:18Z</time>
      </trkpt>
      <trkpt lat="44.84573" lon="-0.21359">
        <ele>5.3</ele>
        <time>2020-09-09T12:35:19Z</time>
      </trkpt>
      <trkpt lat="44.84572" lon="-0.2136">
        <ele>5.3</ele>
        <time>2020-09-09T12:35:20Z</time>
      </trkpt>
      <trkpt lat="44.84572" lon="-0.21361">
        <ele>5.3</ele>
        <time>2020-09-09T12:35:21Z</time>
      </trkpt>
      <trkpt lat="44.84569" lon="-0.21365">
        <ele>5.3</ele>
        <time>2020-09-09T12:35:23Z</time>
      </trkpt>
      <trkpt lat="44.84568" lon="-0.21366">
        <ele>5.3</ele>
        <time>2020-09-09T12:35:25Z</time>
      </trkpt>
      <trkpt lat="44.84568" lon="-0.21367">
        <ele>5.3</ele>
        <time>2020-09-09T12:35:26Z</time>
      </trkpt>
      <trkpt lat="44.84567" lon="-0.21369">
        <ele>5.3</ele>
        <time>2020-09-09T12:35:27Z</time>
      </trkpt>
      <trkpt lat="44.84566" lon="-0.2137">
        <ele>5.3</ele>
        <time>2020-09-09T12:35:28Z</time>
      </trkpt>
      <trkpt lat="44.84565" lon="-0.21371">
        <ele>5.3</ele>
        <time>2020-09-09T12:35:29Z</time>
      </trkpt>
      <trkpt lat="44.84565" lon="-0.21372">
        <ele>5.2</ele>
        <time>2020-09-09T12:35:30Z</time>
      </trkpt>
      <trkpt lat="44.84563" lon="-0.21375">
        <ele>5.2</ele>
        <time>2020-09-09T12:35:32Z</time>
      </trkpt>
      <trkpt lat="44.84562" lon="-0.21376">
        <ele>5.2</ele>
        <time>2020-09-09T12:35:33Z</time>
      </trkpt>
      <trkpt lat="44.84561" lon="-0.21378">
        <ele>5.2</ele>
        <time>2020-09-09T12:35:34Z</time>
      </trkpt>
      <trkpt lat="44.8456" lon="-0.21379">
        <ele>5.2</ele>
        <time>2020-09-09T12:35:35Z</time>
      </trkpt>
      <trkpt lat="44.84559" lon="-0.21381">
        <ele>5.2</ele>
        <time>2020-09-09T12:35:37Z</time>
      </trkpt>
      <trkpt lat="44.84555" lon="-0.21385">
        <ele>5.2</ele>
        <time>2020-09-09T12:35:39Z</time>
      </trkpt>
      <trkpt lat="44.84554" lon="-0.21386">
        <ele>5.2</ele>
        <time>2020-09-09T12:35:41Z</time>
      </trkpt>
      <trkpt lat="44.84553" lon="-0.21387">
        <ele>5.2</ele>
        <time>2020-09-09T12:35:42Z</time>
      </trkpt>
      <trkpt lat="44.84552" lon="-0.21388">
        <ele>5.2</ele>
        <time>2020-09-09T12:35:43Z</time>
      </trkpt>
      <trkpt lat="44.84551" lon="-0.21389">
        <ele>5.2</ele>
        <time>2020-09-09T12:35:44Z</time>
      </trkpt>
      <trkpt lat="44.8455" lon="-0.2139">
        <ele>5.3</ele>
        <time>2020-09-09T12:35:46Z</time>
      </trkpt>
      <trkpt lat="44.84549" lon="-0.21391">
        <ele>5.3</ele>
        <time>2020-09-09T12:35:47Z</time>
      </trkpt>
      <trkpt lat="44.84548" lon="-0.21393">
        <ele>5.3</ele>
        <time>2020-09-09T12:35:48Z</time>
      </trkpt>
      <trkpt lat="44.84547" lon="-0.21394">
        <ele>5.3</ele>
        <time>2020-09-09T12:35:49Z</time>
      </trkpt>
      <trkpt lat="44.84545" lon="-0.21396">
        <ele>5.3</ele>
        <time>2020-09-09T12:35:51Z</time>
      </trkpt>
      <trkpt lat="44.84544" lon="-0.21397">
        <ele>5.3</ele>
        <time>2020-09-09T12:35:52Z</time>
      </trkpt>
      <trkpt lat="44.84542" lon="-0.21398">
        <ele>5.3</ele>
        <time>2020-09-09T12:35:53Z</time>
      </trkpt>
      <trkpt lat="44.84541" lon="-0.21399">
        <ele>5.3</ele>
        <time>2020-09-09T12:35:54Z</time>
      </trkpt>
      <trkpt lat="44.84539" lon="-0.21399">
        <ele>5.3</ele>
        <time>2020-09-09T12:35:55Z</time>
      </trkpt>
      <trkpt lat="44.84537" lon="-0.214">
        <ele>5.3</ele>
        <time>2020-09-09T12:35:57Z</time>
      </trkpt>
      <trkpt lat="44.84536" lon="-0.214">
        <ele>5.3</ele>
        <time>2020-09-09T12:35:59Z</time>
      </trkpt>
      <trkpt lat="44.84535" lon="-0.21401">
        <ele>5.3</ele>
        <time>2020-09-09T12:36:00Z</time>
      </trkpt>
      <trkpt lat="44.84533" lon="-0.21402">
        <ele>5.3</ele>
        <time>2020-09-09T12:36:01Z</time>
      </trkpt>
      <trkpt lat="44.84532" lon="-0.21403">
        <ele>5.3</ele>
        <time>2020-09-09T12:36:02Z</time>
      </trkpt>
      <trkpt lat="44.84531" lon="-0.21404">
        <ele>5.3</ele>
        <time>2020-09-09T12:36:04Z</time>
      </trkpt>
      <trkpt lat="44.8453" lon="-0.21404">
        <ele>5.3</ele>
        <time>2020-09-09T12:36:05Z</time>
      </trkpt>
      <trkpt lat="44.84529" lon="-0.21405">
        <ele>5.3</ele>
        <time>2020-09-09T12:36:06Z</time>
      </trkpt>
      <trkpt lat="44.84528" lon="-0.21406">
        <ele>5.3</ele>
        <time>2020-09-09T12:36:07Z</time>
      </trkpt>
      <trkpt lat="44.84527" lon="-0.21407">
        <ele>5.4</ele>
        <time>2020-09-09T12:36:08Z</time>
      </trkpt>
      <trkpt lat="44.84526" lon="-0.21408">
        <ele>5.4</ele>
        <time>2020-09-09T12:36:09Z</time>
      </trkpt>
      <trkpt lat="44.84525" lon="-0.21408">
        <ele>5.4</ele>
        <time>2020-09-09T12:36:10Z</time>
      </trkpt>
      <trkpt lat="44.84524" lon="-0.21409">
        <ele>5.4</ele>
        <time>2020-09-09T12:36:11Z</time>
      </trkpt>
      <trkpt lat="44.84523" lon="-0.2141">
        <ele>5.4</ele>
        <time>2020-09-09T12:36:12Z</time>
      </trkpt>
      <trkpt lat="44.84522" lon="-0.2141">
        <ele>5.4</ele>
        <time>2020-09-09T12:36:13Z</time>
      </trkpt>
      <trkpt lat="44.84521" lon="-0.21411">
        <ele>5.4</ele>
        <time>2020-09-09T12:36:14Z</time>
      </trkpt>
      <trkpt lat="44.8452" lon="-0.21413">
        <ele>5.4</ele>
        <time>2020-09-09T12:36:15Z</time>
      </trkpt>
      <trkpt lat="44.84516" lon="-0.21416">
        <ele>5.5</ele>
        <time>2020-09-09T12:36:17Z</time>
      </trkpt>
      <trkpt lat="44.84514" lon="-0.21418">
        <ele>5.5</ele>
        <time>2020-09-09T12:36:18Z</time>
      </trkpt>
      <trkpt lat="44.84512" lon="-0.2142">
        <ele>5.6</ele>
        <time>2020-09-09T12:36:20Z</time>
      </trkpt>
      <trkpt lat="44.8451" lon="-0.21421">
        <ele>5.6</ele>
        <time>2020-09-09T12:36:21Z</time>
      </trkpt>
      <trkpt lat="44.84509" lon="-0.21422">
        <ele>5.6</ele>
        <time>2020-09-09T12:36:23Z</time>
      </trkpt>
      <trkpt lat="44.84507" lon="-0.21425">
        <ele>5.6</ele>
        <time>2020-09-09T12:36:24Z</time>
      </trkpt>
      <trkpt lat="44.84505" lon="-0.21426">
        <ele>5.7</ele>
        <time>2020-09-09T12:36:26Z</time>
      </trkpt>
      <trkpt lat="44.84504" lon="-0.21428">
        <ele>5.7</ele>
        <time>2020-09-09T12:36:27Z</time>
      </trkpt>
      <trkpt lat="44.84502" lon="-0.21429">
        <ele>5.8</ele>
        <time>2020-09-09T12:36:28Z</time>
      </trkpt>
      <trkpt lat="44.845" lon="-0.2143">
        <ele>5.8</ele>
        <time>2020-09-09T12:36:29Z</time>
      </trkpt>
      <trkpt lat="44.84499" lon="-0.21431">
        <ele>5.8</ele>
        <time>2020-09-09T12:36:31Z</time>
      </trkpt>
      <trkpt lat="44.84498" lon="-0.21432">
        <ele>5.9</ele>
        <time>2020-09-09T12:36:32Z</time>
      </trkpt>
      <trkpt lat="44.84497" lon="-0.21433">
        <ele>5.9</ele>
        <time>2020-09-09T12:36:33Z</time>
      </trkpt>
      <trkpt lat="44.84496" lon="-0.21434">
        <ele>5.9</ele>
        <time>2020-09-09T12:36:34Z</time>
      </trkpt>
      <trkpt lat="44.84495" lon="-0.21435">
        <ele>5.9</ele>
        <time>2020-09-09T12:36:35Z</time>
      </trkpt>
      <trkpt lat="44.84494" lon="-0.21436">
        <ele>6</ele>
        <time>2020-09-09T12:36:36Z</time>
      </trkpt>
      <trkpt lat="44.84494" lon="-0.21437">
        <ele>6.1</ele>
        <time>2020-09-09T12:36:37Z</time>
      </trkpt>
      <trkpt lat="44.84493" lon="-0.21437">
        <ele>6.1</ele>
        <time>2020-09-09T12:36:38Z</time>
      </trkpt>
      <trkpt lat="44.84492" lon="-0.21438">
        <ele>6.1</ele>
        <time>2020-09-09T12:36:39Z</time>
      </trkpt>
      <trkpt lat="44.8449" lon="-0.2144">
        <ele>6.1</ele>
        <time>2020-09-09T12:36:41Z</time>
      </trkpt>
      <trkpt lat="44.84488" lon="-0.21442">
        <ele>6.3</ele>
        <time>2020-09-09T12:36:43Z</time>
      </trkpt>
      <trkpt lat="44.84487" lon="-0.21443">
        <ele>6.3</ele>
        <time>2020-09-09T12:36:44Z</time>
      </trkpt>
      <trkpt lat="44.84485" lon="-0.21446">
        <ele>6.4</ele>
        <time>2020-09-09T12:36:46Z</time>
      </trkpt>
      <trkpt lat="44.84483" lon="-0.21448">
        <ele>6.4</ele>
        <time>2020-09-09T12:36:48Z</time>
      </trkpt>
      <trkpt lat="44.84482" lon="-0.2145">
        <ele>6.6</ele>
        <time>2020-09-09T12:36:49Z</time>
      </trkpt>
      <trkpt lat="44.84481" lon="-0.21452">
        <ele>6.6</ele>
        <time>2020-09-09T12:36:50Z</time>
      </trkpt>
      <trkpt lat="44.8448" lon="-0.21453">
        <ele>6.6</ele>
        <time>2020-09-09T12:36:51Z</time>
      </trkpt>
      <trkpt lat="44.84479" lon="-0.21454">
        <ele>6.8</ele>
        <time>2020-09-09T12:36:52Z</time>
      </trkpt>
      <trkpt lat="44.84479" lon="-0.21455">
        <ele>6.8</ele>
        <time>2020-09-09T12:36:53Z</time>
      </trkpt>
      <trkpt lat="44.84478" lon="-0.21456">
        <ele>6.8</ele>
        <time>2020-09-09T12:36:54Z</time>
      </trkpt>
      <trkpt lat="44.84476" lon="-0.21457">
        <ele>6.8</ele>
        <time>2020-09-09T12:36:55Z</time>
      </trkpt>
      <trkpt lat="44.84476" lon="-0.21458">
        <ele>6.9</ele>
        <time>2020-09-09T12:36:56Z</time>
      </trkpt>
      <trkpt lat="44.84475" lon="-0.21459">
        <ele>6.9</ele>
        <time>2020-09-09T12:36:57Z</time>
      </trkpt>
      <trkpt lat="44.84474" lon="-0.2146">
        <ele>6.9</ele>
        <time>2020-09-09T12:36:59Z</time>
      </trkpt>
      <trkpt lat="44.84472" lon="-0.21461">
        <ele>7</ele>
        <time>2020-09-09T12:37:00Z</time>
      </trkpt>
      <trkpt lat="44.8447" lon="-0.21463">
        <ele>7.1</ele>
        <time>2020-09-09T12:37:01Z</time>
      </trkpt>
      <trkpt lat="44.84469" lon="-0.21465">
        <ele>7.2</ele>
        <time>2020-09-09T12:37:03Z</time>
      </trkpt>
      <trkpt lat="44.84468" lon="-0.21466">
        <ele>7.2</ele>
        <time>2020-09-09T12:37:04Z</time>
      </trkpt>
      <trkpt lat="44.84467" lon="-0.21467">
        <ele>7.4</ele>
        <time>2020-09-09T12:37:06Z</time>
      </trkpt>
      <trkpt lat="44.84466" lon="-0.21468">
        <ele>7.4</ele>
        <time>2020-09-09T12:37:07Z</time>
      </trkpt>
      <trkpt lat="44.84464" lon="-0.2147">
        <ele>7.5</ele>
        <time>2020-09-09T12:37:09Z</time>
      </trkpt>
      <trkpt lat="44.84463" lon="-0.21471">
        <ele>7.5</ele>
        <time>2020-09-09T12:37:10Z</time>
      </trkpt>
      <trkpt lat="44.84463" lon="-0.21472">
        <ele>7.6</ele>
        <time>2020-09-09T12:37:11Z</time>
      </trkpt>
      <trkpt lat="44.84461" lon="-0.21474">
        <ele>7.7</ele>
        <time>2020-09-09T12:37:13Z</time>
      </trkpt>
      <trkpt lat="44.8446" lon="-0.21475">
        <ele>7.7</ele>
        <time>2020-09-09T12:37:14Z</time>
      </trkpt>
      <trkpt lat="44.84458" lon="-0.21476">
        <ele>7.7</ele>
        <time>2020-09-09T12:37:16Z</time>
      </trkpt>
      <trkpt lat="44.84457" lon="-0.21478">
        <ele>7.8</ele>
        <time>2020-09-09T12:37:17Z</time>
      </trkpt>
      <trkpt lat="44.84456" lon="-0.21479">
        <ele>7.8</ele>
        <time>2020-09-09T12:37:18Z</time>
      </trkpt>
      <trkpt lat="44.84454" lon="-0.2148">
        <ele>8</ele>
        <time>2020-09-09T12:37:19Z</time>
      </trkpt>
      <trkpt lat="44.84453" lon="-0.21482">
        <ele>8</ele>
        <time>2020-09-09T12:37:20Z</time>
      </trkpt>
      <trkpt lat="44.84452" lon="-0.21483">
        <ele>8.1</ele>
        <time>2020-09-09T12:37:21Z</time>
      </trkpt>
      <trkpt lat="44.84451" lon="-0.21484">
        <ele>8.1</ele>
        <time>2020-09-09T12:37:22Z</time>
      </trkpt>
      <trkpt lat="44.84449" lon="-0.21486">
        <ele>8.1</ele>
        <time>2020-09-09T12:37:24Z</time>
      </trkpt>
      <trkpt lat="44.84448" lon="-0.21487">
        <ele>8.2</ele>
        <time>2020-09-09T12:37:25Z</time>
      </trkpt>
      <trkpt lat="44.84446" lon="-0.2149">
        <ele>8.4</ele>
        <time>2020-09-09T12:37:27Z</time>
      </trkpt>
      <trkpt lat="44.84445" lon="-0.2149">
        <ele>8.4</ele>
        <time>2020-09-09T12:37:28Z</time>
      </trkpt>
      <trkpt lat="44.84443" lon="-0.21492">
        <ele>8.4</ele>
        <time>2020-09-09T12:37:29Z</time>
      </trkpt>
      <trkpt lat="44.84443" lon="-0.21492">
        <ele>8.5</ele>
        <time>2020-09-09T12:37:30Z</time>
      </trkpt>
      <trkpt lat="44.84442" lon="-0.21493">
        <ele>8.5</ele>
        <time>2020-09-09T12:37:31Z</time>
      </trkpt>
      <trkpt lat="44.84441" lon="-0.21494">
        <ele>8.5</ele>
        <time>2020-09-09T12:37:33Z</time>
      </trkpt>
      <trkpt lat="44.84439" lon="-0.21495">
        <ele>8.6</ele>
        <time>2020-09-09T12:37:34Z</time>
      </trkpt>
      <trkpt lat="44.84438" lon="-0.21496">
        <ele>8.6</ele>
        <time>2020-09-09T12:37:35Z</time>
      </trkpt>
      <trkpt lat="44.84436" lon="-0.21497">
        <ele>8.7</ele>
        <time>2020-09-09T12:37:37Z</time>
      </trkpt>
      <trkpt lat="44.84434" lon="-0.21499">
        <ele>8.7</ele>
        <time>2020-09-09T12:37:38Z</time>
      </trkpt>
      <trkpt lat="44.84433" lon="-0.215">
        <ele>8.8</ele>
        <time>2020-09-09T12:37:39Z</time>
      </trkpt>
      <trkpt lat="44.84432" lon="-0.215">
        <ele>8.8</ele>
        <time>2020-09-09T12:37:40Z</time>
      </trkpt>
      <trkpt lat="44.84431" lon="-0.21502">
        <ele>8.8</ele>
        <time>2020-09-09T12:37:41Z</time>
      </trkpt>
      <trkpt lat="44.8443" lon="-0.21503">
        <ele>8.9</ele>
        <time>2020-09-09T12:37:42Z</time>
      </trkpt>
      <trkpt lat="44.84428" lon="-0.21505">
        <ele>8.9</ele>
        <time>2020-09-09T12:37:43Z</time>
      </trkpt>
      <trkpt lat="44.84428" lon="-0.21505">
        <ele>9</ele>
        <time>2020-09-09T12:37:45Z</time>
      </trkpt>
      <trkpt lat="44.84427" lon="-0.21506">
        <ele>9</ele>
        <time>2020-09-09T12:37:46Z</time>
      </trkpt>
      <trkpt lat="44.84426" lon="-0.21508">
        <ele>9</ele>
        <time>2020-09-09T12:37:48Z</time>
      </trkpt>
      <trkpt lat="44.84424" lon="-0.21509">
        <ele>9.1</ele>
        <time>2020-09-09T12:37:49Z</time>
      </trkpt>
      <trkpt lat="44.84423" lon="-0.2151">
        <ele>9.1</ele>
        <time>2020-09-09T12:37:50Z</time>
      </trkpt>
      <trkpt lat="44.84422" lon="-0.21511">
        <ele>9.1</ele>
        <time>2020-09-09T12:37:51Z</time>
      </trkpt>
      <trkpt lat="44.84421" lon="-0.21512">
        <ele>9.2</ele>
        <time>2020-09-09T12:37:52Z</time>
      </trkpt>
      <trkpt lat="44.84419" lon="-0.21513">
        <ele>9.2</ele>
        <time>2020-09-09T12:37:54Z</time>
      </trkpt>
      <trkpt lat="44.84418" lon="-0.21514">
        <ele>9.3</ele>
        <time>2020-09-09T12:37:55Z</time>
      </trkpt>
      <trkpt lat="44.84417" lon="-0.21516">
        <ele>9.3</ele>
        <time>2020-09-09T12:37:56Z</time>
      </trkpt>
      <trkpt lat="44.84416" lon="-0.21517">
        <ele>9.3</ele>
        <time>2020-09-09T12:37:57Z</time>
      </trkpt>
      <trkpt lat="44.84415" lon="-0.21519">
        <ele>9.3</ele>
        <time>2020-09-09T12:37:59Z</time>
      </trkpt>
      <trkpt lat="44.84414" lon="-0.2152">
        <ele>9.3</ele>
        <time>2020-09-09T12:38:00Z</time>
      </trkpt>
      <trkpt lat="44.84413" lon="-0.21521">
        <ele>9.3</ele>
        <time>2020-09-09T12:38:01Z</time>
      </trkpt>
      <trkpt lat="44.84413" lon="-0.21523">
        <ele>9.3</ele>
        <time>2020-09-09T12:38:02Z</time>
      </trkpt>
      <trkpt lat="44.84412" lon="-0.21524">
        <ele>9.4</ele>
        <time>2020-09-09T12:38:03Z</time>
      </trkpt>
      <trkpt lat="44.84411" lon="-0.21526">
        <ele>9.4</ele>
        <time>2020-09-09T12:38:05Z</time>
      </trkpt>
      <trkpt lat="44.84411" lon="-0.21527">
        <ele>9.3</ele>
        <time>2020-09-09T12:38:06Z</time>
      </trkpt>
      <trkpt lat="44.8441" lon="-0.21528">
        <ele>9.3</ele>
        <time>2020-09-09T12:38:07Z</time>
      </trkpt>
      <trkpt lat="44.84409" lon="-0.21531">
        <ele>9.4</ele>
        <time>2020-09-09T12:38:09Z</time>
      </trkpt>
      <trkpt lat="44.84408" lon="-0.21533">
        <ele>9.4</ele>
        <time>2020-09-09T12:38:11Z</time>
      </trkpt>
      <trkpt lat="44.84407" lon="-0.21534">
        <ele>9.4</ele>
        <time>2020-09-09T12:38:12Z</time>
      </trkpt>
      <trkpt lat="44.84406" lon="-0.21536">
        <ele>9.4</ele>
        <time>2020-09-09T12:38:13Z</time>
      </trkpt>
      <trkpt lat="44.84405" lon="-0.21537">
        <ele>9.4</ele>
        <time>2020-09-09T12:38:14Z</time>
      </trkpt>
      <trkpt lat="44.84405" lon="-0.21538">
        <ele>9.4</ele>
        <time>2020-09-09T12:38:15Z</time>
      </trkpt>
      <trkpt lat="44.84404" lon="-0.2154">
        <ele>9.4</ele>
        <time>2020-09-09T12:38:16Z</time>
      </trkpt>
      <trkpt lat="44.84403" lon="-0.21542">
        <ele>9.5</ele>
        <time>2020-09-09T12:38:17Z</time>
      </trkpt>
      <trkpt lat="44.84401" lon="-0.21545">
        <ele>9.4</ele>
        <time>2020-09-09T12:38:18Z</time>
      </trkpt>
      <trkpt lat="44.84401" lon="-0.21547">
        <ele>9.4</ele>
        <time>2020-09-09T12:38:19Z</time>
      </trkpt>
      <trkpt lat="44.84399" lon="-0.2155">
        <ele>9.5</ele>
        <time>2020-09-09T12:38:20Z</time>
      </trkpt>
      <trkpt lat="44.84398" lon="-0.21551">
        <ele>9.5</ele>
        <time>2020-09-09T12:38:21Z</time>
      </trkpt>
      <trkpt lat="44.84397" lon="-0.21553">
        <ele>9.6</ele>
        <time>2020-09-09T12:38:22Z</time>
      </trkpt>
      <trkpt lat="44.84395" lon="-0.21556">
        <ele>9.6</ele>
        <time>2020-09-09T12:38:24Z</time>
      </trkpt>
      <trkpt lat="44.84394" lon="-0.21558">
        <ele>9.7</ele>
        <time>2020-09-09T12:38:26Z</time>
      </trkpt>
      <trkpt lat="44.84393" lon="-0.21559">
        <ele>9.7</ele>
        <time>2020-09-09T12:38:27Z</time>
      </trkpt>
      <trkpt lat="44.84391" lon="-0.21563">
        <ele>9.8</ele>
        <time>2020-09-09T12:38:28Z</time>
      </trkpt>
      <trkpt lat="44.8439" lon="-0.21563">
        <ele>9.8</ele>
        <time>2020-09-09T12:38:29Z</time>
      </trkpt>
      <trkpt lat="44.84388" lon="-0.21565">
        <ele>9.8</ele>
        <time>2020-09-09T12:38:30Z</time>
      </trkpt>
      <trkpt lat="44.84387" lon="-0.21567">
        <ele>9.9</ele>
        <time>2020-09-09T12:38:31Z</time>
      </trkpt>
      <trkpt lat="44.84385" lon="-0.2157">
        <ele>10</ele>
        <time>2020-09-09T12:38:33Z</time>
      </trkpt>
      <trkpt lat="44.84384" lon="-0.21571">
        <ele>10</ele>
        <time>2020-09-09T12:38:34Z</time>
      </trkpt>
      <trkpt lat="44.84383" lon="-0.21573">
        <ele>10</ele>
        <time>2020-09-09T12:38:35Z</time>
      </trkpt>
      <trkpt lat="44.84382" lon="-0.21574">
        <ele>10.1</ele>
        <time>2020-09-09T12:38:36Z</time>
      </trkpt>
      <trkpt lat="44.84381" lon="-0.21576">
        <ele>10.1</ele>
        <time>2020-09-09T12:38:37Z</time>
      </trkpt>
      <trkpt lat="44.8438" lon="-0.21578">
        <ele>10.2</ele>
        <time>2020-09-09T12:38:38Z</time>
      </trkpt>
      <trkpt lat="44.84379" lon="-0.21579">
        <ele>10.3</ele>
        <time>2020-09-09T12:38:39Z</time>
      </trkpt>
      <trkpt lat="44.84378" lon="-0.2158">
        <ele>10.3</ele>
        <time>2020-09-09T12:38:41Z</time>
      </trkpt>
      <trkpt lat="44.84378" lon="-0.2158">
        <ele>10.3</ele>
        <time>2020-09-09T12:38:42Z</time>
      </trkpt>
      <trkpt lat="44.84377" lon="-0.21581">
        <ele>10.3</ele>
        <time>2020-09-09T12:38:43Z</time>
      </trkpt>
      <trkpt lat="44.84376" lon="-0.21582">
        <ele>10.3</ele>
        <time>2020-09-09T12:38:44Z</time>
      </trkpt>
      <trkpt lat="44.84375" lon="-0.21583">
        <ele>10.4</ele>
        <time>2020-09-09T12:38:45Z</time>
      </trkpt>
      <trkpt lat="44.84374" lon="-0.21584">
        <ele>10.4</ele>
        <time>2020-09-09T12:38:46Z</time>
      </trkpt>
      <trkpt lat="44.84373" lon="-0.21586">
        <ele>10.4</ele>
        <time>2020-09-09T12:38:47Z</time>
      </trkpt>
      <trkpt lat="44.84372" lon="-0.21587">
        <ele>10.5</ele>
        <time>2020-09-09T12:38:48Z</time>
      </trkpt>
      <trkpt lat="44.8437" lon="-0.2159">
        <ele>10.6</ele>
        <time>2020-09-09T12:38:49Z</time>
      </trkpt>
      <trkpt lat="44.84369" lon="-0.21591">
        <ele>10.6</ele>
        <time>2020-09-09T12:38:50Z</time>
      </trkpt>
      <trkpt lat="44.84368" lon="-0.21592">
        <ele>10.6</ele>
        <time>2020-09-09T12:38:52Z</time>
      </trkpt>
      <trkpt lat="44.84367" lon="-0.21593">
        <ele>10.6</ele>
        <time>2020-09-09T12:38:53Z</time>
      </trkpt>
      <trkpt lat="44.84366" lon="-0.21595">
        <ele>10.7</ele>
        <time>2020-09-09T12:38:54Z</time>
      </trkpt>
      <trkpt lat="44.84366" lon="-0.21596">
        <ele>10.8</ele>
        <time>2020-09-09T12:38:55Z</time>
      </trkpt>
      <trkpt lat="44.84365" lon="-0.21597">
        <ele>10.8</ele>
        <time>2020-09-09T12:38:57Z</time>
      </trkpt>
      <trkpt lat="44.84364" lon="-0.21598">
        <ele>10.8</ele>
        <time>2020-09-09T12:38:58Z</time>
      </trkpt>
      <trkpt lat="44.84363" lon="-0.21599">
        <ele>10.9</ele>
        <time>2020-09-09T12:38:59Z</time>
      </trkpt>
      <trkpt lat="44.84363" lon="-0.216">
        <ele>10.9</ele>
        <time>2020-09-09T12:39:00Z</time>
      </trkpt>
      <trkpt lat="44.84361" lon="-0.21602">
        <ele>10.9</ele>
        <time>2020-09-09T12:39:02Z</time>
      </trkpt>
      <trkpt lat="44.8436" lon="-0.21603">
        <ele>11</ele>
        <time>2020-09-09T12:39:03Z</time>
      </trkpt>
      <trkpt lat="44.8436" lon="-0.21603">
        <ele>11</ele>
        <time>2020-09-09T12:39:04Z</time>
      </trkpt>
      <trkpt lat="44.84359" lon="-0.21604">
        <ele>11</ele>
        <time>2020-09-09T12:39:05Z</time>
      </trkpt>
      <trkpt lat="44.84358" lon="-0.21606">
        <ele>11</ele>
        <time>2020-09-09T12:39:07Z</time>
      </trkpt>
      <trkpt lat="44.84357" lon="-0.21607">
        <ele>11.1</ele>
        <time>2020-09-09T12:39:08Z</time>
      </trkpt>
      <trkpt lat="44.84356" lon="-0.21608">
        <ele>11.1</ele>
        <time>2020-09-09T12:39:09Z</time>
      </trkpt>
      <trkpt lat="44.84355" lon="-0.21609">
        <ele>11.1</ele>
        <time>2020-09-09T12:39:10Z</time>
      </trkpt>
      <trkpt lat="44.84354" lon="-0.2161">
        <ele>11.2</ele>
        <time>2020-09-09T12:39:11Z</time>
      </trkpt>
      <trkpt lat="44.84354" lon="-0.21611">
        <ele>11.2</ele>
        <time>2020-09-09T12:39:12Z</time>
      </trkpt>
      <trkpt lat="44.84353" lon="-0.21613">
        <ele>11.2</ele>
        <time>2020-09-09T12:39:13Z</time>
      </trkpt>
      <trkpt lat="44.84352" lon="-0.21614">
        <ele>11.3</ele>
        <time>2020-09-09T12:39:15Z</time>
      </trkpt>
      <trkpt lat="44.8435" lon="-0.21616">
        <ele>11.3</ele>
        <time>2020-09-09T12:39:16Z</time>
      </trkpt>
      <trkpt lat="44.84349" lon="-0.21617">
        <ele>11.4</ele>
        <time>2020-09-09T12:39:18Z</time>
      </trkpt>
      <trkpt lat="44.84349" lon="-0.21618">
        <ele>11.4</ele>
        <time>2020-09-09T12:39:19Z</time>
      </trkpt>
      <trkpt lat="44.84348" lon="-0.21619">
        <ele>11.4</ele>
        <time>2020-09-09T12:39:20Z</time>
      </trkpt>
      <trkpt lat="44.84347" lon="-0.2162">
        <ele>11.4</ele>
        <time>2020-09-09T12:39:22Z</time>
      </trkpt>
      <trkpt lat="44.84347" lon="-0.21621">
        <ele>11.4</ele>
        <time>2020-09-09T12:39:23Z</time>
      </trkpt>
      <trkpt lat="44.84346" lon="-0.21622">
        <ele>11.4</ele>
        <time>2020-09-09T12:39:24Z</time>
      </trkpt>
      <trkpt lat="44.84345" lon="-0.21624">
        <ele>11.5</ele>
        <time>2020-09-09T12:39:25Z</time>
      </trkpt>
      <trkpt lat="44.84344" lon="-0.21626">
        <ele>11.5</ele>
        <time>2020-09-09T12:39:27Z</time>
      </trkpt>
      <trkpt lat="44.84343" lon="-0.21627">
        <ele>11.5</ele>
        <time>2020-09-09T12:39:28Z</time>
      </trkpt>
      <trkpt lat="44.84342" lon="-0.2163">
        <ele>11.6</ele>
        <time>2020-09-09T12:39:30Z</time>
      </trkpt>
      <trkpt lat="44.84341" lon="-0.21631">
        <ele>11.6</ele>
        <time>2020-09-09T12:39:31Z</time>
      </trkpt>
      <trkpt lat="44.8434" lon="-0.21633">
        <ele>11.6</ele>
        <time>2020-09-09T12:39:33Z</time>
      </trkpt>
      <trkpt lat="44.84339" lon="-0.21635">
        <ele>11.7</ele>
        <time>2020-09-09T12:39:34Z</time>
      </trkpt>
      <trkpt lat="44.84338" lon="-0.21637">
        <ele>11.7</ele>
        <time>2020-09-09T12:39:35Z</time>
      </trkpt>
      <trkpt lat="44.84335" lon="-0.21641">
        <ele>11.8</ele>
        <time>2020-09-09T12:39:36Z</time>
      </trkpt>
      <trkpt lat="44.84335" lon="-0.21642">
        <ele>11.8</ele>
        <time>2020-09-09T12:39:37Z</time>
      </trkpt>
      <trkpt lat="44.84333" lon="-0.21645">
        <ele>11.9</ele>
        <time>2020-09-09T12:39:38Z</time>
      </trkpt>
      <trkpt lat="44.84331" lon="-0.21648">
        <ele>11.9</ele>
        <time>2020-09-09T12:39:40Z</time>
      </trkpt>
      <trkpt lat="44.84329" lon="-0.2165">
        <ele>12</ele>
        <time>2020-09-09T12:39:41Z</time>
      </trkpt>
      <trkpt lat="44.84329" lon="-0.21651">
        <ele>12</ele>
        <time>2020-09-09T12:39:42Z</time>
      </trkpt>
      <trkpt lat="44.84327" lon="-0.21654">
        <ele>12</ele>
        <time>2020-09-09T12:39:44Z</time>
      </trkpt>
      <trkpt lat="44.84326" lon="-0.21655">
        <ele>12</ele>
        <time>2020-09-09T12:39:45Z</time>
      </trkpt>
      <trkpt lat="44.84325" lon="-0.21657">
        <ele>12.1</ele>
        <time>2020-09-09T12:39:46Z</time>
      </trkpt>
      <trkpt lat="44.84325" lon="-0.21658">
        <ele>12.1</ele>
        <time>2020-09-09T12:39:47Z</time>
      </trkpt>
      <trkpt lat="44.84325" lon="-0.21659">
        <ele>12.1</ele>
        <time>2020-09-09T12:39:48Z</time>
      </trkpt>
      <trkpt lat="44.84325" lon="-0.2166">
        <ele>12.1</ele>
        <time>2020-09-09T12:39:49Z</time>
      </trkpt>
      <trkpt lat="44.84324" lon="-0.21661">
        <ele>12.1</ele>
        <time>2020-09-09T12:39:51Z</time>
      </trkpt>
      <trkpt lat="44.84323" lon="-0.21663">
        <ele>12.1</ele>
        <time>2020-09-09T12:39:52Z</time>
      </trkpt>
      <trkpt lat="44.84323" lon="-0.21664">
        <ele>12.2</ele>
        <time>2020-09-09T12:39:53Z</time>
      </trkpt>
      <trkpt lat="44.84322" lon="-0.21666">
        <ele>12.2</ele>
        <time>2020-09-09T12:39:54Z</time>
      </trkpt>
      <trkpt lat="44.84321" lon="-0.21668">
        <ele>12.2</ele>
        <time>2020-09-09T12:39:55Z</time>
      </trkpt>
      <trkpt lat="44.8432" lon="-0.21669">
        <ele>12.2</ele>
        <time>2020-09-09T12:39:56Z</time>
      </trkpt>
      <trkpt lat="44.84319" lon="-0.2167">
        <ele>12.2</ele>
        <time>2020-09-09T12:39:57Z</time>
      </trkpt>
      <trkpt lat="44.84319" lon="-0.21671">
        <ele>12.2</ele>
        <time>2020-09-09T12:39:58Z</time>
      </trkpt>
      <trkpt lat="44.84318" lon="-0.21674">
        <ele>12.3</ele>
        <time>2020-09-09T12:40:00Z</time>
      </trkpt>
      <trkpt lat="44.84318" lon="-0.21675">
        <ele>12.3</ele>
        <time>2020-09-09T12:40:02Z</time>
      </trkpt>
      <trkpt lat="44.84317" lon="-0.21676">
        <ele>12.3</ele>
        <time>2020-09-09T12:40:03Z</time>
      </trkpt>
      <trkpt lat="44.84315" lon="-0.21679">
        <ele>12.4</ele>
        <time>2020-09-09T12:40:05Z</time>
      </trkpt>
      <trkpt lat="44.84315" lon="-0.2168">
        <ele>12.4</ele>
        <time>2020-09-09T12:40:06Z</time>
      </trkpt>
      <trkpt lat="44.84314" lon="-0.21682">
        <ele>12.4</ele>
        <time>2020-09-09T12:40:08Z</time>
      </trkpt>
      <trkpt lat="44.84314" lon="-0.21685">
        <ele>12.4</ele>
        <time>2020-09-09T12:40:09Z</time>
      </trkpt>
      <trkpt lat="44.84314" lon="-0.21686">
        <ele>12.4</ele>
        <time>2020-09-09T12:40:10Z</time>
      </trkpt>
      <trkpt lat="44.84314" lon="-0.21687">
        <ele>12.4</ele>
        <time>2020-09-09T12:40:11Z</time>
      </trkpt>
      <trkpt lat="44.84314" lon="-0.2169">
        <ele>12.5</ele>
        <time>2020-09-09T12:40:13Z</time>
      </trkpt>
      <trkpt lat="44.84314" lon="-0.2169">
        <ele>12.5</ele>
        <time>2020-09-09T12:40:14Z</time>
      </trkpt>
      <trkpt lat="44.84313" lon="-0.21692">
        <ele>12.5</ele>
        <time>2020-09-09T12:40:16Z</time>
      </trkpt>
      <trkpt lat="44.84313" lon="-0.21692">
        <ele>12.5</ele>
        <time>2020-09-09T12:40:18Z</time>
      </trkpt>
      <trkpt lat="44.84313" lon="-0.21691">
        <ele>12.5</ele>
        <time>2020-09-09T12:40:19Z</time>
      </trkpt>
      <trkpt lat="44.84312" lon="-0.21692">
        <ele>12.5</ele>
        <time>2020-09-09T12:40:21Z</time>
      </trkpt>
      <trkpt lat="44.84312" lon="-0.21692">
        <ele>12.5</ele>
        <time>2020-09-09T12:40:22Z</time>
      </trkpt>
      <trkpt lat="44.84312" lon="-0.21693">
        <ele>12.5</ele>
        <time>2020-09-09T12:40:23Z</time>
      </trkpt>
      <trkpt lat="44.84311" lon="-0.21694">
        <ele>12.5</ele>
        <time>2020-09-09T12:40:25Z</time>
      </trkpt>
      <trkpt lat="44.84311" lon="-0.21694">
        <ele>12.5</ele>
        <time>2020-09-09T12:40:26Z</time>
      </trkpt>
      <trkpt lat="44.84311" lon="-0.21695">
        <ele>12.5</ele>
        <time>2020-09-09T12:40:27Z</time>
      </trkpt>
      <trkpt lat="44.84311" lon="-0.21694">
        <ele>12.5</ele>
        <time>2020-09-09T12:40:29Z</time>
      </trkpt>
      <trkpt lat="44.8431" lon="-0.21694">
        <ele>12.5</ele>
        <time>2020-09-09T12:40:30Z</time>
      </trkpt>
      <trkpt lat="44.84309" lon="-0.21693">
        <ele>12.5</ele>
        <time>2020-09-09T12:40:31Z</time>
      </trkpt>
      <trkpt lat="44.84308" lon="-0.21693">
        <ele>12.5</ele>
        <time>2020-09-09T12:40:32Z</time>
      </trkpt>
      <trkpt lat="44.84307" lon="-0.2169">
        <ele>12.6</ele>
        <time>2020-09-09T12:40:34Z</time>
      </trkpt>
      <trkpt lat="44.84307" lon="-0.21689">
        <ele>12.6</ele>
        <time>2020-09-09T12:40:35Z</time>
      </trkpt>
      <trkpt lat="44.84306" lon="-0.21688">
        <ele>12.6</ele>
        <time>2020-09-09T12:40:36Z</time>
      </trkpt>
      <trkpt lat="44.84306" lon="-0.21687">
        <ele>12.6</ele>
        <time>2020-09-09T12:40:37Z</time>
      </trkpt>
      <trkpt lat="44.84305" lon="-0.21685">
        <ele>12.6</ele>
        <time>2020-09-09T12:40:38Z</time>
      </trkpt>
      <trkpt lat="44.84305" lon="-0.21683">
        <ele>12.6</ele>
        <time>2020-09-09T12:40:40Z</time>
      </trkpt>
      <trkpt lat="44.84304" lon="-0.2168">
        <ele>12.6</ele>
        <time>2020-09-09T12:40:41Z</time>
      </trkpt>
      <trkpt lat="44.84303" lon="-0.21678">
        <ele>12.7</ele>
        <time>2020-09-09T12:40:43Z</time>
      </trkpt>
      <trkpt lat="44.84303" lon="-0.21676">
        <ele>12.7</ele>
        <time>2020-09-09T12:40:44Z</time>
      </trkpt>
      <trkpt lat="44.84302" lon="-0.21674">
        <ele>12.7</ele>
        <time>2020-09-09T12:40:45Z</time>
      </trkpt>
      <trkpt lat="44.84302" lon="-0.21672">
        <ele>12.7</ele>
        <time>2020-09-09T12:40:46Z</time>
      </trkpt>
      <trkpt lat="44.84301" lon="-0.2167">
        <ele>12.7</ele>
        <time>2020-09-09T12:40:47Z</time>
      </trkpt>
      <trkpt lat="44.843" lon="-0.21667">
        <ele>12.7</ele>
        <time>2020-09-09T12:40:48Z</time>
      </trkpt>
      <trkpt lat="44.843" lon="-0.21666">
        <ele>12.8</ele>
        <time>2020-09-09T12:40:49Z</time>
      </trkpt>
      <trkpt lat="44.84299" lon="-0.21665">
        <ele>12.8</ele>
        <time>2020-09-09T12:40:50Z</time>
      </trkpt>
      <trkpt lat="44.84298" lon="-0.21661">
        <ele>12.8</ele>
        <time>2020-09-09T12:40:52Z</time>
      </trkpt>
      <trkpt lat="44.84297" lon="-0.2166">
        <ele>12.8</ele>
        <time>2020-09-09T12:40:53Z</time>
      </trkpt>
      <trkpt lat="44.84295" lon="-0.21657">
        <ele>12.8</ele>
        <time>2020-09-09T12:40:54Z</time>
      </trkpt>
      <trkpt lat="44.84295" lon="-0.21656">
        <ele>12.9</ele>
        <time>2020-09-09T12:40:55Z</time>
      </trkpt>
      <trkpt lat="44.84292" lon="-0.21653">
        <ele>12.9</ele>
        <time>2020-09-09T12:40:57Z</time>
      </trkpt>
      <trkpt lat="44.84291" lon="-0.21651">
        <ele>12.9</ele>
        <time>2020-09-09T12:40:58Z</time>
      </trkpt>
      <trkpt lat="44.84288" lon="-0.21649">
        <ele>12.9</ele>
        <time>2020-09-09T12:41:00Z</time>
      </trkpt>
      <trkpt lat="44.84285" lon="-0.21647">
        <ele>13</ele>
        <time>2020-09-09T12:41:01Z</time>
      </trkpt>
      <trkpt lat="44.84284" lon="-0.21646">
        <ele>13</ele>
        <time>2020-09-09T12:41:02Z</time>
      </trkpt>
      <trkpt lat="44.84283" lon="-0.21646">
        <ele>13</ele>
        <time>2020-09-09T12:41:03Z</time>
      </trkpt>
      <trkpt lat="44.84282" lon="-0.21645">
        <ele>13</ele>
        <time>2020-09-09T12:41:04Z</time>
      </trkpt>
      <trkpt lat="44.84281" lon="-0.21644">
        <ele>13</ele>
        <time>2020-09-09T12:41:06Z</time>
      </trkpt>
      <trkpt lat="44.8428" lon="-0.21643">
        <ele>13</ele>
        <time>2020-09-09T12:41:07Z</time>
      </trkpt>
      <trkpt lat="44.8428" lon="-0.21643">
        <ele>13.1</ele>
        <time>2020-09-09T12:41:08Z</time>
      </trkpt>
      <trkpt lat="44.84278" lon="-0.21641">
        <ele>13.1</ele>
        <time>2020-09-09T12:41:10Z</time>
      </trkpt>
      <trkpt lat="44.84278" lon="-0.21639">
        <ele>13.1</ele>
        <time>2020-09-09T12:41:11Z</time>
      </trkpt>
      <trkpt lat="44.84277" lon="-0.21638">
        <ele>13.1</ele>
        <time>2020-09-09T12:41:12Z</time>
      </trkpt>
      <trkpt lat="44.84276" lon="-0.21636">
        <ele>13.1</ele>
        <time>2020-09-09T12:41:14Z</time>
      </trkpt>
      <trkpt lat="44.84275" lon="-0.21633">
        <ele>13.1</ele>
        <time>2020-09-09T12:41:15Z</time>
      </trkpt>
      <trkpt lat="44.84274" lon="-0.21631">
        <ele>13.1</ele>
        <time>2020-09-09T12:41:16Z</time>
      </trkpt>
      <trkpt lat="44.84273" lon="-0.2163">
        <ele>13.1</ele>
        <time>2020-09-09T12:41:17Z</time>
      </trkpt>
      <trkpt lat="44.84273" lon="-0.21628">
        <ele>13.1</ele>
        <time>2020-09-09T12:41:18Z</time>
      </trkpt>
      <trkpt lat="44.84272" lon="-0.21627">
        <ele>13.1</ele>
        <time>2020-09-09T12:41:20Z</time>
      </trkpt>
      <trkpt lat="44.84272" lon="-0.21626">
        <ele>13.1</ele>
        <time>2020-09-09T12:41:21Z</time>
      </trkpt>
      <trkpt lat="44.8427" lon="-0.21624">
        <ele>13.1</ele>
        <time>2020-09-09T12:41:23Z</time>
      </trkpt>
      <trkpt lat="44.8427" lon="-0.21623">
        <ele>13.1</ele>
        <time>2020-09-09T12:41:24Z</time>
      </trkpt>
      <trkpt lat="44.84269" lon="-0.21622">
        <ele>13.1</ele>
        <time>2020-09-09T12:41:25Z</time>
      </trkpt>
      <trkpt lat="44.84268" lon="-0.21621">
        <ele>13.1</ele>
        <time>2020-09-09T12:41:26Z</time>
      </trkpt>
      <trkpt lat="44.84266" lon="-0.21619">
        <ele>13.1</ele>
        <time>2020-09-09T12:41:28Z</time>
      </trkpt>
      <trkpt lat="44.84266" lon="-0.21618">
        <ele>13.1</ele>
        <time>2020-09-09T12:41:29Z</time>
      </trkpt>
      <trkpt lat="44.84265" lon="-0.21618">
        <ele>13.1</ele>
        <time>2020-09-09T12:41:30Z</time>
      </trkpt>
      <trkpt lat="44.84264" lon="-0.21617">
        <ele>13.1</ele>
        <time>2020-09-09T12:41:31Z</time>
      </trkpt>
      <trkpt lat="44.84263" lon="-0.21615">
        <ele>13.1</ele>
        <time>2020-09-09T12:41:33Z</time>
      </trkpt>
      <trkpt lat="44.84262" lon="-0.21614">
        <ele>13.1</ele>
        <time>2020-09-09T12:41:34Z</time>
      </trkpt>
      <trkpt lat="44.84261" lon="-0.21613">
        <ele>13.1</ele>
        <time>2020-09-09T12:41:35Z</time>
      </trkpt>
      <trkpt lat="44.8426" lon="-0.21612">
        <ele>13.1</ele>
        <time>2020-09-09T12:41:36Z</time>
      </trkpt>
      <trkpt lat="44.84257" lon="-0.21609">
        <ele>13.1</ele>
        <time>2020-09-09T12:41:37Z</time>
      </trkpt>
      <trkpt lat="44.84256" lon="-0.21608">
        <ele>13.1</ele>
        <time>2020-09-09T12:41:38Z</time>
      </trkpt>
      <trkpt lat="44.84253" lon="-0.21605">
        <ele>13.1</ele>
        <time>2020-09-09T12:41:40Z</time>
      </trkpt>
      <trkpt lat="44.84252" lon="-0.21604">
        <ele>13.1</ele>
        <time>2020-09-09T12:41:41Z</time>
      </trkpt>
      <trkpt lat="44.84251" lon="-0.21603">
        <ele>13.1</ele>
        <time>2020-09-09T12:41:42Z</time>
      </trkpt>
      <trkpt lat="44.8425" lon="-0.21602">
        <ele>13.1</ele>
        <time>2020-09-09T12:41:43Z</time>
      </trkpt>
      <trkpt lat="44.84249" lon="-0.21601">
        <ele>13.1</ele>
        <time>2020-09-09T12:41:44Z</time>
      </trkpt>
      <trkpt lat="44.84247" lon="-0.21601">
        <ele>13.2</ele>
        <time>2020-09-09T12:41:45Z</time>
      </trkpt>
      <trkpt lat="44.84245" lon="-0.21599">
        <ele>13.2</ele>
        <time>2020-09-09T12:41:47Z</time>
      </trkpt>
      <trkpt lat="44.84245" lon="-0.21598">
        <ele>13.2</ele>
        <time>2020-09-09T12:41:48Z</time>
      </trkpt>
      <trkpt lat="44.84243" lon="-0.21597">
        <ele>13.2</ele>
        <time>2020-09-09T12:41:49Z</time>
      </trkpt>
      <trkpt lat="44.84242" lon="-0.21595">
        <ele>13.2</ele>
        <time>2020-09-09T12:41:51Z</time>
      </trkpt>
      <trkpt lat="44.84241" lon="-0.21594">
        <ele>13.2</ele>
        <time>2020-09-09T12:41:52Z</time>
      </trkpt>
      <trkpt lat="44.8424" lon="-0.21593">
        <ele>13.2</ele>
        <time>2020-09-09T12:41:53Z</time>
      </trkpt>
      <trkpt lat="44.84239" lon="-0.21592">
        <ele>13.2</ele>
        <time>2020-09-09T12:41:54Z</time>
      </trkpt>
      <trkpt lat="44.84238" lon="-0.21591">
        <ele>13.2</ele>
        <time>2020-09-09T12:41:55Z</time>
      </trkpt>
      <trkpt lat="44.84237" lon="-0.21591">
        <ele>13.2</ele>
        <time>2020-09-09T12:41:56Z</time>
      </trkpt>
      <trkpt lat="44.84236" lon="-0.2159">
        <ele>13.2</ele>
        <time>2020-09-09T12:41:57Z</time>
      </trkpt>
      <trkpt lat="44.84235" lon="-0.21588">
        <ele>13.2</ele>
        <time>2020-09-09T12:41:58Z</time>
      </trkpt>
      <trkpt lat="44.84234" lon="-0.21588">
        <ele>13.3</ele>
        <time>2020-09-09T12:42:00Z</time>
      </trkpt>
      <trkpt lat="44.84233" lon="-0.21587">
        <ele>13.3</ele>
        <time>2020-09-09T12:42:01Z</time>
      </trkpt>
      <trkpt lat="44.84232" lon="-0.21586">
        <ele>13.3</ele>
        <time>2020-09-09T12:42:03Z</time>
      </trkpt>
      <trkpt lat="44.84231" lon="-0.21585">
        <ele>13.3</ele>
        <time>2020-09-09T12:42:05Z</time>
      </trkpt>
      <trkpt lat="44.84231" lon="-0.21584">
        <ele>13.3</ele>
        <time>2020-09-09T12:42:06Z</time>
      </trkpt>
      <trkpt lat="44.84228" lon="-0.21582">
        <ele>13.3</ele>
        <time>2020-09-09T12:42:08Z</time>
      </trkpt>
      <trkpt lat="44.84227" lon="-0.21581">
        <ele>13.3</ele>
        <time>2020-09-09T12:42:09Z</time>
      </trkpt>
      <trkpt lat="44.84225" lon="-0.21579">
        <ele>13.4</ele>
        <time>2020-09-09T12:42:11Z</time>
      </trkpt>
      <trkpt lat="44.84224" lon="-0.21578">
        <ele>13.4</ele>
        <time>2020-09-09T12:42:13Z</time>
      </trkpt>
      <trkpt lat="44.84224" lon="-0.21578">
        <ele>13.4</ele>
        <time>2020-09-09T12:42:15Z</time>
      </trkpt>
      <trkpt lat="44.84224" lon="-0.21578">
        <ele>13.4</ele>
        <time>2020-09-09T12:42:16Z</time>
      </trkpt>
      <trkpt lat="44.84223" lon="-0.21577">
        <ele>13.4</ele>
        <time>2020-09-09T12:42:17Z</time>
      </trkpt>
      <trkpt lat="44.84223" lon="-0.21576">
        <ele>13.4</ele>
        <time>2020-09-09T12:42:18Z</time>
      </trkpt>
      <trkpt lat="44.84222" lon="-0.21576">
        <ele>13.4</ele>
        <time>2020-09-09T12:42:19Z</time>
      </trkpt>
      <trkpt lat="44.84222" lon="-0.21575">
        <ele>13.4</ele>
        <time>2020-09-09T12:42:20Z</time>
      </trkpt>
      <trkpt lat="44.84221" lon="-0.21574">
        <ele>13.4</ele>
        <time>2020-09-09T12:42:21Z</time>
      </trkpt>
      <trkpt lat="44.8422" lon="-0.21574">
        <ele>13.4</ele>
        <time>2020-09-09T12:42:22Z</time>
      </trkpt>
      <trkpt lat="44.84219" lon="-0.21572">
        <ele>13.4</ele>
        <time>2020-09-09T12:42:24Z</time>
      </trkpt>
      <trkpt lat="44.84218" lon="-0.21571">
        <ele>13.4</ele>
        <time>2020-09-09T12:42:25Z</time>
      </trkpt>
      <trkpt lat="44.84217" lon="-0.21569">
        <ele>13.5</ele>
        <time>2020-09-09T12:42:26Z</time>
      </trkpt>
      <trkpt lat="44.84214" lon="-0.21566">
        <ele>13.5</ele>
        <time>2020-09-09T12:42:28Z</time>
      </trkpt>
      <trkpt lat="44.84213" lon="-0.21564">
        <ele>13.5</ele>
        <time>2020-09-09T12:42:30Z</time>
      </trkpt>
      <trkpt lat="44.84213" lon="-0.21562">
        <ele>13.5</ele>
        <time>2020-09-09T12:42:31Z</time>
      </trkpt>
      <trkpt lat="44.84212" lon="-0.2156">
        <ele>13.5</ele>
        <time>2020-09-09T12:42:32Z</time>
      </trkpt>
      <trkpt lat="44.84212" lon="-0.21557">
        <ele>13.5</ele>
        <time>2020-09-09T12:42:34Z</time>
      </trkpt>
      <trkpt lat="44.84213" lon="-0.21557">
        <ele>13.5</ele>
        <time>2020-09-09T12:42:35Z</time>
      </trkpt>
      <trkpt lat="44.84213" lon="-0.21556">
        <ele>13.5</ele>
        <time>2020-09-09T12:42:37Z</time>
      </trkpt>
      <trkpt lat="44.84214" lon="-0.21555">
        <ele>13.5</ele>
        <time>2020-09-09T12:42:38Z</time>
      </trkpt>
      <trkpt lat="44.84214" lon="-0.21555">
        <ele>13.5</ele>
        <time>2020-09-09T12:42:40Z</time>
      </trkpt>
      <trkpt lat="44.84214" lon="-0.21555">
        <ele>13.5</ele>
        <time>2020-09-09T12:42:41Z</time>
      </trkpt>
      <trkpt lat="44.84215" lon="-0.21555">
        <ele>13.5</ele>
        <time>2020-09-09T12:42:43Z</time>
      </trkpt>
      <trkpt lat="44.84215" lon="-0.21556">
        <ele>13.5</ele>
        <time>2020-09-09T12:42:44Z</time>
      </trkpt>
      <trkpt lat="44.84216" lon="-0.21557">
        <ele>13.5</ele>
        <time>2020-09-09T12:42:46Z</time>
      </trkpt>
      <trkpt lat="44.84217" lon="-0.21557">
        <ele>13.5</ele>
        <time>2020-09-09T12:42:48Z</time>
      </trkpt>
      <trkpt lat="44.84216" lon="-0.21559">
        <ele>13.4</ele>
        <time>2020-09-09T12:42:50Z</time>
      </trkpt>
      <trkpt lat="44.84216" lon="-0.2156">
        <ele>13.4</ele>
        <time>2020-09-09T12:42:51Z</time>
      </trkpt>
      <trkpt lat="44.84216" lon="-0.21561">
        <ele>13.4</ele>
        <time>2020-09-09T12:42:52Z</time>
      </trkpt>
      <trkpt lat="44.84216" lon="-0.21562">
        <ele>13.4</ele>
        <time>2020-09-09T12:42:53Z</time>
      </trkpt>
      <trkpt lat="44.84215" lon="-0.21564">
        <ele>13.4</ele>
        <time>2020-09-09T12:42:54Z</time>
      </trkpt>
      <trkpt lat="44.84215" lon="-0.21566">
        <ele>13.4</ele>
        <time>2020-09-09T12:42:56Z</time>
      </trkpt>
      <trkpt lat="44.84216" lon="-0.2157">
        <ele>13.4</ele>
        <time>2020-09-09T12:42:58Z</time>
      </trkpt>
      <trkpt lat="44.84217" lon="-0.21571">
        <ele>13.4</ele>
        <time>2020-09-09T12:42:59Z</time>
      </trkpt>
      <trkpt lat="44.84218" lon="-0.21573">
        <ele>13.3</ele>
        <time>2020-09-09T12:43:01Z</time>
      </trkpt>
      <trkpt lat="44.84219" lon="-0.21574">
        <ele>13.3</ele>
        <time>2020-09-09T12:43:02Z</time>
      </trkpt>
      <trkpt lat="44.84221" lon="-0.21576">
        <ele>13.3</ele>
        <time>2020-09-09T12:43:03Z</time>
      </trkpt>
      <trkpt lat="44.84222" lon="-0.21578">
        <ele>13.3</ele>
        <time>2020-09-09T12:43:04Z</time>
      </trkpt>
      <trkpt lat="44.84224" lon="-0.2158">
        <ele>13.3</ele>
        <time>2020-09-09T12:43:06Z</time>
      </trkpt>
      <trkpt lat="44.84225" lon="-0.21581">
        <ele>13.3</ele>
        <time>2020-09-09T12:43:07Z</time>
      </trkpt>
      <trkpt lat="44.84227" lon="-0.21584">
        <ele>13.3</ele>
        <time>2020-09-09T12:43:09Z</time>
      </trkpt>
      <trkpt lat="44.8423" lon="-0.21586">
        <ele>13.2</ele>
        <time>2020-09-09T12:43:10Z</time>
      </trkpt>
      <trkpt lat="44.84231" lon="-0.21587">
        <ele>13.2</ele>
        <time>2020-09-09T12:43:12Z</time>
      </trkpt>
      <trkpt lat="44.84232" lon="-0.21587">
        <ele>13.2</ele>
        <time>2020-09-09T12:43:13Z</time>
      </trkpt>
      <trkpt lat="44.84233" lon="-0.21588">
        <ele>13.2</ele>
        <time>2020-09-09T12:43:14Z</time>
      </trkpt>
      <trkpt lat="44.84235" lon="-0.21589">
        <ele>13.2</ele>
        <time>2020-09-09T12:43:15Z</time>
      </trkpt>
      <trkpt lat="44.84237" lon="-0.21591">
        <ele>13.2</ele>
        <time>2020-09-09T12:43:17Z</time>
      </trkpt>
      <trkpt lat="44.84238" lon="-0.21592">
        <ele>13.2</ele>
        <time>2020-09-09T12:43:18Z</time>
      </trkpt>
      <trkpt lat="44.8424" lon="-0.21593">
        <ele>13.2</ele>
        <time>2020-09-09T12:43:19Z</time>
      </trkpt>
      <trkpt lat="44.8424" lon="-0.21594">
        <ele>13.2</ele>
        <time>2020-09-09T12:43:20Z</time>
      </trkpt>
      <trkpt lat="44.84242" lon="-0.21595">
        <ele>13.2</ele>
        <time>2020-09-09T12:43:21Z</time>
      </trkpt>
      <trkpt lat="44.84245" lon="-0.21598">
        <ele>13.1</ele>
        <time>2020-09-09T12:43:23Z</time>
      </trkpt>
      <trkpt lat="44.84246" lon="-0.21599">
        <ele>13.1</ele>
        <time>2020-09-09T12:43:24Z</time>
      </trkpt>
      <trkpt lat="44.84247" lon="-0.216">
        <ele>13.1</ele>
        <time>2020-09-09T12:43:26Z</time>
      </trkpt>
      <trkpt lat="44.84248" lon="-0.21601">
        <ele>13.1</ele>
        <time>2020-09-09T12:43:27Z</time>
      </trkpt>
      <trkpt lat="44.84249" lon="-0.21602">
        <ele>13.1</ele>
        <time>2020-09-09T12:43:28Z</time>
      </trkpt>
      <trkpt lat="44.8425" lon="-0.21604">
        <ele>13.1</ele>
        <time>2020-09-09T12:43:29Z</time>
      </trkpt>
      <trkpt lat="44.84251" lon="-0.21604">
        <ele>13.1</ele>
        <time>2020-09-09T12:43:30Z</time>
      </trkpt>
      <trkpt lat="44.84252" lon="-0.21605">
        <ele>13.1</ele>
        <time>2020-09-09T12:43:31Z</time>
      </trkpt>
      <trkpt lat="44.84252" lon="-0.21606">
        <ele>13.1</ele>
        <time>2020-09-09T12:43:32Z</time>
      </trkpt>
      <trkpt lat="44.84254" lon="-0.21608">
        <ele>13.1</ele>
        <time>2020-09-09T12:43:34Z</time>
      </trkpt>
      <trkpt lat="44.84255" lon="-0.21609">
        <ele>13.1</ele>
        <time>2020-09-09T12:43:35Z</time>
      </trkpt>
      <trkpt lat="44.84256" lon="-0.21611">
        <ele>13.1</ele>
        <time>2020-09-09T12:43:36Z</time>
      </trkpt>
      <trkpt lat="44.8426" lon="-0.21615">
        <ele>13.1</ele>
        <time>2020-09-09T12:43:38Z</time>
      </trkpt>
      <trkpt lat="44.8426" lon="-0.21616">
        <ele>13.1</ele>
        <time>2020-09-09T12:43:39Z</time>
      </trkpt>
      <trkpt lat="44.84261" lon="-0.21617">
        <ele>13.1</ele>
        <time>2020-09-09T12:43:40Z</time>
      </trkpt>
      <trkpt lat="44.84262" lon="-0.21618">
        <ele>13.1</ele>
        <time>2020-09-09T12:43:41Z</time>
      </trkpt>
      <trkpt lat="44.84266" lon="-0.21622">
        <ele>13.1</ele>
        <time>2020-09-09T12:43:43Z</time>
      </trkpt>
      <trkpt lat="44.84268" lon="-0.21624">
        <ele>13.1</ele>
        <time>2020-09-09T12:43:44Z</time>
      </trkpt>
      <trkpt lat="44.84268" lon="-0.21625">
        <ele>13.1</ele>
        <time>2020-09-09T12:43:45Z</time>
      </trkpt>
      <trkpt lat="44.8427" lon="-0.21627">
        <ele>13.1</ele>
        <time>2020-09-09T12:43:46Z</time>
      </trkpt>
      <trkpt lat="44.84271" lon="-0.21628">
        <ele>13.1</ele>
        <time>2020-09-09T12:43:47Z</time>
      </trkpt>
      <trkpt lat="44.84273" lon="-0.2163">
        <ele>13.1</ele>
        <time>2020-09-09T12:43:49Z</time>
      </trkpt>
      <trkpt lat="44.84273" lon="-0.21631">
        <ele>13.1</ele>
        <time>2020-09-09T12:43:50Z</time>
      </trkpt>
      <trkpt lat="44.84274" lon="-0.21632">
        <ele>13.1</ele>
        <time>2020-09-09T12:43:51Z</time>
      </trkpt>
      <trkpt lat="44.84275" lon="-0.21634">
        <ele>13.1</ele>
        <time>2020-09-09T12:43:52Z</time>
      </trkpt>
      <trkpt lat="44.84276" lon="-0.21636">
        <ele>13.1</ele>
        <time>2020-09-09T12:43:54Z</time>
      </trkpt>
      <trkpt lat="44.84278" lon="-0.21638">
        <ele>13.1</ele>
        <time>2020-09-09T12:43:56Z</time>
      </trkpt>
      <trkpt lat="44.84279" lon="-0.21641">
        <ele>13.1</ele>
        <time>2020-09-09T12:43:58Z</time>
      </trkpt>
      <trkpt lat="44.8428" lon="-0.21642">
        <ele>13.1</ele>
        <time>2020-09-09T12:43:59Z</time>
      </trkpt>
      <trkpt lat="44.84281" lon="-0.21645">
        <ele>13</ele>
        <time>2020-09-09T12:44:01Z</time>
      </trkpt>
      <trkpt lat="44.84282" lon="-0.21648">
        <ele>13</ele>
        <time>2020-09-09T12:44:02Z</time>
      </trkpt>
      <trkpt lat="44.84283" lon="-0.21649">
        <ele>13</ele>
        <time>2020-09-09T12:44:03Z</time>
      </trkpt>
      <trkpt lat="44.84283" lon="-0.21649">
        <ele>13</ele>
        <time>2020-09-09T12:44:04Z</time>
      </trkpt>
      <trkpt lat="44.84285" lon="-0.2165">
        <ele>13</ele>
        <time>2020-09-09T12:44:06Z</time>
      </trkpt>
      <trkpt lat="44.84285" lon="-0.21651">
        <ele>13</ele>
        <time>2020-09-09T12:44:07Z</time>
      </trkpt>
      <trkpt lat="44.84285" lon="-0.21652">
        <ele>13</ele>
        <time>2020-09-09T12:44:08Z</time>
      </trkpt>
      <trkpt lat="44.84286" lon="-0.21653">
        <ele>13</ele>
        <time>2020-09-09T12:44:10Z</time>
      </trkpt>
      <trkpt lat="44.84286" lon="-0.21653">
        <ele>13</ele>
        <time>2020-09-09T12:44:11Z</time>
      </trkpt>
      <trkpt lat="44.84286" lon="-0.21653">
        <ele>13</ele>
        <time>2020-09-09T12:44:13Z</time>
      </trkpt>
      <trkpt lat="44.84286" lon="-0.21653">
        <ele>12.9</ele>
        <time>2020-09-09T12:44:15Z</time>
      </trkpt>
      <trkpt lat="44.84286" lon="-0.21653">
        <ele>12.9</ele>
        <time>2020-09-09T12:44:17Z</time>
      </trkpt>
      <trkpt lat="44.84286" lon="-0.21653">
        <ele>12.9</ele>
        <time>2020-09-09T12:44:18Z</time>
      </trkpt>
      <trkpt lat="44.84285" lon="-0.21653">
        <ele>12.9</ele>
        <time>2020-09-09T12:44:20Z</time>
      </trkpt>
      <trkpt lat="44.84285" lon="-0.21653">
        <ele>12.9</ele>
        <time>2020-09-09T12:44:21Z</time>
      </trkpt>
      <trkpt lat="44.84285" lon="-0.21654">
        <ele>12.9</ele>
        <time>2020-09-09T12:44:23Z</time>
      </trkpt>
      <trkpt lat="44.84285" lon="-0.21654">
        <ele>12.9</ele>
        <time>2020-09-09T12:44:24Z</time>
      </trkpt>
      <trkpt lat="44.84284" lon="-0.21653">
        <ele>12.9</ele>
        <time>2020-09-09T12:44:26Z</time>
      </trkpt>
      <trkpt lat="44.84284" lon="-0.21654">
        <ele>12.9</ele>
        <time>2020-09-09T12:44:27Z</time>
      </trkpt>
      <trkpt lat="44.84283" lon="-0.21652">
        <ele>12.9</ele>
        <time>2020-09-09T12:44:29Z</time>
      </trkpt>
      <trkpt lat="44.84283" lon="-0.21651">
        <ele>12.9</ele>
        <time>2020-09-09T12:44:30Z</time>
      </trkpt>
      <trkpt lat="44.84283" lon="-0.2165">
        <ele>12.9</ele>
        <time>2020-09-09T12:44:33Z</time>
      </trkpt>
      <trkpt lat="44.84283" lon="-0.2165">
        <ele>12.9</ele>
        <time>2020-09-09T12:44:34Z</time>
      </trkpt>
      <trkpt lat="44.84282" lon="-0.21649">
        <ele>12.9</ele>
        <time>2020-09-09T12:44:35Z</time>
      </trkpt>
      <trkpt lat="44.84283" lon="-0.2165">
        <ele>12.9</ele>
        <time>2020-09-09T12:44:36Z</time>
      </trkpt>
      <trkpt lat="44.84283" lon="-0.21653">
        <ele>12.9</ele>
        <time>2020-09-09T12:44:38Z</time>
      </trkpt>
      <trkpt lat="44.84283" lon="-0.21654">
        <ele>12.8</ele>
        <time>2020-09-09T12:44:39Z</time>
      </trkpt>
      <trkpt lat="44.84282" lon="-0.21654">
        <ele>12.8</ele>
        <time>2020-09-09T12:44:41Z</time>
      </trkpt>
      <trkpt lat="44.84281" lon="-0.21655">
        <ele>12.8</ele>
        <time>2020-09-09T12:44:42Z</time>
      </trkpt>
      <trkpt lat="44.84282" lon="-0.21655">
        <ele>12.8</ele>
        <time>2020-09-09T12:44:44Z</time>
      </trkpt>
      <trkpt lat="44.84282" lon="-0.21656">
        <ele>12.8</ele>
        <time>2020-09-09T12:44:45Z</time>
      </trkpt>
      <trkpt lat="44.84282" lon="-0.21658">
        <ele>12.8</ele>
        <time>2020-09-09T12:44:46Z</time>
      </trkpt>
      <trkpt lat="44.84283" lon="-0.21661">
        <ele>12.8</ele>
        <time>2020-09-09T12:44:48Z</time>
      </trkpt>
      <trkpt lat="44.84284" lon="-0.21661">
        <ele>12.8</ele>
        <time>2020-09-09T12:44:49Z</time>
      </trkpt>
      <trkpt lat="44.84285" lon="-0.21662">
        <ele>12.8</ele>
        <time>2020-09-09T12:44:50Z</time>
      </trkpt>
      <trkpt lat="44.84288" lon="-0.21664">
        <ele>12.7</ele>
        <time>2020-09-09T12:44:51Z</time>
      </trkpt>
      <trkpt lat="44.8429" lon="-0.21665">
        <ele>12.7</ele>
        <time>2020-09-09T12:44:52Z</time>
      </trkpt>
      <trkpt lat="44.84293" lon="-0.21667">
        <ele>12.7</ele>
        <time>2020-09-09T12:44:53Z</time>
      </trkpt>
      <trkpt lat="44.84296" lon="-0.21669">
        <ele>12.6</ele>
        <time>2020-09-09T12:44:55Z</time>
      </trkpt>
      <trkpt lat="44.84298" lon="-0.2167">
        <ele>12.6</ele>
        <time>2020-09-09T12:44:56Z</time>
      </trkpt>
      <trkpt lat="44.84299" lon="-0.21672">
        <ele>12.6</ele>
        <time>2020-09-09T12:44:57Z</time>
      </trkpt>
      <trkpt lat="44.843" lon="-0.21672">
        <ele>12.6</ele>
        <time>2020-09-09T12:44:58Z</time>
      </trkpt>
      <trkpt lat="44.84302" lon="-0.21673">
        <ele>12.6</ele>
        <time>2020-09-09T12:44:59Z</time>
      </trkpt>
      <trkpt lat="44.84303" lon="-0.21675">
        <ele>12.6</ele>
        <time>2020-09-09T12:45:00Z</time>
      </trkpt>
      <trkpt lat="44.84304" lon="-0.21677">
        <ele>12.5</ele>
        <time>2020-09-09T12:45:01Z</time>
      </trkpt>
      <trkpt lat="44.84307" lon="-0.2168">
        <ele>12.5</ele>
        <time>2020-09-09T12:45:03Z</time>
      </trkpt>
      <trkpt lat="44.84309" lon="-0.21682">
        <ele>12.5</ele>
        <time>2020-09-09T12:45:04Z</time>
      </trkpt>
      <trkpt lat="44.84313" lon="-0.21687">
        <ele>12.5</ele>
        <time>2020-09-09T12:45:06Z</time>
      </trkpt>
      <trkpt lat="44.84317" lon="-0.21687">
        <ele>12.5</ele>
        <time>2020-09-09T12:45:08Z</time>
      </trkpt>
      <trkpt lat="44.8432" lon="-0.21687">
        <ele>12.4</ele>
        <time>2020-09-09T12:45:09Z</time>
      </trkpt>
      <trkpt lat="44.84323" lon="-0.21687">
        <ele>12.4</ele>
        <time>2020-09-09T12:45:11Z</time>
      </trkpt>
      <trkpt lat="44.84324" lon="-0.21687">
        <ele>12.4</ele>
        <time>2020-09-09T12:45:12Z</time>
      </trkpt>
      <trkpt lat="44.84325" lon="-0.21688">
        <ele>12.4</ele>
        <time>2020-09-09T12:45:14Z</time>
      </trkpt>
      <trkpt lat="44.84326" lon="-0.21689">
        <ele>12.4</ele>
        <time>2020-09-09T12:45:15Z</time>
      </trkpt>
      <trkpt lat="44.84326" lon="-0.2169">
        <ele>12.4</ele>
        <time>2020-09-09T12:45:16Z</time>
      </trkpt>
      <trkpt lat="44.84327" lon="-0.21691">
        <ele>12.4</ele>
        <time>2020-09-09T12:45:18Z</time>
      </trkpt>
      <trkpt lat="44.84328" lon="-0.21693">
        <ele>12.4</ele>
        <time>2020-09-09T12:45:19Z</time>
      </trkpt>
      <trkpt lat="44.84328" lon="-0.21694">
        <ele>12.4</ele>
        <time>2020-09-09T12:45:20Z</time>
      </trkpt>
      <trkpt lat="44.84329" lon="-0.21695">
        <ele>12.4</ele>
        <time>2020-09-09T12:45:21Z</time>
      </trkpt>
      <trkpt lat="44.8433" lon="-0.21696">
        <ele>12.4</ele>
        <time>2020-09-09T12:45:22Z</time>
      </trkpt>
      <trkpt lat="44.8433" lon="-0.21698">
        <ele>12.4</ele>
        <time>2020-09-09T12:45:23Z</time>
      </trkpt>
      <trkpt lat="44.84331" lon="-0.21699">
        <ele>12.4</ele>
        <time>2020-09-09T12:45:24Z</time>
      </trkpt>
      <trkpt lat="44.84331" lon="-0.217">
        <ele>12.4</ele>
        <time>2020-09-09T12:45:25Z</time>
      </trkpt>
      <trkpt lat="44.84332" lon="-0.21701">
        <ele>12.4</ele>
        <time>2020-09-09T12:45:26Z</time>
      </trkpt>
      <trkpt lat="44.84333" lon="-0.21703">
        <ele>12.4</ele>
        <time>2020-09-09T12:45:27Z</time>
      </trkpt>
      <trkpt lat="44.84334" lon="-0.21705">
        <ele>12.3</ele>
        <time>2020-09-09T12:45:28Z</time>
      </trkpt>
      <trkpt lat="44.84335" lon="-0.21706">
        <ele>12.3</ele>
        <time>2020-09-09T12:45:29Z</time>
      </trkpt>
      <trkpt lat="44.84336" lon="-0.21708">
        <ele>12.3</ele>
        <time>2020-09-09T12:45:30Z</time>
      </trkpt>
      <trkpt lat="44.84337" lon="-0.21711">
        <ele>12.3</ele>
        <time>2020-09-09T12:45:32Z</time>
      </trkpt>
      <trkpt lat="44.84339" lon="-0.21715">
        <ele>12.3</ele>
        <time>2020-09-09T12:45:33Z</time>
      </trkpt>
      <trkpt lat="44.84339" lon="-0.21716">
        <ele>12.3</ele>
        <time>2020-09-09T12:45:34Z</time>
      </trkpt>
      <trkpt lat="44.84342" lon="-0.21719">
        <ele>12.2</ele>
        <time>2020-09-09T12:45:35Z</time>
      </trkpt>
      <trkpt lat="44.84343" lon="-0.21721">
        <ele>12.2</ele>
        <time>2020-09-09T12:45:36Z</time>
      </trkpt>
      <trkpt lat="44.84345" lon="-0.21724">
        <ele>12.2</ele>
        <time>2020-09-09T12:45:38Z</time>
      </trkpt>
      <trkpt lat="44.84347" lon="-0.21726">
        <ele>12.2</ele>
        <time>2020-09-09T12:45:39Z</time>
      </trkpt>
      <trkpt lat="44.84348" lon="-0.21727">
        <ele>12.2</ele>
        <time>2020-09-09T12:45:41Z</time>
      </trkpt>
      <trkpt lat="44.8435" lon="-0.21728">
        <ele>12.2</ele>
        <time>2020-09-09T12:45:42Z</time>
      </trkpt>
      <trkpt lat="44.84351" lon="-0.2173">
        <ele>12.1</ele>
        <time>2020-09-09T12:45:43Z</time>
      </trkpt>
      <trkpt lat="44.84352" lon="-0.21731">
        <ele>12.1</ele>
        <time>2020-09-09T12:45:44Z</time>
      </trkpt>
      <trkpt lat="44.84353" lon="-0.21733">
        <ele>12.1</ele>
        <time>2020-09-09T12:45:45Z</time>
      </trkpt>
      <trkpt lat="44.84354" lon="-0.21734">
        <ele>12.1</ele>
        <time>2020-09-09T12:45:46Z</time>
      </trkpt>
      <trkpt lat="44.84356" lon="-0.21737">
        <ele>12.1</ele>
        <time>2020-09-09T12:45:48Z</time>
      </trkpt>
      <trkpt lat="44.84357" lon="-0.21739">
        <ele>12.1</ele>
        <time>2020-09-09T12:45:49Z</time>
      </trkpt>
      <trkpt lat="44.84359" lon="-0.2174">
        <ele>12</ele>
        <time>2020-09-09T12:45:50Z</time>
      </trkpt>
      <trkpt lat="44.84361" lon="-0.21743">
        <ele>12</ele>
        <time>2020-09-09T12:45:52Z</time>
      </trkpt>
      <trkpt lat="44.84362" lon="-0.21744">
        <ele>12</ele>
        <time>2020-09-09T12:45:53Z</time>
      </trkpt>
      <trkpt lat="44.84363" lon="-0.21745">
        <ele>12</ele>
        <time>2020-09-09T12:45:54Z</time>
      </trkpt>
      <trkpt lat="44.84364" lon="-0.21747">
        <ele>12</ele>
        <time>2020-09-09T12:45:56Z</time>
      </trkpt>
      <trkpt lat="44.84365" lon="-0.21748">
        <ele>12</ele>
        <time>2020-09-09T12:45:57Z</time>
      </trkpt>
      <trkpt lat="44.84365" lon="-0.21749">
        <ele>11.9</ele>
        <time>2020-09-09T12:45:59Z</time>
      </trkpt>
      <trkpt lat="44.84366" lon="-0.21751">
        <ele>11.9</ele>
        <time>2020-09-09T12:46:00Z</time>
      </trkpt>
      <trkpt lat="44.84368" lon="-0.21753">
        <ele>11.9</ele>
        <time>2020-09-09T12:46:02Z</time>
      </trkpt>
      <trkpt lat="44.84369" lon="-0.21755">
        <ele>11.9</ele>
        <time>2020-09-09T12:46:03Z</time>
      </trkpt>
      <trkpt lat="44.84369" lon="-0.21756">
        <ele>11.9</ele>
        <time>2020-09-09T12:46:04Z</time>
      </trkpt>
      <trkpt lat="44.8437" lon="-0.21757">
        <ele>11.9</ele>
        <time>2020-09-09T12:46:05Z</time>
      </trkpt>
      <trkpt lat="44.84372" lon="-0.21759">
        <ele>11.8</ele>
        <time>2020-09-09T12:46:07Z</time>
      </trkpt>
      <trkpt lat="44.84373" lon="-0.2176">
        <ele>11.8</ele>
        <time>2020-09-09T12:46:08Z</time>
      </trkpt>
      <trkpt lat="44.84374" lon="-0.21761">
        <ele>11.8</ele>
        <time>2020-09-09T12:46:09Z</time>
      </trkpt>
      <trkpt lat="44.84375" lon="-0.21763">
        <ele>11.8</ele>
        <time>2020-09-09T12:46:10Z</time>
      </trkpt>
      <trkpt lat="44.84376" lon="-0.21764">
        <ele>11.8</ele>
        <time>2020-09-09T12:46:11Z</time>
      </trkpt>
      <trkpt lat="44.84378" lon="-0.21765">
        <ele>11.8</ele>
        <time>2020-09-09T12:46:12Z</time>
      </trkpt>
      <trkpt lat="44.8438" lon="-0.21767">
        <ele>11.7</ele>
        <time>2020-09-09T12:46:14Z</time>
      </trkpt>
      <trkpt lat="44.84381" lon="-0.21768">
        <ele>11.7</ele>
        <time>2020-09-09T12:46:15Z</time>
      </trkpt>
      <trkpt lat="44.84383" lon="-0.21769">
        <ele>11.7</ele>
        <time>2020-09-09T12:46:16Z</time>
      </trkpt>
      <trkpt lat="44.84384" lon="-0.2177">
        <ele>11.7</ele>
        <time>2020-09-09T12:46:17Z</time>
      </trkpt>
      <trkpt lat="44.84385" lon="-0.21771">
        <ele>11.7</ele>
        <time>2020-09-09T12:46:18Z</time>
      </trkpt>
      <trkpt lat="44.84389" lon="-0.21771">
        <ele>11.6</ele>
        <time>2020-09-09T12:46:20Z</time>
      </trkpt>
      <trkpt lat="44.84389" lon="-0.21772">
        <ele>11.6</ele>
        <time>2020-09-09T12:46:21Z</time>
      </trkpt>
      <trkpt lat="44.84391" lon="-0.21772">
        <ele>11.6</ele>
        <time>2020-09-09T12:46:23Z</time>
      </trkpt>
      <trkpt lat="44.84392" lon="-0.21773">
        <ele>11.6</ele>
        <time>2020-09-09T12:46:24Z</time>
      </trkpt>
      <trkpt lat="44.84394" lon="-0.21774">
        <ele>11.6</ele>
        <time>2020-09-09T12:46:26Z</time>
      </trkpt>
      <trkpt lat="44.84395" lon="-0.21774">
        <ele>11.6</ele>
        <time>2020-09-09T12:46:27Z</time>
      </trkpt>
      <trkpt lat="44.84396" lon="-0.21775">
        <ele>11.5</ele>
        <time>2020-09-09T12:46:29Z</time>
      </trkpt>
      <trkpt lat="44.84397" lon="-0.21776">
        <ele>11.5</ele>
        <time>2020-09-09T12:46:30Z</time>
      </trkpt>
      <trkpt lat="44.84398" lon="-0.21776">
        <ele>11.5</ele>
        <time>2020-09-09T12:46:31Z</time>
      </trkpt>
      <trkpt lat="44.84399" lon="-0.21777">
        <ele>11.5</ele>
        <time>2020-09-09T12:46:32Z</time>
      </trkpt>
      <trkpt lat="44.84401" lon="-0.21778">
        <ele>11.5</ele>
        <time>2020-09-09T12:46:33Z</time>
      </trkpt>
      <trkpt lat="44.84403" lon="-0.21779">
        <ele>11.4</ele>
        <time>2020-09-09T12:46:35Z</time>
      </trkpt>
      <trkpt lat="44.84406" lon="-0.2178">
        <ele>11.4</ele>
        <time>2020-09-09T12:46:36Z</time>
      </trkpt>
      <trkpt lat="44.84407" lon="-0.21781">
        <ele>11.4</ele>
        <time>2020-09-09T12:46:37Z</time>
      </trkpt>
      <trkpt lat="44.84408" lon="-0.21781">
        <ele>11.4</ele>
        <time>2020-09-09T12:46:38Z</time>
      </trkpt>
      <trkpt lat="44.8441" lon="-0.21782">
        <ele>11.3</ele>
        <time>2020-09-09T12:46:40Z</time>
      </trkpt>
      <trkpt lat="44.84411" lon="-0.21783">
        <ele>11.3</ele>
        <time>2020-09-09T12:46:41Z</time>
      </trkpt>
      <trkpt lat="44.84412" lon="-0.21784">
        <ele>11.3</ele>
        <time>2020-09-09T12:46:42Z</time>
      </trkpt>
      <trkpt lat="44.84412" lon="-0.21784">
        <ele>11.3</ele>
        <time>2020-09-09T12:46:43Z</time>
      </trkpt>
      <trkpt lat="44.84414" lon="-0.21786">
        <ele>11.3</ele>
        <time>2020-09-09T12:46:44Z</time>
      </trkpt>
      <trkpt lat="44.84414" lon="-0.21787">
        <ele>11.3</ele>
        <time>2020-09-09T12:46:45Z</time>
      </trkpt>
      <trkpt lat="44.84415" lon="-0.21787">
        <ele>11.3</ele>
        <time>2020-09-09T12:46:47Z</time>
      </trkpt>
      <trkpt lat="44.84416" lon="-0.21788">
        <ele>11.2</ele>
        <time>2020-09-09T12:46:48Z</time>
      </trkpt>
      <trkpt lat="44.84417" lon="-0.21789">
        <ele>11.2</ele>
        <time>2020-09-09T12:46:50Z</time>
      </trkpt>
      <trkpt lat="44.84418" lon="-0.2179">
        <ele>11.2</ele>
        <time>2020-09-09T12:46:51Z</time>
      </trkpt>
      <trkpt lat="44.84419" lon="-0.21792">
        <ele>11.2</ele>
        <time>2020-09-09T12:46:53Z</time>
      </trkpt>
      <trkpt lat="44.8442" lon="-0.21792">
        <ele>11.2</ele>
        <time>2020-09-09T12:46:54Z</time>
      </trkpt>
      <trkpt lat="44.84423" lon="-0.21794">
        <ele>11.1</ele>
        <time>2020-09-09T12:46:55Z</time>
      </trkpt>
      <trkpt lat="44.84426" lon="-0.21795">
        <ele>11.1</ele>
        <time>2020-09-09T12:46:57Z</time>
      </trkpt>
      <trkpt lat="44.84427" lon="-0.21797">
        <ele>11.1</ele>
        <time>2020-09-09T12:46:58Z</time>
      </trkpt>
      <trkpt lat="44.84429" lon="-0.21798">
        <ele>11.1</ele>
        <time>2020-09-09T12:46:59Z</time>
      </trkpt>
      <trkpt lat="44.8443" lon="-0.21799">
        <ele>11</ele>
        <time>2020-09-09T12:47:01Z</time>
      </trkpt>
      <trkpt lat="44.84431" lon="-0.21799">
        <ele>11</ele>
        <time>2020-09-09T12:47:02Z</time>
      </trkpt>
      <trkpt lat="44.84432" lon="-0.218">
        <ele>11</ele>
        <time>2020-09-09T12:47:03Z</time>
      </trkpt>
      <trkpt lat="44.84433" lon="-0.218">
        <ele>11</ele>
        <time>2020-09-09T12:47:04Z</time>
      </trkpt>
      <trkpt lat="44.84433" lon="-0.21801">
        <ele>11</ele>
        <time>2020-09-09T12:47:05Z</time>
      </trkpt>
      <trkpt lat="44.84434" lon="-0.21802">
        <ele>11</ele>
        <time>2020-09-09T12:47:06Z</time>
      </trkpt>
      <trkpt lat="44.84436" lon="-0.21803">
        <ele>11</ele>
        <time>2020-09-09T12:47:07Z</time>
      </trkpt>
      <trkpt lat="44.84437" lon="-0.21804">
        <ele>10.9</ele>
        <time>2020-09-09T12:47:08Z</time>
      </trkpt>
      <trkpt lat="44.84439" lon="-0.21805">
        <ele>10.9</ele>
        <time>2020-09-09T12:47:09Z</time>
      </trkpt>
      <trkpt lat="44.8444" lon="-0.21805">
        <ele>10.9</ele>
        <time>2020-09-09T12:47:10Z</time>
      </trkpt>
      <trkpt lat="44.84442" lon="-0.21807">
        <ele>10.9</ele>
        <time>2020-09-09T12:47:11Z</time>
      </trkpt>
      <trkpt lat="44.84444" lon="-0.21809">
        <ele>10.8</ele>
        <time>2020-09-09T12:47:13Z</time>
      </trkpt>
      <trkpt lat="44.84445" lon="-0.2181">
        <ele>10.8</ele>
        <time>2020-09-09T12:47:14Z</time>
      </trkpt>
      <trkpt lat="44.84447" lon="-0.21812">
        <ele>10.8</ele>
        <time>2020-09-09T12:47:16Z</time>
      </trkpt>
      <trkpt lat="44.84448" lon="-0.21813">
        <ele>10.8</ele>
        <time>2020-09-09T12:47:17Z</time>
      </trkpt>
      <trkpt lat="44.8445" lon="-0.21813">
        <ele>10.8</ele>
        <time>2020-09-09T12:47:18Z</time>
      </trkpt>
      <trkpt lat="44.84451" lon="-0.21814">
        <ele>10.8</ele>
        <time>2020-09-09T12:47:20Z</time>
      </trkpt>
      <trkpt lat="44.84453" lon="-0.21816">
        <ele>10.7</ele>
        <time>2020-09-09T12:47:21Z</time>
      </trkpt>
      <trkpt lat="44.84454" lon="-0.21816">
        <ele>10.7</ele>
        <time>2020-09-09T12:47:22Z</time>
      </trkpt>
      <trkpt lat="44.84455" lon="-0.21817">
        <ele>10.7</ele>
        <time>2020-09-09T12:47:23Z</time>
      </trkpt>
      <trkpt lat="44.84456" lon="-0.21817">
        <ele>10.7</ele>
        <time>2020-09-09T12:47:24Z</time>
      </trkpt>
      <trkpt lat="44.84458" lon="-0.21818">
        <ele>10.7</ele>
        <time>2020-09-09T12:47:25Z</time>
      </trkpt>
      <trkpt lat="44.84459" lon="-0.2182">
        <ele>10.6</ele>
        <time>2020-09-09T12:47:27Z</time>
      </trkpt>
      <trkpt lat="44.84461" lon="-0.21821">
        <ele>10.6</ele>
        <time>2020-09-09T12:47:28Z</time>
      </trkpt>
      <trkpt lat="44.84462" lon="-0.21822">
        <ele>10.6</ele>
        <time>2020-09-09T12:47:30Z</time>
      </trkpt>
      <trkpt lat="44.84463" lon="-0.21823">
        <ele>10.6</ele>
        <time>2020-09-09T12:47:31Z</time>
      </trkpt>
      <trkpt lat="44.84465" lon="-0.21825">
        <ele>10.6</ele>
        <time>2020-09-09T12:47:33Z</time>
      </trkpt>
      <trkpt lat="44.84466" lon="-0.21826">
        <ele>10.6</ele>
        <time>2020-09-09T12:47:34Z</time>
      </trkpt>
      <trkpt lat="44.84469" lon="-0.21828">
        <ele>10.5</ele>
        <time>2020-09-09T12:47:36Z</time>
      </trkpt>
      <trkpt lat="44.84471" lon="-0.21831">
        <ele>10.5</ele>
        <time>2020-09-09T12:47:38Z</time>
      </trkpt>
      <trkpt lat="44.84472" lon="-0.21832">
        <ele>10.5</ele>
        <time>2020-09-09T12:47:39Z</time>
      </trkpt>
      <trkpt lat="44.84474" lon="-0.21833">
        <ele>10.4</ele>
        <time>2020-09-09T12:47:41Z</time>
      </trkpt>
      <trkpt lat="44.84475" lon="-0.21835">
        <ele>10.4</ele>
        <time>2020-09-09T12:47:42Z</time>
      </trkpt>
      <trkpt lat="44.84476" lon="-0.21836">
        <ele>10.4</ele>
        <time>2020-09-09T12:47:43Z</time>
      </trkpt>
      <trkpt lat="44.84478" lon="-0.21839">
        <ele>10.4</ele>
        <time>2020-09-09T12:47:45Z</time>
      </trkpt>
      <trkpt lat="44.84479" lon="-0.2184">
        <ele>10.4</ele>
        <time>2020-09-09T12:47:46Z</time>
      </trkpt>
      <trkpt lat="44.84479" lon="-0.2184">
        <ele>10.3</ele>
        <time>2020-09-09T12:47:47Z</time>
      </trkpt>
      <trkpt lat="44.84479" lon="-0.21842">
        <ele>10.3</ele>
        <time>2020-09-09T12:47:48Z</time>
      </trkpt>
      <trkpt lat="44.84478" lon="-0.21844">
        <ele>10.3</ele>
        <time>2020-09-09T12:47:50Z</time>
      </trkpt>
      <trkpt lat="44.84478" lon="-0.21845">
        <ele>10.3</ele>
        <time>2020-09-09T12:47:51Z</time>
      </trkpt>
      <trkpt lat="44.84476" lon="-0.21847">
        <ele>10.2</ele>
        <time>2020-09-09T12:47:52Z</time>
      </trkpt>
      <trkpt lat="44.84475" lon="-0.21851">
        <ele>10.2</ele>
        <time>2020-09-09T12:47:54Z</time>
      </trkpt>
      <trkpt lat="44.84473" lon="-0.21852">
        <ele>10.2</ele>
        <time>2020-09-09T12:47:55Z</time>
      </trkpt>
      <trkpt lat="44.84472" lon="-0.21855">
        <ele>10.1</ele>
        <time>2020-09-09T12:47:57Z</time>
      </trkpt>
      <trkpt lat="44.84471" lon="-0.21858">
        <ele>10.1</ele>
        <time>2020-09-09T12:47:58Z</time>
      </trkpt>
      <trkpt lat="44.84469" lon="-0.21861">
        <ele>10</ele>
        <time>2020-09-09T12:48:00Z</time>
      </trkpt>
      <trkpt lat="44.84467" lon="-0.21862">
        <ele>10</ele>
        <time>2020-09-09T12:48:01Z</time>
      </trkpt>
      <trkpt lat="44.84466" lon="-0.21864">
        <ele>10</ele>
        <time>2020-09-09T12:48:02Z</time>
      </trkpt>
      <trkpt lat="44.84465" lon="-0.21866">
        <ele>9.9</ele>
        <time>2020-09-09T12:48:04Z</time>
      </trkpt>
      <trkpt lat="44.84465" lon="-0.21867">
        <ele>9.9</ele>
        <time>2020-09-09T12:48:05Z</time>
      </trkpt>
      <trkpt lat="44.84465" lon="-0.21867">
        <ele>9.9</ele>
        <time>2020-09-09T12:48:06Z</time>
      </trkpt>
      <trkpt lat="44.84464" lon="-0.21869">
        <ele>9.9</ele>
        <time>2020-09-09T12:48:08Z</time>
      </trkpt>
      <trkpt lat="44.84464" lon="-0.2187">
        <ele>9.9</ele>
        <time>2020-09-09T12:48:09Z</time>
      </trkpt>
      <trkpt lat="44.84463" lon="-0.21869">
        <ele>9.8</ele>
        <time>2020-09-09T12:48:10Z</time>
      </trkpt>
      <trkpt lat="44.84463" lon="-0.21871">
        <ele>9.8</ele>
        <time>2020-09-09T12:48:12Z</time>
      </trkpt>
      <trkpt lat="44.84463" lon="-0.21873">
        <ele>9.8</ele>
        <time>2020-09-09T12:48:13Z</time>
      </trkpt>
      <trkpt lat="44.84462" lon="-0.21875">
        <ele>9.8</ele>
        <time>2020-09-09T12:48:14Z</time>
      </trkpt>
      <trkpt lat="44.84462" lon="-0.21878">
        <ele>9.7</ele>
        <time>2020-09-09T12:48:16Z</time>
      </trkpt>
      <trkpt lat="44.84462" lon="-0.21879">
        <ele>9.7</ele>
        <time>2020-09-09T12:48:18Z</time>
      </trkpt>
      <trkpt lat="44.84462" lon="-0.21879">
        <ele>9.7</ele>
        <time>2020-09-09T12:48:19Z</time>
      </trkpt>
      <trkpt lat="44.84465" lon="-0.21876">
        <ele>9.7</ele>
        <time>2020-09-09T12:48:20Z</time>
      </trkpt>
      <trkpt lat="44.84465" lon="-0.21875">
        <ele>9.6</ele>
        <time>2020-09-09T12:48:22Z</time>
      </trkpt>
      <trkpt lat="44.84466" lon="-0.21874">
        <ele>9.6</ele>
        <time>2020-09-09T12:48:23Z</time>
      </trkpt>
      <trkpt lat="44.84466" lon="-0.21871">
        <ele>9.6</ele>
        <time>2020-09-09T12:48:25Z</time>
      </trkpt>
      <trkpt lat="44.84467" lon="-0.21869">
        <ele>9.6</ele>
        <time>2020-09-09T12:48:26Z</time>
      </trkpt>
      <trkpt lat="44.84467" lon="-0.21866">
        <ele>9.5</ele>
        <time>2020-09-09T12:48:28Z</time>
      </trkpt>
      <trkpt lat="44.84468" lon="-0.21864">
        <ele>9.5</ele>
        <time>2020-09-09T12:48:30Z</time>
      </trkpt>
      <trkpt lat="44.84468" lon="-0.21862">
        <ele>9.5</ele>
        <time>2020-09-09T12:48:31Z</time>
      </trkpt>
      <trkpt lat="44.84469" lon="-0.2186">
        <ele>9.5</ele>
        <time>2020-09-09T12:48:32Z</time>
      </trkpt>
      <trkpt lat="44.84469" lon="-0.21857">
        <ele>9.4</ele>
        <time>2020-09-09T12:48:34Z</time>
      </trkpt>
      <trkpt lat="44.8447" lon="-0.21854">
        <ele>9.4</ele>
        <time>2020-09-09T12:48:35Z</time>
      </trkpt>
      <trkpt lat="44.84471" lon="-0.21853">
        <ele>9.4</ele>
        <time>2020-09-09T12:48:36Z</time>
      </trkpt>
      <trkpt lat="44.84471" lon="-0.21851">
        <ele>9.3</ele>
        <time>2020-09-09T12:48:38Z</time>
      </trkpt>
      <trkpt lat="44.84472" lon="-0.21849">
        <ele>9.3</ele>
        <time>2020-09-09T12:48:39Z</time>
      </trkpt>
      <trkpt lat="44.84474" lon="-0.21847">
        <ele>9.3</ele>
        <time>2020-09-09T12:48:41Z</time>
      </trkpt>
      <trkpt lat="44.84475" lon="-0.21847">
        <ele>9.3</ele>
        <time>2020-09-09T12:48:42Z</time>
      </trkpt>
      <trkpt lat="44.84476" lon="-0.21847">
        <ele>9.2</ele>
        <time>2020-09-09T12:48:43Z</time>
      </trkpt>
      <trkpt lat="44.84477" lon="-0.21848">
        <ele>9.2</ele>
        <time>2020-09-09T12:48:44Z</time>
      </trkpt>
      <trkpt lat="44.8448" lon="-0.21849">
        <ele>9.2</ele>
        <time>2020-09-09T12:48:46Z</time>
      </trkpt>
      <trkpt lat="44.84482" lon="-0.21851">
        <ele>9.1</ele>
        <time>2020-09-09T12:48:47Z</time>
      </trkpt>
      <trkpt lat="44.84483" lon="-0.21852">
        <ele>9.1</ele>
        <time>2020-09-09T12:48:48Z</time>
      </trkpt>
      <trkpt lat="44.84485" lon="-0.21855">
        <ele>9.1</ele>
        <time>2020-09-09T12:48:50Z</time>
      </trkpt>
      <trkpt lat="44.84485" lon="-0.21855">
        <ele>9</ele>
        <time>2020-09-09T12:48:51Z</time>
      </trkpt>
      <trkpt lat="44.84487" lon="-0.21858">
        <ele>9</ele>
        <time>2020-09-09T12:48:53Z</time>
      </trkpt>
      <trkpt lat="44.84488" lon="-0.21859">
        <ele>9</ele>
        <time>2020-09-09T12:48:54Z</time>
      </trkpt>
      <trkpt lat="44.84489" lon="-0.2186">
        <ele>9</ele>
        <time>2020-09-09T12:48:55Z</time>
      </trkpt>
      <trkpt lat="44.84491" lon="-0.21862">
        <ele>8.9</ele>
        <time>2020-09-09T12:48:57Z</time>
      </trkpt>
      <trkpt lat="44.84492" lon="-0.21864">
        <ele>8.9</ele>
        <time>2020-09-09T12:48:58Z</time>
      </trkpt>
      <trkpt lat="44.84492" lon="-0.21865">
        <ele>8.9</ele>
        <time>2020-09-09T12:48:59Z</time>
      </trkpt>
      <trkpt lat="44.84496" lon="-0.21863">
        <ele>8.8</ele>
        <time>2020-09-09T12:49:01Z</time>
      </trkpt>
      <trkpt lat="44.84496" lon="-0.21864">
        <ele>8.8</ele>
        <time>2020-09-09T12:49:02Z</time>
      </trkpt>
      <trkpt lat="44.84497" lon="-0.21866">
        <ele>8.7</ele>
        <time>2020-09-09T12:49:03Z</time>
      </trkpt>
      <trkpt lat="44.84499" lon="-0.21868">
        <ele>8.7</ele>
        <time>2020-09-09T12:49:05Z</time>
      </trkpt>
      <trkpt lat="44.84501" lon="-0.21868">
        <ele>8.6</ele>
        <time>2020-09-09T12:49:07Z</time>
      </trkpt>
      <trkpt lat="44.84502" lon="-0.2187">
        <ele>8.6</ele>
        <time>2020-09-09T12:49:08Z</time>
      </trkpt>
      <trkpt lat="44.84504" lon="-0.21871">
        <ele>8.5</ele>
        <time>2020-09-09T12:49:09Z</time>
      </trkpt>
      <trkpt lat="44.84505" lon="-0.21873">
        <ele>8.5</ele>
        <time>2020-09-09T12:49:10Z</time>
      </trkpt>
      <trkpt lat="44.84505" lon="-0.21873">
        <ele>8.5</ele>
        <time>2020-09-09T12:49:11Z</time>
      </trkpt>
      <trkpt lat="44.84506" lon="-0.21874">
        <ele>8.5</ele>
        <time>2020-09-09T12:49:12Z</time>
      </trkpt>
      <trkpt lat="44.84507" lon="-0.21875">
        <ele>8.4</ele>
        <time>2020-09-09T12:49:13Z</time>
      </trkpt>
      <trkpt lat="44.84508" lon="-0.21877">
        <ele>8.4</ele>
        <time>2020-09-09T12:49:14Z</time>
      </trkpt>
      <trkpt lat="44.8451" lon="-0.21881">
        <ele>8.3</ele>
        <time>2020-09-09T12:49:16Z</time>
      </trkpt>
      <trkpt lat="44.84511" lon="-0.21883">
        <ele>8.3</ele>
        <time>2020-09-09T12:49:17Z</time>
      </trkpt>
      <trkpt lat="44.84512" lon="-0.21885">
        <ele>8.3</ele>
        <time>2020-09-09T12:49:18Z</time>
      </trkpt>
      <trkpt lat="44.84513" lon="-0.21886">
        <ele>8.2</ele>
        <time>2020-09-09T12:49:19Z</time>
      </trkpt>
      <trkpt lat="44.84513" lon="-0.21887">
        <ele>8.2</ele>
        <time>2020-09-09T12:49:20Z</time>
      </trkpt>
      <trkpt lat="44.84514" lon="-0.21888">
        <ele>8.2</ele>
        <time>2020-09-09T12:49:21Z</time>
      </trkpt>
      <trkpt lat="44.84516" lon="-0.2189">
        <ele>8.1</ele>
        <time>2020-09-09T12:49:23Z</time>
      </trkpt>
      <trkpt lat="44.84519" lon="-0.21893">
        <ele>8</ele>
        <time>2020-09-09T12:49:25Z</time>
      </trkpt>
      <trkpt lat="44.8452" lon="-0.21895">
        <ele>8</ele>
        <time>2020-09-09T12:49:27Z</time>
      </trkpt>
      <trkpt lat="44.84521" lon="-0.21896">
        <ele>8</ele>
        <time>2020-09-09T12:49:28Z</time>
      </trkpt>
      <trkpt lat="44.84522" lon="-0.21898">
        <ele>7.9</ele>
        <time>2020-09-09T12:49:29Z</time>
      </trkpt>
      <trkpt lat="44.84524" lon="-0.21899">
        <ele>7.9</ele>
        <time>2020-09-09T12:49:31Z</time>
      </trkpt>
      <trkpt lat="44.84525" lon="-0.21901">
        <ele>7.8</ele>
        <time>2020-09-09T12:49:32Z</time>
      </trkpt>
      <trkpt lat="44.84526" lon="-0.21902">
        <ele>7.8</ele>
        <time>2020-09-09T12:49:33Z</time>
      </trkpt>
      <trkpt lat="44.84528" lon="-0.21903">
        <ele>7.8</ele>
        <time>2020-09-09T12:49:34Z</time>
      </trkpt>
      <trkpt lat="44.84529" lon="-0.21904">
        <ele>7.7</ele>
        <time>2020-09-09T12:49:35Z</time>
      </trkpt>
      <trkpt lat="44.84531" lon="-0.21904">
        <ele>7.7</ele>
        <time>2020-09-09T12:49:36Z</time>
      </trkpt>
      <trkpt lat="44.84532" lon="-0.21904">
        <ele>7.7</ele>
        <time>2020-09-09T12:49:37Z</time>
      </trkpt>
      <trkpt lat="44.84533" lon="-0.21905">
        <ele>7.7</ele>
        <time>2020-09-09T12:49:38Z</time>
      </trkpt>
      <trkpt lat="44.84534" lon="-0.21907">
        <ele>7.6</ele>
        <time>2020-09-09T12:49:40Z</time>
      </trkpt>
      <trkpt lat="44.84536" lon="-0.21906">
        <ele>7.6</ele>
        <time>2020-09-09T12:49:42Z</time>
      </trkpt>
      <trkpt lat="44.84538" lon="-0.21908">
        <ele>7.5</ele>
        <time>2020-09-09T12:49:43Z</time>
      </trkpt>
      <trkpt lat="44.84539" lon="-0.21909">
        <ele>7.5</ele>
        <time>2020-09-09T12:49:44Z</time>
      </trkpt>
      <trkpt lat="44.8454" lon="-0.2191">
        <ele>7.5</ele>
        <time>2020-09-09T12:49:45Z</time>
      </trkpt>
      <trkpt lat="44.84543" lon="-0.21911">
        <ele>7.5</ele>
        <time>2020-09-09T12:49:47Z</time>
      </trkpt>
      <trkpt lat="44.84543" lon="-0.21912">
        <ele>7.4</ele>
        <time>2020-09-09T12:49:48Z</time>
      </trkpt>
      <trkpt lat="44.84545" lon="-0.21914">
        <ele>7.4</ele>
        <time>2020-09-09T12:49:49Z</time>
      </trkpt>
      <trkpt lat="44.84546" lon="-0.21915">
        <ele>7.4</ele>
        <time>2020-09-09T12:49:50Z</time>
      </trkpt>
      <trkpt lat="44.84546" lon="-0.21914">
        <ele>7.4</ele>
        <time>2020-09-09T12:49:51Z</time>
      </trkpt>
      <trkpt lat="44.84547" lon="-0.21917">
        <ele>7.3</ele>
        <time>2020-09-09T12:49:52Z</time>
      </trkpt>
      <trkpt lat="44.84549" lon="-0.21919">
        <ele>7.3</ele>
        <time>2020-09-09T12:49:54Z</time>
      </trkpt>
      <trkpt lat="44.8455" lon="-0.21921">
        <ele>7.3</ele>
        <time>2020-09-09T12:49:55Z</time>
      </trkpt>
      <trkpt lat="44.8455" lon="-0.21924">
        <ele>7.3</ele>
        <time>2020-09-09T12:49:56Z</time>
      </trkpt>
      <trkpt lat="44.84551" lon="-0.21925">
        <ele>7.3</ele>
        <time>2020-09-09T12:49:58Z</time>
      </trkpt>
      <trkpt lat="44.84552" lon="-0.21927">
        <ele>7.2</ele>
        <time>2020-09-09T12:49:59Z</time>
      </trkpt>
      <trkpt lat="44.84554" lon="-0.2193">
        <ele>7.2</ele>
        <time>2020-09-09T12:50:00Z</time>
      </trkpt>
      <trkpt lat="44.84555" lon="-0.21931">
        <ele>7.2</ele>
        <time>2020-09-09T12:50:01Z</time>
      </trkpt>
      <trkpt lat="44.84556" lon="-0.21933">
        <ele>7.2</ele>
        <time>2020-09-09T12:50:03Z</time>
      </trkpt>
      <trkpt lat="44.84557" lon="-0.21935">
        <ele>7.2</ele>
        <time>2020-09-09T12:50:04Z</time>
      </trkpt>
      <trkpt lat="44.84558" lon="-0.21936">
        <ele>7.2</ele>
        <time>2020-09-09T12:50:05Z</time>
      </trkpt>
      <trkpt lat="44.84558" lon="-0.21939">
        <ele>7.2</ele>
        <time>2020-09-09T12:50:06Z</time>
      </trkpt>
      <trkpt lat="44.84559" lon="-0.2194">
        <ele>7.1</ele>
        <time>2020-09-09T12:50:07Z</time>
      </trkpt>
      <trkpt lat="44.8456" lon="-0.21942">
        <ele>7.1</ele>
        <time>2020-09-09T12:50:09Z</time>
      </trkpt>
      <trkpt lat="44.84561" lon="-0.21943">
        <ele>7.1</ele>
        <time>2020-09-09T12:50:10Z</time>
      </trkpt>
      <trkpt lat="44.84562" lon="-0.21945">
        <ele>7.1</ele>
        <time>2020-09-09T12:50:11Z</time>
      </trkpt>
      <trkpt lat="44.84564" lon="-0.21949">
        <ele>7.1</ele>
        <time>2020-09-09T12:50:13Z</time>
      </trkpt>
      <trkpt lat="44.84564" lon="-0.21949">
        <ele>7.1</ele>
        <time>2020-09-09T12:50:14Z</time>
      </trkpt>
      <trkpt lat="44.84565" lon="-0.21951">
        <ele>7.1</ele>
        <time>2020-09-09T12:50:15Z</time>
      </trkpt>
      <trkpt lat="44.84565" lon="-0.21952">
        <ele>7.1</ele>
        <time>2020-09-09T12:50:16Z</time>
      </trkpt>
      <trkpt lat="44.84567" lon="-0.21954">
        <ele>7</ele>
        <time>2020-09-09T12:50:18Z</time>
      </trkpt>
      <trkpt lat="44.84568" lon="-0.21956">
        <ele>7</ele>
        <time>2020-09-09T12:50:19Z</time>
      </trkpt>
      <trkpt lat="44.84569" lon="-0.21957">
        <ele>7</ele>
        <time>2020-09-09T12:50:20Z</time>
      </trkpt>
      <trkpt lat="44.84571" lon="-0.21959">
        <ele>7</ele>
        <time>2020-09-09T12:50:22Z</time>
      </trkpt>
      <trkpt lat="44.84571" lon="-0.2196">
        <ele>7</ele>
        <time>2020-09-09T12:50:23Z</time>
      </trkpt>
      <trkpt lat="44.84572" lon="-0.21961">
        <ele>7</ele>
        <time>2020-09-09T12:50:24Z</time>
      </trkpt>
      <trkpt lat="44.84573" lon="-0.21963">
        <ele>7</ele>
        <time>2020-09-09T12:50:25Z</time>
      </trkpt>
      <trkpt lat="44.84575" lon="-0.21965">
        <ele>7</ele>
        <time>2020-09-09T12:50:27Z</time>
      </trkpt>
      <trkpt lat="44.84576" lon="-0.21966">
        <ele>7</ele>
        <time>2020-09-09T12:50:28Z</time>
      </trkpt>
      <trkpt lat="44.84577" lon="-0.21968">
        <ele>7</ele>
        <time>2020-09-09T12:50:29Z</time>
      </trkpt>
      <trkpt lat="44.8458" lon="-0.2197">
        <ele>7</ele>
        <time>2020-09-09T12:50:31Z</time>
      </trkpt>
      <trkpt lat="44.84581" lon="-0.21971">
        <ele>6.9</ele>
        <time>2020-09-09T12:50:32Z</time>
      </trkpt>
      <trkpt lat="44.84581" lon="-0.21972">
        <ele>6.9</ele>
        <time>2020-09-09T12:50:33Z</time>
      </trkpt>
      <trkpt lat="44.84582" lon="-0.21973">
        <ele>6.9</ele>
        <time>2020-09-09T12:50:34Z</time>
      </trkpt>
      <trkpt lat="44.84583" lon="-0.21975">
        <ele>6.9</ele>
        <time>2020-09-09T12:50:35Z</time>
      </trkpt>
      <trkpt lat="44.84587" lon="-0.2198">
        <ele>6.9</ele>
        <time>2020-09-09T12:50:37Z</time>
      </trkpt>
      <trkpt lat="44.84587" lon="-0.21981">
        <ele>6.9</ele>
        <time>2020-09-09T12:50:38Z</time>
      </trkpt>
      <trkpt lat="44.84588" lon="-0.21982">
        <ele>6.9</ele>
        <time>2020-09-09T12:50:39Z</time>
      </trkpt>
      <trkpt lat="44.84589" lon="-0.21983">
        <ele>7</ele>
        <time>2020-09-09T12:50:40Z</time>
      </trkpt>
      <trkpt lat="44.84591" lon="-0.21984">
        <ele>7</ele>
        <time>2020-09-09T12:50:42Z</time>
      </trkpt>
      <trkpt lat="44.84592" lon="-0.21985">
        <ele>7</ele>
        <time>2020-09-09T12:50:43Z</time>
      </trkpt>
      <trkpt lat="44.84593" lon="-0.21986">
        <ele>7</ele>
        <time>2020-09-09T12:50:44Z</time>
      </trkpt>
      <trkpt lat="44.84593" lon="-0.21987">
        <ele>7</ele>
        <time>2020-09-09T12:50:45Z</time>
      </trkpt>
      <trkpt lat="44.84595" lon="-0.21988">
        <ele>7</ele>
        <time>2020-09-09T12:50:46Z</time>
      </trkpt>
      <trkpt lat="44.84596" lon="-0.21989">
        <ele>7</ele>
        <time>2020-09-09T12:50:47Z</time>
      </trkpt>
      <trkpt lat="44.84597" lon="-0.2199">
        <ele>7</ele>
        <time>2020-09-09T12:50:49Z</time>
      </trkpt>
      <trkpt lat="44.84598" lon="-0.2199">
        <ele>7</ele>
        <time>2020-09-09T12:50:50Z</time>
      </trkpt>
      <trkpt lat="44.84599" lon="-0.21991">
        <ele>7</ele>
        <time>2020-09-09T12:50:51Z</time>
      </trkpt>
      <trkpt lat="44.846" lon="-0.21991">
        <ele>7</ele>
        <time>2020-09-09T12:50:52Z</time>
      </trkpt>
      <trkpt lat="44.846" lon="-0.21992">
        <ele>7</ele>
        <time>2020-09-09T12:50:53Z</time>
      </trkpt>
      <trkpt lat="44.84601" lon="-0.21993">
        <ele>7</ele>
        <time>2020-09-09T12:50:54Z</time>
      </trkpt>
      <trkpt lat="44.84601" lon="-0.21994">
        <ele>7</ele>
        <time>2020-09-09T12:50:55Z</time>
      </trkpt>
      <trkpt lat="44.84604" lon="-0.21998">
        <ele>7</ele>
        <time>2020-09-09T12:50:57Z</time>
      </trkpt>
      <trkpt lat="44.84605" lon="-0.22">
        <ele>7</ele>
        <time>2020-09-09T12:50:58Z</time>
      </trkpt>
      <trkpt lat="44.84605" lon="-0.22001">
        <ele>7</ele>
        <time>2020-09-09T12:50:59Z</time>
      </trkpt>
      <trkpt lat="44.84606" lon="-0.22002">
        <ele>7</ele>
        <time>2020-09-09T12:51:01Z</time>
      </trkpt>
      <trkpt lat="44.84606" lon="-0.22002">
        <ele>7</ele>
        <time>2020-09-09T12:51:02Z</time>
      </trkpt>
      <trkpt lat="44.84607" lon="-0.22002">
        <ele>7</ele>
        <time>2020-09-09T12:51:03Z</time>
      </trkpt>
      <trkpt lat="44.84608" lon="-0.22003">
        <ele>7</ele>
        <time>2020-09-09T12:51:04Z</time>
      </trkpt>
      <trkpt lat="44.84608" lon="-0.22004">
        <ele>7</ele>
        <time>2020-09-09T12:51:05Z</time>
      </trkpt>
      <trkpt lat="44.8461" lon="-0.22">
        <ele>7</ele>
        <time>2020-09-09T12:51:07Z</time>
      </trkpt>
      <trkpt lat="44.84611" lon="-0.22001">
        <ele>7</ele>
        <time>2020-09-09T12:51:08Z</time>
      </trkpt>
      <trkpt lat="44.84612" lon="-0.22002">
        <ele>7</ele>
        <time>2020-09-09T12:51:09Z</time>
      </trkpt>
      <trkpt lat="44.84612" lon="-0.22003">
        <ele>7</ele>
        <time>2020-09-09T12:51:10Z</time>
      </trkpt>
      <trkpt lat="44.84613" lon="-0.22004">
        <ele>7</ele>
        <time>2020-09-09T12:51:11Z</time>
      </trkpt>
      <trkpt lat="44.84614" lon="-0.22004">
        <ele>7</ele>
        <time>2020-09-09T12:51:12Z</time>
      </trkpt>
      <trkpt lat="44.84616" lon="-0.22004">
        <ele>7</ele>
        <time>2020-09-09T12:51:14Z</time>
      </trkpt>
      <trkpt lat="44.84616" lon="-0.22005">
        <ele>7</ele>
        <time>2020-09-09T12:51:15Z</time>
      </trkpt>
      <trkpt lat="44.84617" lon="-0.22006">
        <ele>7</ele>
        <time>2020-09-09T12:51:17Z</time>
      </trkpt>
      <trkpt lat="44.84619" lon="-0.22006">
        <ele>7</ele>
        <time>2020-09-09T12:51:18Z</time>
      </trkpt>
      <trkpt lat="44.84619" lon="-0.22006">
        <ele>7</ele>
        <time>2020-09-09T12:51:19Z</time>
      </trkpt>
      <trkpt lat="44.8462" lon="-0.22007">
        <ele>7</ele>
        <time>2020-09-09T12:51:20Z</time>
      </trkpt>
      <trkpt lat="44.84621" lon="-0.22008">
        <ele>7</ele>
        <time>2020-09-09T12:51:21Z</time>
      </trkpt>
      <trkpt lat="44.84622" lon="-0.22008">
        <ele>7</ele>
        <time>2020-09-09T12:51:23Z</time>
      </trkpt>
      <trkpt lat="44.84623" lon="-0.22009">
        <ele>7</ele>
        <time>2020-09-09T12:51:24Z</time>
      </trkpt>
      <trkpt lat="44.84624" lon="-0.2201">
        <ele>7</ele>
        <time>2020-09-09T12:51:25Z</time>
      </trkpt>
      <trkpt lat="44.84627" lon="-0.22012">
        <ele>7</ele>
        <time>2020-09-09T12:51:27Z</time>
      </trkpt>
      <trkpt lat="44.84628" lon="-0.22013">
        <ele>7</ele>
        <time>2020-09-09T12:51:28Z</time>
      </trkpt>
      <trkpt lat="44.84631" lon="-0.22014">
        <ele>7</ele>
        <time>2020-09-09T12:51:30Z</time>
      </trkpt>
      <trkpt lat="44.84632" lon="-0.22013">
        <ele>7</ele>
        <time>2020-09-09T12:51:31Z</time>
      </trkpt>
      <trkpt lat="44.84634" lon="-0.22015">
        <ele>7</ele>
        <time>2020-09-09T12:51:33Z</time>
      </trkpt>
      <trkpt lat="44.84635" lon="-0.22016">
        <ele>7</ele>
        <time>2020-09-09T12:51:34Z</time>
      </trkpt>
      <trkpt lat="44.84637" lon="-0.22017">
        <ele>7.1</ele>
        <time>2020-09-09T12:51:35Z</time>
      </trkpt>
      <trkpt lat="44.84638" lon="-0.22017">
        <ele>7.1</ele>
        <time>2020-09-09T12:51:36Z</time>
      </trkpt>
      <trkpt lat="44.84638" lon="-0.22017">
        <ele>7.1</ele>
        <time>2020-09-09T12:51:38Z</time>
      </trkpt>
      <trkpt lat="44.84639" lon="-0.22018">
        <ele>7.1</ele>
        <time>2020-09-09T12:51:39Z</time>
      </trkpt>
      <trkpt lat="44.8464" lon="-0.22018">
        <ele>7.1</ele>
        <time>2020-09-09T12:51:40Z</time>
      </trkpt>
      <trkpt lat="44.84641" lon="-0.22018">
        <ele>7.1</ele>
        <time>2020-09-09T12:51:41Z</time>
      </trkpt>
      <trkpt lat="44.84643" lon="-0.22019">
        <ele>7.1</ele>
        <time>2020-09-09T12:51:43Z</time>
      </trkpt>
      <trkpt lat="44.84643" lon="-0.22019">
        <ele>7.1</ele>
        <time>2020-09-09T12:51:44Z</time>
      </trkpt>
      <trkpt lat="44.84645" lon="-0.2202">
        <ele>7.1</ele>
        <time>2020-09-09T12:51:46Z</time>
      </trkpt>
      <trkpt lat="44.84646" lon="-0.2202">
        <ele>7.1</ele>
        <time>2020-09-09T12:51:47Z</time>
      </trkpt>
      <trkpt lat="44.84647" lon="-0.2202">
        <ele>7.1</ele>
        <time>2020-09-09T12:51:48Z</time>
      </trkpt>
      <trkpt lat="44.84648" lon="-0.22021">
        <ele>7.1</ele>
        <time>2020-09-09T12:51:49Z</time>
      </trkpt>
      <trkpt lat="44.84649" lon="-0.22022">
        <ele>7.1</ele>
        <time>2020-09-09T12:51:50Z</time>
      </trkpt>
      <trkpt lat="44.84651" lon="-0.22022">
        <ele>7.1</ele>
        <time>2020-09-09T12:51:52Z</time>
      </trkpt>
      <trkpt lat="44.84653" lon="-0.22024">
        <ele>7.1</ele>
        <time>2020-09-09T12:51:54Z</time>
      </trkpt>
      <trkpt lat="44.84654" lon="-0.22024">
        <ele>7.1</ele>
        <time>2020-09-09T12:51:55Z</time>
      </trkpt>
      <trkpt lat="44.84655" lon="-0.22025">
        <ele>7.1</ele>
        <time>2020-09-09T12:51:56Z</time>
      </trkpt>
      <trkpt lat="44.84655" lon="-0.22026">
        <ele>7.1</ele>
        <time>2020-09-09T12:51:57Z</time>
      </trkpt>
      <trkpt lat="44.84657" lon="-0.22026">
        <ele>7.2</ele>
        <time>2020-09-09T12:51:58Z</time>
      </trkpt>
      <trkpt lat="44.84658" lon="-0.22027">
        <ele>7.2</ele>
        <time>2020-09-09T12:51:59Z</time>
      </trkpt>
      <trkpt lat="44.84659" lon="-0.22028">
        <ele>7.2</ele>
        <time>2020-09-09T12:52:00Z</time>
      </trkpt>
      <trkpt lat="44.8466" lon="-0.22028">
        <ele>7.2</ele>
        <time>2020-09-09T12:52:02Z</time>
      </trkpt>
      <trkpt lat="44.84661" lon="-0.22029">
        <ele>7.2</ele>
        <time>2020-09-09T12:52:03Z</time>
      </trkpt>
      <trkpt lat="44.84662" lon="-0.2203">
        <ele>7.2</ele>
        <time>2020-09-09T12:52:04Z</time>
      </trkpt>
      <trkpt lat="44.84663" lon="-0.22031">
        <ele>7.3</ele>
        <time>2020-09-09T12:52:05Z</time>
      </trkpt>
      <trkpt lat="44.84665" lon="-0.22033">
        <ele>7.3</ele>
        <time>2020-09-09T12:52:06Z</time>
      </trkpt>
      <trkpt lat="44.84666" lon="-0.22033">
        <ele>7.3</ele>
        <time>2020-09-09T12:52:08Z</time>
      </trkpt>
      <trkpt lat="44.84667" lon="-0.22034">
        <ele>7.3</ele>
        <time>2020-09-09T12:52:09Z</time>
      </trkpt>
      <trkpt lat="44.84669" lon="-0.22035">
        <ele>7.3</ele>
        <time>2020-09-09T12:52:11Z</time>
      </trkpt>
      <trkpt lat="44.8467" lon="-0.22036">
        <ele>7.4</ele>
        <time>2020-09-09T12:52:12Z</time>
      </trkpt>
      <trkpt lat="44.84671" lon="-0.22037">
        <ele>7.4</ele>
        <time>2020-09-09T12:52:13Z</time>
      </trkpt>
      <trkpt lat="44.84672" lon="-0.22038">
        <ele>7.4</ele>
        <time>2020-09-09T12:52:14Z</time>
      </trkpt>
      <trkpt lat="44.84673" lon="-0.22039">
        <ele>7.4</ele>
        <time>2020-09-09T12:52:15Z</time>
      </trkpt>
      <trkpt lat="44.84674" lon="-0.2204">
        <ele>7.4</ele>
        <time>2020-09-09T12:52:17Z</time>
      </trkpt>
      <trkpt lat="44.84675" lon="-0.2204">
        <ele>7.4</ele>
        <time>2020-09-09T12:52:18Z</time>
      </trkpt>
      <trkpt lat="44.84676" lon="-0.22042">
        <ele>7.5</ele>
        <time>2020-09-09T12:52:19Z</time>
      </trkpt>
      <trkpt lat="44.84677" lon="-0.22044">
        <ele>7.5</ele>
        <time>2020-09-09T12:52:21Z</time>
      </trkpt>
      <trkpt lat="44.84678" lon="-0.22046">
        <ele>7.5</ele>
        <time>2020-09-09T12:52:22Z</time>
      </trkpt>
      <trkpt lat="44.84678" lon="-0.22046">
        <ele>7.5</ele>
        <time>2020-09-09T12:52:23Z</time>
      </trkpt>
      <trkpt lat="44.84678" lon="-0.22047">
        <ele>7.5</ele>
        <time>2020-09-09T12:52:24Z</time>
      </trkpt>
      <trkpt lat="44.84679" lon="-0.22048">
        <ele>7.5</ele>
        <time>2020-09-09T12:52:26Z</time>
      </trkpt>
      <trkpt lat="44.8468" lon="-0.22049">
        <ele>7.6</ele>
        <time>2020-09-09T12:52:28Z</time>
      </trkpt>
      <trkpt lat="44.84681" lon="-0.2205">
        <ele>7.6</ele>
        <time>2020-09-09T12:52:29Z</time>
      </trkpt>
      <trkpt lat="44.84682" lon="-0.2205">
        <ele>7.6</ele>
        <time>2020-09-09T12:52:30Z</time>
      </trkpt>
      <trkpt lat="44.84683" lon="-0.22051">
        <ele>7.6</ele>
        <time>2020-09-09T12:52:31Z</time>
      </trkpt>
      <trkpt lat="44.84684" lon="-0.22051">
        <ele>7.6</ele>
        <time>2020-09-09T12:52:33Z</time>
      </trkpt>
      <trkpt lat="44.84685" lon="-0.22051">
        <ele>7.6</ele>
        <time>2020-09-09T12:52:34Z</time>
      </trkpt>
      <trkpt lat="44.84686" lon="-0.22051">
        <ele>7.6</ele>
        <time>2020-09-09T12:52:36Z</time>
      </trkpt>
      <trkpt lat="44.84686" lon="-0.22052">
        <ele>7.7</ele>
        <time>2020-09-09T12:52:37Z</time>
      </trkpt>
      <trkpt lat="44.84688" lon="-0.22052">
        <ele>7.7</ele>
        <time>2020-09-09T12:52:38Z</time>
      </trkpt>
      <trkpt lat="44.8469" lon="-0.22053">
        <ele>7.7</ele>
        <time>2020-09-09T12:52:40Z</time>
      </trkpt>
      <trkpt lat="44.8469" lon="-0.22053">
        <ele>7.7</ele>
        <time>2020-09-09T12:52:42Z</time>
      </trkpt>
      <trkpt lat="44.8469" lon="-0.22052">
        <ele>7.7</ele>
        <time>2020-09-09T12:52:43Z</time>
      </trkpt>
      <trkpt lat="44.84691" lon="-0.22052">
        <ele>7.7</ele>
        <time>2020-09-09T12:52:45Z</time>
      </trkpt>
      <trkpt lat="44.84691" lon="-0.22053">
        <ele>7.7</ele>
        <time>2020-09-09T12:52:46Z</time>
      </trkpt>
      <trkpt lat="44.84692" lon="-0.22053">
        <ele>7.7</ele>
        <time>2020-09-09T12:52:47Z</time>
      </trkpt>
      <trkpt lat="44.84693" lon="-0.22054">
        <ele>7.7</ele>
        <time>2020-09-09T12:52:48Z</time>
      </trkpt>
      <trkpt lat="44.84694" lon="-0.22055">
        <ele>7.7</ele>
        <time>2020-09-09T12:52:50Z</time>
      </trkpt>
      <trkpt lat="44.84695" lon="-0.22056">
        <ele>7.7</ele>
        <time>2020-09-09T12:52:51Z</time>
      </trkpt>
      <trkpt lat="44.84696" lon="-0.22055">
        <ele>7.8</ele>
        <time>2020-09-09T12:52:53Z</time>
      </trkpt>
      <trkpt lat="44.84697" lon="-0.22054">
        <ele>7.8</ele>
        <time>2020-09-09T12:52:55Z</time>
      </trkpt>
      <trkpt lat="44.84697" lon="-0.22054">
        <ele>7.8</ele>
        <time>2020-09-09T12:52:56Z</time>
      </trkpt>
      <trkpt lat="44.84697" lon="-0.22053">
        <ele>7.8</ele>
        <time>2020-09-09T12:52:58Z</time>
      </trkpt>
      <trkpt lat="44.84697" lon="-0.22052">
        <ele>7.8</ele>
        <time>2020-09-09T12:52:59Z</time>
      </trkpt>
      <trkpt lat="44.84697" lon="-0.22051">
        <ele>7.8</ele>
        <time>2020-09-09T12:53:00Z</time>
      </trkpt>
      <trkpt lat="44.84697" lon="-0.2205">
        <ele>7.8</ele>
        <time>2020-09-09T12:53:01Z</time>
      </trkpt>
      <trkpt lat="44.84697" lon="-0.22048">
        <ele>7.8</ele>
        <time>2020-09-09T12:53:02Z</time>
      </trkpt>
      <trkpt lat="44.84697" lon="-0.22047">
        <ele>7.8</ele>
        <time>2020-09-09T12:53:04Z</time>
      </trkpt>
      <trkpt lat="44.84697" lon="-0.22045">
        <ele>7.8</ele>
        <time>2020-09-09T12:53:05Z</time>
      </trkpt>
      <trkpt lat="44.84696" lon="-0.22043">
        <ele>7.8</ele>
        <time>2020-09-09T12:53:06Z</time>
      </trkpt>
      <trkpt lat="44.84697" lon="-0.22041">
        <ele>7.9</ele>
        <time>2020-09-09T12:53:07Z</time>
      </trkpt>
      <trkpt lat="44.84697" lon="-0.22041">
        <ele>7.9</ele>
        <time>2020-09-09T12:53:09Z</time>
      </trkpt>
      <trkpt lat="44.84697" lon="-0.22041">
        <ele>7.9</ele>
        <time>2020-09-09T12:53:10Z</time>
      </trkpt>
      <trkpt lat="44.84697" lon="-0.22042">
        <ele>7.9</ele>
        <time>2020-09-09T12:53:11Z</time>
      </trkpt>
      <trkpt lat="44.84697" lon="-0.22042">
        <ele>7.9</ele>
        <time>2020-09-09T12:53:12Z</time>
      </trkpt>
      <trkpt lat="44.84697" lon="-0.22042">
        <ele>7.9</ele>
        <time>2020-09-09T12:53:14Z</time>
      </trkpt>
      <trkpt lat="44.84697" lon="-0.22043">
        <ele>7.9</ele>
        <time>2020-09-09T12:53:15Z</time>
      </trkpt>
      <trkpt lat="44.84697" lon="-0.22043">
        <ele>7.9</ele>
        <time>2020-09-09T12:53:17Z</time>
      </trkpt>
      <trkpt lat="44.84696" lon="-0.22043">
        <ele>7.9</ele>
        <time>2020-09-09T12:53:18Z</time>
      </trkpt>
      <trkpt lat="44.84696" lon="-0.22044">
        <ele>7.9</ele>
        <time>2020-09-09T12:53:20Z</time>
      </trkpt>
      <trkpt lat="44.84696" lon="-0.22044">
        <ele>7.9</ele>
        <time>2020-09-09T12:53:21Z</time>
      </trkpt>
      <trkpt lat="44.84696" lon="-0.22044">
        <ele>7.9</ele>
        <time>2020-09-09T12:53:23Z</time>
      </trkpt>
      <trkpt lat="44.84696" lon="-0.22044">
        <ele>7.9</ele>
        <time>2020-09-09T12:53:24Z</time>
      </trkpt>
      <trkpt lat="44.84696" lon="-0.22045">
        <ele>7.9</ele>
        <time>2020-09-09T12:53:26Z</time>
      </trkpt>
      <trkpt lat="44.84696" lon="-0.22045">
        <ele>7.9</ele>
        <time>2020-09-09T12:53:28Z</time>
      </trkpt>
      <trkpt lat="44.84696" lon="-0.22045">
        <ele>7.9</ele>
        <time>2020-09-09T12:53:30Z</time>
      </trkpt>
      <trkpt lat="44.84696" lon="-0.22046">
        <ele>7.9</ele>
        <time>2020-09-09T12:53:32Z</time>
      </trkpt>
      <trkpt lat="44.84696" lon="-0.22046">
        <ele>7.9</ele>
        <time>2020-09-09T12:53:33Z</time>
      </trkpt>
      <trkpt lat="44.84696" lon="-0.22046">
        <ele>7.9</ele>
        <time>2020-09-09T12:53:35Z</time>
      </trkpt>
      <trkpt lat="44.84696" lon="-0.22047">
        <ele>7.9</ele>
        <time>2020-09-09T12:53:37Z</time>
      </trkpt>
      <trkpt lat="44.84696" lon="-0.22047">
        <ele>7.9</ele>
        <time>2020-09-09T12:53:38Z</time>
      </trkpt>
      <trkpt lat="44.84696" lon="-0.22047">
        <ele>7.9</ele>
        <time>2020-09-09T12:53:39Z</time>
      </trkpt>
      <trkpt lat="44.84696" lon="-0.22048">
        <ele>7.9</ele>
        <time>2020-09-09T12:53:40Z</time>
      </trkpt>
      <trkpt lat="44.84696" lon="-0.22048">
        <ele>7.9</ele>
        <time>2020-09-09T12:53:42Z</time>
      </trkpt>
      <trkpt lat="44.84696" lon="-0.22048">
        <ele>7.9</ele>
        <time>2020-09-09T12:53:43Z</time>
      </trkpt>
      <trkpt lat="44.84696" lon="-0.22049">
        <ele>7.9</ele>
        <time>2020-09-09T12:53:45Z</time>
      </trkpt>
      <trkpt lat="44.84696" lon="-0.22049">
        <ele>7.9</ele>
        <time>2020-09-09T12:53:47Z</time>
      </trkpt>
      <trkpt lat="44.84696" lon="-0.22049">
        <ele>7.9</ele>
        <time>2020-09-09T12:53:48Z</time>
      </trkpt>
      <trkpt lat="44.84696" lon="-0.22049">
        <ele>7.9</ele>
        <time>2020-09-09T12:53:50Z</time>
      </trkpt>
      <trkpt lat="44.84696" lon="-0.2205">
        <ele>7.9</ele>
        <time>2020-09-09T12:53:51Z</time>
      </trkpt>
      <trkpt lat="44.84696" lon="-0.2205">
        <ele>7.9</ele>
        <time>2020-09-09T12:53:53Z</time>
      </trkpt>
      <trkpt lat="44.84696" lon="-0.2205">
        <ele>7.9</ele>
        <time>2020-09-09T12:53:54Z</time>
      </trkpt>
      <trkpt lat="44.84696" lon="-0.22051">
        <ele>7.9</ele>
        <time>2020-09-09T12:53:56Z</time>
      </trkpt>
      <trkpt lat="44.84696" lon="-0.22051">
        <ele>7.9</ele>
        <time>2020-09-09T12:53:58Z</time>
      </trkpt>
      <trkpt lat="44.84696" lon="-0.22051">
        <ele>7.9</ele>
        <time>2020-09-09T12:53:59Z</time>
      </trkpt>
      <trkpt lat="44.84696" lon="-0.22052">
        <ele>7.9</ele>
        <time>2020-09-09T12:54:00Z</time>
      </trkpt>
      <trkpt lat="44.84696" lon="-0.22052">
        <ele>7.9</ele>
        <time>2020-09-09T12:54:02Z</time>
      </trkpt>
      <trkpt lat="44.84696" lon="-0.22052">
        <ele>7.9</ele>
        <time>2020-09-09T12:54:03Z</time>
      </trkpt>
      <trkpt lat="44.84696" lon="-0.22053">
        <ele>7.9</ele>
        <time>2020-09-09T12:54:04Z</time>
      </trkpt>
      <trkpt lat="44.84696" lon="-0.22053">
        <ele>7.9</ele>
        <time>2020-09-09T12:54:05Z</time>
      </trkpt>
      <trkpt lat="44.84697" lon="-0.22055">
        <ele>8</ele>
        <time>2020-09-09T12:54:06Z</time>
      </trkpt>
      <trkpt lat="44.84699" lon="-0.22056">
        <ele>8</ele>
        <time>2020-09-09T12:54:07Z</time>
      </trkpt>
      <trkpt lat="44.847" lon="-0.22057">
        <ele>8</ele>
        <time>2020-09-09T12:54:08Z</time>
      </trkpt>
      <trkpt lat="44.84702" lon="-0.22058">
        <ele>8</ele>
        <time>2020-09-09T12:54:09Z</time>
      </trkpt>
      <trkpt lat="44.84703" lon="-0.22059">
        <ele>8</ele>
        <time>2020-09-09T12:54:11Z</time>
      </trkpt>
      <trkpt lat="44.84705" lon="-0.2206">
        <ele>8</ele>
        <time>2020-09-09T12:54:12Z</time>
      </trkpt>
      <trkpt lat="44.84706" lon="-0.2206">
        <ele>8</ele>
        <time>2020-09-09T12:54:13Z</time>
      </trkpt>
      <trkpt lat="44.84707" lon="-0.22062">
        <ele>8</ele>
        <time>2020-09-09T12:54:14Z</time>
      </trkpt>
      <trkpt lat="44.84709" lon="-0.22063">
        <ele>8</ele>
        <time>2020-09-09T12:54:15Z</time>
      </trkpt>
      <trkpt lat="44.8471" lon="-0.22063">
        <ele>8</ele>
        <time>2020-09-09T12:54:16Z</time>
      </trkpt>
      <trkpt lat="44.84713" lon="-0.22066">
        <ele>8</ele>
        <time>2020-09-09T12:54:18Z</time>
      </trkpt>
      <trkpt lat="44.84714" lon="-0.22068">
        <ele>8</ele>
        <time>2020-09-09T12:54:19Z</time>
      </trkpt>
      <trkpt lat="44.84716" lon="-0.22068">
        <ele>8</ele>
        <time>2020-09-09T12:54:20Z</time>
      </trkpt>
      <trkpt lat="44.84717" lon="-0.22069">
        <ele>8</ele>
        <time>2020-09-09T12:54:21Z</time>
      </trkpt>
      <trkpt lat="44.84718" lon="-0.2207">
        <ele>8.1</ele>
        <time>2020-09-09T12:54:22Z</time>
      </trkpt>
      <trkpt lat="44.84718" lon="-0.22069">
        <ele>8.1</ele>
        <time>2020-09-09T12:54:23Z</time>
      </trkpt>
      <trkpt lat="44.84719" lon="-0.22069">
        <ele>8.1</ele>
        <time>2020-09-09T12:54:24Z</time>
      </trkpt>
      <trkpt lat="44.84721" lon="-0.22069">
        <ele>8.1</ele>
        <time>2020-09-09T12:54:26Z</time>
      </trkpt>
      <trkpt lat="44.84722" lon="-0.2207">
        <ele>8.1</ele>
        <time>2020-09-09T12:54:27Z</time>
      </trkpt>
      <trkpt lat="44.84723" lon="-0.22071">
        <ele>8.1</ele>
        <time>2020-09-09T12:54:28Z</time>
      </trkpt>
      <trkpt lat="44.84723" lon="-0.22071">
        <ele>8.1</ele>
        <time>2020-09-09T12:54:29Z</time>
      </trkpt>
      <trkpt lat="44.84724" lon="-0.22072">
        <ele>8.1</ele>
        <time>2020-09-09T12:54:30Z</time>
      </trkpt>
      <trkpt lat="44.84724" lon="-0.22073">
        <ele>8.1</ele>
        <time>2020-09-09T12:54:31Z</time>
      </trkpt>
      <trkpt lat="44.84725" lon="-0.22074">
        <ele>8.1</ele>
        <time>2020-09-09T12:54:33Z</time>
      </trkpt>
      <trkpt lat="44.84726" lon="-0.22075">
        <ele>8.1</ele>
        <time>2020-09-09T12:54:34Z</time>
      </trkpt>
      <trkpt lat="44.84726" lon="-0.22075">
        <ele>8.1</ele>
        <time>2020-09-09T12:54:36Z</time>
      </trkpt>
      <trkpt lat="44.84724" lon="-0.22073">
        <ele>8.1</ele>
        <time>2020-09-09T12:54:38Z</time>
      </trkpt>
      <trkpt lat="44.84724" lon="-0.22073">
        <ele>8.1</ele>
        <time>2020-09-09T12:54:40Z</time>
      </trkpt>
      <trkpt lat="44.84725" lon="-0.22075">
        <ele>8.1</ele>
        <time>2020-09-09T12:54:42Z</time>
      </trkpt>
      <trkpt lat="44.84727" lon="-0.22077">
        <ele>8.1</ele>
        <time>2020-09-09T12:54:43Z</time>
      </trkpt>
      <trkpt lat="44.84728" lon="-0.22078">
        <ele>8.1</ele>
        <time>2020-09-09T12:54:45Z</time>
      </trkpt>
      <trkpt lat="44.84728" lon="-0.22079">
        <ele>8.1</ele>
        <time>2020-09-09T12:54:46Z</time>
      </trkpt>
      <trkpt lat="44.84728" lon="-0.2208">
        <ele>8.1</ele>
        <time>2020-09-09T12:54:47Z</time>
      </trkpt>
      <trkpt lat="44.84727" lon="-0.22081">
        <ele>8.1</ele>
        <time>2020-09-09T12:54:48Z</time>
      </trkpt>
      <trkpt lat="44.84728" lon="-0.22079">
        <ele>8.1</ele>
        <time>2020-09-09T12:54:50Z</time>
      </trkpt>
      <trkpt lat="44.84729" lon="-0.22079">
        <ele>8.1</ele>
        <time>2020-09-09T12:54:51Z</time>
      </trkpt>
      <trkpt lat="44.84729" lon="-0.2208">
        <ele>8.1</ele>
        <time>2020-09-09T12:54:52Z</time>
      </trkpt>
      <trkpt lat="44.8473" lon="-0.22081">
        <ele>8.1</ele>
        <time>2020-09-09T12:54:54Z</time>
      </trkpt>
      <trkpt lat="44.84731" lon="-0.22083">
        <ele>8.1</ele>
        <time>2020-09-09T12:54:56Z</time>
      </trkpt>
      <trkpt lat="44.84731" lon="-0.22083">
        <ele>8.1</ele>
        <time>2020-09-09T12:54:58Z</time>
      </trkpt>
      <trkpt lat="44.84732" lon="-0.22083">
        <ele>8.1</ele>
        <time>2020-09-09T12:55:00Z</time>
      </trkpt>
      <trkpt lat="44.84732" lon="-0.22084">
        <ele>8.1</ele>
        <time>2020-09-09T12:55:01Z</time>
      </trkpt>
      <trkpt lat="44.84732" lon="-0.22086">
        <ele>8.1</ele>
        <time>2020-09-09T12:55:03Z</time>
      </trkpt>
      <trkpt lat="44.84732" lon="-0.22086">
        <ele>8.1</ele>
        <time>2020-09-09T12:55:04Z</time>
      </trkpt>
      <trkpt lat="44.84731" lon="-0.22087">
        <ele>8.1</ele>
        <time>2020-09-09T12:55:05Z</time>
      </trkpt>
      <trkpt lat="44.8473" lon="-0.22088">
        <ele>8.1</ele>
        <time>2020-09-09T12:55:07Z</time>
      </trkpt>
      <trkpt lat="44.8473" lon="-0.22088">
        <ele>8.1</ele>
        <time>2020-09-09T12:55:08Z</time>
      </trkpt>
      <trkpt lat="44.84732" lon="-0.22089">
        <ele>8.2</ele>
        <time>2020-09-09T12:55:09Z</time>
      </trkpt>
      <trkpt lat="44.84732" lon="-0.22089">
        <ele>8.2</ele>
        <time>2020-09-09T12:55:11Z</time>
      </trkpt>
      <trkpt lat="44.84732" lon="-0.22089">
        <ele>8.2</ele>
        <time>2020-09-09T12:55:12Z</time>
      </trkpt>
      <trkpt lat="44.84732" lon="-0.22089">
        <ele>8.2</ele>
        <time>2020-09-09T12:55:14Z</time>
      </trkpt>
      <trkpt lat="44.84731" lon="-0.2209">
        <ele>8.2</ele>
        <time>2020-09-09T12:55:15Z</time>
      </trkpt>
      <trkpt lat="44.84731" lon="-0.2209">
        <ele>8.2</ele>
        <time>2020-09-09T12:55:16Z</time>
      </trkpt>
      <trkpt lat="44.84731" lon="-0.2209">
        <ele>8.2</ele>
        <time>2020-09-09T12:55:17Z</time>
      </trkpt>
      <trkpt lat="44.84731" lon="-0.22091">
        <ele>8.2</ele>
        <time>2020-09-09T12:55:19Z</time>
      </trkpt>
      <trkpt lat="44.84731" lon="-0.22093">
        <ele>8.2</ele>
        <time>2020-09-09T12:55:20Z</time>
      </trkpt>
      <trkpt lat="44.84731" lon="-0.22094">
        <ele>8.2</ele>
        <time>2020-09-09T12:55:21Z</time>
      </trkpt>
      <trkpt lat="44.84731" lon="-0.22096">
        <ele>8.2</ele>
        <time>2020-09-09T12:55:22Z</time>
      </trkpt>
      <trkpt lat="44.84731" lon="-0.22097">
        <ele>8.3</ele>
        <time>2020-09-09T12:55:24Z</time>
      </trkpt>
      <trkpt lat="44.84732" lon="-0.22098">
        <ele>8.3</ele>
        <time>2020-09-09T12:55:25Z</time>
      </trkpt>
      <trkpt lat="44.84732" lon="-0.22099">
        <ele>8.3</ele>
        <time>2020-09-09T12:55:26Z</time>
      </trkpt>
      <trkpt lat="44.84732" lon="-0.22098">
        <ele>8.3</ele>
        <time>2020-09-09T12:55:27Z</time>
      </trkpt>
      <trkpt lat="44.84732" lon="-0.22098">
        <ele>8.3</ele>
        <time>2020-09-09T12:55:28Z</time>
      </trkpt>
      <trkpt lat="44.84734" lon="-0.22099">
        <ele>8.3</ele>
        <time>2020-09-09T12:55:29Z</time>
      </trkpt>
      <trkpt lat="44.84734" lon="-0.22098">
        <ele>8.3</ele>
        <time>2020-09-09T12:55:31Z</time>
      </trkpt>
      <trkpt lat="44.84734" lon="-0.22098">
        <ele>8.3</ele>
        <time>2020-09-09T12:55:33Z</time>
      </trkpt>
      <trkpt lat="44.84734" lon="-0.22098">
        <ele>8.3</ele>
        <time>2020-09-09T12:55:34Z</time>
      </trkpt>
      <trkpt lat="44.84734" lon="-0.221">
        <ele>8.4</ele>
        <time>2020-09-09T12:55:36Z</time>
      </trkpt>
      <trkpt lat="44.84734" lon="-0.221">
        <ele>8.4</ele>
        <time>2020-09-09T12:55:37Z</time>
      </trkpt>
      <trkpt lat="44.84734" lon="-0.22099">
        <ele>8.4</ele>
        <time>2020-09-09T12:55:39Z</time>
      </trkpt>
      <trkpt lat="44.84734" lon="-0.22098">
        <ele>8.4</ele>
        <time>2020-09-09T12:55:41Z</time>
      </trkpt>
      <trkpt lat="44.84735" lon="-0.22099">
        <ele>8.4</ele>
        <time>2020-09-09T12:55:43Z</time>
      </trkpt>
      <trkpt lat="44.84735" lon="-0.22099">
        <ele>8.4</ele>
        <time>2020-09-09T12:55:45Z</time>
      </trkpt>
      <trkpt lat="44.84735" lon="-0.22102">
        <ele>8.4</ele>
        <time>2020-09-09T12:55:47Z</time>
      </trkpt>
      <trkpt lat="44.84735" lon="-0.22102">
        <ele>8.4</ele>
        <time>2020-09-09T12:55:48Z</time>
      </trkpt>
      <trkpt lat="44.84735" lon="-0.22102">
        <ele>8.4</ele>
        <time>2020-09-09T12:55:49Z</time>
      </trkpt>
      <trkpt lat="44.84735" lon="-0.22099">
        <ele>8.4</ele>
        <time>2020-09-09T12:55:50Z</time>
      </trkpt>
      <trkpt lat="44.84737" lon="-0.22099">
        <ele>8.4</ele>
        <time>2020-09-09T12:55:52Z</time>
      </trkpt>
      <trkpt lat="44.84738" lon="-0.22098">
        <ele>8.4</ele>
        <time>2020-09-09T12:55:53Z</time>
      </trkpt>
      <trkpt lat="44.84738" lon="-0.22097">
        <ele>8.4</ele>
        <time>2020-09-09T12:55:54Z</time>
      </trkpt>
      <trkpt lat="44.84739" lon="-0.22097">
        <ele>8.4</ele>
        <time>2020-09-09T12:55:55Z</time>
      </trkpt>
      <trkpt lat="44.84739" lon="-0.22099">
        <ele>8.4</ele>
        <time>2020-09-09T12:55:57Z</time>
      </trkpt>
      <trkpt lat="44.84739" lon="-0.221">
        <ele>8.4</ele>
        <time>2020-09-09T12:55:59Z</time>
      </trkpt>
      <trkpt lat="44.84737" lon="-0.22101">
        <ele>8.3</ele>
        <time>2020-09-09T12:56:01Z</time>
      </trkpt>
      <trkpt lat="44.84737" lon="-0.22102">
        <ele>8.3</ele>
        <time>2020-09-09T12:56:02Z</time>
      </trkpt>
      <trkpt lat="44.84736" lon="-0.22102">
        <ele>8.3</ele>
        <time>2020-09-09T12:56:04Z</time>
      </trkpt>
      <trkpt lat="44.84735" lon="-0.22102">
        <ele>8.3</ele>
        <time>2020-09-09T12:56:05Z</time>
      </trkpt>
      <trkpt lat="44.84735" lon="-0.22101">
        <ele>8.3</ele>
        <time>2020-09-09T12:56:06Z</time>
      </trkpt>
      <trkpt lat="44.84734" lon="-0.221">
        <ele>8.3</ele>
        <time>2020-09-09T12:56:07Z</time>
      </trkpt>
      <trkpt lat="44.84734" lon="-0.22098">
        <ele>8.3</ele>
        <time>2020-09-09T12:56:09Z</time>
      </trkpt>
      <trkpt lat="44.84734" lon="-0.22096">
        <ele>8.3</ele>
        <time>2020-09-09T12:56:10Z</time>
      </trkpt>
      <trkpt lat="44.84733" lon="-0.22094">
        <ele>8.3</ele>
        <time>2020-09-09T12:56:12Z</time>
      </trkpt>
      <trkpt lat="44.84732" lon="-0.22093">
        <ele>8.3</ele>
        <time>2020-09-09T12:56:13Z</time>
      </trkpt>
      <trkpt lat="44.84731" lon="-0.22094">
        <ele>8.3</ele>
        <time>2020-09-09T12:56:14Z</time>
      </trkpt>
      <trkpt lat="44.8473" lon="-0.22094">
        <ele>8.3</ele>
        <time>2020-09-09T12:56:15Z</time>
      </trkpt>
      <trkpt lat="44.84729" lon="-0.22098">
        <ele>8.3</ele>
        <time>2020-09-09T12:56:16Z</time>
      </trkpt>
      <trkpt lat="44.84727" lon="-0.22103">
        <ele>8.3</ele>
        <time>2020-09-09T12:56:18Z</time>
      </trkpt>
      <trkpt lat="44.84727" lon="-0.22105">
        <ele>8.3</ele>
        <time>2020-09-09T12:56:19Z</time>
      </trkpt>
      <trkpt lat="44.84725" lon="-0.22104">
        <ele>8.3</ele>
        <time>2020-09-09T12:56:20Z</time>
      </trkpt>
      <trkpt lat="44.84724" lon="-0.22104">
        <ele>8.3</ele>
        <time>2020-09-09T12:56:21Z</time>
      </trkpt>
      <trkpt lat="44.84723" lon="-0.22104">
        <ele>8.3</ele>
        <time>2020-09-09T12:56:22Z</time>
      </trkpt>
      <trkpt lat="44.8472" lon="-0.22105">
        <ele>8.3</ele>
        <time>2020-09-09T12:56:24Z</time>
      </trkpt>
      <trkpt lat="44.84719" lon="-0.22105">
        <ele>8.3</ele>
        <time>2020-09-09T12:56:25Z</time>
      </trkpt>
      <trkpt lat="44.84715" lon="-0.22105">
        <ele>8.3</ele>
        <time>2020-09-09T12:56:27Z</time>
      </trkpt>
      <trkpt lat="44.84715" lon="-0.22105">
        <ele>8.3</ele>
        <time>2020-09-09T12:56:28Z</time>
      </trkpt>
      <trkpt lat="44.84712" lon="-0.2211">
        <ele>8.3</ele>
        <time>2020-09-09T12:56:30Z</time>
      </trkpt>
      <trkpt lat="44.8471" lon="-0.2211">
        <ele>8.3</ele>
        <time>2020-09-09T12:56:31Z</time>
      </trkpt>
      <trkpt lat="44.84709" lon="-0.2211">
        <ele>8.3</ele>
        <time>2020-09-09T12:56:32Z</time>
      </trkpt>
      <trkpt lat="44.84707" lon="-0.22111">
        <ele>8.3</ele>
        <time>2020-09-09T12:56:33Z</time>
      </trkpt>
      <trkpt lat="44.84708" lon="-0.22112">
        <ele>8.3</ele>
        <time>2020-09-09T12:56:34Z</time>
      </trkpt>
      <trkpt lat="44.84706" lon="-0.22112">
        <ele>8.3</ele>
        <time>2020-09-09T12:56:35Z</time>
      </trkpt>
      <trkpt lat="44.84705" lon="-0.22113">
        <ele>8.3</ele>
        <time>2020-09-09T12:56:37Z</time>
      </trkpt>
      <trkpt lat="44.84703" lon="-0.22113">
        <ele>8.3</ele>
        <time>2020-09-09T12:56:38Z</time>
      </trkpt>
      <trkpt lat="44.84701" lon="-0.22116">
        <ele>8.3</ele>
        <time>2020-09-09T12:56:39Z</time>
      </trkpt>
      <trkpt lat="44.847" lon="-0.22116">
        <ele>8.3</ele>
        <time>2020-09-09T12:56:40Z</time>
      </trkpt>
      <trkpt lat="44.84697" lon="-0.22117">
        <ele>8.3</ele>
        <time>2020-09-09T12:56:42Z</time>
      </trkpt>
      <trkpt lat="44.84696" lon="-0.22119">
        <ele>8.3</ele>
        <time>2020-09-09T12:56:43Z</time>
      </trkpt>
      <trkpt lat="44.84695" lon="-0.2212">
        <ele>8.3</ele>
        <time>2020-09-09T12:56:44Z</time>
      </trkpt>
      <trkpt lat="44.84693" lon="-0.22122">
        <ele>8.3</ele>
        <time>2020-09-09T12:56:46Z</time>
      </trkpt>
      <trkpt lat="44.84692" lon="-0.22126">
        <ele>8.3</ele>
        <time>2020-09-09T12:56:48Z</time>
      </trkpt>
      <trkpt lat="44.8469" lon="-0.22128">
        <ele>8.3</ele>
        <time>2020-09-09T12:56:49Z</time>
      </trkpt>
      <trkpt lat="44.84689" lon="-0.22129">
        <ele>8.3</ele>
        <time>2020-09-09T12:56:50Z</time>
      </trkpt>
      <trkpt lat="44.84688" lon="-0.2213">
        <ele>8.3</ele>
        <time>2020-09-09T12:56:51Z</time>
      </trkpt>
      <trkpt lat="44.84687" lon="-0.22131">
        <ele>8.4</ele>
        <time>2020-09-09T12:56:52Z</time>
      </trkpt>
      <trkpt lat="44.84684" lon="-0.22132">
        <ele>8.4</ele>
        <time>2020-09-09T12:56:54Z</time>
      </trkpt>
      <trkpt lat="44.84682" lon="-0.22133">
        <ele>8.4</ele>
        <time>2020-09-09T12:56:56Z</time>
      </trkpt>
      <trkpt lat="44.8468" lon="-0.22133">
        <ele>8.4</ele>
        <time>2020-09-09T12:56:57Z</time>
      </trkpt>
      <trkpt lat="44.84679" lon="-0.22134">
        <ele>8.4</ele>
        <time>2020-09-09T12:56:58Z</time>
      </trkpt>
      <trkpt lat="44.84679" lon="-0.22134">
        <ele>8.4</ele>
        <time>2020-09-09T12:57:00Z</time>
      </trkpt>
      <trkpt lat="44.84677" lon="-0.22134">
        <ele>8.4</ele>
        <time>2020-09-09T12:57:01Z</time>
      </trkpt>
      <trkpt lat="44.84675" lon="-0.22136">
        <ele>8.4</ele>
        <time>2020-09-09T12:57:02Z</time>
      </trkpt>
      <trkpt lat="44.84674" lon="-0.22136">
        <ele>8.4</ele>
        <time>2020-09-09T12:57:03Z</time>
      </trkpt>
      <trkpt lat="44.84671" lon="-0.22138">
        <ele>8.5</ele>
        <time>2020-09-09T12:57:05Z</time>
      </trkpt>
      <trkpt lat="44.84669" lon="-0.22138">
        <ele>8.5</ele>
        <time>2020-09-09T12:57:06Z</time>
      </trkpt>
      <trkpt lat="44.84668" lon="-0.22139">
        <ele>8.5</ele>
        <time>2020-09-09T12:57:07Z</time>
      </trkpt>
      <trkpt lat="44.84666" lon="-0.2214">
        <ele>8.5</ele>
        <time>2020-09-09T12:57:09Z</time>
      </trkpt>
      <trkpt lat="44.84665" lon="-0.2214">
        <ele>8.5</ele>
        <time>2020-09-09T12:57:10Z</time>
      </trkpt>
      <trkpt lat="44.84663" lon="-0.22141">
        <ele>8.5</ele>
        <time>2020-09-09T12:57:11Z</time>
      </trkpt>
      <trkpt lat="44.84662" lon="-0.22141">
        <ele>8.5</ele>
        <time>2020-09-09T12:57:12Z</time>
      </trkpt>
      <trkpt lat="44.84661" lon="-0.22142">
        <ele>8.5</ele>
        <time>2020-09-09T12:57:14Z</time>
      </trkpt>
      <trkpt lat="44.84662" lon="-0.22143">
        <ele>8.6</ele>
        <time>2020-09-09T12:57:15Z</time>
      </trkpt>
      <trkpt lat="44.8466" lon="-0.22144">
        <ele>8.6</ele>
        <time>2020-09-09T12:57:16Z</time>
      </trkpt>
      <trkpt lat="44.84658" lon="-0.22145">
        <ele>8.6</ele>
        <time>2020-09-09T12:57:17Z</time>
      </trkpt>
      <trkpt lat="44.84656" lon="-0.22145">
        <ele>8.6</ele>
        <time>2020-09-09T12:57:18Z</time>
      </trkpt>
      <trkpt lat="44.84658" lon="-0.22144">
        <ele>8.6</ele>
        <time>2020-09-09T12:57:19Z</time>
      </trkpt>
      <trkpt lat="44.84656" lon="-0.22144">
        <ele>8.6</ele>
        <time>2020-09-09T12:57:20Z</time>
      </trkpt>
      <trkpt lat="44.84654" lon="-0.22144">
        <ele>8.6</ele>
        <time>2020-09-09T12:57:22Z</time>
      </trkpt>
      <trkpt lat="44.84652" lon="-0.22144">
        <ele>8.7</ele>
        <time>2020-09-09T12:57:23Z</time>
      </trkpt>
      <trkpt lat="44.84652" lon="-0.22147">
        <ele>8.7</ele>
        <time>2020-09-09T12:57:24Z</time>
      </trkpt>
      <trkpt lat="44.84651" lon="-0.22147">
        <ele>8.7</ele>
        <time>2020-09-09T12:57:25Z</time>
      </trkpt>
      <trkpt lat="44.84648" lon="-0.22149">
        <ele>8.7</ele>
        <time>2020-09-09T12:57:27Z</time>
      </trkpt>
      <trkpt lat="44.84647" lon="-0.2215">
        <ele>8.7</ele>
        <time>2020-09-09T12:57:28Z</time>
      </trkpt>
      <trkpt lat="44.84645" lon="-0.22151">
        <ele>8.7</ele>
        <time>2020-09-09T12:57:29Z</time>
      </trkpt>
      <trkpt lat="44.84645" lon="-0.22154">
        <ele>8.7</ele>
        <time>2020-09-09T12:57:30Z</time>
      </trkpt>
      <trkpt lat="44.84644" lon="-0.22155">
        <ele>8.8</ele>
        <time>2020-09-09T12:57:31Z</time>
      </trkpt>
      <trkpt lat="44.84642" lon="-0.22156">
        <ele>8.8</ele>
        <time>2020-09-09T12:57:32Z</time>
      </trkpt>
      <trkpt lat="44.84641" lon="-0.22157">
        <ele>8.8</ele>
        <time>2020-09-09T12:57:33Z</time>
      </trkpt>
      <trkpt lat="44.84637" lon="-0.2216">
        <ele>8.8</ele>
        <time>2020-09-09T12:57:35Z</time>
      </trkpt>
      <trkpt lat="44.84635" lon="-0.22161">
        <ele>8.8</ele>
        <time>2020-09-09T12:57:36Z</time>
      </trkpt>
      <trkpt lat="44.84635" lon="-0.22162">
        <ele>8.9</ele>
        <time>2020-09-09T12:57:37Z</time>
      </trkpt>
      <trkpt lat="44.84634" lon="-0.22163">
        <ele>8.9</ele>
        <time>2020-09-09T12:57:38Z</time>
      </trkpt>
      <trkpt lat="44.84632" lon="-0.22163">
        <ele>8.9</ele>
        <time>2020-09-09T12:57:39Z</time>
      </trkpt>
      <trkpt lat="44.84631" lon="-0.22164">
        <ele>8.9</ele>
        <time>2020-09-09T12:57:41Z</time>
      </trkpt>
      <trkpt lat="44.84629" lon="-0.22165">
        <ele>8.9</ele>
        <time>2020-09-09T12:57:42Z</time>
      </trkpt>
      <trkpt lat="44.84627" lon="-0.22165">
        <ele>8.9</ele>
        <time>2020-09-09T12:57:43Z</time>
      </trkpt>
      <trkpt lat="44.84627" lon="-0.22166">
        <ele>8.9</ele>
        <time>2020-09-09T12:57:44Z</time>
      </trkpt>
      <trkpt lat="44.84626" lon="-0.22167">
        <ele>8.9</ele>
        <time>2020-09-09T12:57:45Z</time>
      </trkpt>
      <trkpt lat="44.84624" lon="-0.22168">
        <ele>8.9</ele>
        <time>2020-09-09T12:57:47Z</time>
      </trkpt>
      <trkpt lat="44.84623" lon="-0.22168">
        <ele>9</ele>
        <time>2020-09-09T12:57:48Z</time>
      </trkpt>
      <trkpt lat="44.84622" lon="-0.22169">
        <ele>9</ele>
        <time>2020-09-09T12:57:49Z</time>
      </trkpt>
      <trkpt lat="44.84621" lon="-0.22169">
        <ele>9</ele>
        <time>2020-09-09T12:57:50Z</time>
      </trkpt>
      <trkpt lat="44.8462" lon="-0.2217">
        <ele>9</ele>
        <time>2020-09-09T12:57:51Z</time>
      </trkpt>
      <trkpt lat="44.84619" lon="-0.22171">
        <ele>9</ele>
        <time>2020-09-09T12:57:52Z</time>
      </trkpt>
      <trkpt lat="44.84618" lon="-0.22171">
        <ele>9</ele>
        <time>2020-09-09T12:57:53Z</time>
      </trkpt>
      <trkpt lat="44.84615" lon="-0.22171">
        <ele>9</ele>
        <time>2020-09-09T12:57:55Z</time>
      </trkpt>
      <trkpt lat="44.84614" lon="-0.22172">
        <ele>9</ele>
        <time>2020-09-09T12:57:56Z</time>
      </trkpt>
      <trkpt lat="44.84612" lon="-0.22172">
        <ele>9</ele>
        <time>2020-09-09T12:57:57Z</time>
      </trkpt>
      <trkpt lat="44.84611" lon="-0.22172">
        <ele>9</ele>
        <time>2020-09-09T12:57:58Z</time>
      </trkpt>
      <trkpt lat="44.8461" lon="-0.22173">
        <ele>9.1</ele>
        <time>2020-09-09T12:57:59Z</time>
      </trkpt>
      <trkpt lat="44.8461" lon="-0.22172">
        <ele>9.1</ele>
        <time>2020-09-09T12:58:00Z</time>
      </trkpt>
      <trkpt lat="44.84608" lon="-0.22172">
        <ele>9.1</ele>
        <time>2020-09-09T12:58:01Z</time>
      </trkpt>
      <trkpt lat="44.84607" lon="-0.22173">
        <ele>9.1</ele>
        <time>2020-09-09T12:58:03Z</time>
      </trkpt>
      <trkpt lat="44.84606" lon="-0.22173">
        <ele>9.1</ele>
        <time>2020-09-09T12:58:04Z</time>
      </trkpt>
      <trkpt lat="44.84605" lon="-0.22176">
        <ele>9.1</ele>
        <time>2020-09-09T12:58:06Z</time>
      </trkpt>
      <trkpt lat="44.84603" lon="-0.22176">
        <ele>9.1</ele>
        <time>2020-09-09T12:58:07Z</time>
      </trkpt>
      <trkpt lat="44.84602" lon="-0.22176">
        <ele>9.1</ele>
        <time>2020-09-09T12:58:08Z</time>
      </trkpt>
      <trkpt lat="44.846" lon="-0.22177">
        <ele>9.1</ele>
        <time>2020-09-09T12:58:09Z</time>
      </trkpt>
      <trkpt lat="44.84599" lon="-0.22178">
        <ele>9.1</ele>
        <time>2020-09-09T12:58:10Z</time>
      </trkpt>
      <trkpt lat="44.84597" lon="-0.22178">
        <ele>9.2</ele>
        <time>2020-09-09T12:58:12Z</time>
      </trkpt>
      <trkpt lat="44.84595" lon="-0.22178">
        <ele>9.2</ele>
        <time>2020-09-09T12:58:13Z</time>
      </trkpt>
      <trkpt lat="44.84594" lon="-0.22178">
        <ele>9.2</ele>
        <time>2020-09-09T12:58:14Z</time>
      </trkpt>
      <trkpt lat="44.84592" lon="-0.22178">
        <ele>9.2</ele>
        <time>2020-09-09T12:58:16Z</time>
      </trkpt>
      <trkpt lat="44.8459" lon="-0.22178">
        <ele>9.2</ele>
        <time>2020-09-09T12:58:17Z</time>
      </trkpt>
      <trkpt lat="44.84588" lon="-0.22179">
        <ele>9.2</ele>
        <time>2020-09-09T12:58:18Z</time>
      </trkpt>
      <trkpt lat="44.84587" lon="-0.22179">
        <ele>9.3</ele>
        <time>2020-09-09T12:58:19Z</time>
      </trkpt>
      <trkpt lat="44.84585" lon="-0.22179">
        <ele>9.3</ele>
        <time>2020-09-09T12:58:20Z</time>
      </trkpt>
      <trkpt lat="44.84583" lon="-0.2218">
        <ele>9.3</ele>
        <time>2020-09-09T12:58:21Z</time>
      </trkpt>
      <trkpt lat="44.84582" lon="-0.2218">
        <ele>9.3</ele>
        <time>2020-09-09T12:58:23Z</time>
      </trkpt>
      <trkpt lat="44.8458" lon="-0.2218">
        <ele>9.3</ele>
        <time>2020-09-09T12:58:24Z</time>
      </trkpt>
      <trkpt lat="44.84579" lon="-0.2218">
        <ele>9.3</ele>
        <time>2020-09-09T12:58:25Z</time>
      </trkpt>
      <trkpt lat="44.84577" lon="-0.2218">
        <ele>9.3</ele>
        <time>2020-09-09T12:58:26Z</time>
      </trkpt>
      <trkpt lat="44.84576" lon="-0.22181">
        <ele>9.3</ele>
        <time>2020-09-09T12:58:28Z</time>
      </trkpt>
      <trkpt lat="44.84575" lon="-0.22182">
        <ele>9.4</ele>
        <time>2020-09-09T12:58:29Z</time>
      </trkpt>
      <trkpt lat="44.84573" lon="-0.22182">
        <ele>9.4</ele>
        <time>2020-09-09T12:58:30Z</time>
      </trkpt>
      <trkpt lat="44.84571" lon="-0.22182">
        <ele>9.4</ele>
        <time>2020-09-09T12:58:31Z</time>
      </trkpt>
      <trkpt lat="44.8457" lon="-0.22182">
        <ele>9.4</ele>
        <time>2020-09-09T12:58:32Z</time>
      </trkpt>
      <trkpt lat="44.84568" lon="-0.22183">
        <ele>9.4</ele>
        <time>2020-09-09T12:58:33Z</time>
      </trkpt>
      <trkpt lat="44.84567" lon="-0.22183">
        <ele>9.4</ele>
        <time>2020-09-09T12:58:35Z</time>
      </trkpt>
      <trkpt lat="44.84566" lon="-0.22183">
        <ele>9.4</ele>
        <time>2020-09-09T12:58:36Z</time>
      </trkpt>
      <trkpt lat="44.84565" lon="-0.22183">
        <ele>9.4</ele>
        <time>2020-09-09T12:58:37Z</time>
      </trkpt>
      <trkpt lat="44.84564" lon="-0.22183">
        <ele>9.4</ele>
        <time>2020-09-09T12:58:38Z</time>
      </trkpt>
      <trkpt lat="44.84563" lon="-0.22183">
        <ele>9.4</ele>
        <time>2020-09-09T12:58:39Z</time>
      </trkpt>
      <trkpt lat="44.84562" lon="-0.22183">
        <ele>9.4</ele>
        <time>2020-09-09T12:58:41Z</time>
      </trkpt>
      <trkpt lat="44.84561" lon="-0.22183">
        <ele>9.4</ele>
        <time>2020-09-09T12:58:42Z</time>
      </trkpt>
      <trkpt lat="44.84559" lon="-0.22184">
        <ele>9.5</ele>
        <time>2020-09-09T12:58:43Z</time>
      </trkpt>
      <trkpt lat="44.84558" lon="-0.22184">
        <ele>9.5</ele>
        <time>2020-09-09T12:58:44Z</time>
      </trkpt>
      <trkpt lat="44.84556" lon="-0.22185">
        <ele>9.5</ele>
        <time>2020-09-09T12:58:46Z</time>
      </trkpt>
      <trkpt lat="44.84555" lon="-0.22185">
        <ele>9.5</ele>
        <time>2020-09-09T12:58:47Z</time>
      </trkpt>
      <trkpt lat="44.84554" lon="-0.22185">
        <ele>9.5</ele>
        <time>2020-09-09T12:58:48Z</time>
      </trkpt>
      <trkpt lat="44.84553" lon="-0.22186">
        <ele>9.5</ele>
        <time>2020-09-09T12:58:49Z</time>
      </trkpt>
      <trkpt lat="44.84552" lon="-0.22186">
        <ele>9.5</ele>
        <time>2020-09-09T12:58:50Z</time>
      </trkpt>
      <trkpt lat="44.8455" lon="-0.22186">
        <ele>9.5</ele>
        <time>2020-09-09T12:58:51Z</time>
      </trkpt>
      <trkpt lat="44.84549" lon="-0.22186">
        <ele>9.5</ele>
        <time>2020-09-09T12:58:53Z</time>
      </trkpt>
      <trkpt lat="44.84548" lon="-0.22186">
        <ele>9.5</ele>
        <time>2020-09-09T12:58:54Z</time>
      </trkpt>
      <trkpt lat="44.84546" lon="-0.22187">
        <ele>9.5</ele>
        <time>2020-09-09T12:58:55Z</time>
      </trkpt>
      <trkpt lat="44.84545" lon="-0.22187">
        <ele>9.5</ele>
        <time>2020-09-09T12:58:56Z</time>
      </trkpt>
      <trkpt lat="44.84544" lon="-0.22188">
        <ele>9.5</ele>
        <time>2020-09-09T12:58:57Z</time>
      </trkpt>
      <trkpt lat="44.84543" lon="-0.22189">
        <ele>9.5</ele>
        <time>2020-09-09T12:58:58Z</time>
      </trkpt>
      <trkpt lat="44.84543" lon="-0.2219">
        <ele>9.5</ele>
        <time>2020-09-09T12:58:59Z</time>
      </trkpt>
      <trkpt lat="44.84542" lon="-0.2219">
        <ele>9.5</ele>
        <time>2020-09-09T12:59:00Z</time>
      </trkpt>
      <trkpt lat="44.84541" lon="-0.2219">
        <ele>9.5</ele>
        <time>2020-09-09T12:59:02Z</time>
      </trkpt>
      <trkpt lat="44.8454" lon="-0.22191">
        <ele>9.5</ele>
        <time>2020-09-09T12:59:03Z</time>
      </trkpt>
      <trkpt lat="44.84539" lon="-0.22192">
        <ele>9.5</ele>
        <time>2020-09-09T12:59:04Z</time>
      </trkpt>
      <trkpt lat="44.84537" lon="-0.22193">
        <ele>9.5</ele>
        <time>2020-09-09T12:59:05Z</time>
      </trkpt>
      <trkpt lat="44.84535" lon="-0.22194">
        <ele>9.6</ele>
        <time>2020-09-09T12:59:07Z</time>
      </trkpt>
      <trkpt lat="44.84534" lon="-0.22194">
        <ele>9.6</ele>
        <time>2020-09-09T12:59:08Z</time>
      </trkpt>
      <trkpt lat="44.84532" lon="-0.22196">
        <ele>9.6</ele>
        <time>2020-09-09T12:59:09Z</time>
      </trkpt>
      <trkpt lat="44.8453" lon="-0.22197">
        <ele>9.6</ele>
        <time>2020-09-09T12:59:10Z</time>
      </trkpt>
      <trkpt lat="44.84529" lon="-0.22197">
        <ele>9.6</ele>
        <time>2020-09-09T12:59:12Z</time>
      </trkpt>
      <trkpt lat="44.84528" lon="-0.22198">
        <ele>9.6</ele>
        <time>2020-09-09T12:59:13Z</time>
      </trkpt>
      <trkpt lat="44.84527" lon="-0.22198">
        <ele>9.6</ele>
        <time>2020-09-09T12:59:14Z</time>
      </trkpt>
      <trkpt lat="44.84525" lon="-0.22199">
        <ele>9.6</ele>
        <time>2020-09-09T12:59:16Z</time>
      </trkpt>
      <trkpt lat="44.84524" lon="-0.22199">
        <ele>9.7</ele>
        <time>2020-09-09T12:59:17Z</time>
      </trkpt>
      <trkpt lat="44.84523" lon="-0.222">
        <ele>9.7</ele>
        <time>2020-09-09T12:59:18Z</time>
      </trkpt>
      <trkpt lat="44.84522" lon="-0.222">
        <ele>9.7</ele>
        <time>2020-09-09T12:59:19Z</time>
      </trkpt>
      <trkpt lat="44.84521" lon="-0.22201">
        <ele>9.7</ele>
        <time>2020-09-09T12:59:20Z</time>
      </trkpt>
      <trkpt lat="44.8452" lon="-0.22201">
        <ele>9.7</ele>
        <time>2020-09-09T12:59:21Z</time>
      </trkpt>
      <trkpt lat="44.84519" lon="-0.22202">
        <ele>9.7</ele>
        <time>2020-09-09T12:59:22Z</time>
      </trkpt>
      <trkpt lat="44.84518" lon="-0.22202">
        <ele>9.7</ele>
        <time>2020-09-09T12:59:23Z</time>
      </trkpt>
      <trkpt lat="44.84517" lon="-0.22202">
        <ele>9.8</ele>
        <time>2020-09-09T12:59:24Z</time>
      </trkpt>
      <trkpt lat="44.84515" lon="-0.22203">
        <ele>9.8</ele>
        <time>2020-09-09T12:59:26Z</time>
      </trkpt>
      <trkpt lat="44.84513" lon="-0.22204">
        <ele>9.8</ele>
        <time>2020-09-09T12:59:27Z</time>
      </trkpt>
      <trkpt lat="44.84512" lon="-0.22204">
        <ele>9.8</ele>
        <time>2020-09-09T12:59:28Z</time>
      </trkpt>
      <trkpt lat="44.84511" lon="-0.22205">
        <ele>9.8</ele>
        <time>2020-09-09T12:59:29Z</time>
      </trkpt>
      <trkpt lat="44.84508" lon="-0.22205">
        <ele>9.9</ele>
        <time>2020-09-09T12:59:30Z</time>
      </trkpt>
      <trkpt lat="44.84507" lon="-0.22206">
        <ele>9.9</ele>
        <time>2020-09-09T12:59:32Z</time>
      </trkpt>
      <trkpt lat="44.84506" lon="-0.22206">
        <ele>9.9</ele>
        <time>2020-09-09T12:59:33Z</time>
      </trkpt>
      <trkpt lat="44.84505" lon="-0.22206">
        <ele>9.9</ele>
        <time>2020-09-09T12:59:34Z</time>
      </trkpt>
      <trkpt lat="44.84503" lon="-0.22207">
        <ele>9.9</ele>
        <time>2020-09-09T12:59:35Z</time>
      </trkpt>
      <trkpt lat="44.84501" lon="-0.22208">
        <ele>10</ele>
        <time>2020-09-09T12:59:36Z</time>
      </trkpt>
      <trkpt lat="44.845" lon="-0.22208">
        <ele>10</ele>
        <time>2020-09-09T12:59:38Z</time>
      </trkpt>
      <trkpt lat="44.84499" lon="-0.22209">
        <ele>10</ele>
        <time>2020-09-09T12:59:39Z</time>
      </trkpt>
      <trkpt lat="44.84497" lon="-0.2221">
        <ele>10</ele>
        <time>2020-09-09T12:59:40Z</time>
      </trkpt>
      <trkpt lat="44.84496" lon="-0.2221">
        <ele>10</ele>
        <time>2020-09-09T12:59:41Z</time>
      </trkpt>
      <trkpt lat="44.84494" lon="-0.22212">
        <ele>10</ele>
        <time>2020-09-09T12:59:43Z</time>
      </trkpt>
      <trkpt lat="44.84493" lon="-0.22212">
        <ele>10.1</ele>
        <time>2020-09-09T12:59:44Z</time>
      </trkpt>
      <trkpt lat="44.84491" lon="-0.22214">
        <ele>10.1</ele>
        <time>2020-09-09T12:59:45Z</time>
      </trkpt>
      <trkpt lat="44.8449" lon="-0.22214">
        <ele>10.1</ele>
        <time>2020-09-09T12:59:47Z</time>
      </trkpt>
      <trkpt lat="44.8449" lon="-0.22215">
        <ele>10.1</ele>
        <time>2020-09-09T12:59:48Z</time>
      </trkpt>
      <trkpt lat="44.84487" lon="-0.22216">
        <ele>10.1</ele>
        <time>2020-09-09T12:59:49Z</time>
      </trkpt>
      <trkpt lat="44.84486" lon="-0.22217">
        <ele>10.1</ele>
        <time>2020-09-09T12:59:51Z</time>
      </trkpt>
      <trkpt lat="44.84484" lon="-0.22218">
        <ele>10.2</ele>
        <time>2020-09-09T12:59:52Z</time>
      </trkpt>
      <trkpt lat="44.84481" lon="-0.22219">
        <ele>10.2</ele>
        <time>2020-09-09T12:59:54Z</time>
      </trkpt>
      <trkpt lat="44.8448" lon="-0.22219">
        <ele>10.2</ele>
        <time>2020-09-09T12:59:55Z</time>
      </trkpt>
      <trkpt lat="44.84478" lon="-0.22219">
        <ele>10.2</ele>
        <time>2020-09-09T12:59:56Z</time>
      </trkpt>
      <trkpt lat="44.84476" lon="-0.2222">
        <ele>10.2</ele>
        <time>2020-09-09T12:59:58Z</time>
      </trkpt>
      <trkpt lat="44.84475" lon="-0.2222">
        <ele>10.3</ele>
        <time>2020-09-09T12:59:59Z</time>
      </trkpt>
      <trkpt lat="44.84474" lon="-0.22221">
        <ele>10.3</ele>
        <time>2020-09-09T13:00:00Z</time>
      </trkpt>
      <trkpt lat="44.84473" lon="-0.22222">
        <ele>10.3</ele>
        <time>2020-09-09T13:00:01Z</time>
      </trkpt>
      <trkpt lat="44.84473" lon="-0.22223">
        <ele>10.3</ele>
        <time>2020-09-09T13:00:02Z</time>
      </trkpt>
      <trkpt lat="44.84472" lon="-0.22224">
        <ele>10.3</ele>
        <time>2020-09-09T13:00:03Z</time>
      </trkpt>
      <trkpt lat="44.84471" lon="-0.22226">
        <ele>10.3</ele>
        <time>2020-09-09T13:00:05Z</time>
      </trkpt>
      <trkpt lat="44.84469" lon="-0.22227">
        <ele>10.4</ele>
        <time>2020-09-09T13:00:06Z</time>
      </trkpt>
      <trkpt lat="44.84469" lon="-0.22228">
        <ele>10.4</ele>
        <time>2020-09-09T13:00:07Z</time>
      </trkpt>
      <trkpt lat="44.84468" lon="-0.22229">
        <ele>10.4</ele>
        <time>2020-09-09T13:00:08Z</time>
      </trkpt>
      <trkpt lat="44.84467" lon="-0.2223">
        <ele>10.4</ele>
        <time>2020-09-09T13:00:10Z</time>
      </trkpt>
      <trkpt lat="44.84467" lon="-0.22231">
        <ele>10.4</ele>
        <time>2020-09-09T13:00:11Z</time>
      </trkpt>
      <trkpt lat="44.84466" lon="-0.22231">
        <ele>10.4</ele>
        <time>2020-09-09T13:00:12Z</time>
      </trkpt>
      <trkpt lat="44.84465" lon="-0.22232">
        <ele>10.4</ele>
        <time>2020-09-09T13:00:13Z</time>
      </trkpt>
      <trkpt lat="44.84464" lon="-0.22233">
        <ele>10.5</ele>
        <time>2020-09-09T13:00:14Z</time>
      </trkpt>
      <trkpt lat="44.84463" lon="-0.22235">
        <ele>10.5</ele>
        <time>2020-09-09T13:00:15Z</time>
      </trkpt>
      <trkpt lat="44.84461" lon="-0.22236">
        <ele>10.5</ele>
        <time>2020-09-09T13:00:17Z</time>
      </trkpt>
      <trkpt lat="44.8446" lon="-0.22237">
        <ele>10.5</ele>
        <time>2020-09-09T13:00:18Z</time>
      </trkpt>
      <trkpt lat="44.84459" lon="-0.22238">
        <ele>10.6</ele>
        <time>2020-09-09T13:00:19Z</time>
      </trkpt>
      <trkpt lat="44.84458" lon="-0.2224">
        <ele>10.6</ele>
        <time>2020-09-09T13:00:20Z</time>
      </trkpt>
      <trkpt lat="44.84457" lon="-0.22241">
        <ele>10.6</ele>
        <time>2020-09-09T13:00:21Z</time>
      </trkpt>
      <trkpt lat="44.84457" lon="-0.22242">
        <ele>10.6</ele>
        <time>2020-09-09T13:00:22Z</time>
      </trkpt>
      <trkpt lat="44.84455" lon="-0.22243">
        <ele>10.7</ele>
        <time>2020-09-09T13:00:24Z</time>
      </trkpt>
      <trkpt lat="44.84455" lon="-0.22245">
        <ele>10.7</ele>
        <time>2020-09-09T13:00:25Z</time>
      </trkpt>
      <trkpt lat="44.84454" lon="-0.22246">
        <ele>10.7</ele>
        <time>2020-09-09T13:00:26Z</time>
      </trkpt>
      <trkpt lat="44.84453" lon="-0.22248">
        <ele>10.7</ele>
        <time>2020-09-09T13:00:27Z</time>
      </trkpt>
      <trkpt lat="44.84451" lon="-0.2225">
        <ele>10.8</ele>
        <time>2020-09-09T13:00:29Z</time>
      </trkpt>
      <trkpt lat="44.8445" lon="-0.22251">
        <ele>10.8</ele>
        <time>2020-09-09T13:00:30Z</time>
      </trkpt>
      <trkpt lat="44.8445" lon="-0.22252">
        <ele>10.8</ele>
        <time>2020-09-09T13:00:32Z</time>
      </trkpt>
      <trkpt lat="44.84449" lon="-0.22253">
        <ele>10.9</ele>
        <time>2020-09-09T13:00:33Z</time>
      </trkpt>
      <trkpt lat="44.84448" lon="-0.22254">
        <ele>10.9</ele>
        <time>2020-09-09T13:00:34Z</time>
      </trkpt>
      <trkpt lat="44.84449" lon="-0.22255">
        <ele>10.9</ele>
        <time>2020-09-09T13:00:35Z</time>
      </trkpt>
      <trkpt lat="44.84448" lon="-0.22256">
        <ele>10.9</ele>
        <time>2020-09-09T13:00:36Z</time>
      </trkpt>
      <trkpt lat="44.84447" lon="-0.22257">
        <ele>11</ele>
        <time>2020-09-09T13:00:37Z</time>
      </trkpt>
      <trkpt lat="44.84446" lon="-0.22258">
        <ele>11</ele>
        <time>2020-09-09T13:00:38Z</time>
      </trkpt>
      <trkpt lat="44.84444" lon="-0.2226">
        <ele>11.1</ele>
        <time>2020-09-09T13:00:39Z</time>
      </trkpt>
      <trkpt lat="44.84443" lon="-0.2226">
        <ele>11.1</ele>
        <time>2020-09-09T13:00:41Z</time>
      </trkpt>
      <trkpt lat="44.84442" lon="-0.22261">
        <ele>11.1</ele>
        <time>2020-09-09T13:00:42Z</time>
      </trkpt>
      <trkpt lat="44.84441" lon="-0.22262">
        <ele>11.1</ele>
        <time>2020-09-09T13:00:43Z</time>
      </trkpt>
      <trkpt lat="44.8444" lon="-0.22263">
        <ele>11.2</ele>
        <time>2020-09-09T13:00:44Z</time>
      </trkpt>
      <trkpt lat="44.84438" lon="-0.22264">
        <ele>11.2</ele>
        <time>2020-09-09T13:00:45Z</time>
      </trkpt>
      <trkpt lat="44.84437" lon="-0.22264">
        <ele>11.2</ele>
        <time>2020-09-09T13:00:47Z</time>
      </trkpt>
      <trkpt lat="44.84435" lon="-0.22265">
        <ele>11.2</ele>
        <time>2020-09-09T13:00:48Z</time>
      </trkpt>
      <trkpt lat="44.84434" lon="-0.22264">
        <ele>11.2</ele>
        <time>2020-09-09T13:00:50Z</time>
      </trkpt>
      <trkpt lat="44.84432" lon="-0.22263">
        <ele>11.2</ele>
        <time>2020-09-09T13:00:51Z</time>
      </trkpt>
      <trkpt lat="44.84431" lon="-0.22263">
        <ele>11.2</ele>
        <time>2020-09-09T13:00:53Z</time>
      </trkpt>
      <trkpt lat="44.84432" lon="-0.22262">
        <ele>11.2</ele>
        <time>2020-09-09T13:00:55Z</time>
      </trkpt>
      <trkpt lat="44.84431" lon="-0.22261">
        <ele>11.2</ele>
        <time>2020-09-09T13:00:56Z</time>
      </trkpt>
      <trkpt lat="44.84431" lon="-0.2226">
        <ele>11.2</ele>
        <time>2020-09-09T13:00:57Z</time>
      </trkpt>
      <trkpt lat="44.84431" lon="-0.2226">
        <ele>11.2</ele>
        <time>2020-09-09T13:00:59Z</time>
      </trkpt>
      <trkpt lat="44.84431" lon="-0.2226">
        <ele>11.2</ele>
        <time>2020-09-09T13:01:00Z</time>
      </trkpt>
      <trkpt lat="44.84431" lon="-0.22261">
        <ele>11.2</ele>
        <time>2020-09-09T13:01:02Z</time>
      </trkpt>
      <trkpt lat="44.84431" lon="-0.22261">
        <ele>11.2</ele>
        <time>2020-09-09T13:01:04Z</time>
      </trkpt>
      <trkpt lat="44.84432" lon="-0.22261">
        <ele>11.2</ele>
        <time>2020-09-09T13:01:07Z</time>
      </trkpt>
      <trkpt lat="44.84433" lon="-0.22262">
        <ele>11.2</ele>
        <time>2020-09-09T13:01:08Z</time>
      </trkpt>
      <trkpt lat="44.84434" lon="-0.22263">
        <ele>11.3</ele>
        <time>2020-09-09T13:01:09Z</time>
      </trkpt>
      <trkpt lat="44.84436" lon="-0.22265">
        <ele>11.2</ele>
        <time>2020-09-09T13:01:10Z</time>
      </trkpt>
      <trkpt lat="44.84436" lon="-0.22266">
        <ele>11.3</ele>
        <time>2020-09-09T13:01:11Z</time>
      </trkpt>
      <trkpt lat="44.84437" lon="-0.22267">
        <ele>11.3</ele>
        <time>2020-09-09T13:01:12Z</time>
      </trkpt>
      <trkpt lat="44.84438" lon="-0.2227">
        <ele>11.2</ele>
        <time>2020-09-09T13:01:13Z</time>
      </trkpt>
      <trkpt lat="44.84438" lon="-0.22271">
        <ele>11.2</ele>
        <time>2020-09-09T13:01:15Z</time>
      </trkpt>
      <trkpt lat="44.84438" lon="-0.22272">
        <ele>11.3</ele>
        <time>2020-09-09T13:01:16Z</time>
      </trkpt>
      <trkpt lat="44.84438" lon="-0.22274">
        <ele>11.2</ele>
        <time>2020-09-09T13:01:17Z</time>
      </trkpt>
      <trkpt lat="44.84438" lon="-0.22275">
        <ele>11.2</ele>
        <time>2020-09-09T13:01:19Z</time>
      </trkpt>
      <trkpt lat="44.84438" lon="-0.22275">
        <ele>11.3</ele>
        <time>2020-09-09T13:01:20Z</time>
      </trkpt>
      <trkpt lat="44.84438" lon="-0.22276">
        <ele>11.3</ele>
        <time>2020-09-09T13:01:22Z</time>
      </trkpt>
      <trkpt lat="44.84438" lon="-0.22276">
        <ele>11.3</ele>
        <time>2020-09-09T13:01:23Z</time>
      </trkpt>
      <trkpt lat="44.84438" lon="-0.22277">
        <ele>11.3</ele>
        <time>2020-09-09T13:01:24Z</time>
      </trkpt>
      <trkpt lat="44.84439" lon="-0.22279">
        <ele>11.3</ele>
        <time>2020-09-09T13:01:26Z</time>
      </trkpt>
      <trkpt lat="44.8444" lon="-0.2228">
        <ele>11.2</ele>
        <time>2020-09-09T13:01:27Z</time>
      </trkpt>
      <trkpt lat="44.84441" lon="-0.22281">
        <ele>11.2</ele>
        <time>2020-09-09T13:01:28Z</time>
      </trkpt>
      <trkpt lat="44.84443" lon="-0.22283">
        <ele>11.2</ele>
        <time>2020-09-09T13:01:29Z</time>
      </trkpt>
      <trkpt lat="44.84444" lon="-0.22284">
        <ele>11.2</ele>
        <time>2020-09-09T13:01:30Z</time>
      </trkpt>
      <trkpt lat="44.84444" lon="-0.22284">
        <ele>11.2</ele>
        <time>2020-09-09T13:01:31Z</time>
      </trkpt>
      <trkpt lat="44.84446" lon="-0.22286">
        <ele>11.2</ele>
        <time>2020-09-09T13:01:33Z</time>
      </trkpt>
      <trkpt lat="44.84448" lon="-0.22287">
        <ele>11.1</ele>
        <time>2020-09-09T13:01:35Z</time>
      </trkpt>
      <trkpt lat="44.84449" lon="-0.22288">
        <ele>11.1</ele>
        <time>2020-09-09T13:01:36Z</time>
      </trkpt>
      <trkpt lat="44.8445" lon="-0.22289">
        <ele>11.1</ele>
        <time>2020-09-09T13:01:37Z</time>
      </trkpt>
      <trkpt lat="44.84451" lon="-0.2229">
        <ele>11.1</ele>
        <time>2020-09-09T13:01:38Z</time>
      </trkpt>
      <trkpt lat="44.84453" lon="-0.22291">
        <ele>11</ele>
        <time>2020-09-09T13:01:39Z</time>
      </trkpt>
      <trkpt lat="44.84454" lon="-0.22292">
        <ele>11.1</ele>
        <time>2020-09-09T13:01:41Z</time>
      </trkpt>
      <trkpt lat="44.84456" lon="-0.22293">
        <ele>11</ele>
        <time>2020-09-09T13:01:43Z</time>
      </trkpt>
      <trkpt lat="44.84457" lon="-0.22294">
        <ele>11</ele>
        <time>2020-09-09T13:01:44Z</time>
      </trkpt>
      <trkpt lat="44.8446" lon="-0.22296">
        <ele>11</ele>
        <time>2020-09-09T13:01:45Z</time>
      </trkpt>
      <trkpt lat="44.84461" lon="-0.22297">
        <ele>11</ele>
        <time>2020-09-09T13:01:46Z</time>
      </trkpt>
      <trkpt lat="44.84462" lon="-0.22299">
        <ele>10.9</ele>
        <time>2020-09-09T13:01:48Z</time>
      </trkpt>
      <trkpt lat="44.84464" lon="-0.223">
        <ele>10.9</ele>
        <time>2020-09-09T13:01:49Z</time>
      </trkpt>
      <trkpt lat="44.84465" lon="-0.22302">
        <ele>10.8</ele>
        <time>2020-09-09T13:01:50Z</time>
      </trkpt>
      <trkpt lat="44.84467" lon="-0.22303">
        <ele>10.8</ele>
        <time>2020-09-09T13:01:51Z</time>
      </trkpt>
      <trkpt lat="44.84468" lon="-0.22304">
        <ele>10.8</ele>
        <time>2020-09-09T13:01:52Z</time>
      </trkpt>
      <trkpt lat="44.8447" lon="-0.22306">
        <ele>10.8</ele>
        <time>2020-09-09T13:01:54Z</time>
      </trkpt>
      <trkpt lat="44.84472" lon="-0.22308">
        <ele>10.7</ele>
        <time>2020-09-09T13:01:55Z</time>
      </trkpt>
      <trkpt lat="44.84474" lon="-0.22309">
        <ele>10.7</ele>
        <time>2020-09-09T13:01:57Z</time>
      </trkpt>
      <trkpt lat="44.84475" lon="-0.2231">
        <ele>10.7</ele>
        <time>2020-09-09T13:01:58Z</time>
      </trkpt>
      <trkpt lat="44.84476" lon="-0.22311">
        <ele>10.7</ele>
        <time>2020-09-09T13:01:59Z</time>
      </trkpt>
      <trkpt lat="44.84478" lon="-0.22314">
        <ele>10.6</ele>
        <time>2020-09-09T13:02:00Z</time>
      </trkpt>
      <trkpt lat="44.84478" lon="-0.22315">
        <ele>10.6</ele>
        <time>2020-09-09T13:02:01Z</time>
      </trkpt>
      <trkpt lat="44.84479" lon="-0.22317">
        <ele>10.6</ele>
        <time>2020-09-09T13:02:03Z</time>
      </trkpt>
      <trkpt lat="44.8448" lon="-0.22319">
        <ele>10.5</ele>
        <time>2020-09-09T13:02:04Z</time>
      </trkpt>
      <trkpt lat="44.84482" lon="-0.22321">
        <ele>10.5</ele>
        <time>2020-09-09T13:02:05Z</time>
      </trkpt>
      <trkpt lat="44.84482" lon="-0.22322">
        <ele>10.5</ele>
        <time>2020-09-09T13:02:06Z</time>
      </trkpt>
      <trkpt lat="44.84483" lon="-0.22323">
        <ele>10.5</ele>
        <time>2020-09-09T13:02:07Z</time>
      </trkpt>
      <trkpt lat="44.84484" lon="-0.22324">
        <ele>10.5</ele>
        <time>2020-09-09T13:02:08Z</time>
      </trkpt>
      <trkpt lat="44.84485" lon="-0.22325">
        <ele>10.5</ele>
        <time>2020-09-09T13:02:10Z</time>
      </trkpt>
      <trkpt lat="44.84485" lon="-0.22325">
        <ele>10.5</ele>
        <time>2020-09-09T13:02:11Z</time>
      </trkpt>
      <trkpt lat="44.84486" lon="-0.22326">
        <ele>10.5</ele>
        <time>2020-09-09T13:02:13Z</time>
      </trkpt>
      <trkpt lat="44.84486" lon="-0.22326">
        <ele>10.5</ele>
        <time>2020-09-09T13:02:14Z</time>
      </trkpt>
      <trkpt lat="44.84487" lon="-0.22327">
        <ele>10.5</ele>
        <time>2020-09-09T13:02:15Z</time>
      </trkpt>
      <trkpt lat="44.84487" lon="-0.22328">
        <ele>10.5</ele>
        <time>2020-09-09T13:02:17Z</time>
      </trkpt>
      <trkpt lat="44.84488" lon="-0.22328">
        <ele>10.5</ele>
        <time>2020-09-09T13:02:18Z</time>
      </trkpt>
      <trkpt lat="44.84489" lon="-0.2233">
        <ele>10.5</ele>
        <time>2020-09-09T13:02:20Z</time>
      </trkpt>
      <trkpt lat="44.8449" lon="-0.22332">
        <ele>10.5</ele>
        <time>2020-09-09T13:02:21Z</time>
      </trkpt>
      <trkpt lat="44.84491" lon="-0.22333">
        <ele>10.5</ele>
        <time>2020-09-09T13:02:23Z</time>
      </trkpt>
      <trkpt lat="44.84492" lon="-0.22335">
        <ele>10.5</ele>
        <time>2020-09-09T13:02:24Z</time>
      </trkpt>
      <trkpt lat="44.84492" lon="-0.22336">
        <ele>10.5</ele>
        <time>2020-09-09T13:02:25Z</time>
      </trkpt>
      <trkpt lat="44.84494" lon="-0.22338">
        <ele>10.5</ele>
        <time>2020-09-09T13:02:27Z</time>
      </trkpt>
      <trkpt lat="44.84495" lon="-0.2234">
        <ele>10.4</ele>
        <time>2020-09-09T13:02:28Z</time>
      </trkpt>
      <trkpt lat="44.84496" lon="-0.22341">
        <ele>10.5</ele>
        <time>2020-09-09T13:02:29Z</time>
      </trkpt>
      <trkpt lat="44.84497" lon="-0.22342">
        <ele>10.5</ele>
        <time>2020-09-09T13:02:30Z</time>
      </trkpt>
      <trkpt lat="44.84498" lon="-0.22343">
        <ele>10.5</ele>
        <time>2020-09-09T13:02:31Z</time>
      </trkpt>
      <trkpt lat="44.84499" lon="-0.22344">
        <ele>10.5</ele>
        <time>2020-09-09T13:02:33Z</time>
      </trkpt>
      <trkpt lat="44.84499" lon="-0.22345">
        <ele>10.5</ele>
        <time>2020-09-09T13:02:34Z</time>
      </trkpt>
      <trkpt lat="44.845" lon="-0.22346">
        <ele>10.5</ele>
        <time>2020-09-09T13:02:35Z</time>
      </trkpt>
      <trkpt lat="44.84501" lon="-0.22346">
        <ele>10.5</ele>
        <time>2020-09-09T13:02:36Z</time>
      </trkpt>
      <trkpt lat="44.84501" lon="-0.22348">
        <ele>10.5</ele>
        <time>2020-09-09T13:02:37Z</time>
      </trkpt>
      <trkpt lat="44.84502" lon="-0.2235">
        <ele>10.5</ele>
        <time>2020-09-09T13:02:38Z</time>
      </trkpt>
      <trkpt lat="44.84503" lon="-0.22351">
        <ele>10.5</ele>
        <time>2020-09-09T13:02:39Z</time>
      </trkpt>
      <trkpt lat="44.84503" lon="-0.22352">
        <ele>10.5</ele>
        <time>2020-09-09T13:02:40Z</time>
      </trkpt>
      <trkpt lat="44.84504" lon="-0.22354">
        <ele>10.5</ele>
        <time>2020-09-09T13:02:42Z</time>
      </trkpt>
      <trkpt lat="44.84504" lon="-0.22356">
        <ele>10.6</ele>
        <time>2020-09-09T13:02:43Z</time>
      </trkpt>
      <trkpt lat="44.84505" lon="-0.22357">
        <ele>10.6</ele>
        <time>2020-09-09T13:02:44Z</time>
      </trkpt>
      <trkpt lat="44.84505" lon="-0.22359">
        <ele>10.6</ele>
        <time>2020-09-09T13:02:46Z</time>
      </trkpt>
      <trkpt lat="44.84505" lon="-0.22359">
        <ele>10.6</ele>
        <time>2020-09-09T13:02:48Z</time>
      </trkpt>
      <trkpt lat="44.84506" lon="-0.22361">
        <ele>10.6</ele>
        <time>2020-09-09T13:02:49Z</time>
      </trkpt>
      <trkpt lat="44.84507" lon="-0.22363">
        <ele>10.6</ele>
        <time>2020-09-09T13:02:51Z</time>
      </trkpt>
      <trkpt lat="44.84507" lon="-0.22363">
        <ele>10.6</ele>
        <time>2020-09-09T13:02:52Z</time>
      </trkpt>
      <trkpt lat="44.84508" lon="-0.22363">
        <ele>10.6</ele>
        <time>2020-09-09T13:02:53Z</time>
      </trkpt>
      <trkpt lat="44.84508" lon="-0.22363">
        <ele>10.6</ele>
        <time>2020-09-09T13:02:54Z</time>
      </trkpt>
      <trkpt lat="44.84508" lon="-0.22364">
        <ele>10.6</ele>
        <time>2020-09-09T13:02:56Z</time>
      </trkpt>
      <trkpt lat="44.84509" lon="-0.22365">
        <ele>10.7</ele>
        <time>2020-09-09T13:02:57Z</time>
      </trkpt>
      <trkpt lat="44.8451" lon="-0.22365">
        <ele>10.7</ele>
        <time>2020-09-09T13:02:58Z</time>
      </trkpt>
      <trkpt lat="44.84511" lon="-0.22367">
        <ele>10.6</ele>
        <time>2020-09-09T13:02:59Z</time>
      </trkpt>
      <trkpt lat="44.84511" lon="-0.22367">
        <ele>10.6</ele>
        <time>2020-09-09T13:03:00Z</time>
      </trkpt>
      <trkpt lat="44.84511" lon="-0.22368">
        <ele>10.7</ele>
        <time>2020-09-09T13:03:02Z</time>
      </trkpt>
      <trkpt lat="44.84511" lon="-0.22368">
        <ele>10.7</ele>
        <time>2020-09-09T13:03:03Z</time>
      </trkpt>
      <trkpt lat="44.84511" lon="-0.22368">
        <ele>10.7</ele>
        <time>2020-09-09T13:03:05Z</time>
      </trkpt>
      <trkpt lat="44.84511" lon="-0.22369">
        <ele>10.7</ele>
        <time>2020-09-09T13:03:06Z</time>
      </trkpt>
      <trkpt lat="44.84511" lon="-0.22369">
        <ele>10.7</ele>
        <time>2020-09-09T13:03:09Z</time>
      </trkpt>
      <trkpt lat="44.84511" lon="-0.22369">
        <ele>10.7</ele>
        <time>2020-09-09T13:03:10Z</time>
      </trkpt>
      <trkpt lat="44.84511" lon="-0.2237">
        <ele>10.7</ele>
        <time>2020-09-09T13:03:11Z</time>
      </trkpt>
      <trkpt lat="44.84511" lon="-0.2237">
        <ele>10.7</ele>
        <time>2020-09-09T13:03:13Z</time>
      </trkpt>
      <trkpt lat="44.84511" lon="-0.2237">
        <ele>10.7</ele>
        <time>2020-09-09T13:03:14Z</time>
      </trkpt>
      <trkpt lat="44.84512" lon="-0.22373">
        <ele>10.8</ele>
        <time>2020-09-09T13:03:15Z</time>
      </trkpt>
      <trkpt lat="44.84512" lon="-0.22374">
        <ele>10.8</ele>
        <time>2020-09-09T13:03:16Z</time>
      </trkpt>
      <trkpt lat="44.84513" lon="-0.22376">
        <ele>10.8</ele>
        <time>2020-09-09T13:03:17Z</time>
      </trkpt>
      <trkpt lat="44.84514" lon="-0.22378">
        <ele>10.8</ele>
        <time>2020-09-09T13:03:18Z</time>
      </trkpt>
      <trkpt lat="44.84515" lon="-0.2238">
        <ele>10.8</ele>
        <time>2020-09-09T13:03:20Z</time>
      </trkpt>
      <trkpt lat="44.84516" lon="-0.22381">
        <ele>10.8</ele>
        <time>2020-09-09T13:03:21Z</time>
      </trkpt>
      <trkpt lat="44.84517" lon="-0.22382">
        <ele>10.8</ele>
        <time>2020-09-09T13:03:22Z</time>
      </trkpt>
      <trkpt lat="44.84517" lon="-0.22383">
        <ele>10.8</ele>
        <time>2020-09-09T13:03:23Z</time>
      </trkpt>
      <trkpt lat="44.84519" lon="-0.22384">
        <ele>10.8</ele>
        <time>2020-09-09T13:03:25Z</time>
      </trkpt>
      <trkpt lat="44.8452" lon="-0.22384">
        <ele>10.8</ele>
        <time>2020-09-09T13:03:26Z</time>
      </trkpt>
      <trkpt lat="44.84521" lon="-0.22384">
        <ele>10.8</ele>
        <time>2020-09-09T13:03:27Z</time>
      </trkpt>
      <trkpt lat="44.84524" lon="-0.22388">
        <ele>10.8</ele>
        <time>2020-09-09T13:03:29Z</time>
      </trkpt>
      <trkpt lat="44.84525" lon="-0.22388">
        <ele>10.8</ele>
        <time>2020-09-09T13:03:30Z</time>
      </trkpt>
      <trkpt lat="44.84526" lon="-0.22389">
        <ele>10.8</ele>
        <time>2020-09-09T13:03:31Z</time>
      </trkpt>
      <trkpt lat="44.84527" lon="-0.2239">
        <ele>10.8</ele>
        <time>2020-09-09T13:03:33Z</time>
      </trkpt>
      <trkpt lat="44.84529" lon="-0.22392">
        <ele>10.7</ele>
        <time>2020-09-09T13:03:34Z</time>
      </trkpt>
      <trkpt lat="44.8453" lon="-0.22392">
        <ele>10.8</ele>
        <time>2020-09-09T13:03:35Z</time>
      </trkpt>
      <trkpt lat="44.84532" lon="-0.22394">
        <ele>10.7</ele>
        <time>2020-09-09T13:03:36Z</time>
      </trkpt>
      <trkpt lat="44.84534" lon="-0.22395">
        <ele>10.7</ele>
        <time>2020-09-09T13:03:38Z</time>
      </trkpt>
      <trkpt lat="44.84535" lon="-0.22396">
        <ele>10.7</ele>
        <time>2020-09-09T13:03:39Z</time>
      </trkpt>
      <trkpt lat="44.84536" lon="-0.22397">
        <ele>10.7</ele>
        <time>2020-09-09T13:03:41Z</time>
      </trkpt>
      <trkpt lat="44.84536" lon="-0.22398">
        <ele>10.7</ele>
        <time>2020-09-09T13:03:42Z</time>
      </trkpt>
      <trkpt lat="44.84537" lon="-0.22399">
        <ele>10.7</ele>
        <time>2020-09-09T13:03:43Z</time>
      </trkpt>
      <trkpt lat="44.84538" lon="-0.224">
        <ele>10.7</ele>
        <time>2020-09-09T13:03:45Z</time>
      </trkpt>
      <trkpt lat="44.84539" lon="-0.22401">
        <ele>10.7</ele>
        <time>2020-09-09T13:03:46Z</time>
      </trkpt>
      <trkpt lat="44.8454" lon="-0.22403">
        <ele>10.7</ele>
        <time>2020-09-09T13:03:47Z</time>
      </trkpt>
      <trkpt lat="44.84541" lon="-0.22404">
        <ele>10.7</ele>
        <time>2020-09-09T13:03:48Z</time>
      </trkpt>
      <trkpt lat="44.84542" lon="-0.22405">
        <ele>10.7</ele>
        <time>2020-09-09T13:03:50Z</time>
      </trkpt>
      <trkpt lat="44.84543" lon="-0.22406">
        <ele>10.7</ele>
        <time>2020-09-09T13:03:51Z</time>
      </trkpt>
      <trkpt lat="44.84544" lon="-0.22407">
        <ele>10.7</ele>
        <time>2020-09-09T13:03:52Z</time>
      </trkpt>
      <trkpt lat="44.84544" lon="-0.22408">
        <ele>10.7</ele>
        <time>2020-09-09T13:03:53Z</time>
      </trkpt>
      <trkpt lat="44.84546" lon="-0.22409">
        <ele>10.7</ele>
        <time>2020-09-09T13:03:54Z</time>
      </trkpt>
      <trkpt lat="44.84548" lon="-0.22412">
        <ele>10.6</ele>
        <time>2020-09-09T13:03:56Z</time>
      </trkpt>
      <trkpt lat="44.84551" lon="-0.22415">
        <ele>10.6</ele>
        <time>2020-09-09T13:03:57Z</time>
      </trkpt>
      <trkpt lat="44.84552" lon="-0.22415">
        <ele>10.6</ele>
        <time>2020-09-09T13:03:58Z</time>
      </trkpt>
      <trkpt lat="44.84554" lon="-0.22418">
        <ele>10.6</ele>
        <time>2020-09-09T13:03:59Z</time>
      </trkpt>
      <trkpt lat="44.84555" lon="-0.22419">
        <ele>10.6</ele>
        <time>2020-09-09T13:04:00Z</time>
      </trkpt>
      <trkpt lat="44.84556" lon="-0.2242">
        <ele>10.5</ele>
        <time>2020-09-09T13:04:01Z</time>
      </trkpt>
      <trkpt lat="44.84557" lon="-0.22421">
        <ele>10.5</ele>
        <time>2020-09-09T13:04:02Z</time>
      </trkpt>
      <trkpt lat="44.84559" lon="-0.22424">
        <ele>10.5</ele>
        <time>2020-09-09T13:04:04Z</time>
      </trkpt>
      <trkpt lat="44.8456" lon="-0.22425">
        <ele>10.5</ele>
        <time>2020-09-09T13:04:05Z</time>
      </trkpt>
      <trkpt lat="44.84562" lon="-0.22427">
        <ele>10.4</ele>
        <time>2020-09-09T13:04:06Z</time>
      </trkpt>
      <trkpt lat="44.84562" lon="-0.22427">
        <ele>10.5</ele>
        <time>2020-09-09T13:04:07Z</time>
      </trkpt>
      <trkpt lat="44.84563" lon="-0.22428">
        <ele>10.4</ele>
        <time>2020-09-09T13:04:08Z</time>
      </trkpt>
      <trkpt lat="44.84565" lon="-0.22431">
        <ele>10.4</ele>
        <time>2020-09-09T13:04:10Z</time>
      </trkpt>
      <trkpt lat="44.84566" lon="-0.22431">
        <ele>10.4</ele>
        <time>2020-09-09T13:04:11Z</time>
      </trkpt>
      <trkpt lat="44.84566" lon="-0.22432">
        <ele>10.4</ele>
        <time>2020-09-09T13:04:12Z</time>
      </trkpt>
      <trkpt lat="44.84568" lon="-0.22434">
        <ele>10.4</ele>
        <time>2020-09-09T13:04:14Z</time>
      </trkpt>
      <trkpt lat="44.84569" lon="-0.22436">
        <ele>10.4</ele>
        <time>2020-09-09T13:04:16Z</time>
      </trkpt>
      <trkpt lat="44.8457" lon="-0.22437">
        <ele>10.4</ele>
        <time>2020-09-09T13:04:17Z</time>
      </trkpt>
      <trkpt lat="44.84572" lon="-0.22439">
        <ele>10.3</ele>
        <time>2020-09-09T13:04:18Z</time>
      </trkpt>
      <trkpt lat="44.84572" lon="-0.2244">
        <ele>10.3</ele>
        <time>2020-09-09T13:04:19Z</time>
      </trkpt>
      <trkpt lat="44.84573" lon="-0.22441">
        <ele>10.3</ele>
        <time>2020-09-09T13:04:20Z</time>
      </trkpt>
      <trkpt lat="44.84574" lon="-0.22442">
        <ele>10.3</ele>
        <time>2020-09-09T13:04:21Z</time>
      </trkpt>
      <trkpt lat="44.84575" lon="-0.22443">
        <ele>10.3</ele>
        <time>2020-09-09T13:04:22Z</time>
      </trkpt>
      <trkpt lat="44.84576" lon="-0.22444">
        <ele>10.3</ele>
        <time>2020-09-09T13:04:23Z</time>
      </trkpt>
      <trkpt lat="44.84576" lon="-0.22445">
        <ele>10.3</ele>
        <time>2020-09-09T13:04:24Z</time>
      </trkpt>
      <trkpt lat="44.84578" lon="-0.22448">
        <ele>10.3</ele>
        <time>2020-09-09T13:04:26Z</time>
      </trkpt>
      <trkpt lat="44.84579" lon="-0.22451">
        <ele>10.3</ele>
        <time>2020-09-09T13:04:27Z</time>
      </trkpt>
      <trkpt lat="44.84579" lon="-0.22453">
        <ele>10.3</ele>
        <time>2020-09-09T13:04:29Z</time>
      </trkpt>
      <trkpt lat="44.8458" lon="-0.22454">
        <ele>10.3</ele>
        <time>2020-09-09T13:04:30Z</time>
      </trkpt>
      <trkpt lat="44.84579" lon="-0.22456">
        <ele>10.3</ele>
        <time>2020-09-09T13:04:32Z</time>
      </trkpt>
      <trkpt lat="44.84579" lon="-0.22458">
        <ele>10.3</ele>
        <time>2020-09-09T13:04:33Z</time>
      </trkpt>
      <trkpt lat="44.84578" lon="-0.2246">
        <ele>10.3</ele>
        <time>2020-09-09T13:04:34Z</time>
      </trkpt>
      <trkpt lat="44.84577" lon="-0.22462">
        <ele>10.3</ele>
        <time>2020-09-09T13:04:35Z</time>
      </trkpt>
      <trkpt lat="44.84575" lon="-0.22464">
        <ele>10.3</ele>
        <time>2020-09-09T13:04:37Z</time>
      </trkpt>
      <trkpt lat="44.84575" lon="-0.22465">
        <ele>10.3</ele>
        <time>2020-09-09T13:04:38Z</time>
      </trkpt>
      <trkpt lat="44.84574" lon="-0.22465">
        <ele>10.3</ele>
        <time>2020-09-09T13:04:39Z</time>
      </trkpt>
      <trkpt lat="44.84573" lon="-0.22467">
        <ele>10.4</ele>
        <time>2020-09-09T13:04:40Z</time>
      </trkpt>
      <trkpt lat="44.84572" lon="-0.22468">
        <ele>10.4</ele>
        <time>2020-09-09T13:04:41Z</time>
      </trkpt>
      <trkpt lat="44.84572" lon="-0.2247">
        <ele>10.4</ele>
        <time>2020-09-09T13:04:43Z</time>
      </trkpt>
      <trkpt lat="44.84572" lon="-0.22471">
        <ele>10.4</ele>
        <time>2020-09-09T13:04:44Z</time>
      </trkpt>
      <trkpt lat="44.84572" lon="-0.22473">
        <ele>10.4</ele>
        <time>2020-09-09T13:04:45Z</time>
      </trkpt>
      <trkpt lat="44.84572" lon="-0.22475">
        <ele>10.4</ele>
        <time>2020-09-09T13:04:46Z</time>
      </trkpt>
      <trkpt lat="44.84572" lon="-0.22477">
        <ele>10.4</ele>
        <time>2020-09-09T13:04:48Z</time>
      </trkpt>
      <trkpt lat="44.84573" lon="-0.22479">
        <ele>10.5</ele>
        <time>2020-09-09T13:04:50Z</time>
      </trkpt>
      <trkpt lat="44.84574" lon="-0.22481">
        <ele>10.4</ele>
        <time>2020-09-09T13:04:51Z</time>
      </trkpt>
      <trkpt lat="44.84575" lon="-0.22481">
        <ele>10.4</ele>
        <time>2020-09-09T13:04:52Z</time>
      </trkpt>
      <trkpt lat="44.84576" lon="-0.22482">
        <ele>10.4</ele>
        <time>2020-09-09T13:04:53Z</time>
      </trkpt>
      <trkpt lat="44.84577" lon="-0.22483">
        <ele>10.4</ele>
        <time>2020-09-09T13:04:54Z</time>
      </trkpt>
      <trkpt lat="44.84578" lon="-0.22484">
        <ele>10.4</ele>
        <time>2020-09-09T13:04:55Z</time>
      </trkpt>
      <trkpt lat="44.84579" lon="-0.22485">
        <ele>10.4</ele>
        <time>2020-09-09T13:04:56Z</time>
      </trkpt>
      <trkpt lat="44.84582" lon="-0.22488">
        <ele>10.4</ele>
        <time>2020-09-09T13:04:58Z</time>
      </trkpt>
      <trkpt lat="44.84583" lon="-0.22489">
        <ele>10.4</ele>
        <time>2020-09-09T13:04:59Z</time>
      </trkpt>
      <trkpt lat="44.84585" lon="-0.22491">
        <ele>10.4</ele>
        <time>2020-09-09T13:05:01Z</time>
      </trkpt>
      <trkpt lat="44.84586" lon="-0.22491">
        <ele>10.4</ele>
        <time>2020-09-09T13:05:02Z</time>
      </trkpt>
      <trkpt lat="44.84587" lon="-0.22493">
        <ele>10.3</ele>
        <time>2020-09-09T13:05:03Z</time>
      </trkpt>
      <trkpt lat="44.84589" lon="-0.22495">
        <ele>10.3</ele>
        <time>2020-09-09T13:05:04Z</time>
      </trkpt>
      <trkpt lat="44.84591" lon="-0.22497">
        <ele>10.3</ele>
        <time>2020-09-09T13:05:06Z</time>
      </trkpt>
      <trkpt lat="44.84591" lon="-0.22498">
        <ele>10.3</ele>
        <time>2020-09-09T13:05:07Z</time>
      </trkpt>
      <trkpt lat="44.84593" lon="-0.225">
        <ele>10.3</ele>
        <time>2020-09-09T13:05:08Z</time>
      </trkpt>
      <trkpt lat="44.84594" lon="-0.22501">
        <ele>10.3</ele>
        <time>2020-09-09T13:05:10Z</time>
      </trkpt>
      <trkpt lat="44.84595" lon="-0.22502">
        <ele>10.2</ele>
        <time>2020-09-09T13:05:11Z</time>
      </trkpt>
      <trkpt lat="44.84596" lon="-0.22502">
        <ele>10.2</ele>
        <time>2020-09-09T13:05:12Z</time>
      </trkpt>
      <trkpt lat="44.84597" lon="-0.22503">
        <ele>10.2</ele>
        <time>2020-09-09T13:05:13Z</time>
      </trkpt>
      <trkpt lat="44.84598" lon="-0.22504">
        <ele>10.2</ele>
        <time>2020-09-09T13:05:14Z</time>
      </trkpt>
      <trkpt lat="44.84599" lon="-0.22506">
        <ele>10.2</ele>
        <time>2020-09-09T13:05:15Z</time>
      </trkpt>
      <trkpt lat="44.846" lon="-0.22507">
        <ele>10.2</ele>
        <time>2020-09-09T13:05:17Z</time>
      </trkpt>
      <trkpt lat="44.846" lon="-0.22507">
        <ele>10.2</ele>
        <time>2020-09-09T13:05:18Z</time>
      </trkpt>
      <trkpt lat="44.84601" lon="-0.22509">
        <ele>10.2</ele>
        <time>2020-09-09T13:05:19Z</time>
      </trkpt>
      <trkpt lat="44.84602" lon="-0.2251">
        <ele>10.2</ele>
        <time>2020-09-09T13:05:20Z</time>
      </trkpt>
      <trkpt lat="44.84603" lon="-0.22511">
        <ele>10.2</ele>
        <time>2020-09-09T13:05:21Z</time>
      </trkpt>
      <trkpt lat="44.84605" lon="-0.22514">
        <ele>10.2</ele>
        <time>2020-09-09T13:05:23Z</time>
      </trkpt>
      <trkpt lat="44.84606" lon="-0.22515">
        <ele>10.2</ele>
        <time>2020-09-09T13:05:25Z</time>
      </trkpt>
      <trkpt lat="44.84607" lon="-0.22516">
        <ele>10.2</ele>
        <time>2020-09-09T13:05:26Z</time>
      </trkpt>
      <trkpt lat="44.84608" lon="-0.22519">
        <ele>10.2</ele>
        <time>2020-09-09T13:05:28Z</time>
      </trkpt>
      <trkpt lat="44.8461" lon="-0.22522">
        <ele>10.2</ele>
        <time>2020-09-09T13:05:30Z</time>
      </trkpt>
      <trkpt lat="44.84611" lon="-0.22522">
        <ele>10.2</ele>
        <time>2020-09-09T13:05:31Z</time>
      </trkpt>
      <trkpt lat="44.84611" lon="-0.22523">
        <ele>10.2</ele>
        <time>2020-09-09T13:05:32Z</time>
      </trkpt>
      <trkpt lat="44.84613" lon="-0.22525">
        <ele>10.2</ele>
        <time>2020-09-09T13:05:33Z</time>
      </trkpt>
      <trkpt lat="44.84614" lon="-0.22526">
        <ele>10.2</ele>
        <time>2020-09-09T13:05:35Z</time>
      </trkpt>
      <trkpt lat="44.84615" lon="-0.22528">
        <ele>10.2</ele>
        <time>2020-09-09T13:05:36Z</time>
      </trkpt>
      <trkpt lat="44.84616" lon="-0.22529">
        <ele>10.2</ele>
        <time>2020-09-09T13:05:37Z</time>
      </trkpt>
      <trkpt lat="44.84617" lon="-0.22531">
        <ele>10.1</ele>
        <time>2020-09-09T13:05:38Z</time>
      </trkpt>
      <trkpt lat="44.84618" lon="-0.22532">
        <ele>10.1</ele>
        <time>2020-09-09T13:05:39Z</time>
      </trkpt>
      <trkpt lat="44.84619" lon="-0.22533">
        <ele>10.1</ele>
        <time>2020-09-09T13:05:40Z</time>
      </trkpt>
      <trkpt lat="44.84619" lon="-0.22534">
        <ele>10.1</ele>
        <time>2020-09-09T13:05:41Z</time>
      </trkpt>
      <trkpt lat="44.8462" lon="-0.22535">
        <ele>10.1</ele>
        <time>2020-09-09T13:05:42Z</time>
      </trkpt>
      <trkpt lat="44.8462" lon="-0.22537">
        <ele>10.1</ele>
        <time>2020-09-09T13:05:44Z</time>
      </trkpt>
      <trkpt lat="44.8462" lon="-0.22539">
        <ele>10.1</ele>
        <time>2020-09-09T13:05:45Z</time>
      </trkpt>
      <trkpt lat="44.8462" lon="-0.2254">
        <ele>10.2</ele>
        <time>2020-09-09T13:05:46Z</time>
      </trkpt>
      <trkpt lat="44.84619" lon="-0.22542">
        <ele>10.3</ele>
        <time>2020-09-09T13:05:47Z</time>
      </trkpt>
      <trkpt lat="44.84619" lon="-0.22543">
        <ele>10.3</ele>
        <time>2020-09-09T13:05:48Z</time>
      </trkpt>
      <trkpt lat="44.84618" lon="-0.22544">
        <ele>10.3</ele>
        <time>2020-09-09T13:05:49Z</time>
      </trkpt>
      <trkpt lat="44.84617" lon="-0.22546">
        <ele>10.3</ele>
        <time>2020-09-09T13:05:51Z</time>
      </trkpt>
      <trkpt lat="44.84615" lon="-0.22548">
        <ele>10.4</ele>
        <time>2020-09-09T13:05:52Z</time>
      </trkpt>
      <trkpt lat="44.84614" lon="-0.22548">
        <ele>10.5</ele>
        <time>2020-09-09T13:05:53Z</time>
      </trkpt>
      <trkpt lat="44.84612" lon="-0.22549">
        <ele>10.6</ele>
        <time>2020-09-09T13:05:54Z</time>
      </trkpt>
      <trkpt lat="44.84611" lon="-0.2255">
        <ele>10.6</ele>
        <time>2020-09-09T13:05:56Z</time>
      </trkpt>
      <trkpt lat="44.8461" lon="-0.22551">
        <ele>10.6</ele>
        <time>2020-09-09T13:05:57Z</time>
      </trkpt>
      <trkpt lat="44.84608" lon="-0.22553">
        <ele>10.7</ele>
        <time>2020-09-09T13:05:59Z</time>
      </trkpt>
      <trkpt lat="44.84606" lon="-0.22554">
        <ele>10.8</ele>
        <time>2020-09-09T13:06:00Z</time>
      </trkpt>
      <trkpt lat="44.84605" lon="-0.22555">
        <ele>10.8</ele>
        <time>2020-09-09T13:06:02Z</time>
      </trkpt>
      <trkpt lat="44.84603" lon="-0.22556">
        <ele>10.9</ele>
        <time>2020-09-09T13:06:03Z</time>
      </trkpt>
      <trkpt lat="44.84602" lon="-0.22557">
        <ele>10.9</ele>
        <time>2020-09-09T13:06:05Z</time>
      </trkpt>
      <trkpt lat="44.84601" lon="-0.22558">
        <ele>11</ele>
        <time>2020-09-09T13:06:06Z</time>
      </trkpt>
      <trkpt lat="44.846" lon="-0.22559">
        <ele>11</ele>
        <time>2020-09-09T13:06:08Z</time>
      </trkpt>
      <trkpt lat="44.84598" lon="-0.2256">
        <ele>11</ele>
        <time>2020-09-09T13:06:09Z</time>
      </trkpt>
      <trkpt lat="44.84598" lon="-0.2256">
        <ele>11.1</ele>
        <time>2020-09-09T13:06:10Z</time>
      </trkpt>
      <trkpt lat="44.84597" lon="-0.22561">
        <ele>11.2</ele>
        <time>2020-09-09T13:06:11Z</time>
      </trkpt>
      <trkpt lat="44.84596" lon="-0.22562">
        <ele>11.2</ele>
        <time>2020-09-09T13:06:12Z</time>
      </trkpt>
      <trkpt lat="44.84595" lon="-0.22563">
        <ele>11.2</ele>
        <time>2020-09-09T13:06:13Z</time>
      </trkpt>
      <trkpt lat="44.84595" lon="-0.22564">
        <ele>11.2</ele>
        <time>2020-09-09T13:06:14Z</time>
      </trkpt>
      <trkpt lat="44.84594" lon="-0.22565">
        <ele>11.3</ele>
        <time>2020-09-09T13:06:16Z</time>
      </trkpt>
      <trkpt lat="44.84593" lon="-0.22566">
        <ele>11.3</ele>
        <time>2020-09-09T13:06:17Z</time>
      </trkpt>
      <trkpt lat="44.84592" lon="-0.22568">
        <ele>11.4</ele>
        <time>2020-09-09T13:06:18Z</time>
      </trkpt>
      <trkpt lat="44.8459" lon="-0.22569">
        <ele>11.4</ele>
        <time>2020-09-09T13:06:19Z</time>
      </trkpt>
      <trkpt lat="44.84589" lon="-0.22571">
        <ele>11.5</ele>
        <time>2020-09-09T13:06:20Z</time>
      </trkpt>
      <trkpt lat="44.84588" lon="-0.22572">
        <ele>11.5</ele>
        <time>2020-09-09T13:06:21Z</time>
      </trkpt>
      <trkpt lat="44.84587" lon="-0.22573">
        <ele>11.6</ele>
        <time>2020-09-09T13:06:22Z</time>
      </trkpt>
      <trkpt lat="44.84586" lon="-0.22575">
        <ele>11.7</ele>
        <time>2020-09-09T13:06:24Z</time>
      </trkpt>
      <trkpt lat="44.84585" lon="-0.22576">
        <ele>11.7</ele>
        <time>2020-09-09T13:06:25Z</time>
      </trkpt>
      <trkpt lat="44.84585" lon="-0.22577">
        <ele>11.7</ele>
        <time>2020-09-09T13:06:26Z</time>
      </trkpt>
      <trkpt lat="44.84584" lon="-0.22579">
        <ele>11.8</ele>
        <time>2020-09-09T13:06:27Z</time>
      </trkpt>
      <trkpt lat="44.84584" lon="-0.22581">
        <ele>11.8</ele>
        <time>2020-09-09T13:06:28Z</time>
      </trkpt>
      <trkpt lat="44.84582" lon="-0.22583">
        <ele>11.9</ele>
        <time>2020-09-09T13:06:29Z</time>
      </trkpt>
      <trkpt lat="44.84582" lon="-0.22584">
        <ele>11.9</ele>
        <time>2020-09-09T13:06:31Z</time>
      </trkpt>
      <trkpt lat="44.84581" lon="-0.22585">
        <ele>11.9</ele>
        <time>2020-09-09T13:06:32Z</time>
      </trkpt>
      <trkpt lat="44.8458" lon="-0.22586">
        <ele>12</ele>
        <time>2020-09-09T13:06:33Z</time>
      </trkpt>
      <trkpt lat="44.84579" lon="-0.22588">
        <ele>12.1</ele>
        <time>2020-09-09T13:06:34Z</time>
      </trkpt>
      <trkpt lat="44.84578" lon="-0.22589">
        <ele>12.1</ele>
        <time>2020-09-09T13:06:35Z</time>
      </trkpt>
      <trkpt lat="44.84578" lon="-0.2259">
        <ele>12.1</ele>
        <time>2020-09-09T13:06:36Z</time>
      </trkpt>
      <trkpt lat="44.84577" lon="-0.22591">
        <ele>12.2</ele>
        <time>2020-09-09T13:06:38Z</time>
      </trkpt>
      <trkpt lat="44.84576" lon="-0.22592">
        <ele>12.3</ele>
        <time>2020-09-09T13:06:39Z</time>
      </trkpt>
      <trkpt lat="44.84576" lon="-0.22593">
        <ele>12.3</ele>
        <time>2020-09-09T13:06:40Z</time>
      </trkpt>
      <trkpt lat="44.84575" lon="-0.22595">
        <ele>12.3</ele>
        <time>2020-09-09T13:06:41Z</time>
      </trkpt>
      <trkpt lat="44.84574" lon="-0.22597">
        <ele>12.4</ele>
        <time>2020-09-09T13:06:43Z</time>
      </trkpt>
      <trkpt lat="44.84573" lon="-0.22598">
        <ele>12.5</ele>
        <time>2020-09-09T13:06:44Z</time>
      </trkpt>
      <trkpt lat="44.84572" lon="-0.226">
        <ele>12.6</ele>
        <time>2020-09-09T13:06:46Z</time>
      </trkpt>
      <trkpt lat="44.84571" lon="-0.22601">
        <ele>12.6</ele>
        <time>2020-09-09T13:06:47Z</time>
      </trkpt>
      <trkpt lat="44.84571" lon="-0.22602">
        <ele>12.6</ele>
        <time>2020-09-09T13:06:48Z</time>
      </trkpt>
      <trkpt lat="44.8457" lon="-0.22603">
        <ele>12.7</ele>
        <time>2020-09-09T13:06:49Z</time>
      </trkpt>
      <trkpt lat="44.8457" lon="-0.22604">
        <ele>12.7</ele>
        <time>2020-09-09T13:06:50Z</time>
      </trkpt>
      <trkpt lat="44.84569" lon="-0.22605">
        <ele>12.7</ele>
        <time>2020-09-09T13:06:51Z</time>
      </trkpt>
      <trkpt lat="44.84569" lon="-0.22605">
        <ele>12.7</ele>
        <time>2020-09-09T13:06:53Z</time>
      </trkpt>
      <trkpt lat="44.84569" lon="-0.22605">
        <ele>12.7</ele>
        <time>2020-09-09T13:06:54Z</time>
      </trkpt>
      <trkpt lat="44.84568" lon="-0.22606">
        <ele>12.8</ele>
        <time>2020-09-09T13:06:55Z</time>
      </trkpt>
      <trkpt lat="44.84568" lon="-0.22607">
        <ele>12.8</ele>
        <time>2020-09-09T13:06:56Z</time>
      </trkpt>
      <trkpt lat="44.84568" lon="-0.22609">
        <ele>12.9</ele>
        <time>2020-09-09T13:06:57Z</time>
      </trkpt>
      <trkpt lat="44.84567" lon="-0.22611">
        <ele>13</ele>
        <time>2020-09-09T13:06:58Z</time>
      </trkpt>
      <trkpt lat="44.84567" lon="-0.22613">
        <ele>13</ele>
        <time>2020-09-09T13:06:59Z</time>
      </trkpt>
      <trkpt lat="44.84566" lon="-0.22615">
        <ele>13.1</ele>
        <time>2020-09-09T13:07:01Z</time>
      </trkpt>
      <trkpt lat="44.84566" lon="-0.22615">
        <ele>13.1</ele>
        <time>2020-09-09T13:07:02Z</time>
      </trkpt>
      <trkpt lat="44.84565" lon="-0.22617">
        <ele>13.2</ele>
        <time>2020-09-09T13:07:04Z</time>
      </trkpt>
      <trkpt lat="44.84564" lon="-0.22618">
        <ele>13.2</ele>
        <time>2020-09-09T13:07:05Z</time>
      </trkpt>
      <trkpt lat="44.84563" lon="-0.22618">
        <ele>13.3</ele>
        <time>2020-09-09T13:07:06Z</time>
      </trkpt>
      <trkpt lat="44.84561" lon="-0.22619">
        <ele>13.4</ele>
        <time>2020-09-09T13:07:08Z</time>
      </trkpt>
      <trkpt lat="44.8456" lon="-0.2262">
        <ele>13.4</ele>
        <time>2020-09-09T13:07:10Z</time>
      </trkpt>
      <trkpt lat="44.84559" lon="-0.22621">
        <ele>13.5</ele>
        <time>2020-09-09T13:07:11Z</time>
      </trkpt>
      <trkpt lat="44.84559" lon="-0.22622">
        <ele>13.5</ele>
        <time>2020-09-09T13:07:13Z</time>
      </trkpt>
      <trkpt lat="44.84557" lon="-0.22624">
        <ele>13.5</ele>
        <time>2020-09-09T13:07:14Z</time>
      </trkpt>
      <trkpt lat="44.84557" lon="-0.22625">
        <ele>13.6</ele>
        <time>2020-09-09T13:07:15Z</time>
      </trkpt>
      <trkpt lat="44.84556" lon="-0.22627">
        <ele>13.6</ele>
        <time>2020-09-09T13:07:17Z</time>
      </trkpt>
      <trkpt lat="44.84555" lon="-0.22629">
        <ele>13.7</ele>
        <time>2020-09-09T13:07:19Z</time>
      </trkpt>
      <trkpt lat="44.84554" lon="-0.2263">
        <ele>13.7</ele>
        <time>2020-09-09T13:07:20Z</time>
      </trkpt>
      <trkpt lat="44.84553" lon="-0.22632">
        <ele>13.7</ele>
        <time>2020-09-09T13:07:22Z</time>
      </trkpt>
      <trkpt lat="44.84552" lon="-0.22633">
        <ele>13.8</ele>
        <time>2020-09-09T13:07:23Z</time>
      </trkpt>
      <trkpt lat="44.84552" lon="-0.22636">
        <ele>13.8</ele>
        <time>2020-09-09T13:07:24Z</time>
      </trkpt>
      <trkpt lat="44.84551" lon="-0.22637">
        <ele>13.9</ele>
        <time>2020-09-09T13:07:25Z</time>
      </trkpt>
      <trkpt lat="44.8455" lon="-0.22639">
        <ele>13.9</ele>
        <time>2020-09-09T13:07:27Z</time>
      </trkpt>
      <trkpt lat="44.84548" lon="-0.22644">
        <ele>14</ele>
        <time>2020-09-09T13:07:29Z</time>
      </trkpt>
      <trkpt lat="44.84547" lon="-0.22646">
        <ele>14.1</ele>
        <time>2020-09-09T13:07:30Z</time>
      </trkpt>
      <trkpt lat="44.84546" lon="-0.22647">
        <ele>14.1</ele>
        <time>2020-09-09T13:07:31Z</time>
      </trkpt>
      <trkpt lat="44.84546" lon="-0.22648">
        <ele>14.1</ele>
        <time>2020-09-09T13:07:32Z</time>
      </trkpt>
      <trkpt lat="44.84544" lon="-0.22652">
        <ele>14.3</ele>
        <time>2020-09-09T13:07:34Z</time>
      </trkpt>
      <trkpt lat="44.84544" lon="-0.22653">
        <ele>14.3</ele>
        <time>2020-09-09T13:07:36Z</time>
      </trkpt>
      <trkpt lat="44.84543" lon="-0.22654">
        <ele>14.4</ele>
        <time>2020-09-09T13:07:37Z</time>
      </trkpt>
      <trkpt lat="44.84542" lon="-0.22655">
        <ele>14.4</ele>
        <time>2020-09-09T13:07:38Z</time>
      </trkpt>
      <trkpt lat="44.84541" lon="-0.22657">
        <ele>14.5</ele>
        <time>2020-09-09T13:07:39Z</time>
      </trkpt>
      <trkpt lat="44.8454" lon="-0.22659">
        <ele>14.5</ele>
        <time>2020-09-09T13:07:40Z</time>
      </trkpt>
      <trkpt lat="44.8454" lon="-0.2266">
        <ele>14.6</ele>
        <time>2020-09-09T13:07:41Z</time>
      </trkpt>
      <trkpt lat="44.84539" lon="-0.22661">
        <ele>14.6</ele>
        <time>2020-09-09T13:07:42Z</time>
      </trkpt>
      <trkpt lat="44.84538" lon="-0.22663">
        <ele>14.6</ele>
        <time>2020-09-09T13:07:43Z</time>
      </trkpt>
      <trkpt lat="44.84538" lon="-0.22665">
        <ele>14.7</ele>
        <time>2020-09-09T13:07:44Z</time>
      </trkpt>
      <trkpt lat="44.84537" lon="-0.22667">
        <ele>14.8</ele>
        <time>2020-09-09T13:07:46Z</time>
      </trkpt>
      <trkpt lat="44.84536" lon="-0.22668">
        <ele>14.8</ele>
        <time>2020-09-09T13:07:47Z</time>
      </trkpt>
      <trkpt lat="44.84536" lon="-0.2267">
        <ele>14.9</ele>
        <time>2020-09-09T13:07:48Z</time>
      </trkpt>
      <trkpt lat="44.84534" lon="-0.22672">
        <ele>14.9</ele>
        <time>2020-09-09T13:07:49Z</time>
      </trkpt>
      <trkpt lat="44.84534" lon="-0.22673">
        <ele>15</ele>
        <time>2020-09-09T13:07:50Z</time>
      </trkpt>
      <trkpt lat="44.84533" lon="-0.22675">
        <ele>15</ele>
        <time>2020-09-09T13:07:51Z</time>
      </trkpt>
      <trkpt lat="44.84532" lon="-0.22678">
        <ele>15</ele>
        <time>2020-09-09T13:07:52Z</time>
      </trkpt>
      <trkpt lat="44.84531" lon="-0.22679">
        <ele>15.1</ele>
        <time>2020-09-09T13:07:53Z</time>
      </trkpt>
      <trkpt lat="44.8453" lon="-0.22681">
        <ele>15.1</ele>
        <time>2020-09-09T13:07:54Z</time>
      </trkpt>
      <trkpt lat="44.84527" lon="-0.22686">
        <ele>15.2</ele>
        <time>2020-09-09T13:07:56Z</time>
      </trkpt>
      <trkpt lat="44.84526" lon="-0.22687">
        <ele>15.2</ele>
        <time>2020-09-09T13:07:57Z</time>
      </trkpt>
      <trkpt lat="44.84524" lon="-0.22691">
        <ele>15.3</ele>
        <time>2020-09-09T13:07:58Z</time>
      </trkpt>
      <trkpt lat="44.84523" lon="-0.22692">
        <ele>15.3</ele>
        <time>2020-09-09T13:07:59Z</time>
      </trkpt>
      <trkpt lat="44.84522" lon="-0.22695">
        <ele>15.4</ele>
        <time>2020-09-09T13:08:00Z</time>
      </trkpt>
      <trkpt lat="44.84521" lon="-0.22697">
        <ele>15.4</ele>
        <time>2020-09-09T13:08:02Z</time>
      </trkpt>
      <trkpt lat="44.8452" lon="-0.22698">
        <ele>15.5</ele>
        <time>2020-09-09T13:08:03Z</time>
      </trkpt>
      <trkpt lat="44.84519" lon="-0.227">
        <ele>15.5</ele>
        <time>2020-09-09T13:08:04Z</time>
      </trkpt>
      <trkpt lat="44.84517" lon="-0.22703">
        <ele>15.6</ele>
        <time>2020-09-09T13:08:06Z</time>
      </trkpt>
      <trkpt lat="44.84516" lon="-0.22704">
        <ele>15.6</ele>
        <time>2020-09-09T13:08:07Z</time>
      </trkpt>
      <trkpt lat="44.84515" lon="-0.22707">
        <ele>15.7</ele>
        <time>2020-09-09T13:08:09Z</time>
      </trkpt>
      <trkpt lat="44.84515" lon="-0.22708">
        <ele>15.7</ele>
        <time>2020-09-09T13:08:10Z</time>
      </trkpt>
      <trkpt lat="44.84514" lon="-0.22709">
        <ele>15.7</ele>
        <time>2020-09-09T13:08:11Z</time>
      </trkpt>
      <trkpt lat="44.84514" lon="-0.2271">
        <ele>15.7</ele>
        <time>2020-09-09T13:08:12Z</time>
      </trkpt>
      <trkpt lat="44.84513" lon="-0.22712">
        <ele>15.8</ele>
        <time>2020-09-09T13:08:13Z</time>
      </trkpt>
      <trkpt lat="44.84512" lon="-0.22714">
        <ele>15.8</ele>
        <time>2020-09-09T13:08:15Z</time>
      </trkpt>
      <trkpt lat="44.84512" lon="-0.22715">
        <ele>15.8</ele>
        <time>2020-09-09T13:08:16Z</time>
      </trkpt>
      <trkpt lat="44.84511" lon="-0.22716">
        <ele>15.8</ele>
        <time>2020-09-09T13:08:17Z</time>
      </trkpt>
      <trkpt lat="44.84511" lon="-0.22717">
        <ele>15.9</ele>
        <time>2020-09-09T13:08:18Z</time>
      </trkpt>
      <trkpt lat="44.8451" lon="-0.22719">
        <ele>15.9</ele>
        <time>2020-09-09T13:08:20Z</time>
      </trkpt>
      <trkpt lat="44.84509" lon="-0.2272">
        <ele>15.9</ele>
        <time>2020-09-09T13:08:21Z</time>
      </trkpt>
      <trkpt lat="44.84509" lon="-0.22721">
        <ele>15.9</ele>
        <time>2020-09-09T13:08:22Z</time>
      </trkpt>
      <trkpt lat="44.84507" lon="-0.22724">
        <ele>16</ele>
        <time>2020-09-09T13:08:24Z</time>
      </trkpt>
      <trkpt lat="44.84507" lon="-0.22725">
        <ele>16</ele>
        <time>2020-09-09T13:08:25Z</time>
      </trkpt>
      <trkpt lat="44.84506" lon="-0.22726">
        <ele>16</ele>
        <time>2020-09-09T13:08:26Z</time>
      </trkpt>
      <trkpt lat="44.84506" lon="-0.22728">
        <ele>16.1</ele>
        <time>2020-09-09T13:08:27Z</time>
      </trkpt>
      <trkpt lat="44.84505" lon="-0.22729">
        <ele>16.1</ele>
        <time>2020-09-09T13:08:28Z</time>
      </trkpt>
      <trkpt lat="44.84503" lon="-0.22732">
        <ele>16.2</ele>
        <time>2020-09-09T13:08:30Z</time>
      </trkpt>
      <trkpt lat="44.84501" lon="-0.22733">
        <ele>16.2</ele>
        <time>2020-09-09T13:08:32Z</time>
      </trkpt>
      <trkpt lat="44.845" lon="-0.22734">
        <ele>16.2</ele>
        <time>2020-09-09T13:08:33Z</time>
      </trkpt>
      <trkpt lat="44.84499" lon="-0.22736">
        <ele>16.3</ele>
        <time>2020-09-09T13:08:34Z</time>
      </trkpt>
      <trkpt lat="44.84498" lon="-0.22737">
        <ele>16.3</ele>
        <time>2020-09-09T13:08:35Z</time>
      </trkpt>
      <trkpt lat="44.84497" lon="-0.22738">
        <ele>16.4</ele>
        <time>2020-09-09T13:08:36Z</time>
      </trkpt>
      <trkpt lat="44.84496" lon="-0.2274">
        <ele>16.4</ele>
        <time>2020-09-09T13:08:37Z</time>
      </trkpt>
      <trkpt lat="44.84494" lon="-0.22741">
        <ele>16.5</ele>
        <time>2020-09-09T13:08:38Z</time>
      </trkpt>
      <trkpt lat="44.84493" lon="-0.22742">
        <ele>16.5</ele>
        <time>2020-09-09T13:08:39Z</time>
      </trkpt>
      <trkpt lat="44.84493" lon="-0.22743">
        <ele>16.6</ele>
        <time>2020-09-09T13:08:40Z</time>
      </trkpt>
      <trkpt lat="44.8449" lon="-0.22745">
        <ele>16.7</ele>
        <time>2020-09-09T13:08:42Z</time>
      </trkpt>
      <trkpt lat="44.84489" lon="-0.22745">
        <ele>16.7</ele>
        <time>2020-09-09T13:08:43Z</time>
      </trkpt>
      <trkpt lat="44.84487" lon="-0.22746">
        <ele>16.8</ele>
        <time>2020-09-09T13:08:45Z</time>
      </trkpt>
      <trkpt lat="44.84485" lon="-0.22747">
        <ele>16.8</ele>
        <time>2020-09-09T13:08:46Z</time>
      </trkpt>
      <trkpt lat="44.84484" lon="-0.22747">
        <ele>16.9</ele>
        <time>2020-09-09T13:08:47Z</time>
      </trkpt>
      <trkpt lat="44.84483" lon="-0.22747">
        <ele>16.9</ele>
        <time>2020-09-09T13:08:48Z</time>
      </trkpt>
      <trkpt lat="44.84481" lon="-0.22747">
        <ele>16.9</ele>
        <time>2020-09-09T13:08:49Z</time>
      </trkpt>
      <trkpt lat="44.8448" lon="-0.22747">
        <ele>16.9</ele>
        <time>2020-09-09T13:08:50Z</time>
      </trkpt>
      <trkpt lat="44.84479" lon="-0.22747">
        <ele>17</ele>
        <time>2020-09-09T13:08:52Z</time>
      </trkpt>
      <trkpt lat="44.84477" lon="-0.22748">
        <ele>17</ele>
        <time>2020-09-09T13:08:53Z</time>
      </trkpt>
      <trkpt lat="44.84476" lon="-0.22748">
        <ele>17</ele>
        <time>2020-09-09T13:08:54Z</time>
      </trkpt>
      <trkpt lat="44.84473" lon="-0.22749">
        <ele>17</ele>
        <time>2020-09-09T13:08:56Z</time>
      </trkpt>
      <trkpt lat="44.84473" lon="-0.22749">
        <ele>17.2</ele>
        <time>2020-09-09T13:08:57Z</time>
      </trkpt>
      <trkpt lat="44.84473" lon="-0.22749">
        <ele>17.2</ele>
        <time>2020-09-09T13:08:59Z</time>
      </trkpt>
      <trkpt lat="44.84473" lon="-0.22749">
        <ele>17.2</ele>
        <time>2020-09-09T13:09:01Z</time>
      </trkpt>
      <trkpt lat="44.84472" lon="-0.22748">
        <ele>17.2</ele>
        <time>2020-09-09T13:09:02Z</time>
      </trkpt>
      <trkpt lat="44.84472" lon="-0.22748">
        <ele>17.2</ele>
        <time>2020-09-09T13:09:03Z</time>
      </trkpt>
      <trkpt lat="44.84471" lon="-0.22748">
        <ele>17.3</ele>
        <time>2020-09-09T13:09:05Z</time>
      </trkpt>
      <trkpt lat="44.84471" lon="-0.22748">
        <ele>17.3</ele>
        <time>2020-09-09T13:09:06Z</time>
      </trkpt>
      <trkpt lat="44.84471" lon="-0.22748">
        <ele>17.3</ele>
        <time>2020-09-09T13:09:08Z</time>
      </trkpt>
      <trkpt lat="44.84471" lon="-0.22749">
        <ele>17.3</ele>
        <time>2020-09-09T13:09:09Z</time>
      </trkpt>
      <trkpt lat="44.84471" lon="-0.22749">
        <ele>17.3</ele>
        <time>2020-09-09T13:09:11Z</time>
      </trkpt>
      <trkpt lat="44.84471" lon="-0.22749">
        <ele>17.3</ele>
        <time>2020-09-09T13:09:12Z</time>
      </trkpt>
      <trkpt lat="44.84469" lon="-0.22749">
        <ele>17.5</ele>
        <time>2020-09-09T13:09:14Z</time>
      </trkpt>
      <trkpt lat="44.84468" lon="-0.22749">
        <ele>17.5</ele>
        <time>2020-09-09T13:09:15Z</time>
      </trkpt>
      <trkpt lat="44.84467" lon="-0.22749">
        <ele>17.5</ele>
        <time>2020-09-09T13:09:16Z</time>
      </trkpt>
      <trkpt lat="44.84467" lon="-0.22749">
        <ele>17.6</ele>
        <time>2020-09-09T13:09:17Z</time>
      </trkpt>
      <trkpt lat="44.84466" lon="-0.2275">
        <ele>18</ele>
        <time>2020-09-09T13:09:18Z</time>
      </trkpt>
      <trkpt lat="44.84467" lon="-0.22752">
        <ele>18</ele>
        <time>2020-09-09T13:09:20Z</time>
      </trkpt>
      <trkpt lat="44.84468" lon="-0.22752">
        <ele>17.9</ele>
        <time>2020-09-09T13:09:22Z</time>
      </trkpt>
      <trkpt lat="44.84469" lon="-0.22753">
        <ele>17.9</ele>
        <time>2020-09-09T13:09:23Z</time>
      </trkpt>
      <trkpt lat="44.8447" lon="-0.22753">
        <ele>17.8</ele>
        <time>2020-09-09T13:09:25Z</time>
      </trkpt>
      <trkpt lat="44.84471" lon="-0.22753">
        <ele>17.8</ele>
        <time>2020-09-09T13:09:26Z</time>
      </trkpt>
      <trkpt lat="44.84472" lon="-0.22754">
        <ele>18.2</ele>
        <time>2020-09-09T13:09:27Z</time>
      </trkpt>
      <trkpt lat="44.84474" lon="-0.22754">
        <ele>18.1</ele>
        <time>2020-09-09T13:09:28Z</time>
      </trkpt>
      <trkpt lat="44.84474" lon="-0.22755">
        <ele>18.1</ele>
        <time>2020-09-09T13:09:29Z</time>
      </trkpt>
      <trkpt lat="44.84475" lon="-0.22755">
        <ele>18.1</ele>
        <time>2020-09-09T13:09:31Z</time>
      </trkpt>
      <trkpt lat="44.84476" lon="-0.22755">
        <ele>18.1</ele>
        <time>2020-09-09T13:09:32Z</time>
      </trkpt>
      <trkpt lat="44.84476" lon="-0.22755">
        <ele>18.1</ele>
        <time>2020-09-09T13:09:33Z</time>
      </trkpt>
      <trkpt lat="44.84476" lon="-0.22754">
        <ele>18.1</ele>
        <time>2020-09-09T13:09:34Z</time>
      </trkpt>
      <trkpt lat="44.84476" lon="-0.22754">
        <ele>17.7</ele>
        <time>2020-09-09T13:09:36Z</time>
      </trkpt>
      <trkpt lat="44.84476" lon="-0.22753">
        <ele>17.8</ele>
        <time>2020-09-09T13:09:38Z</time>
      </trkpt>
      <trkpt lat="44.84476" lon="-0.22753">
        <ele>17.8</ele>
        <time>2020-09-09T13:09:39Z</time>
      </trkpt>
      <trkpt lat="44.84476" lon="-0.22753">
        <ele>17.8</ele>
        <time>2020-09-09T13:09:41Z</time>
      </trkpt>
      <trkpt lat="44.84476" lon="-0.22753">
        <ele>17.8</ele>
        <time>2020-09-09T13:09:42Z</time>
      </trkpt>
      <trkpt lat="44.84476" lon="-0.22753">
        <ele>17.7</ele>
        <time>2020-09-09T13:09:44Z</time>
      </trkpt>
      <trkpt lat="44.84477" lon="-0.22753">
        <ele>17.7</ele>
        <time>2020-09-09T13:09:46Z</time>
      </trkpt>
      <trkpt lat="44.84477" lon="-0.22753">
        <ele>17.7</ele>
        <time>2020-09-09T13:09:47Z</time>
      </trkpt>
      <trkpt lat="44.84477" lon="-0.22753">
        <ele>17.7</ele>
        <time>2020-09-09T13:09:49Z</time>
      </trkpt>
      <trkpt lat="44.84477" lon="-0.22753">
        <ele>17.7</ele>
        <time>2020-09-09T13:09:50Z</time>
      </trkpt>
      <trkpt lat="44.84477" lon="-0.22755">
        <ele>18.1</ele>
        <time>2020-09-09T13:09:51Z</time>
      </trkpt>
      <trkpt lat="44.84478" lon="-0.22757">
        <ele>18.1</ele>
        <time>2020-09-09T13:09:53Z</time>
      </trkpt>
      <trkpt lat="44.84478" lon="-0.22759">
        <ele>18.6</ele>
        <time>2020-09-09T13:09:55Z</time>
      </trkpt>
      <trkpt lat="44.84479" lon="-0.22761">
        <ele>18.6</ele>
        <time>2020-09-09T13:09:57Z</time>
      </trkpt>
      <trkpt lat="44.84479" lon="-0.2276">
        <ele>18.6</ele>
        <time>2020-09-09T13:09:59Z</time>
      </trkpt>
      <trkpt lat="44.84479" lon="-0.2276">
        <ele>18.6</ele>
        <time>2020-09-09T13:10:00Z</time>
      </trkpt>
      <trkpt lat="44.84479" lon="-0.22759">
        <ele>18.6</ele>
        <time>2020-09-09T13:10:02Z</time>
      </trkpt>
      <trkpt lat="44.84478" lon="-0.22759">
        <ele>18.6</ele>
        <time>2020-09-09T13:10:04Z</time>
      </trkpt>
      <trkpt lat="44.84478" lon="-0.22759">
        <ele>18.6</ele>
        <time>2020-09-09T13:10:06Z</time>
      </trkpt>
      <trkpt lat="44.84478" lon="-0.22759">
        <ele>18.6</ele>
        <time>2020-09-09T13:10:08Z</time>
      </trkpt>
      <trkpt lat="44.84479" lon="-0.22759">
        <ele>18.7</ele>
        <time>2020-09-09T13:10:09Z</time>
      </trkpt>
      <trkpt lat="44.84479" lon="-0.22759">
        <ele>18.7</ele>
        <time>2020-09-09T13:10:10Z</time>
      </trkpt>
      <trkpt lat="44.84479" lon="-0.22759">
        <ele>18.7</ele>
        <time>2020-09-09T13:10:11Z</time>
      </trkpt>
      <trkpt lat="44.84479" lon="-0.22759">
        <ele>18.7</ele>
        <time>2020-09-09T13:10:14Z</time>
      </trkpt>
      <trkpt lat="44.84479" lon="-0.22759">
        <ele>18.7</ele>
        <time>2020-09-09T13:10:15Z</time>
      </trkpt>
      <trkpt lat="44.84478" lon="-0.22759">
        <ele>18.7</ele>
        <time>2020-09-09T13:10:17Z</time>
      </trkpt>
      <trkpt lat="44.84478" lon="-0.22759">
        <ele>18.7</ele>
        <time>2020-09-09T13:10:18Z</time>
      </trkpt>
      <trkpt lat="44.84479" lon="-0.22761">
        <ele>18.7</ele>
        <time>2020-09-09T13:10:19Z</time>
      </trkpt>
      <trkpt lat="44.8448" lon="-0.22762">
        <ele>18.6</ele>
        <time>2020-09-09T13:10:21Z</time>
      </trkpt>
      <trkpt lat="44.84481" lon="-0.22763">
        <ele>19.1</ele>
        <time>2020-09-09T13:10:22Z</time>
      </trkpt>
      <trkpt lat="44.84481" lon="-0.22764">
        <ele>19.1</ele>
        <time>2020-09-09T13:10:24Z</time>
      </trkpt>
      <trkpt lat="44.84482" lon="-0.22765">
        <ele>19.1</ele>
        <time>2020-09-09T13:10:25Z</time>
      </trkpt>
      <trkpt lat="44.84482" lon="-0.22765">
        <ele>19.1</ele>
        <time>2020-09-09T13:10:26Z</time>
      </trkpt>
      <trkpt lat="44.84482" lon="-0.22765">
        <ele>19.1</ele>
        <time>2020-09-09T13:10:27Z</time>
      </trkpt>
      <trkpt lat="44.84483" lon="-0.22764">
        <ele>19</ele>
        <time>2020-09-09T13:10:29Z</time>
      </trkpt>
      <trkpt lat="44.84483" lon="-0.22764">
        <ele>19</ele>
        <time>2020-09-09T13:10:30Z</time>
      </trkpt>
      <trkpt lat="44.84483" lon="-0.22763">
        <ele>19</ele>
        <time>2020-09-09T13:10:32Z</time>
      </trkpt>
      <trkpt lat="44.84484" lon="-0.22762">
        <ele>19</ele>
        <time>2020-09-09T13:10:33Z</time>
      </trkpt>
      <trkpt lat="44.84484" lon="-0.22763">
        <ele>19</ele>
        <time>2020-09-09T13:10:35Z</time>
      </trkpt>
      <trkpt lat="44.84485" lon="-0.22765">
        <ele>19</ele>
        <time>2020-09-09T13:10:37Z</time>
      </trkpt>
      <trkpt lat="44.84485" lon="-0.22766">
        <ele>19</ele>
        <time>2020-09-09T13:10:38Z</time>
      </trkpt>
      <trkpt lat="44.84485" lon="-0.22767">
        <ele>19.5</ele>
        <time>2020-09-09T13:10:39Z</time>
      </trkpt>
      <trkpt lat="44.84485" lon="-0.22768">
        <ele>19.5</ele>
        <time>2020-09-09T13:10:40Z</time>
      </trkpt>
      <trkpt lat="44.84485" lon="-0.22768">
        <ele>19.5</ele>
        <time>2020-09-09T13:10:41Z</time>
      </trkpt>
      <trkpt lat="44.84485" lon="-0.22768">
        <ele>19.5</ele>
        <time>2020-09-09T13:10:42Z</time>
      </trkpt>
      <trkpt lat="44.84486" lon="-0.22768">
        <ele>19.4</ele>
        <time>2020-09-09T13:10:44Z</time>
      </trkpt>
      <trkpt lat="44.84487" lon="-0.22768">
        <ele>19.4</ele>
        <time>2020-09-09T13:10:46Z</time>
      </trkpt>
      <trkpt lat="44.84487" lon="-0.22768">
        <ele>19.4</ele>
        <time>2020-09-09T13:10:47Z</time>
      </trkpt>
      <trkpt lat="44.84487" lon="-0.22769">
        <ele>19.5</ele>
        <time>2020-09-09T13:10:49Z</time>
      </trkpt>
      <trkpt lat="44.84488" lon="-0.2277">
        <ele>19.5</ele>
        <time>2020-09-09T13:10:51Z</time>
      </trkpt>
      <trkpt lat="44.84488" lon="-0.2277">
        <ele>19.5</ele>
        <time>2020-09-09T13:10:52Z</time>
      </trkpt>
      <trkpt lat="44.84487" lon="-0.2277">
        <ele>19.5</ele>
        <time>2020-09-09T13:10:53Z</time>
      </trkpt>
      <trkpt lat="44.84487" lon="-0.22771">
        <ele>20</ele>
        <time>2020-09-09T13:10:54Z</time>
      </trkpt>
      <trkpt lat="44.84487" lon="-0.22772">
        <ele>20</ele>
        <time>2020-09-09T13:10:56Z</time>
      </trkpt>
      <trkpt lat="44.84486" lon="-0.22773">
        <ele>20</ele>
        <time>2020-09-09T13:10:57Z</time>
      </trkpt>
      <trkpt lat="44.84486" lon="-0.22775">
        <ele>20</ele>
        <time>2020-09-09T13:10:58Z</time>
      </trkpt>
      <trkpt lat="44.84485" lon="-0.22776">
        <ele>20.7</ele>
        <time>2020-09-09T13:11:00Z</time>
      </trkpt>
      <trkpt lat="44.84484" lon="-0.22778">
        <ele>20.7</ele>
        <time>2020-09-09T13:11:01Z</time>
      </trkpt>
      <trkpt lat="44.84483" lon="-0.2278">
        <ele>21.3</ele>
        <time>2020-09-09T13:11:02Z</time>
      </trkpt>
      <trkpt lat="44.84482" lon="-0.22781">
        <ele>21.4</ele>
        <time>2020-09-09T13:11:03Z</time>
      </trkpt>
      <trkpt lat="44.8448" lon="-0.22781">
        <ele>21.4</ele>
        <time>2020-09-09T13:11:05Z</time>
      </trkpt>
      <trkpt lat="44.84479" lon="-0.22782">
        <ele>21.5</ele>
        <time>2020-09-09T13:11:06Z</time>
      </trkpt>
      <trkpt lat="44.84478" lon="-0.22783">
        <ele>21.6</ele>
        <time>2020-09-09T13:11:08Z</time>
      </trkpt>
      <trkpt lat="44.84477" lon="-0.22784">
        <ele>22.1</ele>
        <time>2020-09-09T13:11:09Z</time>
      </trkpt>
      <trkpt lat="44.84476" lon="-0.22785">
        <ele>22.2</ele>
        <time>2020-09-09T13:11:11Z</time>
      </trkpt>
      <trkpt lat="44.84475" lon="-0.22786">
        <ele>22.3</ele>
        <time>2020-09-09T13:11:12Z</time>
      </trkpt>
      <trkpt lat="44.84473" lon="-0.22788">
        <ele>22.4</ele>
        <time>2020-09-09T13:11:14Z</time>
      </trkpt>
      <trkpt lat="44.84472" lon="-0.22789">
        <ele>22.9</ele>
        <time>2020-09-09T13:11:15Z</time>
      </trkpt>
      <trkpt lat="44.84471" lon="-0.2279">
        <ele>22.9</ele>
        <time>2020-09-09T13:11:16Z</time>
      </trkpt>
      <trkpt lat="44.84469" lon="-0.22792">
        <ele>23.1</ele>
        <time>2020-09-09T13:11:18Z</time>
      </trkpt>
      <trkpt lat="44.84468" lon="-0.22792">
        <ele>23.1</ele>
        <time>2020-09-09T13:11:19Z</time>
      </trkpt>
      <trkpt lat="44.84467" lon="-0.22793">
        <ele>23.7</ele>
        <time>2020-09-09T13:11:20Z</time>
      </trkpt>
      <trkpt lat="44.84466" lon="-0.22794">
        <ele>23.7</ele>
        <time>2020-09-09T13:11:22Z</time>
      </trkpt>
      <trkpt lat="44.84465" lon="-0.22794">
        <ele>23.7</ele>
        <time>2020-09-09T13:11:23Z</time>
      </trkpt>
      <trkpt lat="44.84463" lon="-0.22797">
        <ele>24.3</ele>
        <time>2020-09-09T13:11:25Z</time>
      </trkpt>
      <trkpt lat="44.84462" lon="-0.22797">
        <ele>24.3</ele>
        <time>2020-09-09T13:11:26Z</time>
      </trkpt>
      <trkpt lat="44.84461" lon="-0.22798">
        <ele>24.4</ele>
        <time>2020-09-09T13:11:27Z</time>
      </trkpt>
      <trkpt lat="44.8446" lon="-0.22799">
        <ele>24.4</ele>
        <time>2020-09-09T13:11:28Z</time>
      </trkpt>
      <trkpt lat="44.84459" lon="-0.22801">
        <ele>24.5</ele>
        <time>2020-09-09T13:11:30Z</time>
      </trkpt>
      <trkpt lat="44.84459" lon="-0.22801">
        <ele>24.9</ele>
        <time>2020-09-09T13:11:31Z</time>
      </trkpt>
      <trkpt lat="44.84459" lon="-0.22802">
        <ele>24.9</ele>
        <time>2020-09-09T13:11:32Z</time>
      </trkpt>
      <trkpt lat="44.84458" lon="-0.22803">
        <ele>25</ele>
        <time>2020-09-09T13:11:33Z</time>
      </trkpt>
      <trkpt lat="44.84457" lon="-0.22805">
        <ele>25</ele>
        <time>2020-09-09T13:11:35Z</time>
      </trkpt>
      <trkpt lat="44.84456" lon="-0.22808">
        <ele>25.5</ele>
        <time>2020-09-09T13:11:36Z</time>
      </trkpt>
      <trkpt lat="44.84456" lon="-0.22809">
        <ele>25.5</ele>
        <time>2020-09-09T13:11:38Z</time>
      </trkpt>
      <trkpt lat="44.84456" lon="-0.2281">
        <ele>26</ele>
        <time>2020-09-09T13:11:39Z</time>
      </trkpt>
      <trkpt lat="44.84455" lon="-0.22812">
        <ele>26</ele>
        <time>2020-09-09T13:11:40Z</time>
      </trkpt>
      <trkpt lat="44.84455" lon="-0.22813">
        <ele>26.1</ele>
        <time>2020-09-09T13:11:41Z</time>
      </trkpt>
      <trkpt lat="44.84454" lon="-0.22814">
        <ele>26.5</ele>
        <time>2020-09-09T13:11:42Z</time>
      </trkpt>
      <trkpt lat="44.84454" lon="-0.22815">
        <ele>26.5</ele>
        <time>2020-09-09T13:11:43Z</time>
      </trkpt>
      <trkpt lat="44.84453" lon="-0.22817">
        <ele>26.5</ele>
        <time>2020-09-09T13:11:44Z</time>
      </trkpt>
      <trkpt lat="44.84453" lon="-0.22818">
        <ele>26.5</ele>
        <time>2020-09-09T13:11:46Z</time>
      </trkpt>
      <trkpt lat="44.84452" lon="-0.2282">
        <ele>27</ele>
        <time>2020-09-09T13:11:47Z</time>
      </trkpt>
      <trkpt lat="44.84452" lon="-0.22821">
        <ele>27.1</ele>
        <time>2020-09-09T13:11:48Z</time>
      </trkpt>
      <trkpt lat="44.84451" lon="-0.22822">
        <ele>27.1</ele>
        <time>2020-09-09T13:11:50Z</time>
      </trkpt>
      <trkpt lat="44.84451" lon="-0.22821">
        <ele>27.1</ele>
        <time>2020-09-09T13:11:51Z</time>
      </trkpt>
      <trkpt lat="44.84451" lon="-0.2282">
        <ele>27.1</ele>
        <time>2020-09-09T13:11:52Z</time>
      </trkpt>
      <trkpt lat="44.84451" lon="-0.22819">
        <ele>27.1</ele>
        <time>2020-09-09T13:11:54Z</time>
      </trkpt>
      <trkpt lat="44.84451" lon="-0.2282">
        <ele>27.1</ele>
        <time>2020-09-09T13:11:55Z</time>
      </trkpt>
      <trkpt lat="44.84451" lon="-0.22821">
        <ele>27.2</ele>
        <time>2020-09-09T13:11:57Z</time>
      </trkpt>
      <trkpt lat="44.84449" lon="-0.22823">
        <ele>27.6</ele>
        <time>2020-09-09T13:11:58Z</time>
      </trkpt>
      <trkpt lat="44.84449" lon="-0.22824">
        <ele>27.7</ele>
        <time>2020-09-09T13:11:59Z</time>
      </trkpt>
      <trkpt lat="44.84448" lon="-0.22825">
        <ele>27.7</ele>
        <time>2020-09-09T13:12:01Z</time>
      </trkpt>
      <trkpt lat="44.84447" lon="-0.22828">
        <ele>28.2</ele>
        <time>2020-09-09T13:12:02Z</time>
      </trkpt>
      <trkpt lat="44.84446" lon="-0.22829">
        <ele>28.2</ele>
        <time>2020-09-09T13:12:04Z</time>
      </trkpt>
      <trkpt lat="44.84445" lon="-0.2283">
        <ele>28.3</ele>
        <time>2020-09-09T13:12:06Z</time>
      </trkpt>
      <trkpt lat="44.84444" lon="-0.22831">
        <ele>28.8</ele>
        <time>2020-09-09T13:12:07Z</time>
      </trkpt>
      <trkpt lat="44.84443" lon="-0.22833">
        <ele>28.8</ele>
        <time>2020-09-09T13:12:09Z</time>
      </trkpt>
      <trkpt lat="44.84442" lon="-0.22835">
        <ele>28.9</ele>
        <time>2020-09-09T13:12:10Z</time>
      </trkpt>
      <trkpt lat="44.84441" lon="-0.22836">
        <ele>29.4</ele>
        <time>2020-09-09T13:12:11Z</time>
      </trkpt>
      <trkpt lat="44.8444" lon="-0.22837">
        <ele>29.4</ele>
        <time>2020-09-09T13:12:13Z</time>
      </trkpt>
      <trkpt lat="44.84439" lon="-0.22838">
        <ele>29.5</ele>
        <time>2020-09-09T13:12:14Z</time>
      </trkpt>
      <trkpt lat="44.84438" lon="-0.22839">
        <ele>29.5</ele>
        <time>2020-09-09T13:12:15Z</time>
      </trkpt>
      <trkpt lat="44.84438" lon="-0.22839">
        <ele>29.5</ele>
        <time>2020-09-09T13:12:16Z</time>
      </trkpt>
      <trkpt lat="44.84437" lon="-0.2284">
        <ele>29.9</ele>
        <time>2020-09-09T13:12:17Z</time>
      </trkpt>
      <trkpt lat="44.84436" lon="-0.22841">
        <ele>30</ele>
        <time>2020-09-09T13:12:18Z</time>
      </trkpt>
      <trkpt lat="44.84436" lon="-0.22842">
        <ele>30</ele>
        <time>2020-09-09T13:12:20Z</time>
      </trkpt>
      <trkpt lat="44.84434" lon="-0.22845">
        <ele>30.5</ele>
        <time>2020-09-09T13:12:21Z</time>
      </trkpt>
      <trkpt lat="44.84434" lon="-0.22846">
        <ele>30.5</ele>
        <time>2020-09-09T13:12:22Z</time>
      </trkpt>
      <trkpt lat="44.84433" lon="-0.22847">
        <ele>30.5</ele>
        <time>2020-09-09T13:12:24Z</time>
      </trkpt>
      <trkpt lat="44.84434" lon="-0.22846">
        <ele>30.5</ele>
        <time>2020-09-09T13:12:25Z</time>
      </trkpt>
      <trkpt lat="44.84434" lon="-0.22846">
        <ele>30.5</ele>
        <time>2020-09-09T13:12:26Z</time>
      </trkpt>
      <trkpt lat="44.84434" lon="-0.22846">
        <ele>30.5</ele>
        <time>2020-09-09T13:12:27Z</time>
      </trkpt>
      <trkpt lat="44.84436" lon="-0.22845">
        <ele>30.5</ele>
        <time>2020-09-09T13:12:29Z</time>
      </trkpt>
      <trkpt lat="44.84437" lon="-0.22845">
        <ele>30.5</ele>
        <time>2020-09-09T13:12:31Z</time>
      </trkpt>
      <trkpt lat="44.84437" lon="-0.22844">
        <ele>30.5</ele>
        <time>2020-09-09T13:12:33Z</time>
      </trkpt>
      <trkpt lat="44.84437" lon="-0.22844">
        <ele>30.5</ele>
        <time>2020-09-09T13:12:35Z</time>
      </trkpt>
      <trkpt lat="44.84436" lon="-0.22845">
        <ele>30.6</ele>
        <time>2020-09-09T13:12:36Z</time>
      </trkpt>
      <trkpt lat="44.84435" lon="-0.22846">
        <ele>30.6</ele>
        <time>2020-09-09T13:12:38Z</time>
      </trkpt>
      <trkpt lat="44.84434" lon="-0.22847">
        <ele>30.6</ele>
        <time>2020-09-09T13:12:39Z</time>
      </trkpt>
      <trkpt lat="44.84433" lon="-0.22849">
        <ele>31.1</ele>
        <time>2020-09-09T13:12:40Z</time>
      </trkpt>
      <trkpt lat="44.84433" lon="-0.22851">
        <ele>31.1</ele>
        <time>2020-09-09T13:12:42Z</time>
      </trkpt>
      <trkpt lat="44.84432" lon="-0.22852">
        <ele>31.1</ele>
        <time>2020-09-09T13:12:43Z</time>
      </trkpt>
      <trkpt lat="44.84431" lon="-0.22853">
        <ele>31.5</ele>
        <time>2020-09-09T13:12:44Z</time>
      </trkpt>
      <trkpt lat="44.84431" lon="-0.22855">
        <ele>31.6</ele>
        <time>2020-09-09T13:12:46Z</time>
      </trkpt>
      <trkpt lat="44.84431" lon="-0.22855">
        <ele>31.6</ele>
        <time>2020-09-09T13:12:48Z</time>
      </trkpt>
      <trkpt lat="44.8443" lon="-0.22856">
        <ele>31.6</ele>
        <time>2020-09-09T13:12:49Z</time>
      </trkpt>
      <trkpt lat="44.8443" lon="-0.22857">
        <ele>32</ele>
        <time>2020-09-09T13:12:51Z</time>
      </trkpt>
      <trkpt lat="44.8443" lon="-0.22858">
        <ele>32</ele>
        <time>2020-09-09T13:12:52Z</time>
      </trkpt>
      <trkpt lat="44.8443" lon="-0.22859">
        <ele>32</ele>
        <time>2020-09-09T13:12:53Z</time>
      </trkpt>
      <trkpt lat="44.8443" lon="-0.2286">
        <ele>32</ele>
        <time>2020-09-09T13:12:55Z</time>
      </trkpt>
      <trkpt lat="44.84429" lon="-0.22862">
        <ele>32.5</ele>
        <time>2020-09-09T13:12:56Z</time>
      </trkpt>
      <trkpt lat="44.84429" lon="-0.22863">
        <ele>32.5</ele>
        <time>2020-09-09T13:12:57Z</time>
      </trkpt>
      <trkpt lat="44.84429" lon="-0.22865">
        <ele>32.5</ele>
        <time>2020-09-09T13:12:58Z</time>
      </trkpt>
      <trkpt lat="44.84428" lon="-0.22866">
        <ele>33</ele>
        <time>2020-09-09T13:12:59Z</time>
      </trkpt>
      <trkpt lat="44.84428" lon="-0.22866">
        <ele>33</ele>
        <time>2020-09-09T13:13:00Z</time>
      </trkpt>
      <trkpt lat="44.84428" lon="-0.22867">
        <ele>33</ele>
        <time>2020-09-09T13:13:01Z</time>
      </trkpt>
      <trkpt lat="44.84428" lon="-0.22867">
        <ele>33</ele>
        <time>2020-09-09T13:13:02Z</time>
      </trkpt>
      <trkpt lat="44.84427" lon="-0.22871">
        <ele>33.5</ele>
        <time>2020-09-09T13:13:04Z</time>
      </trkpt>
      <trkpt lat="44.84427" lon="-0.2287">
        <ele>33.5</ele>
        <time>2020-09-09T13:13:05Z</time>
      </trkpt>
      <trkpt lat="44.84426" lon="-0.22872">
        <ele>33.5</ele>
        <time>2020-09-09T13:13:07Z</time>
      </trkpt>
      <trkpt lat="44.84426" lon="-0.22872">
        <ele>33.5</ele>
        <time>2020-09-09T13:13:08Z</time>
      </trkpt>
      <trkpt lat="44.84425" lon="-0.22871">
        <ele>33.5</ele>
        <time>2020-09-09T13:13:10Z</time>
      </trkpt>
      <trkpt lat="44.84426" lon="-0.22868">
        <ele>33.1</ele>
        <time>2020-09-09T13:13:12Z</time>
      </trkpt>
      <trkpt lat="44.84426" lon="-0.22868">
        <ele>33.1</ele>
        <time>2020-09-09T13:13:13Z</time>
      </trkpt>
      <trkpt lat="44.84425" lon="-0.22869">
        <ele>33.1</ele>
        <time>2020-09-09T13:13:15Z</time>
      </trkpt>
      <trkpt lat="44.84425" lon="-0.2287">
        <ele>33.6</ele>
        <time>2020-09-09T13:13:16Z</time>
      </trkpt>
      <trkpt lat="44.84424" lon="-0.22871">
        <ele>33.7</ele>
        <time>2020-09-09T13:13:17Z</time>
      </trkpt>
      <trkpt lat="44.84424" lon="-0.22873">
        <ele>33.7</ele>
        <time>2020-09-09T13:13:19Z</time>
      </trkpt>
      <trkpt lat="44.84422" lon="-0.22878">
        <ele>34.2</ele>
        <time>2020-09-09T13:13:21Z</time>
      </trkpt>
      <trkpt lat="44.84422" lon="-0.22878">
        <ele>34.6</ele>
        <time>2020-09-09T13:13:22Z</time>
      </trkpt>
      <trkpt lat="44.84422" lon="-0.22878">
        <ele>34.6</ele>
        <time>2020-09-09T13:13:23Z</time>
      </trkpt>
      <trkpt lat="44.84421" lon="-0.22879">
        <ele>34.6</ele>
        <time>2020-09-09T13:13:25Z</time>
      </trkpt>
      <trkpt lat="44.84421" lon="-0.22881">
        <ele>34.6</ele>
        <time>2020-09-09T13:13:26Z</time>
      </trkpt>
      <trkpt lat="44.84421" lon="-0.22882">
        <ele>34.7</ele>
        <time>2020-09-09T13:13:27Z</time>
      </trkpt>
      <trkpt lat="44.8442" lon="-0.22883">
        <ele>35.1</ele>
        <time>2020-09-09T13:13:28Z</time>
      </trkpt>
      <trkpt lat="44.84419" lon="-0.22885">
        <ele>35.1</ele>
        <time>2020-09-09T13:13:29Z</time>
      </trkpt>
      <trkpt lat="44.84419" lon="-0.22887">
        <ele>35.1</ele>
        <time>2020-09-09T13:13:31Z</time>
      </trkpt>
      <trkpt lat="44.84418" lon="-0.22888">
        <ele>35.6</ele>
        <time>2020-09-09T13:13:32Z</time>
      </trkpt>
      <trkpt lat="44.84418" lon="-0.2289">
        <ele>35.6</ele>
        <time>2020-09-09T13:13:33Z</time>
      </trkpt>
      <trkpt lat="44.84417" lon="-0.22891">
        <ele>35.9</ele>
        <time>2020-09-09T13:13:34Z</time>
      </trkpt>
      <trkpt lat="44.84417" lon="-0.22893">
        <ele>36</ele>
        <time>2020-09-09T13:13:36Z</time>
      </trkpt>
      <trkpt lat="44.84416" lon="-0.22895">
        <ele>36</ele>
        <time>2020-09-09T13:13:37Z</time>
      </trkpt>
      <trkpt lat="44.84415" lon="-0.22896">
        <ele>36.4</ele>
        <time>2020-09-09T13:13:38Z</time>
      </trkpt>
      <trkpt lat="44.84415" lon="-0.22897">
        <ele>36.4</ele>
        <time>2020-09-09T13:13:39Z</time>
      </trkpt>
      <trkpt lat="44.84415" lon="-0.22898">
        <ele>36.4</ele>
        <time>2020-09-09T13:13:41Z</time>
      </trkpt>
      <trkpt lat="44.84414" lon="-0.22899">
        <ele>36.4</ele>
        <time>2020-09-09T13:13:42Z</time>
      </trkpt>
      <trkpt lat="44.84414" lon="-0.229">
        <ele>36.8</ele>
        <time>2020-09-09T13:13:44Z</time>
      </trkpt>
      <trkpt lat="44.84414" lon="-0.229">
        <ele>36.8</ele>
        <time>2020-09-09T13:13:45Z</time>
      </trkpt>
      <trkpt lat="44.84413" lon="-0.22901">
        <ele>36.8</ele>
        <time>2020-09-09T13:13:47Z</time>
      </trkpt>
      <trkpt lat="44.84413" lon="-0.22902">
        <ele>36.8</ele>
        <time>2020-09-09T13:13:48Z</time>
      </trkpt>
      <trkpt lat="44.84412" lon="-0.22902">
        <ele>36.9</ele>
        <time>2020-09-09T13:13:49Z</time>
      </trkpt>
      <trkpt lat="44.84412" lon="-0.22903">
        <ele>36.9</ele>
        <time>2020-09-09T13:13:51Z</time>
      </trkpt>
      <trkpt lat="44.84411" lon="-0.22906">
        <ele>37.2</ele>
        <time>2020-09-09T13:13:52Z</time>
      </trkpt>
      <trkpt lat="44.8441" lon="-0.22907">
        <ele>37.2</ele>
        <time>2020-09-09T13:13:53Z</time>
      </trkpt>
      <trkpt lat="44.8441" lon="-0.22908">
        <ele>37.2</ele>
        <time>2020-09-09T13:13:54Z</time>
      </trkpt>
      <trkpt lat="44.84408" lon="-0.2291">
        <ele>37.6</ele>
        <time>2020-09-09T13:13:56Z</time>
      </trkpt>
      <trkpt lat="44.84408" lon="-0.22911">
        <ele>37.7</ele>
        <time>2020-09-09T13:13:57Z</time>
      </trkpt>
      <trkpt lat="44.84407" lon="-0.22913">
        <ele>38</ele>
        <time>2020-09-09T13:13:59Z</time>
      </trkpt>
      <trkpt lat="44.84407" lon="-0.22915">
        <ele>38</ele>
        <time>2020-09-09T13:14:01Z</time>
      </trkpt>
      <trkpt lat="44.84406" lon="-0.22917">
        <ele>38.1</ele>
        <time>2020-09-09T13:14:02Z</time>
      </trkpt>
      <trkpt lat="44.84405" lon="-0.22918">
        <ele>38.4</ele>
        <time>2020-09-09T13:14:04Z</time>
      </trkpt>
      <trkpt lat="44.84406" lon="-0.22919">
        <ele>38.4</ele>
        <time>2020-09-09T13:14:05Z</time>
      </trkpt>
      <trkpt lat="44.84405" lon="-0.22922">
        <ele>38.7</ele>
        <time>2020-09-09T13:14:07Z</time>
      </trkpt>
      <trkpt lat="44.84405" lon="-0.22923">
        <ele>38.7</ele>
        <time>2020-09-09T13:14:09Z</time>
      </trkpt>
      <trkpt lat="44.84405" lon="-0.22924">
        <ele>38.7</ele>
        <time>2020-09-09T13:14:10Z</time>
      </trkpt>
      <trkpt lat="44.84404" lon="-0.22925">
        <ele>38.8</ele>
        <time>2020-09-09T13:14:12Z</time>
      </trkpt>
      <trkpt lat="44.84404" lon="-0.22926">
        <ele>39.1</ele>
        <time>2020-09-09T13:14:13Z</time>
      </trkpt>
      <trkpt lat="44.84404" lon="-0.22926">
        <ele>39.1</ele>
        <time>2020-09-09T13:14:14Z</time>
      </trkpt>
      <trkpt lat="44.84404" lon="-0.22926">
        <ele>39.1</ele>
        <time>2020-09-09T13:14:16Z</time>
      </trkpt>
      <trkpt lat="44.84404" lon="-0.22926">
        <ele>39.1</ele>
        <time>2020-09-09T13:14:17Z</time>
      </trkpt>
      <trkpt lat="44.84403" lon="-0.22925">
        <ele>38.9</ele>
        <time>2020-09-09T13:14:19Z</time>
      </trkpt>
      <trkpt lat="44.84403" lon="-0.22925">
        <ele>39.2</ele>
        <time>2020-09-09T13:14:21Z</time>
      </trkpt>
      <trkpt lat="44.84402" lon="-0.22927">
        <ele>39.2</ele>
        <time>2020-09-09T13:14:22Z</time>
      </trkpt>
      <trkpt lat="44.84402" lon="-0.22926">
        <ele>39.2</ele>
        <time>2020-09-09T13:14:24Z</time>
      </trkpt>
      <trkpt lat="44.84402" lon="-0.22926">
        <ele>39.2</ele>
        <time>2020-09-09T13:14:25Z</time>
      </trkpt>
      <trkpt lat="44.84401" lon="-0.22926">
        <ele>39.2</ele>
        <time>2020-09-09T13:14:26Z</time>
      </trkpt>
      <trkpt lat="44.84401" lon="-0.22925">
        <ele>39</ele>
        <time>2020-09-09T13:14:28Z</time>
      </trkpt>
      <trkpt lat="44.84401" lon="-0.22925">
        <ele>39</ele>
        <time>2020-09-09T13:14:29Z</time>
      </trkpt>
      <trkpt lat="44.84401" lon="-0.22926">
        <ele>39.3</ele>
        <time>2020-09-09T13:14:30Z</time>
      </trkpt>
      <trkpt lat="44.84399" lon="-0.22928">
        <ele>39.4</ele>
        <time>2020-09-09T13:14:32Z</time>
      </trkpt>
      <trkpt lat="44.84399" lon="-0.22928">
        <ele>39.4</ele>
        <time>2020-09-09T13:14:34Z</time>
      </trkpt>
      <trkpt lat="44.84399" lon="-0.22929">
        <ele>39.4</ele>
        <time>2020-09-09T13:14:35Z</time>
      </trkpt>
      <trkpt lat="44.84398" lon="-0.22931">
        <ele>39.7</ele>
        <time>2020-09-09T13:14:37Z</time>
      </trkpt>
      <trkpt lat="44.84397" lon="-0.22932">
        <ele>39.7</ele>
        <time>2020-09-09T13:14:38Z</time>
      </trkpt>
      <trkpt lat="44.84397" lon="-0.22932">
        <ele>39.8</ele>
        <time>2020-09-09T13:14:39Z</time>
      </trkpt>
      <trkpt lat="44.84396" lon="-0.22933">
        <ele>39.8</ele>
        <time>2020-09-09T13:14:40Z</time>
      </trkpt>
      <trkpt lat="44.84395" lon="-0.22934">
        <ele>39.8</ele>
        <time>2020-09-09T13:14:42Z</time>
      </trkpt>
      <trkpt lat="44.84394" lon="-0.22934">
        <ele>40.1</ele>
        <time>2020-09-09T13:14:43Z</time>
      </trkpt>
      <trkpt lat="44.84394" lon="-0.22934">
        <ele>40.2</ele>
        <time>2020-09-09T13:14:45Z</time>
      </trkpt>
      <trkpt lat="44.84393" lon="-0.22935">
        <ele>40.2</ele>
        <time>2020-09-09T13:14:46Z</time>
      </trkpt>
      <trkpt lat="44.84392" lon="-0.22937">
        <ele>40.2</ele>
        <time>2020-09-09T13:14:47Z</time>
      </trkpt>
      <trkpt lat="44.84391" lon="-0.2294">
        <ele>40.6</ele>
        <time>2020-09-09T13:14:49Z</time>
      </trkpt>
      <trkpt lat="44.8439" lon="-0.22941">
        <ele>40.6</ele>
        <time>2020-09-09T13:14:50Z</time>
      </trkpt>
      <trkpt lat="44.8439" lon="-0.22942">
        <ele>40.6</ele>
        <time>2020-09-09T13:14:51Z</time>
      </trkpt>
      <trkpt lat="44.84389" lon="-0.22944">
        <ele>40.9</ele>
        <time>2020-09-09T13:14:52Z</time>
      </trkpt>
      <trkpt lat="44.84389" lon="-0.22944">
        <ele>40.9</ele>
        <time>2020-09-09T13:14:53Z</time>
      </trkpt>
      <trkpt lat="44.84387" lon="-0.22946">
        <ele>41</ele>
        <time>2020-09-09T13:14:55Z</time>
      </trkpt>
      <trkpt lat="44.84387" lon="-0.22946">
        <ele>41</ele>
        <time>2020-09-09T13:14:57Z</time>
      </trkpt>
      <trkpt lat="44.84386" lon="-0.22948">
        <ele>41.3</ele>
        <time>2020-09-09T13:14:58Z</time>
      </trkpt>
      <trkpt lat="44.84385" lon="-0.2295">
        <ele>41.4</ele>
        <time>2020-09-09T13:15:00Z</time>
      </trkpt>
      <trkpt lat="44.84384" lon="-0.22952">
        <ele>41.6</ele>
        <time>2020-09-09T13:15:02Z</time>
      </trkpt>
      <trkpt lat="44.84383" lon="-0.22953">
        <ele>41.6</ele>
        <time>2020-09-09T13:15:03Z</time>
      </trkpt>
      <trkpt lat="44.84382" lon="-0.22954">
        <ele>41.8</ele>
        <time>2020-09-09T13:15:04Z</time>
      </trkpt>
      <trkpt lat="44.84381" lon="-0.22956">
        <ele>42</ele>
        <time>2020-09-09T13:15:06Z</time>
      </trkpt>
      <trkpt lat="44.8438" lon="-0.22957">
        <ele>42</ele>
        <time>2020-09-09T13:15:08Z</time>
      </trkpt>
      <trkpt lat="44.8438" lon="-0.22958">
        <ele>42</ele>
        <time>2020-09-09T13:15:09Z</time>
      </trkpt>
      <trkpt lat="44.84379" lon="-0.2296">
        <ele>42.4</ele>
        <time>2020-09-09T13:15:10Z</time>
      </trkpt>
      <trkpt lat="44.84378" lon="-0.22961">
        <ele>42.4</ele>
        <time>2020-09-09T13:15:11Z</time>
      </trkpt>
      <trkpt lat="44.84377" lon="-0.22963">
        <ele>42.4</ele>
        <time>2020-09-09T13:15:12Z</time>
      </trkpt>
      <trkpt lat="44.84375" lon="-0.22966">
        <ele>42.8</ele>
        <time>2020-09-09T13:15:14Z</time>
      </trkpt>
      <trkpt lat="44.84374" lon="-0.22967">
        <ele>42.8</ele>
        <time>2020-09-09T13:15:15Z</time>
      </trkpt>
      <trkpt lat="44.84373" lon="-0.22968">
        <ele>42.8</ele>
        <time>2020-09-09T13:15:17Z</time>
      </trkpt>
      <trkpt lat="44.84372" lon="-0.22969">
        <ele>43.1</ele>
        <time>2020-09-09T13:15:18Z</time>
      </trkpt>
      <trkpt lat="44.84371" lon="-0.22972">
        <ele>43.1</ele>
        <time>2020-09-09T13:15:20Z</time>
      </trkpt>
      <trkpt lat="44.8437" lon="-0.22974">
        <ele>43.3</ele>
        <time>2020-09-09T13:15:21Z</time>
      </trkpt>
      <trkpt lat="44.8437" lon="-0.22976">
        <ele>43.4</ele>
        <time>2020-09-09T13:15:22Z</time>
      </trkpt>
      <trkpt lat="44.84369" lon="-0.22979">
        <ele>43.6</ele>
        <time>2020-09-09T13:15:24Z</time>
      </trkpt>
      <trkpt lat="44.84368" lon="-0.2298">
        <ele>43.6</ele>
        <time>2020-09-09T13:15:25Z</time>
      </trkpt>
      <trkpt lat="44.84367" lon="-0.22983">
        <ele>43.8</ele>
        <time>2020-09-09T13:15:26Z</time>
      </trkpt>
      <trkpt lat="44.84367" lon="-0.22985">
        <ele>43.9</ele>
        <time>2020-09-09T13:15:27Z</time>
      </trkpt>
      <trkpt lat="44.84366" lon="-0.22986">
        <ele>44.1</ele>
        <time>2020-09-09T13:15:28Z</time>
      </trkpt>
      <trkpt lat="44.84366" lon="-0.22988">
        <ele>44.1</ele>
        <time>2020-09-09T13:15:30Z</time>
      </trkpt>
      <trkpt lat="44.84365" lon="-0.22989">
        <ele>44.1</ele>
        <time>2020-09-09T13:15:31Z</time>
      </trkpt>
      <trkpt lat="44.84364" lon="-0.2299">
        <ele>44.1</ele>
        <time>2020-09-09T13:15:32Z</time>
      </trkpt>
      <trkpt lat="44.84363" lon="-0.22992">
        <ele>44.3</ele>
        <time>2020-09-09T13:15:34Z</time>
      </trkpt>
      <trkpt lat="44.84362" lon="-0.22993">
        <ele>44.3</ele>
        <time>2020-09-09T13:15:35Z</time>
      </trkpt>
      <trkpt lat="44.84362" lon="-0.22994">
        <ele>44.4</ele>
        <time>2020-09-09T13:15:36Z</time>
      </trkpt>
      <trkpt lat="44.84359" lon="-0.22997">
        <ele>44.6</ele>
        <time>2020-09-09T13:15:38Z</time>
      </trkpt>
      <trkpt lat="44.84358" lon="-0.22999">
        <ele>44.7</ele>
        <time>2020-09-09T13:15:40Z</time>
      </trkpt>
      <trkpt lat="44.84357" lon="-0.22999">
        <ele>44.8</ele>
        <time>2020-09-09T13:15:42Z</time>
      </trkpt>
      <trkpt lat="44.84356" lon="-0.23">
        <ele>44.8</ele>
        <time>2020-09-09T13:15:43Z</time>
      </trkpt>
      <trkpt lat="44.84355" lon="-0.23003">
        <ele>44.8</ele>
        <time>2020-09-09T13:15:44Z</time>
      </trkpt>
      <trkpt lat="44.84355" lon="-0.23004">
        <ele>45.1</ele>
        <time>2020-09-09T13:15:45Z</time>
      </trkpt>
      <trkpt lat="44.84354" lon="-0.23005">
        <ele>45.1</ele>
        <time>2020-09-09T13:15:46Z</time>
      </trkpt>
      <trkpt lat="44.84353" lon="-0.23005">
        <ele>45.1</ele>
        <time>2020-09-09T13:15:48Z</time>
      </trkpt>
      <trkpt lat="44.84352" lon="-0.23006">
        <ele>45.1</ele>
        <time>2020-09-09T13:15:49Z</time>
      </trkpt>
      <trkpt lat="44.84351" lon="-0.23008">
        <ele>45.3</ele>
        <time>2020-09-09T13:15:50Z</time>
      </trkpt>
      <trkpt lat="44.8435" lon="-0.23009">
        <ele>45.3</ele>
        <time>2020-09-09T13:15:51Z</time>
      </trkpt>
      <trkpt lat="44.84349" lon="-0.23011">
        <ele>45.3</ele>
        <time>2020-09-09T13:15:52Z</time>
      </trkpt>
      <trkpt lat="44.84349" lon="-0.23012">
        <ele>45.5</ele>
        <time>2020-09-09T13:15:54Z</time>
      </trkpt>
      <trkpt lat="44.84348" lon="-0.23014">
        <ele>45.5</ele>
        <time>2020-09-09T13:15:55Z</time>
      </trkpt>
      <trkpt lat="44.84347" lon="-0.23016">
        <ele>45.6</ele>
        <time>2020-09-09T13:15:56Z</time>
      </trkpt>
      <trkpt lat="44.84346" lon="-0.23018">
        <ele>45.6</ele>
        <time>2020-09-09T13:15:57Z</time>
      </trkpt>
      <trkpt lat="44.84345" lon="-0.23019">
        <ele>45.7</ele>
        <time>2020-09-09T13:15:59Z</time>
      </trkpt>
      <trkpt lat="44.84345" lon="-0.2302">
        <ele>45.7</ele>
        <time>2020-09-09T13:16:00Z</time>
      </trkpt>
      <trkpt lat="44.84344" lon="-0.23022">
        <ele>45.7</ele>
        <time>2020-09-09T13:16:01Z</time>
      </trkpt>
      <trkpt lat="44.84343" lon="-0.23024">
        <ele>45.8</ele>
        <time>2020-09-09T13:16:02Z</time>
      </trkpt>
      <trkpt lat="44.8434" lon="-0.23027">
        <ele>45.9</ele>
        <time>2020-09-09T13:16:04Z</time>
      </trkpt>
      <trkpt lat="44.8434" lon="-0.23029">
        <ele>46</ele>
        <time>2020-09-09T13:16:06Z</time>
      </trkpt>
      <trkpt lat="44.84339" lon="-0.2303">
        <ele>46.1</ele>
        <time>2020-09-09T13:16:07Z</time>
      </trkpt>
      <trkpt lat="44.84338" lon="-0.2303">
        <ele>46.1</ele>
        <time>2020-09-09T13:16:08Z</time>
      </trkpt>
      <trkpt lat="44.84337" lon="-0.23029">
        <ele>46.1</ele>
        <time>2020-09-09T13:16:10Z</time>
      </trkpt>
      <trkpt lat="44.84337" lon="-0.23028">
        <ele>46.1</ele>
        <time>2020-09-09T13:16:11Z</time>
      </trkpt>
      <trkpt lat="44.84336" lon="-0.23027">
        <ele>46.2</ele>
        <time>2020-09-09T13:16:13Z</time>
      </trkpt>
      <trkpt lat="44.84336" lon="-0.23027">
        <ele>46.2</ele>
        <time>2020-09-09T13:16:14Z</time>
      </trkpt>
      <trkpt lat="44.84336" lon="-0.23027">
        <ele>46.2</ele>
        <time>2020-09-09T13:16:15Z</time>
      </trkpt>
      <trkpt lat="44.84335" lon="-0.23026">
        <ele>46.2</ele>
        <time>2020-09-09T13:16:17Z</time>
      </trkpt>
      <trkpt lat="44.84334" lon="-0.23027">
        <ele>46.2</ele>
        <time>2020-09-09T13:16:19Z</time>
      </trkpt>
      <trkpt lat="44.84334" lon="-0.23028">
        <ele>46.2</ele>
        <time>2020-09-09T13:16:20Z</time>
      </trkpt>
      <trkpt lat="44.84332" lon="-0.23031">
        <ele>46.4</ele>
        <time>2020-09-09T13:16:21Z</time>
      </trkpt>
      <trkpt lat="44.84332" lon="-0.23033">
        <ele>46.4</ele>
        <time>2020-09-09T13:16:23Z</time>
      </trkpt>
      <trkpt lat="44.84331" lon="-0.23034">
        <ele>46.4</ele>
        <time>2020-09-09T13:16:24Z</time>
      </trkpt>
      <trkpt lat="44.84331" lon="-0.23036">
        <ele>46.5</ele>
        <time>2020-09-09T13:16:25Z</time>
      </trkpt>
      <trkpt lat="44.8433" lon="-0.23037">
        <ele>46.6</ele>
        <time>2020-09-09T13:16:26Z</time>
      </trkpt>
      <trkpt lat="44.84329" lon="-0.23039">
        <ele>46.6</ele>
        <time>2020-09-09T13:16:27Z</time>
      </trkpt>
      <trkpt lat="44.84329" lon="-0.23041">
        <ele>46.6</ele>
        <time>2020-09-09T13:16:29Z</time>
      </trkpt>
      <trkpt lat="44.84329" lon="-0.23043">
        <ele>46.7</ele>
        <time>2020-09-09T13:16:30Z</time>
      </trkpt>
      <trkpt lat="44.84329" lon="-0.23045">
        <ele>46.7</ele>
        <time>2020-09-09T13:16:31Z</time>
      </trkpt>
      <trkpt lat="44.84328" lon="-0.23047">
        <ele>46.7</ele>
        <time>2020-09-09T13:16:32Z</time>
      </trkpt>
      <trkpt lat="44.84328" lon="-0.23049">
        <ele>46.7</ele>
        <time>2020-09-09T13:16:34Z</time>
      </trkpt>
      <trkpt lat="44.84328" lon="-0.2305">
        <ele>46.7</ele>
        <time>2020-09-09T13:16:35Z</time>
      </trkpt>
      <trkpt lat="44.84328" lon="-0.23052">
        <ele>46.7</ele>
        <time>2020-09-09T13:16:37Z</time>
      </trkpt>
      <trkpt lat="44.84327" lon="-0.23053">
        <ele>46.8</ele>
        <time>2020-09-09T13:16:38Z</time>
      </trkpt>
      <trkpt lat="44.84326" lon="-0.23055">
        <ele>46.8</ele>
        <time>2020-09-09T13:16:40Z</time>
      </trkpt>
      <trkpt lat="44.84325" lon="-0.23056">
        <ele>46.8</ele>
        <time>2020-09-09T13:16:41Z</time>
      </trkpt>
      <trkpt lat="44.84323" lon="-0.23058">
        <ele>46.9</ele>
        <time>2020-09-09T13:16:43Z</time>
      </trkpt>
      <trkpt lat="44.84322" lon="-0.23058">
        <ele>46.9</ele>
        <time>2020-09-09T13:16:44Z</time>
      </trkpt>
      <trkpt lat="44.84322" lon="-0.23059">
        <ele>46.9</ele>
        <time>2020-09-09T13:16:45Z</time>
      </trkpt>
      <trkpt lat="44.84321" lon="-0.23061">
        <ele>47</ele>
        <time>2020-09-09T13:16:46Z</time>
      </trkpt>
      <trkpt lat="44.8432" lon="-0.23062">
        <ele>47</ele>
        <time>2020-09-09T13:16:47Z</time>
      </trkpt>
      <trkpt lat="44.8432" lon="-0.23065">
        <ele>46.9</ele>
        <time>2020-09-09T13:16:49Z</time>
      </trkpt>
      <trkpt lat="44.84319" lon="-0.23066">
        <ele>47</ele>
        <time>2020-09-09T13:16:51Z</time>
      </trkpt>
      <trkpt lat="44.84319" lon="-0.23066">
        <ele>47</ele>
        <time>2020-09-09T13:16:52Z</time>
      </trkpt>
      <trkpt lat="44.84317" lon="-0.23067">
        <ele>47</ele>
        <time>2020-09-09T13:16:53Z</time>
      </trkpt>
      <trkpt lat="44.84316" lon="-0.23067">
        <ele>47</ele>
        <time>2020-09-09T13:16:54Z</time>
      </trkpt>
      <trkpt lat="44.84314" lon="-0.23067">
        <ele>47.1</ele>
        <time>2020-09-09T13:16:55Z</time>
      </trkpt>
      <trkpt lat="44.84312" lon="-0.23066">
        <ele>47.1</ele>
        <time>2020-09-09T13:16:57Z</time>
      </trkpt>
      <trkpt lat="44.84311" lon="-0.23065">
        <ele>47.1</ele>
        <time>2020-09-09T13:16:58Z</time>
      </trkpt>
      <trkpt lat="44.8431" lon="-0.23066">
        <ele>47.1</ele>
        <time>2020-09-09T13:16:59Z</time>
      </trkpt>
      <trkpt lat="44.84309" lon="-0.23068">
        <ele>47.1</ele>
        <time>2020-09-09T13:17:01Z</time>
      </trkpt>
      <trkpt lat="44.84309" lon="-0.23068">
        <ele>47.1</ele>
        <time>2020-09-09T13:17:02Z</time>
      </trkpt>
      <trkpt lat="44.84309" lon="-0.2307">
        <ele>47.1</ele>
        <time>2020-09-09T13:17:04Z</time>
      </trkpt>
      <trkpt lat="44.84309" lon="-0.23072">
        <ele>47</ele>
        <time>2020-09-09T13:17:05Z</time>
      </trkpt>
      <trkpt lat="44.8431" lon="-0.23075">
        <ele>47</ele>
        <time>2020-09-09T13:17:06Z</time>
      </trkpt>
      <trkpt lat="44.84311" lon="-0.23077">
        <ele>46.9</ele>
        <time>2020-09-09T13:17:08Z</time>
      </trkpt>
      <trkpt lat="44.84312" lon="-0.23079">
        <ele>46.9</ele>
        <time>2020-09-09T13:17:09Z</time>
      </trkpt>
      <trkpt lat="44.84315" lon="-0.23082">
        <ele>46.8</ele>
        <time>2020-09-09T13:17:11Z</time>
      </trkpt>
      <trkpt lat="44.84317" lon="-0.23084">
        <ele>46.7</ele>
        <time>2020-09-09T13:17:12Z</time>
      </trkpt>
      <trkpt lat="44.84318" lon="-0.23084">
        <ele>46.7</ele>
        <time>2020-09-09T13:17:13Z</time>
      </trkpt>
      <trkpt lat="44.84319" lon="-0.23085">
        <ele>46.7</ele>
        <time>2020-09-09T13:17:14Z</time>
      </trkpt>
      <trkpt lat="44.84322" lon="-0.23087">
        <ele>46.6</ele>
        <time>2020-09-09T13:17:16Z</time>
      </trkpt>
      <trkpt lat="44.84323" lon="-0.23088">
        <ele>46.5</ele>
        <time>2020-09-09T13:17:18Z</time>
      </trkpt>
      <trkpt lat="44.84324" lon="-0.23089">
        <ele>46.5</ele>
        <time>2020-09-09T13:17:19Z</time>
      </trkpt>
      <trkpt lat="44.84327" lon="-0.23091">
        <ele>46.4</ele>
        <time>2020-09-09T13:17:20Z</time>
      </trkpt>
      <trkpt lat="44.84328" lon="-0.23092">
        <ele>46.3</ele>
        <time>2020-09-09T13:17:21Z</time>
      </trkpt>
      <trkpt lat="44.8433" lon="-0.23093">
        <ele>46.2</ele>
        <time>2020-09-09T13:17:23Z</time>
      </trkpt>
      <trkpt lat="44.84331" lon="-0.23093">
        <ele>46.2</ele>
        <time>2020-09-09T13:17:24Z</time>
      </trkpt>
      <trkpt lat="44.84332" lon="-0.23094">
        <ele>46.1</ele>
        <time>2020-09-09T13:17:25Z</time>
      </trkpt>
      <trkpt lat="44.84334" lon="-0.23095">
        <ele>46</ele>
        <time>2020-09-09T13:17:26Z</time>
      </trkpt>
      <trkpt lat="44.84336" lon="-0.23096">
        <ele>45.9</ele>
        <time>2020-09-09T13:17:28Z</time>
      </trkpt>
      <trkpt lat="44.84337" lon="-0.23096">
        <ele>45.9</ele>
        <time>2020-09-09T13:17:29Z</time>
      </trkpt>
      <trkpt lat="44.84338" lon="-0.23097">
        <ele>45.9</ele>
        <time>2020-09-09T13:17:30Z</time>
      </trkpt>
      <trkpt lat="44.8434" lon="-0.23098">
        <ele>45.8</ele>
        <time>2020-09-09T13:17:31Z</time>
      </trkpt>
      <trkpt lat="44.84341" lon="-0.23099">
        <ele>45.7</ele>
        <time>2020-09-09T13:17:32Z</time>
      </trkpt>
      <trkpt lat="44.84342" lon="-0.23099">
        <ele>45.7</ele>
        <time>2020-09-09T13:17:33Z</time>
      </trkpt>
      <trkpt lat="44.84343" lon="-0.231">
        <ele>45.6</ele>
        <time>2020-09-09T13:17:34Z</time>
      </trkpt>
      <trkpt lat="44.84345" lon="-0.23101">
        <ele>45.5</ele>
        <time>2020-09-09T13:17:36Z</time>
      </trkpt>
      <trkpt lat="44.84347" lon="-0.23103">
        <ele>45.4</ele>
        <time>2020-09-09T13:17:37Z</time>
      </trkpt>
      <trkpt lat="44.84347" lon="-0.23104">
        <ele>45.3</ele>
        <time>2020-09-09T13:17:38Z</time>
      </trkpt>
      <trkpt lat="44.84348" lon="-0.23105">
        <ele>45.3</ele>
        <time>2020-09-09T13:17:39Z</time>
      </trkpt>
      <trkpt lat="44.84349" lon="-0.23106">
        <ele>45.2</ele>
        <time>2020-09-09T13:17:41Z</time>
      </trkpt>
      <trkpt lat="44.8435" lon="-0.23107">
        <ele>45.2</ele>
        <time>2020-09-09T13:17:42Z</time>
      </trkpt>
      <trkpt lat="44.84352" lon="-0.23108">
        <ele>45</ele>
        <time>2020-09-09T13:17:44Z</time>
      </trkpt>
      <trkpt lat="44.84353" lon="-0.23109">
        <ele>45</ele>
        <time>2020-09-09T13:17:45Z</time>
      </trkpt>
      <trkpt lat="44.84354" lon="-0.2311">
        <ele>44.9</ele>
        <time>2020-09-09T13:17:46Z</time>
      </trkpt>
      <trkpt lat="44.84356" lon="-0.23112">
        <ele>44.8</ele>
        <time>2020-09-09T13:17:48Z</time>
      </trkpt>
      <trkpt lat="44.84356" lon="-0.23113">
        <ele>44.7</ele>
        <time>2020-09-09T13:17:49Z</time>
      </trkpt>
      <trkpt lat="44.84357" lon="-0.23114">
        <ele>44.7</ele>
        <time>2020-09-09T13:17:51Z</time>
      </trkpt>
      <trkpt lat="44.84358" lon="-0.23115">
        <ele>44.6</ele>
        <time>2020-09-09T13:17:52Z</time>
      </trkpt>
      <trkpt lat="44.8436" lon="-0.23116">
        <ele>44.5</ele>
        <time>2020-09-09T13:17:54Z</time>
      </trkpt>
      <trkpt lat="44.8436" lon="-0.23117">
        <ele>44.5</ele>
        <time>2020-09-09T13:17:55Z</time>
      </trkpt>
      <trkpt lat="44.84361" lon="-0.23118">
        <ele>44.5</ele>
        <time>2020-09-09T13:17:56Z</time>
      </trkpt>
      <trkpt lat="44.84362" lon="-0.23119">
        <ele>44.4</ele>
        <time>2020-09-09T13:17:57Z</time>
      </trkpt>
      <trkpt lat="44.84363" lon="-0.2312">
        <ele>44.4</ele>
        <time>2020-09-09T13:17:59Z</time>
      </trkpt>
      <trkpt lat="44.84365" lon="-0.23122">
        <ele>44.3</ele>
        <time>2020-09-09T13:18:00Z</time>
      </trkpt>
      <trkpt lat="44.84366" lon="-0.23123">
        <ele>44.3</ele>
        <time>2020-09-09T13:18:02Z</time>
      </trkpt>
      <trkpt lat="44.84366" lon="-0.23124">
        <ele>44.3</ele>
        <time>2020-09-09T13:18:04Z</time>
      </trkpt>
      <trkpt lat="44.84367" lon="-0.23125">
        <ele>44.2</ele>
        <time>2020-09-09T13:18:05Z</time>
      </trkpt>
      <trkpt lat="44.84368" lon="-0.23126">
        <ele>44.2</ele>
        <time>2020-09-09T13:18:06Z</time>
      </trkpt>
      <trkpt lat="44.84368" lon="-0.23127">
        <ele>44.2</ele>
        <time>2020-09-09T13:18:07Z</time>
      </trkpt>
      <trkpt lat="44.84369" lon="-0.23128">
        <ele>44.1</ele>
        <time>2020-09-09T13:18:08Z</time>
      </trkpt>
      <trkpt lat="44.84371" lon="-0.2313">
        <ele>44.1</ele>
        <time>2020-09-09T13:18:10Z</time>
      </trkpt>
      <trkpt lat="44.84373" lon="-0.23133">
        <ele>44</ele>
        <time>2020-09-09T13:18:11Z</time>
      </trkpt>
      <trkpt lat="44.84374" lon="-0.23135">
        <ele>43.9</ele>
        <time>2020-09-09T13:18:13Z</time>
      </trkpt>
      <trkpt lat="44.84375" lon="-0.23135">
        <ele>43.9</ele>
        <time>2020-09-09T13:18:14Z</time>
      </trkpt>
      <trkpt lat="44.84375" lon="-0.23136">
        <ele>43.8</ele>
        <time>2020-09-09T13:18:15Z</time>
      </trkpt>
      <trkpt lat="44.84376" lon="-0.23138">
        <ele>43.8</ele>
        <time>2020-09-09T13:18:16Z</time>
      </trkpt>
      <trkpt lat="44.84377" lon="-0.23138">
        <ele>43.8</ele>
        <time>2020-09-09T13:18:17Z</time>
      </trkpt>
      <trkpt lat="44.84377" lon="-0.23139">
        <ele>43.7</ele>
        <time>2020-09-09T13:18:18Z</time>
      </trkpt>
      <trkpt lat="44.84378" lon="-0.23139">
        <ele>43.7</ele>
        <time>2020-09-09T13:18:20Z</time>
      </trkpt>
      <trkpt lat="44.84379" lon="-0.2314">
        <ele>43.7</ele>
        <time>2020-09-09T13:18:21Z</time>
      </trkpt>
      <trkpt lat="44.8438" lon="-0.23141">
        <ele>43.6</ele>
        <time>2020-09-09T13:18:22Z</time>
      </trkpt>
      <trkpt lat="44.84381" lon="-0.23142">
        <ele>43.6</ele>
        <time>2020-09-09T13:18:23Z</time>
      </trkpt>
      <trkpt lat="44.84382" lon="-0.23144">
        <ele>43.5</ele>
        <time>2020-09-09T13:18:25Z</time>
      </trkpt>
      <trkpt lat="44.84383" lon="-0.23145">
        <ele>43.5</ele>
        <time>2020-09-09T13:18:26Z</time>
      </trkpt>
      <trkpt lat="44.84385" lon="-0.23149">
        <ele>43.4</ele>
        <time>2020-09-09T13:18:28Z</time>
      </trkpt>
      <trkpt lat="44.84385" lon="-0.2315">
        <ele>43.4</ele>
        <time>2020-09-09T13:18:29Z</time>
      </trkpt>
      <trkpt lat="44.84386" lon="-0.23151">
        <ele>43.4</ele>
        <time>2020-09-09T13:18:30Z</time>
      </trkpt>
      <trkpt lat="44.84387" lon="-0.23152">
        <ele>43.3</ele>
        <time>2020-09-09T13:18:31Z</time>
      </trkpt>
      <trkpt lat="44.84387" lon="-0.23153">
        <ele>43.3</ele>
        <time>2020-09-09T13:18:32Z</time>
      </trkpt>
      <trkpt lat="44.84388" lon="-0.23154">
        <ele>43.3</ele>
        <time>2020-09-09T13:18:33Z</time>
      </trkpt>
      <trkpt lat="44.84389" lon="-0.23155">
        <ele>43.3</ele>
        <time>2020-09-09T13:18:34Z</time>
      </trkpt>
      <trkpt lat="44.8439" lon="-0.23156">
        <ele>43.2</ele>
        <time>2020-09-09T13:18:36Z</time>
      </trkpt>
      <trkpt lat="44.84392" lon="-0.23157">
        <ele>43.2</ele>
        <time>2020-09-09T13:18:37Z</time>
      </trkpt>
      <trkpt lat="44.84393" lon="-0.23157">
        <ele>43.1</ele>
        <time>2020-09-09T13:18:38Z</time>
      </trkpt>
      <trkpt lat="44.84393" lon="-0.23158">
        <ele>43.1</ele>
        <time>2020-09-09T13:18:39Z</time>
      </trkpt>
      <trkpt lat="44.84394" lon="-0.23158">
        <ele>43.1</ele>
        <time>2020-09-09T13:18:40Z</time>
      </trkpt>
      <trkpt lat="44.84395" lon="-0.2316">
        <ele>43.1</ele>
        <time>2020-09-09T13:18:41Z</time>
      </trkpt>
      <trkpt lat="44.84396" lon="-0.23161">
        <ele>43</ele>
        <time>2020-09-09T13:18:42Z</time>
      </trkpt>
      <trkpt lat="44.84397" lon="-0.23162">
        <ele>43</ele>
        <time>2020-09-09T13:18:43Z</time>
      </trkpt>
      <trkpt lat="44.84398" lon="-0.23162">
        <ele>43</ele>
        <time>2020-09-09T13:18:44Z</time>
      </trkpt>
      <trkpt lat="44.84399" lon="-0.23162">
        <ele>42.9</ele>
        <time>2020-09-09T13:18:45Z</time>
      </trkpt>
      <trkpt lat="44.844" lon="-0.23162">
        <ele>42.9</ele>
        <time>2020-09-09T13:18:47Z</time>
      </trkpt>
      <trkpt lat="44.84401" lon="-0.23163">
        <ele>42.9</ele>
        <time>2020-09-09T13:18:48Z</time>
      </trkpt>
      <trkpt lat="44.84402" lon="-0.23163">
        <ele>42.8</ele>
        <time>2020-09-09T13:18:49Z</time>
      </trkpt>
      <trkpt lat="44.84403" lon="-0.23164">
        <ele>42.8</ele>
        <time>2020-09-09T13:18:50Z</time>
      </trkpt>
      <trkpt lat="44.84404" lon="-0.23164">
        <ele>42.7</ele>
        <time>2020-09-09T13:18:51Z</time>
      </trkpt>
      <trkpt lat="44.84405" lon="-0.23165">
        <ele>42.7</ele>
        <time>2020-09-09T13:18:53Z</time>
      </trkpt>
      <trkpt lat="44.84405" lon="-0.23165">
        <ele>42.7</ele>
        <time>2020-09-09T13:18:54Z</time>
      </trkpt>
      <trkpt lat="44.84406" lon="-0.23166">
        <ele>42.6</ele>
        <time>2020-09-09T13:18:55Z</time>
      </trkpt>
      <trkpt lat="44.84407" lon="-0.23166">
        <ele>42.6</ele>
        <time>2020-09-09T13:18:56Z</time>
      </trkpt>
      <trkpt lat="44.84409" lon="-0.23167">
        <ele>42.5</ele>
        <time>2020-09-09T13:18:58Z</time>
      </trkpt>
      <trkpt lat="44.8441" lon="-0.23167">
        <ele>42.4</ele>
        <time>2020-09-09T13:18:59Z</time>
      </trkpt>
      <trkpt lat="44.84411" lon="-0.23167">
        <ele>42.4</ele>
        <time>2020-09-09T13:19:00Z</time>
      </trkpt>
      <trkpt lat="44.84413" lon="-0.23168">
        <ele>42.3</ele>
        <time>2020-09-09T13:19:02Z</time>
      </trkpt>
      <trkpt lat="44.84414" lon="-0.23169">
        <ele>42.2</ele>
        <time>2020-09-09T13:19:03Z</time>
      </trkpt>
      <trkpt lat="44.84415" lon="-0.23169">
        <ele>42.2</ele>
        <time>2020-09-09T13:19:04Z</time>
      </trkpt>
      <trkpt lat="44.84417" lon="-0.23169">
        <ele>42.1</ele>
        <time>2020-09-09T13:19:06Z</time>
      </trkpt>
      <trkpt lat="44.84419" lon="-0.2317">
        <ele>42</ele>
        <time>2020-09-09T13:19:08Z</time>
      </trkpt>
      <trkpt lat="44.8442" lon="-0.2317">
        <ele>42</ele>
        <time>2020-09-09T13:19:09Z</time>
      </trkpt>
      <trkpt lat="44.84421" lon="-0.2317">
        <ele>42</ele>
        <time>2020-09-09T13:19:10Z</time>
      </trkpt>
      <trkpt lat="44.84422" lon="-0.2317">
        <ele>41.9</ele>
        <time>2020-09-09T13:19:11Z</time>
      </trkpt>
      <trkpt lat="44.84424" lon="-0.23171">
        <ele>41.9</ele>
        <time>2020-09-09T13:19:12Z</time>
      </trkpt>
      <trkpt lat="44.84425" lon="-0.23171">
        <ele>41.8</ele>
        <time>2020-09-09T13:19:14Z</time>
      </trkpt>
      <trkpt lat="44.84427" lon="-0.23172">
        <ele>41.7</ele>
        <time>2020-09-09T13:19:15Z</time>
      </trkpt>
      <trkpt lat="44.84429" lon="-0.23172">
        <ele>41.6</ele>
        <time>2020-09-09T13:19:16Z</time>
      </trkpt>
      <trkpt lat="44.8443" lon="-0.23172">
        <ele>41.6</ele>
        <time>2020-09-09T13:19:17Z</time>
      </trkpt>
      <trkpt lat="44.84431" lon="-0.23172">
        <ele>41.5</ele>
        <time>2020-09-09T13:19:18Z</time>
      </trkpt>
      <trkpt lat="44.84432" lon="-0.23172">
        <ele>41.5</ele>
        <time>2020-09-09T13:19:19Z</time>
      </trkpt>
      <trkpt lat="44.84433" lon="-0.23173">
        <ele>41.4</ele>
        <time>2020-09-09T13:19:20Z</time>
      </trkpt>
      <trkpt lat="44.84434" lon="-0.23173">
        <ele>41.4</ele>
        <time>2020-09-09T13:19:21Z</time>
      </trkpt>
      <trkpt lat="44.84435" lon="-0.23173">
        <ele>41.3</ele>
        <time>2020-09-09T13:19:22Z</time>
      </trkpt>
      <trkpt lat="44.84437" lon="-0.23173">
        <ele>41.2</ele>
        <time>2020-09-09T13:19:23Z</time>
      </trkpt>
      <trkpt lat="44.84438" lon="-0.23173">
        <ele>41.2</ele>
        <time>2020-09-09T13:19:25Z</time>
      </trkpt>
      <trkpt lat="44.8444" lon="-0.23172">
        <ele>41.1</ele>
        <time>2020-09-09T13:19:26Z</time>
      </trkpt>
      <trkpt lat="44.84441" lon="-0.23172">
        <ele>41.1</ele>
        <time>2020-09-09T13:19:27Z</time>
      </trkpt>
      <trkpt lat="44.84442" lon="-0.23172">
        <ele>41</ele>
        <time>2020-09-09T13:19:28Z</time>
      </trkpt>
      <trkpt lat="44.84443" lon="-0.23172">
        <ele>41</ele>
        <time>2020-09-09T13:19:29Z</time>
      </trkpt>
      <trkpt lat="44.84445" lon="-0.23172">
        <ele>40.9</ele>
        <time>2020-09-09T13:19:31Z</time>
      </trkpt>
      <trkpt lat="44.84447" lon="-0.23172">
        <ele>40.9</ele>
        <time>2020-09-09T13:19:32Z</time>
      </trkpt>
      <trkpt lat="44.84448" lon="-0.23171">
        <ele>40.9</ele>
        <time>2020-09-09T13:19:34Z</time>
      </trkpt>
      <trkpt lat="44.84449" lon="-0.23171">
        <ele>40.9</ele>
        <time>2020-09-09T13:19:35Z</time>
      </trkpt>
      <trkpt lat="44.84451" lon="-0.23171">
        <ele>40.8</ele>
        <time>2020-09-09T13:19:36Z</time>
      </trkpt>
      <trkpt lat="44.84452" lon="-0.23171">
        <ele>40.8</ele>
        <time>2020-09-09T13:19:37Z</time>
      </trkpt>
      <trkpt lat="44.84453" lon="-0.23171">
        <ele>40.8</ele>
        <time>2020-09-09T13:19:38Z</time>
      </trkpt>
      <trkpt lat="44.84454" lon="-0.23171">
        <ele>40.8</ele>
        <time>2020-09-09T13:19:39Z</time>
      </trkpt>
      <trkpt lat="44.84456" lon="-0.23171">
        <ele>40.8</ele>
        <time>2020-09-09T13:19:41Z</time>
      </trkpt>
      <trkpt lat="44.84457" lon="-0.23171">
        <ele>40.7</ele>
        <time>2020-09-09T13:19:42Z</time>
      </trkpt>
      <trkpt lat="44.84458" lon="-0.23171">
        <ele>40.7</ele>
        <time>2020-09-09T13:19:43Z</time>
      </trkpt>
      <trkpt lat="44.8446" lon="-0.23171">
        <ele>40.6</ele>
        <time>2020-09-09T13:19:44Z</time>
      </trkpt>
      <trkpt lat="44.84461" lon="-0.23171">
        <ele>40.6</ele>
        <time>2020-09-09T13:19:46Z</time>
      </trkpt>
      <trkpt lat="44.84462" lon="-0.23171">
        <ele>40.6</ele>
        <time>2020-09-09T13:19:47Z</time>
      </trkpt>
      <trkpt lat="44.84463" lon="-0.23172">
        <ele>40.5</ele>
        <time>2020-09-09T13:19:48Z</time>
      </trkpt>
      <trkpt lat="44.84464" lon="-0.23172">
        <ele>40.5</ele>
        <time>2020-09-09T13:19:49Z</time>
      </trkpt>
      <trkpt lat="44.84465" lon="-0.23172">
        <ele>40.4</ele>
        <time>2020-09-09T13:19:50Z</time>
      </trkpt>
      <trkpt lat="44.84466" lon="-0.23171">
        <ele>40.4</ele>
        <time>2020-09-09T13:19:51Z</time>
      </trkpt>
      <trkpt lat="44.84468" lon="-0.23171">
        <ele>40.3</ele>
        <time>2020-09-09T13:19:52Z</time>
      </trkpt>
      <trkpt lat="44.84469" lon="-0.23171">
        <ele>40.2</ele>
        <time>2020-09-09T13:19:53Z</time>
      </trkpt>
      <trkpt lat="44.84469" lon="-0.23171">
        <ele>40.2</ele>
        <time>2020-09-09T13:19:54Z</time>
      </trkpt>
      <trkpt lat="44.84471" lon="-0.23171">
        <ele>40.1</ele>
        <time>2020-09-09T13:19:55Z</time>
      </trkpt>
      <trkpt lat="44.84472" lon="-0.23171">
        <ele>40</ele>
        <time>2020-09-09T13:19:57Z</time>
      </trkpt>
      <trkpt lat="44.84474" lon="-0.23171">
        <ele>39.8</ele>
        <time>2020-09-09T13:19:58Z</time>
      </trkpt>
      <trkpt lat="44.84475" lon="-0.23171">
        <ele>39.7</ele>
        <time>2020-09-09T13:20:00Z</time>
      </trkpt>
      <trkpt lat="44.84476" lon="-0.23171">
        <ele>39.6</ele>
        <time>2020-09-09T13:20:01Z</time>
      </trkpt>
      <trkpt lat="44.84477" lon="-0.23171">
        <ele>39.5</ele>
        <time>2020-09-09T13:20:02Z</time>
      </trkpt>
      <trkpt lat="44.84478" lon="-0.23171">
        <ele>39.4</ele>
        <time>2020-09-09T13:20:03Z</time>
      </trkpt>
      <trkpt lat="44.8448" lon="-0.23171">
        <ele>39.2</ele>
        <time>2020-09-09T13:20:05Z</time>
      </trkpt>
      <trkpt lat="44.84481" lon="-0.23171">
        <ele>39.2</ele>
        <time>2020-09-09T13:20:06Z</time>
      </trkpt>
      <trkpt lat="44.84482" lon="-0.23172">
        <ele>39</ele>
        <time>2020-09-09T13:20:07Z</time>
      </trkpt>
      <trkpt lat="44.84483" lon="-0.23172">
        <ele>39</ele>
        <time>2020-09-09T13:20:08Z</time>
      </trkpt>
      <trkpt lat="44.84484" lon="-0.23172">
        <ele>38.9</ele>
        <time>2020-09-09T13:20:09Z</time>
      </trkpt>
      <trkpt lat="44.84485" lon="-0.23172">
        <ele>38.8</ele>
        <time>2020-09-09T13:20:10Z</time>
      </trkpt>
      <trkpt lat="44.84486" lon="-0.23172">
        <ele>38.7</ele>
        <time>2020-09-09T13:20:11Z</time>
      </trkpt>
      <trkpt lat="44.84488" lon="-0.23172">
        <ele>38.6</ele>
        <time>2020-09-09T13:20:13Z</time>
      </trkpt>
      <trkpt lat="44.84487" lon="-0.23172">
        <ele>38.6</ele>
        <time>2020-09-09T13:20:15Z</time>
      </trkpt>
      <trkpt lat="44.84487" lon="-0.23172">
        <ele>38.6</ele>
        <time>2020-09-09T13:20:16Z</time>
      </trkpt>
      <trkpt lat="44.84487" lon="-0.23172">
        <ele>38.6</ele>
        <time>2020-09-09T13:20:17Z</time>
      </trkpt>
      <trkpt lat="44.84487" lon="-0.23172">
        <ele>38.5</ele>
        <time>2020-09-09T13:20:20Z</time>
      </trkpt>
      <trkpt lat="44.84487" lon="-0.23172">
        <ele>38.5</ele>
        <time>2020-09-09T13:20:21Z</time>
      </trkpt>
      <trkpt lat="44.84488" lon="-0.23172">
        <ele>38.5</ele>
        <time>2020-09-09T13:20:23Z</time>
      </trkpt>
      <trkpt lat="44.84488" lon="-0.23172">
        <ele>38.5</ele>
        <time>2020-09-09T13:20:25Z</time>
      </trkpt>
      <trkpt lat="44.84488" lon="-0.23172">
        <ele>38.5</ele>
        <time>2020-09-09T13:20:26Z</time>
      </trkpt>
      <trkpt lat="44.84489" lon="-0.23172">
        <ele>38.4</ele>
        <time>2020-09-09T13:20:27Z</time>
      </trkpt>
      <trkpt lat="44.8449" lon="-0.23172">
        <ele>38.4</ele>
        <time>2020-09-09T13:20:28Z</time>
      </trkpt>
      <trkpt lat="44.84491" lon="-0.23173">
        <ele>38.3</ele>
        <time>2020-09-09T13:20:29Z</time>
      </trkpt>
      <trkpt lat="44.84494" lon="-0.23173">
        <ele>38.2</ele>
        <time>2020-09-09T13:20:30Z</time>
      </trkpt>
      <trkpt lat="44.84494" lon="-0.23174">
        <ele>38.2</ele>
        <time>2020-09-09T13:20:32Z</time>
      </trkpt>
      <trkpt lat="44.84495" lon="-0.23174">
        <ele>38.2</ele>
        <time>2020-09-09T13:20:33Z</time>
      </trkpt>
      <trkpt lat="44.84497" lon="-0.23174">
        <ele>38.1</ele>
        <time>2020-09-09T13:20:34Z</time>
      </trkpt>
      <trkpt lat="44.84498" lon="-0.23174">
        <ele>38.1</ele>
        <time>2020-09-09T13:20:36Z</time>
      </trkpt>
      <trkpt lat="44.84499" lon="-0.23175">
        <ele>38</ele>
        <time>2020-09-09T13:20:37Z</time>
      </trkpt>
      <trkpt lat="44.845" lon="-0.23175">
        <ele>37.9</ele>
        <time>2020-09-09T13:20:38Z</time>
      </trkpt>
      <trkpt lat="44.84501" lon="-0.23175">
        <ele>37.9</ele>
        <time>2020-09-09T13:20:39Z</time>
      </trkpt>
      <trkpt lat="44.84502" lon="-0.23175">
        <ele>37.9</ele>
        <time>2020-09-09T13:20:40Z</time>
      </trkpt>
      <trkpt lat="44.84503" lon="-0.23175">
        <ele>37.8</ele>
        <time>2020-09-09T13:20:41Z</time>
      </trkpt>
      <trkpt lat="44.84504" lon="-0.23175">
        <ele>37.8</ele>
        <time>2020-09-09T13:20:43Z</time>
      </trkpt>
      <trkpt lat="44.84504" lon="-0.23175">
        <ele>37.8</ele>
        <time>2020-09-09T13:20:44Z</time>
      </trkpt>
      <trkpt lat="44.84505" lon="-0.23175">
        <ele>37.7</ele>
        <time>2020-09-09T13:20:45Z</time>
      </trkpt>
      <trkpt lat="44.84507" lon="-0.23175">
        <ele>37.6</ele>
        <time>2020-09-09T13:20:47Z</time>
      </trkpt>
      <trkpt lat="44.84508" lon="-0.23176">
        <ele>37.6</ele>
        <time>2020-09-09T13:20:49Z</time>
      </trkpt>
      <trkpt lat="44.8451" lon="-0.23176">
        <ele>37.5</ele>
        <time>2020-09-09T13:20:50Z</time>
      </trkpt>
      <trkpt lat="44.8451" lon="-0.23176">
        <ele>37.5</ele>
        <time>2020-09-09T13:20:51Z</time>
      </trkpt>
      <trkpt lat="44.84511" lon="-0.23177">
        <ele>37.5</ele>
        <time>2020-09-09T13:20:52Z</time>
      </trkpt>
      <trkpt lat="44.84514" lon="-0.23177">
        <ele>37.4</ele>
        <time>2020-09-09T13:20:53Z</time>
      </trkpt>
      <trkpt lat="44.84514" lon="-0.23177">
        <ele>37.4</ele>
        <time>2020-09-09T13:20:54Z</time>
      </trkpt>
      <trkpt lat="44.84515" lon="-0.23177">
        <ele>37.3</ele>
        <time>2020-09-09T13:20:55Z</time>
      </trkpt>
      <trkpt lat="44.84517" lon="-0.23177">
        <ele>37.2</ele>
        <time>2020-09-09T13:20:56Z</time>
      </trkpt>
      <trkpt lat="44.84518" lon="-0.23177">
        <ele>37.2</ele>
        <time>2020-09-09T13:20:58Z</time>
      </trkpt>
      <trkpt lat="44.84519" lon="-0.23177">
        <ele>37.2</ele>
        <time>2020-09-09T13:20:59Z</time>
      </trkpt>
      <trkpt lat="44.8452" lon="-0.23177">
        <ele>37.1</ele>
        <time>2020-09-09T13:21:00Z</time>
      </trkpt>
      <trkpt lat="44.84521" lon="-0.23177">
        <ele>37.1</ele>
        <time>2020-09-09T13:21:02Z</time>
      </trkpt>
      <trkpt lat="44.84522" lon="-0.23177">
        <ele>37</ele>
        <time>2020-09-09T13:21:03Z</time>
      </trkpt>
      <trkpt lat="44.84526" lon="-0.23177">
        <ele>36.9</ele>
        <time>2020-09-09T13:21:05Z</time>
      </trkpt>
      <trkpt lat="44.84527" lon="-0.23177">
        <ele>36.9</ele>
        <time>2020-09-09T13:21:06Z</time>
      </trkpt>
      <trkpt lat="44.84528" lon="-0.23177">
        <ele>36.8</ele>
        <time>2020-09-09T13:21:07Z</time>
      </trkpt>
      <trkpt lat="44.84529" lon="-0.23177">
        <ele>36.8</ele>
        <time>2020-09-09T13:21:08Z</time>
      </trkpt>
      <trkpt lat="44.8453" lon="-0.23177">
        <ele>36.7</ele>
        <time>2020-09-09T13:21:09Z</time>
      </trkpt>
      <trkpt lat="44.84533" lon="-0.23177">
        <ele>36.6</ele>
        <time>2020-09-09T13:21:11Z</time>
      </trkpt>
      <trkpt lat="44.84534" lon="-0.23177">
        <ele>36.6</ele>
        <time>2020-09-09T13:21:12Z</time>
      </trkpt>
      <trkpt lat="44.84535" lon="-0.23176">
        <ele>36.6</ele>
        <time>2020-09-09T13:21:13Z</time>
      </trkpt>
      <trkpt lat="44.84536" lon="-0.23176">
        <ele>36.5</ele>
        <time>2020-09-09T13:21:14Z</time>
      </trkpt>
      <trkpt lat="44.84538" lon="-0.23176">
        <ele>36.5</ele>
        <time>2020-09-09T13:21:16Z</time>
      </trkpt>
      <trkpt lat="44.8454" lon="-0.23176">
        <ele>36.4</ele>
        <time>2020-09-09T13:21:17Z</time>
      </trkpt>
      <trkpt lat="44.84542" lon="-0.23176">
        <ele>36.4</ele>
        <time>2020-09-09T13:21:19Z</time>
      </trkpt>
      <trkpt lat="44.84543" lon="-0.23176">
        <ele>36.3</ele>
        <time>2020-09-09T13:21:20Z</time>
      </trkpt>
      <trkpt lat="44.84545" lon="-0.23176">
        <ele>36.3</ele>
        <time>2020-09-09T13:21:21Z</time>
      </trkpt>
      <trkpt lat="44.84546" lon="-0.23176">
        <ele>36.2</ele>
        <time>2020-09-09T13:21:22Z</time>
      </trkpt>
      <trkpt lat="44.84547" lon="-0.23176">
        <ele>36.2</ele>
        <time>2020-09-09T13:21:24Z</time>
      </trkpt>
      <trkpt lat="44.84549" lon="-0.23176">
        <ele>36.1</ele>
        <time>2020-09-09T13:21:25Z</time>
      </trkpt>
      <trkpt lat="44.84551" lon="-0.23176">
        <ele>36</ele>
        <time>2020-09-09T13:21:26Z</time>
      </trkpt>
      <trkpt lat="44.84553" lon="-0.23176">
        <ele>35.9</ele>
        <time>2020-09-09T13:21:27Z</time>
      </trkpt>
      <trkpt lat="44.84554" lon="-0.23176">
        <ele>35.9</ele>
        <time>2020-09-09T13:21:28Z</time>
      </trkpt>
      <trkpt lat="44.84557" lon="-0.23176">
        <ele>35.7</ele>
        <time>2020-09-09T13:21:29Z</time>
      </trkpt>
      <trkpt lat="44.84558" lon="-0.23177">
        <ele>35.7</ele>
        <time>2020-09-09T13:21:30Z</time>
      </trkpt>
      <trkpt lat="44.8456" lon="-0.23177">
        <ele>35.6</ele>
        <time>2020-09-09T13:21:31Z</time>
      </trkpt>
      <trkpt lat="44.84562" lon="-0.23177">
        <ele>35.5</ele>
        <time>2020-09-09T13:21:33Z</time>
      </trkpt>
      <trkpt lat="44.84564" lon="-0.23177">
        <ele>35.4</ele>
        <time>2020-09-09T13:21:34Z</time>
      </trkpt>
      <trkpt lat="44.84567" lon="-0.23177">
        <ele>35.3</ele>
        <time>2020-09-09T13:21:36Z</time>
      </trkpt>
      <trkpt lat="44.84569" lon="-0.23177">
        <ele>35.2</ele>
        <time>2020-09-09T13:21:37Z</time>
      </trkpt>
      <trkpt lat="44.8457" lon="-0.23177">
        <ele>35.1</ele>
        <time>2020-09-09T13:21:38Z</time>
      </trkpt>
      <trkpt lat="44.84572" lon="-0.23177">
        <ele>35</ele>
        <time>2020-09-09T13:21:39Z</time>
      </trkpt>
      <trkpt lat="44.84573" lon="-0.23176">
        <ele>35</ele>
        <time>2020-09-09T13:21:40Z</time>
      </trkpt>
      <trkpt lat="44.84574" lon="-0.23176">
        <ele>34.9</ele>
        <time>2020-09-09T13:21:41Z</time>
      </trkpt>
      <trkpt lat="44.84576" lon="-0.23176">
        <ele>34.8</ele>
        <time>2020-09-09T13:21:43Z</time>
      </trkpt>
      <trkpt lat="44.84577" lon="-0.23176">
        <ele>34.8</ele>
        <time>2020-09-09T13:21:44Z</time>
      </trkpt>
      <trkpt lat="44.84578" lon="-0.23176">
        <ele>34.8</ele>
        <time>2020-09-09T13:21:45Z</time>
      </trkpt>
      <trkpt lat="44.84579" lon="-0.23175">
        <ele>34.7</ele>
        <time>2020-09-09T13:21:46Z</time>
      </trkpt>
      <trkpt lat="44.84581" lon="-0.23175">
        <ele>34.6</ele>
        <time>2020-09-09T13:21:48Z</time>
      </trkpt>
      <trkpt lat="44.84582" lon="-0.23174">
        <ele>34.6</ele>
        <time>2020-09-09T13:21:49Z</time>
      </trkpt>
      <trkpt lat="44.84585" lon="-0.23174">
        <ele>34.5</ele>
        <time>2020-09-09T13:21:51Z</time>
      </trkpt>
      <trkpt lat="44.84587" lon="-0.23173">
        <ele>34.4</ele>
        <time>2020-09-09T13:21:52Z</time>
      </trkpt>
      <trkpt lat="44.84588" lon="-0.23172">
        <ele>34.4</ele>
        <time>2020-09-09T13:21:53Z</time>
      </trkpt>
      <trkpt lat="44.84588" lon="-0.23172">
        <ele>34.4</ele>
        <time>2020-09-09T13:21:54Z</time>
      </trkpt>
      <trkpt lat="44.84589" lon="-0.23172">
        <ele>34.3</ele>
        <time>2020-09-09T13:21:55Z</time>
      </trkpt>
      <trkpt lat="44.84591" lon="-0.23171">
        <ele>34.2</ele>
        <time>2020-09-09T13:21:57Z</time>
      </trkpt>
      <trkpt lat="44.84592" lon="-0.2317">
        <ele>34.2</ele>
        <time>2020-09-09T13:21:58Z</time>
      </trkpt>
      <trkpt lat="44.84594" lon="-0.2317">
        <ele>34.1</ele>
        <time>2020-09-09T13:21:59Z</time>
      </trkpt>
      <trkpt lat="44.84595" lon="-0.23171">
        <ele>34</ele>
        <time>2020-09-09T13:22:01Z</time>
      </trkpt>
      <trkpt lat="44.84597" lon="-0.23171">
        <ele>34</ele>
        <time>2020-09-09T13:22:02Z</time>
      </trkpt>
      <trkpt lat="44.84598" lon="-0.23174">
        <ele>33.9</ele>
        <time>2020-09-09T13:22:04Z</time>
      </trkpt>
      <trkpt lat="44.84599" lon="-0.23175">
        <ele>33.9</ele>
        <time>2020-09-09T13:22:05Z</time>
      </trkpt>
      <trkpt lat="44.846" lon="-0.23177">
        <ele>33.9</ele>
        <time>2020-09-09T13:22:06Z</time>
      </trkpt>
      <trkpt lat="44.84601" lon="-0.2318">
        <ele>33.9</ele>
        <time>2020-09-09T13:22:08Z</time>
      </trkpt>
      <trkpt lat="44.84601" lon="-0.23182">
        <ele>33.9</ele>
        <time>2020-09-09T13:22:09Z</time>
      </trkpt>
      <trkpt lat="44.84602" lon="-0.23184">
        <ele>33.8</ele>
        <time>2020-09-09T13:22:10Z</time>
      </trkpt>
      <trkpt lat="44.84602" lon="-0.23186">
        <ele>33.8</ele>
        <time>2020-09-09T13:22:11Z</time>
      </trkpt>
      <trkpt lat="44.84603" lon="-0.23189">
        <ele>33.9</ele>
        <time>2020-09-09T13:22:12Z</time>
      </trkpt>
      <trkpt lat="44.84603" lon="-0.2319">
        <ele>33.9</ele>
        <time>2020-09-09T13:22:13Z</time>
      </trkpt>
      <trkpt lat="44.84604" lon="-0.23193">
        <ele>33.9</ele>
        <time>2020-09-09T13:22:15Z</time>
      </trkpt>
      <trkpt lat="44.84604" lon="-0.23195">
        <ele>33.8</ele>
        <time>2020-09-09T13:22:16Z</time>
      </trkpt>
      <trkpt lat="44.84605" lon="-0.23196">
        <ele>33.8</ele>
        <time>2020-09-09T13:22:17Z</time>
      </trkpt>
      <trkpt lat="44.84605" lon="-0.23197">
        <ele>33.8</ele>
        <time>2020-09-09T13:22:18Z</time>
      </trkpt>
      <trkpt lat="44.84606" lon="-0.23198">
        <ele>33.8</ele>
        <time>2020-09-09T13:22:19Z</time>
      </trkpt>
      <trkpt lat="44.84606" lon="-0.23199">
        <ele>33.8</ele>
        <time>2020-09-09T13:22:20Z</time>
      </trkpt>
      <trkpt lat="44.84607" lon="-0.232">
        <ele>33.8</ele>
        <time>2020-09-09T13:22:21Z</time>
      </trkpt>
      <trkpt lat="44.84607" lon="-0.23202">
        <ele>33.8</ele>
        <time>2020-09-09T13:22:23Z</time>
      </trkpt>
      <trkpt lat="44.84608" lon="-0.23203">
        <ele>33.8</ele>
        <time>2020-09-09T13:22:24Z</time>
      </trkpt>
      <trkpt lat="44.84608" lon="-0.23204">
        <ele>33.8</ele>
        <time>2020-09-09T13:22:25Z</time>
      </trkpt>
      <trkpt lat="44.84609" lon="-0.23206">
        <ele>33.8</ele>
        <time>2020-09-09T13:22:26Z</time>
      </trkpt>
      <trkpt lat="44.8461" lon="-0.23208">
        <ele>33.8</ele>
        <time>2020-09-09T13:22:27Z</time>
      </trkpt>
      <trkpt lat="44.84611" lon="-0.2321">
        <ele>33.8</ele>
        <time>2020-09-09T13:22:28Z</time>
      </trkpt>
      <trkpt lat="44.84611" lon="-0.23211">
        <ele>33.8</ele>
        <time>2020-09-09T13:22:29Z</time>
      </trkpt>
      <trkpt lat="44.84612" lon="-0.23213">
        <ele>33.8</ele>
        <time>2020-09-09T13:22:31Z</time>
      </trkpt>
      <trkpt lat="44.84612" lon="-0.23214">
        <ele>33.8</ele>
        <time>2020-09-09T13:22:32Z</time>
      </trkpt>
      <trkpt lat="44.84613" lon="-0.23215">
        <ele>33.8</ele>
        <time>2020-09-09T13:22:33Z</time>
      </trkpt>
      <trkpt lat="44.84613" lon="-0.23216">
        <ele>33.8</ele>
        <time>2020-09-09T13:22:34Z</time>
      </trkpt>
      <trkpt lat="44.84615" lon="-0.2322">
        <ele>33.8</ele>
        <time>2020-09-09T13:22:35Z</time>
      </trkpt>
      <trkpt lat="44.84615" lon="-0.23221">
        <ele>33.8</ele>
        <time>2020-09-09T13:22:37Z</time>
      </trkpt>
      <trkpt lat="44.84616" lon="-0.23223">
        <ele>33.8</ele>
        <time>2020-09-09T13:22:39Z</time>
      </trkpt>
      <trkpt lat="44.84617" lon="-0.23225">
        <ele>33.8</ele>
        <time>2020-09-09T13:22:40Z</time>
      </trkpt>
      <trkpt lat="44.84618" lon="-0.23227">
        <ele>33.8</ele>
        <time>2020-09-09T13:22:41Z</time>
      </trkpt>
      <trkpt lat="44.84619" lon="-0.23229">
        <ele>33.8</ele>
        <time>2020-09-09T13:22:43Z</time>
      </trkpt>
      <trkpt lat="44.84621" lon="-0.23232">
        <ele>33.8</ele>
        <time>2020-09-09T13:22:44Z</time>
      </trkpt>
      <trkpt lat="44.84621" lon="-0.23233">
        <ele>33.8</ele>
        <time>2020-09-09T13:22:45Z</time>
      </trkpt>
      <trkpt lat="44.84622" lon="-0.23234">
        <ele>33.8</ele>
        <time>2020-09-09T13:22:46Z</time>
      </trkpt>
      <trkpt lat="44.84623" lon="-0.23237">
        <ele>33.8</ele>
        <time>2020-09-09T13:22:48Z</time>
      </trkpt>
      <trkpt lat="44.84623" lon="-0.23238">
        <ele>33.8</ele>
        <time>2020-09-09T13:22:50Z</time>
      </trkpt>
      <trkpt lat="44.84624" lon="-0.2324">
        <ele>33.8</ele>
        <time>2020-09-09T13:22:51Z</time>
      </trkpt>
      <trkpt lat="44.84624" lon="-0.23242">
        <ele>33.8</ele>
        <time>2020-09-09T13:22:53Z</time>
      </trkpt>
      <trkpt lat="44.84625" lon="-0.23245">
        <ele>33.8</ele>
        <time>2020-09-09T13:22:54Z</time>
      </trkpt>
      <trkpt lat="44.84625" lon="-0.23246">
        <ele>33.8</ele>
        <time>2020-09-09T13:22:55Z</time>
      </trkpt>
      <trkpt lat="44.84625" lon="-0.23247">
        <ele>33.8</ele>
        <time>2020-09-09T13:22:56Z</time>
      </trkpt>
      <trkpt lat="44.84626" lon="-0.23249">
        <ele>33.8</ele>
        <time>2020-09-09T13:22:57Z</time>
      </trkpt>
      <trkpt lat="44.84626" lon="-0.2325">
        <ele>33.8</ele>
        <time>2020-09-09T13:22:58Z</time>
      </trkpt>
      <trkpt lat="44.84627" lon="-0.23253">
        <ele>33.8</ele>
        <time>2020-09-09T13:23:00Z</time>
      </trkpt>
      <trkpt lat="44.84628" lon="-0.23254">
        <ele>33.8</ele>
        <time>2020-09-09T13:23:01Z</time>
      </trkpt>
      <trkpt lat="44.84629" lon="-0.23255">
        <ele>33.8</ele>
        <time>2020-09-09T13:23:02Z</time>
      </trkpt>
      <trkpt lat="44.84629" lon="-0.23256">
        <ele>33.8</ele>
        <time>2020-09-09T13:23:03Z</time>
      </trkpt>
      <trkpt lat="44.8463" lon="-0.23257">
        <ele>33.8</ele>
        <time>2020-09-09T13:23:04Z</time>
      </trkpt>
      <trkpt lat="44.84631" lon="-0.2326">
        <ele>33.8</ele>
        <time>2020-09-09T13:23:06Z</time>
      </trkpt>
      <trkpt lat="44.84632" lon="-0.23261">
        <ele>33.8</ele>
        <time>2020-09-09T13:23:07Z</time>
      </trkpt>
      <trkpt lat="44.84633" lon="-0.23263">
        <ele>33.8</ele>
        <time>2020-09-09T13:23:08Z</time>
      </trkpt>
      <trkpt lat="44.84634" lon="-0.23265">
        <ele>33.8</ele>
        <time>2020-09-09T13:23:09Z</time>
      </trkpt>
      <trkpt lat="44.84635" lon="-0.23266">
        <ele>33.7</ele>
        <time>2020-09-09T13:23:11Z</time>
      </trkpt>
      <trkpt lat="44.84635" lon="-0.23267">
        <ele>33.7</ele>
        <time>2020-09-09T13:23:12Z</time>
      </trkpt>
      <trkpt lat="44.84636" lon="-0.23268">
        <ele>33.7</ele>
        <time>2020-09-09T13:23:13Z</time>
      </trkpt>
      <trkpt lat="44.84637" lon="-0.2327">
        <ele>33.7</ele>
        <time>2020-09-09T13:23:14Z</time>
      </trkpt>
      <trkpt lat="44.84637" lon="-0.23271">
        <ele>33.7</ele>
        <time>2020-09-09T13:23:15Z</time>
      </trkpt>
      <trkpt lat="44.84638" lon="-0.23273">
        <ele>33.6</ele>
        <time>2020-09-09T13:23:17Z</time>
      </trkpt>
      <trkpt lat="44.84638" lon="-0.23274">
        <ele>33.6</ele>
        <time>2020-09-09T13:23:18Z</time>
      </trkpt>
      <trkpt lat="44.84639" lon="-0.23276">
        <ele>33.6</ele>
        <time>2020-09-09T13:23:19Z</time>
      </trkpt>
      <trkpt lat="44.8464" lon="-0.23277">
        <ele>33.6</ele>
        <time>2020-09-09T13:23:20Z</time>
      </trkpt>
      <trkpt lat="44.8464" lon="-0.23277">
        <ele>33.6</ele>
        <time>2020-09-09T13:23:21Z</time>
      </trkpt>
      <trkpt lat="44.84642" lon="-0.2328">
        <ele>33.4</ele>
        <time>2020-09-09T13:23:23Z</time>
      </trkpt>
      <trkpt lat="44.84643" lon="-0.23281">
        <ele>33.4</ele>
        <time>2020-09-09T13:23:24Z</time>
      </trkpt>
      <trkpt lat="44.84645" lon="-0.23283">
        <ele>33.3</ele>
        <time>2020-09-09T13:23:26Z</time>
      </trkpt>
      <trkpt lat="44.84645" lon="-0.23283">
        <ele>33.3</ele>
        <time>2020-09-09T13:23:27Z</time>
      </trkpt>
      <trkpt lat="44.84646" lon="-0.23284">
        <ele>33.3</ele>
        <time>2020-09-09T13:23:28Z</time>
      </trkpt>
      <trkpt lat="44.84648" lon="-0.23286">
        <ele>33.1</ele>
        <time>2020-09-09T13:23:29Z</time>
      </trkpt>
      <trkpt lat="44.84649" lon="-0.23287">
        <ele>33.1</ele>
        <time>2020-09-09T13:23:30Z</time>
      </trkpt>
      <trkpt lat="44.8465" lon="-0.23289">
        <ele>32.9</ele>
        <time>2020-09-09T13:23:31Z</time>
      </trkpt>
      <trkpt lat="44.84651" lon="-0.2329">
        <ele>32.8</ele>
        <time>2020-09-09T13:23:33Z</time>
      </trkpt>
      <trkpt lat="44.84652" lon="-0.23291">
        <ele>32.8</ele>
        <time>2020-09-09T13:23:34Z</time>
      </trkpt>
      <trkpt lat="44.84653" lon="-0.23292">
        <ele>32.8</ele>
        <time>2020-09-09T13:23:35Z</time>
      </trkpt>
      <trkpt lat="44.84653" lon="-0.23294">
        <ele>32.6</ele>
        <time>2020-09-09T13:23:36Z</time>
      </trkpt>
      <trkpt lat="44.84654" lon="-0.23296">
        <ele>32.6</ele>
        <time>2020-09-09T13:23:38Z</time>
      </trkpt>
      <trkpt lat="44.84655" lon="-0.23298">
        <ele>32.6</ele>
        <time>2020-09-09T13:23:39Z</time>
      </trkpt>
      <trkpt lat="44.84655" lon="-0.23302">
        <ele>32.5</ele>
        <time>2020-09-09T13:23:40Z</time>
      </trkpt>
      <trkpt lat="44.84655" lon="-0.23303">
        <ele>32.5</ele>
        <time>2020-09-09T13:23:41Z</time>
      </trkpt>
      <trkpt lat="44.84655" lon="-0.23305">
        <ele>32.4</ele>
        <time>2020-09-09T13:23:42Z</time>
      </trkpt>
      <trkpt lat="44.84654" lon="-0.23307">
        <ele>32.4</ele>
        <time>2020-09-09T13:23:43Z</time>
      </trkpt>
      <trkpt lat="44.84653" lon="-0.23309">
        <ele>32.3</ele>
        <time>2020-09-09T13:23:44Z</time>
      </trkpt>
      <trkpt lat="44.84652" lon="-0.23311">
        <ele>32.6</ele>
        <time>2020-09-09T13:23:45Z</time>
      </trkpt>
      <trkpt lat="44.84651" lon="-0.23313">
        <ele>32.4</ele>
        <time>2020-09-09T13:23:46Z</time>
      </trkpt>
      <trkpt lat="44.8465" lon="-0.23314">
        <ele>32.4</ele>
        <time>2020-09-09T13:23:48Z</time>
      </trkpt>
      <trkpt lat="44.84649" lon="-0.23315">
        <ele>32.6</ele>
        <time>2020-09-09T13:23:49Z</time>
      </trkpt>
      <trkpt lat="44.84647" lon="-0.23317">
        <ele>32.5</ele>
        <time>2020-09-09T13:23:50Z</time>
      </trkpt>
      <trkpt lat="44.84646" lon="-0.23317">
        <ele>32.7</ele>
        <time>2020-09-09T13:23:51Z</time>
      </trkpt>
      <trkpt lat="44.84645" lon="-0.23318">
        <ele>32.7</ele>
        <time>2020-09-09T13:23:52Z</time>
      </trkpt>
      <trkpt lat="44.84644" lon="-0.23319">
        <ele>32.9</ele>
        <time>2020-09-09T13:23:53Z</time>
      </trkpt>
      <trkpt lat="44.84642" lon="-0.2332">
        <ele>32.9</ele>
        <time>2020-09-09T13:23:54Z</time>
      </trkpt>
      <trkpt lat="44.84641" lon="-0.2332">
        <ele>32.7</ele>
        <time>2020-09-09T13:23:55Z</time>
      </trkpt>
      <trkpt lat="44.84639" lon="-0.23321">
        <ele>32.9</ele>
        <time>2020-09-09T13:23:57Z</time>
      </trkpt>
      <trkpt lat="44.84638" lon="-0.23322">
        <ele>32.9</ele>
        <time>2020-09-09T13:23:58Z</time>
      </trkpt>
      <trkpt lat="44.84637" lon="-0.23323">
        <ele>33</ele>
        <time>2020-09-09T13:23:59Z</time>
      </trkpt>
      <trkpt lat="44.84634" lon="-0.23325">
        <ele>33</ele>
        <time>2020-09-09T13:24:00Z</time>
      </trkpt>
      <trkpt lat="44.84634" lon="-0.23326">
        <ele>33</ele>
        <time>2020-09-09T13:24:01Z</time>
      </trkpt>
      <trkpt lat="44.84633" lon="-0.23326">
        <ele>33</ele>
        <time>2020-09-09T13:24:02Z</time>
      </trkpt>
      <trkpt lat="44.84632" lon="-0.23327">
        <ele>33</ele>
        <time>2020-09-09T13:24:03Z</time>
      </trkpt>
      <trkpt lat="44.8463" lon="-0.23329">
        <ele>33.1</ele>
        <time>2020-09-09T13:24:05Z</time>
      </trkpt>
      <trkpt lat="44.84629" lon="-0.2333">
        <ele>32.9</ele>
        <time>2020-09-09T13:24:06Z</time>
      </trkpt>
      <trkpt lat="44.84628" lon="-0.2333">
        <ele>32.9</ele>
        <time>2020-09-09T13:24:07Z</time>
      </trkpt>
      <trkpt lat="44.84627" lon="-0.23331">
        <ele>32.9</ele>
        <time>2020-09-09T13:24:08Z</time>
      </trkpt>
      <trkpt lat="44.84626" lon="-0.23333">
        <ele>32.8</ele>
        <time>2020-09-09T13:24:10Z</time>
      </trkpt>
      <trkpt lat="44.84624" lon="-0.23335">
        <ele>32.8</ele>
        <time>2020-09-09T13:24:12Z</time>
      </trkpt>
      <trkpt lat="44.84623" lon="-0.23337">
        <ele>32.8</ele>
        <time>2020-09-09T13:24:13Z</time>
      </trkpt>
      <trkpt lat="44.84621" lon="-0.2334">
        <ele>32.6</ele>
        <time>2020-09-09T13:24:15Z</time>
      </trkpt>
      <trkpt lat="44.8462" lon="-0.23341">
        <ele>32.6</ele>
        <time>2020-09-09T13:24:16Z</time>
      </trkpt>
      <trkpt lat="44.84619" lon="-0.23342">
        <ele>32.5</ele>
        <time>2020-09-09T13:24:18Z</time>
      </trkpt>
      <trkpt lat="44.84618" lon="-0.23345">
        <ele>32.5</ele>
        <time>2020-09-09T13:24:20Z</time>
      </trkpt>
      <trkpt lat="44.84616" lon="-0.23347">
        <ele>32.4</ele>
        <time>2020-09-09T13:24:21Z</time>
      </trkpt>
      <trkpt lat="44.84616" lon="-0.23347">
        <ele>32.4</ele>
        <time>2020-09-09T13:24:22Z</time>
      </trkpt>
      <trkpt lat="44.84615" lon="-0.23348">
        <ele>32.4</ele>
        <time>2020-09-09T13:24:23Z</time>
      </trkpt>
      <trkpt lat="44.84614" lon="-0.2335">
        <ele>32.4</ele>
        <time>2020-09-09T13:24:24Z</time>
      </trkpt>
      <trkpt lat="44.84612" lon="-0.23352">
        <ele>32.2</ele>
        <time>2020-09-09T13:24:25Z</time>
      </trkpt>
      <trkpt lat="44.84612" lon="-0.23352">
        <ele>32.2</ele>
        <time>2020-09-09T13:24:26Z</time>
      </trkpt>
      <trkpt lat="44.84611" lon="-0.23353">
        <ele>32.2</ele>
        <time>2020-09-09T13:24:27Z</time>
      </trkpt>
      <trkpt lat="44.84611" lon="-0.23354">
        <ele>32.2</ele>
        <time>2020-09-09T13:24:28Z</time>
      </trkpt>
      <trkpt lat="44.8461" lon="-0.23355">
        <ele>32.1</ele>
        <time>2020-09-09T13:24:30Z</time>
      </trkpt>
      <trkpt lat="44.84609" lon="-0.23357">
        <ele>32.1</ele>
        <time>2020-09-09T13:24:31Z</time>
      </trkpt>
      <trkpt lat="44.84608" lon="-0.23358">
        <ele>32.1</ele>
        <time>2020-09-09T13:24:32Z</time>
      </trkpt>
      <trkpt lat="44.84607" lon="-0.23359">
        <ele>32</ele>
        <time>2020-09-09T13:24:34Z</time>
      </trkpt>
      <trkpt lat="44.84606" lon="-0.23361">
        <ele>32</ele>
        <time>2020-09-09T13:24:35Z</time>
      </trkpt>
      <trkpt lat="44.84605" lon="-0.23362">
        <ele>32</ele>
        <time>2020-09-09T13:24:36Z</time>
      </trkpt>
      <trkpt lat="44.84604" lon="-0.23362">
        <ele>32</ele>
        <time>2020-09-09T13:24:37Z</time>
      </trkpt>
      <trkpt lat="44.84603" lon="-0.23365">
        <ele>31.8</ele>
        <time>2020-09-09T13:24:38Z</time>
      </trkpt>
      <trkpt lat="44.84602" lon="-0.23366">
        <ele>31.8</ele>
        <time>2020-09-09T13:24:40Z</time>
      </trkpt>
      <trkpt lat="44.84601" lon="-0.23367">
        <ele>31.8</ele>
        <time>2020-09-09T13:24:42Z</time>
      </trkpt>
      <trkpt lat="44.846" lon="-0.23368">
        <ele>31.7</ele>
        <time>2020-09-09T13:24:43Z</time>
      </trkpt>
      <trkpt lat="44.846" lon="-0.2337">
        <ele>31.7</ele>
        <time>2020-09-09T13:24:44Z</time>
      </trkpt>
      <trkpt lat="44.84598" lon="-0.23372">
        <ele>31.7</ele>
        <time>2020-09-09T13:24:45Z</time>
      </trkpt>
      <trkpt lat="44.84598" lon="-0.23373">
        <ele>31.6</ele>
        <time>2020-09-09T13:24:46Z</time>
      </trkpt>
      <trkpt lat="44.84596" lon="-0.23375">
        <ele>31.6</ele>
        <time>2020-09-09T13:24:47Z</time>
      </trkpt>
      <trkpt lat="44.84595" lon="-0.23377">
        <ele>31.4</ele>
        <time>2020-09-09T13:24:49Z</time>
      </trkpt>
      <trkpt lat="44.84594" lon="-0.23379">
        <ele>31.5</ele>
        <time>2020-09-09T13:24:50Z</time>
      </trkpt>
      <trkpt lat="44.84593" lon="-0.2338">
        <ele>31.5</ele>
        <time>2020-09-09T13:24:51Z</time>
      </trkpt>
      <trkpt lat="44.84592" lon="-0.23381">
        <ele>31.3</ele>
        <time>2020-09-09T13:24:52Z</time>
      </trkpt>
      <trkpt lat="44.84591" lon="-0.23382">
        <ele>31.4</ele>
        <time>2020-09-09T13:24:53Z</time>
      </trkpt>
      <trkpt lat="44.8459" lon="-0.23384">
        <ele>31.4</ele>
        <time>2020-09-09T13:24:55Z</time>
      </trkpt>
      <trkpt lat="44.84589" lon="-0.23385">
        <ele>31.2</ele>
        <time>2020-09-09T13:24:56Z</time>
      </trkpt>
      <trkpt lat="44.84589" lon="-0.23386">
        <ele>31.4</ele>
        <time>2020-09-09T13:24:57Z</time>
      </trkpt>
      <trkpt lat="44.84588" lon="-0.23387">
        <ele>31.4</ele>
        <time>2020-09-09T13:24:58Z</time>
      </trkpt>
      <trkpt lat="44.84586" lon="-0.23389">
        <ele>31.2</ele>
        <time>2020-09-09T13:25:00Z</time>
      </trkpt>
      <trkpt lat="44.84585" lon="-0.2339">
        <ele>31.4</ele>
        <time>2020-09-09T13:25:01Z</time>
      </trkpt>
      <trkpt lat="44.84584" lon="-0.23392">
        <ele>31.4</ele>
        <time>2020-09-09T13:25:02Z</time>
      </trkpt>
      <trkpt lat="44.84583" lon="-0.23393">
        <ele>31.4</ele>
        <time>2020-09-09T13:25:03Z</time>
      </trkpt>
      <trkpt lat="44.84583" lon="-0.23394">
        <ele>31.4</ele>
        <time>2020-09-09T13:25:04Z</time>
      </trkpt>
      <trkpt lat="44.84581" lon="-0.23395">
        <ele>31.4</ele>
        <time>2020-09-09T13:25:05Z</time>
      </trkpt>
      <trkpt lat="44.8458" lon="-0.23396">
        <ele>31.4</ele>
        <time>2020-09-09T13:25:06Z</time>
      </trkpt>
      <trkpt lat="44.84579" lon="-0.23397">
        <ele>31.5</ele>
        <time>2020-09-09T13:25:08Z</time>
      </trkpt>
      <trkpt lat="44.84578" lon="-0.23398">
        <ele>31.4</ele>
        <time>2020-09-09T13:25:09Z</time>
      </trkpt>
      <trkpt lat="44.84577" lon="-0.23399">
        <ele>31.5</ele>
        <time>2020-09-09T13:25:10Z</time>
      </trkpt>
      <trkpt lat="44.84576" lon="-0.234">
        <ele>31.5</ele>
        <time>2020-09-09T13:25:11Z</time>
      </trkpt>
      <trkpt lat="44.84574" lon="-0.23402">
        <ele>31.7</ele>
        <time>2020-09-09T13:25:13Z</time>
      </trkpt>
      <trkpt lat="44.84573" lon="-0.23402">
        <ele>31.6</ele>
        <time>2020-09-09T13:25:14Z</time>
      </trkpt>
      <trkpt lat="44.84572" lon="-0.23403">
        <ele>31.6</ele>
        <time>2020-09-09T13:25:15Z</time>
      </trkpt>
      <trkpt lat="44.8457" lon="-0.23405">
        <ele>31.7</ele>
        <time>2020-09-09T13:25:16Z</time>
      </trkpt>
      <trkpt lat="44.8457" lon="-0.23405">
        <ele>31.7</ele>
        <time>2020-09-09T13:25:18Z</time>
      </trkpt>
      <trkpt lat="44.84569" lon="-0.23406">
        <ele>31.6</ele>
        <time>2020-09-09T13:25:19Z</time>
      </trkpt>
      <trkpt lat="44.84567" lon="-0.23408">
        <ele>31.7</ele>
        <time>2020-09-09T13:25:20Z</time>
      </trkpt>
      <trkpt lat="44.84566" lon="-0.23409">
        <ele>31.7</ele>
        <time>2020-09-09T13:25:21Z</time>
      </trkpt>
      <trkpt lat="44.84565" lon="-0.2341">
        <ele>31.7</ele>
        <time>2020-09-09T13:25:22Z</time>
      </trkpt>
      <trkpt lat="44.84564" lon="-0.23411">
        <ele>31.7</ele>
        <time>2020-09-09T13:25:23Z</time>
      </trkpt>
      <trkpt lat="44.84563" lon="-0.23411">
        <ele>31.7</ele>
        <time>2020-09-09T13:25:24Z</time>
      </trkpt>
      <trkpt lat="44.8456" lon="-0.23414">
        <ele>31.9</ele>
        <time>2020-09-09T13:25:25Z</time>
      </trkpt>
      <trkpt lat="44.84559" lon="-0.23415">
        <ele>31.7</ele>
        <time>2020-09-09T13:25:27Z</time>
      </trkpt>
      <trkpt lat="44.84559" lon="-0.23416">
        <ele>31.7</ele>
        <time>2020-09-09T13:25:28Z</time>
      </trkpt>
      <trkpt lat="44.84558" lon="-0.23417">
        <ele>31.9</ele>
        <time>2020-09-09T13:25:29Z</time>
      </trkpt>
      <trkpt lat="44.84557" lon="-0.23418">
        <ele>31.9</ele>
        <time>2020-09-09T13:25:30Z</time>
      </trkpt>
      <trkpt lat="44.84555" lon="-0.23421">
        <ele>31.9</ele>
        <time>2020-09-09T13:25:32Z</time>
      </trkpt>
      <trkpt lat="44.84554" lon="-0.23422">
        <ele>31.9</ele>
        <time>2020-09-09T13:25:33Z</time>
      </trkpt>
      <trkpt lat="44.84552" lon="-0.23424">
        <ele>32</ele>
        <time>2020-09-09T13:25:34Z</time>
      </trkpt>
      <trkpt lat="44.84551" lon="-0.23426">
        <ele>32</ele>
        <time>2020-09-09T13:25:36Z</time>
      </trkpt>
      <trkpt lat="44.8455" lon="-0.23427">
        <ele>32</ele>
        <time>2020-09-09T13:25:37Z</time>
      </trkpt>
      <trkpt lat="44.84549" lon="-0.23428">
        <ele>32.1</ele>
        <time>2020-09-09T13:25:38Z</time>
      </trkpt>
      <trkpt lat="44.84547" lon="-0.2343">
        <ele>32.1</ele>
        <time>2020-09-09T13:25:39Z</time>
      </trkpt>
      <trkpt lat="44.84547" lon="-0.23431">
        <ele>32.1</ele>
        <time>2020-09-09T13:25:40Z</time>
      </trkpt>
      <trkpt lat="44.84546" lon="-0.23432">
        <ele>32.1</ele>
        <time>2020-09-09T13:25:41Z</time>
      </trkpt>
      <trkpt lat="44.84544" lon="-0.23434">
        <ele>32.1</ele>
        <time>2020-09-09T13:25:42Z</time>
      </trkpt>
      <trkpt lat="44.84543" lon="-0.23435">
        <ele>32.3</ele>
        <time>2020-09-09T13:25:43Z</time>
      </trkpt>
      <trkpt lat="44.84543" lon="-0.23435">
        <ele>32.3</ele>
        <time>2020-09-09T13:25:44Z</time>
      </trkpt>
      <trkpt lat="44.84542" lon="-0.23436">
        <ele>32.3</ele>
        <time>2020-09-09T13:25:45Z</time>
      </trkpt>
      <trkpt lat="44.8454" lon="-0.23438">
        <ele>32.3</ele>
        <time>2020-09-09T13:25:47Z</time>
      </trkpt>
      <trkpt lat="44.84539" lon="-0.23439">
        <ele>32.3</ele>
        <time>2020-09-09T13:25:48Z</time>
      </trkpt>
      <trkpt lat="44.84538" lon="-0.2344">
        <ele>32.3</ele>
        <time>2020-09-09T13:25:50Z</time>
      </trkpt>
      <trkpt lat="44.84538" lon="-0.23441">
        <ele>32.2</ele>
        <time>2020-09-09T13:25:51Z</time>
      </trkpt>
      <trkpt lat="44.84536" lon="-0.23443">
        <ele>32.4</ele>
        <time>2020-09-09T13:25:53Z</time>
      </trkpt>
      <trkpt lat="44.84535" lon="-0.23444">
        <ele>32.4</ele>
        <time>2020-09-09T13:25:54Z</time>
      </trkpt>
      <trkpt lat="44.84534" lon="-0.23446">
        <ele>32.4</ele>
        <time>2020-09-09T13:25:55Z</time>
      </trkpt>
      <trkpt lat="44.84533" lon="-0.23447">
        <ele>32.4</ele>
        <time>2020-09-09T13:25:56Z</time>
      </trkpt>
      <trkpt lat="44.8453" lon="-0.23449">
        <ele>32.6</ele>
        <time>2020-09-09T13:25:58Z</time>
      </trkpt>
      <trkpt lat="44.84529" lon="-0.2345">
        <ele>32.5</ele>
        <time>2020-09-09T13:25:59Z</time>
      </trkpt>
      <trkpt lat="44.84528" lon="-0.23451">
        <ele>32.5</ele>
        <time>2020-09-09T13:26:00Z</time>
      </trkpt>
      <trkpt lat="44.84527" lon="-0.23452">
        <ele>32.6</ele>
        <time>2020-09-09T13:26:01Z</time>
      </trkpt>
      <trkpt lat="44.84526" lon="-0.23453">
        <ele>32.6</ele>
        <time>2020-09-09T13:26:02Z</time>
      </trkpt>
      <trkpt lat="44.84526" lon="-0.23454">
        <ele>32.5</ele>
        <time>2020-09-09T13:26:03Z</time>
      </trkpt>
      <trkpt lat="44.84525" lon="-0.23455">
        <ele>32.7</ele>
        <time>2020-09-09T13:26:04Z</time>
      </trkpt>
      <trkpt lat="44.84523" lon="-0.23456">
        <ele>32.6</ele>
        <time>2020-09-09T13:26:06Z</time>
      </trkpt>
      <trkpt lat="44.84523" lon="-0.23457">
        <ele>32.6</ele>
        <time>2020-09-09T13:26:07Z</time>
      </trkpt>
      <trkpt lat="44.84522" lon="-0.23457">
        <ele>32.6</ele>
        <time>2020-09-09T13:26:08Z</time>
      </trkpt>
      <trkpt lat="44.84522" lon="-0.23458">
        <ele>32.7</ele>
        <time>2020-09-09T13:26:09Z</time>
      </trkpt>
      <trkpt lat="44.84521" lon="-0.23459">
        <ele>32.7</ele>
        <time>2020-09-09T13:26:10Z</time>
      </trkpt>
      <trkpt lat="44.84519" lon="-0.2346">
        <ele>32.7</ele>
        <time>2020-09-09T13:26:11Z</time>
      </trkpt>
      <trkpt lat="44.84518" lon="-0.23462">
        <ele>32.8</ele>
        <time>2020-09-09T13:26:12Z</time>
      </trkpt>
      <trkpt lat="44.84517" lon="-0.23462">
        <ele>32.7</ele>
        <time>2020-09-09T13:26:13Z</time>
      </trkpt>
      <trkpt lat="44.84516" lon="-0.23463">
        <ele>32.8</ele>
        <time>2020-09-09T13:26:15Z</time>
      </trkpt>
      <trkpt lat="44.84515" lon="-0.23464">
        <ele>32.8</ele>
        <time>2020-09-09T13:26:16Z</time>
      </trkpt>
      <trkpt lat="44.84514" lon="-0.23465">
        <ele>32.8</ele>
        <time>2020-09-09T13:26:17Z</time>
      </trkpt>
      <trkpt lat="44.84513" lon="-0.23465">
        <ele>32.8</ele>
        <time>2020-09-09T13:26:18Z</time>
      </trkpt>
      <trkpt lat="44.84512" lon="-0.23466">
        <ele>32.9</ele>
        <time>2020-09-09T13:26:19Z</time>
      </trkpt>
      <trkpt lat="44.84512" lon="-0.23467">
        <ele>32.8</ele>
        <time>2020-09-09T13:26:20Z</time>
      </trkpt>
      <trkpt lat="44.84511" lon="-0.23468">
        <ele>32.8</ele>
        <time>2020-09-09T13:26:21Z</time>
      </trkpt>
      <trkpt lat="44.84509" lon="-0.23469">
        <ele>32.9</ele>
        <time>2020-09-09T13:26:23Z</time>
      </trkpt>
      <trkpt lat="44.84508" lon="-0.2347">
        <ele>32.9</ele>
        <time>2020-09-09T13:26:24Z</time>
      </trkpt>
      <trkpt lat="44.84507" lon="-0.23471">
        <ele>32.8</ele>
        <time>2020-09-09T13:26:25Z</time>
      </trkpt>
      <trkpt lat="44.84507" lon="-0.23471">
        <ele>32.9</ele>
        <time>2020-09-09T13:26:26Z</time>
      </trkpt>
      <trkpt lat="44.84505" lon="-0.23473">
        <ele>32.9</ele>
        <time>2020-09-09T13:26:28Z</time>
      </trkpt>
      <trkpt lat="44.84504" lon="-0.23474">
        <ele>33</ele>
        <time>2020-09-09T13:26:29Z</time>
      </trkpt>
      <trkpt lat="44.84502" lon="-0.23475">
        <ele>32.9</ele>
        <time>2020-09-09T13:26:30Z</time>
      </trkpt>
      <trkpt lat="44.845" lon="-0.23478">
        <ele>33</ele>
        <time>2020-09-09T13:26:31Z</time>
      </trkpt>
      <trkpt lat="44.845" lon="-0.23478">
        <ele>33</ele>
        <time>2020-09-09T13:26:32Z</time>
      </trkpt>
      <trkpt lat="44.845" lon="-0.23479">
        <ele>33</ele>
        <time>2020-09-09T13:26:33Z</time>
      </trkpt>
      <trkpt lat="44.84498" lon="-0.23481">
        <ele>32.8</ele>
        <time>2020-09-09T13:26:34Z</time>
      </trkpt>
      <trkpt lat="44.84497" lon="-0.23482">
        <ele>32.9</ele>
        <time>2020-09-09T13:26:36Z</time>
      </trkpt>
      <trkpt lat="44.84497" lon="-0.23483">
        <ele>32.8</ele>
        <time>2020-09-09T13:26:37Z</time>
      </trkpt>
      <trkpt lat="44.84496" lon="-0.23485">
        <ele>32.8</ele>
        <time>2020-09-09T13:26:39Z</time>
      </trkpt>
      <trkpt lat="44.84495" lon="-0.23487">
        <ele>32.9</ele>
        <time>2020-09-09T13:26:40Z</time>
      </trkpt>
      <trkpt lat="44.84493" lon="-0.23489">
        <ele>32.7</ele>
        <time>2020-09-09T13:26:41Z</time>
      </trkpt>
      <trkpt lat="44.84493" lon="-0.2349">
        <ele>32.7</ele>
        <time>2020-09-09T13:26:42Z</time>
      </trkpt>
      <trkpt lat="44.84492" lon="-0.23491">
        <ele>32.7</ele>
        <time>2020-09-09T13:26:43Z</time>
      </trkpt>
      <trkpt lat="44.84491" lon="-0.23492">
        <ele>32.8</ele>
        <time>2020-09-09T13:26:44Z</time>
      </trkpt>
      <trkpt lat="44.8449" lon="-0.23493">
        <ele>32.6</ele>
        <time>2020-09-09T13:26:45Z</time>
      </trkpt>
      <trkpt lat="44.84489" lon="-0.23494">
        <ele>32.6</ele>
        <time>2020-09-09T13:26:47Z</time>
      </trkpt>
      <trkpt lat="44.84488" lon="-0.23495">
        <ele>32.7</ele>
        <time>2020-09-09T13:26:48Z</time>
      </trkpt>
      <trkpt lat="44.84486" lon="-0.23496">
        <ele>32.7</ele>
        <time>2020-09-09T13:26:49Z</time>
      </trkpt>
      <trkpt lat="44.84485" lon="-0.23496">
        <ele>32.7</ele>
        <time>2020-09-09T13:26:51Z</time>
      </trkpt>
      <trkpt lat="44.84485" lon="-0.23496">
        <ele>32.6</ele>
        <time>2020-09-09T13:26:52Z</time>
      </trkpt>
      <trkpt lat="44.84484" lon="-0.23497">
        <ele>32.6</ele>
        <time>2020-09-09T13:26:53Z</time>
      </trkpt>
      <trkpt lat="44.84482" lon="-0.23498">
        <ele>32.6</ele>
        <time>2020-09-09T13:26:55Z</time>
      </trkpt>
      <trkpt lat="44.84481" lon="-0.23499">
        <ele>32.6</ele>
        <time>2020-09-09T13:26:56Z</time>
      </trkpt>
      <trkpt lat="44.8448" lon="-0.23499">
        <ele>32.6</ele>
        <time>2020-09-09T13:26:57Z</time>
      </trkpt>
      <trkpt lat="44.84479" lon="-0.235">
        <ele>32.6</ele>
        <time>2020-09-09T13:26:58Z</time>
      </trkpt>
      <trkpt lat="44.84478" lon="-0.23499">
        <ele>32.6</ele>
        <time>2020-09-09T13:26:59Z</time>
      </trkpt>
      <trkpt lat="44.84477" lon="-0.23499">
        <ele>32.6</ele>
        <time>2020-09-09T13:27:00Z</time>
      </trkpt>
      <trkpt lat="44.84476" lon="-0.23497">
        <ele>32.6</ele>
        <time>2020-09-09T13:27:02Z</time>
      </trkpt>
      <trkpt lat="44.84475" lon="-0.23496">
        <ele>32.6</ele>
        <time>2020-09-09T13:27:03Z</time>
      </trkpt>
      <trkpt lat="44.84474" lon="-0.23496">
        <ele>32.8</ele>
        <time>2020-09-09T13:27:04Z</time>
      </trkpt>
      <trkpt lat="44.84473" lon="-0.23494">
        <ele>32.8</ele>
        <time>2020-09-09T13:27:05Z</time>
      </trkpt>
      <trkpt lat="44.84472" lon="-0.23493">
        <ele>32.7</ele>
        <time>2020-09-09T13:27:07Z</time>
      </trkpt>
      <trkpt lat="44.84471" lon="-0.23491">
        <ele>32.9</ele>
        <time>2020-09-09T13:27:08Z</time>
      </trkpt>
      <trkpt lat="44.8447" lon="-0.2349">
        <ele>32.9</ele>
        <time>2020-09-09T13:27:09Z</time>
      </trkpt>
      <trkpt lat="44.84469" lon="-0.23489">
        <ele>32.9</ele>
        <time>2020-09-09T13:27:11Z</time>
      </trkpt>
      <trkpt lat="44.84467" lon="-0.23487">
        <ele>32.9</ele>
        <time>2020-09-09T13:27:12Z</time>
      </trkpt>
      <trkpt lat="44.84465" lon="-0.23487">
        <ele>32.9</ele>
        <time>2020-09-09T13:27:14Z</time>
      </trkpt>
      <trkpt lat="44.84464" lon="-0.23486">
        <ele>32.9</ele>
        <time>2020-09-09T13:27:15Z</time>
      </trkpt>
      <trkpt lat="44.84463" lon="-0.23486">
        <ele>32.9</ele>
        <time>2020-09-09T13:27:16Z</time>
      </trkpt>
      <trkpt lat="44.84462" lon="-0.23486">
        <ele>32.9</ele>
        <time>2020-09-09T13:27:18Z</time>
      </trkpt>
      <trkpt lat="44.84461" lon="-0.23487">
        <ele>32.9</ele>
        <time>2020-09-09T13:27:19Z</time>
      </trkpt>
      <trkpt lat="44.84461" lon="-0.23487">
        <ele>32.9</ele>
        <time>2020-09-09T13:27:20Z</time>
      </trkpt>
      <trkpt lat="44.8446" lon="-0.23488">
        <ele>32.7</ele>
        <time>2020-09-09T13:27:21Z</time>
      </trkpt>
      <trkpt lat="44.84459" lon="-0.23489">
        <ele>32.7</ele>
        <time>2020-09-09T13:27:23Z</time>
      </trkpt>
      <trkpt lat="44.84459" lon="-0.23489">
        <ele>32.7</ele>
        <time>2020-09-09T13:27:25Z</time>
      </trkpt>
      <trkpt lat="44.84459" lon="-0.23489">
        <ele>32.7</ele>
        <time>2020-09-09T13:27:26Z</time>
      </trkpt>
      <trkpt lat="44.84459" lon="-0.23488">
        <ele>32.9</ele>
        <time>2020-09-09T13:27:27Z</time>
      </trkpt>
      <trkpt lat="44.8446" lon="-0.23486">
        <ele>32.9</ele>
        <time>2020-09-09T13:27:28Z</time>
      </trkpt>
      <trkpt lat="44.8446" lon="-0.23485">
        <ele>32.9</ele>
        <time>2020-09-09T13:27:29Z</time>
      </trkpt>
      <trkpt lat="44.84461" lon="-0.23484">
        <ele>32.9</ele>
        <time>2020-09-09T13:27:30Z</time>
      </trkpt>
      <trkpt lat="44.84462" lon="-0.23481">
        <ele>33</ele>
        <time>2020-09-09T13:27:32Z</time>
      </trkpt>
      <trkpt lat="44.84462" lon="-0.2348">
        <ele>33</ele>
        <time>2020-09-09T13:27:33Z</time>
      </trkpt>
      <trkpt lat="44.84463" lon="-0.23478">
        <ele>33.1</ele>
        <time>2020-09-09T13:27:34Z</time>
      </trkpt>
      <trkpt lat="44.84464" lon="-0.23475">
        <ele>33.1</ele>
        <time>2020-09-09T13:27:35Z</time>
      </trkpt>
      <trkpt lat="44.84465" lon="-0.23472">
        <ele>33.3</ele>
        <time>2020-09-09T13:27:37Z</time>
      </trkpt>
      <trkpt lat="44.84467" lon="-0.23471">
        <ele>33.3</ele>
        <time>2020-09-09T13:27:38Z</time>
      </trkpt>
      <trkpt lat="44.84467" lon="-0.23469">
        <ele>33.4</ele>
        <time>2020-09-09T13:27:39Z</time>
      </trkpt>
      <trkpt lat="44.84469" lon="-0.23466">
        <ele>33.5</ele>
        <time>2020-09-09T13:27:40Z</time>
      </trkpt>
      <trkpt lat="44.8447" lon="-0.23465">
        <ele>33.5</ele>
        <time>2020-09-09T13:27:41Z</time>
      </trkpt>
      <trkpt lat="44.84472" lon="-0.23459">
        <ele>33.6</ele>
        <time>2020-09-09T13:27:43Z</time>
      </trkpt>
      <trkpt lat="44.84473" lon="-0.23457">
        <ele>33.7</ele>
        <time>2020-09-09T13:27:44Z</time>
      </trkpt>
      <trkpt lat="44.84473" lon="-0.23455">
        <ele>33.7</ele>
        <time>2020-09-09T13:27:45Z</time>
      </trkpt>
      <trkpt lat="44.84473" lon="-0.23453">
        <ele>33.8</ele>
        <time>2020-09-09T13:27:46Z</time>
      </trkpt>
      <trkpt lat="44.84474" lon="-0.23451">
        <ele>33.9</ele>
        <time>2020-09-09T13:27:47Z</time>
      </trkpt>
      <trkpt lat="44.84474" lon="-0.23448">
        <ele>34</ele>
        <time>2020-09-09T13:27:49Z</time>
      </trkpt>
      <trkpt lat="44.84474" lon="-0.23447">
        <ele>34</ele>
        <time>2020-09-09T13:27:50Z</time>
      </trkpt>
      <trkpt lat="44.84475" lon="-0.23444">
        <ele>34.1</ele>
        <time>2020-09-09T13:27:51Z</time>
      </trkpt>
      <trkpt lat="44.84475" lon="-0.23442">
        <ele>34.1</ele>
        <time>2020-09-09T13:27:53Z</time>
      </trkpt>
      <trkpt lat="44.84475" lon="-0.23441">
        <ele>34.1</ele>
        <time>2020-09-09T13:27:54Z</time>
      </trkpt>
      <trkpt lat="44.84475" lon="-0.23439">
        <ele>34.2</ele>
        <time>2020-09-09T13:27:55Z</time>
      </trkpt>
      <trkpt lat="44.84475" lon="-0.23437">
        <ele>34.2</ele>
        <time>2020-09-09T13:27:56Z</time>
      </trkpt>
      <trkpt lat="44.84475" lon="-0.23434">
        <ele>34.3</ele>
        <time>2020-09-09T13:27:57Z</time>
      </trkpt>
      <trkpt lat="44.84475" lon="-0.23432">
        <ele>34.3</ele>
        <time>2020-09-09T13:27:58Z</time>
      </trkpt>
      <trkpt lat="44.84475" lon="-0.23431">
        <ele>34.4</ele>
        <time>2020-09-09T13:27:59Z</time>
      </trkpt>
      <trkpt lat="44.84474" lon="-0.23429">
        <ele>34.4</ele>
        <time>2020-09-09T13:28:01Z</time>
      </trkpt>
      <trkpt lat="44.84472" lon="-0.23428">
        <ele>34.3</ele>
        <time>2020-09-09T13:28:02Z</time>
      </trkpt>
      <trkpt lat="44.84471" lon="-0.23426">
        <ele>34.4</ele>
        <time>2020-09-09T13:28:03Z</time>
      </trkpt>
      <trkpt lat="44.84471" lon="-0.23424">
        <ele>34.4</ele>
        <time>2020-09-09T13:28:04Z</time>
      </trkpt>
      <trkpt lat="44.84469" lon="-0.23421">
        <ele>34.5</ele>
        <time>2020-09-09T13:28:06Z</time>
      </trkpt>
      <trkpt lat="44.84468" lon="-0.23421">
        <ele>34.5</ele>
        <time>2020-09-09T13:28:07Z</time>
      </trkpt>
      <trkpt lat="44.84467" lon="-0.2342">
        <ele>34.5</ele>
        <time>2020-09-09T13:28:08Z</time>
      </trkpt>
      <trkpt lat="44.84467" lon="-0.23419">
        <ele>34.6</ele>
        <time>2020-09-09T13:28:10Z</time>
      </trkpt>
      <trkpt lat="44.84466" lon="-0.23417">
        <ele>34.6</ele>
        <time>2020-09-09T13:28:11Z</time>
      </trkpt>
      <trkpt lat="44.84465" lon="-0.23416">
        <ele>34.6</ele>
        <time>2020-09-09T13:28:12Z</time>
      </trkpt>
      <trkpt lat="44.84464" lon="-0.23416">
        <ele>34.5</ele>
        <time>2020-09-09T13:28:13Z</time>
      </trkpt>
      <trkpt lat="44.84463" lon="-0.23415">
        <ele>34.5</ele>
        <time>2020-09-09T13:28:14Z</time>
      </trkpt>
      <trkpt lat="44.84461" lon="-0.23414">
        <ele>34.6</ele>
        <time>2020-09-09T13:28:15Z</time>
      </trkpt>
      <trkpt lat="44.8446" lon="-0.23413">
        <ele>34.6</ele>
        <time>2020-09-09T13:28:17Z</time>
      </trkpt>
      <trkpt lat="44.8446" lon="-0.23412">
        <ele>34.6</ele>
        <time>2020-09-09T13:28:18Z</time>
      </trkpt>
      <trkpt lat="44.84458" lon="-0.23409">
        <ele>34.7</ele>
        <time>2020-09-09T13:28:19Z</time>
      </trkpt>
      <trkpt lat="44.84457" lon="-0.23408">
        <ele>34.7</ele>
        <time>2020-09-09T13:28:20Z</time>
      </trkpt>
      <trkpt lat="44.84457" lon="-0.23407">
        <ele>34.7</ele>
        <time>2020-09-09T13:28:21Z</time>
      </trkpt>
      <trkpt lat="44.84456" lon="-0.23406">
        <ele>34.8</ele>
        <time>2020-09-09T13:28:23Z</time>
      </trkpt>
      <trkpt lat="44.84454" lon="-0.23404">
        <ele>34.8</ele>
        <time>2020-09-09T13:28:24Z</time>
      </trkpt>
      <trkpt lat="44.84453" lon="-0.23403">
        <ele>34.8</ele>
        <time>2020-09-09T13:28:25Z</time>
      </trkpt>
      <trkpt lat="44.84452" lon="-0.23401">
        <ele>34.8</ele>
        <time>2020-09-09T13:28:27Z</time>
      </trkpt>
      <trkpt lat="44.84451" lon="-0.234">
        <ele>34.8</ele>
        <time>2020-09-09T13:28:28Z</time>
      </trkpt>
      <trkpt lat="44.8445" lon="-0.23399">
        <ele>34.8</ele>
        <time>2020-09-09T13:28:29Z</time>
      </trkpt>
      <trkpt lat="44.8445" lon="-0.23399">
        <ele>34.8</ele>
        <time>2020-09-09T13:28:31Z</time>
      </trkpt>
      <trkpt lat="44.84449" lon="-0.23399">
        <ele>34.8</ele>
        <time>2020-09-09T13:28:33Z</time>
      </trkpt>
      <trkpt lat="44.84449" lon="-0.23399">
        <ele>34.8</ele>
        <time>2020-09-09T13:28:34Z</time>
      </trkpt>
      <trkpt lat="44.8445" lon="-0.234">
        <ele>34.8</ele>
        <time>2020-09-09T13:28:36Z</time>
      </trkpt>
      <trkpt lat="44.84449" lon="-0.23399">
        <ele>34.8</ele>
        <time>2020-09-09T13:28:37Z</time>
      </trkpt>
      <trkpt lat="44.84449" lon="-0.23398">
        <ele>34.7</ele>
        <time>2020-09-09T13:28:38Z</time>
      </trkpt>
      <trkpt lat="44.84448" lon="-0.23397">
        <ele>34.9</ele>
        <time>2020-09-09T13:28:39Z</time>
      </trkpt>
      <trkpt lat="44.84448" lon="-0.23395">
        <ele>34.9</ele>
        <time>2020-09-09T13:28:41Z</time>
      </trkpt>
      <trkpt lat="44.84447" lon="-0.23394">
        <ele>34.9</ele>
        <time>2020-09-09T13:28:42Z</time>
      </trkpt>
      <trkpt lat="44.84446" lon="-0.23394">
        <ele>34.9</ele>
        <time>2020-09-09T13:28:43Z</time>
      </trkpt>
      <trkpt lat="44.84446" lon="-0.23393">
        <ele>34.9</ele>
        <time>2020-09-09T13:28:44Z</time>
      </trkpt>
      <trkpt lat="44.84446" lon="-0.23393">
        <ele>34.9</ele>
        <time>2020-09-09T13:28:46Z</time>
      </trkpt>
      <trkpt lat="44.84446" lon="-0.23392">
        <ele>34.9</ele>
        <time>2020-09-09T13:28:47Z</time>
      </trkpt>
      <trkpt lat="44.84445" lon="-0.23391">
        <ele>34.9</ele>
        <time>2020-09-09T13:28:48Z</time>
      </trkpt>
      <trkpt lat="44.84444" lon="-0.23389">
        <ele>34.9</ele>
        <time>2020-09-09T13:28:49Z</time>
      </trkpt>
      <trkpt lat="44.84444" lon="-0.23389">
        <ele>35.1</ele>
        <time>2020-09-09T13:28:50Z</time>
      </trkpt>
      <trkpt lat="44.84443" lon="-0.23387">
        <ele>35.1</ele>
        <time>2020-09-09T13:28:52Z</time>
      </trkpt>
      <trkpt lat="44.84443" lon="-0.23386">
        <ele>35</ele>
        <time>2020-09-09T13:28:53Z</time>
      </trkpt>
      <trkpt lat="44.84442" lon="-0.23385">
        <ele>35</ele>
        <time>2020-09-09T13:28:54Z</time>
      </trkpt>
      <trkpt lat="44.84442" lon="-0.23383">
        <ele>35.1</ele>
        <time>2020-09-09T13:28:56Z</time>
      </trkpt>
      <trkpt lat="44.84441" lon="-0.23381">
        <ele>35.1</ele>
        <time>2020-09-09T13:28:57Z</time>
      </trkpt>
      <trkpt lat="44.8444" lon="-0.2338">
        <ele>35.3</ele>
        <time>2020-09-09T13:28:59Z</time>
      </trkpt>
      <trkpt lat="44.8444" lon="-0.23379">
        <ele>35.2</ele>
        <time>2020-09-09T13:29:00Z</time>
      </trkpt>
      <trkpt lat="44.84439" lon="-0.23378">
        <ele>35.2</ele>
        <time>2020-09-09T13:29:01Z</time>
      </trkpt>
      <trkpt lat="44.84439" lon="-0.23376">
        <ele>35.2</ele>
        <time>2020-09-09T13:29:02Z</time>
      </trkpt>
      <trkpt lat="44.84438" lon="-0.23374">
        <ele>35.4</ele>
        <time>2020-09-09T13:29:03Z</time>
      </trkpt>
      <trkpt lat="44.84437" lon="-0.23372">
        <ele>35.4</ele>
        <time>2020-09-09T13:29:04Z</time>
      </trkpt>
      <trkpt lat="44.84437" lon="-0.23371">
        <ele>35.5</ele>
        <time>2020-09-09T13:29:06Z</time>
      </trkpt>
      <trkpt lat="44.84437" lon="-0.23369">
        <ele>35.5</ele>
        <time>2020-09-09T13:29:07Z</time>
      </trkpt>
      <trkpt lat="44.84437" lon="-0.23366">
        <ele>35.6</ele>
        <time>2020-09-09T13:29:08Z</time>
      </trkpt>
      <trkpt lat="44.84436" lon="-0.23363">
        <ele>35.8</ele>
        <time>2020-09-09T13:29:09Z</time>
      </trkpt>
      <trkpt lat="44.84436" lon="-0.2336">
        <ele>35.8</ele>
        <time>2020-09-09T13:29:11Z</time>
      </trkpt>
      <trkpt lat="44.84436" lon="-0.23355">
        <ele>36</ele>
        <time>2020-09-09T13:29:13Z</time>
      </trkpt>
      <trkpt lat="44.84436" lon="-0.23353">
        <ele>36.2</ele>
        <time>2020-09-09T13:29:14Z</time>
      </trkpt>
      <trkpt lat="44.84436" lon="-0.23351">
        <ele>36.2</ele>
        <time>2020-09-09T13:29:15Z</time>
      </trkpt>
      <trkpt lat="44.84436" lon="-0.2335">
        <ele>36.3</ele>
        <time>2020-09-09T13:29:16Z</time>
      </trkpt>
      <trkpt lat="44.84436" lon="-0.23348">
        <ele>36.3</ele>
        <time>2020-09-09T13:29:17Z</time>
      </trkpt>
      <trkpt lat="44.84436" lon="-0.23345">
        <ele>36.5</ele>
        <time>2020-09-09T13:29:19Z</time>
      </trkpt>
      <trkpt lat="44.84436" lon="-0.23344">
        <ele>36.5</ele>
        <time>2020-09-09T13:29:20Z</time>
      </trkpt>
      <trkpt lat="44.84436" lon="-0.23343">
        <ele>36.5</ele>
        <time>2020-09-09T13:29:21Z</time>
      </trkpt>
      <trkpt lat="44.84435" lon="-0.23341">
        <ele>36.6</ele>
        <time>2020-09-09T13:29:22Z</time>
      </trkpt>
      <trkpt lat="44.84435" lon="-0.23338">
        <ele>36.6</ele>
        <time>2020-09-09T13:29:23Z</time>
      </trkpt>
      <trkpt lat="44.84435" lon="-0.23336">
        <ele>36.8</ele>
        <time>2020-09-09T13:29:24Z</time>
      </trkpt>
      <trkpt lat="44.84435" lon="-0.23333">
        <ele>36.8</ele>
        <time>2020-09-09T13:29:25Z</time>
      </trkpt>
      <trkpt lat="44.84435" lon="-0.23332">
        <ele>36.9</ele>
        <time>2020-09-09T13:29:26Z</time>
      </trkpt>
      <trkpt lat="44.84434" lon="-0.23329">
        <ele>36.9</ele>
        <time>2020-09-09T13:29:28Z</time>
      </trkpt>
      <trkpt lat="44.84434" lon="-0.23327">
        <ele>37</ele>
        <time>2020-09-09T13:29:29Z</time>
      </trkpt>
      <trkpt lat="44.84434" lon="-0.23325">
        <ele>37</ele>
        <time>2020-09-09T13:29:31Z</time>
      </trkpt>
      <trkpt lat="44.84434" lon="-0.23323">
        <ele>37.2</ele>
        <time>2020-09-09T13:29:32Z</time>
      </trkpt>
      <trkpt lat="44.84434" lon="-0.23321">
        <ele>37.2</ele>
        <time>2020-09-09T13:29:33Z</time>
      </trkpt>
      <trkpt lat="44.84434" lon="-0.23318">
        <ele>37.3</ele>
        <time>2020-09-09T13:29:34Z</time>
      </trkpt>
      <trkpt lat="44.84434" lon="-0.23316">
        <ele>37.3</ele>
        <time>2020-09-09T13:29:35Z</time>
      </trkpt>
      <trkpt lat="44.84434" lon="-0.23315">
        <ele>37.4</ele>
        <time>2020-09-09T13:29:36Z</time>
      </trkpt>
      <trkpt lat="44.84434" lon="-0.23313">
        <ele>37.4</ele>
        <time>2020-09-09T13:29:37Z</time>
      </trkpt>
      <trkpt lat="44.84434" lon="-0.2331">
        <ele>37.6</ele>
        <time>2020-09-09T13:29:38Z</time>
      </trkpt>
      <trkpt lat="44.84434" lon="-0.23308">
        <ele>37.6</ele>
        <time>2020-09-09T13:29:39Z</time>
      </trkpt>
      <trkpt lat="44.84434" lon="-0.23306">
        <ele>37.7</ele>
        <time>2020-09-09T13:29:41Z</time>
      </trkpt>
      <trkpt lat="44.84434" lon="-0.23305">
        <ele>37.7</ele>
        <time>2020-09-09T13:29:42Z</time>
      </trkpt>
      <trkpt lat="44.84433" lon="-0.23302">
        <ele>37.8</ele>
        <time>2020-09-09T13:29:43Z</time>
      </trkpt>
      <trkpt lat="44.84433" lon="-0.233">
        <ele>37.8</ele>
        <time>2020-09-09T13:29:44Z</time>
      </trkpt>
      <trkpt lat="44.84433" lon="-0.23298">
        <ele>37.9</ele>
        <time>2020-09-09T13:29:45Z</time>
      </trkpt>
      <trkpt lat="44.84432" lon="-0.23296">
        <ele>37.9</ele>
        <time>2020-09-09T13:29:46Z</time>
      </trkpt>
      <trkpt lat="44.84432" lon="-0.23295">
        <ele>37.9</ele>
        <time>2020-09-09T13:29:47Z</time>
      </trkpt>
      <trkpt lat="44.84432" lon="-0.23294">
        <ele>38</ele>
        <time>2020-09-09T13:29:48Z</time>
      </trkpt>
      <trkpt lat="44.84431" lon="-0.23293">
        <ele>38</ele>
        <time>2020-09-09T13:29:50Z</time>
      </trkpt>
      <trkpt lat="44.84431" lon="-0.2329">
        <ele>38.1</ele>
        <time>2020-09-09T13:29:51Z</time>
      </trkpt>
      <trkpt lat="44.84431" lon="-0.23288">
        <ele>38.1</ele>
        <time>2020-09-09T13:29:53Z</time>
      </trkpt>
      <trkpt lat="44.8443" lon="-0.23286">
        <ele>38.1</ele>
        <time>2020-09-09T13:29:54Z</time>
      </trkpt>
      <trkpt lat="44.8443" lon="-0.23285">
        <ele>38.2</ele>
        <time>2020-09-09T13:29:55Z</time>
      </trkpt>
      <trkpt lat="44.8443" lon="-0.23284">
        <ele>38.2</ele>
        <time>2020-09-09T13:29:57Z</time>
      </trkpt>
      <trkpt lat="44.84429" lon="-0.23281">
        <ele>38.3</ele>
        <time>2020-09-09T13:29:58Z</time>
      </trkpt>
      <trkpt lat="44.84429" lon="-0.23279">
        <ele>38.3</ele>
        <time>2020-09-09T13:29:59Z</time>
      </trkpt>
      <trkpt lat="44.84428" lon="-0.23278">
        <ele>38.3</ele>
        <time>2020-09-09T13:30:00Z</time>
      </trkpt>
      <trkpt lat="44.84428" lon="-0.23276">
        <ele>38.4</ele>
        <time>2020-09-09T13:30:02Z</time>
      </trkpt>
      <trkpt lat="44.84428" lon="-0.23275">
        <ele>38.5</ele>
        <time>2020-09-09T13:30:04Z</time>
      </trkpt>
      <trkpt lat="44.84427" lon="-0.23273">
        <ele>38.5</ele>
        <time>2020-09-09T13:30:05Z</time>
      </trkpt>
      <trkpt lat="44.84427" lon="-0.23272">
        <ele>38.6</ele>
        <time>2020-09-09T13:30:06Z</time>
      </trkpt>
      <trkpt lat="44.84426" lon="-0.23271">
        <ele>38.6</ele>
        <time>2020-09-09T13:30:07Z</time>
      </trkpt>
      <trkpt lat="44.84426" lon="-0.2327">
        <ele>38.6</ele>
        <time>2020-09-09T13:30:08Z</time>
      </trkpt>
      <trkpt lat="44.84424" lon="-0.23271">
        <ele>38.6</ele>
        <time>2020-09-09T13:30:10Z</time>
      </trkpt>
      <trkpt lat="44.84423" lon="-0.23271">
        <ele>38.6</ele>
        <time>2020-09-09T13:30:11Z</time>
      </trkpt>
      <trkpt lat="44.84421" lon="-0.23273">
        <ele>38.6</ele>
        <time>2020-09-09T13:30:13Z</time>
      </trkpt>
      <trkpt lat="44.8442" lon="-0.23274">
        <ele>38.5</ele>
        <time>2020-09-09T13:30:14Z</time>
      </trkpt>
      <trkpt lat="44.84418" lon="-0.23275">
        <ele>38.4</ele>
        <time>2020-09-09T13:30:15Z</time>
      </trkpt>
      <trkpt lat="44.84417" lon="-0.23277">
        <ele>38.4</ele>
        <time>2020-09-09T13:30:16Z</time>
      </trkpt>
      <trkpt lat="44.84417" lon="-0.23278">
        <ele>38.3</ele>
        <time>2020-09-09T13:30:17Z</time>
      </trkpt>
      <trkpt lat="44.84415" lon="-0.2328">
        <ele>38.3</ele>
        <time>2020-09-09T13:30:19Z</time>
      </trkpt>
      <trkpt lat="44.84415" lon="-0.23281">
        <ele>38.3</ele>
        <time>2020-09-09T13:30:20Z</time>
      </trkpt>
      <trkpt lat="44.84414" lon="-0.23282">
        <ele>38.1</ele>
        <time>2020-09-09T13:30:21Z</time>
      </trkpt>
      <trkpt lat="44.84413" lon="-0.23283">
        <ele>38.1</ele>
        <time>2020-09-09T13:30:22Z</time>
      </trkpt>
      <trkpt lat="44.84412" lon="-0.23284">
        <ele>38.1</ele>
        <time>2020-09-09T13:30:23Z</time>
      </trkpt>
      <trkpt lat="44.84411" lon="-0.23287">
        <ele>37.9</ele>
        <time>2020-09-09T13:30:25Z</time>
      </trkpt>
      <trkpt lat="44.84409" lon="-0.23289">
        <ele>37.9</ele>
        <time>2020-09-09T13:30:26Z</time>
      </trkpt>
      <trkpt lat="44.84409" lon="-0.2329">
        <ele>37.9</ele>
        <time>2020-09-09T13:30:28Z</time>
      </trkpt>
      <trkpt lat="44.84408" lon="-0.23291">
        <ele>37.7</ele>
        <time>2020-09-09T13:30:29Z</time>
      </trkpt>
      <trkpt lat="44.84407" lon="-0.23292">
        <ele>37.7</ele>
        <time>2020-09-09T13:30:31Z</time>
      </trkpt>
      <trkpt lat="44.84406" lon="-0.23294">
        <ele>37.7</ele>
        <time>2020-09-09T13:30:32Z</time>
      </trkpt>
      <trkpt lat="44.84405" lon="-0.23295">
        <ele>37.5</ele>
        <time>2020-09-09T13:30:33Z</time>
      </trkpt>
      <trkpt lat="44.84403" lon="-0.23297">
        <ele>37.4</ele>
        <time>2020-09-09T13:30:34Z</time>
      </trkpt>
      <trkpt lat="44.84403" lon="-0.23299">
        <ele>37.4</ele>
        <time>2020-09-09T13:30:35Z</time>
      </trkpt>
      <trkpt lat="44.84402" lon="-0.233">
        <ele>37.3</ele>
        <time>2020-09-09T13:30:36Z</time>
      </trkpt>
      <trkpt lat="44.84401" lon="-0.23301">
        <ele>37.3</ele>
        <time>2020-09-09T13:30:38Z</time>
      </trkpt>
      <trkpt lat="44.84398" lon="-0.23303">
        <ele>37.2</ele>
        <time>2020-09-09T13:30:40Z</time>
      </trkpt>
      <trkpt lat="44.84397" lon="-0.23304">
        <ele>37</ele>
        <time>2020-09-09T13:30:42Z</time>
      </trkpt>
      <trkpt lat="44.84397" lon="-0.23304">
        <ele>36.9</ele>
        <time>2020-09-09T13:30:44Z</time>
      </trkpt>
      <trkpt lat="44.84395" lon="-0.23305">
        <ele>36.9</ele>
        <time>2020-09-09T13:30:45Z</time>
      </trkpt>
      <trkpt lat="44.84395" lon="-0.23305">
        <ele>36.9</ele>
        <time>2020-09-09T13:30:46Z</time>
      </trkpt>
      <trkpt lat="44.84394" lon="-0.23306">
        <ele>36.9</ele>
        <time>2020-09-09T13:30:47Z</time>
      </trkpt>
      <trkpt lat="44.84394" lon="-0.23306">
        <ele>36.7</ele>
        <time>2020-09-09T13:30:48Z</time>
      </trkpt>
      <trkpt lat="44.84393" lon="-0.23307">
        <ele>36.7</ele>
        <time>2020-09-09T13:30:50Z</time>
      </trkpt>
      <trkpt lat="44.84393" lon="-0.23308">
        <ele>36.5</ele>
        <time>2020-09-09T13:30:51Z</time>
      </trkpt>
      <trkpt lat="44.84392" lon="-0.2331">
        <ele>36.5</ele>
        <time>2020-09-09T13:30:52Z</time>
      </trkpt>
      <trkpt lat="44.84391" lon="-0.23311">
        <ele>36.4</ele>
        <time>2020-09-09T13:30:53Z</time>
      </trkpt>
      <trkpt lat="44.84389" lon="-0.23313">
        <ele>36.2</ele>
        <time>2020-09-09T13:30:55Z</time>
      </trkpt>
      <trkpt lat="44.84389" lon="-0.23314">
        <ele>36.2</ele>
        <time>2020-09-09T13:30:56Z</time>
      </trkpt>
      <trkpt lat="44.84388" lon="-0.23315">
        <ele>36.2</ele>
        <time>2020-09-09T13:30:57Z</time>
      </trkpt>
      <trkpt lat="44.84388" lon="-0.23316">
        <ele>35.8</ele>
        <time>2020-09-09T13:30:58Z</time>
      </trkpt>
      <trkpt lat="44.84387" lon="-0.23318">
        <ele>35.8</ele>
        <time>2020-09-09T13:30:59Z</time>
      </trkpt>
      <trkpt lat="44.84386" lon="-0.23319">
        <ele>35.8</ele>
        <time>2020-09-09T13:31:01Z</time>
      </trkpt>
      <trkpt lat="44.84385" lon="-0.2332">
        <ele>35.8</ele>
        <time>2020-09-09T13:31:02Z</time>
      </trkpt>
      <trkpt lat="44.84385" lon="-0.23321">
        <ele>35.4</ele>
        <time>2020-09-09T13:31:03Z</time>
      </trkpt>
      <trkpt lat="44.84383" lon="-0.23323">
        <ele>35.4</ele>
        <time>2020-09-09T13:31:04Z</time>
      </trkpt>
      <trkpt lat="44.84383" lon="-0.23324">
        <ele>35.4</ele>
        <time>2020-09-09T13:31:06Z</time>
      </trkpt>
      <trkpt lat="44.84382" lon="-0.23325">
        <ele>35</ele>
        <time>2020-09-09T13:31:07Z</time>
      </trkpt>
      <trkpt lat="44.84381" lon="-0.23326">
        <ele>35</ele>
        <time>2020-09-09T13:31:08Z</time>
      </trkpt>
      <trkpt lat="44.8438" lon="-0.23327">
        <ele>35</ele>
        <time>2020-09-09T13:31:09Z</time>
      </trkpt>
      <trkpt lat="44.84379" lon="-0.23328">
        <ele>34.8</ele>
        <time>2020-09-09T13:31:10Z</time>
      </trkpt>
      <trkpt lat="44.84378" lon="-0.23329">
        <ele>34.6</ele>
        <time>2020-09-09T13:31:11Z</time>
      </trkpt>
      <trkpt lat="44.84377" lon="-0.2333">
        <ele>34.6</ele>
        <time>2020-09-09T13:31:13Z</time>
      </trkpt>
      <trkpt lat="44.84376" lon="-0.23331">
        <ele>34.4</ele>
        <time>2020-09-09T13:31:14Z</time>
      </trkpt>
      <trkpt lat="44.84375" lon="-0.23332">
        <ele>34.4</ele>
        <time>2020-09-09T13:31:15Z</time>
      </trkpt>
      <trkpt lat="44.84374" lon="-0.23333">
        <ele>34.4</ele>
        <time>2020-09-09T13:31:16Z</time>
      </trkpt>
      <trkpt lat="44.84372" lon="-0.23335">
        <ele>33.9</ele>
        <time>2020-09-09T13:31:18Z</time>
      </trkpt>
      <trkpt lat="44.84371" lon="-0.23336">
        <ele>33.9</ele>
        <time>2020-09-09T13:31:19Z</time>
      </trkpt>
      <trkpt lat="44.84369" lon="-0.23337">
        <ele>33.5</ele>
        <time>2020-09-09T13:31:21Z</time>
      </trkpt>
      <trkpt lat="44.84368" lon="-0.23338">
        <ele>33.5</ele>
        <time>2020-09-09T13:31:22Z</time>
      </trkpt>
      <trkpt lat="44.84367" lon="-0.23339">
        <ele>33.5</ele>
        <time>2020-09-09T13:31:23Z</time>
      </trkpt>
      <trkpt lat="44.84366" lon="-0.2334">
        <ele>33.3</ele>
        <time>2020-09-09T13:31:24Z</time>
      </trkpt>
      <trkpt lat="44.84364" lon="-0.23341">
        <ele>33.3</ele>
        <time>2020-09-09T13:31:25Z</time>
      </trkpt>
      <trkpt lat="44.84364" lon="-0.23341">
        <ele>33</ele>
        <time>2020-09-09T13:31:26Z</time>
      </trkpt>
      <trkpt lat="44.84363" lon="-0.23342">
        <ele>32.9</ele>
        <time>2020-09-09T13:31:27Z</time>
      </trkpt>
      <trkpt lat="44.84363" lon="-0.23344">
        <ele>32.9</ele>
        <time>2020-09-09T13:31:28Z</time>
      </trkpt>
      <trkpt lat="44.84361" lon="-0.23345">
        <ele>32.9</ele>
        <time>2020-09-09T13:31:30Z</time>
      </trkpt>
      <trkpt lat="44.8436" lon="-0.23345">
        <ele>32.6</ele>
        <time>2020-09-09T13:31:31Z</time>
      </trkpt>
      <trkpt lat="44.84359" lon="-0.23344">
        <ele>32.6</ele>
        <time>2020-09-09T13:31:32Z</time>
      </trkpt>
      <trkpt lat="44.84358" lon="-0.23343">
        <ele>32.6</ele>
        <time>2020-09-09T13:31:33Z</time>
      </trkpt>
      <trkpt lat="44.84356" lon="-0.2334">
        <ele>32.5</ele>
        <time>2020-09-09T13:31:35Z</time>
      </trkpt>
      <trkpt lat="44.84356" lon="-0.23339">
        <ele>32.5</ele>
        <time>2020-09-09T13:31:36Z</time>
      </trkpt>
      <trkpt lat="44.84355" lon="-0.23337">
        <ele>32.7</ele>
        <time>2020-09-09T13:31:37Z</time>
      </trkpt>
      <trkpt lat="44.84355" lon="-0.23335">
        <ele>32.7</ele>
        <time>2020-09-09T13:31:38Z</time>
      </trkpt>
      <trkpt lat="44.84354" lon="-0.23332">
        <ele>32.6</ele>
        <time>2020-09-09T13:31:40Z</time>
      </trkpt>
      <trkpt lat="44.84354" lon="-0.2333">
        <ele>32.6</ele>
        <time>2020-09-09T13:31:41Z</time>
      </trkpt>
      <trkpt lat="44.84353" lon="-0.23328">
        <ele>32.7</ele>
        <time>2020-09-09T13:31:43Z</time>
      </trkpt>
      <trkpt lat="44.84353" lon="-0.23327">
        <ele>32.7</ele>
        <time>2020-09-09T13:31:44Z</time>
      </trkpt>
      <trkpt lat="44.84352" lon="-0.23325">
        <ele>32.5</ele>
        <time>2020-09-09T13:31:45Z</time>
      </trkpt>
      <trkpt lat="44.84351" lon="-0.23323">
        <ele>32.7</ele>
        <time>2020-09-09T13:31:47Z</time>
      </trkpt>
      <trkpt lat="44.8435" lon="-0.23323">
        <ele>32.7</ele>
        <time>2020-09-09T13:31:48Z</time>
      </trkpt>
      <trkpt lat="44.84349" lon="-0.23323">
        <ele>32.7</ele>
        <time>2020-09-09T13:31:49Z</time>
      </trkpt>
      <trkpt lat="44.84347" lon="-0.23323">
        <ele>32.4</ele>
        <time>2020-09-09T13:31:51Z</time>
      </trkpt>
      <trkpt lat="44.84346" lon="-0.23324">
        <ele>32.4</ele>
        <time>2020-09-09T13:31:52Z</time>
      </trkpt>
      <trkpt lat="44.84345" lon="-0.23325">
        <ele>32</ele>
        <time>2020-09-09T13:31:53Z</time>
      </trkpt>
      <trkpt lat="44.84342" lon="-0.23327">
        <ele>31.8</ele>
        <time>2020-09-09T13:31:55Z</time>
      </trkpt>
      <trkpt lat="44.8434" lon="-0.23329">
        <ele>31.6</ele>
        <time>2020-09-09T13:31:56Z</time>
      </trkpt>
      <trkpt lat="44.8434" lon="-0.2333">
        <ele>31.6</ele>
        <time>2020-09-09T13:31:57Z</time>
      </trkpt>
      <trkpt lat="44.84339" lon="-0.23331">
        <ele>31.4</ele>
        <time>2020-09-09T13:31:58Z</time>
      </trkpt>
      <trkpt lat="44.84337" lon="-0.23333">
        <ele>31.2</ele>
        <time>2020-09-09T13:31:59Z</time>
      </trkpt>
      <trkpt lat="44.84336" lon="-0.23334">
        <ele>30.9</ele>
        <time>2020-09-09T13:32:00Z</time>
      </trkpt>
      <trkpt lat="44.84334" lon="-0.23336">
        <ele>30.9</ele>
        <time>2020-09-09T13:32:01Z</time>
      </trkpt>
      <trkpt lat="44.84333" lon="-0.23338">
        <ele>30.7</ele>
        <time>2020-09-09T13:32:03Z</time>
      </trkpt>
      <trkpt lat="44.84333" lon="-0.23339">
        <ele>30.5</ele>
        <time>2020-09-09T13:32:04Z</time>
      </trkpt>
      <trkpt lat="44.84331" lon="-0.23341">
        <ele>30.5</ele>
        <time>2020-09-09T13:32:05Z</time>
      </trkpt>
      <trkpt lat="44.8433" lon="-0.23342">
        <ele>30.1</ele>
        <time>2020-09-09T13:32:06Z</time>
      </trkpt>
      <trkpt lat="44.84329" lon="-0.23343">
        <ele>30.1</ele>
        <time>2020-09-09T13:32:08Z</time>
      </trkpt>
      <trkpt lat="44.84327" lon="-0.23345">
        <ele>29.8</ele>
        <time>2020-09-09T13:32:09Z</time>
      </trkpt>
      <trkpt lat="44.84325" lon="-0.23347">
        <ele>29.7</ele>
        <time>2020-09-09T13:32:11Z</time>
      </trkpt>
      <trkpt lat="44.84324" lon="-0.23348">
        <ele>29.5</ele>
        <time>2020-09-09T13:32:12Z</time>
      </trkpt>
      <trkpt lat="44.84323" lon="-0.23349">
        <ele>29.5</ele>
        <time>2020-09-09T13:32:13Z</time>
      </trkpt>
      <trkpt lat="44.84322" lon="-0.2335">
        <ele>29.3</ele>
        <time>2020-09-09T13:32:14Z</time>
      </trkpt>
      <trkpt lat="44.84321" lon="-0.23352">
        <ele>29.1</ele>
        <time>2020-09-09T13:32:15Z</time>
      </trkpt>
      <trkpt lat="44.84321" lon="-0.23352">
        <ele>29.1</ele>
        <time>2020-09-09T13:32:16Z</time>
      </trkpt>
      <trkpt lat="44.8432" lon="-0.23353">
        <ele>29.1</ele>
        <time>2020-09-09T13:32:18Z</time>
      </trkpt>
      <trkpt lat="44.84319" lon="-0.23354">
        <ele>29.1</ele>
        <time>2020-09-09T13:32:19Z</time>
      </trkpt>
      <trkpt lat="44.84317" lon="-0.23356">
        <ele>28.8</ele>
        <time>2020-09-09T13:32:20Z</time>
      </trkpt>
      <trkpt lat="44.84316" lon="-0.23356">
        <ele>28.8</ele>
        <time>2020-09-09T13:32:21Z</time>
      </trkpt>
      <trkpt lat="44.84315" lon="-0.23357">
        <ele>28.6</ele>
        <time>2020-09-09T13:32:22Z</time>
      </trkpt>
      <trkpt lat="44.84314" lon="-0.23358">
        <ele>28.5</ele>
        <time>2020-09-09T13:32:23Z</time>
      </trkpt>
      <trkpt lat="44.84311" lon="-0.23361">
        <ele>28.2</ele>
        <time>2020-09-09T13:32:25Z</time>
      </trkpt>
      <trkpt lat="44.84311" lon="-0.23362">
        <ele>28.2</ele>
        <time>2020-09-09T13:32:26Z</time>
      </trkpt>
      <trkpt lat="44.8431" lon="-0.23363">
        <ele>28.2</ele>
        <time>2020-09-09T13:32:27Z</time>
      </trkpt>
      <trkpt lat="44.84309" lon="-0.23364">
        <ele>27.8</ele>
        <time>2020-09-09T13:32:28Z</time>
      </trkpt>
      <trkpt lat="44.84308" lon="-0.23365">
        <ele>27.8</ele>
        <time>2020-09-09T13:32:29Z</time>
      </trkpt>
      <trkpt lat="44.84306" lon="-0.23368">
        <ele>27.4</ele>
        <time>2020-09-09T13:32:31Z</time>
      </trkpt>
      <trkpt lat="44.84305" lon="-0.23368">
        <ele>27.4</ele>
        <time>2020-09-09T13:32:32Z</time>
      </trkpt>
      <trkpt lat="44.84305" lon="-0.23369">
        <ele>27.4</ele>
        <time>2020-09-09T13:32:34Z</time>
      </trkpt>
      <trkpt lat="44.84303" lon="-0.2337">
        <ele>27.4</ele>
        <time>2020-09-09T13:32:35Z</time>
      </trkpt>
      <trkpt lat="44.84303" lon="-0.23371">
        <ele>27.4</ele>
        <time>2020-09-09T13:32:36Z</time>
      </trkpt>
      <trkpt lat="44.84302" lon="-0.23371">
        <ele>27.2</ele>
        <time>2020-09-09T13:32:37Z</time>
      </trkpt>
      <trkpt lat="44.84302" lon="-0.23372">
        <ele>27</ele>
        <time>2020-09-09T13:32:38Z</time>
      </trkpt>
      <trkpt lat="44.84301" lon="-0.23373">
        <ele>27</ele>
        <time>2020-09-09T13:32:39Z</time>
      </trkpt>
      <trkpt lat="44.843" lon="-0.23374">
        <ele>26.8</ele>
        <time>2020-09-09T13:32:40Z</time>
      </trkpt>
      <trkpt lat="44.84299" lon="-0.23374">
        <ele>26.8</ele>
        <time>2020-09-09T13:32:41Z</time>
      </trkpt>
      <trkpt lat="44.84298" lon="-0.23375">
        <ele>26.8</ele>
        <time>2020-09-09T13:32:43Z</time>
      </trkpt>
      <trkpt lat="44.84297" lon="-0.23376">
        <ele>26.8</ele>
        <time>2020-09-09T13:32:44Z</time>
      </trkpt>
      <trkpt lat="44.84296" lon="-0.23376">
        <ele>26.5</ele>
        <time>2020-09-09T13:32:45Z</time>
      </trkpt>
      <trkpt lat="44.84295" lon="-0.23377">
        <ele>26.5</ele>
        <time>2020-09-09T13:32:46Z</time>
      </trkpt>
      <trkpt lat="44.84294" lon="-0.23378">
        <ele>26.3</ele>
        <time>2020-09-09T13:32:48Z</time>
      </trkpt>
      <trkpt lat="44.84293" lon="-0.23378">
        <ele>26.3</ele>
        <time>2020-09-09T13:32:49Z</time>
      </trkpt>
      <trkpt lat="44.84292" lon="-0.23379">
        <ele>26.3</ele>
        <time>2020-09-09T13:32:50Z</time>
      </trkpt>
      <trkpt lat="44.84291" lon="-0.2338">
        <ele>26.3</ele>
        <time>2020-09-09T13:32:51Z</time>
      </trkpt>
      <trkpt lat="44.84291" lon="-0.23381">
        <ele>26.2</ele>
        <time>2020-09-09T13:32:52Z</time>
      </trkpt>
      <trkpt lat="44.8429" lon="-0.23382">
        <ele>26</ele>
        <time>2020-09-09T13:32:53Z</time>
      </trkpt>
      <trkpt lat="44.84289" lon="-0.23383">
        <ele>26</ele>
        <time>2020-09-09T13:32:55Z</time>
      </trkpt>
      <trkpt lat="44.84288" lon="-0.23384">
        <ele>25.8</ele>
        <time>2020-09-09T13:32:56Z</time>
      </trkpt>
      <trkpt lat="44.84287" lon="-0.23385">
        <ele>25.7</ele>
        <time>2020-09-09T13:32:57Z</time>
      </trkpt>
      <trkpt lat="44.84286" lon="-0.23386">
        <ele>25.6</ele>
        <time>2020-09-09T13:32:59Z</time>
      </trkpt>
      <trkpt lat="44.84286" lon="-0.23387">
        <ele>25.6</ele>
        <time>2020-09-09T13:33:00Z</time>
      </trkpt>
      <trkpt lat="44.84284" lon="-0.23388">
        <ele>25.4</ele>
        <time>2020-09-09T13:33:01Z</time>
      </trkpt>
      <trkpt lat="44.84283" lon="-0.23389">
        <ele>25.3</ele>
        <time>2020-09-09T13:33:02Z</time>
      </trkpt>
      <trkpt lat="44.84283" lon="-0.2339">
        <ele>25.3</ele>
        <time>2020-09-09T13:33:03Z</time>
      </trkpt>
      <trkpt lat="44.84282" lon="-0.23392">
        <ele>25.1</ele>
        <time>2020-09-09T13:33:05Z</time>
      </trkpt>
      <trkpt lat="44.8428" lon="-0.23394">
        <ele>25</ele>
        <time>2020-09-09T13:33:06Z</time>
      </trkpt>
      <trkpt lat="44.8428" lon="-0.23396">
        <ele>25</ele>
        <time>2020-09-09T13:33:07Z</time>
      </trkpt>
      <trkpt lat="44.84279" lon="-0.234">
        <ele>24.9</ele>
        <time>2020-09-09T13:33:09Z</time>
      </trkpt>
      <trkpt lat="44.84279" lon="-0.23402">
        <ele>24.9</ele>
        <time>2020-09-09T13:33:10Z</time>
      </trkpt>
      <trkpt lat="44.84279" lon="-0.23404">
        <ele>24.7</ele>
        <time>2020-09-09T13:33:12Z</time>
      </trkpt>
      <trkpt lat="44.84279" lon="-0.23406">
        <ele>24.7</ele>
        <time>2020-09-09T13:33:13Z</time>
      </trkpt>
      <trkpt lat="44.84279" lon="-0.23408">
        <ele>24.6</ele>
        <time>2020-09-09T13:33:15Z</time>
      </trkpt>
      <trkpt lat="44.84279" lon="-0.2341">
        <ele>24.6</ele>
        <time>2020-09-09T13:33:16Z</time>
      </trkpt>
      <trkpt lat="44.84279" lon="-0.23411">
        <ele>24.5</ele>
        <time>2020-09-09T13:33:17Z</time>
      </trkpt>
      <trkpt lat="44.8428" lon="-0.23413">
        <ele>24.5</ele>
        <time>2020-09-09T13:33:19Z</time>
      </trkpt>
      <trkpt lat="44.8428" lon="-0.23413">
        <ele>24.5</ele>
        <time>2020-09-09T13:33:21Z</time>
      </trkpt>
      <trkpt lat="44.84281" lon="-0.23412">
        <ele>24.5</ele>
        <time>2020-09-09T13:33:22Z</time>
      </trkpt>
      <trkpt lat="44.8428" lon="-0.23411">
        <ele>24.5</ele>
        <time>2020-09-09T13:33:24Z</time>
      </trkpt>
      <trkpt lat="44.8428" lon="-0.23411">
        <ele>24.4</ele>
        <time>2020-09-09T13:33:25Z</time>
      </trkpt>
      <trkpt lat="44.8428" lon="-0.23411">
        <ele>24.4</ele>
        <time>2020-09-09T13:33:27Z</time>
      </trkpt>
      <trkpt lat="44.84279" lon="-0.2341">
        <ele>24.6</ele>
        <time>2020-09-09T13:33:28Z</time>
      </trkpt>
      <trkpt lat="44.84279" lon="-0.23409">
        <ele>24.6</ele>
        <time>2020-09-09T13:33:29Z</time>
      </trkpt>
      <trkpt lat="44.84277" lon="-0.23409">
        <ele>24.4</ele>
        <time>2020-09-09T13:33:31Z</time>
      </trkpt>
      <trkpt lat="44.84277" lon="-0.2341">
        <ele>24.4</ele>
        <time>2020-09-09T13:33:32Z</time>
      </trkpt>
      <trkpt lat="44.84277" lon="-0.23412">
        <ele>24.2</ele>
        <time>2020-09-09T13:33:33Z</time>
      </trkpt>
      <trkpt lat="44.84277" lon="-0.23415">
        <ele>24.1</ele>
        <time>2020-09-09T13:33:35Z</time>
      </trkpt>
      <trkpt lat="44.84277" lon="-0.23417">
        <ele>24.1</ele>
        <time>2020-09-09T13:33:36Z</time>
      </trkpt>
      <trkpt lat="44.84277" lon="-0.23419">
        <ele>24.1</ele>
        <time>2020-09-09T13:33:37Z</time>
      </trkpt>
      <trkpt lat="44.84277" lon="-0.2342">
        <ele>24</ele>
        <time>2020-09-09T13:33:38Z</time>
      </trkpt>
      <trkpt lat="44.84277" lon="-0.23422">
        <ele>24</ele>
        <time>2020-09-09T13:33:40Z</time>
      </trkpt>
      <trkpt lat="44.84278" lon="-0.23426">
        <ele>23.8</ele>
        <time>2020-09-09T13:33:41Z</time>
      </trkpt>
      <trkpt lat="44.84278" lon="-0.23427">
        <ele>23.8</ele>
        <time>2020-09-09T13:33:42Z</time>
      </trkpt>
      <trkpt lat="44.84279" lon="-0.23429">
        <ele>23.9</ele>
        <time>2020-09-09T13:33:43Z</time>
      </trkpt>
      <trkpt lat="44.8428" lon="-0.23431">
        <ele>23.9</ele>
        <time>2020-09-09T13:33:44Z</time>
      </trkpt>
      <trkpt lat="44.84281" lon="-0.23435">
        <ele>23.8</ele>
        <time>2020-09-09T13:33:45Z</time>
      </trkpt>
      <trkpt lat="44.84282" lon="-0.23436">
        <ele>23.9</ele>
        <time>2020-09-09T13:33:46Z</time>
      </trkpt>
      <trkpt lat="44.84283" lon="-0.23439">
        <ele>23.9</ele>
        <time>2020-09-09T13:33:48Z</time>
      </trkpt>
      <trkpt lat="44.84283" lon="-0.2344">
        <ele>23.9</ele>
        <time>2020-09-09T13:33:49Z</time>
      </trkpt>
      <trkpt lat="44.84284" lon="-0.23441">
        <ele>23.7</ele>
        <time>2020-09-09T13:33:50Z</time>
      </trkpt>
      <trkpt lat="44.84284" lon="-0.23444">
        <ele>23.7</ele>
        <time>2020-09-09T13:33:51Z</time>
      </trkpt>
      <trkpt lat="44.84285" lon="-0.23446">
        <ele>23.8</ele>
        <time>2020-09-09T13:33:52Z</time>
      </trkpt>
      <trkpt lat="44.84285" lon="-0.23447">
        <ele>23.8</ele>
        <time>2020-09-09T13:33:53Z</time>
      </trkpt>
      <trkpt lat="44.84286" lon="-0.23449">
        <ele>23.8</ele>
        <time>2020-09-09T13:33:54Z</time>
      </trkpt>
      <trkpt lat="44.84286" lon="-0.2345">
        <ele>23.7</ele>
        <time>2020-09-09T13:33:55Z</time>
      </trkpt>
      <trkpt lat="44.84287" lon="-0.23453">
        <ele>23.7</ele>
        <time>2020-09-09T13:33:56Z</time>
      </trkpt>
      <trkpt lat="44.84288" lon="-0.23454">
        <ele>23.8</ele>
        <time>2020-09-09T13:33:58Z</time>
      </trkpt>
      <trkpt lat="44.84289" lon="-0.23455">
        <ele>23.8</ele>
        <time>2020-09-09T13:33:59Z</time>
      </trkpt>
      <trkpt lat="44.8429" lon="-0.23458">
        <ele>23.6</ele>
        <time>2020-09-09T13:34:01Z</time>
      </trkpt>
      <trkpt lat="44.84291" lon="-0.23459">
        <ele>23.6</ele>
        <time>2020-09-09T13:34:02Z</time>
      </trkpt>
      <trkpt lat="44.84291" lon="-0.2346">
        <ele>23.8</ele>
        <time>2020-09-09T13:34:03Z</time>
      </trkpt>
      <trkpt lat="44.84292" lon="-0.23461">
        <ele>23.8</ele>
        <time>2020-09-09T13:34:04Z</time>
      </trkpt>
      <trkpt lat="44.84294" lon="-0.23464">
        <ele>23.7</ele>
        <time>2020-09-09T13:34:06Z</time>
      </trkpt>
      <trkpt lat="44.84294" lon="-0.23465">
        <ele>23.9</ele>
        <time>2020-09-09T13:34:07Z</time>
      </trkpt>
      <trkpt lat="44.84295" lon="-0.23466">
        <ele>23.9</ele>
        <time>2020-09-09T13:34:08Z</time>
      </trkpt>
      <trkpt lat="44.84296" lon="-0.23467">
        <ele>23.8</ele>
        <time>2020-09-09T13:34:09Z</time>
      </trkpt>
      <trkpt lat="44.84296" lon="-0.23468">
        <ele>23.8</ele>
        <time>2020-09-09T13:34:10Z</time>
      </trkpt>
      <trkpt lat="44.84297" lon="-0.2347">
        <ele>24</ele>
        <time>2020-09-09T13:34:11Z</time>
      </trkpt>
      <trkpt lat="44.84298" lon="-0.23471">
        <ele>23.9</ele>
        <time>2020-09-09T13:34:12Z</time>
      </trkpt>
      <trkpt lat="44.84298" lon="-0.23472">
        <ele>23.9</ele>
        <time>2020-09-09T13:34:13Z</time>
      </trkpt>
      <trkpt lat="44.843" lon="-0.23475">
        <ele>24</ele>
        <time>2020-09-09T13:34:15Z</time>
      </trkpt>
      <trkpt lat="44.843" lon="-0.23476">
        <ele>24</ele>
        <time>2020-09-09T13:34:16Z</time>
      </trkpt>
      <trkpt lat="44.84301" lon="-0.23477">
        <ele>24</ele>
        <time>2020-09-09T13:34:17Z</time>
      </trkpt>
      <trkpt lat="44.84302" lon="-0.23479">
        <ele>24</ele>
        <time>2020-09-09T13:34:18Z</time>
      </trkpt>
      <trkpt lat="44.84302" lon="-0.2348">
        <ele>23.8</ele>
        <time>2020-09-09T13:34:19Z</time>
      </trkpt>
      <trkpt lat="44.84303" lon="-0.23483">
        <ele>24.1</ele>
        <time>2020-09-09T13:34:21Z</time>
      </trkpt>
      <trkpt lat="44.84304" lon="-0.23484">
        <ele>23.9</ele>
        <time>2020-09-09T13:34:22Z</time>
      </trkpt>
      <trkpt lat="44.84304" lon="-0.23484">
        <ele>23.9</ele>
        <time>2020-09-09T13:34:23Z</time>
      </trkpt>
      <trkpt lat="44.84305" lon="-0.23487">
        <ele>23.9</ele>
        <time>2020-09-09T13:34:24Z</time>
      </trkpt>
      <trkpt lat="44.84306" lon="-0.23489">
        <ele>23.8</ele>
        <time>2020-09-09T13:34:25Z</time>
      </trkpt>
      <trkpt lat="44.84306" lon="-0.2349">
        <ele>24</ele>
        <time>2020-09-09T13:34:26Z</time>
      </trkpt>
      <trkpt lat="44.84307" lon="-0.23491">
        <ele>24</ele>
        <time>2020-09-09T13:34:27Z</time>
      </trkpt>
      <trkpt lat="44.84307" lon="-0.23492">
        <ele>23.9</ele>
        <time>2020-09-09T13:34:28Z</time>
      </trkpt>
      <trkpt lat="44.84308" lon="-0.23494">
        <ele>23.9</ele>
        <time>2020-09-09T13:34:30Z</time>
      </trkpt>
      <trkpt lat="44.84309" lon="-0.23496">
        <ele>23.9</ele>
        <time>2020-09-09T13:34:31Z</time>
      </trkpt>
      <trkpt lat="44.84309" lon="-0.23497">
        <ele>24</ele>
        <time>2020-09-09T13:34:32Z</time>
      </trkpt>
      <trkpt lat="44.8431" lon="-0.23498">
        <ele>24</ele>
        <time>2020-09-09T13:34:33Z</time>
      </trkpt>
      <trkpt lat="44.8431" lon="-0.23499">
        <ele>24</ele>
        <time>2020-09-09T13:34:34Z</time>
      </trkpt>
      <trkpt lat="44.8431" lon="-0.235">
        <ele>24</ele>
        <time>2020-09-09T13:34:35Z</time>
      </trkpt>
      <trkpt lat="44.84311" lon="-0.23502">
        <ele>23.8</ele>
        <time>2020-09-09T13:34:36Z</time>
      </trkpt>
      <trkpt lat="44.84311" lon="-0.23503">
        <ele>23.8</ele>
        <time>2020-09-09T13:34:38Z</time>
      </trkpt>
      <trkpt lat="44.84311" lon="-0.23504">
        <ele>23.8</ele>
        <time>2020-09-09T13:34:39Z</time>
      </trkpt>
      <trkpt lat="44.84312" lon="-0.23506">
        <ele>23.7</ele>
        <time>2020-09-09T13:34:40Z</time>
      </trkpt>
      <trkpt lat="44.84312" lon="-0.23508">
        <ele>23.9</ele>
        <time>2020-09-09T13:34:41Z</time>
      </trkpt>
      <trkpt lat="44.84313" lon="-0.23509">
        <ele>23.9</ele>
        <time>2020-09-09T13:34:42Z</time>
      </trkpt>
      <trkpt lat="44.84313" lon="-0.2351">
        <ele>23.8</ele>
        <time>2020-09-09T13:34:43Z</time>
      </trkpt>
      <trkpt lat="44.84313" lon="-0.23511">
        <ele>23.8</ele>
        <time>2020-09-09T13:34:44Z</time>
      </trkpt>
      <trkpt lat="44.84313" lon="-0.23513">
        <ele>23.8</ele>
        <time>2020-09-09T13:34:45Z</time>
      </trkpt>
      <trkpt lat="44.84313" lon="-0.23514">
        <ele>23.6</ele>
        <time>2020-09-09T13:34:47Z</time>
      </trkpt>
      <trkpt lat="44.84313" lon="-0.23515">
        <ele>23.6</ele>
        <time>2020-09-09T13:34:48Z</time>
      </trkpt>
      <trkpt lat="44.84313" lon="-0.23516">
        <ele>23.6</ele>
        <time>2020-09-09T13:34:49Z</time>
      </trkpt>
      <trkpt lat="44.84313" lon="-0.23518">
        <ele>23.6</ele>
        <time>2020-09-09T13:34:50Z</time>
      </trkpt>
      <trkpt lat="44.84313" lon="-0.23519">
        <ele>23.5</ele>
        <time>2020-09-09T13:34:51Z</time>
      </trkpt>
      <trkpt lat="44.84312" lon="-0.23519">
        <ele>23.5</ele>
        <time>2020-09-09T13:34:53Z</time>
      </trkpt>
      <trkpt lat="44.84312" lon="-0.2352">
        <ele>23.3</ele>
        <time>2020-09-09T13:34:54Z</time>
      </trkpt>
      <trkpt lat="44.84311" lon="-0.23521">
        <ele>23.3</ele>
        <time>2020-09-09T13:34:55Z</time>
      </trkpt>
      <trkpt lat="44.84309" lon="-0.23523">
        <ele>22.9</ele>
        <time>2020-09-09T13:34:56Z</time>
      </trkpt>
      <trkpt lat="44.84308" lon="-0.23524">
        <ele>22.9</ele>
        <time>2020-09-09T13:34:57Z</time>
      </trkpt>
      <trkpt lat="44.84306" lon="-0.23525">
        <ele>22.9</ele>
        <time>2020-09-09T13:34:59Z</time>
      </trkpt>
      <trkpt lat="44.84305" lon="-0.23526">
        <ele>22.5</ele>
        <time>2020-09-09T13:35:00Z</time>
      </trkpt>
      <trkpt lat="44.84304" lon="-0.23528">
        <ele>22.5</ele>
        <time>2020-09-09T13:35:01Z</time>
      </trkpt>
      <trkpt lat="44.84303" lon="-0.23529">
        <ele>22.3</ele>
        <time>2020-09-09T13:35:02Z</time>
      </trkpt>
      <trkpt lat="44.84302" lon="-0.2353">
        <ele>22.3</ele>
        <time>2020-09-09T13:35:03Z</time>
      </trkpt>
      <trkpt lat="44.84301" lon="-0.23531">
        <ele>22.2</ele>
        <time>2020-09-09T13:35:04Z</time>
      </trkpt>
      <trkpt lat="44.843" lon="-0.23532">
        <ele>22</ele>
        <time>2020-09-09T13:35:06Z</time>
      </trkpt>
      <trkpt lat="44.84298" lon="-0.23534">
        <ele>22</ele>
        <time>2020-09-09T13:35:07Z</time>
      </trkpt>
      <trkpt lat="44.84297" lon="-0.23536">
        <ele>21.6</ele>
        <time>2020-09-09T13:35:09Z</time>
      </trkpt>
      <trkpt lat="44.84295" lon="-0.23538">
        <ele>21.6</ele>
        <time>2020-09-09T13:35:10Z</time>
      </trkpt>
      <trkpt lat="44.84295" lon="-0.23539">
        <ele>21.6</ele>
        <time>2020-09-09T13:35:11Z</time>
      </trkpt>
      <trkpt lat="44.84294" lon="-0.2354">
        <ele>21.5</ele>
        <time>2020-09-09T13:35:12Z</time>
      </trkpt>
      <trkpt lat="44.84294" lon="-0.23541">
        <ele>21.3</ele>
        <time>2020-09-09T13:35:13Z</time>
      </trkpt>
      <trkpt lat="44.84293" lon="-0.23541">
        <ele>21.3</ele>
        <time>2020-09-09T13:35:14Z</time>
      </trkpt>
      <trkpt lat="44.84292" lon="-0.23543">
        <ele>21.3</ele>
        <time>2020-09-09T13:35:16Z</time>
      </trkpt>
      <trkpt lat="44.84291" lon="-0.23544">
        <ele>21.1</ele>
        <time>2020-09-09T13:35:17Z</time>
      </trkpt>
      <trkpt lat="44.8429" lon="-0.23545">
        <ele>20.9</ele>
        <time>2020-09-09T13:35:18Z</time>
      </trkpt>
      <trkpt lat="44.84289" lon="-0.23546">
        <ele>20.9</ele>
        <time>2020-09-09T13:35:19Z</time>
      </trkpt>
      <trkpt lat="44.84288" lon="-0.23547">
        <ele>20.9</ele>
        <time>2020-09-09T13:35:20Z</time>
      </trkpt>
      <trkpt lat="44.84288" lon="-0.23549">
        <ele>20.6</ele>
        <time>2020-09-09T13:35:21Z</time>
      </trkpt>
      <trkpt lat="44.84287" lon="-0.2355">
        <ele>20.6</ele>
        <time>2020-09-09T13:35:22Z</time>
      </trkpt>
      <trkpt lat="44.84286" lon="-0.23552">
        <ele>20.4</ele>
        <time>2020-09-09T13:35:24Z</time>
      </trkpt>
      <trkpt lat="44.84285" lon="-0.23553">
        <ele>20.4</ele>
        <time>2020-09-09T13:35:25Z</time>
      </trkpt>
      <trkpt lat="44.84285" lon="-0.23554">
        <ele>20.2</ele>
        <time>2020-09-09T13:35:26Z</time>
      </trkpt>
      <trkpt lat="44.84283" lon="-0.23557">
        <ele>20.1</ele>
        <time>2020-09-09T13:35:27Z</time>
      </trkpt>
      <trkpt lat="44.84283" lon="-0.23557">
        <ele>20.1</ele>
        <time>2020-09-09T13:35:28Z</time>
      </trkpt>
      <trkpt lat="44.84282" lon="-0.23559">
        <ele>20.1</ele>
        <time>2020-09-09T13:35:30Z</time>
      </trkpt>
      <trkpt lat="44.84281" lon="-0.2356">
        <ele>19.9</ele>
        <time>2020-09-09T13:35:31Z</time>
      </trkpt>
      <trkpt lat="44.8428" lon="-0.23562">
        <ele>19.8</ele>
        <time>2020-09-09T13:35:32Z</time>
      </trkpt>
      <trkpt lat="44.84279" lon="-0.23562">
        <ele>19.8</ele>
        <time>2020-09-09T13:35:33Z</time>
      </trkpt>
      <trkpt lat="44.84278" lon="-0.23563">
        <ele>19.6</ele>
        <time>2020-09-09T13:35:34Z</time>
      </trkpt>
      <trkpt lat="44.84278" lon="-0.23564">
        <ele>19.6</ele>
        <time>2020-09-09T13:35:35Z</time>
      </trkpt>
      <trkpt lat="44.84277" lon="-0.23565">
        <ele>19.6</ele>
        <time>2020-09-09T13:35:36Z</time>
      </trkpt>
      <trkpt lat="44.84276" lon="-0.23566">
        <ele>19.5</ele>
        <time>2020-09-09T13:35:38Z</time>
      </trkpt>
      <trkpt lat="44.84275" lon="-0.23567">
        <ele>19.3</ele>
        <time>2020-09-09T13:35:39Z</time>
      </trkpt>
      <trkpt lat="44.84274" lon="-0.23568">
        <ele>19.3</ele>
        <time>2020-09-09T13:35:40Z</time>
      </trkpt>
      <trkpt lat="44.84273" lon="-0.23569">
        <ele>19.3</ele>
        <time>2020-09-09T13:35:41Z</time>
      </trkpt>
      <trkpt lat="44.84273" lon="-0.23571">
        <ele>19.2</ele>
        <time>2020-09-09T13:35:42Z</time>
      </trkpt>
      <trkpt lat="44.84272" lon="-0.23572">
        <ele>19</ele>
        <time>2020-09-09T13:35:43Z</time>
      </trkpt>
      <trkpt lat="44.84272" lon="-0.23573">
        <ele>19</ele>
        <time>2020-09-09T13:35:44Z</time>
      </trkpt>
      <trkpt lat="44.84271" lon="-0.23574">
        <ele>18.9</ele>
        <time>2020-09-09T13:35:45Z</time>
      </trkpt>
      <trkpt lat="44.84271" lon="-0.23575">
        <ele>18.9</ele>
        <time>2020-09-09T13:35:47Z</time>
      </trkpt>
      <trkpt lat="44.8427" lon="-0.23577">
        <ele>18.9</ele>
        <time>2020-09-09T13:35:48Z</time>
      </trkpt>
      <trkpt lat="44.84269" lon="-0.23578">
        <ele>18.7</ele>
        <time>2020-09-09T13:35:49Z</time>
      </trkpt>
      <trkpt lat="44.84269" lon="-0.23579">
        <ele>18.7</ele>
        <time>2020-09-09T13:35:50Z</time>
      </trkpt>
      <trkpt lat="44.84269" lon="-0.2358">
        <ele>18.7</ele>
        <time>2020-09-09T13:35:51Z</time>
      </trkpt>
      <trkpt lat="44.84268" lon="-0.23581">
        <ele>18.7</ele>
        <time>2020-09-09T13:35:52Z</time>
      </trkpt>
      <trkpt lat="44.84268" lon="-0.23582">
        <ele>18.7</ele>
        <time>2020-09-09T13:35:53Z</time>
      </trkpt>
      <trkpt lat="44.84267" lon="-0.23584">
        <ele>18.6</ele>
        <time>2020-09-09T13:35:55Z</time>
      </trkpt>
      <trkpt lat="44.84266" lon="-0.23585">
        <ele>18.4</ele>
        <time>2020-09-09T13:35:56Z</time>
      </trkpt>
      <trkpt lat="44.84265" lon="-0.23586">
        <ele>18.4</ele>
        <time>2020-09-09T13:35:57Z</time>
      </trkpt>
      <trkpt lat="44.84265" lon="-0.23587">
        <ele>18.3</ele>
        <time>2020-09-09T13:35:59Z</time>
      </trkpt>
      <trkpt lat="44.84264" lon="-0.23588">
        <ele>18.3</ele>
        <time>2020-09-09T13:36:00Z</time>
      </trkpt>
      <trkpt lat="44.84263" lon="-0.23589">
        <ele>18.2</ele>
        <time>2020-09-09T13:36:01Z</time>
      </trkpt>
      <trkpt lat="44.84262" lon="-0.2359">
        <ele>18.2</ele>
        <time>2020-09-09T13:36:02Z</time>
      </trkpt>
      <trkpt lat="44.84261" lon="-0.23592">
        <ele>18.1</ele>
        <time>2020-09-09T13:36:04Z</time>
      </trkpt>
      <trkpt lat="44.84259" lon="-0.23594">
        <ele>18</ele>
        <time>2020-09-09T13:36:05Z</time>
      </trkpt>
      <trkpt lat="44.84258" lon="-0.23596">
        <ele>17.9</ele>
        <time>2020-09-09T13:36:07Z</time>
      </trkpt>
      <trkpt lat="44.84258" lon="-0.23597">
        <ele>17.9</ele>
        <time>2020-09-09T13:36:08Z</time>
      </trkpt>
      <trkpt lat="44.84257" lon="-0.23598">
        <ele>17.9</ele>
        <time>2020-09-09T13:36:10Z</time>
      </trkpt>
      <trkpt lat="44.84256" lon="-0.23599">
        <ele>17.8</ele>
        <time>2020-09-09T13:36:11Z</time>
      </trkpt>
      <trkpt lat="44.84255" lon="-0.236">
        <ele>17.8</ele>
        <time>2020-09-09T13:36:12Z</time>
      </trkpt>
      <trkpt lat="44.84254" lon="-0.23601">
        <ele>17.7</ele>
        <time>2020-09-09T13:36:13Z</time>
      </trkpt>
      <trkpt lat="44.84252" lon="-0.23601">
        <ele>17.7</ele>
        <time>2020-09-09T13:36:15Z</time>
      </trkpt>
      <trkpt lat="44.84252" lon="-0.23602">
        <ele>17.7</ele>
        <time>2020-09-09T13:36:16Z</time>
      </trkpt>
      <trkpt lat="44.84252" lon="-0.23603">
        <ele>17.7</ele>
        <time>2020-09-09T13:36:17Z</time>
      </trkpt>
      <trkpt lat="44.84253" lon="-0.23604">
        <ele>17.7</ele>
        <time>2020-09-09T13:36:19Z</time>
      </trkpt>
      <trkpt lat="44.84253" lon="-0.23604">
        <ele>17.7</ele>
        <time>2020-09-09T13:36:20Z</time>
      </trkpt>
      <trkpt lat="44.84254" lon="-0.23605">
        <ele>17.7</ele>
        <time>2020-09-09T13:36:21Z</time>
      </trkpt>
      <trkpt lat="44.84254" lon="-0.23606">
        <ele>17.7</ele>
        <time>2020-09-09T13:36:22Z</time>
      </trkpt>
      <trkpt lat="44.84256" lon="-0.23607">
        <ele>17.7</ele>
        <time>2020-09-09T13:36:23Z</time>
      </trkpt>
      <trkpt lat="44.84257" lon="-0.23608">
        <ele>17.7</ele>
        <time>2020-09-09T13:36:24Z</time>
      </trkpt>
      <trkpt lat="44.84257" lon="-0.23609">
        <ele>17.7</ele>
        <time>2020-09-09T13:36:25Z</time>
      </trkpt>
      <trkpt lat="44.84258" lon="-0.2361">
        <ele>17.7</ele>
        <time>2020-09-09T13:36:26Z</time>
      </trkpt>
      <trkpt lat="44.84259" lon="-0.23611">
        <ele>17.7</ele>
        <time>2020-09-09T13:36:27Z</time>
      </trkpt>
      <trkpt lat="44.84261" lon="-0.23613">
        <ele>17.8</ele>
        <time>2020-09-09T13:36:29Z</time>
      </trkpt>
      <trkpt lat="44.84263" lon="-0.23614">
        <ele>17.8</ele>
        <time>2020-09-09T13:36:30Z</time>
      </trkpt>
      <trkpt lat="44.84264" lon="-0.23615">
        <ele>17.8</ele>
        <time>2020-09-09T13:36:31Z</time>
      </trkpt>
      <trkpt lat="44.84265" lon="-0.23615">
        <ele>17.8</ele>
        <time>2020-09-09T13:36:32Z</time>
      </trkpt>
      <trkpt lat="44.84266" lon="-0.23616">
        <ele>17.8</ele>
        <time>2020-09-09T13:36:34Z</time>
      </trkpt>
      <trkpt lat="44.84267" lon="-0.23618">
        <ele>17.9</ele>
        <time>2020-09-09T13:36:35Z</time>
      </trkpt>
      <trkpt lat="44.84268" lon="-0.23618">
        <ele>17.9</ele>
        <time>2020-09-09T13:36:36Z</time>
      </trkpt>
      <trkpt lat="44.84269" lon="-0.23619">
        <ele>17.9</ele>
        <time>2020-09-09T13:36:37Z</time>
      </trkpt>
      <trkpt lat="44.8427" lon="-0.2362">
        <ele>17.9</ele>
        <time>2020-09-09T13:36:38Z</time>
      </trkpt>
      <trkpt lat="44.84272" lon="-0.2362">
        <ele>17.9</ele>
        <time>2020-09-09T13:36:39Z</time>
      </trkpt>
      <trkpt lat="44.84273" lon="-0.23621">
        <ele>18</ele>
        <time>2020-09-09T13:36:40Z</time>
      </trkpt>
      <trkpt lat="44.84274" lon="-0.23621">
        <ele>17.9</ele>
        <time>2020-09-09T13:36:41Z</time>
      </trkpt>
      <trkpt lat="44.84275" lon="-0.23622">
        <ele>17.9</ele>
        <time>2020-09-09T13:36:42Z</time>
      </trkpt>
      <trkpt lat="44.84276" lon="-0.23624">
        <ele>18</ele>
        <time>2020-09-09T13:36:44Z</time>
      </trkpt>
      <trkpt lat="44.84278" lon="-0.23625">
        <ele>17.9</ele>
        <time>2020-09-09T13:36:46Z</time>
      </trkpt>
      <trkpt lat="44.84278" lon="-0.23625">
        <ele>17.9</ele>
        <time>2020-09-09T13:36:47Z</time>
      </trkpt>
      <trkpt lat="44.84279" lon="-0.23626">
        <ele>18</ele>
        <time>2020-09-09T13:36:48Z</time>
      </trkpt>
      <trkpt lat="44.84279" lon="-0.23627">
        <ele>18</ele>
        <time>2020-09-09T13:36:50Z</time>
      </trkpt>
      <trkpt lat="44.8428" lon="-0.23628">
        <ele>18</ele>
        <time>2020-09-09T13:36:51Z</time>
      </trkpt>
      <trkpt lat="44.84281" lon="-0.23629">
        <ele>18</ele>
        <time>2020-09-09T13:36:52Z</time>
      </trkpt>
      <trkpt lat="44.84282" lon="-0.2363">
        <ele>18</ele>
        <time>2020-09-09T13:36:54Z</time>
      </trkpt>
      <trkpt lat="44.84283" lon="-0.23631">
        <ele>18</ele>
        <time>2020-09-09T13:36:55Z</time>
      </trkpt>
      <trkpt lat="44.84284" lon="-0.23632">
        <ele>18</ele>
        <time>2020-09-09T13:36:56Z</time>
      </trkpt>
      <trkpt lat="44.84285" lon="-0.23633">
        <ele>18.1</ele>
        <time>2020-09-09T13:36:58Z</time>
      </trkpt>
      <trkpt lat="44.84286" lon="-0.23634">
        <ele>18</ele>
        <time>2020-09-09T13:36:59Z</time>
      </trkpt>
      <trkpt lat="44.84287" lon="-0.23634">
        <ele>17.9</ele>
        <time>2020-09-09T13:37:00Z</time>
      </trkpt>
      <trkpt lat="44.84288" lon="-0.23635">
        <ele>18</ele>
        <time>2020-09-09T13:37:01Z</time>
      </trkpt>
      <trkpt lat="44.84289" lon="-0.23636">
        <ele>18</ele>
        <time>2020-09-09T13:37:03Z</time>
      </trkpt>
      <trkpt lat="44.8429" lon="-0.23637">
        <ele>18</ele>
        <time>2020-09-09T13:37:04Z</time>
      </trkpt>
      <trkpt lat="44.84292" lon="-0.23638">
        <ele>18</ele>
        <time>2020-09-09T13:37:05Z</time>
      </trkpt>
      <trkpt lat="44.84292" lon="-0.23639">
        <ele>17.9</ele>
        <time>2020-09-09T13:37:06Z</time>
      </trkpt>
      <trkpt lat="44.84293" lon="-0.23639">
        <ele>17.9</ele>
        <time>2020-09-09T13:37:07Z</time>
      </trkpt>
      <trkpt lat="44.84294" lon="-0.2364">
        <ele>17.9</ele>
        <time>2020-09-09T13:37:08Z</time>
      </trkpt>
      <trkpt lat="44.84295" lon="-0.23641">
        <ele>18</ele>
        <time>2020-09-09T13:37:09Z</time>
      </trkpt>
      <trkpt lat="44.84296" lon="-0.23642">
        <ele>18</ele>
        <time>2020-09-09T13:37:11Z</time>
      </trkpt>
      <trkpt lat="44.84297" lon="-0.23643">
        <ele>17.9</ele>
        <time>2020-09-09T13:37:12Z</time>
      </trkpt>
      <trkpt lat="44.84297" lon="-0.23644">
        <ele>17.9</ele>
        <time>2020-09-09T13:37:13Z</time>
      </trkpt>
      <trkpt lat="44.84299" lon="-0.23645">
        <ele>17.9</ele>
        <time>2020-09-09T13:37:14Z</time>
      </trkpt>
      <trkpt lat="44.84299" lon="-0.23645">
        <ele>17.9</ele>
        <time>2020-09-09T13:37:15Z</time>
      </trkpt>
      <trkpt lat="44.843" lon="-0.23646">
        <ele>18</ele>
        <time>2020-09-09T13:37:16Z</time>
      </trkpt>
      <trkpt lat="44.84302" lon="-0.23647">
        <ele>17.8</ele>
        <time>2020-09-09T13:37:18Z</time>
      </trkpt>
      <trkpt lat="44.84303" lon="-0.23649">
        <ele>17.9</ele>
        <time>2020-09-09T13:37:19Z</time>
      </trkpt>
      <trkpt lat="44.84305" lon="-0.23651">
        <ele>17.7</ele>
        <time>2020-09-09T13:37:21Z</time>
      </trkpt>
      <trkpt lat="44.84306" lon="-0.23653">
        <ele>17.7</ele>
        <time>2020-09-09T13:37:22Z</time>
      </trkpt>
      <trkpt lat="44.84307" lon="-0.23654">
        <ele>17.8</ele>
        <time>2020-09-09T13:37:23Z</time>
      </trkpt>
      <trkpt lat="44.84308" lon="-0.23656">
        <ele>17.6</ele>
        <time>2020-09-09T13:37:24Z</time>
      </trkpt>
      <trkpt lat="44.84309" lon="-0.23657">
        <ele>17.7</ele>
        <time>2020-09-09T13:37:26Z</time>
      </trkpt>
      <trkpt lat="44.84311" lon="-0.23658">
        <ele>17.7</ele>
        <time>2020-09-09T13:37:27Z</time>
      </trkpt>
      <trkpt lat="44.84312" lon="-0.23659">
        <ele>17.7</ele>
        <time>2020-09-09T13:37:28Z</time>
      </trkpt>
      <trkpt lat="44.84313" lon="-0.23661">
        <ele>17.6</ele>
        <time>2020-09-09T13:37:29Z</time>
      </trkpt>
      <trkpt lat="44.84314" lon="-0.23662">
        <ele>17.6</ele>
        <time>2020-09-09T13:37:30Z</time>
      </trkpt>
      <trkpt lat="44.84316" lon="-0.23663">
        <ele>17.6</ele>
        <time>2020-09-09T13:37:32Z</time>
      </trkpt>
      <trkpt lat="44.84317" lon="-0.23664">
        <ele>17.4</ele>
        <time>2020-09-09T13:37:33Z</time>
      </trkpt>
      <trkpt lat="44.84318" lon="-0.23666">
        <ele>17.4</ele>
        <time>2020-09-09T13:37:35Z</time>
      </trkpt>
      <trkpt lat="44.84319" lon="-0.23666">
        <ele>17.5</ele>
        <time>2020-09-09T13:37:36Z</time>
      </trkpt>
      <trkpt lat="44.8432" lon="-0.23667">
        <ele>17.5</ele>
        <time>2020-09-09T13:37:37Z</time>
      </trkpt>
      <trkpt lat="44.84321" lon="-0.23668">
        <ele>17.5</ele>
        <time>2020-09-09T13:37:39Z</time>
      </trkpt>
      <trkpt lat="44.84322" lon="-0.23668">
        <ele>17.3</ele>
        <time>2020-09-09T13:37:40Z</time>
      </trkpt>
      <trkpt lat="44.84322" lon="-0.23669">
        <ele>17.3</ele>
        <time>2020-09-09T13:37:42Z</time>
      </trkpt>
      <trkpt lat="44.84322" lon="-0.2367">
        <ele>17.3</ele>
        <time>2020-09-09T13:37:44Z</time>
      </trkpt>
      <trkpt lat="44.84322" lon="-0.2367">
        <ele>17.3</ele>
        <time>2020-09-09T13:37:45Z</time>
      </trkpt>
      <trkpt lat="44.84322" lon="-0.23671">
        <ele>17.3</ele>
        <time>2020-09-09T13:37:47Z</time>
      </trkpt>
      <trkpt lat="44.84322" lon="-0.23671">
        <ele>17.3</ele>
        <time>2020-09-09T13:37:48Z</time>
      </trkpt>
      <trkpt lat="44.84321" lon="-0.23671">
        <ele>17.3</ele>
        <time>2020-09-09T13:37:49Z</time>
      </trkpt>
      <trkpt lat="44.84321" lon="-0.23672">
        <ele>17.3</ele>
        <time>2020-09-09T13:37:51Z</time>
      </trkpt>
      <trkpt lat="44.84321" lon="-0.23672">
        <ele>17.3</ele>
        <time>2020-09-09T13:37:52Z</time>
      </trkpt>
      <trkpt lat="44.84321" lon="-0.23672">
        <ele>17.1</ele>
        <time>2020-09-09T13:37:54Z</time>
      </trkpt>
      <trkpt lat="44.84321" lon="-0.23673">
        <ele>17.1</ele>
        <time>2020-09-09T13:37:55Z</time>
      </trkpt>
      <trkpt lat="44.84321" lon="-0.23673">
        <ele>17.1</ele>
        <time>2020-09-09T13:37:57Z</time>
      </trkpt>
      <trkpt lat="44.84321" lon="-0.23673">
        <ele>17.1</ele>
        <time>2020-09-09T13:37:58Z</time>
      </trkpt>
      <trkpt lat="44.84322" lon="-0.23674">
        <ele>17.1</ele>
        <time>2020-09-09T13:38:00Z</time>
      </trkpt>
      <trkpt lat="44.84322" lon="-0.23675">
        <ele>17.1</ele>
        <time>2020-09-09T13:38:02Z</time>
      </trkpt>
      <trkpt lat="44.84322" lon="-0.23676">
        <ele>17.1</ele>
        <time>2020-09-09T13:38:03Z</time>
      </trkpt>
      <trkpt lat="44.84323" lon="-0.23677">
        <ele>16.8</ele>
        <time>2020-09-09T13:38:04Z</time>
      </trkpt>
      <trkpt lat="44.84323" lon="-0.23677">
        <ele>16.8</ele>
        <time>2020-09-09T13:38:05Z</time>
      </trkpt>
      <trkpt lat="44.84324" lon="-0.23679">
        <ele>16.8</ele>
        <time>2020-09-09T13:38:07Z</time>
      </trkpt>
      <trkpt lat="44.84324" lon="-0.23679">
        <ele>16.8</ele>
        <time>2020-09-09T13:38:09Z</time>
      </trkpt>
      <trkpt lat="44.84324" lon="-0.23679">
        <ele>16.8</ele>
        <time>2020-09-09T13:38:11Z</time>
      </trkpt>
      <trkpt lat="44.84324" lon="-0.23678">
        <ele>16.8</ele>
        <time>2020-09-09T13:38:13Z</time>
      </trkpt>
      <trkpt lat="44.84324" lon="-0.23677">
        <ele>16.8</ele>
        <time>2020-09-09T13:38:14Z</time>
      </trkpt>
      <trkpt lat="44.84324" lon="-0.23676">
        <ele>17.1</ele>
        <time>2020-09-09T13:38:16Z</time>
      </trkpt>
      <trkpt lat="44.84324" lon="-0.23675">
        <ele>17.1</ele>
        <time>2020-09-09T13:38:17Z</time>
      </trkpt>
      <trkpt lat="44.84323" lon="-0.23673">
        <ele>17.1</ele>
        <time>2020-09-09T13:38:19Z</time>
      </trkpt>
      <trkpt lat="44.84323" lon="-0.23673">
        <ele>17.1</ele>
        <time>2020-09-09T13:38:20Z</time>
      </trkpt>
      <trkpt lat="44.84323" lon="-0.23671">
        <ele>17.3</ele>
        <time>2020-09-09T13:38:22Z</time>
      </trkpt>
      <trkpt lat="44.84322" lon="-0.23671">
        <ele>17.3</ele>
        <time>2020-09-09T13:38:23Z</time>
      </trkpt>
      <trkpt lat="44.84322" lon="-0.2367">
        <ele>17.3</ele>
        <time>2020-09-09T13:38:25Z</time>
      </trkpt>
      <trkpt lat="44.84323" lon="-0.2367">
        <ele>17.3</ele>
        <time>2020-09-09T13:38:26Z</time>
      </trkpt>
      <trkpt lat="44.84323" lon="-0.2367">
        <ele>17.3</ele>
        <time>2020-09-09T13:38:27Z</time>
      </trkpt>
      <trkpt lat="44.84323" lon="-0.2367">
        <ele>17.3</ele>
        <time>2020-09-09T13:38:29Z</time>
      </trkpt>
      <trkpt lat="44.84324" lon="-0.2367">
        <ele>17.3</ele>
        <time>2020-09-09T13:38:30Z</time>
      </trkpt>
      <trkpt lat="44.84324" lon="-0.23671">
        <ele>17.3</ele>
        <time>2020-09-09T13:38:32Z</time>
      </trkpt>
      <trkpt lat="44.84325" lon="-0.23671">
        <ele>17.3</ele>
        <time>2020-09-09T13:38:33Z</time>
      </trkpt>
      <trkpt lat="44.84325" lon="-0.2367">
        <ele>17.3</ele>
        <time>2020-09-09T13:38:34Z</time>
      </trkpt>
      <trkpt lat="44.84325" lon="-0.2367">
        <ele>17.3</ele>
        <time>2020-09-09T13:38:36Z</time>
      </trkpt>
      <trkpt lat="44.84324" lon="-0.2367">
        <ele>17.3</ele>
        <time>2020-09-09T13:38:38Z</time>
      </trkpt>
      <trkpt lat="44.84325" lon="-0.2367">
        <ele>17.3</ele>
        <time>2020-09-09T13:38:39Z</time>
      </trkpt>
      <trkpt lat="44.84325" lon="-0.2367">
        <ele>17.3</ele>
        <time>2020-09-09T13:38:40Z</time>
      </trkpt>
      <trkpt lat="44.84325" lon="-0.2367">
        <ele>17.3</ele>
        <time>2020-09-09T13:38:41Z</time>
      </trkpt>
      <trkpt lat="44.84326" lon="-0.23671">
        <ele>17.3</ele>
        <time>2020-09-09T13:38:42Z</time>
      </trkpt>
      <trkpt lat="44.84326" lon="-0.23671">
        <ele>17.3</ele>
        <time>2020-09-09T13:38:43Z</time>
      </trkpt>
      <trkpt lat="44.84327" lon="-0.23672">
        <ele>17.3</ele>
        <time>2020-09-09T13:38:44Z</time>
      </trkpt>
      <trkpt lat="44.84328" lon="-0.23673">
        <ele>17.1</ele>
        <time>2020-09-09T13:38:46Z</time>
      </trkpt>
      <trkpt lat="44.84329" lon="-0.23673">
        <ele>17.1</ele>
        <time>2020-09-09T13:38:47Z</time>
      </trkpt>
      <trkpt lat="44.8433" lon="-0.23674">
        <ele>17.1</ele>
        <time>2020-09-09T13:38:48Z</time>
      </trkpt>
      <trkpt lat="44.84331" lon="-0.23676">
        <ele>17.2</ele>
        <time>2020-09-09T13:38:49Z</time>
      </trkpt>
      <trkpt lat="44.84332" lon="-0.23677">
        <ele>16.9</ele>
        <time>2020-09-09T13:38:50Z</time>
      </trkpt>
      <trkpt lat="44.84333" lon="-0.23678">
        <ele>16.9</ele>
        <time>2020-09-09T13:38:51Z</time>
      </trkpt>
      <trkpt lat="44.84333" lon="-0.23679">
        <ele>17</ele>
        <time>2020-09-09T13:38:52Z</time>
      </trkpt>
      <trkpt lat="44.84334" lon="-0.2368">
        <ele>17</ele>
        <time>2020-09-09T13:38:54Z</time>
      </trkpt>
      <trkpt lat="44.84335" lon="-0.23681">
        <ele>16.7</ele>
        <time>2020-09-09T13:38:55Z</time>
      </trkpt>
      <trkpt lat="44.84335" lon="-0.23683">
        <ele>16.7</ele>
        <time>2020-09-09T13:38:56Z</time>
      </trkpt>
      <trkpt lat="44.84336" lon="-0.23686">
        <ele>16.4</ele>
        <time>2020-09-09T13:38:58Z</time>
      </trkpt>
      <trkpt lat="44.84336" lon="-0.23687">
        <ele>16.4</ele>
        <time>2020-09-09T13:38:59Z</time>
      </trkpt>
      <trkpt lat="44.84336" lon="-0.23689">
        <ele>16.1</ele>
        <time>2020-09-09T13:39:00Z</time>
      </trkpt>
      <trkpt lat="44.84336" lon="-0.23691">
        <ele>16.1</ele>
        <time>2020-09-09T13:39:01Z</time>
      </trkpt>
      <trkpt lat="44.84336" lon="-0.23693">
        <ele>16.1</ele>
        <time>2020-09-09T13:39:02Z</time>
      </trkpt>
      <trkpt lat="44.84337" lon="-0.23695">
        <ele>15.9</ele>
        <time>2020-09-09T13:39:03Z</time>
      </trkpt>
      <trkpt lat="44.84337" lon="-0.23697">
        <ele>15.9</ele>
        <time>2020-09-09T13:39:05Z</time>
      </trkpt>
      <trkpt lat="44.84338" lon="-0.237">
        <ele>15.6</ele>
        <time>2020-09-09T13:39:06Z</time>
      </trkpt>
      <trkpt lat="44.84338" lon="-0.23702">
        <ele>15.6</ele>
        <time>2020-09-09T13:39:07Z</time>
      </trkpt>
      <trkpt lat="44.84339" lon="-0.23705">
        <ele>15.3</ele>
        <time>2020-09-09T13:39:08Z</time>
      </trkpt>
      <trkpt lat="44.8434" lon="-0.23706">
        <ele>15.3</ele>
        <time>2020-09-09T13:39:10Z</time>
      </trkpt>
      <trkpt lat="44.84341" lon="-0.23707">
        <ele>15</ele>
        <time>2020-09-09T13:39:11Z</time>
      </trkpt>
      <trkpt lat="44.84341" lon="-0.23709">
        <ele>15</ele>
        <time>2020-09-09T13:39:12Z</time>
      </trkpt>
      <trkpt lat="44.84342" lon="-0.2371">
        <ele>15</ele>
        <time>2020-09-09T13:39:13Z</time>
      </trkpt>
      <trkpt lat="44.84343" lon="-0.23711">
        <ele>14.8</ele>
        <time>2020-09-09T13:39:14Z</time>
      </trkpt>
      <trkpt lat="44.84343" lon="-0.23713">
        <ele>14.8</ele>
        <time>2020-09-09T13:39:15Z</time>
      </trkpt>
      <trkpt lat="44.84344" lon="-0.23714">
        <ele>14.8</ele>
        <time>2020-09-09T13:39:17Z</time>
      </trkpt>
      <trkpt lat="44.84345" lon="-0.23715">
        <ele>14.5</ele>
        <time>2020-09-09T13:39:18Z</time>
      </trkpt>
      <trkpt lat="44.84346" lon="-0.23717">
        <ele>14.5</ele>
        <time>2020-09-09T13:39:19Z</time>
      </trkpt>
      <trkpt lat="44.84348" lon="-0.2372">
        <ele>14.2</ele>
        <time>2020-09-09T13:39:20Z</time>
      </trkpt>
      <trkpt lat="44.84348" lon="-0.23721">
        <ele>14.2</ele>
        <time>2020-09-09T13:39:22Z</time>
      </trkpt>
      <trkpt lat="44.84348" lon="-0.23723">
        <ele>14.2</ele>
        <time>2020-09-09T13:39:23Z</time>
      </trkpt>
      <trkpt lat="44.84349" lon="-0.23725">
        <ele>13.9</ele>
        <time>2020-09-09T13:39:24Z</time>
      </trkpt>
      <trkpt lat="44.84349" lon="-0.23726">
        <ele>13.9</ele>
        <time>2020-09-09T13:39:25Z</time>
      </trkpt>
      <trkpt lat="44.84349" lon="-0.23728">
        <ele>13.6</ele>
        <time>2020-09-09T13:39:27Z</time>
      </trkpt>
      <trkpt lat="44.84349" lon="-0.2373">
        <ele>13.6</ele>
        <time>2020-09-09T13:39:28Z</time>
      </trkpt>
      <trkpt lat="44.8435" lon="-0.23734">
        <ele>13.4</ele>
        <time>2020-09-09T13:39:29Z</time>
      </trkpt>
      <trkpt lat="44.8435" lon="-0.23735">
        <ele>13.4</ele>
        <time>2020-09-09T13:39:30Z</time>
      </trkpt>
      <trkpt lat="44.84351" lon="-0.23738">
        <ele>13.2</ele>
        <time>2020-09-09T13:39:32Z</time>
      </trkpt>
      <trkpt lat="44.84352" lon="-0.2374">
        <ele>13.1</ele>
        <time>2020-09-09T13:39:33Z</time>
      </trkpt>
      <trkpt lat="44.84352" lon="-0.23741">
        <ele>12.9</ele>
        <time>2020-09-09T13:39:34Z</time>
      </trkpt>
      <trkpt lat="44.84353" lon="-0.23743">
        <ele>12.9</ele>
        <time>2020-09-09T13:39:35Z</time>
      </trkpt>
      <trkpt lat="44.84354" lon="-0.23745">
        <ele>12.9</ele>
        <time>2020-09-09T13:39:37Z</time>
      </trkpt>
      <trkpt lat="44.84354" lon="-0.23746">
        <ele>12.8</ele>
        <time>2020-09-09T13:39:38Z</time>
      </trkpt>
      <trkpt lat="44.84354" lon="-0.23748">
        <ele>12.8</ele>
        <time>2020-09-09T13:39:39Z</time>
      </trkpt>
      <trkpt lat="44.84354" lon="-0.23749">
        <ele>12.6</ele>
        <time>2020-09-09T13:39:40Z</time>
      </trkpt>
      <trkpt lat="44.84354" lon="-0.23751">
        <ele>12.6</ele>
        <time>2020-09-09T13:39:41Z</time>
      </trkpt>
      <trkpt lat="44.84354" lon="-0.23752">
        <ele>12.6</ele>
        <time>2020-09-09T13:39:42Z</time>
      </trkpt>
      <trkpt lat="44.84354" lon="-0.23755">
        <ele>12.5</ele>
        <time>2020-09-09T13:39:44Z</time>
      </trkpt>
      <trkpt lat="44.84354" lon="-0.23756">
        <ele>12.5</ele>
        <time>2020-09-09T13:39:45Z</time>
      </trkpt>
      <trkpt lat="44.84353" lon="-0.23759">
        <ele>12.4</ele>
        <time>2020-09-09T13:39:47Z</time>
      </trkpt>
      <trkpt lat="44.84353" lon="-0.2376">
        <ele>12.3</ele>
        <time>2020-09-09T13:39:48Z</time>
      </trkpt>
      <trkpt lat="44.84353" lon="-0.2376">
        <ele>12.3</ele>
        <time>2020-09-09T13:39:50Z</time>
      </trkpt>
      <trkpt lat="44.84354" lon="-0.23759">
        <ele>12.3</ele>
        <time>2020-09-09T13:39:51Z</time>
      </trkpt>
      <trkpt lat="44.84354" lon="-0.23756">
        <ele>12.2</ele>
        <time>2020-09-09T13:39:53Z</time>
      </trkpt>
      <trkpt lat="44.84355" lon="-0.23757">
        <ele>12.1</ele>
        <time>2020-09-09T13:39:54Z</time>
      </trkpt>
      <trkpt lat="44.84355" lon="-0.23759">
        <ele>12.1</ele>
        <time>2020-09-09T13:39:56Z</time>
      </trkpt>
      <trkpt lat="44.84356" lon="-0.2376">
        <ele>12</ele>
        <time>2020-09-09T13:39:58Z</time>
      </trkpt>
      <trkpt lat="44.84357" lon="-0.23761">
        <ele>12</ele>
        <time>2020-09-09T13:39:59Z</time>
      </trkpt>
      <trkpt lat="44.84357" lon="-0.23762">
        <ele>11.9</ele>
        <time>2020-09-09T13:40:00Z</time>
      </trkpt>
      <trkpt lat="44.84358" lon="-0.23763">
        <ele>11.9</ele>
        <time>2020-09-09T13:40:01Z</time>
      </trkpt>
      <trkpt lat="44.84359" lon="-0.23764">
        <ele>11.8</ele>
        <time>2020-09-09T13:40:02Z</time>
      </trkpt>
      <trkpt lat="44.84361" lon="-0.23766">
        <ele>11.7</ele>
        <time>2020-09-09T13:40:04Z</time>
      </trkpt>
      <trkpt lat="44.84362" lon="-0.23766">
        <ele>11.6</ele>
        <time>2020-09-09T13:40:05Z</time>
      </trkpt>
      <trkpt lat="44.84364" lon="-0.23767">
        <ele>11.6</ele>
        <time>2020-09-09T13:40:07Z</time>
      </trkpt>
      <trkpt lat="44.84365" lon="-0.23768">
        <ele>11.5</ele>
        <time>2020-09-09T13:40:08Z</time>
      </trkpt>
      <trkpt lat="44.84367" lon="-0.23769">
        <ele>11.4</ele>
        <time>2020-09-09T13:40:09Z</time>
      </trkpt>
      <trkpt lat="44.84368" lon="-0.2377">
        <ele>11.4</ele>
        <time>2020-09-09T13:40:10Z</time>
      </trkpt>
      <trkpt lat="44.84369" lon="-0.2377">
        <ele>11.3</ele>
        <time>2020-09-09T13:40:11Z</time>
      </trkpt>
      <trkpt lat="44.84371" lon="-0.23772">
        <ele>11.3</ele>
        <time>2020-09-09T13:40:13Z</time>
      </trkpt>
      <trkpt lat="44.84373" lon="-0.23773">
        <ele>11.2</ele>
        <time>2020-09-09T13:40:14Z</time>
      </trkpt>
      <trkpt lat="44.84373" lon="-0.23774">
        <ele>11.2</ele>
        <time>2020-09-09T13:40:15Z</time>
      </trkpt>
      <trkpt lat="44.84374" lon="-0.23774">
        <ele>11.2</ele>
        <time>2020-09-09T13:40:16Z</time>
      </trkpt>
      <trkpt lat="44.84375" lon="-0.23775">
        <ele>11.1</ele>
        <time>2020-09-09T13:40:17Z</time>
      </trkpt>
      <trkpt lat="44.84376" lon="-0.23776">
        <ele>11.1</ele>
        <time>2020-09-09T13:40:18Z</time>
      </trkpt>
      <trkpt lat="44.84377" lon="-0.23777">
        <ele>11</ele>
        <time>2020-09-09T13:40:19Z</time>
      </trkpt>
      <trkpt lat="44.84377" lon="-0.23777">
        <ele>11</ele>
        <time>2020-09-09T13:40:20Z</time>
      </trkpt>
      <trkpt lat="44.84378" lon="-0.23778">
        <ele>11</ele>
        <time>2020-09-09T13:40:21Z</time>
      </trkpt>
      <trkpt lat="44.84379" lon="-0.23779">
        <ele>11</ele>
        <time>2020-09-09T13:40:23Z</time>
      </trkpt>
      <trkpt lat="44.8438" lon="-0.23779">
        <ele>11</ele>
        <time>2020-09-09T13:40:24Z</time>
      </trkpt>
      <trkpt lat="44.84381" lon="-0.2378">
        <ele>10.9</ele>
        <time>2020-09-09T13:40:25Z</time>
      </trkpt>
      <trkpt lat="44.84382" lon="-0.2378">
        <ele>10.9</ele>
        <time>2020-09-09T13:40:27Z</time>
      </trkpt>
      <trkpt lat="44.84383" lon="-0.2378">
        <ele>10.9</ele>
        <time>2020-09-09T13:40:28Z</time>
      </trkpt>
      <trkpt lat="44.84384" lon="-0.2378">
        <ele>10.9</ele>
        <time>2020-09-09T13:40:29Z</time>
      </trkpt>
      <trkpt lat="44.84385" lon="-0.23781">
        <ele>10.8</ele>
        <time>2020-09-09T13:40:30Z</time>
      </trkpt>
      <trkpt lat="44.84385" lon="-0.23782">
        <ele>10.8</ele>
        <time>2020-09-09T13:40:31Z</time>
      </trkpt>
      <trkpt lat="44.84387" lon="-0.23783">
        <ele>10.8</ele>
        <time>2020-09-09T13:40:33Z</time>
      </trkpt>
      <trkpt lat="44.8439" lon="-0.23785">
        <ele>10.7</ele>
        <time>2020-09-09T13:40:34Z</time>
      </trkpt>
      <trkpt lat="44.84391" lon="-0.23786">
        <ele>10.7</ele>
        <time>2020-09-09T13:40:35Z</time>
      </trkpt>
      <trkpt lat="44.84393" lon="-0.23787">
        <ele>10.7</ele>
        <time>2020-09-09T13:40:36Z</time>
      </trkpt>
      <trkpt lat="44.84396" lon="-0.23789">
        <ele>10.7</ele>
        <time>2020-09-09T13:40:38Z</time>
      </trkpt>
      <trkpt lat="44.84397" lon="-0.2379">
        <ele>10.7</ele>
        <time>2020-09-09T13:40:39Z</time>
      </trkpt>
      <trkpt lat="44.844" lon="-0.23792">
        <ele>10.6</ele>
        <time>2020-09-09T13:40:41Z</time>
      </trkpt>
      <trkpt lat="44.84401" lon="-0.23794">
        <ele>10.6</ele>
        <time>2020-09-09T13:40:42Z</time>
      </trkpt>
      <trkpt lat="44.84402" lon="-0.23795">
        <ele>10.6</ele>
        <time>2020-09-09T13:40:43Z</time>
      </trkpt>
      <trkpt lat="44.84404" lon="-0.23796">
        <ele>10.6</ele>
        <time>2020-09-09T13:40:44Z</time>
      </trkpt>
      <trkpt lat="44.84405" lon="-0.23797">
        <ele>10.6</ele>
        <time>2020-09-09T13:40:45Z</time>
      </trkpt>
      <trkpt lat="44.84406" lon="-0.23799">
        <ele>10.6</ele>
        <time>2020-09-09T13:40:47Z</time>
      </trkpt>
      <trkpt lat="44.84408" lon="-0.238">
        <ele>10.6</ele>
        <time>2020-09-09T13:40:48Z</time>
      </trkpt>
      <trkpt lat="44.84409" lon="-0.23802">
        <ele>10.6</ele>
        <time>2020-09-09T13:40:49Z</time>
      </trkpt>
      <trkpt lat="44.84412" lon="-0.23804">
        <ele>10.6</ele>
        <time>2020-09-09T13:40:51Z</time>
      </trkpt>
      <trkpt lat="44.84413" lon="-0.23805">
        <ele>10.6</ele>
        <time>2020-09-09T13:40:52Z</time>
      </trkpt>
      <trkpt lat="44.84414" lon="-0.23806">
        <ele>10.6</ele>
        <time>2020-09-09T13:40:54Z</time>
      </trkpt>
      <trkpt lat="44.84415" lon="-0.23807">
        <ele>10.6</ele>
        <time>2020-09-09T13:40:55Z</time>
      </trkpt>
      <trkpt lat="44.84416" lon="-0.23808">
        <ele>10.6</ele>
        <time>2020-09-09T13:40:56Z</time>
      </trkpt>
      <trkpt lat="44.84417" lon="-0.23809">
        <ele>10.6</ele>
        <time>2020-09-09T13:40:57Z</time>
      </trkpt>
      <trkpt lat="44.84418" lon="-0.2381">
        <ele>10.6</ele>
        <time>2020-09-09T13:40:58Z</time>
      </trkpt>
      <trkpt lat="44.84419" lon="-0.23812">
        <ele>10.6</ele>
        <time>2020-09-09T13:40:59Z</time>
      </trkpt>
      <trkpt lat="44.8442" lon="-0.23813">
        <ele>10.6</ele>
        <time>2020-09-09T13:41:00Z</time>
      </trkpt>
      <trkpt lat="44.84421" lon="-0.23814">
        <ele>10.6</ele>
        <time>2020-09-09T13:41:02Z</time>
      </trkpt>
      <trkpt lat="44.84422" lon="-0.23815">
        <ele>10.6</ele>
        <time>2020-09-09T13:41:03Z</time>
      </trkpt>
      <trkpt lat="44.84423" lon="-0.23817">
        <ele>10.6</ele>
        <time>2020-09-09T13:41:04Z</time>
      </trkpt>
      <trkpt lat="44.84425" lon="-0.23818">
        <ele>10.6</ele>
        <time>2020-09-09T13:41:05Z</time>
      </trkpt>
      <trkpt lat="44.84426" lon="-0.23819">
        <ele>10.6</ele>
        <time>2020-09-09T13:41:06Z</time>
      </trkpt>
      <trkpt lat="44.84427" lon="-0.2382">
        <ele>10.6</ele>
        <time>2020-09-09T13:41:08Z</time>
      </trkpt>
      <trkpt lat="44.84428" lon="-0.23821">
        <ele>10.5</ele>
        <time>2020-09-09T13:41:09Z</time>
      </trkpt>
      <trkpt lat="44.84429" lon="-0.23822">
        <ele>10.5</ele>
        <time>2020-09-09T13:41:10Z</time>
      </trkpt>
      <trkpt lat="44.8443" lon="-0.23823">
        <ele>10.5</ele>
        <time>2020-09-09T13:41:11Z</time>
      </trkpt>
      <trkpt lat="44.84431" lon="-0.23824">
        <ele>10.5</ele>
        <time>2020-09-09T13:41:12Z</time>
      </trkpt>
      <trkpt lat="44.84432" lon="-0.23825">
        <ele>10.5</ele>
        <time>2020-09-09T13:41:13Z</time>
      </trkpt>
      <trkpt lat="44.84434" lon="-0.23827">
        <ele>10.5</ele>
        <time>2020-09-09T13:41:15Z</time>
      </trkpt>
      <trkpt lat="44.84435" lon="-0.23828">
        <ele>10.5</ele>
        <time>2020-09-09T13:41:16Z</time>
      </trkpt>
      <trkpt lat="44.84436" lon="-0.23829">
        <ele>10.5</ele>
        <time>2020-09-09T13:41:17Z</time>
      </trkpt>
      <trkpt lat="44.84437" lon="-0.2383">
        <ele>10.4</ele>
        <time>2020-09-09T13:41:18Z</time>
      </trkpt>
      <trkpt lat="44.84439" lon="-0.23832">
        <ele>10.4</ele>
        <time>2020-09-09T13:41:20Z</time>
      </trkpt>
      <trkpt lat="44.8444" lon="-0.23834">
        <ele>10.4</ele>
        <time>2020-09-09T13:41:21Z</time>
      </trkpt>
      <trkpt lat="44.84441" lon="-0.23834">
        <ele>10.4</ele>
        <time>2020-09-09T13:41:22Z</time>
      </trkpt>
      <trkpt lat="44.84442" lon="-0.23835">
        <ele>10.4</ele>
        <time>2020-09-09T13:41:23Z</time>
      </trkpt>
      <trkpt lat="44.84442" lon="-0.23836">
        <ele>10.4</ele>
        <time>2020-09-09T13:41:24Z</time>
      </trkpt>
      <trkpt lat="44.84444" lon="-0.23837">
        <ele>10.4</ele>
        <time>2020-09-09T13:41:26Z</time>
      </trkpt>
      <trkpt lat="44.84445" lon="-0.23838">
        <ele>10.4</ele>
        <time>2020-09-09T13:41:27Z</time>
      </trkpt>
      <trkpt lat="44.84446" lon="-0.23839">
        <ele>10.4</ele>
        <time>2020-09-09T13:41:28Z</time>
      </trkpt>
      <trkpt lat="44.84447" lon="-0.2384">
        <ele>10.4</ele>
        <time>2020-09-09T13:41:29Z</time>
      </trkpt>
      <trkpt lat="44.84449" lon="-0.23841">
        <ele>10.4</ele>
        <time>2020-09-09T13:41:30Z</time>
      </trkpt>
      <trkpt lat="44.8445" lon="-0.23842">
        <ele>10.4</ele>
        <time>2020-09-09T13:41:32Z</time>
      </trkpt>
      <trkpt lat="44.84451" lon="-0.23842">
        <ele>10.4</ele>
        <time>2020-09-09T13:41:33Z</time>
      </trkpt>
      <trkpt lat="44.84452" lon="-0.23842">
        <ele>10.4</ele>
        <time>2020-09-09T13:41:34Z</time>
      </trkpt>
      <trkpt lat="44.84454" lon="-0.23843">
        <ele>10.4</ele>
        <time>2020-09-09T13:41:35Z</time>
      </trkpt>
      <trkpt lat="44.84454" lon="-0.23844">
        <ele>10.3</ele>
        <time>2020-09-09T13:41:36Z</time>
      </trkpt>
      <trkpt lat="44.84455" lon="-0.23845">
        <ele>10.3</ele>
        <time>2020-09-09T13:41:37Z</time>
      </trkpt>
      <trkpt lat="44.84454" lon="-0.23846">
        <ele>10.3</ele>
        <time>2020-09-09T13:41:39Z</time>
      </trkpt>
      <trkpt lat="44.84454" lon="-0.23848">
        <ele>10.3</ele>
        <time>2020-09-09T13:41:40Z</time>
      </trkpt>
      <trkpt lat="44.84453" lon="-0.2385">
        <ele>10.3</ele>
        <time>2020-09-09T13:41:41Z</time>
      </trkpt>
      <trkpt lat="44.84452" lon="-0.23851">
        <ele>10.3</ele>
        <time>2020-09-09T13:41:42Z</time>
      </trkpt>
      <trkpt lat="44.8445" lon="-0.23854">
        <ele>10.3</ele>
        <time>2020-09-09T13:41:43Z</time>
      </trkpt>
      <trkpt lat="44.84448" lon="-0.23855">
        <ele>10.3</ele>
        <time>2020-09-09T13:41:45Z</time>
      </trkpt>
      <trkpt lat="44.84447" lon="-0.23856">
        <ele>10.3</ele>
        <time>2020-09-09T13:41:46Z</time>
      </trkpt>
      <trkpt lat="44.84446" lon="-0.23858">
        <ele>10.3</ele>
        <time>2020-09-09T13:41:47Z</time>
      </trkpt>
      <trkpt lat="44.84445" lon="-0.23859">
        <ele>10.3</ele>
        <time>2020-09-09T13:41:49Z</time>
      </trkpt>
      <trkpt lat="44.84444" lon="-0.2386">
        <ele>10.3</ele>
        <time>2020-09-09T13:41:50Z</time>
      </trkpt>
      <trkpt lat="44.84442" lon="-0.23863">
        <ele>10.3</ele>
        <time>2020-09-09T13:41:51Z</time>
      </trkpt>
      <trkpt lat="44.84441" lon="-0.23864">
        <ele>10.3</ele>
        <time>2020-09-09T13:41:53Z</time>
      </trkpt>
      <trkpt lat="44.8444" lon="-0.23865">
        <ele>10.3</ele>
        <time>2020-09-09T13:41:54Z</time>
      </trkpt>
      <trkpt lat="44.84439" lon="-0.23867">
        <ele>10.3</ele>
        <time>2020-09-09T13:41:55Z</time>
      </trkpt>
      <trkpt lat="44.84437" lon="-0.23869">
        <ele>10.3</ele>
        <time>2020-09-09T13:41:57Z</time>
      </trkpt>
      <trkpt lat="44.84436" lon="-0.23871">
        <ele>10.3</ele>
        <time>2020-09-09T13:41:58Z</time>
      </trkpt>
      <trkpt lat="44.84435" lon="-0.23873">
        <ele>10.3</ele>
        <time>2020-09-09T13:41:59Z</time>
      </trkpt>
      <trkpt lat="44.84434" lon="-0.23875">
        <ele>10.2</ele>
        <time>2020-09-09T13:42:01Z</time>
      </trkpt>
      <trkpt lat="44.84433" lon="-0.23876">
        <ele>10.2</ele>
        <time>2020-09-09T13:42:02Z</time>
      </trkpt>
      <trkpt lat="44.84432" lon="-0.23878">
        <ele>10.2</ele>
        <time>2020-09-09T13:42:03Z</time>
      </trkpt>
      <trkpt lat="44.84431" lon="-0.2388">
        <ele>10.2</ele>
        <time>2020-09-09T13:42:04Z</time>
      </trkpt>
      <trkpt lat="44.84431" lon="-0.23881">
        <ele>10.2</ele>
        <time>2020-09-09T13:42:05Z</time>
      </trkpt>
      <trkpt lat="44.8443" lon="-0.23882">
        <ele>10.2</ele>
        <time>2020-09-09T13:42:06Z</time>
      </trkpt>
      <trkpt lat="44.84429" lon="-0.23885">
        <ele>10.2</ele>
        <time>2020-09-09T13:42:08Z</time>
      </trkpt>
      <trkpt lat="44.84429" lon="-0.23886">
        <ele>10.2</ele>
        <time>2020-09-09T13:42:09Z</time>
      </trkpt>
      <trkpt lat="44.84428" lon="-0.23889">
        <ele>10.1</ele>
        <time>2020-09-09T13:42:10Z</time>
      </trkpt>
      <trkpt lat="44.84428" lon="-0.2389">
        <ele>10.1</ele>
        <time>2020-09-09T13:42:11Z</time>
      </trkpt>
      <trkpt lat="44.84427" lon="-0.23891">
        <ele>10.1</ele>
        <time>2020-09-09T13:42:12Z</time>
      </trkpt>
      <trkpt lat="44.84427" lon="-0.23893">
        <ele>10.1</ele>
        <time>2020-09-09T13:42:13Z</time>
      </trkpt>
      <trkpt lat="44.84427" lon="-0.23895">
        <ele>10.1</ele>
        <time>2020-09-09T13:42:14Z</time>
      </trkpt>
      <trkpt lat="44.84427" lon="-0.23896">
        <ele>10</ele>
        <time>2020-09-09T13:42:15Z</time>
      </trkpt>
      <trkpt lat="44.84426" lon="-0.23898">
        <ele>10</ele>
        <time>2020-09-09T13:42:16Z</time>
      </trkpt>
      <trkpt lat="44.84426" lon="-0.239">
        <ele>10</ele>
        <time>2020-09-09T13:42:18Z</time>
      </trkpt>
      <trkpt lat="44.84426" lon="-0.23904">
        <ele>10</ele>
        <time>2020-09-09T13:42:19Z</time>
      </trkpt>
      <trkpt lat="44.84426" lon="-0.23905">
        <ele>9.9</ele>
        <time>2020-09-09T13:42:20Z</time>
      </trkpt>
      <trkpt lat="44.84426" lon="-0.23908">
        <ele>9.9</ele>
        <time>2020-09-09T13:42:22Z</time>
      </trkpt>
      <trkpt lat="44.84426" lon="-0.23911">
        <ele>9.9</ele>
        <time>2020-09-09T13:42:23Z</time>
      </trkpt>
      <trkpt lat="44.84426" lon="-0.23912">
        <ele>9.9</ele>
        <time>2020-09-09T13:42:24Z</time>
      </trkpt>
      <trkpt lat="44.84426" lon="-0.23915">
        <ele>9.9</ele>
        <time>2020-09-09T13:42:25Z</time>
      </trkpt>
      <trkpt lat="44.84426" lon="-0.23917">
        <ele>9.9</ele>
        <time>2020-09-09T13:42:26Z</time>
      </trkpt>
      <trkpt lat="44.84426" lon="-0.23918">
        <ele>9.8</ele>
        <time>2020-09-09T13:42:27Z</time>
      </trkpt>
      <trkpt lat="44.84426" lon="-0.23921">
        <ele>9.8</ele>
        <time>2020-09-09T13:42:29Z</time>
      </trkpt>
      <trkpt lat="44.84427" lon="-0.23922">
        <ele>9.8</ele>
        <time>2020-09-09T13:42:30Z</time>
      </trkpt>
      <trkpt lat="44.84427" lon="-0.23923">
        <ele>9.8</ele>
        <time>2020-09-09T13:42:31Z</time>
      </trkpt>
      <trkpt lat="44.84427" lon="-0.23927">
        <ele>9.8</ele>
        <time>2020-09-09T13:42:33Z</time>
      </trkpt>
      <trkpt lat="44.84428" lon="-0.23928">
        <ele>9.8</ele>
        <time>2020-09-09T13:42:35Z</time>
      </trkpt>
      <trkpt lat="44.84428" lon="-0.23929">
        <ele>9.8</ele>
        <time>2020-09-09T13:42:36Z</time>
      </trkpt>
      <trkpt lat="44.84428" lon="-0.23931">
        <ele>9.8</ele>
        <time>2020-09-09T13:42:37Z</time>
      </trkpt>
      <trkpt lat="44.84429" lon="-0.23933">
        <ele>9.8</ele>
        <time>2020-09-09T13:42:38Z</time>
      </trkpt>
      <trkpt lat="44.84429" lon="-0.23935">
        <ele>9.8</ele>
        <time>2020-09-09T13:42:39Z</time>
      </trkpt>
      <trkpt lat="44.84429" lon="-0.23938">
        <ele>9.8</ele>
        <time>2020-09-09T13:42:41Z</time>
      </trkpt>
      <trkpt lat="44.84429" lon="-0.2394">
        <ele>9.8</ele>
        <time>2020-09-09T13:42:42Z</time>
      </trkpt>
      <trkpt lat="44.8443" lon="-0.23941">
        <ele>9.8</ele>
        <time>2020-09-09T13:42:43Z</time>
      </trkpt>
      <trkpt lat="44.8443" lon="-0.23942">
        <ele>9.8</ele>
        <time>2020-09-09T13:42:44Z</time>
      </trkpt>
      <trkpt lat="44.8443" lon="-0.23944">
        <ele>9.8</ele>
        <time>2020-09-09T13:42:45Z</time>
      </trkpt>
      <trkpt lat="44.8443" lon="-0.23946">
        <ele>9.8</ele>
        <time>2020-09-09T13:42:46Z</time>
      </trkpt>
      <trkpt lat="44.84429" lon="-0.23949">
        <ele>9.8</ele>
        <time>2020-09-09T13:42:47Z</time>
      </trkpt>
      <trkpt lat="44.84429" lon="-0.23951">
        <ele>9.8</ele>
        <time>2020-09-09T13:42:49Z</time>
      </trkpt>
      <trkpt lat="44.84429" lon="-0.23953">
        <ele>9.8</ele>
        <time>2020-09-09T13:42:50Z</time>
      </trkpt>
      <trkpt lat="44.84429" lon="-0.23955">
        <ele>9.8</ele>
        <time>2020-09-09T13:42:52Z</time>
      </trkpt>
      <trkpt lat="44.84429" lon="-0.23956">
        <ele>9.8</ele>
        <time>2020-09-09T13:42:53Z</time>
      </trkpt>
      <trkpt lat="44.84428" lon="-0.23958">
        <ele>9.8</ele>
        <time>2020-09-09T13:42:55Z</time>
      </trkpt>
      <trkpt lat="44.84428" lon="-0.23959">
        <ele>9.8</ele>
        <time>2020-09-09T13:42:56Z</time>
      </trkpt>
      <trkpt lat="44.84428" lon="-0.23961">
        <ele>9.8</ele>
        <time>2020-09-09T13:42:57Z</time>
      </trkpt>
      <trkpt lat="44.84428" lon="-0.23964">
        <ele>9.8</ele>
        <time>2020-09-09T13:42:58Z</time>
      </trkpt>
      <trkpt lat="44.84428" lon="-0.23965">
        <ele>9.7</ele>
        <time>2020-09-09T13:42:59Z</time>
      </trkpt>
      <trkpt lat="44.84428" lon="-0.23966">
        <ele>9.7</ele>
        <time>2020-09-09T13:43:00Z</time>
      </trkpt>
      <trkpt lat="44.84427" lon="-0.23969">
        <ele>9.7</ele>
        <time>2020-09-09T13:43:02Z</time>
      </trkpt>
      <trkpt lat="44.84427" lon="-0.23972">
        <ele>9.7</ele>
        <time>2020-09-09T13:43:04Z</time>
      </trkpt>
      <trkpt lat="44.84427" lon="-0.23973">
        <ele>9.8</ele>
        <time>2020-09-09T13:43:05Z</time>
      </trkpt>
      <trkpt lat="44.84427" lon="-0.23973">
        <ele>9.8</ele>
        <time>2020-09-09T13:43:06Z</time>
      </trkpt>
      <trkpt lat="44.84428" lon="-0.23975">
        <ele>9.8</ele>
        <time>2020-09-09T13:43:09Z</time>
      </trkpt>
      <trkpt lat="44.84428" lon="-0.23976">
        <ele>9.8</ele>
        <time>2020-09-09T13:43:10Z</time>
      </trkpt>
      <trkpt lat="44.84428" lon="-0.23976">
        <ele>9.8</ele>
        <time>2020-09-09T13:43:12Z</time>
      </trkpt>
      <trkpt lat="44.84428" lon="-0.23976">
        <ele>9.8</ele>
        <time>2020-09-09T13:43:14Z</time>
      </trkpt>
      <trkpt lat="44.84428" lon="-0.23975">
        <ele>9.8</ele>
        <time>2020-09-09T13:43:15Z</time>
      </trkpt>
      <trkpt lat="44.84428" lon="-0.23975">
        <ele>9.8</ele>
        <time>2020-09-09T13:43:17Z</time>
      </trkpt>
      <trkpt lat="44.84428" lon="-0.23974">
        <ele>9.8</ele>
        <time>2020-09-09T13:43:19Z</time>
      </trkpt>
      <trkpt lat="44.84428" lon="-0.23974">
        <ele>9.8</ele>
        <time>2020-09-09T13:43:21Z</time>
      </trkpt>
      <trkpt lat="44.84428" lon="-0.23973">
        <ele>9.8</ele>
        <time>2020-09-09T13:43:23Z</time>
      </trkpt>
      <trkpt lat="44.84428" lon="-0.23973">
        <ele>9.8</ele>
        <time>2020-09-09T13:43:25Z</time>
      </trkpt>
      <trkpt lat="44.84428" lon="-0.23973">
        <ele>9.8</ele>
        <time>2020-09-09T13:43:26Z</time>
      </trkpt>
      <trkpt lat="44.84428" lon="-0.23973">
        <ele>9.8</ele>
        <time>2020-09-09T13:43:28Z</time>
      </trkpt>
      <trkpt lat="44.84428" lon="-0.23973">
        <ele>9.8</ele>
        <time>2020-09-09T13:43:30Z</time>
      </trkpt>
      <trkpt lat="44.84428" lon="-0.23973">
        <ele>9.8</ele>
        <time>2020-09-09T13:43:32Z</time>
      </trkpt>
      <trkpt lat="44.84428" lon="-0.23973">
        <ele>9.8</ele>
        <time>2020-09-09T13:43:33Z</time>
      </trkpt>
      <trkpt lat="44.84428" lon="-0.23973">
        <ele>9.8</ele>
        <time>2020-09-09T13:43:35Z</time>
      </trkpt>
      <trkpt lat="44.84428" lon="-0.23973">
        <ele>9.8</ele>
        <time>2020-09-09T13:43:36Z</time>
      </trkpt>
      <trkpt lat="44.84428" lon="-0.23973">
        <ele>9.8</ele>
        <time>2020-09-09T13:43:37Z</time>
      </trkpt>
      <trkpt lat="44.84428" lon="-0.23973">
        <ele>9.8</ele>
        <time>2020-09-09T13:43:39Z</time>
      </trkpt>
      <trkpt lat="44.84428" lon="-0.23973">
        <ele>9.8</ele>
        <time>2020-09-09T13:43:40Z</time>
      </trkpt>
      <trkpt lat="44.84428" lon="-0.23973">
        <ele>9.8</ele>
        <time>2020-09-09T13:43:42Z</time>
      </trkpt>
      <trkpt lat="44.84428" lon="-0.23973">
        <ele>9.8</ele>
        <time>2020-09-09T13:43:44Z</time>
      </trkpt>
      <trkpt lat="44.84428" lon="-0.23973">
        <ele>9.8</ele>
        <time>2020-09-09T13:43:46Z</time>
      </trkpt>
      <trkpt lat="44.84428" lon="-0.23973">
        <ele>9.8</ele>
        <time>2020-09-09T13:43:47Z</time>
      </trkpt>
      <trkpt lat="44.84428" lon="-0.23973">
        <ele>9.8</ele>
        <time>2020-09-09T13:43:48Z</time>
      </trkpt>
      <trkpt lat="44.84428" lon="-0.23973">
        <ele>9.8</ele>
        <time>2020-09-09T13:43:49Z</time>
      </trkpt>
      <trkpt lat="44.84427" lon="-0.23974">
        <ele>9.8</ele>
        <time>2020-09-09T13:43:50Z</time>
      </trkpt>
      <trkpt lat="44.84426" lon="-0.23976">
        <ele>9.8</ele>
        <time>2020-09-09T13:43:52Z</time>
      </trkpt>
      <trkpt lat="44.84427" lon="-0.23977">
        <ele>9.8</ele>
        <time>2020-09-09T13:43:54Z</time>
      </trkpt>
      <trkpt lat="44.84428" lon="-0.23977">
        <ele>9.8</ele>
        <time>2020-09-09T13:43:55Z</time>
      </trkpt>
      <trkpt lat="44.84429" lon="-0.23978">
        <ele>9.8</ele>
        <time>2020-09-09T13:43:56Z</time>
      </trkpt>
      <trkpt lat="44.8443" lon="-0.23978">
        <ele>9.8</ele>
        <time>2020-09-09T13:43:57Z</time>
      </trkpt>
      <trkpt lat="44.8443" lon="-0.23979">
        <ele>9.8</ele>
        <time>2020-09-09T13:43:58Z</time>
      </trkpt>
      <trkpt lat="44.8443" lon="-0.2398">
        <ele>9.8</ele>
        <time>2020-09-09T13:43:59Z</time>
      </trkpt>
      <trkpt lat="44.84431" lon="-0.23981">
        <ele>9.8</ele>
        <time>2020-09-09T13:44:00Z</time>
      </trkpt>
      <trkpt lat="44.8443" lon="-0.23986">
        <ele>9.9</ele>
        <time>2020-09-09T13:44:02Z</time>
      </trkpt>
      <trkpt lat="44.84429" lon="-0.23987">
        <ele>9.9</ele>
        <time>2020-09-09T13:44:03Z</time>
      </trkpt>
      <trkpt lat="44.84427" lon="-0.23989">
        <ele>9.8</ele>
        <time>2020-09-09T13:44:05Z</time>
      </trkpt>
      <trkpt lat="44.84426" lon="-0.23989">
        <ele>9.8</ele>
        <time>2020-09-09T13:44:06Z</time>
      </trkpt>
      <trkpt lat="44.84425" lon="-0.2399">
        <ele>9.8</ele>
        <time>2020-09-09T13:44:07Z</time>
      </trkpt>
      <trkpt lat="44.84424" lon="-0.23992">
        <ele>9.7</ele>
        <time>2020-09-09T13:44:09Z</time>
      </trkpt>
      <trkpt lat="44.84423" lon="-0.23994">
        <ele>9.7</ele>
        <time>2020-09-09T13:44:11Z</time>
      </trkpt>
      <trkpt lat="44.84422" lon="-0.23996">
        <ele>9.7</ele>
        <time>2020-09-09T13:44:12Z</time>
      </trkpt>
      <trkpt lat="44.84421" lon="-0.23998">
        <ele>9.7</ele>
        <time>2020-09-09T13:44:14Z</time>
      </trkpt>
      <trkpt lat="44.8442" lon="-0.24">
        <ele>9.7</ele>
        <time>2020-09-09T13:44:15Z</time>
      </trkpt>
      <trkpt lat="44.8442" lon="-0.24001">
        <ele>9.7</ele>
        <time>2020-09-09T13:44:16Z</time>
      </trkpt>
      <trkpt lat="44.84418" lon="-0.24002">
        <ele>9.6</ele>
        <time>2020-09-09T13:44:18Z</time>
      </trkpt>
      <trkpt lat="44.84417" lon="-0.24004">
        <ele>9.6</ele>
        <time>2020-09-09T13:44:19Z</time>
      </trkpt>
      <trkpt lat="44.84416" lon="-0.24008">
        <ele>9.6</ele>
        <time>2020-09-09T13:44:20Z</time>
      </trkpt>
      <trkpt lat="44.84415" lon="-0.24009">
        <ele>9.6</ele>
        <time>2020-09-09T13:44:21Z</time>
      </trkpt>
      <trkpt lat="44.84413" lon="-0.24013">
        <ele>9.6</ele>
        <time>2020-09-09T13:44:22Z</time>
      </trkpt>
      <trkpt lat="44.84411" lon="-0.24014">
        <ele>9.5</ele>
        <time>2020-09-09T13:44:24Z</time>
      </trkpt>
      <trkpt lat="44.8441" lon="-0.24016">
        <ele>9.5</ele>
        <time>2020-09-09T13:44:25Z</time>
      </trkpt>
      <trkpt lat="44.84409" lon="-0.24018">
        <ele>9.5</ele>
        <time>2020-09-09T13:44:26Z</time>
      </trkpt>
      <trkpt lat="44.84408" lon="-0.2402">
        <ele>9.5</ele>
        <time>2020-09-09T13:44:28Z</time>
      </trkpt>
      <trkpt lat="44.84407" lon="-0.24021">
        <ele>9.5</ele>
        <time>2020-09-09T13:44:29Z</time>
      </trkpt>
      <trkpt lat="44.84406" lon="-0.24022">
        <ele>9.4</ele>
        <time>2020-09-09T13:44:30Z</time>
      </trkpt>
      <trkpt lat="44.84404" lon="-0.24024">
        <ele>9.4</ele>
        <time>2020-09-09T13:44:31Z</time>
      </trkpt>
      <trkpt lat="44.84403" lon="-0.24025">
        <ele>9.4</ele>
        <time>2020-09-09T13:44:33Z</time>
      </trkpt>
      <trkpt lat="44.84402" lon="-0.24026">
        <ele>9.4</ele>
        <time>2020-09-09T13:44:34Z</time>
      </trkpt>
      <trkpt lat="44.844" lon="-0.2403">
        <ele>9.4</ele>
        <time>2020-09-09T13:44:36Z</time>
      </trkpt>
      <trkpt lat="44.84399" lon="-0.24032">
        <ele>9.4</ele>
        <time>2020-09-09T13:44:37Z</time>
      </trkpt>
      <trkpt lat="44.84398" lon="-0.24033">
        <ele>9.3</ele>
        <time>2020-09-09T13:44:38Z</time>
      </trkpt>
      <trkpt lat="44.84398" lon="-0.24034">
        <ele>9.3</ele>
        <time>2020-09-09T13:44:39Z</time>
      </trkpt>
      <trkpt lat="44.84397" lon="-0.24035">
        <ele>9.3</ele>
        <time>2020-09-09T13:44:40Z</time>
      </trkpt>
      <trkpt lat="44.84395" lon="-0.24037">
        <ele>9.3</ele>
        <time>2020-09-09T13:44:41Z</time>
      </trkpt>
      <trkpt lat="44.84395" lon="-0.24039">
        <ele>9.3</ele>
        <time>2020-09-09T13:44:43Z</time>
      </trkpt>
      <trkpt lat="44.84394" lon="-0.2404">
        <ele>9.3</ele>
        <time>2020-09-09T13:44:44Z</time>
      </trkpt>
      <trkpt lat="44.84394" lon="-0.24041">
        <ele>9.2</ele>
        <time>2020-09-09T13:44:45Z</time>
      </trkpt>
      <trkpt lat="44.84393" lon="-0.24043">
        <ele>9.2</ele>
        <time>2020-09-09T13:44:46Z</time>
      </trkpt>
      <trkpt lat="44.84392" lon="-0.24045">
        <ele>9.2</ele>
        <time>2020-09-09T13:44:47Z</time>
      </trkpt>
      <trkpt lat="44.8439" lon="-0.24048">
        <ele>9.2</ele>
        <time>2020-09-09T13:44:49Z</time>
      </trkpt>
      <trkpt lat="44.84389" lon="-0.24049">
        <ele>9.2</ele>
        <time>2020-09-09T13:44:50Z</time>
      </trkpt>
      <trkpt lat="44.84388" lon="-0.24051">
        <ele>9.1</ele>
        <time>2020-09-09T13:44:51Z</time>
      </trkpt>
      <trkpt lat="44.84387" lon="-0.24053">
        <ele>9.1</ele>
        <time>2020-09-09T13:44:53Z</time>
      </trkpt>
      <trkpt lat="44.84386" lon="-0.24054">
        <ele>9.1</ele>
        <time>2020-09-09T13:44:54Z</time>
      </trkpt>
      <trkpt lat="44.84384" lon="-0.24056">
        <ele>9.1</ele>
        <time>2020-09-09T13:44:55Z</time>
      </trkpt>
      <trkpt lat="44.84383" lon="-0.24057">
        <ele>9.1</ele>
        <time>2020-09-09T13:44:56Z</time>
      </trkpt>
      <trkpt lat="44.84381" lon="-0.2406">
        <ele>9</ele>
        <time>2020-09-09T13:44:58Z</time>
      </trkpt>
      <trkpt lat="44.8438" lon="-0.24061">
        <ele>9</ele>
        <time>2020-09-09T13:44:59Z</time>
      </trkpt>
      <trkpt lat="44.84379" lon="-0.24062">
        <ele>9</ele>
        <time>2020-09-09T13:45:00Z</time>
      </trkpt>
      <trkpt lat="44.84378" lon="-0.24064">
        <ele>9</ele>
        <time>2020-09-09T13:45:02Z</time>
      </trkpt>
      <trkpt lat="44.84377" lon="-0.24066">
        <ele>9</ele>
        <time>2020-09-09T13:45:03Z</time>
      </trkpt>
      <trkpt lat="44.84376" lon="-0.24068">
        <ele>9</ele>
        <time>2020-09-09T13:45:04Z</time>
      </trkpt>
      <trkpt lat="44.84375" lon="-0.24069">
        <ele>9</ele>
        <time>2020-09-09T13:45:05Z</time>
      </trkpt>
      <trkpt lat="44.84374" lon="-0.24071">
        <ele>9</ele>
        <time>2020-09-09T13:45:06Z</time>
      </trkpt>
      <trkpt lat="44.84373" lon="-0.24072">
        <ele>8.9</ele>
        <time>2020-09-09T13:45:07Z</time>
      </trkpt>
      <trkpt lat="44.84372" lon="-0.24075">
        <ele>8.9</ele>
        <time>2020-09-09T13:45:09Z</time>
      </trkpt>
      <trkpt lat="44.84371" lon="-0.24076">
        <ele>8.9</ele>
        <time>2020-09-09T13:45:10Z</time>
      </trkpt>
      <trkpt lat="44.8437" lon="-0.24078">
        <ele>8.9</ele>
        <time>2020-09-09T13:45:11Z</time>
      </trkpt>
      <trkpt lat="44.84369" lon="-0.24079">
        <ele>8.9</ele>
        <time>2020-09-09T13:45:12Z</time>
      </trkpt>
      <trkpt lat="44.84368" lon="-0.24081">
        <ele>8.9</ele>
        <time>2020-09-09T13:45:13Z</time>
      </trkpt>
      <trkpt lat="44.84367" lon="-0.24083">
        <ele>8.9</ele>
        <time>2020-09-09T13:45:15Z</time>
      </trkpt>
      <trkpt lat="44.84367" lon="-0.24085">
        <ele>8.8</ele>
        <time>2020-09-09T13:45:16Z</time>
      </trkpt>
      <trkpt lat="44.84366" lon="-0.24087">
        <ele>8.8</ele>
        <time>2020-09-09T13:45:17Z</time>
      </trkpt>
      <trkpt lat="44.84365" lon="-0.24089">
        <ele>8.8</ele>
        <time>2020-09-09T13:45:18Z</time>
      </trkpt>
      <trkpt lat="44.84364" lon="-0.24092">
        <ele>8.8</ele>
        <time>2020-09-09T13:45:19Z</time>
      </trkpt>
      <trkpt lat="44.84363" lon="-0.24093">
        <ele>8.8</ele>
        <time>2020-09-09T13:45:20Z</time>
      </trkpt>
      <trkpt lat="44.84363" lon="-0.24095">
        <ele>8.8</ele>
        <time>2020-09-09T13:45:22Z</time>
      </trkpt>
      <trkpt lat="44.84362" lon="-0.24097">
        <ele>8.8</ele>
        <time>2020-09-09T13:45:23Z</time>
      </trkpt>
      <trkpt lat="44.84361" lon="-0.24099">
        <ele>8.8</ele>
        <time>2020-09-09T13:45:24Z</time>
      </trkpt>
      <trkpt lat="44.8436" lon="-0.24103">
        <ele>8.8</ele>
        <time>2020-09-09T13:45:26Z</time>
      </trkpt>
      <trkpt lat="44.8436" lon="-0.24105">
        <ele>8.8</ele>
        <time>2020-09-09T13:45:27Z</time>
      </trkpt>
      <trkpt lat="44.84359" lon="-0.24108">
        <ele>8.8</ele>
        <time>2020-09-09T13:45:28Z</time>
      </trkpt>
      <trkpt lat="44.8436" lon="-0.24109">
        <ele>8.8</ele>
        <time>2020-09-09T13:45:29Z</time>
      </trkpt>
      <trkpt lat="44.84359" lon="-0.24112">
        <ele>8.8</ele>
        <time>2020-09-09T13:45:31Z</time>
      </trkpt>
      <trkpt lat="44.8436" lon="-0.24114">
        <ele>8.8</ele>
        <time>2020-09-09T13:45:32Z</time>
      </trkpt>
      <trkpt lat="44.8436" lon="-0.24115">
        <ele>8.8</ele>
        <time>2020-09-09T13:45:33Z</time>
      </trkpt>
      <trkpt lat="44.8436" lon="-0.24117">
        <ele>8.8</ele>
        <time>2020-09-09T13:45:34Z</time>
      </trkpt>
      <trkpt lat="44.84361" lon="-0.2412">
        <ele>8.8</ele>
        <time>2020-09-09T13:45:35Z</time>
      </trkpt>
      <trkpt lat="44.84362" lon="-0.24121">
        <ele>8.8</ele>
        <time>2020-09-09T13:45:37Z</time>
      </trkpt>
      <trkpt lat="44.84362" lon="-0.24123">
        <ele>8.8</ele>
        <time>2020-09-09T13:45:38Z</time>
      </trkpt>
      <trkpt lat="44.84364" lon="-0.24126">
        <ele>8.8</ele>
        <time>2020-09-09T13:45:40Z</time>
      </trkpt>
      <trkpt lat="44.84365" lon="-0.24127">
        <ele>8.8</ele>
        <time>2020-09-09T13:45:42Z</time>
      </trkpt>
      <trkpt lat="44.84366" lon="-0.24128">
        <ele>8.8</ele>
        <time>2020-09-09T13:45:43Z</time>
      </trkpt>
      <trkpt lat="44.84367" lon="-0.24129">
        <ele>8.8</ele>
        <time>2020-09-09T13:45:44Z</time>
      </trkpt>
      <trkpt lat="44.84368" lon="-0.2413">
        <ele>8.8</ele>
        <time>2020-09-09T13:45:45Z</time>
      </trkpt>
      <trkpt lat="44.84369" lon="-0.24131">
        <ele>8.8</ele>
        <time>2020-09-09T13:45:46Z</time>
      </trkpt>
      <trkpt lat="44.84371" lon="-0.24134">
        <ele>8.8</ele>
        <time>2020-09-09T13:45:48Z</time>
      </trkpt>
      <trkpt lat="44.84372" lon="-0.24137">
        <ele>8.9</ele>
        <time>2020-09-09T13:45:50Z</time>
      </trkpt>
      <trkpt lat="44.84373" lon="-0.2414">
        <ele>8.9</ele>
        <time>2020-09-09T13:45:51Z</time>
      </trkpt>
      <trkpt lat="44.84374" lon="-0.24141">
        <ele>8.9</ele>
        <time>2020-09-09T13:45:53Z</time>
      </trkpt>
      <trkpt lat="44.84374" lon="-0.24142">
        <ele>8.9</ele>
        <time>2020-09-09T13:45:54Z</time>
      </trkpt>
      <trkpt lat="44.84375" lon="-0.24143">
        <ele>8.9</ele>
        <time>2020-09-09T13:45:55Z</time>
      </trkpt>
      <trkpt lat="44.84376" lon="-0.24146">
        <ele>8.9</ele>
        <time>2020-09-09T13:45:56Z</time>
      </trkpt>
      <trkpt lat="44.84376" lon="-0.24147">
        <ele>8.9</ele>
        <time>2020-09-09T13:45:57Z</time>
      </trkpt>
      <trkpt lat="44.84376" lon="-0.24149">
        <ele>9</ele>
        <time>2020-09-09T13:45:58Z</time>
      </trkpt>
      <trkpt lat="44.84376" lon="-0.2415">
        <ele>9</ele>
        <time>2020-09-09T13:46:00Z</time>
      </trkpt>
      <trkpt lat="44.84376" lon="-0.24153">
        <ele>9</ele>
        <time>2020-09-09T13:46:01Z</time>
      </trkpt>
      <trkpt lat="44.84375" lon="-0.24156">
        <ele>9</ele>
        <time>2020-09-09T13:46:03Z</time>
      </trkpt>
      <trkpt lat="44.84374" lon="-0.24157">
        <ele>9</ele>
        <time>2020-09-09T13:46:04Z</time>
      </trkpt>
      <trkpt lat="44.84373" lon="-0.24158">
        <ele>9.1</ele>
        <time>2020-09-09T13:46:05Z</time>
      </trkpt>
      <trkpt lat="44.84372" lon="-0.24159">
        <ele>9</ele>
        <time>2020-09-09T13:46:07Z</time>
      </trkpt>
      <trkpt lat="44.84371" lon="-0.24161">
        <ele>9</ele>
        <time>2020-09-09T13:46:08Z</time>
      </trkpt>
      <trkpt lat="44.8437" lon="-0.24163">
        <ele>9.1</ele>
        <time>2020-09-09T13:46:09Z</time>
      </trkpt>
      <trkpt lat="44.8437" lon="-0.24164">
        <ele>9.1</ele>
        <time>2020-09-09T13:46:10Z</time>
      </trkpt>
      <trkpt lat="44.84369" lon="-0.24165">
        <ele>9.1</ele>
        <time>2020-09-09T13:46:11Z</time>
      </trkpt>
      <trkpt lat="44.84369" lon="-0.24166">
        <ele>9.2</ele>
        <time>2020-09-09T13:46:12Z</time>
      </trkpt>
      <trkpt lat="44.84368" lon="-0.24167">
        <ele>9.2</ele>
        <time>2020-09-09T13:46:14Z</time>
      </trkpt>
      <trkpt lat="44.84368" lon="-0.24169">
        <ele>9.2</ele>
        <time>2020-09-09T13:46:15Z</time>
      </trkpt>
      <trkpt lat="44.84367" lon="-0.2417">
        <ele>9.3</ele>
        <time>2020-09-09T13:46:16Z</time>
      </trkpt>
      <trkpt lat="44.84366" lon="-0.24172">
        <ele>9.3</ele>
        <time>2020-09-09T13:46:17Z</time>
      </trkpt>
      <trkpt lat="44.84366" lon="-0.24174">
        <ele>9.3</ele>
        <time>2020-09-09T13:46:18Z</time>
      </trkpt>
      <trkpt lat="44.84365" lon="-0.24175">
        <ele>9.4</ele>
        <time>2020-09-09T13:46:20Z</time>
      </trkpt>
      <trkpt lat="44.84364" lon="-0.24176">
        <ele>9.4</ele>
        <time>2020-09-09T13:46:21Z</time>
      </trkpt>
      <trkpt lat="44.84363" lon="-0.24177">
        <ele>9.4</ele>
        <time>2020-09-09T13:46:22Z</time>
      </trkpt>
      <trkpt lat="44.84362" lon="-0.24178">
        <ele>9.4</ele>
        <time>2020-09-09T13:46:23Z</time>
      </trkpt>
      <trkpt lat="44.84361" lon="-0.2418">
        <ele>9.5</ele>
        <time>2020-09-09T13:46:24Z</time>
      </trkpt>
      <trkpt lat="44.8436" lon="-0.24181">
        <ele>9.5</ele>
        <time>2020-09-09T13:46:26Z</time>
      </trkpt>
      <trkpt lat="44.8436" lon="-0.24182">
        <ele>9.5</ele>
        <time>2020-09-09T13:46:27Z</time>
      </trkpt>
      <trkpt lat="44.84358" lon="-0.24184">
        <ele>9.6</ele>
        <time>2020-09-09T13:46:28Z</time>
      </trkpt>
      <trkpt lat="44.84357" lon="-0.24187">
        <ele>9.6</ele>
        <time>2020-09-09T13:46:29Z</time>
      </trkpt>
      <trkpt lat="44.84356" lon="-0.24188">
        <ele>9.7</ele>
        <time>2020-09-09T13:46:30Z</time>
      </trkpt>
      <trkpt lat="44.84355" lon="-0.2419">
        <ele>9.7</ele>
        <time>2020-09-09T13:46:31Z</time>
      </trkpt>
      <trkpt lat="44.84354" lon="-0.24191">
        <ele>9.7</ele>
        <time>2020-09-09T13:46:32Z</time>
      </trkpt>
      <trkpt lat="44.84353" lon="-0.24192">
        <ele>9.9</ele>
        <time>2020-09-09T13:46:33Z</time>
      </trkpt>
      <trkpt lat="44.84352" lon="-0.24193">
        <ele>9.9</ele>
        <time>2020-09-09T13:46:34Z</time>
      </trkpt>
      <trkpt lat="44.8435" lon="-0.24196">
        <ele>10</ele>
        <time>2020-09-09T13:46:36Z</time>
      </trkpt>
      <trkpt lat="44.84349" lon="-0.24197">
        <ele>10.1</ele>
        <time>2020-09-09T13:46:37Z</time>
      </trkpt>
      <trkpt lat="44.84348" lon="-0.24198">
        <ele>10.2</ele>
        <time>2020-09-09T13:46:38Z</time>
      </trkpt>
      <trkpt lat="44.84348" lon="-0.24198">
        <ele>10.2</ele>
        <time>2020-09-09T13:46:39Z</time>
      </trkpt>
      <trkpt lat="44.84345" lon="-0.242">
        <ele>10.3</ele>
        <time>2020-09-09T13:46:41Z</time>
      </trkpt>
      <trkpt lat="44.84344" lon="-0.242">
        <ele>10.4</ele>
        <time>2020-09-09T13:46:42Z</time>
      </trkpt>
      <trkpt lat="44.84342" lon="-0.24201">
        <ele>10.4</ele>
        <time>2020-09-09T13:46:43Z</time>
      </trkpt>
      <trkpt lat="44.84341" lon="-0.24202">
        <ele>10.5</ele>
        <time>2020-09-09T13:46:45Z</time>
      </trkpt>
      <trkpt lat="44.8434" lon="-0.24203">
        <ele>10.5</ele>
        <time>2020-09-09T13:46:46Z</time>
      </trkpt>
      <trkpt lat="44.84339" lon="-0.24204">
        <ele>10.7</ele>
        <time>2020-09-09T13:46:47Z</time>
      </trkpt>
      <trkpt lat="44.84338" lon="-0.24205">
        <ele>10.7</ele>
        <time>2020-09-09T13:46:48Z</time>
      </trkpt>
      <trkpt lat="44.84335" lon="-0.24207">
        <ele>10.8</ele>
        <time>2020-09-09T13:46:50Z</time>
      </trkpt>
      <trkpt lat="44.84335" lon="-0.24207">
        <ele>10.9</ele>
        <time>2020-09-09T13:46:52Z</time>
      </trkpt>
      <trkpt lat="44.84334" lon="-0.24208">
        <ele>10.9</ele>
        <time>2020-09-09T13:46:53Z</time>
      </trkpt>
      <trkpt lat="44.84333" lon="-0.24209">
        <ele>11.1</ele>
        <time>2020-09-09T13:46:54Z</time>
      </trkpt>
      <trkpt lat="44.84332" lon="-0.24211">
        <ele>11.1</ele>
        <time>2020-09-09T13:46:55Z</time>
      </trkpt>
      <trkpt lat="44.84331" lon="-0.24212">
        <ele>11.2</ele>
        <time>2020-09-09T13:46:56Z</time>
      </trkpt>
      <trkpt lat="44.8433" lon="-0.24213">
        <ele>11.3</ele>
        <time>2020-09-09T13:46:57Z</time>
      </trkpt>
      <trkpt lat="44.84329" lon="-0.24214">
        <ele>11.3</ele>
        <time>2020-09-09T13:46:58Z</time>
      </trkpt>
      <trkpt lat="44.84328" lon="-0.24215">
        <ele>11.4</ele>
        <time>2020-09-09T13:47:00Z</time>
      </trkpt>
      <trkpt lat="44.84326" lon="-0.24216">
        <ele>11.4</ele>
        <time>2020-09-09T13:47:01Z</time>
      </trkpt>
      <trkpt lat="44.84325" lon="-0.24216">
        <ele>11.5</ele>
        <time>2020-09-09T13:47:02Z</time>
      </trkpt>
      <trkpt lat="44.84325" lon="-0.24216">
        <ele>11.5</ele>
        <time>2020-09-09T13:47:03Z</time>
      </trkpt>
      <trkpt lat="44.84324" lon="-0.24216">
        <ele>11.6</ele>
        <time>2020-09-09T13:47:04Z</time>
      </trkpt>
      <trkpt lat="44.84323" lon="-0.24214">
        <ele>11.6</ele>
        <time>2020-09-09T13:47:05Z</time>
      </trkpt>
      <trkpt lat="44.84322" lon="-0.24212">
        <ele>11.5</ele>
        <time>2020-09-09T13:47:07Z</time>
      </trkpt>
      <trkpt lat="44.84321" lon="-0.2421">
        <ele>11.6</ele>
        <time>2020-09-09T13:47:08Z</time>
      </trkpt>
      <trkpt lat="44.84319" lon="-0.24206">
        <ele>11.6</ele>
        <time>2020-09-09T13:47:09Z</time>
      </trkpt>
      <trkpt lat="44.84319" lon="-0.24204">
        <ele>11.5</ele>
        <time>2020-09-09T13:47:11Z</time>
      </trkpt>
      <trkpt lat="44.84318" lon="-0.24202">
        <ele>11.6</ele>
        <time>2020-09-09T13:47:12Z</time>
      </trkpt>
      <trkpt lat="44.84317" lon="-0.242">
        <ele>11.6</ele>
        <time>2020-09-09T13:47:13Z</time>
      </trkpt>
      <trkpt lat="44.84317" lon="-0.24198">
        <ele>11.6</ele>
        <time>2020-09-09T13:47:14Z</time>
      </trkpt>
      <trkpt lat="44.84316" lon="-0.24196">
        <ele>11.6</ele>
        <time>2020-09-09T13:47:15Z</time>
      </trkpt>
      <trkpt lat="44.84316" lon="-0.24195">
        <ele>11.6</ele>
        <time>2020-09-09T13:47:16Z</time>
      </trkpt>
      <trkpt lat="44.84315" lon="-0.24193">
        <ele>11.6</ele>
        <time>2020-09-09T13:47:17Z</time>
      </trkpt>
      <trkpt lat="44.84315" lon="-0.24191">
        <ele>11.6</ele>
        <time>2020-09-09T13:47:19Z</time>
      </trkpt>
      <trkpt lat="44.84314" lon="-0.24188">
        <ele>11.7</ele>
        <time>2020-09-09T13:47:20Z</time>
      </trkpt>
      <trkpt lat="44.84313" lon="-0.24187">
        <ele>11.6</ele>
        <time>2020-09-09T13:47:21Z</time>
      </trkpt>
      <trkpt lat="44.84313" lon="-0.24185">
        <ele>11.6</ele>
        <time>2020-09-09T13:47:22Z</time>
      </trkpt>
      <trkpt lat="44.84312" lon="-0.24183">
        <ele>11.7</ele>
        <time>2020-09-09T13:47:24Z</time>
      </trkpt>
      <trkpt lat="44.84311" lon="-0.24181">
        <ele>11.7</ele>
        <time>2020-09-09T13:47:25Z</time>
      </trkpt>
      <trkpt lat="44.8431" lon="-0.24179">
        <ele>11.8</ele>
        <time>2020-09-09T13:47:26Z</time>
      </trkpt>
      <trkpt lat="44.84309" lon="-0.24177">
        <ele>11.7</ele>
        <time>2020-09-09T13:47:27Z</time>
      </trkpt>
      <trkpt lat="44.84309" lon="-0.24175">
        <ele>11.8</ele>
        <time>2020-09-09T13:47:28Z</time>
      </trkpt>
      <trkpt lat="44.84307" lon="-0.24172">
        <ele>11.8</ele>
        <time>2020-09-09T13:47:30Z</time>
      </trkpt>
      <trkpt lat="44.84307" lon="-0.24171">
        <ele>11.9</ele>
        <time>2020-09-09T13:47:31Z</time>
      </trkpt>
      <trkpt lat="44.84306" lon="-0.24168">
        <ele>11.9</ele>
        <time>2020-09-09T13:47:32Z</time>
      </trkpt>
      <trkpt lat="44.84305" lon="-0.24166">
        <ele>11.8</ele>
        <time>2020-09-09T13:47:34Z</time>
      </trkpt>
      <trkpt lat="44.84304" lon="-0.24164">
        <ele>11.9</ele>
        <time>2020-09-09T13:47:35Z</time>
      </trkpt>
      <trkpt lat="44.84303" lon="-0.24163">
        <ele>11.9</ele>
        <time>2020-09-09T13:47:36Z</time>
      </trkpt>
      <trkpt lat="44.84303" lon="-0.24162">
        <ele>12.1</ele>
        <time>2020-09-09T13:47:37Z</time>
      </trkpt>
      <trkpt lat="44.84302" lon="-0.24161">
        <ele>12.1</ele>
        <time>2020-09-09T13:47:38Z</time>
      </trkpt>
      <trkpt lat="44.84301" lon="-0.24159">
        <ele>12.1</ele>
        <time>2020-09-09T13:47:39Z</time>
      </trkpt>
      <trkpt lat="44.843" lon="-0.24157">
        <ele>12.3</ele>
        <time>2020-09-09T13:47:41Z</time>
      </trkpt>
      <trkpt lat="44.84298" lon="-0.24155">
        <ele>12.3</ele>
        <time>2020-09-09T13:47:42Z</time>
      </trkpt>
      <trkpt lat="44.84297" lon="-0.24154">
        <ele>12.3</ele>
        <time>2020-09-09T13:47:43Z</time>
      </trkpt>
      <trkpt lat="44.84297" lon="-0.24152">
        <ele>12.4</ele>
        <time>2020-09-09T13:47:44Z</time>
      </trkpt>
      <trkpt lat="44.84296" lon="-0.24151">
        <ele>12.4</ele>
        <time>2020-09-09T13:47:46Z</time>
      </trkpt>
      <trkpt lat="44.84294" lon="-0.24149">
        <ele>12.5</ele>
        <time>2020-09-09T13:47:47Z</time>
      </trkpt>
      <trkpt lat="44.84294" lon="-0.24147">
        <ele>12.6</ele>
        <time>2020-09-09T13:47:48Z</time>
      </trkpt>
      <trkpt lat="44.84293" lon="-0.24146">
        <ele>12.6</ele>
        <time>2020-09-09T13:47:49Z</time>
      </trkpt>
      <trkpt lat="44.84292" lon="-0.24144">
        <ele>12.7</ele>
        <time>2020-09-09T13:47:50Z</time>
      </trkpt>
      <trkpt lat="44.84291" lon="-0.24142">
        <ele>12.8</ele>
        <time>2020-09-09T13:47:52Z</time>
      </trkpt>
      <trkpt lat="44.8429" lon="-0.2414">
        <ele>12.8</ele>
        <time>2020-09-09T13:47:53Z</time>
      </trkpt>
      <trkpt lat="44.84289" lon="-0.24139">
        <ele>12.9</ele>
        <time>2020-09-09T13:47:55Z</time>
      </trkpt>
      <trkpt lat="44.84288" lon="-0.24138">
        <ele>12.9</ele>
        <time>2020-09-09T13:47:56Z</time>
      </trkpt>
      <trkpt lat="44.84287" lon="-0.24137">
        <ele>13.1</ele>
        <time>2020-09-09T13:47:57Z</time>
      </trkpt>
      <trkpt lat="44.84287" lon="-0.24136">
        <ele>13.1</ele>
        <time>2020-09-09T13:47:58Z</time>
      </trkpt>
      <trkpt lat="44.84286" lon="-0.24135">
        <ele>13.1</ele>
        <time>2020-09-09T13:47:59Z</time>
      </trkpt>
      <trkpt lat="44.84285" lon="-0.24134">
        <ele>13.1</ele>
        <time>2020-09-09T13:48:01Z</time>
      </trkpt>
      <trkpt lat="44.84284" lon="-0.24133">
        <ele>13.4</ele>
        <time>2020-09-09T13:48:02Z</time>
      </trkpt>
      <trkpt lat="44.84283" lon="-0.24132">
        <ele>13.4</ele>
        <time>2020-09-09T13:48:03Z</time>
      </trkpt>
      <trkpt lat="44.84281" lon="-0.2413">
        <ele>13.5</ele>
        <time>2020-09-09T13:48:05Z</time>
      </trkpt>
      <trkpt lat="44.8428" lon="-0.24129">
        <ele>13.6</ele>
        <time>2020-09-09T13:48:06Z</time>
      </trkpt>
      <trkpt lat="44.84279" lon="-0.24128">
        <ele>13.6</ele>
        <time>2020-09-09T13:48:07Z</time>
      </trkpt>
      <trkpt lat="44.84279" lon="-0.24127">
        <ele>13.8</ele>
        <time>2020-09-09T13:48:08Z</time>
      </trkpt>
      <trkpt lat="44.84277" lon="-0.24125">
        <ele>13.8</ele>
        <time>2020-09-09T13:48:09Z</time>
      </trkpt>
      <trkpt lat="44.84275" lon="-0.24123">
        <ele>14</ele>
        <time>2020-09-09T13:48:11Z</time>
      </trkpt>
      <trkpt lat="44.84274" lon="-0.24123">
        <ele>14</ele>
        <time>2020-09-09T13:48:12Z</time>
      </trkpt>
      <trkpt lat="44.84273" lon="-0.24122">
        <ele>14.1</ele>
        <time>2020-09-09T13:48:13Z</time>
      </trkpt>
      <trkpt lat="44.84272" lon="-0.24122">
        <ele>14.2</ele>
        <time>2020-09-09T13:48:14Z</time>
      </trkpt>
      <trkpt lat="44.84271" lon="-0.2412">
        <ele>14.2</ele>
        <time>2020-09-09T13:48:16Z</time>
      </trkpt>
      <trkpt lat="44.84269" lon="-0.24119">
        <ele>14.4</ele>
        <time>2020-09-09T13:48:17Z</time>
      </trkpt>
      <trkpt lat="44.84268" lon="-0.24118">
        <ele>14.4</ele>
        <time>2020-09-09T13:48:18Z</time>
      </trkpt>
      <trkpt lat="44.84267" lon="-0.24117">
        <ele>14.5</ele>
        <time>2020-09-09T13:48:19Z</time>
      </trkpt>
      <trkpt lat="44.84264" lon="-0.24114">
        <ele>14.6</ele>
        <time>2020-09-09T13:48:20Z</time>
      </trkpt>
      <trkpt lat="44.84263" lon="-0.24113">
        <ele>14.8</ele>
        <time>2020-09-09T13:48:21Z</time>
      </trkpt>
      <trkpt lat="44.84262" lon="-0.24112">
        <ele>14.8</ele>
        <time>2020-09-09T13:48:22Z</time>
      </trkpt>
      <trkpt lat="44.8426" lon="-0.2411">
        <ele>15</ele>
        <time>2020-09-09T13:48:24Z</time>
      </trkpt>
      <trkpt lat="44.84259" lon="-0.24109">
        <ele>15</ele>
        <time>2020-09-09T13:48:25Z</time>
      </trkpt>
      <trkpt lat="44.84257" lon="-0.24107">
        <ele>15.1</ele>
        <time>2020-09-09T13:48:26Z</time>
      </trkpt>
      <trkpt lat="44.84256" lon="-0.24107">
        <ele>15.2</ele>
        <time>2020-09-09T13:48:28Z</time>
      </trkpt>
      <trkpt lat="44.84256" lon="-0.24106">
        <ele>15.2</ele>
        <time>2020-09-09T13:48:29Z</time>
      </trkpt>
      <trkpt lat="44.84254" lon="-0.24104">
        <ele>15.4</ele>
        <time>2020-09-09T13:48:30Z</time>
      </trkpt>
      <trkpt lat="44.84253" lon="-0.24104">
        <ele>15.4</ele>
        <time>2020-09-09T13:48:31Z</time>
      </trkpt>
      <trkpt lat="44.84253" lon="-0.24103">
        <ele>15.5</ele>
        <time>2020-09-09T13:48:32Z</time>
      </trkpt>
      <trkpt lat="44.84252" lon="-0.24102">
        <ele>15.5</ele>
        <time>2020-09-09T13:48:33Z</time>
      </trkpt>
      <trkpt lat="44.84251" lon="-0.24101">
        <ele>15.7</ele>
        <time>2020-09-09T13:48:34Z</time>
      </trkpt>
      <trkpt lat="44.8425" lon="-0.24099">
        <ele>15.7</ele>
        <time>2020-09-09T13:48:36Z</time>
      </trkpt>
      <trkpt lat="44.8425" lon="-0.24098">
        <ele>15.7</ele>
        <time>2020-09-09T13:48:37Z</time>
      </trkpt>
      <trkpt lat="44.84249" lon="-0.24097">
        <ele>15.7</ele>
        <time>2020-09-09T13:48:38Z</time>
      </trkpt>
      <trkpt lat="44.84249" lon="-0.24096">
        <ele>15.7</ele>
        <time>2020-09-09T13:48:39Z</time>
      </trkpt>
      <trkpt lat="44.84247" lon="-0.24092">
        <ele>15.8</ele>
        <time>2020-09-09T13:48:41Z</time>
      </trkpt>
      <trkpt lat="44.84247" lon="-0.24091">
        <ele>15.8</ele>
        <time>2020-09-09T13:48:42Z</time>
      </trkpt>
      <trkpt lat="44.84246" lon="-0.24089">
        <ele>15.8</ele>
        <time>2020-09-09T13:48:44Z</time>
      </trkpt>
      <trkpt lat="44.84245" lon="-0.24088">
        <ele>16</ele>
        <time>2020-09-09T13:48:45Z</time>
      </trkpt>
      <trkpt lat="44.84244" lon="-0.24086">
        <ele>16</ele>
        <time>2020-09-09T13:48:46Z</time>
      </trkpt>
      <trkpt lat="44.84243" lon="-0.24085">
        <ele>16</ele>
        <time>2020-09-09T13:48:47Z</time>
      </trkpt>
      <trkpt lat="44.84242" lon="-0.24084">
        <ele>16</ele>
        <time>2020-09-09T13:48:48Z</time>
      </trkpt>
      <trkpt lat="44.84242" lon="-0.24084">
        <ele>16</ele>
        <time>2020-09-09T13:48:49Z</time>
      </trkpt>
      <trkpt lat="44.84241" lon="-0.24084">
        <ele>16.2</ele>
        <time>2020-09-09T13:48:51Z</time>
      </trkpt>
      <trkpt lat="44.84241" lon="-0.24083">
        <ele>16.2</ele>
        <time>2020-09-09T13:48:52Z</time>
      </trkpt>
      <trkpt lat="44.8424" lon="-0.24082">
        <ele>16.2</ele>
        <time>2020-09-09T13:48:53Z</time>
      </trkpt>
      <trkpt lat="44.84239" lon="-0.24082">
        <ele>16.2</ele>
        <time>2020-09-09T13:48:54Z</time>
      </trkpt>
      <trkpt lat="44.84238" lon="-0.24081">
        <ele>16.3</ele>
        <time>2020-09-09T13:48:55Z</time>
      </trkpt>
      <trkpt lat="44.84238" lon="-0.2408">
        <ele>16.3</ele>
        <time>2020-09-09T13:48:57Z</time>
      </trkpt>
      <trkpt lat="44.84237" lon="-0.24079">
        <ele>16.3</ele>
        <time>2020-09-09T13:48:58Z</time>
      </trkpt>
      <trkpt lat="44.84237" lon="-0.24079">
        <ele>16.3</ele>
        <time>2020-09-09T13:48:59Z</time>
      </trkpt>
      <trkpt lat="44.84236" lon="-0.24077">
        <ele>16.4</ele>
        <time>2020-09-09T13:49:00Z</time>
      </trkpt>
      <trkpt lat="44.84235" lon="-0.24076">
        <ele>16.4</ele>
        <time>2020-09-09T13:49:01Z</time>
      </trkpt>
      <trkpt lat="44.84234" lon="-0.24074">
        <ele>16.5</ele>
        <time>2020-09-09T13:49:03Z</time>
      </trkpt>
      <trkpt lat="44.84233" lon="-0.24073">
        <ele>16.5</ele>
        <time>2020-09-09T13:49:04Z</time>
      </trkpt>
      <trkpt lat="44.84233" lon="-0.24071">
        <ele>16.6</ele>
        <time>2020-09-09T13:49:06Z</time>
      </trkpt>
      <trkpt lat="44.84234" lon="-0.24071">
        <ele>16.6</ele>
        <time>2020-09-09T13:49:08Z</time>
      </trkpt>
      <trkpt lat="44.84234" lon="-0.24071">
        <ele>16.6</ele>
        <time>2020-09-09T13:49:09Z</time>
      </trkpt>
      <trkpt lat="44.84234" lon="-0.2407">
        <ele>16.6</ele>
        <time>2020-09-09T13:49:11Z</time>
      </trkpt>
      <trkpt lat="44.84234" lon="-0.24069">
        <ele>16.6</ele>
        <time>2020-09-09T13:49:12Z</time>
      </trkpt>
      <trkpt lat="44.84235" lon="-0.24069">
        <ele>16.6</ele>
        <time>2020-09-09T13:49:14Z</time>
      </trkpt>
      <trkpt lat="44.84235" lon="-0.24068">
        <ele>16.6</ele>
        <time>2020-09-09T13:49:16Z</time>
      </trkpt>
      <trkpt lat="44.84235" lon="-0.24068">
        <ele>16.6</ele>
        <time>2020-09-09T13:49:18Z</time>
      </trkpt>
      <trkpt lat="44.84235" lon="-0.24068">
        <ele>16.6</ele>
        <time>2020-09-09T13:49:20Z</time>
      </trkpt>
      <trkpt lat="44.84235" lon="-0.24067">
        <ele>16.6</ele>
        <time>2020-09-09T13:49:21Z</time>
      </trkpt>
      <trkpt lat="44.84234" lon="-0.24066">
        <ele>16.7</ele>
        <time>2020-09-09T13:49:23Z</time>
      </trkpt>
      <trkpt lat="44.84233" lon="-0.24065">
        <ele>16.7</ele>
        <time>2020-09-09T13:49:24Z</time>
      </trkpt>
      <trkpt lat="44.84232" lon="-0.24063">
        <ele>16.9</ele>
        <time>2020-09-09T13:49:26Z</time>
      </trkpt>
      <trkpt lat="44.84231" lon="-0.24061">
        <ele>16.9</ele>
        <time>2020-09-09T13:49:27Z</time>
      </trkpt>
      <trkpt lat="44.84231" lon="-0.2406">
        <ele>16.9</ele>
        <time>2020-09-09T13:49:28Z</time>
      </trkpt>
      <trkpt lat="44.8423" lon="-0.24058">
        <ele>16.9</ele>
        <time>2020-09-09T13:49:29Z</time>
      </trkpt>
      <trkpt lat="44.84229" lon="-0.24057">
        <ele>17.1</ele>
        <time>2020-09-09T13:49:31Z</time>
      </trkpt>
      <trkpt lat="44.84228" lon="-0.24056">
        <ele>17.1</ele>
        <time>2020-09-09T13:49:32Z</time>
      </trkpt>
      <trkpt lat="44.84227" lon="-0.24055">
        <ele>17.1</ele>
        <time>2020-09-09T13:49:33Z</time>
      </trkpt>
      <trkpt lat="44.84226" lon="-0.24053">
        <ele>17.3</ele>
        <time>2020-09-09T13:49:35Z</time>
      </trkpt>
      <trkpt lat="44.84225" lon="-0.24052">
        <ele>17.3</ele>
        <time>2020-09-09T13:49:36Z</time>
      </trkpt>
      <trkpt lat="44.84224" lon="-0.24052">
        <ele>17.3</ele>
        <time>2020-09-09T13:49:37Z</time>
      </trkpt>
      <trkpt lat="44.84224" lon="-0.24051">
        <ele>17.4</ele>
        <time>2020-09-09T13:49:38Z</time>
      </trkpt>
      <trkpt lat="44.84222" lon="-0.24049">
        <ele>17.5</ele>
        <time>2020-09-09T13:49:40Z</time>
      </trkpt>
      <trkpt lat="44.84221" lon="-0.24048">
        <ele>17.6</ele>
        <time>2020-09-09T13:49:41Z</time>
      </trkpt>
      <trkpt lat="44.8422" lon="-0.24048">
        <ele>17.6</ele>
        <time>2020-09-09T13:49:43Z</time>
      </trkpt>
      <trkpt lat="44.84219" lon="-0.24046">
        <ele>17.6</ele>
        <time>2020-09-09T13:49:44Z</time>
      </trkpt>
      <trkpt lat="44.84218" lon="-0.24044">
        <ele>17.7</ele>
        <time>2020-09-09T13:49:46Z</time>
      </trkpt>
      <trkpt lat="44.84217" lon="-0.24044">
        <ele>17.8</ele>
        <time>2020-09-09T13:49:47Z</time>
      </trkpt>
      <trkpt lat="44.84216" lon="-0.24042">
        <ele>17.8</ele>
        <time>2020-09-09T13:49:48Z</time>
      </trkpt>
      <trkpt lat="44.84215" lon="-0.24041">
        <ele>17.9</ele>
        <time>2020-09-09T13:49:50Z</time>
      </trkpt>
      <trkpt lat="44.84214" lon="-0.24038">
        <ele>18</ele>
        <time>2020-09-09T13:49:51Z</time>
      </trkpt>
      <trkpt lat="44.84214" lon="-0.24037">
        <ele>18</ele>
        <time>2020-09-09T13:49:52Z</time>
      </trkpt>
      <trkpt lat="44.84213" lon="-0.24036">
        <ele>18.1</ele>
        <time>2020-09-09T13:49:53Z</time>
      </trkpt>
      <trkpt lat="44.84213" lon="-0.24036">
        <ele>18.1</ele>
        <time>2020-09-09T13:49:54Z</time>
      </trkpt>
      <trkpt lat="44.84211" lon="-0.24032">
        <ele>18.3</ele>
        <time>2020-09-09T13:49:56Z</time>
      </trkpt>
      <trkpt lat="44.84211" lon="-0.24031">
        <ele>18.3</ele>
        <time>2020-09-09T13:49:57Z</time>
      </trkpt>
      <trkpt lat="44.84211" lon="-0.2403">
        <ele>18.3</ele>
        <time>2020-09-09T13:49:58Z</time>
      </trkpt>
      <trkpt lat="44.8421" lon="-0.24029">
        <ele>18.3</ele>
        <time>2020-09-09T13:49:59Z</time>
      </trkpt>
      <trkpt lat="44.84209" lon="-0.24026">
        <ele>18.4</ele>
        <time>2020-09-09T13:50:01Z</time>
      </trkpt>
      <trkpt lat="44.84208" lon="-0.24024">
        <ele>18.5</ele>
        <time>2020-09-09T13:50:02Z</time>
      </trkpt>
      <trkpt lat="44.84207" lon="-0.24023">
        <ele>18.5</ele>
        <time>2020-09-09T13:50:04Z</time>
      </trkpt>
      <trkpt lat="44.84206" lon="-0.24022">
        <ele>18.5</ele>
        <time>2020-09-09T13:50:05Z</time>
      </trkpt>
      <trkpt lat="44.84205" lon="-0.24021">
        <ele>18.5</ele>
        <time>2020-09-09T13:50:07Z</time>
      </trkpt>
      <trkpt lat="44.84205" lon="-0.24019">
        <ele>18.6</ele>
        <time>2020-09-09T13:50:08Z</time>
      </trkpt>
      <trkpt lat="44.84204" lon="-0.24018">
        <ele>18.6</ele>
        <time>2020-09-09T13:50:10Z</time>
      </trkpt>
      <trkpt lat="44.84203" lon="-0.24017">
        <ele>18.6</ele>
        <time>2020-09-09T13:50:11Z</time>
      </trkpt>
      <trkpt lat="44.84202" lon="-0.24016">
        <ele>18.6</ele>
        <time>2020-09-09T13:50:13Z</time>
      </trkpt>
      <trkpt lat="44.84202" lon="-0.24015">
        <ele>18.7</ele>
        <time>2020-09-09T13:50:14Z</time>
      </trkpt>
      <trkpt lat="44.84201" lon="-0.24013">
        <ele>18.7</ele>
        <time>2020-09-09T13:50:16Z</time>
      </trkpt>
      <trkpt lat="44.842" lon="-0.24012">
        <ele>18.7</ele>
        <time>2020-09-09T13:50:17Z</time>
      </trkpt>
      <trkpt lat="44.84199" lon="-0.24011">
        <ele>18.8</ele>
        <time>2020-09-09T13:50:18Z</time>
      </trkpt>
      <trkpt lat="44.84199" lon="-0.2401">
        <ele>18.8</ele>
        <time>2020-09-09T13:50:20Z</time>
      </trkpt>
      <trkpt lat="44.84198" lon="-0.24009">
        <ele>18.8</ele>
        <time>2020-09-09T13:50:21Z</time>
      </trkpt>
      <trkpt lat="44.84197" lon="-0.24008">
        <ele>18.8</ele>
        <time>2020-09-09T13:50:22Z</time>
      </trkpt>
      <trkpt lat="44.84197" lon="-0.24007">
        <ele>18.8</ele>
        <time>2020-09-09T13:50:23Z</time>
      </trkpt>
      <trkpt lat="44.84196" lon="-0.24006">
        <ele>18.9</ele>
        <time>2020-09-09T13:50:24Z</time>
      </trkpt>
      <trkpt lat="44.84195" lon="-0.24005">
        <ele>18.9</ele>
        <time>2020-09-09T13:50:25Z</time>
      </trkpt>
      <trkpt lat="44.84194" lon="-0.24002">
        <ele>19</ele>
        <time>2020-09-09T13:50:27Z</time>
      </trkpt>
      <trkpt lat="44.84193" lon="-0.24001">
        <ele>19</ele>
        <time>2020-09-09T13:50:28Z</time>
      </trkpt>
      <trkpt lat="44.84192" lon="-0.24">
        <ele>19</ele>
        <time>2020-09-09T13:50:29Z</time>
      </trkpt>
      <trkpt lat="44.84192" lon="-0.23999">
        <ele>19</ele>
        <time>2020-09-09T13:50:30Z</time>
      </trkpt>
      <trkpt lat="44.84191" lon="-0.23998">
        <ele>19.1</ele>
        <time>2020-09-09T13:50:31Z</time>
      </trkpt>
      <trkpt lat="44.8419" lon="-0.23997">
        <ele>19.1</ele>
        <time>2020-09-09T13:50:32Z</time>
      </trkpt>
      <trkpt lat="44.8419" lon="-0.23996">
        <ele>19.1</ele>
        <time>2020-09-09T13:50:33Z</time>
      </trkpt>
      <trkpt lat="44.84189" lon="-0.23995">
        <ele>19.1</ele>
        <time>2020-09-09T13:50:35Z</time>
      </trkpt>
      <trkpt lat="44.84188" lon="-0.23993">
        <ele>19.2</ele>
        <time>2020-09-09T13:50:37Z</time>
      </trkpt>
      <trkpt lat="44.84187" lon="-0.2399">
        <ele>19.2</ele>
        <time>2020-09-09T13:50:38Z</time>
      </trkpt>
      <trkpt lat="44.84186" lon="-0.23989">
        <ele>19.3</ele>
        <time>2020-09-09T13:50:40Z</time>
      </trkpt>
      <trkpt lat="44.84186" lon="-0.23988">
        <ele>19.3</ele>
        <time>2020-09-09T13:50:41Z</time>
      </trkpt>
      <trkpt lat="44.84186" lon="-0.23988">
        <ele>19.3</ele>
        <time>2020-09-09T13:50:43Z</time>
      </trkpt>
      <trkpt lat="44.84187" lon="-0.23989">
        <ele>19.3</ele>
        <time>2020-09-09T13:50:44Z</time>
      </trkpt>
      <trkpt lat="44.84187" lon="-0.2399">
        <ele>19.2</ele>
        <time>2020-09-09T13:50:46Z</time>
      </trkpt>
      <trkpt lat="44.84188" lon="-0.23991">
        <ele>19.2</ele>
        <time>2020-09-09T13:50:47Z</time>
      </trkpt>
      <trkpt lat="44.84188" lon="-0.23991">
        <ele>19.2</ele>
        <time>2020-09-09T13:50:48Z</time>
      </trkpt>
      <trkpt lat="44.84189" lon="-0.23992">
        <ele>19.2</ele>
        <time>2020-09-09T13:50:49Z</time>
      </trkpt>
      <trkpt lat="44.84189" lon="-0.23993">
        <ele>19.2</ele>
        <time>2020-09-09T13:50:51Z</time>
      </trkpt>
      <trkpt lat="44.84188" lon="-0.23992">
        <ele>19.2</ele>
        <time>2020-09-09T13:50:52Z</time>
      </trkpt>
      <trkpt lat="44.84187" lon="-0.2399">
        <ele>19.2</ele>
        <time>2020-09-09T13:50:53Z</time>
      </trkpt>
      <trkpt lat="44.84187" lon="-0.23989">
        <ele>19.3</ele>
        <time>2020-09-09T13:50:54Z</time>
      </trkpt>
      <trkpt lat="44.84185" lon="-0.23986">
        <ele>19.3</ele>
        <time>2020-09-09T13:50:56Z</time>
      </trkpt>
      <trkpt lat="44.84185" lon="-0.23985">
        <ele>19.5</ele>
        <time>2020-09-09T13:50:57Z</time>
      </trkpt>
      <trkpt lat="44.84184" lon="-0.23984">
        <ele>19.4</ele>
        <time>2020-09-09T13:50:58Z</time>
      </trkpt>
      <trkpt lat="44.84183" lon="-0.23983">
        <ele>19.4</ele>
        <time>2020-09-09T13:50:59Z</time>
      </trkpt>
      <trkpt lat="44.84181" lon="-0.2398">
        <ele>19.5</ele>
        <time>2020-09-09T13:51:01Z</time>
      </trkpt>
      <trkpt lat="44.84179" lon="-0.23977">
        <ele>19.5</ele>
        <time>2020-09-09T13:51:02Z</time>
      </trkpt>
      <trkpt lat="44.84178" lon="-0.23976">
        <ele>19.7</ele>
        <time>2020-09-09T13:51:03Z</time>
      </trkpt>
      <trkpt lat="44.84177" lon="-0.23975">
        <ele>19.6</ele>
        <time>2020-09-09T13:51:05Z</time>
      </trkpt>
      <trkpt lat="44.84177" lon="-0.23974">
        <ele>19.6</ele>
        <time>2020-09-09T13:51:06Z</time>
      </trkpt>
      <trkpt lat="44.84176" lon="-0.23973">
        <ele>19.6</ele>
        <time>2020-09-09T13:51:07Z</time>
      </trkpt>
      <trkpt lat="44.84175" lon="-0.23972">
        <ele>19.8</ele>
        <time>2020-09-09T13:51:08Z</time>
      </trkpt>
      <trkpt lat="44.84174" lon="-0.23971">
        <ele>19.8</ele>
        <time>2020-09-09T13:51:09Z</time>
      </trkpt>
      <trkpt lat="44.84173" lon="-0.23971">
        <ele>19.8</ele>
        <time>2020-09-09T13:51:10Z</time>
      </trkpt>
      <trkpt lat="44.84172" lon="-0.2397">
        <ele>19.7</ele>
        <time>2020-09-09T13:51:12Z</time>
      </trkpt>
      <trkpt lat="44.84171" lon="-0.23969">
        <ele>19.7</ele>
        <time>2020-09-09T13:51:13Z</time>
      </trkpt>
      <trkpt lat="44.84171" lon="-0.23968">
        <ele>19.9</ele>
        <time>2020-09-09T13:51:14Z</time>
      </trkpt>
      <trkpt lat="44.8417" lon="-0.23966">
        <ele>19.9</ele>
        <time>2020-09-09T13:51:15Z</time>
      </trkpt>
      <trkpt lat="44.84167" lon="-0.23963">
        <ele>20.1</ele>
        <time>2020-09-09T13:51:17Z</time>
      </trkpt>
      <trkpt lat="44.84167" lon="-0.23963">
        <ele>20.1</ele>
        <time>2020-09-09T13:51:18Z</time>
      </trkpt>
      <trkpt lat="44.84166" lon="-0.23962">
        <ele>20.1</ele>
        <time>2020-09-09T13:51:19Z</time>
      </trkpt>
      <trkpt lat="44.84165" lon="-0.23961">
        <ele>20.1</ele>
        <time>2020-09-09T13:51:20Z</time>
      </trkpt>
      <trkpt lat="44.84164" lon="-0.23958">
        <ele>20.3</ele>
        <time>2020-09-09T13:51:22Z</time>
      </trkpt>
      <trkpt lat="44.84163" lon="-0.23957">
        <ele>20.3</ele>
        <time>2020-09-09T13:51:23Z</time>
      </trkpt>
      <trkpt lat="44.84163" lon="-0.23957">
        <ele>20.3</ele>
        <time>2020-09-09T13:51:24Z</time>
      </trkpt>
      <trkpt lat="44.84162" lon="-0.23955">
        <ele>20.3</ele>
        <time>2020-09-09T13:51:26Z</time>
      </trkpt>
      <trkpt lat="44.8416" lon="-0.23953">
        <ele>20.5</ele>
        <time>2020-09-09T13:51:27Z</time>
      </trkpt>
      <trkpt lat="44.8416" lon="-0.23953">
        <ele>20.5</ele>
        <time>2020-09-09T13:51:29Z</time>
      </trkpt>
      <trkpt lat="44.84159" lon="-0.23952">
        <ele>20.5</ele>
        <time>2020-09-09T13:51:30Z</time>
      </trkpt>
      <trkpt lat="44.84158" lon="-0.23952">
        <ele>20.5</ele>
        <time>2020-09-09T13:51:31Z</time>
      </trkpt>
      <trkpt lat="44.84156" lon="-0.2395">
        <ele>20.7</ele>
        <time>2020-09-09T13:51:32Z</time>
      </trkpt>
      <trkpt lat="44.84154" lon="-0.23949">
        <ele>20.7</ele>
        <time>2020-09-09T13:51:33Z</time>
      </trkpt>
      <trkpt lat="44.84153" lon="-0.23948">
        <ele>20.7</ele>
        <time>2020-09-09T13:51:34Z</time>
      </trkpt>
      <trkpt lat="44.84153" lon="-0.23948">
        <ele>20.7</ele>
        <time>2020-09-09T13:51:35Z</time>
      </trkpt>
      <trkpt lat="44.84149" lon="-0.23949">
        <ele>20.7</ele>
        <time>2020-09-09T13:51:37Z</time>
      </trkpt>
      <trkpt lat="44.84148" lon="-0.2395">
        <ele>20.7</ele>
        <time>2020-09-09T13:51:38Z</time>
      </trkpt>
      <trkpt lat="44.84147" lon="-0.2395">
        <ele>20.7</ele>
        <time>2020-09-09T13:51:39Z</time>
      </trkpt>
      <trkpt lat="44.84146" lon="-0.23951">
        <ele>20.5</ele>
        <time>2020-09-09T13:51:40Z</time>
      </trkpt>
      <trkpt lat="44.84146" lon="-0.23955">
        <ele>20.5</ele>
        <time>2020-09-09T13:51:42Z</time>
      </trkpt>
      <trkpt lat="44.84145" lon="-0.23956">
        <ele>20.2</ele>
        <time>2020-09-09T13:51:43Z</time>
      </trkpt>
      <trkpt lat="44.84145" lon="-0.23958">
        <ele>20.2</ele>
        <time>2020-09-09T13:51:44Z</time>
      </trkpt>
      <trkpt lat="44.84145" lon="-0.23961">
        <ele>20</ele>
        <time>2020-09-09T13:51:46Z</time>
      </trkpt>
      <trkpt lat="44.84146" lon="-0.23963">
        <ele>20</ele>
        <time>2020-09-09T13:51:47Z</time>
      </trkpt>
      <trkpt lat="44.84146" lon="-0.23965">
        <ele>19.8</ele>
        <time>2020-09-09T13:51:48Z</time>
      </trkpt>
      <trkpt lat="44.84145" lon="-0.23966">
        <ele>19.8</ele>
        <time>2020-09-09T13:51:49Z</time>
      </trkpt>
      <trkpt lat="44.84144" lon="-0.23967">
        <ele>19.8</ele>
        <time>2020-09-09T13:51:50Z</time>
      </trkpt>
      <trkpt lat="44.84142" lon="-0.23968">
        <ele>19.9</ele>
        <time>2020-09-09T13:51:52Z</time>
      </trkpt>
      <trkpt lat="44.8414" lon="-0.23968">
        <ele>19.9</ele>
        <time>2020-09-09T13:51:53Z</time>
      </trkpt>
      <trkpt lat="44.84138" lon="-0.23968">
        <ele>19.9</ele>
        <time>2020-09-09T13:51:55Z</time>
      </trkpt>
      <trkpt lat="44.84135" lon="-0.23967">
        <ele>20</ele>
        <time>2020-09-09T13:51:56Z</time>
      </trkpt>
      <trkpt lat="44.84134" lon="-0.23967">
        <ele>20</ele>
        <time>2020-09-09T13:51:57Z</time>
      </trkpt>
      <trkpt lat="44.84132" lon="-0.23965">
        <ele>20</ele>
        <time>2020-09-09T13:51:58Z</time>
      </trkpt>
      <trkpt lat="44.84131" lon="-0.23964">
        <ele>20.2</ele>
        <time>2020-09-09T13:52:00Z</time>
      </trkpt>
      <trkpt lat="44.8413" lon="-0.23963">
        <ele>20.2</ele>
        <time>2020-09-09T13:52:01Z</time>
      </trkpt>
      <trkpt lat="44.84129" lon="-0.23961">
        <ele>20.2</ele>
        <time>2020-09-09T13:52:02Z</time>
      </trkpt>
      <trkpt lat="44.84128" lon="-0.2396">
        <ele>20.2</ele>
        <time>2020-09-09T13:52:03Z</time>
      </trkpt>
      <trkpt lat="44.84127" lon="-0.23958">
        <ele>20.4</ele>
        <time>2020-09-09T13:52:04Z</time>
      </trkpt>
      <trkpt lat="44.84127" lon="-0.23957">
        <ele>20.4</ele>
        <time>2020-09-09T13:52:05Z</time>
      </trkpt>
      <trkpt lat="44.84126" lon="-0.23953">
        <ele>20.6</ele>
        <time>2020-09-09T13:52:07Z</time>
      </trkpt>
      <trkpt lat="44.84126" lon="-0.23952">
        <ele>20.6</ele>
        <time>2020-09-09T13:52:09Z</time>
      </trkpt>
      <trkpt lat="44.84126" lon="-0.23951">
        <ele>20.8</ele>
        <time>2020-09-09T13:52:10Z</time>
      </trkpt>
      <trkpt lat="44.84126" lon="-0.23949">
        <ele>20.8</ele>
        <time>2020-09-09T13:52:11Z</time>
      </trkpt>
      <trkpt lat="44.84126" lon="-0.23947">
        <ele>20.8</ele>
        <time>2020-09-09T13:52:12Z</time>
      </trkpt>
      <trkpt lat="44.84126" lon="-0.23946">
        <ele>21</ele>
        <time>2020-09-09T13:52:13Z</time>
      </trkpt>
      <trkpt lat="44.84126" lon="-0.23944">
        <ele>21</ele>
        <time>2020-09-09T13:52:15Z</time>
      </trkpt>
      <trkpt lat="44.84126" lon="-0.23943">
        <ele>21</ele>
        <time>2020-09-09T13:52:16Z</time>
      </trkpt>
      <trkpt lat="44.84126" lon="-0.23942">
        <ele>21.2</ele>
        <time>2020-09-09T13:52:18Z</time>
      </trkpt>
      <trkpt lat="44.84127" lon="-0.23941">
        <ele>21.2</ele>
        <time>2020-09-09T13:52:19Z</time>
      </trkpt>
      <trkpt lat="44.84126" lon="-0.23939">
        <ele>21.2</ele>
        <time>2020-09-09T13:52:20Z</time>
      </trkpt>
      <trkpt lat="44.84125" lon="-0.23937">
        <ele>21.4</ele>
        <time>2020-09-09T13:52:21Z</time>
      </trkpt>
      <trkpt lat="44.84125" lon="-0.23936">
        <ele>21.4</ele>
        <time>2020-09-09T13:52:23Z</time>
      </trkpt>
      <trkpt lat="44.84125" lon="-0.23935">
        <ele>21.4</ele>
        <time>2020-09-09T13:52:24Z</time>
      </trkpt>
      <trkpt lat="44.84124" lon="-0.23933">
        <ele>21.6</ele>
        <time>2020-09-09T13:52:25Z</time>
      </trkpt>
      <trkpt lat="44.84123" lon="-0.23932">
        <ele>21.6</ele>
        <time>2020-09-09T13:52:26Z</time>
      </trkpt>
      <trkpt lat="44.84122" lon="-0.23928">
        <ele>21.8</ele>
        <time>2020-09-09T13:52:28Z</time>
      </trkpt>
      <trkpt lat="44.84121" lon="-0.23927">
        <ele>21.8</ele>
        <time>2020-09-09T13:52:29Z</time>
      </trkpt>
      <trkpt lat="44.8412" lon="-0.23926">
        <ele>21.8</ele>
        <time>2020-09-09T13:52:30Z</time>
      </trkpt>
      <trkpt lat="44.84119" lon="-0.23924">
        <ele>22</ele>
        <time>2020-09-09T13:52:31Z</time>
      </trkpt>
      <trkpt lat="44.84118" lon="-0.23922">
        <ele>22</ele>
        <time>2020-09-09T13:52:32Z</time>
      </trkpt>
      <trkpt lat="44.84116" lon="-0.2392">
        <ele>22.1</ele>
        <time>2020-09-09T13:52:34Z</time>
      </trkpt>
      <trkpt lat="44.84114" lon="-0.23919">
        <ele>22.1</ele>
        <time>2020-09-09T13:52:36Z</time>
      </trkpt>
      <trkpt lat="44.84112" lon="-0.23917">
        <ele>22.3</ele>
        <time>2020-09-09T13:52:38Z</time>
      </trkpt>
      <trkpt lat="44.84111" lon="-0.23915">
        <ele>22.3</ele>
        <time>2020-09-09T13:52:39Z</time>
      </trkpt>
      <trkpt lat="44.84109" lon="-0.23914">
        <ele>22.3</ele>
        <time>2020-09-09T13:52:40Z</time>
      </trkpt>
      <trkpt lat="44.84109" lon="-0.23913">
        <ele>22.3</ele>
        <time>2020-09-09T13:52:41Z</time>
      </trkpt>
      <trkpt lat="44.84107" lon="-0.2391">
        <ele>22.4</ele>
        <time>2020-09-09T13:52:43Z</time>
      </trkpt>
      <trkpt lat="44.84105" lon="-0.23909">
        <ele>22.4</ele>
        <time>2020-09-09T13:52:45Z</time>
      </trkpt>
      <trkpt lat="44.84104" lon="-0.23908">
        <ele>22.4</ele>
        <time>2020-09-09T13:52:46Z</time>
      </trkpt>
      <trkpt lat="44.84102" lon="-0.23906">
        <ele>22.5</ele>
        <time>2020-09-09T13:52:48Z</time>
      </trkpt>
      <trkpt lat="44.84101" lon="-0.23906">
        <ele>22.5</ele>
        <time>2020-09-09T13:52:49Z</time>
      </trkpt>
      <trkpt lat="44.84101" lon="-0.23905">
        <ele>22.5</ele>
        <time>2020-09-09T13:52:50Z</time>
      </trkpt>
      <trkpt lat="44.841" lon="-0.23904">
        <ele>22.5</ele>
        <time>2020-09-09T13:52:51Z</time>
      </trkpt>
      <trkpt lat="44.84098" lon="-0.23901">
        <ele>22.6</ele>
        <time>2020-09-09T13:52:53Z</time>
      </trkpt>
      <trkpt lat="44.84098" lon="-0.239">
        <ele>22.6</ele>
        <time>2020-09-09T13:52:54Z</time>
      </trkpt>
      <trkpt lat="44.84096" lon="-0.23899">
        <ele>22.7</ele>
        <time>2020-09-09T13:52:56Z</time>
      </trkpt>
      <trkpt lat="44.84095" lon="-0.23897">
        <ele>22.7</ele>
        <time>2020-09-09T13:52:57Z</time>
      </trkpt>
      <trkpt lat="44.84094" lon="-0.23896">
        <ele>22.7</ele>
        <time>2020-09-09T13:52:58Z</time>
      </trkpt>
      <trkpt lat="44.84094" lon="-0.23896">
        <ele>22.7</ele>
        <time>2020-09-09T13:52:59Z</time>
      </trkpt>
      <trkpt lat="44.84092" lon="-0.23893">
        <ele>22.8</ele>
        <time>2020-09-09T13:53:01Z</time>
      </trkpt>
      <trkpt lat="44.84091" lon="-0.23892">
        <ele>22.8</ele>
        <time>2020-09-09T13:53:02Z</time>
      </trkpt>
      <trkpt lat="44.84091" lon="-0.23892">
        <ele>22.8</ele>
        <time>2020-09-09T13:53:03Z</time>
      </trkpt>
      <trkpt lat="44.84091" lon="-0.23891">
        <ele>22.9</ele>
        <time>2020-09-09T13:53:05Z</time>
      </trkpt>
      <trkpt lat="44.84089" lon="-0.23888">
        <ele>22.9</ele>
        <time>2020-09-09T13:53:07Z</time>
      </trkpt>
      <trkpt lat="44.84088" lon="-0.23886">
        <ele>23</ele>
        <time>2020-09-09T13:53:09Z</time>
      </trkpt>
      <trkpt lat="44.84088" lon="-0.23885">
        <ele>23</ele>
        <time>2020-09-09T13:53:10Z</time>
      </trkpt>
      <trkpt lat="44.84086" lon="-0.23883">
        <ele>22.9</ele>
        <time>2020-09-09T13:53:12Z</time>
      </trkpt>
      <trkpt lat="44.84085" lon="-0.23881">
        <ele>23</ele>
        <time>2020-09-09T13:53:13Z</time>
      </trkpt>
      <trkpt lat="44.84084" lon="-0.2388">
        <ele>23</ele>
        <time>2020-09-09T13:53:14Z</time>
      </trkpt>
      <trkpt lat="44.84084" lon="-0.2388">
        <ele>23</ele>
        <time>2020-09-09T13:53:15Z</time>
      </trkpt>
      <trkpt lat="44.84081" lon="-0.23877">
        <ele>23</ele>
        <time>2020-09-09T13:53:17Z</time>
      </trkpt>
      <trkpt lat="44.84081" lon="-0.23876">
        <ele>23</ele>
        <time>2020-09-09T13:53:18Z</time>
      </trkpt>
      <trkpt lat="44.8408" lon="-0.23875">
        <ele>23</ele>
        <time>2020-09-09T13:53:19Z</time>
      </trkpt>
      <trkpt lat="44.84079" lon="-0.23874">
        <ele>23</ele>
        <time>2020-09-09T13:53:20Z</time>
      </trkpt>
      <trkpt lat="44.84077" lon="-0.23872">
        <ele>23</ele>
        <time>2020-09-09T13:53:22Z</time>
      </trkpt>
      <trkpt lat="44.84076" lon="-0.23871">
        <ele>23</ele>
        <time>2020-09-09T13:53:23Z</time>
      </trkpt>
      <trkpt lat="44.84075" lon="-0.2387">
        <ele>23</ele>
        <time>2020-09-09T13:53:24Z</time>
      </trkpt>
      <trkpt lat="44.84074" lon="-0.23868">
        <ele>23.1</ele>
        <time>2020-09-09T13:53:26Z</time>
      </trkpt>
      <trkpt lat="44.84072" lon="-0.23867">
        <ele>23.1</ele>
        <time>2020-09-09T13:53:27Z</time>
      </trkpt>
      <trkpt lat="44.84072" lon="-0.23866">
        <ele>23.1</ele>
        <time>2020-09-09T13:53:29Z</time>
      </trkpt>
      <trkpt lat="44.84071" lon="-0.23865">
        <ele>23.1</ele>
        <time>2020-09-09T13:53:30Z</time>
      </trkpt>
      <trkpt lat="44.84069" lon="-0.23863">
        <ele>23.1</ele>
        <time>2020-09-09T13:53:32Z</time>
      </trkpt>
      <trkpt lat="44.84069" lon="-0.23862">
        <ele>23.1</ele>
        <time>2020-09-09T13:53:33Z</time>
      </trkpt>
      <trkpt lat="44.84067" lon="-0.2386">
        <ele>23.1</ele>
        <time>2020-09-09T13:53:34Z</time>
      </trkpt>
      <trkpt lat="44.84065" lon="-0.23858">
        <ele>23.1</ele>
        <time>2020-09-09T13:53:36Z</time>
      </trkpt>
      <trkpt lat="44.84064" lon="-0.23857">
        <ele>23.1</ele>
        <time>2020-09-09T13:53:37Z</time>
      </trkpt>
      <trkpt lat="44.84063" lon="-0.23856">
        <ele>23.1</ele>
        <time>2020-09-09T13:53:38Z</time>
      </trkpt>
      <trkpt lat="44.84061" lon="-0.23853">
        <ele>23.1</ele>
        <time>2020-09-09T13:53:39Z</time>
      </trkpt>
      <trkpt lat="44.8406" lon="-0.23852">
        <ele>23.2</ele>
        <time>2020-09-09T13:53:40Z</time>
      </trkpt>
      <trkpt lat="44.8406" lon="-0.23851">
        <ele>23.2</ele>
        <time>2020-09-09T13:53:41Z</time>
      </trkpt>
      <trkpt lat="44.84059" lon="-0.2385">
        <ele>23.1</ele>
        <time>2020-09-09T13:53:42Z</time>
      </trkpt>
      <trkpt lat="44.84057" lon="-0.23848">
        <ele>23.2</ele>
        <time>2020-09-09T13:53:44Z</time>
      </trkpt>
      <trkpt lat="44.84056" lon="-0.23847">
        <ele>23.2</ele>
        <time>2020-09-09T13:53:45Z</time>
      </trkpt>
      <trkpt lat="44.84055" lon="-0.23845">
        <ele>23.2</ele>
        <time>2020-09-09T13:53:46Z</time>
      </trkpt>
      <trkpt lat="44.84054" lon="-0.23844">
        <ele>23.2</ele>
        <time>2020-09-09T13:53:47Z</time>
      </trkpt>
      <trkpt lat="44.84053" lon="-0.23843">
        <ele>23.2</ele>
        <time>2020-09-09T13:53:48Z</time>
      </trkpt>
      <trkpt lat="44.84051" lon="-0.23841">
        <ele>23.2</ele>
        <time>2020-09-09T13:53:49Z</time>
      </trkpt>
      <trkpt lat="44.84051" lon="-0.2384">
        <ele>23.2</ele>
        <time>2020-09-09T13:53:50Z</time>
      </trkpt>
      <trkpt lat="44.8405" lon="-0.23839">
        <ele>23.2</ele>
        <time>2020-09-09T13:53:52Z</time>
      </trkpt>
      <trkpt lat="44.84048" lon="-0.23838">
        <ele>23.2</ele>
        <time>2020-09-09T13:53:53Z</time>
      </trkpt>
      <trkpt lat="44.84047" lon="-0.23837">
        <ele>23.2</ele>
        <time>2020-09-09T13:53:54Z</time>
      </trkpt>
      <trkpt lat="44.84046" lon="-0.23836">
        <ele>23.2</ele>
        <time>2020-09-09T13:53:56Z</time>
      </trkpt>
      <trkpt lat="44.84044" lon="-0.23835">
        <ele>23.2</ele>
        <time>2020-09-09T13:53:57Z</time>
      </trkpt>
      <trkpt lat="44.84043" lon="-0.23834">
        <ele>23.2</ele>
        <time>2020-09-09T13:53:58Z</time>
      </trkpt>
      <trkpt lat="44.84042" lon="-0.23832">
        <ele>23.2</ele>
        <time>2020-09-09T13:53:59Z</time>
      </trkpt>
      <trkpt lat="44.84041" lon="-0.23832">
        <ele>23.2</ele>
        <time>2020-09-09T13:54:01Z</time>
      </trkpt>
      <trkpt lat="44.84039" lon="-0.2383">
        <ele>23.3</ele>
        <time>2020-09-09T13:54:02Z</time>
      </trkpt>
      <trkpt lat="44.84038" lon="-0.2383">
        <ele>23.3</ele>
        <time>2020-09-09T13:54:03Z</time>
      </trkpt>
      <trkpt lat="44.84037" lon="-0.23828">
        <ele>23.3</ele>
        <time>2020-09-09T13:54:05Z</time>
      </trkpt>
      <trkpt lat="44.84036" lon="-0.23827">
        <ele>23.3</ele>
        <time>2020-09-09T13:54:06Z</time>
      </trkpt>
      <trkpt lat="44.84034" lon="-0.23825">
        <ele>23.3</ele>
        <time>2020-09-09T13:54:07Z</time>
      </trkpt>
      <trkpt lat="44.84033" lon="-0.23824">
        <ele>23.3</ele>
        <time>2020-09-09T13:54:08Z</time>
      </trkpt>
      <trkpt lat="44.84032" lon="-0.23823">
        <ele>23.3</ele>
        <time>2020-09-09T13:54:09Z</time>
      </trkpt>
      <trkpt lat="44.84031" lon="-0.23822">
        <ele>23.4</ele>
        <time>2020-09-09T13:54:10Z</time>
      </trkpt>
      <trkpt lat="44.8403" lon="-0.23821">
        <ele>23.4</ele>
        <time>2020-09-09T13:54:11Z</time>
      </trkpt>
      <trkpt lat="44.8403" lon="-0.23821">
        <ele>23.4</ele>
        <time>2020-09-09T13:54:12Z</time>
      </trkpt>
      <trkpt lat="44.84027" lon="-0.23819">
        <ele>23.3</ele>
        <time>2020-09-09T13:54:14Z</time>
      </trkpt>
      <trkpt lat="44.84026" lon="-0.23818">
        <ele>23.4</ele>
        <time>2020-09-09T13:54:15Z</time>
      </trkpt>
      <trkpt lat="44.84026" lon="-0.23818">
        <ele>23.4</ele>
        <time>2020-09-09T13:54:16Z</time>
      </trkpt>
      <trkpt lat="44.84025" lon="-0.23817">
        <ele>23.4</ele>
        <time>2020-09-09T13:54:17Z</time>
      </trkpt>
      <trkpt lat="44.84024" lon="-0.23816">
        <ele>23.4</ele>
        <time>2020-09-09T13:54:18Z</time>
      </trkpt>
      <trkpt lat="44.84023" lon="-0.23815">
        <ele>23.4</ele>
        <time>2020-09-09T13:54:20Z</time>
      </trkpt>
      <trkpt lat="44.84022" lon="-0.23814">
        <ele>23.4</ele>
        <time>2020-09-09T13:54:21Z</time>
      </trkpt>
      <trkpt lat="44.8402" lon="-0.23812">
        <ele>23.4</ele>
        <time>2020-09-09T13:54:22Z</time>
      </trkpt>
      <trkpt lat="44.84019" lon="-0.23811">
        <ele>23.4</ele>
        <time>2020-09-09T13:54:23Z</time>
      </trkpt>
      <trkpt lat="44.84018" lon="-0.23811">
        <ele>23.4</ele>
        <time>2020-09-09T13:54:24Z</time>
      </trkpt>
      <trkpt lat="44.84018" lon="-0.2381">
        <ele>23.4</ele>
        <time>2020-09-09T13:54:25Z</time>
      </trkpt>
      <trkpt lat="44.84016" lon="-0.23809">
        <ele>23.4</ele>
        <time>2020-09-09T13:54:27Z</time>
      </trkpt>
      <trkpt lat="44.84015" lon="-0.23808">
        <ele>23.4</ele>
        <time>2020-09-09T13:54:28Z</time>
      </trkpt>
      <trkpt lat="44.84013" lon="-0.23807">
        <ele>23.4</ele>
        <time>2020-09-09T13:54:29Z</time>
      </trkpt>
      <trkpt lat="44.84013" lon="-0.23806">
        <ele>23.4</ele>
        <time>2020-09-09T13:54:30Z</time>
      </trkpt>
      <trkpt lat="44.84011" lon="-0.23805">
        <ele>23.5</ele>
        <time>2020-09-09T13:54:32Z</time>
      </trkpt>
      <trkpt lat="44.84009" lon="-0.23804">
        <ele>23.5</ele>
        <time>2020-09-09T13:54:33Z</time>
      </trkpt>
      <trkpt lat="44.84008" lon="-0.23803">
        <ele>23.5</ele>
        <time>2020-09-09T13:54:34Z</time>
      </trkpt>
      <trkpt lat="44.84007" lon="-0.23803">
        <ele>23.5</ele>
        <time>2020-09-09T13:54:36Z</time>
      </trkpt>
      <trkpt lat="44.84007" lon="-0.23802">
        <ele>23.5</ele>
        <time>2020-09-09T13:54:37Z</time>
      </trkpt>
      <trkpt lat="44.84006" lon="-0.23802">
        <ele>23.5</ele>
        <time>2020-09-09T13:54:38Z</time>
      </trkpt>
      <trkpt lat="44.84004" lon="-0.23801">
        <ele>23.5</ele>
        <time>2020-09-09T13:54:39Z</time>
      </trkpt>
      <trkpt lat="44.84003" lon="-0.23801">
        <ele>23.5</ele>
        <time>2020-09-09T13:54:41Z</time>
      </trkpt>
      <trkpt lat="44.84003" lon="-0.23801">
        <ele>23.5</ele>
        <time>2020-09-09T13:54:42Z</time>
      </trkpt>
      <trkpt lat="44.84002" lon="-0.238">
        <ele>23.5</ele>
        <time>2020-09-09T13:54:43Z</time>
      </trkpt>
      <trkpt lat="44.83999" lon="-0.23798">
        <ele>23.5</ele>
        <time>2020-09-09T13:54:45Z</time>
      </trkpt>
      <trkpt lat="44.83998" lon="-0.23797">
        <ele>23.5</ele>
        <time>2020-09-09T13:54:46Z</time>
      </trkpt>
      <trkpt lat="44.83997" lon="-0.23796">
        <ele>23.5</ele>
        <time>2020-09-09T13:54:47Z</time>
      </trkpt>
      <trkpt lat="44.83996" lon="-0.23795">
        <ele>23.5</ele>
        <time>2020-09-09T13:54:48Z</time>
      </trkpt>
      <trkpt lat="44.83994" lon="-0.23794">
        <ele>23.5</ele>
        <time>2020-09-09T13:54:50Z</time>
      </trkpt>
      <trkpt lat="44.83993" lon="-0.23793">
        <ele>23.5</ele>
        <time>2020-09-09T13:54:51Z</time>
      </trkpt>
      <trkpt lat="44.83991" lon="-0.23792">
        <ele>23.5</ele>
        <time>2020-09-09T13:54:53Z</time>
      </trkpt>
      <trkpt lat="44.83989" lon="-0.23791">
        <ele>23.5</ele>
        <time>2020-09-09T13:54:55Z</time>
      </trkpt>
      <trkpt lat="44.83988" lon="-0.2379">
        <ele>23.5</ele>
        <time>2020-09-09T13:54:56Z</time>
      </trkpt>
      <trkpt lat="44.83987" lon="-0.23789">
        <ele>23.5</ele>
        <time>2020-09-09T13:54:57Z</time>
      </trkpt>
      <trkpt lat="44.83986" lon="-0.23788">
        <ele>23.6</ele>
        <time>2020-09-09T13:54:58Z</time>
      </trkpt>
      <trkpt lat="44.83985" lon="-0.23787">
        <ele>23.6</ele>
        <time>2020-09-09T13:54:59Z</time>
      </trkpt>
      <trkpt lat="44.83984" lon="-0.23786">
        <ele>23.6</ele>
        <time>2020-09-09T13:55:00Z</time>
      </trkpt>
      <trkpt lat="44.83982" lon="-0.23784">
        <ele>23.6</ele>
        <time>2020-09-09T13:55:02Z</time>
      </trkpt>
      <trkpt lat="44.83982" lon="-0.23783">
        <ele>23.6</ele>
        <time>2020-09-09T13:55:03Z</time>
      </trkpt>
      <trkpt lat="44.83981" lon="-0.23782">
        <ele>23.6</ele>
        <time>2020-09-09T13:55:04Z</time>
      </trkpt>
      <trkpt lat="44.83979" lon="-0.23781">
        <ele>23.6</ele>
        <time>2020-09-09T13:55:05Z</time>
      </trkpt>
      <trkpt lat="44.83979" lon="-0.2378">
        <ele>23.6</ele>
        <time>2020-09-09T13:55:06Z</time>
      </trkpt>
      <trkpt lat="44.83978" lon="-0.23779">
        <ele>23.6</ele>
        <time>2020-09-09T13:55:07Z</time>
      </trkpt>
      <trkpt lat="44.83978" lon="-0.23778">
        <ele>23.6</ele>
        <time>2020-09-09T13:55:09Z</time>
      </trkpt>
      <trkpt lat="44.83978" lon="-0.23778">
        <ele>23.6</ele>
        <time>2020-09-09T13:55:10Z</time>
      </trkpt>
      <trkpt lat="44.83978" lon="-0.23778">
        <ele>23.6</ele>
        <time>2020-09-09T13:55:11Z</time>
      </trkpt>
      <trkpt lat="44.8398" lon="-0.23778">
        <ele>23.6</ele>
        <time>2020-09-09T13:55:13Z</time>
      </trkpt>
      <trkpt lat="44.8398" lon="-0.23779">
        <ele>23.6</ele>
        <time>2020-09-09T13:55:15Z</time>
      </trkpt>
      <trkpt lat="44.8398" lon="-0.23779">
        <ele>23.6</ele>
        <time>2020-09-09T13:55:16Z</time>
      </trkpt>
      <trkpt lat="44.83981" lon="-0.23779">
        <ele>23.6</ele>
        <time>2020-09-09T13:55:17Z</time>
      </trkpt>
      <trkpt lat="44.83981" lon="-0.23779">
        <ele>23.6</ele>
        <time>2020-09-09T13:55:19Z</time>
      </trkpt>
      <trkpt lat="44.83981" lon="-0.23779">
        <ele>23.6</ele>
        <time>2020-09-09T13:55:20Z</time>
      </trkpt>
      <trkpt lat="44.83981" lon="-0.2378">
        <ele>23.6</ele>
        <time>2020-09-09T13:55:22Z</time>
      </trkpt>
      <trkpt lat="44.83981" lon="-0.2378">
        <ele>23.6</ele>
        <time>2020-09-09T13:55:23Z</time>
      </trkpt>
      <trkpt lat="44.83981" lon="-0.2378">
        <ele>23.6</ele>
        <time>2020-09-09T13:55:25Z</time>
      </trkpt>
      <trkpt lat="44.83981" lon="-0.23779">
        <ele>23.6</ele>
        <time>2020-09-09T13:55:26Z</time>
      </trkpt>
      <trkpt lat="44.8398" lon="-0.23778">
        <ele>23.6</ele>
        <time>2020-09-09T13:55:28Z</time>
      </trkpt>
      <trkpt lat="44.83979" lon="-0.23778">
        <ele>23.6</ele>
        <time>2020-09-09T13:55:29Z</time>
      </trkpt>
      <trkpt lat="44.83977" lon="-0.23777">
        <ele>23.6</ele>
        <time>2020-09-09T13:55:30Z</time>
      </trkpt>
      <trkpt lat="44.83976" lon="-0.23776">
        <ele>23.6</ele>
        <time>2020-09-09T13:55:31Z</time>
      </trkpt>
      <trkpt lat="44.83975" lon="-0.23775">
        <ele>23.6</ele>
        <time>2020-09-09T13:55:32Z</time>
      </trkpt>
      <trkpt lat="44.83974" lon="-0.23774">
        <ele>23.6</ele>
        <time>2020-09-09T13:55:33Z</time>
      </trkpt>
      <trkpt lat="44.83972" lon="-0.23771">
        <ele>23.7</ele>
        <time>2020-09-09T13:55:35Z</time>
      </trkpt>
      <trkpt lat="44.83972" lon="-0.2377">
        <ele>23.6</ele>
        <time>2020-09-09T13:55:37Z</time>
      </trkpt>
      <trkpt lat="44.83972" lon="-0.2377">
        <ele>23.6</ele>
        <time>2020-09-09T13:55:38Z</time>
      </trkpt>
      <trkpt lat="44.83971" lon="-0.23769">
        <ele>23.7</ele>
        <time>2020-09-09T13:55:39Z</time>
      </trkpt>
      <trkpt lat="44.83969" lon="-0.23767">
        <ele>23.7</ele>
        <time>2020-09-09T13:55:41Z</time>
      </trkpt>
      <trkpt lat="44.83967" lon="-0.23765">
        <ele>23.7</ele>
        <time>2020-09-09T13:55:42Z</time>
      </trkpt>
      <trkpt lat="44.83966" lon="-0.23764">
        <ele>23.7</ele>
        <time>2020-09-09T13:55:43Z</time>
      </trkpt>
      <trkpt lat="44.83965" lon="-0.23763">
        <ele>23.8</ele>
        <time>2020-09-09T13:55:44Z</time>
      </trkpt>
      <trkpt lat="44.83963" lon="-0.23762">
        <ele>23.7</ele>
        <time>2020-09-09T13:55:46Z</time>
      </trkpt>
      <trkpt lat="44.83963" lon="-0.23761">
        <ele>23.7</ele>
        <time>2020-09-09T13:55:47Z</time>
      </trkpt>
      <trkpt lat="44.83962" lon="-0.23761">
        <ele>23.8</ele>
        <time>2020-09-09T13:55:48Z</time>
      </trkpt>
      <trkpt lat="44.83961" lon="-0.2376">
        <ele>23.8</ele>
        <time>2020-09-09T13:55:49Z</time>
      </trkpt>
      <trkpt lat="44.83958" lon="-0.23758">
        <ele>23.8</ele>
        <time>2020-09-09T13:55:51Z</time>
      </trkpt>
      <trkpt lat="44.83958" lon="-0.23757">
        <ele>23.8</ele>
        <time>2020-09-09T13:55:52Z</time>
      </trkpt>
      <trkpt lat="44.83956" lon="-0.23755">
        <ele>23.9</ele>
        <time>2020-09-09T13:55:54Z</time>
      </trkpt>
      <trkpt lat="44.83955" lon="-0.23754">
        <ele>23.9</ele>
        <time>2020-09-09T13:55:55Z</time>
      </trkpt>
      <trkpt lat="44.83954" lon="-0.23753">
        <ele>23.9</ele>
        <time>2020-09-09T13:55:56Z</time>
      </trkpt>
      <trkpt lat="44.83952" lon="-0.23751">
        <ele>23.9</ele>
        <time>2020-09-09T13:55:58Z</time>
      </trkpt>
      <trkpt lat="44.83951" lon="-0.2375">
        <ele>23.9</ele>
        <time>2020-09-09T13:55:59Z</time>
      </trkpt>
      <trkpt lat="44.83951" lon="-0.23749">
        <ele>23.9</ele>
        <time>2020-09-09T13:56:01Z</time>
      </trkpt>
      <trkpt lat="44.8395" lon="-0.23748">
        <ele>24</ele>
        <time>2020-09-09T13:56:02Z</time>
      </trkpt>
      <trkpt lat="44.83949" lon="-0.23748">
        <ele>24</ele>
        <time>2020-09-09T13:56:03Z</time>
      </trkpt>
      <trkpt lat="44.83948" lon="-0.23747">
        <ele>24</ele>
        <time>2020-09-09T13:56:05Z</time>
      </trkpt>
      <trkpt lat="44.83946" lon="-0.23746">
        <ele>24</ele>
        <time>2020-09-09T13:56:07Z</time>
      </trkpt>
      <trkpt lat="44.83945" lon="-0.23746">
        <ele>24</ele>
        <time>2020-09-09T13:56:08Z</time>
      </trkpt>
      <trkpt lat="44.83944" lon="-0.23745">
        <ele>24</ele>
        <time>2020-09-09T13:56:09Z</time>
      </trkpt>
      <trkpt lat="44.83943" lon="-0.23745">
        <ele>24.1</ele>
        <time>2020-09-09T13:56:11Z</time>
      </trkpt>
      <trkpt lat="44.83942" lon="-0.23744">
        <ele>24.1</ele>
        <time>2020-09-09T13:56:12Z</time>
      </trkpt>
      <trkpt lat="44.8394" lon="-0.23744">
        <ele>24.1</ele>
        <time>2020-09-09T13:56:14Z</time>
      </trkpt>
      <trkpt lat="44.83939" lon="-0.23744">
        <ele>24.1</ele>
        <time>2020-09-09T13:56:15Z</time>
      </trkpt>
      <trkpt lat="44.83937" lon="-0.23744">
        <ele>24.2</ele>
        <time>2020-09-09T13:56:16Z</time>
      </trkpt>
      <trkpt lat="44.83937" lon="-0.23744">
        <ele>24.2</ele>
        <time>2020-09-09T13:56:17Z</time>
      </trkpt>
      <trkpt lat="44.83935" lon="-0.23745">
        <ele>24.2</ele>
        <time>2020-09-09T13:56:19Z</time>
      </trkpt>
      <trkpt lat="44.83933" lon="-0.23745">
        <ele>24.2</ele>
        <time>2020-09-09T13:56:20Z</time>
      </trkpt>
      <trkpt lat="44.83931" lon="-0.23746">
        <ele>24.3</ele>
        <time>2020-09-09T13:56:22Z</time>
      </trkpt>
      <trkpt lat="44.83928" lon="-0.23749">
        <ele>24.4</ele>
        <time>2020-09-09T13:56:24Z</time>
      </trkpt>
      <trkpt lat="44.83928" lon="-0.23749">
        <ele>24.4</ele>
        <time>2020-09-09T13:56:25Z</time>
      </trkpt>
      <trkpt lat="44.83927" lon="-0.23751">
        <ele>24.4</ele>
        <time>2020-09-09T13:56:26Z</time>
      </trkpt>
      <trkpt lat="44.83926" lon="-0.23753">
        <ele>24.4</ele>
        <time>2020-09-09T13:56:28Z</time>
      </trkpt>
      <trkpt lat="44.83924" lon="-0.23755">
        <ele>24.5</ele>
        <time>2020-09-09T13:56:29Z</time>
      </trkpt>
      <trkpt lat="44.83923" lon="-0.23756">
        <ele>24.5</ele>
        <time>2020-09-09T13:56:31Z</time>
      </trkpt>
      <trkpt lat="44.83922" lon="-0.23757">
        <ele>24.6</ele>
        <time>2020-09-09T13:56:32Z</time>
      </trkpt>
      <trkpt lat="44.83922" lon="-0.23758">
        <ele>24.7</ele>
        <time>2020-09-09T13:56:33Z</time>
      </trkpt>
      <trkpt lat="44.83921" lon="-0.23759">
        <ele>24.7</ele>
        <time>2020-09-09T13:56:34Z</time>
      </trkpt>
      <trkpt lat="44.8392" lon="-0.2376">
        <ele>24.7</ele>
        <time>2020-09-09T13:56:35Z</time>
      </trkpt>
      <trkpt lat="44.83919" lon="-0.23761">
        <ele>24.8</ele>
        <time>2020-09-09T13:56:36Z</time>
      </trkpt>
      <trkpt lat="44.83918" lon="-0.23762">
        <ele>24.9</ele>
        <time>2020-09-09T13:56:37Z</time>
      </trkpt>
      <trkpt lat="44.83917" lon="-0.23764">
        <ele>24.9</ele>
        <time>2020-09-09T13:56:39Z</time>
      </trkpt>
      <trkpt lat="44.83916" lon="-0.23765">
        <ele>25</ele>
        <time>2020-09-09T13:56:40Z</time>
      </trkpt>
      <trkpt lat="44.83916" lon="-0.23766">
        <ele>25</ele>
        <time>2020-09-09T13:56:41Z</time>
      </trkpt>
      <trkpt lat="44.83915" lon="-0.23767">
        <ele>25</ele>
        <time>2020-09-09T13:56:42Z</time>
      </trkpt>
      <trkpt lat="44.83912" lon="-0.23769">
        <ele>25.2</ele>
        <time>2020-09-09T13:56:44Z</time>
      </trkpt>
      <trkpt lat="44.83911" lon="-0.2377">
        <ele>25.2</ele>
        <time>2020-09-09T13:56:45Z</time>
      </trkpt>
      <trkpt lat="44.8391" lon="-0.23771">
        <ele>25.3</ele>
        <time>2020-09-09T13:56:46Z</time>
      </trkpt>
      <trkpt lat="44.83909" lon="-0.23771">
        <ele>25.4</ele>
        <time>2020-09-09T13:56:47Z</time>
      </trkpt>
      <trkpt lat="44.83908" lon="-0.23772">
        <ele>25.4</ele>
        <time>2020-09-09T13:56:48Z</time>
      </trkpt>
      <trkpt lat="44.83906" lon="-0.23774">
        <ele>25.5</ele>
        <time>2020-09-09T13:56:49Z</time>
      </trkpt>
      <trkpt lat="44.83905" lon="-0.23775">
        <ele>25.5</ele>
        <time>2020-09-09T13:56:51Z</time>
      </trkpt>
      <trkpt lat="44.83904" lon="-0.23775">
        <ele>25.7</ele>
        <time>2020-09-09T13:56:52Z</time>
      </trkpt>
      <trkpt lat="44.83903" lon="-0.23776">
        <ele>25.7</ele>
        <time>2020-09-09T13:56:53Z</time>
      </trkpt>
      <trkpt lat="44.83901" lon="-0.23778">
        <ele>25.8</ele>
        <time>2020-09-09T13:56:54Z</time>
      </trkpt>
      <trkpt lat="44.839" lon="-0.23779">
        <ele>25.8</ele>
        <time>2020-09-09T13:56:55Z</time>
      </trkpt>
      <trkpt lat="44.83898" lon="-0.2378">
        <ele>26.1</ele>
        <time>2020-09-09T13:56:56Z</time>
      </trkpt>
      <trkpt lat="44.83897" lon="-0.23781">
        <ele>26.1</ele>
        <time>2020-09-09T13:56:58Z</time>
      </trkpt>
      <trkpt lat="44.83896" lon="-0.23782">
        <ele>26.1</ele>
        <time>2020-09-09T13:56:59Z</time>
      </trkpt>
      <trkpt lat="44.83895" lon="-0.23782">
        <ele>26.2</ele>
        <time>2020-09-09T13:57:00Z</time>
      </trkpt>
      <trkpt lat="44.83894" lon="-0.23783">
        <ele>26.2</ele>
        <time>2020-09-09T13:57:02Z</time>
      </trkpt>
      <trkpt lat="44.83893" lon="-0.23784">
        <ele>26.3</ele>
        <time>2020-09-09T13:57:03Z</time>
      </trkpt>
      <trkpt lat="44.8389" lon="-0.23787">
        <ele>26.5</ele>
        <time>2020-09-09T13:57:05Z</time>
      </trkpt>
      <trkpt lat="44.83888" lon="-0.23788">
        <ele>26.7</ele>
        <time>2020-09-09T13:57:07Z</time>
      </trkpt>
      <trkpt lat="44.83886" lon="-0.2379">
        <ele>26.7</ele>
        <time>2020-09-09T13:57:09Z</time>
      </trkpt>
      <trkpt lat="44.83885" lon="-0.23792">
        <ele>26.8</ele>
        <time>2020-09-09T13:57:11Z</time>
      </trkpt>
      <trkpt lat="44.83884" lon="-0.23793">
        <ele>27</ele>
        <time>2020-09-09T13:57:12Z</time>
      </trkpt>
      <trkpt lat="44.83882" lon="-0.23795">
        <ele>27.1</ele>
        <time>2020-09-09T13:57:13Z</time>
      </trkpt>
      <trkpt lat="44.83881" lon="-0.23796">
        <ele>27.1</ele>
        <time>2020-09-09T13:57:15Z</time>
      </trkpt>
      <trkpt lat="44.8388" lon="-0.23796">
        <ele>27.2</ele>
        <time>2020-09-09T13:57:16Z</time>
      </trkpt>
      <trkpt lat="44.83879" lon="-0.23797">
        <ele>27.4</ele>
        <time>2020-09-09T13:57:17Z</time>
      </trkpt>
      <trkpt lat="44.83878" lon="-0.23798">
        <ele>27.4</ele>
        <time>2020-09-09T13:57:18Z</time>
      </trkpt>
      <trkpt lat="44.83876" lon="-0.238">
        <ele>27.5</ele>
        <time>2020-09-09T13:57:19Z</time>
      </trkpt>
      <trkpt lat="44.83875" lon="-0.238">
        <ele>27.5</ele>
        <time>2020-09-09T13:57:20Z</time>
      </trkpt>
      <trkpt lat="44.83873" lon="-0.23802">
        <ele>27.7</ele>
        <time>2020-09-09T13:57:22Z</time>
      </trkpt>
      <trkpt lat="44.83872" lon="-0.23802">
        <ele>27.7</ele>
        <time>2020-09-09T13:57:23Z</time>
      </trkpt>
      <trkpt lat="44.83871" lon="-0.23803">
        <ele>27.7</ele>
        <time>2020-09-09T13:57:24Z</time>
      </trkpt>
      <trkpt lat="44.83871" lon="-0.23803">
        <ele>27.8</ele>
        <time>2020-09-09T13:57:25Z</time>
      </trkpt>
      <trkpt lat="44.8387" lon="-0.23804">
        <ele>27.8</ele>
        <time>2020-09-09T13:57:26Z</time>
      </trkpt>
      <trkpt lat="44.83869" lon="-0.23804">
        <ele>27.8</ele>
        <time>2020-09-09T13:57:28Z</time>
      </trkpt>
      <trkpt lat="44.83868" lon="-0.23804">
        <ele>27.9</ele>
        <time>2020-09-09T13:57:29Z</time>
      </trkpt>
      <trkpt lat="44.83865" lon="-0.23804">
        <ele>27.9</ele>
        <time>2020-09-09T13:57:30Z</time>
      </trkpt>
      <trkpt lat="44.83864" lon="-0.23804">
        <ele>28.1</ele>
        <time>2020-09-09T13:57:31Z</time>
      </trkpt>
      <trkpt lat="44.83863" lon="-0.23801">
        <ele>28.1</ele>
        <time>2020-09-09T13:57:33Z</time>
      </trkpt>
      <trkpt lat="44.83861" lon="-0.23797">
        <ele>28.1</ele>
        <time>2020-09-09T13:57:35Z</time>
      </trkpt>
      <trkpt lat="44.83861" lon="-0.23795">
        <ele>27.9</ele>
        <time>2020-09-09T13:57:36Z</time>
      </trkpt>
      <trkpt lat="44.8386" lon="-0.23792">
        <ele>27.9</ele>
        <time>2020-09-09T13:57:37Z</time>
      </trkpt>
      <trkpt lat="44.83859" lon="-0.23789">
        <ele>27.8</ele>
        <time>2020-09-09T13:57:38Z</time>
      </trkpt>
      <trkpt lat="44.83859" lon="-0.23788">
        <ele>27.7</ele>
        <time>2020-09-09T13:57:40Z</time>
      </trkpt>
      <trkpt lat="44.83858" lon="-0.23786">
        <ele>27.8</ele>
        <time>2020-09-09T13:57:41Z</time>
      </trkpt>
      <trkpt lat="44.83857" lon="-0.23785">
        <ele>27.8</ele>
        <time>2020-09-09T13:57:42Z</time>
      </trkpt>
      <trkpt lat="44.83857" lon="-0.23783">
        <ele>27.7</ele>
        <time>2020-09-09T13:57:43Z</time>
      </trkpt>
      <trkpt lat="44.83856" lon="-0.23782">
        <ele>27.7</ele>
        <time>2020-09-09T13:57:44Z</time>
      </trkpt>
      <trkpt lat="44.83855" lon="-0.2378">
        <ele>27.8</ele>
        <time>2020-09-09T13:57:45Z</time>
      </trkpt>
      <trkpt lat="44.83854" lon="-0.23779">
        <ele>27.7</ele>
        <time>2020-09-09T13:57:46Z</time>
      </trkpt>
      <trkpt lat="44.83854" lon="-0.23778">
        <ele>27.7</ele>
        <time>2020-09-09T13:57:47Z</time>
      </trkpt>
      <trkpt lat="44.83853" lon="-0.23776">
        <ele>27.7</ele>
        <time>2020-09-09T13:57:48Z</time>
      </trkpt>
      <trkpt lat="44.8385" lon="-0.23772">
        <ele>27.8</ele>
        <time>2020-09-09T13:57:50Z</time>
      </trkpt>
      <trkpt lat="44.83849" lon="-0.23772">
        <ele>27.8</ele>
        <time>2020-09-09T13:57:51Z</time>
      </trkpt>
      <trkpt lat="44.83848" lon="-0.23771">
        <ele>27.7</ele>
        <time>2020-09-09T13:57:53Z</time>
      </trkpt>
      <trkpt lat="44.83847" lon="-0.2377">
        <ele>27.7</ele>
        <time>2020-09-09T13:57:54Z</time>
      </trkpt>
      <trkpt lat="44.83845" lon="-0.23768">
        <ele>27.8</ele>
        <time>2020-09-09T13:57:55Z</time>
      </trkpt>
      <trkpt lat="44.83845" lon="-0.23768">
        <ele>27.8</ele>
        <time>2020-09-09T13:57:56Z</time>
      </trkpt>
      <trkpt lat="44.83844" lon="-0.23767">
        <ele>27.8</ele>
        <time>2020-09-09T13:57:57Z</time>
      </trkpt>
      <trkpt lat="44.83842" lon="-0.23766">
        <ele>27.8</ele>
        <time>2020-09-09T13:57:59Z</time>
      </trkpt>
      <trkpt lat="44.83841" lon="-0.23766">
        <ele>27.8</ele>
        <time>2020-09-09T13:58:00Z</time>
      </trkpt>
      <trkpt lat="44.8384" lon="-0.23765">
        <ele>27.9</ele>
        <time>2020-09-09T13:58:01Z</time>
      </trkpt>
      <trkpt lat="44.83839" lon="-0.23765">
        <ele>27.9</ele>
        <time>2020-09-09T13:58:02Z</time>
      </trkpt>
      <trkpt lat="44.83838" lon="-0.23764">
        <ele>27.9</ele>
        <time>2020-09-09T13:58:03Z</time>
      </trkpt>
      <trkpt lat="44.83835" lon="-0.23763">
        <ele>28.1</ele>
        <time>2020-09-09T13:58:05Z</time>
      </trkpt>
      <trkpt lat="44.83835" lon="-0.23764">
        <ele>28.1</ele>
        <time>2020-09-09T13:58:06Z</time>
      </trkpt>
      <trkpt lat="44.83833" lon="-0.23763">
        <ele>28.2</ele>
        <time>2020-09-09T13:58:08Z</time>
      </trkpt>
      <trkpt lat="44.83832" lon="-0.23763">
        <ele>28.2</ele>
        <time>2020-09-09T13:58:09Z</time>
      </trkpt>
      <trkpt lat="44.83829" lon="-0.23762">
        <ele>28.3</ele>
        <time>2020-09-09T13:58:10Z</time>
      </trkpt>
      <trkpt lat="44.83828" lon="-0.23762">
        <ele>28.4</ele>
        <time>2020-09-09T13:58:12Z</time>
      </trkpt>
      <trkpt lat="44.83827" lon="-0.23761">
        <ele>28.4</ele>
        <time>2020-09-09T13:58:13Z</time>
      </trkpt>
      <trkpt lat="44.83825" lon="-0.23761">
        <ele>28.4</ele>
        <time>2020-09-09T13:58:14Z</time>
      </trkpt>
      <trkpt lat="44.83824" lon="-0.2376">
        <ele>28.5</ele>
        <time>2020-09-09T13:58:16Z</time>
      </trkpt>
      <trkpt lat="44.83823" lon="-0.2376">
        <ele>28.5</ele>
        <time>2020-09-09T13:58:17Z</time>
      </trkpt>
      <trkpt lat="44.83822" lon="-0.2376">
        <ele>28.6</ele>
        <time>2020-09-09T13:58:18Z</time>
      </trkpt>
      <trkpt lat="44.83821" lon="-0.23759">
        <ele>28.6</ele>
        <time>2020-09-09T13:58:19Z</time>
      </trkpt>
      <trkpt lat="44.83818" lon="-0.23759">
        <ele>28.7</ele>
        <time>2020-09-09T13:58:20Z</time>
      </trkpt>
      <trkpt lat="44.83817" lon="-0.23758">
        <ele>28.7</ele>
        <time>2020-09-09T13:58:22Z</time>
      </trkpt>
      <trkpt lat="44.83816" lon="-0.23758">
        <ele>28.7</ele>
        <time>2020-09-09T13:58:23Z</time>
      </trkpt>
      <trkpt lat="44.83815" lon="-0.23759">
        <ele>28.8</ele>
        <time>2020-09-09T13:58:24Z</time>
      </trkpt>
      <trkpt lat="44.83812" lon="-0.2376">
        <ele>28.9</ele>
        <time>2020-09-09T13:58:25Z</time>
      </trkpt>
      <trkpt lat="44.83811" lon="-0.23761">
        <ele>28.9</ele>
        <time>2020-09-09T13:58:27Z</time>
      </trkpt>
      <trkpt lat="44.8381" lon="-0.23763">
        <ele>29</ele>
        <time>2020-09-09T13:58:28Z</time>
      </trkpt>
      <trkpt lat="44.83809" lon="-0.23764">
        <ele>29.1</ele>
        <time>2020-09-09T13:58:29Z</time>
      </trkpt>
      <trkpt lat="44.83809" lon="-0.23765">
        <ele>29.1</ele>
        <time>2020-09-09T13:58:30Z</time>
      </trkpt>
      <trkpt lat="44.83808" lon="-0.23766">
        <ele>29.1</ele>
        <time>2020-09-09T13:58:31Z</time>
      </trkpt>
      <trkpt lat="44.83807" lon="-0.23768">
        <ele>29.2</ele>
        <time>2020-09-09T13:58:32Z</time>
      </trkpt>
      <trkpt lat="44.83806" lon="-0.23769">
        <ele>29.3</ele>
        <time>2020-09-09T13:58:34Z</time>
      </trkpt>
      <trkpt lat="44.83805" lon="-0.23771">
        <ele>29.4</ele>
        <time>2020-09-09T13:58:35Z</time>
      </trkpt>
      <trkpt lat="44.83804" lon="-0.23772">
        <ele>29.4</ele>
        <time>2020-09-09T13:58:36Z</time>
      </trkpt>
      <trkpt lat="44.83804" lon="-0.23774">
        <ele>29.5</ele>
        <time>2020-09-09T13:58:37Z</time>
      </trkpt>
      <trkpt lat="44.83803" lon="-0.23775">
        <ele>29.5</ele>
        <time>2020-09-09T13:58:38Z</time>
      </trkpt>
      <trkpt lat="44.83803" lon="-0.23777">
        <ele>29.5</ele>
        <time>2020-09-09T13:58:39Z</time>
      </trkpt>
      <trkpt lat="44.83801" lon="-0.2378">
        <ele>29.6</ele>
        <time>2020-09-09T13:58:40Z</time>
      </trkpt>
      <trkpt lat="44.838" lon="-0.23781">
        <ele>29.7</ele>
        <time>2020-09-09T13:58:42Z</time>
      </trkpt>
      <trkpt lat="44.838" lon="-0.23783">
        <ele>29.7</ele>
        <time>2020-09-09T13:58:43Z</time>
      </trkpt>
      <trkpt lat="44.83799" lon="-0.23784">
        <ele>29.8</ele>
        <time>2020-09-09T13:58:44Z</time>
      </trkpt>
      <trkpt lat="44.83798" lon="-0.23785">
        <ele>29.8</ele>
        <time>2020-09-09T13:58:45Z</time>
      </trkpt>
      <trkpt lat="44.83798" lon="-0.23787">
        <ele>29.9</ele>
        <time>2020-09-09T13:58:46Z</time>
      </trkpt>
      <trkpt lat="44.83797" lon="-0.23788">
        <ele>29.9</ele>
        <time>2020-09-09T13:58:48Z</time>
      </trkpt>
      <trkpt lat="44.83797" lon="-0.23789">
        <ele>29.9</ele>
        <time>2020-09-09T13:58:49Z</time>
      </trkpt>
      <trkpt lat="44.83797" lon="-0.2379">
        <ele>29.9</ele>
        <time>2020-09-09T13:58:50Z</time>
      </trkpt>
      <trkpt lat="44.83797" lon="-0.2379">
        <ele>29.9</ele>
        <time>2020-09-09T13:58:51Z</time>
      </trkpt>
      <trkpt lat="44.83796" lon="-0.23791">
        <ele>29.9</ele>
        <time>2020-09-09T13:58:53Z</time>
      </trkpt>
      <trkpt lat="44.83795" lon="-0.23791">
        <ele>29.9</ele>
        <time>2020-09-09T13:58:54Z</time>
      </trkpt>
      <trkpt lat="44.83795" lon="-0.23791">
        <ele>29.9</ele>
        <time>2020-09-09T13:58:56Z</time>
      </trkpt>
      <trkpt lat="44.83794" lon="-0.23791">
        <ele>30</ele>
        <time>2020-09-09T13:58:57Z</time>
      </trkpt>
      <trkpt lat="44.83793" lon="-0.23791">
        <ele>30</ele>
        <time>2020-09-09T13:58:58Z</time>
      </trkpt>
      <trkpt lat="44.83792" lon="-0.23791">
        <ele>30</ele>
        <time>2020-09-09T13:58:59Z</time>
      </trkpt>
      <trkpt lat="44.83791" lon="-0.23791">
        <ele>30</ele>
        <time>2020-09-09T13:59:00Z</time>
      </trkpt>
      <trkpt lat="44.8379" lon="-0.23792">
        <ele>30</ele>
        <time>2020-09-09T13:59:02Z</time>
      </trkpt>
      <trkpt lat="44.83789" lon="-0.23793">
        <ele>30.1</ele>
        <time>2020-09-09T13:59:03Z</time>
      </trkpt>
      <trkpt lat="44.83788" lon="-0.23794">
        <ele>30.2</ele>
        <time>2020-09-09T13:59:04Z</time>
      </trkpt>
      <trkpt lat="44.83786" lon="-0.23796">
        <ele>30.2</ele>
        <time>2020-09-09T13:59:05Z</time>
      </trkpt>
      <trkpt lat="44.83785" lon="-0.23797">
        <ele>30.3</ele>
        <time>2020-09-09T13:59:07Z</time>
      </trkpt>
      <trkpt lat="44.83785" lon="-0.23799">
        <ele>30.3</ele>
        <time>2020-09-09T13:59:08Z</time>
      </trkpt>
      <trkpt lat="44.83784" lon="-0.23801">
        <ele>30.3</ele>
        <time>2020-09-09T13:59:09Z</time>
      </trkpt>
      <trkpt lat="44.83783" lon="-0.23802">
        <ele>30.3</ele>
        <time>2020-09-09T13:59:10Z</time>
      </trkpt>
      <trkpt lat="44.83782" lon="-0.23805">
        <ele>30.4</ele>
        <time>2020-09-09T13:59:11Z</time>
      </trkpt>
      <trkpt lat="44.83782" lon="-0.23806">
        <ele>30.4</ele>
        <time>2020-09-09T13:59:13Z</time>
      </trkpt>
      <trkpt lat="44.83781" lon="-0.23807">
        <ele>30.4</ele>
        <time>2020-09-09T13:59:14Z</time>
      </trkpt>
      <trkpt lat="44.8378" lon="-0.2381">
        <ele>30.5</ele>
        <time>2020-09-09T13:59:15Z</time>
      </trkpt>
      <trkpt lat="44.83779" lon="-0.23811">
        <ele>30.5</ele>
        <time>2020-09-09T13:59:16Z</time>
      </trkpt>
      <trkpt lat="44.83779" lon="-0.23814">
        <ele>30.6</ele>
        <time>2020-09-09T13:59:17Z</time>
      </trkpt>
      <trkpt lat="44.83778" lon="-0.23815">
        <ele>30.6</ele>
        <time>2020-09-09T13:59:19Z</time>
      </trkpt>
      <trkpt lat="44.83778" lon="-0.23817">
        <ele>30.6</ele>
        <time>2020-09-09T13:59:20Z</time>
      </trkpt>
      <trkpt lat="44.83777" lon="-0.23818">
        <ele>30.6</ele>
        <time>2020-09-09T13:59:21Z</time>
      </trkpt>
      <trkpt lat="44.83777" lon="-0.23819">
        <ele>30.7</ele>
        <time>2020-09-09T13:59:22Z</time>
      </trkpt>
      <trkpt lat="44.83776" lon="-0.23821">
        <ele>30.7</ele>
        <time>2020-09-09T13:59:24Z</time>
      </trkpt>
      <trkpt lat="44.83775" lon="-0.23823">
        <ele>30.8</ele>
        <time>2020-09-09T13:59:25Z</time>
      </trkpt>
      <trkpt lat="44.83774" lon="-0.23824">
        <ele>30.8</ele>
        <time>2020-09-09T13:59:26Z</time>
      </trkpt>
      <trkpt lat="44.83773" lon="-0.23827">
        <ele>30.8</ele>
        <time>2020-09-09T13:59:27Z</time>
      </trkpt>
      <trkpt lat="44.83772" lon="-0.23828">
        <ele>30.8</ele>
        <time>2020-09-09T13:59:28Z</time>
      </trkpt>
      <trkpt lat="44.83772" lon="-0.23829">
        <ele>30.8</ele>
        <time>2020-09-09T13:59:29Z</time>
      </trkpt>
      <trkpt lat="44.8377" lon="-0.23831">
        <ele>30.9</ele>
        <time>2020-09-09T13:59:31Z</time>
      </trkpt>
      <trkpt lat="44.8377" lon="-0.23832">
        <ele>30.9</ele>
        <time>2020-09-09T13:59:32Z</time>
      </trkpt>
      <trkpt lat="44.83769" lon="-0.23833">
        <ele>30.9</ele>
        <time>2020-09-09T13:59:34Z</time>
      </trkpt>
      <trkpt lat="44.83768" lon="-0.23834">
        <ele>30.9</ele>
        <time>2020-09-09T13:59:35Z</time>
      </trkpt>
      <trkpt lat="44.83767" lon="-0.23835">
        <ele>31</ele>
        <time>2020-09-09T13:59:36Z</time>
      </trkpt>
      <trkpt lat="44.83766" lon="-0.23836">
        <ele>31</ele>
        <time>2020-09-09T13:59:37Z</time>
      </trkpt>
      <trkpt lat="44.83766" lon="-0.23837">
        <ele>31</ele>
        <time>2020-09-09T13:59:38Z</time>
      </trkpt>
      <trkpt lat="44.83764" lon="-0.23839">
        <ele>31</ele>
        <time>2020-09-09T13:59:40Z</time>
      </trkpt>
      <trkpt lat="44.83763" lon="-0.2384">
        <ele>31.1</ele>
        <time>2020-09-09T13:59:41Z</time>
      </trkpt>
      <trkpt lat="44.83762" lon="-0.23842">
        <ele>31.1</ele>
        <time>2020-09-09T13:59:42Z</time>
      </trkpt>
      <trkpt lat="44.83761" lon="-0.23843">
        <ele>31.1</ele>
        <time>2020-09-09T13:59:43Z</time>
      </trkpt>
      <trkpt lat="44.83759" lon="-0.23845">
        <ele>31.2</ele>
        <time>2020-09-09T13:59:45Z</time>
      </trkpt>
      <trkpt lat="44.83758" lon="-0.23846">
        <ele>31.3</ele>
        <time>2020-09-09T13:59:46Z</time>
      </trkpt>
      <trkpt lat="44.83757" lon="-0.23847">
        <ele>31.3</ele>
        <time>2020-09-09T13:59:48Z</time>
      </trkpt>
      <trkpt lat="44.83757" lon="-0.23848">
        <ele>31.3</ele>
        <time>2020-09-09T13:59:49Z</time>
      </trkpt>
      <trkpt lat="44.83755" lon="-0.2385">
        <ele>31.4</ele>
        <time>2020-09-09T13:59:50Z</time>
      </trkpt>
      <trkpt lat="44.83754" lon="-0.23851">
        <ele>31.4</ele>
        <time>2020-09-09T13:59:51Z</time>
      </trkpt>
      <trkpt lat="44.83753" lon="-0.23852">
        <ele>31.4</ele>
        <time>2020-09-09T13:59:52Z</time>
      </trkpt>
      <trkpt lat="44.83752" lon="-0.23852">
        <ele>31.5</ele>
        <time>2020-09-09T13:59:54Z</time>
      </trkpt>
      <trkpt lat="44.8375" lon="-0.23854">
        <ele>31.5</ele>
        <time>2020-09-09T13:59:55Z</time>
      </trkpt>
      <trkpt lat="44.83749" lon="-0.23855">
        <ele>31.5</ele>
        <time>2020-09-09T13:59:56Z</time>
      </trkpt>
      <trkpt lat="44.83748" lon="-0.23856">
        <ele>31.7</ele>
        <time>2020-09-09T13:59:57Z</time>
      </trkpt>
      <trkpt lat="44.83748" lon="-0.23857">
        <ele>31.7</ele>
        <time>2020-09-09T13:59:58Z</time>
      </trkpt>
      <trkpt lat="44.83746" lon="-0.2386">
        <ele>31.7</ele>
        <time>2020-09-09T14:00:00Z</time>
      </trkpt>
      <trkpt lat="44.83746" lon="-0.23861">
        <ele>31.9</ele>
        <time>2020-09-09T14:00:01Z</time>
      </trkpt>
      <trkpt lat="44.83745" lon="-0.23863">
        <ele>31.9</ele>
        <time>2020-09-09T14:00:02Z</time>
      </trkpt>
      <trkpt lat="44.83744" lon="-0.23864">
        <ele>31.9</ele>
        <time>2020-09-09T14:00:03Z</time>
      </trkpt>
      <trkpt lat="44.83742" lon="-0.23866">
        <ele>32.1</ele>
        <time>2020-09-09T14:00:04Z</time>
      </trkpt>
      <trkpt lat="44.83741" lon="-0.23868">
        <ele>32.1</ele>
        <time>2020-09-09T14:00:05Z</time>
      </trkpt>
      <trkpt lat="44.83741" lon="-0.23869">
        <ele>32.1</ele>
        <time>2020-09-09T14:00:07Z</time>
      </trkpt>
      <trkpt lat="44.8374" lon="-0.2387">
        <ele>32.3</ele>
        <time>2020-09-09T14:00:08Z</time>
      </trkpt>
      <trkpt lat="44.83739" lon="-0.23871">
        <ele>32.3</ele>
        <time>2020-09-09T14:00:09Z</time>
      </trkpt>
      <trkpt lat="44.83737" lon="-0.23873">
        <ele>32.5</ele>
        <time>2020-09-09T14:00:10Z</time>
      </trkpt>
      <trkpt lat="44.83736" lon="-0.23874">
        <ele>32.5</ele>
        <time>2020-09-09T14:00:11Z</time>
      </trkpt>
      <trkpt lat="44.83736" lon="-0.23875">
        <ele>32.5</ele>
        <time>2020-09-09T14:00:12Z</time>
      </trkpt>
      <trkpt lat="44.83735" lon="-0.23876">
        <ele>32.5</ele>
        <time>2020-09-09T14:00:13Z</time>
      </trkpt>
      <trkpt lat="44.83733" lon="-0.23878">
        <ele>32.7</ele>
        <time>2020-09-09T14:00:15Z</time>
      </trkpt>
      <trkpt lat="44.83732" lon="-0.23879">
        <ele>32.7</ele>
        <time>2020-09-09T14:00:16Z</time>
      </trkpt>
      <trkpt lat="44.83731" lon="-0.2388">
        <ele>32.7</ele>
        <time>2020-09-09T14:00:17Z</time>
      </trkpt>
      <trkpt lat="44.8373" lon="-0.23881">
        <ele>32.9</ele>
        <time>2020-09-09T14:00:18Z</time>
      </trkpt>
      <trkpt lat="44.83729" lon="-0.23882">
        <ele>32.9</ele>
        <time>2020-09-09T14:00:19Z</time>
      </trkpt>
      <trkpt lat="44.83727" lon="-0.23885">
        <ele>33.2</ele>
        <time>2020-09-09T14:00:21Z</time>
      </trkpt>
      <trkpt lat="44.83726" lon="-0.23885">
        <ele>33.2</ele>
        <time>2020-09-09T14:00:22Z</time>
      </trkpt>
      <trkpt lat="44.83725" lon="-0.23886">
        <ele>33.2</ele>
        <time>2020-09-09T14:00:23Z</time>
      </trkpt>
      <trkpt lat="44.83723" lon="-0.23888">
        <ele>33.6</ele>
        <time>2020-09-09T14:00:25Z</time>
      </trkpt>
      <trkpt lat="44.83722" lon="-0.23889">
        <ele>33.6</ele>
        <time>2020-09-09T14:00:26Z</time>
      </trkpt>
      <trkpt lat="44.83721" lon="-0.2389">
        <ele>33.8</ele>
        <time>2020-09-09T14:00:28Z</time>
      </trkpt>
      <trkpt lat="44.8372" lon="-0.23891">
        <ele>33.9</ele>
        <time>2020-09-09T14:00:29Z</time>
      </trkpt>
      <trkpt lat="44.83718" lon="-0.23894">
        <ele>34.2</ele>
        <time>2020-09-09T14:00:30Z</time>
      </trkpt>
      <trkpt lat="44.83717" lon="-0.23895">
        <ele>34.2</ele>
        <time>2020-09-09T14:00:32Z</time>
      </trkpt>
      <trkpt lat="44.83716" lon="-0.23897">
        <ele>34.3</ele>
        <time>2020-09-09T14:00:33Z</time>
      </trkpt>
      <trkpt lat="44.83715" lon="-0.23899">
        <ele>34.6</ele>
        <time>2020-09-09T14:00:35Z</time>
      </trkpt>
      <trkpt lat="44.83715" lon="-0.239">
        <ele>34.7</ele>
        <time>2020-09-09T14:00:36Z</time>
      </trkpt>
      <trkpt lat="44.83714" lon="-0.23902">
        <ele>34.7</ele>
        <time>2020-09-09T14:00:38Z</time>
      </trkpt>
      <trkpt lat="44.83713" lon="-0.23903">
        <ele>34.7</ele>
        <time>2020-09-09T14:00:39Z</time>
      </trkpt>
      <trkpt lat="44.83711" lon="-0.23905">
        <ele>35.1</ele>
        <time>2020-09-09T14:00:41Z</time>
      </trkpt>
      <trkpt lat="44.83711" lon="-0.23906">
        <ele>35.1</ele>
        <time>2020-09-09T14:00:42Z</time>
      </trkpt>
      <trkpt lat="44.83709" lon="-0.23909">
        <ele>35.6</ele>
        <time>2020-09-09T14:00:44Z</time>
      </trkpt>
      <trkpt lat="44.83708" lon="-0.2391">
        <ele>35.6</ele>
        <time>2020-09-09T14:00:45Z</time>
      </trkpt>
      <trkpt lat="44.83707" lon="-0.23912">
        <ele>35.6</ele>
        <time>2020-09-09T14:00:47Z</time>
      </trkpt>
      <trkpt lat="44.83707" lon="-0.23913">
        <ele>35.7</ele>
        <time>2020-09-09T14:00:48Z</time>
      </trkpt>
      <trkpt lat="44.83706" lon="-0.23914">
        <ele>36.1</ele>
        <time>2020-09-09T14:00:49Z</time>
      </trkpt>
      <trkpt lat="44.83706" lon="-0.23915">
        <ele>36.1</ele>
        <time>2020-09-09T14:00:50Z</time>
      </trkpt>
      <trkpt lat="44.83706" lon="-0.23916">
        <ele>36.1</ele>
        <time>2020-09-09T14:00:51Z</time>
      </trkpt>
      <trkpt lat="44.83705" lon="-0.23918">
        <ele>36.3</ele>
        <time>2020-09-09T14:00:53Z</time>
      </trkpt>
      <trkpt lat="44.83704" lon="-0.23919">
        <ele>36.3</ele>
        <time>2020-09-09T14:00:54Z</time>
      </trkpt>
      <trkpt lat="44.83703" lon="-0.23921">
        <ele>36.6</ele>
        <time>2020-09-09T14:00:56Z</time>
      </trkpt>
      <trkpt lat="44.83702" lon="-0.23922">
        <ele>36.8</ele>
        <time>2020-09-09T14:00:57Z</time>
      </trkpt>
      <trkpt lat="44.83701" lon="-0.23922">
        <ele>36.8</ele>
        <time>2020-09-09T14:00:58Z</time>
      </trkpt>
      <trkpt lat="44.837" lon="-0.23923">
        <ele>37.2</ele>
        <time>2020-09-09T14:00:59Z</time>
      </trkpt>
      <trkpt lat="44.83698" lon="-0.23926">
        <ele>37.4</ele>
        <time>2020-09-09T14:01:01Z</time>
      </trkpt>
      <trkpt lat="44.83697" lon="-0.23927">
        <ele>37.4</ele>
        <time>2020-09-09T14:01:02Z</time>
      </trkpt>
      <trkpt lat="44.83697" lon="-0.23928">
        <ele>37.8</ele>
        <time>2020-09-09T14:01:03Z</time>
      </trkpt>
      <trkpt lat="44.83696" lon="-0.23929">
        <ele>37.8</ele>
        <time>2020-09-09T14:01:04Z</time>
      </trkpt>
      <trkpt lat="44.83694" lon="-0.23931">
        <ele>38</ele>
        <time>2020-09-09T14:01:05Z</time>
      </trkpt>
      <trkpt lat="44.83694" lon="-0.23931">
        <ele>38.4</ele>
        <time>2020-09-09T14:01:07Z</time>
      </trkpt>
      <trkpt lat="44.83693" lon="-0.23932">
        <ele>38.4</ele>
        <time>2020-09-09T14:01:08Z</time>
      </trkpt>
      <trkpt lat="44.83692" lon="-0.23933">
        <ele>38.4</ele>
        <time>2020-09-09T14:01:09Z</time>
      </trkpt>
      <trkpt lat="44.8369" lon="-0.23936">
        <ele>39</ele>
        <time>2020-09-09T14:01:11Z</time>
      </trkpt>
      <trkpt lat="44.83689" lon="-0.23937">
        <ele>39</ele>
        <time>2020-09-09T14:01:12Z</time>
      </trkpt>
      <trkpt lat="44.83689" lon="-0.23938">
        <ele>39</ele>
        <time>2020-09-09T14:01:13Z</time>
      </trkpt>
      <trkpt lat="44.83688" lon="-0.23939">
        <ele>39.7</ele>
        <time>2020-09-09T14:01:14Z</time>
      </trkpt>
      <trkpt lat="44.83686" lon="-0.23942">
        <ele>39.7</ele>
        <time>2020-09-09T14:01:16Z</time>
      </trkpt>
      <trkpt lat="44.83686" lon="-0.23942">
        <ele>39.7</ele>
        <time>2020-09-09T14:01:17Z</time>
      </trkpt>
      <trkpt lat="44.83685" lon="-0.23944">
        <ele>40.4</ele>
        <time>2020-09-09T14:01:19Z</time>
      </trkpt>
      <trkpt lat="44.83684" lon="-0.23946">
        <ele>40.4</ele>
        <time>2020-09-09T14:01:20Z</time>
      </trkpt>
      <trkpt lat="44.83683" lon="-0.23948">
        <ele>40.7</ele>
        <time>2020-09-09T14:01:21Z</time>
      </trkpt>
      <trkpt lat="44.83682" lon="-0.23949">
        <ele>41.1</ele>
        <time>2020-09-09T14:01:23Z</time>
      </trkpt>
      <trkpt lat="44.83682" lon="-0.2395">
        <ele>41.1</ele>
        <time>2020-09-09T14:01:24Z</time>
      </trkpt>
      <trkpt lat="44.83682" lon="-0.23951">
        <ele>41.4</ele>
        <time>2020-09-09T14:01:26Z</time>
      </trkpt>
      <trkpt lat="44.83681" lon="-0.23953">
        <ele>41.4</ele>
        <time>2020-09-09T14:01:27Z</time>
      </trkpt>
      <trkpt lat="44.83681" lon="-0.23953">
        <ele>41.4</ele>
        <time>2020-09-09T14:01:28Z</time>
      </trkpt>
      <trkpt lat="44.83681" lon="-0.23954">
        <ele>41.4</ele>
        <time>2020-09-09T14:01:30Z</time>
      </trkpt>
      <trkpt lat="44.8368" lon="-0.23955">
        <ele>41.7</ele>
        <time>2020-09-09T14:01:32Z</time>
      </trkpt>
      <trkpt lat="44.83679" lon="-0.23956">
        <ele>42.1</ele>
        <time>2020-09-09T14:01:33Z</time>
      </trkpt>
      <trkpt lat="44.83678" lon="-0.23957">
        <ele>42.1</ele>
        <time>2020-09-09T14:01:35Z</time>
      </trkpt>
      <trkpt lat="44.83677" lon="-0.23957">
        <ele>42.1</ele>
        <time>2020-09-09T14:01:36Z</time>
      </trkpt>
      <trkpt lat="44.83676" lon="-0.23959">
        <ele>42.1</ele>
        <time>2020-09-09T14:01:37Z</time>
      </trkpt>
      <trkpt lat="44.83676" lon="-0.2396">
        <ele>42.8</ele>
        <time>2020-09-09T14:01:38Z</time>
      </trkpt>
      <trkpt lat="44.83675" lon="-0.2396">
        <ele>42.8</ele>
        <time>2020-09-09T14:01:40Z</time>
      </trkpt>
      <trkpt lat="44.83674" lon="-0.23961">
        <ele>42.8</ele>
        <time>2020-09-09T14:01:41Z</time>
      </trkpt>
      <trkpt lat="44.83673" lon="-0.23962">
        <ele>43.3</ele>
        <time>2020-09-09T14:01:43Z</time>
      </trkpt>
      <trkpt lat="44.83672" lon="-0.23963">
        <ele>43.3</ele>
        <time>2020-09-09T14:01:44Z</time>
      </trkpt>
      <trkpt lat="44.83671" lon="-0.23964">
        <ele>43.3</ele>
        <time>2020-09-09T14:01:45Z</time>
      </trkpt>
      <trkpt lat="44.8367" lon="-0.23966">
        <ele>44</ele>
        <time>2020-09-09T14:01:47Z</time>
      </trkpt>
      <trkpt lat="44.83669" lon="-0.23966">
        <ele>44</ele>
        <time>2020-09-09T14:01:48Z</time>
      </trkpt>
      <trkpt lat="44.83668" lon="-0.23967">
        <ele>44</ele>
        <time>2020-09-09T14:01:50Z</time>
      </trkpt>
      <trkpt lat="44.83668" lon="-0.23968">
        <ele>44</ele>
        <time>2020-09-09T14:01:51Z</time>
      </trkpt>
      <trkpt lat="44.83667" lon="-0.23969">
        <ele>44.3</ele>
        <time>2020-09-09T14:01:52Z</time>
      </trkpt>
      <trkpt lat="44.83666" lon="-0.23971">
        <ele>44.8</ele>
        <time>2020-09-09T14:01:54Z</time>
      </trkpt>
      <trkpt lat="44.83665" lon="-0.2397">
        <ele>44.8</ele>
        <time>2020-09-09T14:01:55Z</time>
      </trkpt>
      <trkpt lat="44.83664" lon="-0.2397">
        <ele>44.8</ele>
        <time>2020-09-09T14:01:57Z</time>
      </trkpt>
      <trkpt lat="44.83663" lon="-0.23969">
        <ele>45.3</ele>
        <time>2020-09-09T14:01:59Z</time>
      </trkpt>
      <trkpt lat="44.83662" lon="-0.23968">
        <ele>45</ele>
        <time>2020-09-09T14:02:00Z</time>
      </trkpt>
      <trkpt lat="44.83661" lon="-0.23967">
        <ele>45</ele>
        <time>2020-09-09T14:02:02Z</time>
      </trkpt>
      <trkpt lat="44.83661" lon="-0.23966">
        <ele>45.4</ele>
        <time>2020-09-09T14:02:03Z</time>
      </trkpt>
      <trkpt lat="44.83658" lon="-0.23963">
        <ele>45.1</ele>
        <time>2020-09-09T14:02:05Z</time>
      </trkpt>
      <trkpt lat="44.83658" lon="-0.23962">
        <ele>45.5</ele>
        <time>2020-09-09T14:02:06Z</time>
      </trkpt>
      <trkpt lat="44.83657" lon="-0.2396">
        <ele>45.5</ele>
        <time>2020-09-09T14:02:08Z</time>
      </trkpt>
      <trkpt lat="44.83656" lon="-0.23959">
        <ele>45.2</ele>
        <time>2020-09-09T14:02:09Z</time>
      </trkpt>
      <trkpt lat="44.83655" lon="-0.23956">
        <ele>45.2</ele>
        <time>2020-09-09T14:02:11Z</time>
      </trkpt>
      <trkpt lat="44.83654" lon="-0.23954">
        <ele>45.2</ele>
        <time>2020-09-09T14:02:13Z</time>
      </trkpt>
      <trkpt lat="44.83654" lon="-0.23952">
        <ele>45.2</ele>
        <time>2020-09-09T14:02:14Z</time>
      </trkpt>
      <trkpt lat="44.83654" lon="-0.23949">
        <ele>44.9</ele>
        <time>2020-09-09T14:02:15Z</time>
      </trkpt>
      <trkpt lat="44.83653" lon="-0.23947">
        <ele>44.9</ele>
        <time>2020-09-09T14:02:17Z</time>
      </trkpt>
      <trkpt lat="44.83653" lon="-0.23945">
        <ele>44.5</ele>
        <time>2020-09-09T14:02:18Z</time>
      </trkpt>
      <trkpt lat="44.83652" lon="-0.23943">
        <ele>44.5</ele>
        <time>2020-09-09T14:02:19Z</time>
      </trkpt>
      <trkpt lat="44.83652" lon="-0.2394">
        <ele>44.2</ele>
        <time>2020-09-09T14:02:20Z</time>
      </trkpt>
      <trkpt lat="44.83652" lon="-0.23938">
        <ele>44.3</ele>
        <time>2020-09-09T14:02:21Z</time>
      </trkpt>
      <trkpt lat="44.83653" lon="-0.23935">
        <ele>44.5</ele>
        <time>2020-09-09T14:02:22Z</time>
      </trkpt>
      <trkpt lat="44.83653" lon="-0.23934">
        <ele>44.6</ele>
        <time>2020-09-09T14:02:24Z</time>
      </trkpt>
      <trkpt lat="44.83653" lon="-0.23932">
        <ele>44.7</ele>
        <time>2020-09-09T14:02:25Z</time>
      </trkpt>
      <trkpt lat="44.83653" lon="-0.2393">
        <ele>44.8</ele>
        <time>2020-09-09T14:02:26Z</time>
      </trkpt>
      <trkpt lat="44.83653" lon="-0.23929">
        <ele>44.9</ele>
        <time>2020-09-09T14:02:28Z</time>
      </trkpt>
      <trkpt lat="44.83652" lon="-0.23927">
        <ele>45.1</ele>
        <time>2020-09-09T14:02:29Z</time>
      </trkpt>
      <trkpt lat="44.83652" lon="-0.23925">
        <ele>45.2</ele>
        <time>2020-09-09T14:02:30Z</time>
      </trkpt>
      <trkpt lat="44.83652" lon="-0.23924">
        <ele>45.3</ele>
        <time>2020-09-09T14:02:31Z</time>
      </trkpt>
      <trkpt lat="44.83652" lon="-0.23922">
        <ele>45.4</ele>
        <time>2020-09-09T14:02:32Z</time>
      </trkpt>
      <trkpt lat="44.83653" lon="-0.2392">
        <ele>45.5</ele>
        <time>2020-09-09T14:02:33Z</time>
      </trkpt>
      <trkpt lat="44.83653" lon="-0.23919">
        <ele>45.6</ele>
        <time>2020-09-09T14:02:34Z</time>
      </trkpt>
      <trkpt lat="44.83653" lon="-0.23917">
        <ele>45.7</ele>
        <time>2020-09-09T14:02:36Z</time>
      </trkpt>
      <trkpt lat="44.83653" lon="-0.23917">
        <ele>45.8</ele>
        <time>2020-09-09T14:02:37Z</time>
      </trkpt>
      <trkpt lat="44.83653" lon="-0.23917">
        <ele>45.8</ele>
        <time>2020-09-09T14:02:39Z</time>
      </trkpt>
      <trkpt lat="44.83652" lon="-0.23919">
        <ele>45.9</ele>
        <time>2020-09-09T14:02:41Z</time>
      </trkpt>
      <trkpt lat="44.83651" lon="-0.2392">
        <ele>46</ele>
        <time>2020-09-09T14:02:43Z</time>
      </trkpt>
      <trkpt lat="44.83651" lon="-0.2392">
        <ele>46</ele>
        <time>2020-09-09T14:02:45Z</time>
      </trkpt>
      <trkpt lat="44.83651" lon="-0.2392">
        <ele>46.1</ele>
        <time>2020-09-09T14:02:47Z</time>
      </trkpt>
      <trkpt lat="44.83651" lon="-0.23921">
        <ele>46.1</ele>
        <time>2020-09-09T14:02:49Z</time>
      </trkpt>
      <trkpt lat="44.83651" lon="-0.23921">
        <ele>46.1</ele>
        <time>2020-09-09T14:02:50Z</time>
      </trkpt>
      <trkpt lat="44.8365" lon="-0.23922">
        <ele>46.2</ele>
        <time>2020-09-09T14:02:51Z</time>
      </trkpt>
      <trkpt lat="44.8365" lon="-0.23923">
        <ele>46.2</ele>
        <time>2020-09-09T14:02:53Z</time>
      </trkpt>
      <trkpt lat="44.8365" lon="-0.23924">
        <ele>46.3</ele>
        <time>2020-09-09T14:02:55Z</time>
      </trkpt>
      <trkpt lat="44.8365" lon="-0.23926">
        <ele>46.4</ele>
        <time>2020-09-09T14:02:57Z</time>
      </trkpt>
      <trkpt lat="44.8365" lon="-0.23927">
        <ele>46.5</ele>
        <time>2020-09-09T14:02:58Z</time>
      </trkpt>
      <trkpt lat="44.8365" lon="-0.23928">
        <ele>46.5</ele>
        <time>2020-09-09T14:03:00Z</time>
      </trkpt>
      <trkpt lat="44.8365" lon="-0.23929">
        <ele>46.6</ele>
        <time>2020-09-09T14:03:02Z</time>
      </trkpt>
      <trkpt lat="44.8365" lon="-0.2393">
        <ele>46.7</ele>
        <time>2020-09-09T14:03:03Z</time>
      </trkpt>
      <trkpt lat="44.8365" lon="-0.23931">
        <ele>46.8</ele>
        <time>2020-09-09T14:03:04Z</time>
      </trkpt>
      <trkpt lat="44.8365" lon="-0.23932">
        <ele>46.8</ele>
        <time>2020-09-09T14:03:06Z</time>
      </trkpt>
      <trkpt lat="44.8365" lon="-0.23934">
        <ele>46.9</ele>
        <time>2020-09-09T14:03:08Z</time>
      </trkpt>
      <trkpt lat="44.8365" lon="-0.23935">
        <ele>47</ele>
        <time>2020-09-09T14:03:09Z</time>
      </trkpt>
      <trkpt lat="44.83649" lon="-0.23936">
        <ele>47.1</ele>
        <time>2020-09-09T14:03:10Z</time>
      </trkpt>
      <trkpt lat="44.83648" lon="-0.23936">
        <ele>47.1</ele>
        <time>2020-09-09T14:03:11Z</time>
      </trkpt>
      <trkpt lat="44.83647" lon="-0.23936">
        <ele>47.2</ele>
        <time>2020-09-09T14:03:13Z</time>
      </trkpt>
      <trkpt lat="44.83647" lon="-0.23936">
        <ele>47.3</ele>
        <time>2020-09-09T14:03:14Z</time>
      </trkpt>
      <trkpt lat="44.83647" lon="-0.23936">
        <ele>47.3</ele>
        <time>2020-09-09T14:03:15Z</time>
      </trkpt>
      <trkpt lat="44.83645" lon="-0.23936">
        <ele>47.4</ele>
        <time>2020-09-09T14:03:17Z</time>
      </trkpt>
      <trkpt lat="44.83644" lon="-0.23937">
        <ele>47.6</ele>
        <time>2020-09-09T14:03:19Z</time>
      </trkpt>
      <trkpt lat="44.83644" lon="-0.23937">
        <ele>47.6</ele>
        <time>2020-09-09T14:03:20Z</time>
      </trkpt>
      <trkpt lat="44.83643" lon="-0.23937">
        <ele>47.6</ele>
        <time>2020-09-09T14:03:22Z</time>
      </trkpt>
      <trkpt lat="44.83643" lon="-0.23937">
        <ele>47.6</ele>
        <time>2020-09-09T14:03:24Z</time>
      </trkpt>
      <trkpt lat="44.83644" lon="-0.23938">
        <ele>47.7</ele>
        <time>2020-09-09T14:03:26Z</time>
      </trkpt>
      <trkpt lat="44.83644" lon="-0.23938">
        <ele>47.7</ele>
        <time>2020-09-09T14:03:27Z</time>
      </trkpt>
      <trkpt lat="44.83644" lon="-0.23938">
        <ele>47.7</ele>
        <time>2020-09-09T14:03:29Z</time>
      </trkpt>
      <trkpt lat="44.83644" lon="-0.23939">
        <ele>47.7</ele>
        <time>2020-09-09T14:03:30Z</time>
      </trkpt>
      <trkpt lat="44.83644" lon="-0.23939">
        <ele>47.8</ele>
        <time>2020-09-09T14:03:32Z</time>
      </trkpt>
      <trkpt lat="44.83644" lon="-0.23939">
        <ele>47.8</ele>
        <time>2020-09-09T14:03:33Z</time>
      </trkpt>
      <trkpt lat="44.83643" lon="-0.23939">
        <ele>47.8</ele>
        <time>2020-09-09T14:03:34Z</time>
      </trkpt>
      <trkpt lat="44.83643" lon="-0.23939">
        <ele>47.8</ele>
        <time>2020-09-09T14:03:36Z</time>
      </trkpt>
      <trkpt lat="44.83643" lon="-0.23938">
        <ele>47.9</ele>
        <time>2020-09-09T14:03:37Z</time>
      </trkpt>
      <trkpt lat="44.83642" lon="-0.23937">
        <ele>48</ele>
        <time>2020-09-09T14:03:39Z</time>
      </trkpt>
      <trkpt lat="44.83641" lon="-0.23937">
        <ele>48.1</ele>
        <time>2020-09-09T14:03:40Z</time>
      </trkpt>
      <trkpt lat="44.83641" lon="-0.23937">
        <ele>48.1</ele>
        <time>2020-09-09T14:03:41Z</time>
      </trkpt>
      <trkpt lat="44.8364" lon="-0.23936">
        <ele>48.1</ele>
        <time>2020-09-09T14:03:43Z</time>
      </trkpt>
      <trkpt lat="44.8364" lon="-0.23936">
        <ele>48.1</ele>
        <time>2020-09-09T14:03:44Z</time>
      </trkpt>
      <trkpt lat="44.83639" lon="-0.23936">
        <ele>48.2</ele>
        <time>2020-09-09T14:03:46Z</time>
      </trkpt>
      <trkpt lat="44.83639" lon="-0.23935">
        <ele>48.3</ele>
        <time>2020-09-09T14:03:47Z</time>
      </trkpt>
      <trkpt lat="44.83638" lon="-0.23935">
        <ele>48.3</ele>
        <time>2020-09-09T14:03:48Z</time>
      </trkpt>
      <trkpt lat="44.83639" lon="-0.23935">
        <ele>48.3</ele>
        <time>2020-09-09T14:03:50Z</time>
      </trkpt>
      <trkpt lat="44.83639" lon="-0.23936">
        <ele>48.3</ele>
        <time>2020-09-09T14:03:52Z</time>
      </trkpt>
      <trkpt lat="44.83638" lon="-0.23936">
        <ele>48.3</ele>
        <time>2020-09-09T14:03:54Z</time>
      </trkpt>
      <trkpt lat="44.83638" lon="-0.23936">
        <ele>48.3</ele>
        <time>2020-09-09T14:03:55Z</time>
      </trkpt>
      <trkpt lat="44.83639" lon="-0.23936">
        <ele>48.4</ele>
        <time>2020-09-09T14:03:58Z</time>
      </trkpt>
      <trkpt lat="44.83639" lon="-0.23935">
        <ele>48.4</ele>
        <time>2020-09-09T14:04:00Z</time>
      </trkpt>
      <trkpt lat="44.83639" lon="-0.23935">
        <ele>48.4</ele>
        <time>2020-09-09T14:04:01Z</time>
      </trkpt>
      <trkpt lat="44.83639" lon="-0.23935">
        <ele>48.4</ele>
        <time>2020-09-09T14:04:02Z</time>
      </trkpt>
      <trkpt lat="44.83639" lon="-0.23935">
        <ele>48.5</ele>
        <time>2020-09-09T14:04:03Z</time>
      </trkpt>
      <trkpt lat="44.83639" lon="-0.23936">
        <ele>48.5</ele>
        <time>2020-09-09T14:04:05Z</time>
      </trkpt>
      <trkpt lat="44.83639" lon="-0.23936">
        <ele>48.5</ele>
        <time>2020-09-09T14:04:06Z</time>
      </trkpt>
      <trkpt lat="44.8364" lon="-0.23936">
        <ele>48.5</ele>
        <time>2020-09-09T14:04:07Z</time>
      </trkpt>
      <trkpt lat="44.8364" lon="-0.23936">
        <ele>48.6</ele>
        <time>2020-09-09T14:04:09Z</time>
      </trkpt>
      <trkpt lat="44.8364" lon="-0.23936">
        <ele>48.6</ele>
        <time>2020-09-09T14:04:11Z</time>
      </trkpt>
      <trkpt lat="44.83641" lon="-0.23936">
        <ele>48.6</ele>
        <time>2020-09-09T14:04:13Z</time>
      </trkpt>
      <trkpt lat="44.83641" lon="-0.23936">
        <ele>48.7</ele>
        <time>2020-09-09T14:04:14Z</time>
      </trkpt>
      <trkpt lat="44.83642" lon="-0.23936">
        <ele>48.7</ele>
        <time>2020-09-09T14:04:16Z</time>
      </trkpt>
      <trkpt lat="44.83642" lon="-0.23935">
        <ele>48.8</ele>
        <time>2020-09-09T14:04:17Z</time>
      </trkpt>
      <trkpt lat="44.83641" lon="-0.23935">
        <ele>48.8</ele>
        <time>2020-09-09T14:04:18Z</time>
      </trkpt>
      <trkpt lat="44.83641" lon="-0.23935">
        <ele>48.8</ele>
        <time>2020-09-09T14:04:19Z</time>
      </trkpt>
      <trkpt lat="44.83641" lon="-0.23934">
        <ele>48.9</ele>
        <time>2020-09-09T14:04:21Z</time>
      </trkpt>
      <trkpt lat="44.83641" lon="-0.23934">
        <ele>48.9</ele>
        <time>2020-09-09T14:04:23Z</time>
      </trkpt>
      <trkpt lat="44.8364" lon="-0.23933">
        <ele>48.9</ele>
        <time>2020-09-09T14:04:24Z</time>
      </trkpt>
      <trkpt lat="44.8364" lon="-0.23933">
        <ele>49</ele>
        <time>2020-09-09T14:04:26Z</time>
      </trkpt>
      <trkpt lat="44.8364" lon="-0.23932">
        <ele>49</ele>
        <time>2020-09-09T14:04:27Z</time>
      </trkpt>
      <trkpt lat="44.8364" lon="-0.23932">
        <ele>49</ele>
        <time>2020-09-09T14:04:29Z</time>
      </trkpt>
      <trkpt lat="44.83639" lon="-0.23932">
        <ele>49.1</ele>
        <time>2020-09-09T14:04:30Z</time>
      </trkpt>
      <trkpt lat="44.83639" lon="-0.23931">
        <ele>49.1</ele>
        <time>2020-09-09T14:04:31Z</time>
      </trkpt>
      <trkpt lat="44.83638" lon="-0.2393">
        <ele>49.2</ele>
        <time>2020-09-09T14:04:33Z</time>
      </trkpt>
      <trkpt lat="44.83638" lon="-0.2393">
        <ele>49.2</ele>
        <time>2020-09-09T14:04:34Z</time>
      </trkpt>
      <trkpt lat="44.83637" lon="-0.23931">
        <ele>49.3</ele>
        <time>2020-09-09T14:04:36Z</time>
      </trkpt>
      <trkpt lat="44.83637" lon="-0.23932">
        <ele>49.4</ele>
        <time>2020-09-09T14:04:38Z</time>
      </trkpt>
      <trkpt lat="44.83636" lon="-0.23935">
        <ele>49.6</ele>
        <time>2020-09-09T14:04:40Z</time>
      </trkpt>
      <trkpt lat="44.83636" lon="-0.23936">
        <ele>49.7</ele>
        <time>2020-09-09T14:04:42Z</time>
      </trkpt>
      <trkpt lat="44.83636" lon="-0.23937">
        <ele>49.7</ele>
        <time>2020-09-09T14:04:43Z</time>
      </trkpt>
      <trkpt lat="44.83635" lon="-0.23938">
        <ele>49.8</ele>
        <time>2020-09-09T14:04:44Z</time>
      </trkpt>
      <trkpt lat="44.83635" lon="-0.2394">
        <ele>49.9</ele>
        <time>2020-09-09T14:04:46Z</time>
      </trkpt>
      <trkpt lat="44.83635" lon="-0.23942">
        <ele>50</ele>
        <time>2020-09-09T14:04:48Z</time>
      </trkpt>
      <trkpt lat="44.83635" lon="-0.23944">
        <ele>50.2</ele>
        <time>2020-09-09T14:04:49Z</time>
      </trkpt>
      <trkpt lat="44.83634" lon="-0.23947">
        <ele>50.3</ele>
        <time>2020-09-09T14:04:51Z</time>
      </trkpt>
      <trkpt lat="44.83634" lon="-0.23948">
        <ele>50.4</ele>
        <time>2020-09-09T14:04:52Z</time>
      </trkpt>
      <trkpt lat="44.83634" lon="-0.23949">
        <ele>50.5</ele>
        <time>2020-09-09T14:04:54Z</time>
      </trkpt>
      <trkpt lat="44.83633" lon="-0.23952">
        <ele>50.6</ele>
        <time>2020-09-09T14:04:55Z</time>
      </trkpt>
      <trkpt lat="44.83633" lon="-0.23953">
        <ele>50.7</ele>
        <time>2020-09-09T14:04:57Z</time>
      </trkpt>
      <trkpt lat="44.83632" lon="-0.23955">
        <ele>50.8</ele>
        <time>2020-09-09T14:04:58Z</time>
      </trkpt>
      <trkpt lat="44.83632" lon="-0.23955">
        <ele>50.9</ele>
        <time>2020-09-09T14:04:59Z</time>
      </trkpt>
      <trkpt lat="44.83631" lon="-0.23957">
        <ele>50.9</ele>
        <time>2020-09-09T14:05:01Z</time>
      </trkpt>
      <trkpt lat="44.83631" lon="-0.23958">
        <ele>51.1</ele>
        <time>2020-09-09T14:05:02Z</time>
      </trkpt>
      <trkpt lat="44.83631" lon="-0.23959">
        <ele>51.1</ele>
        <time>2020-09-09T14:05:04Z</time>
      </trkpt>
      <trkpt lat="44.8363" lon="-0.23959">
        <ele>51.1</ele>
        <time>2020-09-09T14:05:05Z</time>
      </trkpt>
      <trkpt lat="44.83631" lon="-0.23959">
        <ele>51.2</ele>
        <time>2020-09-09T14:05:06Z</time>
      </trkpt>
      <trkpt lat="44.83631" lon="-0.23959">
        <ele>51.2</ele>
        <time>2020-09-09T14:05:08Z</time>
      </trkpt>
      <trkpt lat="44.83632" lon="-0.23958">
        <ele>51.3</ele>
        <time>2020-09-09T14:05:09Z</time>
      </trkpt>
      <trkpt lat="44.83632" lon="-0.23958">
        <ele>51.3</ele>
        <time>2020-09-09T14:05:10Z</time>
      </trkpt>
      <trkpt lat="44.83632" lon="-0.23957">
        <ele>51.4</ele>
        <time>2020-09-09T14:05:11Z</time>
      </trkpt>
      <trkpt lat="44.83633" lon="-0.23956">
        <ele>51.4</ele>
        <time>2020-09-09T14:05:13Z</time>
      </trkpt>
      <trkpt lat="44.83633" lon="-0.23956">
        <ele>51.5</ele>
        <time>2020-09-09T14:05:15Z</time>
      </trkpt>
      <trkpt lat="44.83633" lon="-0.23956">
        <ele>51.5</ele>
        <time>2020-09-09T14:05:16Z</time>
      </trkpt>
      <trkpt lat="44.83633" lon="-0.23956">
        <ele>51.5</ele>
        <time>2020-09-09T14:05:18Z</time>
      </trkpt>
      <trkpt lat="44.83633" lon="-0.23957">
        <ele>51.5</ele>
        <time>2020-09-09T14:05:19Z</time>
      </trkpt>
      <trkpt lat="44.83633" lon="-0.23958">
        <ele>51.6</ele>
        <time>2020-09-09T14:05:21Z</time>
      </trkpt>
      <trkpt lat="44.83632" lon="-0.23959">
        <ele>51.6</ele>
        <time>2020-09-09T14:05:22Z</time>
      </trkpt>
      <trkpt lat="44.83632" lon="-0.2396">
        <ele>51.7</ele>
        <time>2020-09-09T14:05:24Z</time>
      </trkpt>
      <trkpt lat="44.83631" lon="-0.2396">
        <ele>51.7</ele>
        <time>2020-09-09T14:05:26Z</time>
      </trkpt>
      <trkpt lat="44.83631" lon="-0.23959">
        <ele>51.8</ele>
        <time>2020-09-09T14:05:27Z</time>
      </trkpt>
      <trkpt lat="44.8363" lon="-0.2396">
        <ele>51.8</ele>
        <time>2020-09-09T14:05:29Z</time>
      </trkpt>
      <trkpt lat="44.8363" lon="-0.23959">
        <ele>51.9</ele>
        <time>2020-09-09T14:05:31Z</time>
      </trkpt>
      <trkpt lat="44.83629" lon="-0.23959">
        <ele>51.9</ele>
        <time>2020-09-09T14:05:32Z</time>
      </trkpt>
      <trkpt lat="44.83628" lon="-0.23958">
        <ele>52</ele>
        <time>2020-09-09T14:05:33Z</time>
      </trkpt>
      <trkpt lat="44.83627" lon="-0.23957">
        <ele>52.1</ele>
        <time>2020-09-09T14:05:34Z</time>
      </trkpt>
      <trkpt lat="44.83626" lon="-0.23957">
        <ele>52.2</ele>
        <time>2020-09-09T14:05:35Z</time>
      </trkpt>
      <trkpt lat="44.83624" lon="-0.23958">
        <ele>52.3</ele>
        <time>2020-09-09T14:05:37Z</time>
      </trkpt>
      <trkpt lat="44.83621" lon="-0.23958">
        <ele>52.5</ele>
        <time>2020-09-09T14:05:38Z</time>
      </trkpt>
      <trkpt lat="44.8362" lon="-0.23959">
        <ele>52.6</ele>
        <time>2020-09-09T14:05:39Z</time>
      </trkpt>
      <trkpt lat="44.83619" lon="-0.23959">
        <ele>52.6</ele>
        <time>2020-09-09T14:05:40Z</time>
      </trkpt>
      <trkpt lat="44.83618" lon="-0.23959">
        <ele>52.7</ele>
        <time>2020-09-09T14:05:41Z</time>
      </trkpt>
      <trkpt lat="44.83616" lon="-0.23959">
        <ele>52.8</ele>
        <time>2020-09-09T14:05:43Z</time>
      </trkpt>
      <trkpt lat="44.83614" lon="-0.2396">
        <ele>52.9</ele>
        <time>2020-09-09T14:05:44Z</time>
      </trkpt>
      <trkpt lat="44.83614" lon="-0.2396">
        <ele>53</ele>
        <time>2020-09-09T14:05:46Z</time>
      </trkpt>
      <trkpt lat="44.83613" lon="-0.23961">
        <ele>53</ele>
        <time>2020-09-09T14:05:47Z</time>
      </trkpt>
      <trkpt lat="44.83611" lon="-0.23961">
        <ele>53.1</ele>
        <time>2020-09-09T14:05:48Z</time>
      </trkpt>
      <trkpt lat="44.83611" lon="-0.23962">
        <ele>53.1</ele>
        <time>2020-09-09T14:05:49Z</time>
      </trkpt>
      <trkpt lat="44.8361" lon="-0.23962">
        <ele>53.2</ele>
        <time>2020-09-09T14:05:51Z</time>
      </trkpt>
      <trkpt lat="44.83609" lon="-0.23963">
        <ele>53.2</ele>
        <time>2020-09-09T14:05:52Z</time>
      </trkpt>
      <trkpt lat="44.83608" lon="-0.23964">
        <ele>53.3</ele>
        <time>2020-09-09T14:05:53Z</time>
      </trkpt>
      <trkpt lat="44.83607" lon="-0.23964">
        <ele>53.4</ele>
        <time>2020-09-09T14:05:54Z</time>
      </trkpt>
      <trkpt lat="44.83605" lon="-0.23965">
        <ele>53.5</ele>
        <time>2020-09-09T14:05:56Z</time>
      </trkpt>
      <trkpt lat="44.83603" lon="-0.23966">
        <ele>53.6</ele>
        <time>2020-09-09T14:05:57Z</time>
      </trkpt>
      <trkpt lat="44.83602" lon="-0.23967">
        <ele>53.7</ele>
        <time>2020-09-09T14:05:58Z</time>
      </trkpt>
      <trkpt lat="44.83601" lon="-0.23967">
        <ele>53.7</ele>
        <time>2020-09-09T14:05:59Z</time>
      </trkpt>
      <trkpt lat="44.836" lon="-0.23968">
        <ele>53.8</ele>
        <time>2020-09-09T14:06:00Z</time>
      </trkpt>
      <trkpt lat="44.83598" lon="-0.23969">
        <ele>53.9</ele>
        <time>2020-09-09T14:06:02Z</time>
      </trkpt>
      <trkpt lat="44.83596" lon="-0.23971">
        <ele>54</ele>
        <time>2020-09-09T14:06:03Z</time>
      </trkpt>
      <trkpt lat="44.83595" lon="-0.23971">
        <ele>54.1</ele>
        <time>2020-09-09T14:06:04Z</time>
      </trkpt>
      <trkpt lat="44.83594" lon="-0.23972">
        <ele>54.1</ele>
        <time>2020-09-09T14:06:05Z</time>
      </trkpt>
      <trkpt lat="44.83594" lon="-0.23973">
        <ele>54.2</ele>
        <time>2020-09-09T14:06:06Z</time>
      </trkpt>
      <trkpt lat="44.83592" lon="-0.23975">
        <ele>54.3</ele>
        <time>2020-09-09T14:06:07Z</time>
      </trkpt>
      <trkpt lat="44.83591" lon="-0.23976">
        <ele>54.4</ele>
        <time>2020-09-09T14:06:09Z</time>
      </trkpt>
      <trkpt lat="44.8359" lon="-0.23976">
        <ele>54.5</ele>
        <time>2020-09-09T14:06:10Z</time>
      </trkpt>
      <trkpt lat="44.83589" lon="-0.23977">
        <ele>54.5</ele>
        <time>2020-09-09T14:06:11Z</time>
      </trkpt>
      <trkpt lat="44.83588" lon="-0.23978">
        <ele>54.6</ele>
        <time>2020-09-09T14:06:12Z</time>
      </trkpt>
      <trkpt lat="44.83588" lon="-0.23979">
        <ele>54.6</ele>
        <time>2020-09-09T14:06:13Z</time>
      </trkpt>
      <trkpt lat="44.83587" lon="-0.23979">
        <ele>54.6</ele>
        <time>2020-09-09T14:06:14Z</time>
      </trkpt>
      <trkpt lat="44.83586" lon="-0.2398">
        <ele>54.7</ele>
        <time>2020-09-09T14:06:16Z</time>
      </trkpt>
      <trkpt lat="44.83585" lon="-0.23981">
        <ele>54.8</ele>
        <time>2020-09-09T14:06:17Z</time>
      </trkpt>
      <trkpt lat="44.83583" lon="-0.23983">
        <ele>54.9</ele>
        <time>2020-09-09T14:06:18Z</time>
      </trkpt>
      <trkpt lat="44.83582" lon="-0.23984">
        <ele>55</ele>
        <time>2020-09-09T14:06:19Z</time>
      </trkpt>
      <trkpt lat="44.83581" lon="-0.23985">
        <ele>55</ele>
        <time>2020-09-09T14:06:20Z</time>
      </trkpt>
      <trkpt lat="44.8358" lon="-0.23985">
        <ele>55.1</ele>
        <time>2020-09-09T14:06:21Z</time>
      </trkpt>
      <trkpt lat="44.83579" lon="-0.23986">
        <ele>55.2</ele>
        <time>2020-09-09T14:06:22Z</time>
      </trkpt>
      <trkpt lat="44.83577" lon="-0.23986">
        <ele>55.3</ele>
        <time>2020-09-09T14:06:24Z</time>
      </trkpt>
      <trkpt lat="44.83576" lon="-0.23986">
        <ele>55.3</ele>
        <time>2020-09-09T14:06:26Z</time>
      </trkpt>
      <trkpt lat="44.83575" lon="-0.23986">
        <ele>55.4</ele>
        <time>2020-09-09T14:06:27Z</time>
      </trkpt>
      <trkpt lat="44.83574" lon="-0.23987">
        <ele>55.5</ele>
        <time>2020-09-09T14:06:28Z</time>
      </trkpt>
      <trkpt lat="44.83573" lon="-0.23988">
        <ele>55.5</ele>
        <time>2020-09-09T14:06:29Z</time>
      </trkpt>
      <trkpt lat="44.83572" lon="-0.23989">
        <ele>55.6</ele>
        <time>2020-09-09T14:06:30Z</time>
      </trkpt>
      <trkpt lat="44.83571" lon="-0.23989">
        <ele>55.7</ele>
        <time>2020-09-09T14:06:31Z</time>
      </trkpt>
      <trkpt lat="44.8357" lon="-0.23992">
        <ele>55.8</ele>
        <time>2020-09-09T14:06:33Z</time>
      </trkpt>
      <trkpt lat="44.83569" lon="-0.23993">
        <ele>55.9</ele>
        <time>2020-09-09T14:06:35Z</time>
      </trkpt>
      <trkpt lat="44.83569" lon="-0.23994">
        <ele>55.9</ele>
        <time>2020-09-09T14:06:37Z</time>
      </trkpt>
      <trkpt lat="44.83568" lon="-0.23995">
        <ele>55.9</ele>
        <time>2020-09-09T14:06:39Z</time>
      </trkpt>
      <trkpt lat="44.83568" lon="-0.23996">
        <ele>56</ele>
        <time>2020-09-09T14:06:40Z</time>
      </trkpt>
      <trkpt lat="44.83568" lon="-0.23997">
        <ele>56</ele>
        <time>2020-09-09T14:06:41Z</time>
      </trkpt>
      <trkpt lat="44.83567" lon="-0.23998">
        <ele>56.1</ele>
        <time>2020-09-09T14:06:43Z</time>
      </trkpt>
      <trkpt lat="44.83567" lon="-0.23999">
        <ele>56.1</ele>
        <time>2020-09-09T14:06:44Z</time>
      </trkpt>
      <trkpt lat="44.83566" lon="-0.24">
        <ele>56.2</ele>
        <time>2020-09-09T14:06:46Z</time>
      </trkpt>
      <trkpt lat="44.83566" lon="-0.24001">
        <ele>56.2</ele>
        <time>2020-09-09T14:06:47Z</time>
      </trkpt>
      <trkpt lat="44.83566" lon="-0.24002">
        <ele>56.3</ele>
        <time>2020-09-09T14:06:48Z</time>
      </trkpt>
      <trkpt lat="44.83564" lon="-0.24004">
        <ele>56.3</ele>
        <time>2020-09-09T14:06:50Z</time>
      </trkpt>
      <trkpt lat="44.83563" lon="-0.24005">
        <ele>56.4</ele>
        <time>2020-09-09T14:06:51Z</time>
      </trkpt>
      <trkpt lat="44.83561" lon="-0.24007">
        <ele>56.6</ele>
        <time>2020-09-09T14:06:52Z</time>
      </trkpt>
      <trkpt lat="44.8356" lon="-0.24008">
        <ele>56.7</ele>
        <time>2020-09-09T14:06:53Z</time>
      </trkpt>
      <trkpt lat="44.83558" lon="-0.24009">
        <ele>56.8</ele>
        <time>2020-09-09T14:06:55Z</time>
      </trkpt>
      <trkpt lat="44.83557" lon="-0.2401">
        <ele>56.8</ele>
        <time>2020-09-09T14:06:56Z</time>
      </trkpt>
      <trkpt lat="44.83556" lon="-0.2401">
        <ele>56.9</ele>
        <time>2020-09-09T14:06:57Z</time>
      </trkpt>
      <trkpt lat="44.83554" lon="-0.24012">
        <ele>57</ele>
        <time>2020-09-09T14:06:59Z</time>
      </trkpt>
      <trkpt lat="44.83552" lon="-0.24013">
        <ele>57.1</ele>
        <time>2020-09-09T14:07:00Z</time>
      </trkpt>
      <trkpt lat="44.83551" lon="-0.24013">
        <ele>57.1</ele>
        <time>2020-09-09T14:07:01Z</time>
      </trkpt>
      <trkpt lat="44.8355" lon="-0.24014">
        <ele>57.2</ele>
        <time>2020-09-09T14:07:02Z</time>
      </trkpt>
      <trkpt lat="44.83548" lon="-0.24015">
        <ele>57.3</ele>
        <time>2020-09-09T14:07:03Z</time>
      </trkpt>
      <trkpt lat="44.83546" lon="-0.24016">
        <ele>57.4</ele>
        <time>2020-09-09T14:07:05Z</time>
      </trkpt>
      <trkpt lat="44.83544" lon="-0.24017">
        <ele>57.5</ele>
        <time>2020-09-09T14:07:07Z</time>
      </trkpt>
      <trkpt lat="44.83542" lon="-0.24018">
        <ele>57.6</ele>
        <time>2020-09-09T14:07:08Z</time>
      </trkpt>
      <trkpt lat="44.83542" lon="-0.24018">
        <ele>57.6</ele>
        <time>2020-09-09T14:07:09Z</time>
      </trkpt>
      <trkpt lat="44.8354" lon="-0.24019">
        <ele>57.7</ele>
        <time>2020-09-09T14:07:11Z</time>
      </trkpt>
      <trkpt lat="44.83539" lon="-0.2402">
        <ele>57.7</ele>
        <time>2020-09-09T14:07:12Z</time>
      </trkpt>
      <trkpt lat="44.83537" lon="-0.24021">
        <ele>57.8</ele>
        <time>2020-09-09T14:07:13Z</time>
      </trkpt>
      <trkpt lat="44.83536" lon="-0.24022">
        <ele>57.9</ele>
        <time>2020-09-09T14:07:15Z</time>
      </trkpt>
      <trkpt lat="44.83535" lon="-0.24024">
        <ele>57.9</ele>
        <time>2020-09-09T14:07:16Z</time>
      </trkpt>
      <trkpt lat="44.83534" lon="-0.24025">
        <ele>58</ele>
        <time>2020-09-09T14:07:18Z</time>
      </trkpt>
      <trkpt lat="44.83533" lon="-0.24026">
        <ele>58</ele>
        <time>2020-09-09T14:07:20Z</time>
      </trkpt>
      <trkpt lat="44.83532" lon="-0.24027">
        <ele>58</ele>
        <time>2020-09-09T14:07:21Z</time>
      </trkpt>
      <trkpt lat="44.83531" lon="-0.24028">
        <ele>58.1</ele>
        <time>2020-09-09T14:07:22Z</time>
      </trkpt>
      <trkpt lat="44.8353" lon="-0.24029">
        <ele>58.1</ele>
        <time>2020-09-09T14:07:23Z</time>
      </trkpt>
      <trkpt lat="44.83529" lon="-0.2403">
        <ele>58.1</ele>
        <time>2020-09-09T14:07:25Z</time>
      </trkpt>
      <trkpt lat="44.83528" lon="-0.24031">
        <ele>58.2</ele>
        <time>2020-09-09T14:07:26Z</time>
      </trkpt>
      <trkpt lat="44.83527" lon="-0.24032">
        <ele>58.2</ele>
        <time>2020-09-09T14:07:28Z</time>
      </trkpt>
      <trkpt lat="44.83525" lon="-0.24034">
        <ele>58.2</ele>
        <time>2020-09-09T14:07:29Z</time>
      </trkpt>
      <trkpt lat="44.83524" lon="-0.24035">
        <ele>58.2</ele>
        <time>2020-09-09T14:07:30Z</time>
      </trkpt>
      <trkpt lat="44.83524" lon="-0.24036">
        <ele>58.3</ele>
        <time>2020-09-09T14:07:31Z</time>
      </trkpt>
      <trkpt lat="44.83523" lon="-0.24037">
        <ele>58.3</ele>
        <time>2020-09-09T14:07:32Z</time>
      </trkpt>
      <trkpt lat="44.83521" lon="-0.24039">
        <ele>58.3</ele>
        <time>2020-09-09T14:07:34Z</time>
      </trkpt>
      <trkpt lat="44.8352" lon="-0.2404">
        <ele>58.3</ele>
        <time>2020-09-09T14:07:35Z</time>
      </trkpt>
      <trkpt lat="44.8352" lon="-0.24041">
        <ele>58.4</ele>
        <time>2020-09-09T14:07:36Z</time>
      </trkpt>
      <trkpt lat="44.83519" lon="-0.24042">
        <ele>58.4</ele>
        <time>2020-09-09T14:07:37Z</time>
      </trkpt>
      <trkpt lat="44.83518" lon="-0.24043">
        <ele>58.4</ele>
        <time>2020-09-09T14:07:38Z</time>
      </trkpt>
      <trkpt lat="44.83517" lon="-0.24043">
        <ele>58.4</ele>
        <time>2020-09-09T14:07:39Z</time>
      </trkpt>
      <trkpt lat="44.83516" lon="-0.24043">
        <ele>58.4</ele>
        <time>2020-09-09T14:07:40Z</time>
      </trkpt>
      <trkpt lat="44.83515" lon="-0.24044">
        <ele>58.4</ele>
        <time>2020-09-09T14:07:42Z</time>
      </trkpt>
      <trkpt lat="44.83513" lon="-0.24045">
        <ele>58.5</ele>
        <time>2020-09-09T14:07:43Z</time>
      </trkpt>
      <trkpt lat="44.83513" lon="-0.24046">
        <ele>58.5</ele>
        <time>2020-09-09T14:07:44Z</time>
      </trkpt>
      <trkpt lat="44.83511" lon="-0.24048">
        <ele>58.5</ele>
        <time>2020-09-09T14:07:45Z</time>
      </trkpt>
      <trkpt lat="44.8351" lon="-0.24049">
        <ele>58.5</ele>
        <time>2020-09-09T14:07:47Z</time>
      </trkpt>
      <trkpt lat="44.83509" lon="-0.2405">
        <ele>58.5</ele>
        <time>2020-09-09T14:07:48Z</time>
      </trkpt>
      <trkpt lat="44.83509" lon="-0.2405">
        <ele>58.5</ele>
        <time>2020-09-09T14:07:50Z</time>
      </trkpt>
      <trkpt lat="44.83508" lon="-0.24052">
        <ele>58.6</ele>
        <time>2020-09-09T14:07:51Z</time>
      </trkpt>
      <trkpt lat="44.83507" lon="-0.24054">
        <ele>58.6</ele>
        <time>2020-09-09T14:07:53Z</time>
      </trkpt>
      <trkpt lat="44.83506" lon="-0.24056">
        <ele>58.6</ele>
        <time>2020-09-09T14:07:54Z</time>
      </trkpt>
      <trkpt lat="44.83505" lon="-0.24057">
        <ele>58.6</ele>
        <time>2020-09-09T14:07:55Z</time>
      </trkpt>
      <trkpt lat="44.83505" lon="-0.24058">
        <ele>58.6</ele>
        <time>2020-09-09T14:07:56Z</time>
      </trkpt>
      <trkpt lat="44.83504" lon="-0.24059">
        <ele>58.6</ele>
        <time>2020-09-09T14:07:57Z</time>
      </trkpt>
      <trkpt lat="44.83503" lon="-0.2406">
        <ele>58.6</ele>
        <time>2020-09-09T14:07:58Z</time>
      </trkpt>
      <trkpt lat="44.83502" lon="-0.24061">
        <ele>58.7</ele>
        <time>2020-09-09T14:08:00Z</time>
      </trkpt>
      <trkpt lat="44.83501" lon="-0.24062">
        <ele>58.7</ele>
        <time>2020-09-09T14:08:01Z</time>
      </trkpt>
      <trkpt lat="44.835" lon="-0.24064">
        <ele>58.7</ele>
        <time>2020-09-09T14:08:02Z</time>
      </trkpt>
      <trkpt lat="44.83498" lon="-0.24066">
        <ele>58.7</ele>
        <time>2020-09-09T14:08:04Z</time>
      </trkpt>
      <trkpt lat="44.83496" lon="-0.24068">
        <ele>58.7</ele>
        <time>2020-09-09T14:08:05Z</time>
      </trkpt>
      <trkpt lat="44.83495" lon="-0.24069">
        <ele>58.7</ele>
        <time>2020-09-09T14:08:06Z</time>
      </trkpt>
      <trkpt lat="44.83494" lon="-0.2407">
        <ele>58.7</ele>
        <time>2020-09-09T14:08:07Z</time>
      </trkpt>
      <trkpt lat="44.83492" lon="-0.24072">
        <ele>58.7</ele>
        <time>2020-09-09T14:08:08Z</time>
      </trkpt>
      <trkpt lat="44.8349" lon="-0.24073">
        <ele>58.7</ele>
        <time>2020-09-09T14:08:09Z</time>
      </trkpt>
      <trkpt lat="44.83489" lon="-0.24074">
        <ele>58.7</ele>
        <time>2020-09-09T14:08:10Z</time>
      </trkpt>
      <trkpt lat="44.83488" lon="-0.24075">
        <ele>58.7</ele>
        <time>2020-09-09T14:08:12Z</time>
      </trkpt>
      <trkpt lat="44.83487" lon="-0.24076">
        <ele>58.7</ele>
        <time>2020-09-09T14:08:13Z</time>
      </trkpt>
      <trkpt lat="44.83485" lon="-0.24076">
        <ele>58.7</ele>
        <time>2020-09-09T14:08:14Z</time>
      </trkpt>
      <trkpt lat="44.83484" lon="-0.24078">
        <ele>58.7</ele>
        <time>2020-09-09T14:08:15Z</time>
      </trkpt>
      <trkpt lat="44.83483" lon="-0.24078">
        <ele>58.7</ele>
        <time>2020-09-09T14:08:16Z</time>
      </trkpt>
      <trkpt lat="44.83482" lon="-0.24079">
        <ele>58.7</ele>
        <time>2020-09-09T14:08:17Z</time>
      </trkpt>
      <trkpt lat="44.83481" lon="-0.24079">
        <ele>58.7</ele>
        <time>2020-09-09T14:08:18Z</time>
      </trkpt>
      <trkpt lat="44.8348" lon="-0.24079">
        <ele>58.7</ele>
        <time>2020-09-09T14:08:19Z</time>
      </trkpt>
      <trkpt lat="44.83479" lon="-0.2408">
        <ele>58.7</ele>
        <time>2020-09-09T14:08:21Z</time>
      </trkpt>
      <trkpt lat="44.83478" lon="-0.24081">
        <ele>58.7</ele>
        <time>2020-09-09T14:08:22Z</time>
      </trkpt>
      <trkpt lat="44.83476" lon="-0.24082">
        <ele>58.7</ele>
        <time>2020-09-09T14:08:23Z</time>
      </trkpt>
      <trkpt lat="44.83474" lon="-0.24082">
        <ele>58.7</ele>
        <time>2020-09-09T14:08:25Z</time>
      </trkpt>
      <trkpt lat="44.83474" lon="-0.2408">
        <ele>58.6</ele>
        <time>2020-09-09T14:08:26Z</time>
      </trkpt>
      <trkpt lat="44.83475" lon="-0.24079">
        <ele>58.6</ele>
        <time>2020-09-09T14:08:28Z</time>
      </trkpt>
      <trkpt lat="44.83475" lon="-0.24078">
        <ele>58.6</ele>
        <time>2020-09-09T14:08:29Z</time>
      </trkpt>
      <trkpt lat="44.83476" lon="-0.24075">
        <ele>58.6</ele>
        <time>2020-09-09T14:08:31Z</time>
      </trkpt>
      <trkpt lat="44.83477" lon="-0.24073">
        <ele>58.5</ele>
        <time>2020-09-09T14:08:33Z</time>
      </trkpt>
      <trkpt lat="44.83477" lon="-0.24072">
        <ele>58.5</ele>
        <time>2020-09-09T14:08:35Z</time>
      </trkpt>
      <trkpt lat="44.83477" lon="-0.24071">
        <ele>58.5</ele>
        <time>2020-09-09T14:08:36Z</time>
      </trkpt>
      <trkpt lat="44.83477" lon="-0.24071">
        <ele>58.5</ele>
        <time>2020-09-09T14:08:37Z</time>
      </trkpt>
      <trkpt lat="44.83477" lon="-0.2407">
        <ele>58.5</ele>
        <time>2020-09-09T14:08:39Z</time>
      </trkpt>
      <trkpt lat="44.83476" lon="-0.24071">
        <ele>58.5</ele>
        <time>2020-09-09T14:08:40Z</time>
      </trkpt>
      <trkpt lat="44.83475" lon="-0.24072">
        <ele>58.5</ele>
        <time>2020-09-09T14:08:42Z</time>
      </trkpt>
      <trkpt lat="44.83474" lon="-0.24072">
        <ele>58.4</ele>
        <time>2020-09-09T14:08:43Z</time>
      </trkpt>
      <trkpt lat="44.83473" lon="-0.24073">
        <ele>58.4</ele>
        <time>2020-09-09T14:08:44Z</time>
      </trkpt>
      <trkpt lat="44.83471" lon="-0.24074">
        <ele>58.4</ele>
        <time>2020-09-09T14:08:45Z</time>
      </trkpt>
      <trkpt lat="44.8347" lon="-0.24075">
        <ele>58.4</ele>
        <time>2020-09-09T14:08:46Z</time>
      </trkpt>
      <trkpt lat="44.83469" lon="-0.24076">
        <ele>58.3</ele>
        <time>2020-09-09T14:08:47Z</time>
      </trkpt>
      <trkpt lat="44.83466" lon="-0.24077">
        <ele>58.3</ele>
        <time>2020-09-09T14:08:49Z</time>
      </trkpt>
      <trkpt lat="44.83465" lon="-0.24077">
        <ele>58.2</ele>
        <time>2020-09-09T14:08:50Z</time>
      </trkpt>
      <trkpt lat="44.83463" lon="-0.24078">
        <ele>58.2</ele>
        <time>2020-09-09T14:08:51Z</time>
      </trkpt>
      <trkpt lat="44.83462" lon="-0.2408">
        <ele>58.2</ele>
        <time>2020-09-09T14:08:52Z</time>
      </trkpt>
      <trkpt lat="44.83461" lon="-0.24081">
        <ele>58.1</ele>
        <time>2020-09-09T14:08:54Z</time>
      </trkpt>
      <trkpt lat="44.8346" lon="-0.24082">
        <ele>58.1</ele>
        <time>2020-09-09T14:08:55Z</time>
      </trkpt>
      <trkpt lat="44.83459" lon="-0.24083">
        <ele>58.1</ele>
        <time>2020-09-09T14:08:56Z</time>
      </trkpt>
      <trkpt lat="44.83458" lon="-0.24083">
        <ele>58.1</ele>
        <time>2020-09-09T14:08:57Z</time>
      </trkpt>
      <trkpt lat="44.83457" lon="-0.24084">
        <ele>58</ele>
        <time>2020-09-09T14:08:58Z</time>
      </trkpt>
      <trkpt lat="44.83454" lon="-0.24085">
        <ele>58</ele>
        <time>2020-09-09T14:09:00Z</time>
      </trkpt>
      <trkpt lat="44.83454" lon="-0.24086">
        <ele>57.9</ele>
        <time>2020-09-09T14:09:01Z</time>
      </trkpt>
      <trkpt lat="44.83452" lon="-0.24087">
        <ele>57.9</ele>
        <time>2020-09-09T14:09:02Z</time>
      </trkpt>
      <trkpt lat="44.8345" lon="-0.24088">
        <ele>57.8</ele>
        <time>2020-09-09T14:09:04Z</time>
      </trkpt>
      <trkpt lat="44.83448" lon="-0.24089">
        <ele>57.8</ele>
        <time>2020-09-09T14:09:05Z</time>
      </trkpt>
      <trkpt lat="44.83447" lon="-0.2409">
        <ele>57.7</ele>
        <time>2020-09-09T14:09:06Z</time>
      </trkpt>
      <trkpt lat="44.83447" lon="-0.24091">
        <ele>57.7</ele>
        <time>2020-09-09T14:09:08Z</time>
      </trkpt>
      <trkpt lat="44.83446" lon="-0.24092">
        <ele>57.7</ele>
        <time>2020-09-09T14:09:09Z</time>
      </trkpt>
      <trkpt lat="44.83445" lon="-0.24092">
        <ele>57.6</ele>
        <time>2020-09-09T14:09:10Z</time>
      </trkpt>
      <trkpt lat="44.83443" lon="-0.24093">
        <ele>57.6</ele>
        <time>2020-09-09T14:09:11Z</time>
      </trkpt>
      <trkpt lat="44.83442" lon="-0.24095">
        <ele>57.5</ele>
        <time>2020-09-09T14:09:13Z</time>
      </trkpt>
      <trkpt lat="44.83441" lon="-0.24095">
        <ele>57.5</ele>
        <time>2020-09-09T14:09:14Z</time>
      </trkpt>
      <trkpt lat="44.8344" lon="-0.24096">
        <ele>57.4</ele>
        <time>2020-09-09T14:09:15Z</time>
      </trkpt>
      <trkpt lat="44.83437" lon="-0.24097">
        <ele>57.3</ele>
        <time>2020-09-09T14:09:16Z</time>
      </trkpt>
      <trkpt lat="44.83436" lon="-0.24098">
        <ele>57.3</ele>
        <time>2020-09-09T14:09:17Z</time>
      </trkpt>
      <trkpt lat="44.83433" lon="-0.241">
        <ele>57.1</ele>
        <time>2020-09-09T14:09:18Z</time>
      </trkpt>
      <trkpt lat="44.83432" lon="-0.24101">
        <ele>57</ele>
        <time>2020-09-09T14:09:19Z</time>
      </trkpt>
      <trkpt lat="44.83431" lon="-0.24102">
        <ele>57</ele>
        <time>2020-09-09T14:09:20Z</time>
      </trkpt>
      <trkpt lat="44.8343" lon="-0.24102">
        <ele>56.9</ele>
        <time>2020-09-09T14:09:21Z</time>
      </trkpt>
      <trkpt lat="44.83428" lon="-0.24104">
        <ele>56.8</ele>
        <time>2020-09-09T14:09:22Z</time>
      </trkpt>
      <trkpt lat="44.83426" lon="-0.24104">
        <ele>56.8</ele>
        <time>2020-09-09T14:09:23Z</time>
      </trkpt>
      <trkpt lat="44.83425" lon="-0.24105">
        <ele>56.7</ele>
        <time>2020-09-09T14:09:24Z</time>
      </trkpt>
      <trkpt lat="44.83423" lon="-0.24106">
        <ele>56.6</ele>
        <time>2020-09-09T14:09:26Z</time>
      </trkpt>
      <trkpt lat="44.83423" lon="-0.24106">
        <ele>56.6</ele>
        <time>2020-09-09T14:09:27Z</time>
      </trkpt>
      <trkpt lat="44.83422" lon="-0.24107">
        <ele>56.5</ele>
        <time>2020-09-09T14:09:28Z</time>
      </trkpt>
      <trkpt lat="44.83421" lon="-0.24107">
        <ele>56.5</ele>
        <time>2020-09-09T14:09:29Z</time>
      </trkpt>
      <trkpt lat="44.8342" lon="-0.24108">
        <ele>56.4</ele>
        <time>2020-09-09T14:09:30Z</time>
      </trkpt>
      <trkpt lat="44.83419" lon="-0.24108">
        <ele>56.4</ele>
        <time>2020-09-09T14:09:31Z</time>
      </trkpt>
      <trkpt lat="44.83418" lon="-0.24109">
        <ele>56.3</ele>
        <time>2020-09-09T14:09:32Z</time>
      </trkpt>
      <trkpt lat="44.83415" lon="-0.2411">
        <ele>56.2</ele>
        <time>2020-09-09T14:09:33Z</time>
      </trkpt>
      <trkpt lat="44.83414" lon="-0.2411">
        <ele>56.1</ele>
        <time>2020-09-09T14:09:35Z</time>
      </trkpt>
      <trkpt lat="44.8341" lon="-0.24112">
        <ele>55.9</ele>
        <time>2020-09-09T14:09:37Z</time>
      </trkpt>
      <trkpt lat="44.83409" lon="-0.24112">
        <ele>55.9</ele>
        <time>2020-09-09T14:09:38Z</time>
      </trkpt>
      <trkpt lat="44.83408" lon="-0.24113">
        <ele>55.8</ele>
        <time>2020-09-09T14:09:39Z</time>
      </trkpt>
      <trkpt lat="44.83407" lon="-0.24114">
        <ele>55.8</ele>
        <time>2020-09-09T14:09:40Z</time>
      </trkpt>
      <trkpt lat="44.83405" lon="-0.24115">
        <ele>55.7</ele>
        <time>2020-09-09T14:09:42Z</time>
      </trkpt>
      <trkpt lat="44.83403" lon="-0.24117">
        <ele>55.6</ele>
        <time>2020-09-09T14:09:44Z</time>
      </trkpt>
      <trkpt lat="44.83403" lon="-0.24118">
        <ele>55.5</ele>
        <time>2020-09-09T14:09:45Z</time>
      </trkpt>
      <trkpt lat="44.83403" lon="-0.2412">
        <ele>55.5</ele>
        <time>2020-09-09T14:09:47Z</time>
      </trkpt>
      <trkpt lat="44.83405" lon="-0.2412">
        <ele>55.4</ele>
        <time>2020-09-09T14:09:48Z</time>
      </trkpt>
      <trkpt lat="44.83407" lon="-0.24121">
        <ele>55.3</ele>
        <time>2020-09-09T14:09:50Z</time>
      </trkpt>
      <trkpt lat="44.83408" lon="-0.24121">
        <ele>55.3</ele>
        <time>2020-09-09T14:09:51Z</time>
      </trkpt>
      <trkpt lat="44.83408" lon="-0.24121">
        <ele>55.2</ele>
        <time>2020-09-09T14:09:54Z</time>
      </trkpt>
      <trkpt lat="44.83408" lon="-0.2412">
        <ele>55.2</ele>
        <time>2020-09-09T14:09:56Z</time>
      </trkpt>
      <trkpt lat="44.83407" lon="-0.24121">
        <ele>55.2</ele>
        <time>2020-09-09T14:09:57Z</time>
      </trkpt>
      <trkpt lat="44.83405" lon="-0.24122">
        <ele>55.1</ele>
        <time>2020-09-09T14:09:59Z</time>
      </trkpt>
      <trkpt lat="44.83404" lon="-0.24122">
        <ele>55.1</ele>
        <time>2020-09-09T14:10:00Z</time>
      </trkpt>
      <trkpt lat="44.83403" lon="-0.24123">
        <ele>55</ele>
        <time>2020-09-09T14:10:01Z</time>
      </trkpt>
      <trkpt lat="44.83402" lon="-0.24123">
        <ele>55</ele>
        <time>2020-09-09T14:10:02Z</time>
      </trkpt>
      <trkpt lat="44.83401" lon="-0.24123">
        <ele>54.9</ele>
        <time>2020-09-09T14:10:04Z</time>
      </trkpt>
      <trkpt lat="44.83402" lon="-0.24121">
        <ele>54.8</ele>
        <time>2020-09-09T14:10:06Z</time>
      </trkpt>
      <trkpt lat="44.83401" lon="-0.2412">
        <ele>54.8</ele>
        <time>2020-09-09T14:10:07Z</time>
      </trkpt>
      <trkpt lat="44.834" lon="-0.2412">
        <ele>54.8</ele>
        <time>2020-09-09T14:10:09Z</time>
      </trkpt>
      <trkpt lat="44.834" lon="-0.2412">
        <ele>54.7</ele>
        <time>2020-09-09T14:10:10Z</time>
      </trkpt>
      <trkpt lat="44.83399" lon="-0.2412">
        <ele>54.7</ele>
        <time>2020-09-09T14:10:11Z</time>
      </trkpt>
      <trkpt lat="44.83398" lon="-0.2412">
        <ele>54.7</ele>
        <time>2020-09-09T14:10:12Z</time>
      </trkpt>
      <trkpt lat="44.83396" lon="-0.2412">
        <ele>54.6</ele>
        <time>2020-09-09T14:10:14Z</time>
      </trkpt>
      <trkpt lat="44.83395" lon="-0.2412">
        <ele>54.5</ele>
        <time>2020-09-09T14:10:15Z</time>
      </trkpt>
      <trkpt lat="44.83394" lon="-0.24121">
        <ele>54.5</ele>
        <time>2020-09-09T14:10:16Z</time>
      </trkpt>
      <trkpt lat="44.83392" lon="-0.24121">
        <ele>54.4</ele>
        <time>2020-09-09T14:10:18Z</time>
      </trkpt>
      <trkpt lat="44.83391" lon="-0.24122">
        <ele>54.3</ele>
        <time>2020-09-09T14:10:19Z</time>
      </trkpt>
      <trkpt lat="44.83389" lon="-0.24122">
        <ele>54.3</ele>
        <time>2020-09-09T14:10:20Z</time>
      </trkpt>
      <trkpt lat="44.83388" lon="-0.24122">
        <ele>54.2</ele>
        <time>2020-09-09T14:10:21Z</time>
      </trkpt>
      <trkpt lat="44.83386" lon="-0.24122">
        <ele>54.2</ele>
        <time>2020-09-09T14:10:23Z</time>
      </trkpt>
      <trkpt lat="44.83384" lon="-0.24122">
        <ele>54.1</ele>
        <time>2020-09-09T14:10:24Z</time>
      </trkpt>
      <trkpt lat="44.83383" lon="-0.24122">
        <ele>54</ele>
        <time>2020-09-09T14:10:25Z</time>
      </trkpt>
      <trkpt lat="44.83382" lon="-0.24121">
        <ele>54</ele>
        <time>2020-09-09T14:10:26Z</time>
      </trkpt>
      <trkpt lat="44.8338" lon="-0.2412">
        <ele>53.9</ele>
        <time>2020-09-09T14:10:28Z</time>
      </trkpt>
      <trkpt lat="44.83379" lon="-0.24119">
        <ele>53.8</ele>
        <time>2020-09-09T14:10:29Z</time>
      </trkpt>
      <trkpt lat="44.83378" lon="-0.24118">
        <ele>53.8</ele>
        <time>2020-09-09T14:10:30Z</time>
      </trkpt>
      <trkpt lat="44.83375" lon="-0.24118">
        <ele>53.7</ele>
        <time>2020-09-09T14:10:32Z</time>
      </trkpt>
      <trkpt lat="44.83374" lon="-0.24118">
        <ele>53.6</ele>
        <time>2020-09-09T14:10:33Z</time>
      </trkpt>
      <trkpt lat="44.83373" lon="-0.24118">
        <ele>53.6</ele>
        <time>2020-09-09T14:10:35Z</time>
      </trkpt>
      <trkpt lat="44.83372" lon="-0.24118">
        <ele>53.6</ele>
        <time>2020-09-09T14:10:36Z</time>
      </trkpt>
      <trkpt lat="44.83371" lon="-0.24119">
        <ele>53.5</ele>
        <time>2020-09-09T14:10:37Z</time>
      </trkpt>
      <trkpt lat="44.83369" lon="-0.24119">
        <ele>53.5</ele>
        <time>2020-09-09T14:10:38Z</time>
      </trkpt>
      <trkpt lat="44.83367" lon="-0.2412">
        <ele>53.4</ele>
        <time>2020-09-09T14:10:39Z</time>
      </trkpt>
      <trkpt lat="44.83365" lon="-0.24121">
        <ele>53.3</ele>
        <time>2020-09-09T14:10:40Z</time>
      </trkpt>
      <trkpt lat="44.83365" lon="-0.24122">
        <ele>53.3</ele>
        <time>2020-09-09T14:10:41Z</time>
      </trkpt>
      <trkpt lat="44.83364" lon="-0.24122">
        <ele>53.2</ele>
        <time>2020-09-09T14:10:42Z</time>
      </trkpt>
      <trkpt lat="44.83363" lon="-0.24123">
        <ele>53.2</ele>
        <time>2020-09-09T14:10:43Z</time>
      </trkpt>
      <trkpt lat="44.83361" lon="-0.24123">
        <ele>53.1</ele>
        <time>2020-09-09T14:10:44Z</time>
      </trkpt>
      <trkpt lat="44.83359" lon="-0.24124">
        <ele>53.1</ele>
        <time>2020-09-09T14:10:46Z</time>
      </trkpt>
      <trkpt lat="44.83358" lon="-0.24124">
        <ele>53</ele>
        <time>2020-09-09T14:10:47Z</time>
      </trkpt>
      <trkpt lat="44.83357" lon="-0.24125">
        <ele>53</ele>
        <time>2020-09-09T14:10:48Z</time>
      </trkpt>
      <trkpt lat="44.83356" lon="-0.24125">
        <ele>53</ele>
        <time>2020-09-09T14:10:49Z</time>
      </trkpt>
      <trkpt lat="44.83355" lon="-0.24126">
        <ele>52.9</ele>
        <time>2020-09-09T14:10:51Z</time>
      </trkpt>
      <trkpt lat="44.83354" lon="-0.24127">
        <ele>52.9</ele>
        <time>2020-09-09T14:10:52Z</time>
      </trkpt>
      <trkpt lat="44.83353" lon="-0.24127">
        <ele>52.8</ele>
        <time>2020-09-09T14:10:53Z</time>
      </trkpt>
      <trkpt lat="44.83351" lon="-0.24129">
        <ele>52.8</ele>
        <time>2020-09-09T14:10:55Z</time>
      </trkpt>
      <trkpt lat="44.83349" lon="-0.24129">
        <ele>52.7</ele>
        <time>2020-09-09T14:10:57Z</time>
      </trkpt>
      <trkpt lat="44.83349" lon="-0.24129">
        <ele>52.7</ele>
        <time>2020-09-09T14:10:58Z</time>
      </trkpt>
      <trkpt lat="44.83347" lon="-0.24129">
        <ele>52.7</ele>
        <time>2020-09-09T14:10:59Z</time>
      </trkpt>
      <trkpt lat="44.83346" lon="-0.24128">
        <ele>52.7</ele>
        <time>2020-09-09T14:11:00Z</time>
      </trkpt>
      <trkpt lat="44.83345" lon="-0.24128">
        <ele>52.7</ele>
        <time>2020-09-09T14:11:02Z</time>
      </trkpt>
      <trkpt lat="44.83344" lon="-0.24127">
        <ele>52.6</ele>
        <time>2020-09-09T14:11:03Z</time>
      </trkpt>
      <trkpt lat="44.83344" lon="-0.24127">
        <ele>52.8</ele>
        <time>2020-09-09T14:11:04Z</time>
      </trkpt>
      <trkpt lat="44.83343" lon="-0.24126">
        <ele>52.8</ele>
        <time>2020-09-09T14:11:05Z</time>
      </trkpt>
      <trkpt lat="44.83342" lon="-0.24125">
        <ele>52.8</ele>
        <time>2020-09-09T14:11:06Z</time>
      </trkpt>
      <trkpt lat="44.8334" lon="-0.24123">
        <ele>52.7</ele>
        <time>2020-09-09T14:11:08Z</time>
      </trkpt>
      <trkpt lat="44.83339" lon="-0.24121">
        <ele>52.9</ele>
        <time>2020-09-09T14:11:09Z</time>
      </trkpt>
      <trkpt lat="44.83339" lon="-0.2412">
        <ele>52.9</ele>
        <time>2020-09-09T14:11:10Z</time>
      </trkpt>
      <trkpt lat="44.83338" lon="-0.24117">
        <ele>53</ele>
        <time>2020-09-09T14:11:11Z</time>
      </trkpt>
      <trkpt lat="44.83337" lon="-0.24116">
        <ele>53</ele>
        <time>2020-09-09T14:11:13Z</time>
      </trkpt>
      <trkpt lat="44.83337" lon="-0.24115">
        <ele>53</ele>
        <time>2020-09-09T14:11:14Z</time>
      </trkpt>
      <trkpt lat="44.83336" lon="-0.24112">
        <ele>53.2</ele>
        <time>2020-09-09T14:11:15Z</time>
      </trkpt>
      <trkpt lat="44.83336" lon="-0.2411">
        <ele>53.2</ele>
        <time>2020-09-09T14:11:16Z</time>
      </trkpt>
      <trkpt lat="44.83336" lon="-0.24109">
        <ele>53.3</ele>
        <time>2020-09-09T14:11:18Z</time>
      </trkpt>
      <trkpt lat="44.83336" lon="-0.24108">
        <ele>53.3</ele>
        <time>2020-09-09T14:11:19Z</time>
      </trkpt>
      <trkpt lat="44.83335" lon="-0.24106">
        <ele>53.3</ele>
        <time>2020-09-09T14:11:20Z</time>
      </trkpt>
      <trkpt lat="44.83335" lon="-0.24105">
        <ele>53.4</ele>
        <time>2020-09-09T14:11:21Z</time>
      </trkpt>
      <trkpt lat="44.83334" lon="-0.24103">
        <ele>53.4</ele>
        <time>2020-09-09T14:11:23Z</time>
      </trkpt>
      <trkpt lat="44.83334" lon="-0.24101">
        <ele>53.6</ele>
        <time>2020-09-09T14:11:24Z</time>
      </trkpt>
      <trkpt lat="44.83332" lon="-0.24098">
        <ele>53.6</ele>
        <time>2020-09-09T14:11:26Z</time>
      </trkpt>
      <trkpt lat="44.83332" lon="-0.24097">
        <ele>53.7</ele>
        <time>2020-09-09T14:11:27Z</time>
      </trkpt>
      <trkpt lat="44.83331" lon="-0.24096">
        <ele>53.7</ele>
        <time>2020-09-09T14:11:28Z</time>
      </trkpt>
      <trkpt lat="44.83331" lon="-0.24094">
        <ele>53.7</ele>
        <time>2020-09-09T14:11:29Z</time>
      </trkpt>
      <trkpt lat="44.8333" lon="-0.24092">
        <ele>53.9</ele>
        <time>2020-09-09T14:11:31Z</time>
      </trkpt>
      <trkpt lat="44.83329" lon="-0.24089">
        <ele>53.9</ele>
        <time>2020-09-09T14:11:32Z</time>
      </trkpt>
      <trkpt lat="44.83329" lon="-0.24087">
        <ele>54</ele>
        <time>2020-09-09T14:11:33Z</time>
      </trkpt>
      <trkpt lat="44.83329" lon="-0.24086">
        <ele>54</ele>
        <time>2020-09-09T14:11:34Z</time>
      </trkpt>
      <trkpt lat="44.83328" lon="-0.24084">
        <ele>54.2</ele>
        <time>2020-09-09T14:11:35Z</time>
      </trkpt>
      <trkpt lat="44.83327" lon="-0.24083">
        <ele>54.2</ele>
        <time>2020-09-09T14:11:36Z</time>
      </trkpt>
      <trkpt lat="44.83327" lon="-0.2408">
        <ele>54.2</ele>
        <time>2020-09-09T14:11:38Z</time>
      </trkpt>
      <trkpt lat="44.83327" lon="-0.24079">
        <ele>54.3</ele>
        <time>2020-09-09T14:11:39Z</time>
      </trkpt>
      <trkpt lat="44.83326" lon="-0.24077">
        <ele>54.3</ele>
        <time>2020-09-09T14:11:40Z</time>
      </trkpt>
      <trkpt lat="44.83326" lon="-0.24076">
        <ele>54.4</ele>
        <time>2020-09-09T14:11:41Z</time>
      </trkpt>
      <trkpt lat="44.83326" lon="-0.24074">
        <ele>54.5</ele>
        <time>2020-09-09T14:11:42Z</time>
      </trkpt>
      <trkpt lat="44.83325" lon="-0.24073">
        <ele>54.5</ele>
        <time>2020-09-09T14:11:43Z</time>
      </trkpt>
      <trkpt lat="44.83325" lon="-0.2407">
        <ele>54.6</ele>
        <time>2020-09-09T14:11:44Z</time>
      </trkpt>
      <trkpt lat="44.83324" lon="-0.24068">
        <ele>54.6</ele>
        <time>2020-09-09T14:11:46Z</time>
      </trkpt>
      <trkpt lat="44.83324" lon="-0.24067">
        <ele>54.6</ele>
        <time>2020-09-09T14:11:47Z</time>
      </trkpt>
      <trkpt lat="44.83324" lon="-0.24066">
        <ele>54.8</ele>
        <time>2020-09-09T14:11:48Z</time>
      </trkpt>
      <trkpt lat="44.83324" lon="-0.24065">
        <ele>54.8</ele>
        <time>2020-09-09T14:11:49Z</time>
      </trkpt>
      <trkpt lat="44.83324" lon="-0.24063">
        <ele>54.8</ele>
        <time>2020-09-09T14:11:50Z</time>
      </trkpt>
      <trkpt lat="44.83323" lon="-0.24062">
        <ele>54.9</ele>
        <time>2020-09-09T14:11:52Z</time>
      </trkpt>
      <trkpt lat="44.83323" lon="-0.2406">
        <ele>54.9</ele>
        <time>2020-09-09T14:11:53Z</time>
      </trkpt>
      <trkpt lat="44.83322" lon="-0.24059">
        <ele>54.9</ele>
        <time>2020-09-09T14:11:54Z</time>
      </trkpt>
      <trkpt lat="44.83322" lon="-0.24057">
        <ele>55.1</ele>
        <time>2020-09-09T14:11:55Z</time>
      </trkpt>
      <trkpt lat="44.83322" lon="-0.24056">
        <ele>55.1</ele>
        <time>2020-09-09T14:11:56Z</time>
      </trkpt>
      <trkpt lat="44.83321" lon="-0.24054">
        <ele>55.1</ele>
        <time>2020-09-09T14:11:58Z</time>
      </trkpt>
      <trkpt lat="44.8332" lon="-0.24053">
        <ele>55.2</ele>
        <time>2020-09-09T14:11:59Z</time>
      </trkpt>
      <trkpt lat="44.83319" lon="-0.24052">
        <ele>55.2</ele>
        <time>2020-09-09T14:12:00Z</time>
      </trkpt>
      <trkpt lat="44.83318" lon="-0.24052">
        <ele>55.2</ele>
        <time>2020-09-09T14:12:01Z</time>
      </trkpt>
      <trkpt lat="44.83316" lon="-0.24052">
        <ele>55.3</ele>
        <time>2020-09-09T14:12:02Z</time>
      </trkpt>
      <trkpt lat="44.83315" lon="-0.24053">
        <ele>55.3</ele>
        <time>2020-09-09T14:12:04Z</time>
      </trkpt>
      <trkpt lat="44.83314" lon="-0.24053">
        <ele>55.3</ele>
        <time>2020-09-09T14:12:05Z</time>
      </trkpt>
      <trkpt lat="44.83312" lon="-0.24054">
        <ele>55.3</ele>
        <time>2020-09-09T14:12:06Z</time>
      </trkpt>
      <trkpt lat="44.83311" lon="-0.24055">
        <ele>55.2</ele>
        <time>2020-09-09T14:12:07Z</time>
      </trkpt>
      <trkpt lat="44.83307" lon="-0.24057">
        <ele>55.3</ele>
        <time>2020-09-09T14:12:09Z</time>
      </trkpt>
      <trkpt lat="44.83306" lon="-0.24058">
        <ele>55.3</ele>
        <time>2020-09-09T14:12:10Z</time>
      </trkpt>
      <trkpt lat="44.83305" lon="-0.24059">
        <ele>55.2</ele>
        <time>2020-09-09T14:12:11Z</time>
      </trkpt>
      <trkpt lat="44.83304" lon="-0.2406">
        <ele>55.3</ele>
        <time>2020-09-09T14:12:12Z</time>
      </trkpt>
      <trkpt lat="44.83303" lon="-0.24061">
        <ele>55.3</ele>
        <time>2020-09-09T14:12:14Z</time>
      </trkpt>
      <trkpt lat="44.83301" lon="-0.24064">
        <ele>55.2</ele>
        <time>2020-09-09T14:12:15Z</time>
      </trkpt>
      <trkpt lat="44.833" lon="-0.24065">
        <ele>55.2</ele>
        <time>2020-09-09T14:12:16Z</time>
      </trkpt>
      <trkpt lat="44.83298" lon="-0.24067">
        <ele>55.3</ele>
        <time>2020-09-09T14:12:17Z</time>
      </trkpt>
      <trkpt lat="44.83296" lon="-0.24068">
        <ele>55.2</ele>
        <time>2020-09-09T14:12:19Z</time>
      </trkpt>
      <trkpt lat="44.83295" lon="-0.24069">
        <ele>55.3</ele>
        <time>2020-09-09T14:12:20Z</time>
      </trkpt>
      <trkpt lat="44.83294" lon="-0.2407">
        <ele>55.3</ele>
        <time>2020-09-09T14:12:21Z</time>
      </trkpt>
      <trkpt lat="44.83291" lon="-0.24072">
        <ele>55.3</ele>
        <time>2020-09-09T14:12:22Z</time>
      </trkpt>
      <trkpt lat="44.83289" lon="-0.24073">
        <ele>55.5</ele>
        <time>2020-09-09T14:12:23Z</time>
      </trkpt>
      <trkpt lat="44.83287" lon="-0.24075">
        <ele>55.5</ele>
        <time>2020-09-09T14:12:25Z</time>
      </trkpt>
      <trkpt lat="44.83286" lon="-0.24076">
        <ele>55.5</ele>
        <time>2020-09-09T14:12:26Z</time>
      </trkpt>
      <trkpt lat="44.83285" lon="-0.24077">
        <ele>55.5</ele>
        <time>2020-09-09T14:12:27Z</time>
      </trkpt>
      <trkpt lat="44.83284" lon="-0.24078">
        <ele>55.5</ele>
        <time>2020-09-09T14:12:29Z</time>
      </trkpt>
      <trkpt lat="44.83283" lon="-0.24079">
        <ele>55.6</ele>
        <time>2020-09-09T14:12:30Z</time>
      </trkpt>
      <trkpt lat="44.83282" lon="-0.2408">
        <ele>55.6</ele>
        <time>2020-09-09T14:12:31Z</time>
      </trkpt>
      <trkpt lat="44.83281" lon="-0.2408">
        <ele>55.5</ele>
        <time>2020-09-09T14:12:32Z</time>
      </trkpt>
      <trkpt lat="44.8328" lon="-0.24081">
        <ele>55.6</ele>
        <time>2020-09-09T14:12:33Z</time>
      </trkpt>
      <trkpt lat="44.83279" lon="-0.24083">
        <ele>55.6</ele>
        <time>2020-09-09T14:12:35Z</time>
      </trkpt>
      <trkpt lat="44.83278" lon="-0.24084">
        <ele>55.6</ele>
        <time>2020-09-09T14:12:36Z</time>
      </trkpt>
      <trkpt lat="44.83276" lon="-0.24084">
        <ele>55.8</ele>
        <time>2020-09-09T14:12:37Z</time>
      </trkpt>
      <trkpt lat="44.83276" lon="-0.24085">
        <ele>55.8</ele>
        <time>2020-09-09T14:12:38Z</time>
      </trkpt>
      <trkpt lat="44.83275" lon="-0.24085">
        <ele>55.8</ele>
        <time>2020-09-09T14:12:39Z</time>
      </trkpt>
      <trkpt lat="44.83274" lon="-0.24086">
        <ele>55.9</ele>
        <time>2020-09-09T14:12:41Z</time>
      </trkpt>
      <trkpt lat="44.83273" lon="-0.24087">
        <ele>55.9</ele>
        <time>2020-09-09T14:12:42Z</time>
      </trkpt>
      <trkpt lat="44.83272" lon="-0.24087">
        <ele>55.9</ele>
        <time>2020-09-09T14:12:43Z</time>
      </trkpt>
      <trkpt lat="44.83271" lon="-0.24088">
        <ele>56.1</ele>
        <time>2020-09-09T14:12:44Z</time>
      </trkpt>
      <trkpt lat="44.83269" lon="-0.24088">
        <ele>56.2</ele>
        <time>2020-09-09T14:12:46Z</time>
      </trkpt>
      <trkpt lat="44.83268" lon="-0.24087">
        <ele>56.3</ele>
        <time>2020-09-09T14:12:47Z</time>
      </trkpt>
      <trkpt lat="44.83267" lon="-0.24085">
        <ele>56.3</ele>
        <time>2020-09-09T14:12:49Z</time>
      </trkpt>
      <trkpt lat="44.83266" lon="-0.24084">
        <ele>56.5</ele>
        <time>2020-09-09T14:12:50Z</time>
      </trkpt>
      <trkpt lat="44.83265" lon="-0.24082">
        <ele>56.5</ele>
        <time>2020-09-09T14:12:51Z</time>
      </trkpt>
      <trkpt lat="44.83265" lon="-0.2408">
        <ele>56.6</ele>
        <time>2020-09-09T14:12:53Z</time>
      </trkpt>
      <trkpt lat="44.83264" lon="-0.24079">
        <ele>56.8</ele>
        <time>2020-09-09T14:12:54Z</time>
      </trkpt>
      <trkpt lat="44.83263" lon="-0.24077">
        <ele>56.8</ele>
        <time>2020-09-09T14:12:55Z</time>
      </trkpt>
      <trkpt lat="44.83262" lon="-0.24073">
        <ele>57.1</ele>
        <time>2020-09-09T14:12:56Z</time>
      </trkpt>
      <trkpt lat="44.83261" lon="-0.24072">
        <ele>57.1</ele>
        <time>2020-09-09T14:12:57Z</time>
      </trkpt>
      <trkpt lat="44.83261" lon="-0.24071">
        <ele>57.1</ele>
        <time>2020-09-09T14:12:58Z</time>
      </trkpt>
      <trkpt lat="44.8326" lon="-0.2407">
        <ele>57.2</ele>
        <time>2020-09-09T14:13:00Z</time>
      </trkpt>
      <trkpt lat="44.8326" lon="-0.24069">
        <ele>57.2</ele>
        <time>2020-09-09T14:13:01Z</time>
      </trkpt>
      <trkpt lat="44.83259" lon="-0.24066">
        <ele>57.5</ele>
        <time>2020-09-09T14:13:02Z</time>
      </trkpt>
      <trkpt lat="44.83257" lon="-0.24064">
        <ele>57.5</ele>
        <time>2020-09-09T14:13:04Z</time>
      </trkpt>
      <trkpt lat="44.83256" lon="-0.24063">
        <ele>57.5</ele>
        <time>2020-09-09T14:13:05Z</time>
      </trkpt>
      <trkpt lat="44.83256" lon="-0.24062">
        <ele>57.7</ele>
        <time>2020-09-09T14:13:06Z</time>
      </trkpt>
      <trkpt lat="44.83255" lon="-0.24061">
        <ele>57.8</ele>
        <time>2020-09-09T14:13:08Z</time>
      </trkpt>
      <trkpt lat="44.83254" lon="-0.24061">
        <ele>57.8</ele>
        <time>2020-09-09T14:13:09Z</time>
      </trkpt>
      <trkpt lat="44.83254" lon="-0.24059">
        <ele>57.8</ele>
        <time>2020-09-09T14:13:10Z</time>
      </trkpt>
      <trkpt lat="44.83253" lon="-0.24059">
        <ele>58</ele>
        <time>2020-09-09T14:13:11Z</time>
      </trkpt>
      <trkpt lat="44.83252" lon="-0.24057">
        <ele>58.1</ele>
        <time>2020-09-09T14:13:12Z</time>
      </trkpt>
      <trkpt lat="44.83252" lon="-0.24056">
        <ele>58.1</ele>
        <time>2020-09-09T14:13:14Z</time>
      </trkpt>
      <trkpt lat="44.83251" lon="-0.24055">
        <ele>58.2</ele>
        <time>2020-09-09T14:13:15Z</time>
      </trkpt>
      <trkpt lat="44.8325" lon="-0.24054">
        <ele>58.3</ele>
        <time>2020-09-09T14:13:16Z</time>
      </trkpt>
      <trkpt lat="44.83249" lon="-0.24052">
        <ele>58.5</ele>
        <time>2020-09-09T14:13:17Z</time>
      </trkpt>
      <trkpt lat="44.83248" lon="-0.2405">
        <ele>58.6</ele>
        <time>2020-09-09T14:13:19Z</time>
      </trkpt>
      <trkpt lat="44.83247" lon="-0.24049">
        <ele>58.9</ele>
        <time>2020-09-09T14:13:20Z</time>
      </trkpt>
      <trkpt lat="44.83246" lon="-0.24048">
        <ele>58.9</ele>
        <time>2020-09-09T14:13:21Z</time>
      </trkpt>
      <trkpt lat="44.83245" lon="-0.24046">
        <ele>58.9</ele>
        <time>2020-09-09T14:13:23Z</time>
      </trkpt>
      <trkpt lat="44.83244" lon="-0.24044">
        <ele>59.1</ele>
        <time>2020-09-09T14:13:24Z</time>
      </trkpt>
      <trkpt lat="44.83243" lon="-0.24043">
        <ele>59.1</ele>
        <time>2020-09-09T14:13:25Z</time>
      </trkpt>
      <trkpt lat="44.83242" lon="-0.24042">
        <ele>59.1</ele>
        <time>2020-09-09T14:13:26Z</time>
      </trkpt>
      <trkpt lat="44.83242" lon="-0.24041">
        <ele>59.2</ele>
        <time>2020-09-09T14:13:27Z</time>
      </trkpt>
      <trkpt lat="44.8324" lon="-0.2404">
        <ele>59.4</ele>
        <time>2020-09-09T14:13:29Z</time>
      </trkpt>
      <trkpt lat="44.8324" lon="-0.24039">
        <ele>59.4</ele>
        <time>2020-09-09T14:13:30Z</time>
      </trkpt>
      <trkpt lat="44.83239" lon="-0.24038">
        <ele>59.5</ele>
        <time>2020-09-09T14:13:31Z</time>
      </trkpt>
      <trkpt lat="44.83238" lon="-0.24037">
        <ele>59.5</ele>
        <time>2020-09-09T14:13:32Z</time>
      </trkpt>
      <trkpt lat="44.83237" lon="-0.24036">
        <ele>59.7</ele>
        <time>2020-09-09T14:13:33Z</time>
      </trkpt>
      <trkpt lat="44.83236" lon="-0.24035">
        <ele>59.8</ele>
        <time>2020-09-09T14:13:35Z</time>
      </trkpt>
      <trkpt lat="44.83236" lon="-0.24033">
        <ele>59.8</ele>
        <time>2020-09-09T14:13:36Z</time>
      </trkpt>
      <trkpt lat="44.83233" lon="-0.2403">
        <ele>60</ele>
        <time>2020-09-09T14:13:37Z</time>
      </trkpt>
      <trkpt lat="44.83233" lon="-0.24029">
        <ele>60</ele>
        <time>2020-09-09T14:13:38Z</time>
      </trkpt>
      <trkpt lat="44.83232" lon="-0.24028">
        <ele>60.1</ele>
        <time>2020-09-09T14:13:39Z</time>
      </trkpt>
      <trkpt lat="44.83231" lon="-0.24026">
        <ele>60.3</ele>
        <time>2020-09-09T14:13:40Z</time>
      </trkpt>
      <trkpt lat="44.8323" lon="-0.24024">
        <ele>60.3</ele>
        <time>2020-09-09T14:13:42Z</time>
      </trkpt>
      <trkpt lat="44.8323" lon="-0.24023">
        <ele>60.4</ele>
        <time>2020-09-09T14:13:43Z</time>
      </trkpt>
      <trkpt lat="44.83229" lon="-0.24022">
        <ele>60.4</ele>
        <time>2020-09-09T14:13:44Z</time>
      </trkpt>
      <trkpt lat="44.83228" lon="-0.2402">
        <ele>60.6</ele>
        <time>2020-09-09T14:13:46Z</time>
      </trkpt>
      <trkpt lat="44.83227" lon="-0.24019">
        <ele>60.7</ele>
        <time>2020-09-09T14:13:47Z</time>
      </trkpt>
      <trkpt lat="44.83225" lon="-0.24016">
        <ele>60.9</ele>
        <time>2020-09-09T14:13:49Z</time>
      </trkpt>
      <trkpt lat="44.83224" lon="-0.24014">
        <ele>61</ele>
        <time>2020-09-09T14:13:51Z</time>
      </trkpt>
      <trkpt lat="44.83223" lon="-0.24012">
        <ele>61</ele>
        <time>2020-09-09T14:13:52Z</time>
      </trkpt>
      <trkpt lat="44.83223" lon="-0.24011">
        <ele>61.1</ele>
        <time>2020-09-09T14:13:54Z</time>
      </trkpt>
      <trkpt lat="44.83222" lon="-0.24009">
        <ele>61.3</ele>
        <time>2020-09-09T14:13:55Z</time>
      </trkpt>
      <trkpt lat="44.83221" lon="-0.24007">
        <ele>61.3</ele>
        <time>2020-09-09T14:13:57Z</time>
      </trkpt>
      <trkpt lat="44.8322" lon="-0.24007">
        <ele>61.4</ele>
        <time>2020-09-09T14:13:59Z</time>
      </trkpt>
      <trkpt lat="44.83219" lon="-0.24006">
        <ele>61.6</ele>
        <time>2020-09-09T14:14:00Z</time>
      </trkpt>
      <trkpt lat="44.83218" lon="-0.24005">
        <ele>61.6</ele>
        <time>2020-09-09T14:14:01Z</time>
      </trkpt>
      <trkpt lat="44.83218" lon="-0.24004">
        <ele>61.7</ele>
        <time>2020-09-09T14:14:02Z</time>
      </trkpt>
      <trkpt lat="44.83217" lon="-0.24003">
        <ele>61.7</ele>
        <time>2020-09-09T14:14:03Z</time>
      </trkpt>
      <trkpt lat="44.83215" lon="-0.24">
        <ele>62</ele>
        <time>2020-09-09T14:14:05Z</time>
      </trkpt>
      <trkpt lat="44.83214" lon="-0.23999">
        <ele>62</ele>
        <time>2020-09-09T14:14:06Z</time>
      </trkpt>
      <trkpt lat="44.83214" lon="-0.23998">
        <ele>62.1</ele>
        <time>2020-09-09T14:14:07Z</time>
      </trkpt>
      <trkpt lat="44.83212" lon="-0.23996">
        <ele>62.3</ele>
        <time>2020-09-09T14:14:09Z</time>
      </trkpt>
      <trkpt lat="44.83211" lon="-0.23994">
        <ele>62.4</ele>
        <time>2020-09-09T14:14:10Z</time>
      </trkpt>
      <trkpt lat="44.8321" lon="-0.23993">
        <ele>62.6</ele>
        <time>2020-09-09T14:14:11Z</time>
      </trkpt>
      <trkpt lat="44.8321" lon="-0.23992">
        <ele>62.6</ele>
        <time>2020-09-09T14:14:12Z</time>
      </trkpt>
      <trkpt lat="44.83209" lon="-0.2399">
        <ele>62.6</ele>
        <time>2020-09-09T14:14:14Z</time>
      </trkpt>
      <trkpt lat="44.83208" lon="-0.23989">
        <ele>62.7</ele>
        <time>2020-09-09T14:14:15Z</time>
      </trkpt>
      <trkpt lat="44.83207" lon="-0.23986">
        <ele>62.9</ele>
        <time>2020-09-09T14:14:17Z</time>
      </trkpt>
      <trkpt lat="44.83207" lon="-0.23985">
        <ele>63</ele>
        <time>2020-09-09T14:14:18Z</time>
      </trkpt>
      <trkpt lat="44.83206" lon="-0.23982">
        <ele>63</ele>
        <time>2020-09-09T14:14:20Z</time>
      </trkpt>
      <trkpt lat="44.83206" lon="-0.23981">
        <ele>63.1</ele>
        <time>2020-09-09T14:14:21Z</time>
      </trkpt>
      <trkpt lat="44.83205" lon="-0.2398">
        <ele>63.2</ele>
        <time>2020-09-09T14:14:22Z</time>
      </trkpt>
      <trkpt lat="44.83205" lon="-0.23979">
        <ele>63.2</ele>
        <time>2020-09-09T14:14:23Z</time>
      </trkpt>
      <trkpt lat="44.83204" lon="-0.23977">
        <ele>63.4</ele>
        <time>2020-09-09T14:14:25Z</time>
      </trkpt>
      <trkpt lat="44.83204" lon="-0.23976">
        <ele>63.5</ele>
        <time>2020-09-09T14:14:26Z</time>
      </trkpt>
      <trkpt lat="44.83203" lon="-0.23974">
        <ele>63.6</ele>
        <time>2020-09-09T14:14:28Z</time>
      </trkpt>
      <trkpt lat="44.83202" lon="-0.23972">
        <ele>63.6</ele>
        <time>2020-09-09T14:14:30Z</time>
      </trkpt>
      <trkpt lat="44.83201" lon="-0.23971">
        <ele>63.7</ele>
        <time>2020-09-09T14:14:31Z</time>
      </trkpt>
      <trkpt lat="44.83201" lon="-0.2397">
        <ele>63.8</ele>
        <time>2020-09-09T14:14:33Z</time>
      </trkpt>
      <trkpt lat="44.832" lon="-0.23968">
        <ele>63.9</ele>
        <time>2020-09-09T14:14:34Z</time>
      </trkpt>
      <trkpt lat="44.83199" lon="-0.23968">
        <ele>64</ele>
        <time>2020-09-09T14:14:35Z</time>
      </trkpt>
      <trkpt lat="44.83198" lon="-0.23966">
        <ele>64.2</ele>
        <time>2020-09-09T14:14:37Z</time>
      </trkpt>
      <trkpt lat="44.83198" lon="-0.23965">
        <ele>64.2</ele>
        <time>2020-09-09T14:14:38Z</time>
      </trkpt>
      <trkpt lat="44.83197" lon="-0.23963">
        <ele>64.3</ele>
        <time>2020-09-09T14:14:39Z</time>
      </trkpt>
      <trkpt lat="44.83196" lon="-0.23962">
        <ele>64.4</ele>
        <time>2020-09-09T14:14:40Z</time>
      </trkpt>
      <trkpt lat="44.83195" lon="-0.23961">
        <ele>64.6</ele>
        <time>2020-09-09T14:14:41Z</time>
      </trkpt>
      <trkpt lat="44.83193" lon="-0.23958">
        <ele>64.6</ele>
        <time>2020-09-09T14:14:43Z</time>
      </trkpt>
      <trkpt lat="44.83193" lon="-0.23957">
        <ele>64.7</ele>
        <time>2020-09-09T14:14:44Z</time>
      </trkpt>
      <trkpt lat="44.83192" lon="-0.23955">
        <ele>64.8</ele>
        <time>2020-09-09T14:14:45Z</time>
      </trkpt>
      <trkpt lat="44.8319" lon="-0.23953">
        <ele>64.9</ele>
        <time>2020-09-09T14:14:47Z</time>
      </trkpt>
      <trkpt lat="44.83189" lon="-0.23951">
        <ele>65.1</ele>
        <time>2020-09-09T14:14:48Z</time>
      </trkpt>
      <trkpt lat="44.83188" lon="-0.23949">
        <ele>65.1</ele>
        <time>2020-09-09T14:14:50Z</time>
      </trkpt>
      <trkpt lat="44.83188" lon="-0.23948">
        <ele>65.2</ele>
        <time>2020-09-09T14:14:51Z</time>
      </trkpt>
      <trkpt lat="44.83186" lon="-0.23946">
        <ele>65.2</ele>
        <time>2020-09-09T14:14:53Z</time>
      </trkpt>
      <trkpt lat="44.83186" lon="-0.23945">
        <ele>65.4</ele>
        <time>2020-09-09T14:14:54Z</time>
      </trkpt>
      <trkpt lat="44.83185" lon="-0.23943">
        <ele>65.4</ele>
        <time>2020-09-09T14:14:55Z</time>
      </trkpt>
      <trkpt lat="44.83184" lon="-0.23942">
        <ele>65.4</ele>
        <time>2020-09-09T14:14:56Z</time>
      </trkpt>
      <trkpt lat="44.83183" lon="-0.23941">
        <ele>65.5</ele>
        <time>2020-09-09T14:14:57Z</time>
      </trkpt>
      <trkpt lat="44.83183" lon="-0.23941">
        <ele>65.6</ele>
        <time>2020-09-09T14:14:59Z</time>
      </trkpt>
      <trkpt lat="44.83182" lon="-0.23939">
        <ele>65.6</ele>
        <time>2020-09-09T14:15:00Z</time>
      </trkpt>
      <trkpt lat="44.83181" lon="-0.23937">
        <ele>65.7</ele>
        <time>2020-09-09T14:15:02Z</time>
      </trkpt>
      <trkpt lat="44.8318" lon="-0.23936">
        <ele>65.7</ele>
        <time>2020-09-09T14:15:03Z</time>
      </trkpt>
      <trkpt lat="44.8318" lon="-0.23934">
        <ele>65.8</ele>
        <time>2020-09-09T14:15:04Z</time>
      </trkpt>
      <trkpt lat="44.83179" lon="-0.23932">
        <ele>65.9</ele>
        <time>2020-09-09T14:15:06Z</time>
      </trkpt>
      <trkpt lat="44.83179" lon="-0.23931">
        <ele>65.9</ele>
        <time>2020-09-09T14:15:07Z</time>
      </trkpt>
      <trkpt lat="44.83178" lon="-0.2393">
        <ele>65.9</ele>
        <time>2020-09-09T14:15:08Z</time>
      </trkpt>
      <trkpt lat="44.83177" lon="-0.23928">
        <ele>66</ele>
        <time>2020-09-09T14:15:10Z</time>
      </trkpt>
      <trkpt lat="44.83177" lon="-0.23927">
        <ele>66.1</ele>
        <time>2020-09-09T14:15:11Z</time>
      </trkpt>
      <trkpt lat="44.83176" lon="-0.23926">
        <ele>66.1</ele>
        <time>2020-09-09T14:15:12Z</time>
      </trkpt>
      <trkpt lat="44.83175" lon="-0.23925">
        <ele>66.2</ele>
        <time>2020-09-09T14:15:13Z</time>
      </trkpt>
      <trkpt lat="44.83173" lon="-0.23923">
        <ele>66.3</ele>
        <time>2020-09-09T14:15:15Z</time>
      </trkpt>
      <trkpt lat="44.83173" lon="-0.23922">
        <ele>66.3</ele>
        <time>2020-09-09T14:15:16Z</time>
      </trkpt>
      <trkpt lat="44.83172" lon="-0.23922">
        <ele>66.3</ele>
        <time>2020-09-09T14:15:17Z</time>
      </trkpt>
      <trkpt lat="44.83172" lon="-0.23921">
        <ele>66.4</ele>
        <time>2020-09-09T14:15:19Z</time>
      </trkpt>
      <trkpt lat="44.83171" lon="-0.2392">
        <ele>66.4</ele>
        <time>2020-09-09T14:15:20Z</time>
      </trkpt>
      <trkpt lat="44.8317" lon="-0.23919">
        <ele>66.6</ele>
        <time>2020-09-09T14:15:21Z</time>
      </trkpt>
      <trkpt lat="44.8317" lon="-0.23918">
        <ele>66.6</ele>
        <time>2020-09-09T14:15:22Z</time>
      </trkpt>
      <trkpt lat="44.83168" lon="-0.23916">
        <ele>66.6</ele>
        <time>2020-09-09T14:15:23Z</time>
      </trkpt>
      <trkpt lat="44.83168" lon="-0.23915">
        <ele>66.7</ele>
        <time>2020-09-09T14:15:25Z</time>
      </trkpt>
      <trkpt lat="44.83168" lon="-0.23914">
        <ele>66.8</ele>
        <time>2020-09-09T14:15:26Z</time>
      </trkpt>
      <trkpt lat="44.83167" lon="-0.23914">
        <ele>66.8</ele>
        <time>2020-09-09T14:15:27Z</time>
      </trkpt>
      <trkpt lat="44.83166" lon="-0.23912">
        <ele>66.9</ele>
        <time>2020-09-09T14:15:28Z</time>
      </trkpt>
      <trkpt lat="44.83166" lon="-0.23911">
        <ele>66.9</ele>
        <time>2020-09-09T14:15:29Z</time>
      </trkpt>
      <trkpt lat="44.83165" lon="-0.2391">
        <ele>66.9</ele>
        <time>2020-09-09T14:15:30Z</time>
      </trkpt>
      <trkpt lat="44.83164" lon="-0.23908">
        <ele>67.1</ele>
        <time>2020-09-09T14:15:32Z</time>
      </trkpt>
      <trkpt lat="44.83163" lon="-0.23906">
        <ele>67.2</ele>
        <time>2020-09-09T14:15:33Z</time>
      </trkpt>
      <trkpt lat="44.83163" lon="-0.23905">
        <ele>67.2</ele>
        <time>2020-09-09T14:15:34Z</time>
      </trkpt>
      <trkpt lat="44.83162" lon="-0.23904">
        <ele>67.2</ele>
        <time>2020-09-09T14:15:35Z</time>
      </trkpt>
      <trkpt lat="44.83161" lon="-0.23902">
        <ele>67.4</ele>
        <time>2020-09-09T14:15:36Z</time>
      </trkpt>
      <trkpt lat="44.83161" lon="-0.23901">
        <ele>67.4</ele>
        <time>2020-09-09T14:15:37Z</time>
      </trkpt>
      <trkpt lat="44.83159" lon="-0.23899">
        <ele>67.5</ele>
        <time>2020-09-09T14:15:39Z</time>
      </trkpt>
      <trkpt lat="44.83159" lon="-0.23897">
        <ele>67.6</ele>
        <time>2020-09-09T14:15:41Z</time>
      </trkpt>
      <trkpt lat="44.83158" lon="-0.23896">
        <ele>67.7</ele>
        <time>2020-09-09T14:15:42Z</time>
      </trkpt>
      <trkpt lat="44.83157" lon="-0.23894">
        <ele>67.7</ele>
        <time>2020-09-09T14:15:43Z</time>
      </trkpt>
      <trkpt lat="44.83157" lon="-0.23894">
        <ele>67.8</ele>
        <time>2020-09-09T14:15:44Z</time>
      </trkpt>
      <trkpt lat="44.83156" lon="-0.23893">
        <ele>67.8</ele>
        <time>2020-09-09T14:15:45Z</time>
      </trkpt>
      <trkpt lat="44.83156" lon="-0.23891">
        <ele>67.8</ele>
        <time>2020-09-09T14:15:46Z</time>
      </trkpt>
      <trkpt lat="44.83155" lon="-0.2389">
        <ele>68</ele>
        <time>2020-09-09T14:15:48Z</time>
      </trkpt>
      <trkpt lat="44.83154" lon="-0.23888">
        <ele>68</ele>
        <time>2020-09-09T14:15:49Z</time>
      </trkpt>
      <trkpt lat="44.83153" lon="-0.23887">
        <ele>68</ele>
        <time>2020-09-09T14:15:50Z</time>
      </trkpt>
      <trkpt lat="44.83153" lon="-0.23887">
        <ele>68.1</ele>
        <time>2020-09-09T14:15:51Z</time>
      </trkpt>
      <trkpt lat="44.83152" lon="-0.23885">
        <ele>68.3</ele>
        <time>2020-09-09T14:15:52Z</time>
      </trkpt>
      <trkpt lat="44.83151" lon="-0.23884">
        <ele>68.3</ele>
        <time>2020-09-09T14:15:53Z</time>
      </trkpt>
      <trkpt lat="44.83151" lon="-0.23883">
        <ele>68.3</ele>
        <time>2020-09-09T14:15:54Z</time>
      </trkpt>
      <trkpt lat="44.8315" lon="-0.23882">
        <ele>68.3</ele>
        <time>2020-09-09T14:15:55Z</time>
      </trkpt>
      <trkpt lat="44.8315" lon="-0.23882">
        <ele>68.4</ele>
        <time>2020-09-09T14:15:56Z</time>
      </trkpt>
      <trkpt lat="44.83149" lon="-0.2388">
        <ele>68.5</ele>
        <time>2020-09-09T14:15:58Z</time>
      </trkpt>
      <trkpt lat="44.83149" lon="-0.23879">
        <ele>68.6</ele>
        <time>2020-09-09T14:15:59Z</time>
      </trkpt>
      <trkpt lat="44.83148" lon="-0.23877">
        <ele>68.7</ele>
        <time>2020-09-09T14:16:00Z</time>
      </trkpt>
      <trkpt lat="44.83146" lon="-0.23874">
        <ele>68.9</ele>
        <time>2020-09-09T14:16:02Z</time>
      </trkpt>
      <trkpt lat="44.83145" lon="-0.23871">
        <ele>68.9</ele>
        <time>2020-09-09T14:16:03Z</time>
      </trkpt>
      <trkpt lat="44.83144" lon="-0.2387">
        <ele>68.9</ele>
        <time>2020-09-09T14:16:04Z</time>
      </trkpt>
      <trkpt lat="44.83143" lon="-0.23869">
        <ele>69.2</ele>
        <time>2020-09-09T14:16:05Z</time>
      </trkpt>
      <trkpt lat="44.83142" lon="-0.23867">
        <ele>69.2</ele>
        <time>2020-09-09T14:16:07Z</time>
      </trkpt>
      <trkpt lat="44.83141" lon="-0.23866">
        <ele>69.2</ele>
        <time>2020-09-09T14:16:08Z</time>
      </trkpt>
      <trkpt lat="44.8314" lon="-0.23865">
        <ele>69.5</ele>
        <time>2020-09-09T14:16:10Z</time>
      </trkpt>
      <trkpt lat="44.83139" lon="-0.23863">
        <ele>69.5</ele>
        <time>2020-09-09T14:16:11Z</time>
      </trkpt>
      <trkpt lat="44.83137" lon="-0.23861">
        <ele>69.8</ele>
        <time>2020-09-09T14:16:13Z</time>
      </trkpt>
      <trkpt lat="44.83136" lon="-0.23859">
        <ele>69.8</ele>
        <time>2020-09-09T14:16:14Z</time>
      </trkpt>
      <trkpt lat="44.83135" lon="-0.23856">
        <ele>70</ele>
        <time>2020-09-09T14:16:16Z</time>
      </trkpt>
      <trkpt lat="44.83134" lon="-0.23855">
        <ele>70.1</ele>
        <time>2020-09-09T14:16:17Z</time>
      </trkpt>
      <trkpt lat="44.83134" lon="-0.23854">
        <ele>70.1</ele>
        <time>2020-09-09T14:16:18Z</time>
      </trkpt>
      <trkpt lat="44.83132" lon="-0.23851">
        <ele>70.3</ele>
        <time>2020-09-09T14:16:20Z</time>
      </trkpt>
      <trkpt lat="44.83132" lon="-0.23849">
        <ele>70.3</ele>
        <time>2020-09-09T14:16:21Z</time>
      </trkpt>
      <trkpt lat="44.83131" lon="-0.23849">
        <ele>70.4</ele>
        <time>2020-09-09T14:16:23Z</time>
      </trkpt>
      <trkpt lat="44.8313" lon="-0.23847">
        <ele>70.5</ele>
        <time>2020-09-09T14:16:24Z</time>
      </trkpt>
      <trkpt lat="44.83129" lon="-0.23846">
        <ele>70.5</ele>
        <time>2020-09-09T14:16:25Z</time>
      </trkpt>
      <trkpt lat="44.83128" lon="-0.23843">
        <ele>70.8</ele>
        <time>2020-09-09T14:16:27Z</time>
      </trkpt>
      <trkpt lat="44.83127" lon="-0.23842">
        <ele>70.8</ele>
        <time>2020-09-09T14:16:28Z</time>
      </trkpt>
      <trkpt lat="44.83127" lon="-0.2384">
        <ele>70.8</ele>
        <time>2020-09-09T14:16:29Z</time>
      </trkpt>
      <trkpt lat="44.83126" lon="-0.23838">
        <ele>70.9</ele>
        <time>2020-09-09T14:16:31Z</time>
      </trkpt>
      <trkpt lat="44.83124" lon="-0.23836">
        <ele>71.1</ele>
        <time>2020-09-09T14:16:32Z</time>
      </trkpt>
      <trkpt lat="44.83123" lon="-0.23835">
        <ele>71.2</ele>
        <time>2020-09-09T14:16:33Z</time>
      </trkpt>
      <trkpt lat="44.83122" lon="-0.23832">
        <ele>71.3</ele>
        <time>2020-09-09T14:16:35Z</time>
      </trkpt>
      <trkpt lat="44.83121" lon="-0.23831">
        <ele>71.4</ele>
        <time>2020-09-09T14:16:36Z</time>
      </trkpt>
      <trkpt lat="44.8312" lon="-0.23829">
        <ele>71.5</ele>
        <time>2020-09-09T14:16:38Z</time>
      </trkpt>
      <trkpt lat="44.83119" lon="-0.23827">
        <ele>71.6</ele>
        <time>2020-09-09T14:16:40Z</time>
      </trkpt>
      <trkpt lat="44.83118" lon="-0.23826">
        <ele>71.7</ele>
        <time>2020-09-09T14:16:41Z</time>
      </trkpt>
      <trkpt lat="44.83117" lon="-0.23825">
        <ele>71.7</ele>
        <time>2020-09-09T14:16:42Z</time>
      </trkpt>
      <trkpt lat="44.83116" lon="-0.23822">
        <ele>72</ele>
        <time>2020-09-09T14:16:44Z</time>
      </trkpt>
      <trkpt lat="44.83115" lon="-0.23821">
        <ele>72</ele>
        <time>2020-09-09T14:16:45Z</time>
      </trkpt>
      <trkpt lat="44.83115" lon="-0.2382">
        <ele>72</ele>
        <time>2020-09-09T14:16:47Z</time>
      </trkpt>
      <trkpt lat="44.83114" lon="-0.23819">
        <ele>72.1</ele>
        <time>2020-09-09T14:16:48Z</time>
      </trkpt>
      <trkpt lat="44.83114" lon="-0.23818">
        <ele>72.2</ele>
        <time>2020-09-09T14:16:49Z</time>
      </trkpt>
      <trkpt lat="44.83113" lon="-0.23817">
        <ele>72.3</ele>
        <time>2020-09-09T14:16:50Z</time>
      </trkpt>
      <trkpt lat="44.83112" lon="-0.23815">
        <ele>72.3</ele>
        <time>2020-09-09T14:16:51Z</time>
      </trkpt>
      <trkpt lat="44.83111" lon="-0.23814">
        <ele>72.5</ele>
        <time>2020-09-09T14:16:52Z</time>
      </trkpt>
      <trkpt lat="44.8311" lon="-0.23812">
        <ele>72.5</ele>
        <time>2020-09-09T14:16:54Z</time>
      </trkpt>
      <trkpt lat="44.8311" lon="-0.2381">
        <ele>72.6</ele>
        <time>2020-09-09T14:16:55Z</time>
      </trkpt>
      <trkpt lat="44.83109" lon="-0.23808">
        <ele>72.8</ele>
        <time>2020-09-09T14:16:57Z</time>
      </trkpt>
      <trkpt lat="44.83108" lon="-0.23807">
        <ele>72.8</ele>
        <time>2020-09-09T14:16:59Z</time>
      </trkpt>
      <trkpt lat="44.83107" lon="-0.23805">
        <ele>72.9</ele>
        <time>2020-09-09T14:17:00Z</time>
      </trkpt>
      <trkpt lat="44.83106" lon="-0.23805">
        <ele>73</ele>
        <time>2020-09-09T14:17:02Z</time>
      </trkpt>
      <trkpt lat="44.83104" lon="-0.23804">
        <ele>73.1</ele>
        <time>2020-09-09T14:17:03Z</time>
      </trkpt>
      <trkpt lat="44.83104" lon="-0.23805">
        <ele>73.2</ele>
        <time>2020-09-09T14:17:04Z</time>
      </trkpt>
      <trkpt lat="44.83103" lon="-0.23805">
        <ele>73.1</ele>
        <time>2020-09-09T14:17:05Z</time>
      </trkpt>
      <trkpt lat="44.83101" lon="-0.23806">
        <ele>73.3</ele>
        <time>2020-09-09T14:17:06Z</time>
      </trkpt>
      <trkpt lat="44.831" lon="-0.23805">
        <ele>73.4</ele>
        <time>2020-09-09T14:17:08Z</time>
      </trkpt>
      <trkpt lat="44.831" lon="-0.23804">
        <ele>73.4</ele>
        <time>2020-09-09T14:17:09Z</time>
      </trkpt>
      <trkpt lat="44.83099" lon="-0.23804">
        <ele>73.4</ele>
        <time>2020-09-09T14:17:10Z</time>
      </trkpt>
      <trkpt lat="44.83099" lon="-0.23804">
        <ele>73.4</ele>
        <time>2020-09-09T14:17:11Z</time>
      </trkpt>
      <trkpt lat="44.83099" lon="-0.23803">
        <ele>73.5</ele>
        <time>2020-09-09T14:17:12Z</time>
      </trkpt>
      <trkpt lat="44.83098" lon="-0.23803">
        <ele>73.5</ele>
        <time>2020-09-09T14:17:14Z</time>
      </trkpt>
      <trkpt lat="44.83098" lon="-0.23802">
        <ele>73.6</ele>
        <time>2020-09-09T14:17:15Z</time>
      </trkpt>
      <trkpt lat="44.83098" lon="-0.23801">
        <ele>73.7</ele>
        <time>2020-09-09T14:17:17Z</time>
      </trkpt>
      <trkpt lat="44.83097" lon="-0.238">
        <ele>73.8</ele>
        <time>2020-09-09T14:17:18Z</time>
      </trkpt>
      <trkpt lat="44.83096" lon="-0.23799">
        <ele>73.8</ele>
        <time>2020-09-09T14:17:19Z</time>
      </trkpt>
      <trkpt lat="44.83096" lon="-0.23798">
        <ele>73.8</ele>
        <time>2020-09-09T14:17:20Z</time>
      </trkpt>
      <trkpt lat="44.83095" lon="-0.23796">
        <ele>73.9</ele>
        <time>2020-09-09T14:17:22Z</time>
      </trkpt>
      <trkpt lat="44.83095" lon="-0.23795">
        <ele>74</ele>
        <time>2020-09-09T14:17:23Z</time>
      </trkpt>
      <trkpt lat="44.83094" lon="-0.23793">
        <ele>74.1</ele>
        <time>2020-09-09T14:17:24Z</time>
      </trkpt>
      <trkpt lat="44.83094" lon="-0.23791">
        <ele>74.2</ele>
        <time>2020-09-09T14:17:25Z</time>
      </trkpt>
      <trkpt lat="44.83093" lon="-0.23787">
        <ele>74.3</ele>
        <time>2020-09-09T14:17:26Z</time>
      </trkpt>
      <trkpt lat="44.83093" lon="-0.23785">
        <ele>74.3</ele>
        <time>2020-09-09T14:17:28Z</time>
      </trkpt>
      <trkpt lat="44.83092" lon="-0.23784">
        <ele>74.3</ele>
        <time>2020-09-09T14:17:29Z</time>
      </trkpt>
      <trkpt lat="44.83092" lon="-0.23783">
        <ele>74.4</ele>
        <time>2020-09-09T14:17:30Z</time>
      </trkpt>
      <trkpt lat="44.83092" lon="-0.23781">
        <ele>74.6</ele>
        <time>2020-09-09T14:17:31Z</time>
      </trkpt>
      <trkpt lat="44.83091" lon="-0.2378">
        <ele>74.6</ele>
        <time>2020-09-09T14:17:32Z</time>
      </trkpt>
      <trkpt lat="44.83091" lon="-0.23779">
        <ele>74.7</ele>
        <time>2020-09-09T14:17:33Z</time>
      </trkpt>
      <trkpt lat="44.8309" lon="-0.23776">
        <ele>74.7</ele>
        <time>2020-09-09T14:17:35Z</time>
      </trkpt>
      <trkpt lat="44.8309" lon="-0.23774">
        <ele>74.8</ele>
        <time>2020-09-09T14:17:36Z</time>
      </trkpt>
      <trkpt lat="44.8309" lon="-0.23769">
        <ele>74.8</ele>
        <time>2020-09-09T14:17:38Z</time>
      </trkpt>
      <trkpt lat="44.83091" lon="-0.23765">
        <ele>74.9</ele>
        <time>2020-09-09T14:17:39Z</time>
      </trkpt>
      <trkpt lat="44.83091" lon="-0.23764">
        <ele>74.9</ele>
        <time>2020-09-09T14:17:40Z</time>
      </trkpt>
      <trkpt lat="44.83092" lon="-0.23762">
        <ele>74.9</ele>
        <time>2020-09-09T14:17:41Z</time>
      </trkpt>
      <trkpt lat="44.83092" lon="-0.2376">
        <ele>74.9</ele>
        <time>2020-09-09T14:17:42Z</time>
      </trkpt>
      <trkpt lat="44.83093" lon="-0.23758">
        <ele>74.9</ele>
        <time>2020-09-09T14:17:44Z</time>
      </trkpt>
      <trkpt lat="44.83094" lon="-0.23756">
        <ele>74.9</ele>
        <time>2020-09-09T14:17:45Z</time>
      </trkpt>
      <trkpt lat="44.83094" lon="-0.23752">
        <ele>75</ele>
        <time>2020-09-09T14:17:46Z</time>
      </trkpt>
      <trkpt lat="44.83095" lon="-0.23748">
        <ele>75</ele>
        <time>2020-09-09T14:17:48Z</time>
      </trkpt>
      <trkpt lat="44.83095" lon="-0.23746">
        <ele>75.1</ele>
        <time>2020-09-09T14:17:50Z</time>
      </trkpt>
      <trkpt lat="44.83095" lon="-0.23744">
        <ele>75.1</ele>
        <time>2020-09-09T14:17:51Z</time>
      </trkpt>
      <trkpt lat="44.83095" lon="-0.23743">
        <ele>75.1</ele>
        <time>2020-09-09T14:17:52Z</time>
      </trkpt>
      <trkpt lat="44.83095" lon="-0.23741">
        <ele>75.1</ele>
        <time>2020-09-09T14:17:54Z</time>
      </trkpt>
      <trkpt lat="44.83095" lon="-0.23739">
        <ele>75.1</ele>
        <time>2020-09-09T14:17:55Z</time>
      </trkpt>
      <trkpt lat="44.83096" lon="-0.23737">
        <ele>75.2</ele>
        <time>2020-09-09T14:17:57Z</time>
      </trkpt>
      <trkpt lat="44.83097" lon="-0.23736">
        <ele>75.2</ele>
        <time>2020-09-09T14:17:58Z</time>
      </trkpt>
      <trkpt lat="44.83097" lon="-0.23734">
        <ele>75.2</ele>
        <time>2020-09-09T14:17:59Z</time>
      </trkpt>
      <trkpt lat="44.83097" lon="-0.23732">
        <ele>75.2</ele>
        <time>2020-09-09T14:18:00Z</time>
      </trkpt>
      <trkpt lat="44.83098" lon="-0.23731">
        <ele>75.2</ele>
        <time>2020-09-09T14:18:01Z</time>
      </trkpt>
      <trkpt lat="44.83098" lon="-0.23729">
        <ele>75.2</ele>
        <time>2020-09-09T14:18:03Z</time>
      </trkpt>
      <trkpt lat="44.83099" lon="-0.23727">
        <ele>75.2</ele>
        <time>2020-09-09T14:18:04Z</time>
      </trkpt>
      <trkpt lat="44.83099" lon="-0.23726">
        <ele>75.2</ele>
        <time>2020-09-09T14:18:05Z</time>
      </trkpt>
      <trkpt lat="44.831" lon="-0.23724">
        <ele>75.2</ele>
        <time>2020-09-09T14:18:06Z</time>
      </trkpt>
      <trkpt lat="44.83101" lon="-0.23723">
        <ele>75.2</ele>
        <time>2020-09-09T14:18:08Z</time>
      </trkpt>
      <trkpt lat="44.83102" lon="-0.23719">
        <ele>75.1</ele>
        <time>2020-09-09T14:18:09Z</time>
      </trkpt>
      <trkpt lat="44.83103" lon="-0.23718">
        <ele>75.1</ele>
        <time>2020-09-09T14:18:10Z</time>
      </trkpt>
      <trkpt lat="44.83103" lon="-0.23716">
        <ele>75.1</ele>
        <time>2020-09-09T14:18:11Z</time>
      </trkpt>
      <trkpt lat="44.83104" lon="-0.23714">
        <ele>75.1</ele>
        <time>2020-09-09T14:18:12Z</time>
      </trkpt>
      <trkpt lat="44.83105" lon="-0.23714">
        <ele>75.1</ele>
        <time>2020-09-09T14:18:14Z</time>
      </trkpt>
      <trkpt lat="44.83105" lon="-0.23712">
        <ele>75.1</ele>
        <time>2020-09-09T14:18:15Z</time>
      </trkpt>
      <trkpt lat="44.83106" lon="-0.23711">
        <ele>75.1</ele>
        <time>2020-09-09T14:18:16Z</time>
      </trkpt>
      <trkpt lat="44.83106" lon="-0.2371">
        <ele>75.1</ele>
        <time>2020-09-09T14:18:17Z</time>
      </trkpt>
      <trkpt lat="44.83107" lon="-0.23706">
        <ele>75.1</ele>
        <time>2020-09-09T14:18:19Z</time>
      </trkpt>
      <trkpt lat="44.83107" lon="-0.23704">
        <ele>75.1</ele>
        <time>2020-09-09T14:18:20Z</time>
      </trkpt>
      <trkpt lat="44.83108" lon="-0.23702">
        <ele>75.1</ele>
        <time>2020-09-09T14:18:22Z</time>
      </trkpt>
      <trkpt lat="44.83109" lon="-0.23701">
        <ele>75.1</ele>
        <time>2020-09-09T14:18:23Z</time>
      </trkpt>
      <trkpt lat="44.83109" lon="-0.23699">
        <ele>75.1</ele>
        <time>2020-09-09T14:18:24Z</time>
      </trkpt>
      <trkpt lat="44.83109" lon="-0.23698">
        <ele>75.1</ele>
        <time>2020-09-09T14:18:25Z</time>
      </trkpt>
      <trkpt lat="44.83109" lon="-0.23697">
        <ele>75.1</ele>
        <time>2020-09-09T14:18:26Z</time>
      </trkpt>
      <trkpt lat="44.83109" lon="-0.23696">
        <ele>75.1</ele>
        <time>2020-09-09T14:18:27Z</time>
      </trkpt>
      <trkpt lat="44.8311" lon="-0.23693">
        <ele>75.2</ele>
        <time>2020-09-09T14:18:29Z</time>
      </trkpt>
      <trkpt lat="44.8311" lon="-0.23691">
        <ele>75.2</ele>
        <time>2020-09-09T14:18:30Z</time>
      </trkpt>
      <trkpt lat="44.83111" lon="-0.2369">
        <ele>75.2</ele>
        <time>2020-09-09T14:18:31Z</time>
      </trkpt>
      <trkpt lat="44.83111" lon="-0.23689">
        <ele>75.2</ele>
        <time>2020-09-09T14:18:32Z</time>
      </trkpt>
      <trkpt lat="44.83112" lon="-0.23685">
        <ele>75.2</ele>
        <time>2020-09-09T14:18:33Z</time>
      </trkpt>
      <trkpt lat="44.83112" lon="-0.23683">
        <ele>75.2</ele>
        <time>2020-09-09T14:18:35Z</time>
      </trkpt>
      <trkpt lat="44.83112" lon="-0.23681">
        <ele>75.2</ele>
        <time>2020-09-09T14:18:37Z</time>
      </trkpt>
      <trkpt lat="44.83112" lon="-0.23679">
        <ele>75.2</ele>
        <time>2020-09-09T14:18:38Z</time>
      </trkpt>
      <trkpt lat="44.83112" lon="-0.23678">
        <ele>75.2</ele>
        <time>2020-09-09T14:18:39Z</time>
      </trkpt>
      <trkpt lat="44.83112" lon="-0.23676">
        <ele>75.2</ele>
        <time>2020-09-09T14:18:40Z</time>
      </trkpt>
      <trkpt lat="44.83112" lon="-0.23674">
        <ele>75.2</ele>
        <time>2020-09-09T14:18:42Z</time>
      </trkpt>
      <trkpt lat="44.83113" lon="-0.23671">
        <ele>75.2</ele>
        <time>2020-09-09T14:18:43Z</time>
      </trkpt>
      <trkpt lat="44.83113" lon="-0.2367">
        <ele>75.2</ele>
        <time>2020-09-09T14:18:44Z</time>
      </trkpt>
      <trkpt lat="44.83113" lon="-0.23668">
        <ele>75.2</ele>
        <time>2020-09-09T14:18:45Z</time>
      </trkpt>
      <trkpt lat="44.83113" lon="-0.23666">
        <ele>75.2</ele>
        <time>2020-09-09T14:18:46Z</time>
      </trkpt>
      <trkpt lat="44.83114" lon="-0.23664">
        <ele>75.2</ele>
        <time>2020-09-09T14:18:47Z</time>
      </trkpt>
      <trkpt lat="44.83114" lon="-0.23661">
        <ele>75.2</ele>
        <time>2020-09-09T14:18:48Z</time>
      </trkpt>
      <trkpt lat="44.83114" lon="-0.2366">
        <ele>75.2</ele>
        <time>2020-09-09T14:18:50Z</time>
      </trkpt>
      <trkpt lat="44.83115" lon="-0.23658">
        <ele>75.2</ele>
        <time>2020-09-09T14:18:51Z</time>
      </trkpt>
      <trkpt lat="44.83115" lon="-0.23656">
        <ele>75.2</ele>
        <time>2020-09-09T14:18:52Z</time>
      </trkpt>
      <trkpt lat="44.83115" lon="-0.23655">
        <ele>75.2</ele>
        <time>2020-09-09T14:18:53Z</time>
      </trkpt>
      <trkpt lat="44.83115" lon="-0.23653">
        <ele>75.2</ele>
        <time>2020-09-09T14:18:54Z</time>
      </trkpt>
      <trkpt lat="44.83115" lon="-0.23651">
        <ele>75.1</ele>
        <time>2020-09-09T14:18:56Z</time>
      </trkpt>
      <trkpt lat="44.83116" lon="-0.23649">
        <ele>75.1</ele>
        <time>2020-09-09T14:18:57Z</time>
      </trkpt>
      <trkpt lat="44.83117" lon="-0.23647">
        <ele>75.1</ele>
        <time>2020-09-09T14:18:58Z</time>
      </trkpt>
      <trkpt lat="44.83117" lon="-0.23644">
        <ele>75</ele>
        <time>2020-09-09T14:18:59Z</time>
      </trkpt>
      <trkpt lat="44.83118" lon="-0.23642">
        <ele>75</ele>
        <time>2020-09-09T14:19:01Z</time>
      </trkpt>
      <trkpt lat="44.83119" lon="-0.23639">
        <ele>74.9</ele>
        <time>2020-09-09T14:19:02Z</time>
      </trkpt>
      <trkpt lat="44.83119" lon="-0.23637">
        <ele>74.8</ele>
        <time>2020-09-09T14:19:03Z</time>
      </trkpt>
      <trkpt lat="44.8312" lon="-0.23635">
        <ele>74.8</ele>
        <time>2020-09-09T14:19:04Z</time>
      </trkpt>
      <trkpt lat="44.8312" lon="-0.23633">
        <ele>74.8</ele>
        <time>2020-09-09T14:19:05Z</time>
      </trkpt>
      <trkpt lat="44.8312" lon="-0.23631">
        <ele>74.7</ele>
        <time>2020-09-09T14:19:06Z</time>
      </trkpt>
      <trkpt lat="44.8312" lon="-0.23631">
        <ele>74.7</ele>
        <time>2020-09-09T14:19:07Z</time>
      </trkpt>
      <trkpt lat="44.8312" lon="-0.2363">
        <ele>74.7</ele>
        <time>2020-09-09T14:19:08Z</time>
      </trkpt>
      <trkpt lat="44.8312" lon="-0.23629">
        <ele>74.7</ele>
        <time>2020-09-09T14:19:09Z</time>
      </trkpt>
      <trkpt lat="44.83121" lon="-0.23626">
        <ele>74.6</ele>
        <time>2020-09-09T14:19:11Z</time>
      </trkpt>
      <trkpt lat="44.83121" lon="-0.23624">
        <ele>74.6</ele>
        <time>2020-09-09T14:19:12Z</time>
      </trkpt>
      <trkpt lat="44.83122" lon="-0.23621">
        <ele>74.5</ele>
        <time>2020-09-09T14:19:13Z</time>
      </trkpt>
      <trkpt lat="44.83122" lon="-0.2362">
        <ele>74.5</ele>
        <time>2020-09-09T14:19:15Z</time>
      </trkpt>
      <trkpt lat="44.83123" lon="-0.23618">
        <ele>74.5</ele>
        <time>2020-09-09T14:19:16Z</time>
      </trkpt>
      <trkpt lat="44.83123" lon="-0.23617">
        <ele>74.5</ele>
        <time>2020-09-09T14:19:17Z</time>
      </trkpt>
      <trkpt lat="44.83124" lon="-0.23615">
        <ele>74.4</ele>
        <time>2020-09-09T14:19:18Z</time>
      </trkpt>
      <trkpt lat="44.83125" lon="-0.23612">
        <ele>74.4</ele>
        <time>2020-09-09T14:19:20Z</time>
      </trkpt>
      <trkpt lat="44.83125" lon="-0.23611">
        <ele>74.3</ele>
        <time>2020-09-09T14:19:21Z</time>
      </trkpt>
      <trkpt lat="44.83126" lon="-0.23609">
        <ele>74.3</ele>
        <time>2020-09-09T14:19:22Z</time>
      </trkpt>
      <trkpt lat="44.83126" lon="-0.23606">
        <ele>74.2</ele>
        <time>2020-09-09T14:19:24Z</time>
      </trkpt>
      <trkpt lat="44.83127" lon="-0.23605">
        <ele>74.2</ele>
        <time>2020-09-09T14:19:25Z</time>
      </trkpt>
      <trkpt lat="44.83126" lon="-0.23603">
        <ele>74.1</ele>
        <time>2020-09-09T14:19:26Z</time>
      </trkpt>
      <trkpt lat="44.83125" lon="-0.23601">
        <ele>74</ele>
        <time>2020-09-09T14:19:28Z</time>
      </trkpt>
      <trkpt lat="44.83124" lon="-0.23599">
        <ele>74</ele>
        <time>2020-09-09T14:19:29Z</time>
      </trkpt>
      <trkpt lat="44.83124" lon="-0.23598">
        <ele>74</ele>
        <time>2020-09-09T14:19:30Z</time>
      </trkpt>
      <trkpt lat="44.83124" lon="-0.23596">
        <ele>74</ele>
        <time>2020-09-09T14:19:31Z</time>
      </trkpt>
      <trkpt lat="44.83124" lon="-0.23595">
        <ele>74</ele>
        <time>2020-09-09T14:19:33Z</time>
      </trkpt>
      <trkpt lat="44.83125" lon="-0.23594">
        <ele>74</ele>
        <time>2020-09-09T14:19:34Z</time>
      </trkpt>
      <trkpt lat="44.83125" lon="-0.23593">
        <ele>74</ele>
        <time>2020-09-09T14:19:36Z</time>
      </trkpt>
      <trkpt lat="44.83125" lon="-0.23593">
        <ele>74</ele>
        <time>2020-09-09T14:19:37Z</time>
      </trkpt>
      <trkpt lat="44.83123" lon="-0.23591">
        <ele>74</ele>
        <time>2020-09-09T14:19:39Z</time>
      </trkpt>
      <trkpt lat="44.83122" lon="-0.2359">
        <ele>74.1</ele>
        <time>2020-09-09T14:19:40Z</time>
      </trkpt>
      <trkpt lat="44.83121" lon="-0.2359">
        <ele>74.1</ele>
        <time>2020-09-09T14:19:41Z</time>
      </trkpt>
      <trkpt lat="44.83119" lon="-0.23588">
        <ele>74.2</ele>
        <time>2020-09-09T14:19:43Z</time>
      </trkpt>
      <trkpt lat="44.83118" lon="-0.23586">
        <ele>74.2</ele>
        <time>2020-09-09T14:19:45Z</time>
      </trkpt>
      <trkpt lat="44.83117" lon="-0.23585">
        <ele>74.2</ele>
        <time>2020-09-09T14:19:46Z</time>
      </trkpt>
      <trkpt lat="44.83116" lon="-0.23581">
        <ele>74.3</ele>
        <time>2020-09-09T14:19:48Z</time>
      </trkpt>
      <trkpt lat="44.83115" lon="-0.2358">
        <ele>74.3</ele>
        <time>2020-09-09T14:19:49Z</time>
      </trkpt>
      <trkpt lat="44.83115" lon="-0.23579">
        <ele>74.3</ele>
        <time>2020-09-09T14:19:50Z</time>
      </trkpt>
      <trkpt lat="44.83114" lon="-0.23577">
        <ele>74.3</ele>
        <time>2020-09-09T14:19:51Z</time>
      </trkpt>
      <trkpt lat="44.83113" lon="-0.23573">
        <ele>74.4</ele>
        <time>2020-09-09T14:19:53Z</time>
      </trkpt>
      <trkpt lat="44.83113" lon="-0.23573">
        <ele>74.4</ele>
        <time>2020-09-09T14:19:54Z</time>
      </trkpt>
      <trkpt lat="44.83112" lon="-0.23571">
        <ele>74.4</ele>
        <time>2020-09-09T14:19:55Z</time>
      </trkpt>
      <trkpt lat="44.83111" lon="-0.23567">
        <ele>74.4</ele>
        <time>2020-09-09T14:19:57Z</time>
      </trkpt>
      <trkpt lat="44.8311" lon="-0.23566">
        <ele>74.4</ele>
        <time>2020-09-09T14:19:59Z</time>
      </trkpt>
      <trkpt lat="44.8311" lon="-0.23564">
        <ele>74.6</ele>
        <time>2020-09-09T14:20:00Z</time>
      </trkpt>
      <trkpt lat="44.83109" lon="-0.23561">
        <ele>74.6</ele>
        <time>2020-09-09T14:20:02Z</time>
      </trkpt>
      <trkpt lat="44.83108" lon="-0.23561">
        <ele>74.5</ele>
        <time>2020-09-09T14:20:03Z</time>
      </trkpt>
      <trkpt lat="44.83108" lon="-0.23559">
        <ele>74.5</ele>
        <time>2020-09-09T14:20:04Z</time>
      </trkpt>
      <trkpt lat="44.83107" lon="-0.23558">
        <ele>74.6</ele>
        <time>2020-09-09T14:20:05Z</time>
      </trkpt>
      <trkpt lat="44.83105" lon="-0.23555">
        <ele>74.6</ele>
        <time>2020-09-09T14:20:06Z</time>
      </trkpt>
      <trkpt lat="44.83105" lon="-0.23553">
        <ele>74.6</ele>
        <time>2020-09-09T14:20:07Z</time>
      </trkpt>
      <trkpt lat="44.83104" lon="-0.23552">
        <ele>74.6</ele>
        <time>2020-09-09T14:20:08Z</time>
      </trkpt>
      <trkpt lat="44.83104" lon="-0.2355">
        <ele>74.7</ele>
        <time>2020-09-09T14:20:10Z</time>
      </trkpt>
      <trkpt lat="44.83103" lon="-0.23549">
        <ele>74.7</ele>
        <time>2020-09-09T14:20:11Z</time>
      </trkpt>
      <trkpt lat="44.83103" lon="-0.23546">
        <ele>74.7</ele>
        <time>2020-09-09T14:20:12Z</time>
      </trkpt>
      <trkpt lat="44.83103" lon="-0.23545">
        <ele>74.7</ele>
        <time>2020-09-09T14:20:14Z</time>
      </trkpt>
      <trkpt lat="44.83102" lon="-0.23543">
        <ele>74.7</ele>
        <time>2020-09-09T14:20:15Z</time>
      </trkpt>
      <trkpt lat="44.83102" lon="-0.23541">
        <ele>74.7</ele>
        <time>2020-09-09T14:20:16Z</time>
      </trkpt>
      <trkpt lat="44.83101" lon="-0.23538">
        <ele>74.6</ele>
        <time>2020-09-09T14:20:17Z</time>
      </trkpt>
      <trkpt lat="44.83101" lon="-0.23537">
        <ele>74.6</ele>
        <time>2020-09-09T14:20:18Z</time>
      </trkpt>
      <trkpt lat="44.83101" lon="-0.23535">
        <ele>74.7</ele>
        <time>2020-09-09T14:20:19Z</time>
      </trkpt>
      <trkpt lat="44.831" lon="-0.23533">
        <ele>74.7</ele>
        <time>2020-09-09T14:20:20Z</time>
      </trkpt>
      <trkpt lat="44.831" lon="-0.23532">
        <ele>74.7</ele>
        <time>2020-09-09T14:20:21Z</time>
      </trkpt>
      <trkpt lat="44.831" lon="-0.23529">
        <ele>74.6</ele>
        <time>2020-09-09T14:20:23Z</time>
      </trkpt>
      <trkpt lat="44.83099" lon="-0.23528">
        <ele>74.6</ele>
        <time>2020-09-09T14:20:24Z</time>
      </trkpt>
      <trkpt lat="44.83099" lon="-0.23525">
        <ele>74.6</ele>
        <time>2020-09-09T14:20:25Z</time>
      </trkpt>
      <trkpt lat="44.83099" lon="-0.23524">
        <ele>74.6</ele>
        <time>2020-09-09T14:20:26Z</time>
      </trkpt>
      <trkpt lat="44.83099" lon="-0.23523">
        <ele>74.6</ele>
        <time>2020-09-09T14:20:27Z</time>
      </trkpt>
      <trkpt lat="44.83098" lon="-0.23522">
        <ele>74.6</ele>
        <time>2020-09-09T14:20:28Z</time>
      </trkpt>
      <trkpt lat="44.83098" lon="-0.23521">
        <ele>74.6</ele>
        <time>2020-09-09T14:20:29Z</time>
      </trkpt>
      <trkpt lat="44.83098" lon="-0.23519">
        <ele>74.6</ele>
        <time>2020-09-09T14:20:31Z</time>
      </trkpt>
      <trkpt lat="44.83097" lon="-0.23517">
        <ele>74.6</ele>
        <time>2020-09-09T14:20:32Z</time>
      </trkpt>
      <trkpt lat="44.83097" lon="-0.23514">
        <ele>74.6</ele>
        <time>2020-09-09T14:20:33Z</time>
      </trkpt>
      <trkpt lat="44.83096" lon="-0.23513">
        <ele>74.6</ele>
        <time>2020-09-09T14:20:34Z</time>
      </trkpt>
      <trkpt lat="44.83096" lon="-0.2351">
        <ele>74.6</ele>
        <time>2020-09-09T14:20:35Z</time>
      </trkpt>
      <trkpt lat="44.83095" lon="-0.23509">
        <ele>74.5</ele>
        <time>2020-09-09T14:20:36Z</time>
      </trkpt>
      <trkpt lat="44.83095" lon="-0.23507">
        <ele>74.6</ele>
        <time>2020-09-09T14:20:37Z</time>
      </trkpt>
      <trkpt lat="44.83094" lon="-0.23505">
        <ele>74.6</ele>
        <time>2020-09-09T14:20:38Z</time>
      </trkpt>
      <trkpt lat="44.83093" lon="-0.23502">
        <ele>74.6</ele>
        <time>2020-09-09T14:20:40Z</time>
      </trkpt>
      <trkpt lat="44.83092" lon="-0.235">
        <ele>74.5</ele>
        <time>2020-09-09T14:20:41Z</time>
      </trkpt>
      <trkpt lat="44.83091" lon="-0.23498">
        <ele>74.6</ele>
        <time>2020-09-09T14:20:43Z</time>
      </trkpt>
      <trkpt lat="44.83091" lon="-0.23497">
        <ele>74.6</ele>
        <time>2020-09-09T14:20:44Z</time>
      </trkpt>
      <trkpt lat="44.83091" lon="-0.23496">
        <ele>74.5</ele>
        <time>2020-09-09T14:20:45Z</time>
      </trkpt>
      <trkpt lat="44.8309" lon="-0.23494">
        <ele>74.5</ele>
        <time>2020-09-09T14:20:46Z</time>
      </trkpt>
      <trkpt lat="44.8309" lon="-0.23492">
        <ele>74.5</ele>
        <time>2020-09-09T14:20:47Z</time>
      </trkpt>
      <trkpt lat="44.83089" lon="-0.23489">
        <ele>74.5</ele>
        <time>2020-09-09T14:20:48Z</time>
      </trkpt>
      <trkpt lat="44.83088" lon="-0.23488">
        <ele>74.5</ele>
        <time>2020-09-09T14:20:49Z</time>
      </trkpt>
      <trkpt lat="44.83088" lon="-0.23486">
        <ele>74.5</ele>
        <time>2020-09-09T14:20:50Z</time>
      </trkpt>
      <trkpt lat="44.83087" lon="-0.23485">
        <ele>74.5</ele>
        <time>2020-09-09T14:20:51Z</time>
      </trkpt>
      <trkpt lat="44.83087" lon="-0.23483">
        <ele>74.5</ele>
        <time>2020-09-09T14:20:52Z</time>
      </trkpt>
      <trkpt lat="44.83086" lon="-0.2348">
        <ele>74.5</ele>
        <time>2020-09-09T14:20:53Z</time>
      </trkpt>
      <trkpt lat="44.83086" lon="-0.23478">
        <ele>74.4</ele>
        <time>2020-09-09T14:20:54Z</time>
      </trkpt>
      <trkpt lat="44.83084" lon="-0.23473">
        <ele>74.4</ele>
        <time>2020-09-09T14:20:56Z</time>
      </trkpt>
      <trkpt lat="44.83083" lon="-0.23469">
        <ele>74.4</ele>
        <time>2020-09-09T14:20:58Z</time>
      </trkpt>
      <trkpt lat="44.83083" lon="-0.23468">
        <ele>74.4</ele>
        <time>2020-09-09T14:20:59Z</time>
      </trkpt>
      <trkpt lat="44.83082" lon="-0.23464">
        <ele>74.3</ele>
        <time>2020-09-09T14:21:00Z</time>
      </trkpt>
      <trkpt lat="44.83082" lon="-0.23463">
        <ele>74.3</ele>
        <time>2020-09-09T14:21:01Z</time>
      </trkpt>
      <trkpt lat="44.83081" lon="-0.23461">
        <ele>74.3</ele>
        <time>2020-09-09T14:21:02Z</time>
      </trkpt>
      <trkpt lat="44.83081" lon="-0.23459">
        <ele>74.3</ele>
        <time>2020-09-09T14:21:04Z</time>
      </trkpt>
      <trkpt lat="44.83081" lon="-0.23458">
        <ele>74.3</ele>
        <time>2020-09-09T14:21:05Z</time>
      </trkpt>
      <trkpt lat="44.8308" lon="-0.23456">
        <ele>74.3</ele>
        <time>2020-09-09T14:21:06Z</time>
      </trkpt>
      <trkpt lat="44.8308" lon="-0.23455">
        <ele>74.3</ele>
        <time>2020-09-09T14:21:07Z</time>
      </trkpt>
      <trkpt lat="44.8308" lon="-0.23454">
        <ele>74.3</ele>
        <time>2020-09-09T14:21:08Z</time>
      </trkpt>
      <trkpt lat="44.8308" lon="-0.23453">
        <ele>74.2</ele>
        <time>2020-09-09T14:21:09Z</time>
      </trkpt>
      <trkpt lat="44.83079" lon="-0.23452">
        <ele>74.2</ele>
        <time>2020-09-09T14:21:10Z</time>
      </trkpt>
      <trkpt lat="44.83079" lon="-0.2345">
        <ele>74.2</ele>
        <time>2020-09-09T14:21:12Z</time>
      </trkpt>
      <trkpt lat="44.83078" lon="-0.23448">
        <ele>74.2</ele>
        <time>2020-09-09T14:21:13Z</time>
      </trkpt>
      <trkpt lat="44.83078" lon="-0.23447">
        <ele>74.2</ele>
        <time>2020-09-09T14:21:15Z</time>
      </trkpt>
      <trkpt lat="44.83078" lon="-0.23446">
        <ele>74.2</ele>
        <time>2020-09-09T14:21:16Z</time>
      </trkpt>
      <trkpt lat="44.83078" lon="-0.23445">
        <ele>74.2</ele>
        <time>2020-09-09T14:21:17Z</time>
      </trkpt>
      <trkpt lat="44.83077" lon="-0.23441">
        <ele>74.1</ele>
        <time>2020-09-09T14:21:18Z</time>
      </trkpt>
      <trkpt lat="44.83076" lon="-0.2344">
        <ele>74.1</ele>
        <time>2020-09-09T14:21:19Z</time>
      </trkpt>
      <trkpt lat="44.83076" lon="-0.23437">
        <ele>74.1</ele>
        <time>2020-09-09T14:21:20Z</time>
      </trkpt>
      <trkpt lat="44.83076" lon="-0.23435">
        <ele>74.1</ele>
        <time>2020-09-09T14:21:22Z</time>
      </trkpt>
      <trkpt lat="44.83075" lon="-0.23434">
        <ele>74.1</ele>
        <time>2020-09-09T14:21:23Z</time>
      </trkpt>
      <trkpt lat="44.83075" lon="-0.23432">
        <ele>74</ele>
        <time>2020-09-09T14:21:24Z</time>
      </trkpt>
      <trkpt lat="44.83074" lon="-0.2343">
        <ele>74</ele>
        <time>2020-09-09T14:21:25Z</time>
      </trkpt>
      <trkpt lat="44.83075" lon="-0.23428">
        <ele>74</ele>
        <time>2020-09-09T14:21:26Z</time>
      </trkpt>
      <trkpt lat="44.83075" lon="-0.23425">
        <ele>74</ele>
        <time>2020-09-09T14:21:28Z</time>
      </trkpt>
      <trkpt lat="44.83075" lon="-0.23422">
        <ele>73.9</ele>
        <time>2020-09-09T14:21:29Z</time>
      </trkpt>
      <trkpt lat="44.83075" lon="-0.2342">
        <ele>73.9</ele>
        <time>2020-09-09T14:21:30Z</time>
      </trkpt>
      <trkpt lat="44.83075" lon="-0.23418">
        <ele>73.9</ele>
        <time>2020-09-09T14:21:31Z</time>
      </trkpt>
      <trkpt lat="44.83075" lon="-0.23415">
        <ele>73.9</ele>
        <time>2020-09-09T14:21:33Z</time>
      </trkpt>
      <trkpt lat="44.83074" lon="-0.23411">
        <ele>73.9</ele>
        <time>2020-09-09T14:21:34Z</time>
      </trkpt>
      <trkpt lat="44.83074" lon="-0.2341">
        <ele>73.8</ele>
        <time>2020-09-09T14:21:35Z</time>
      </trkpt>
      <trkpt lat="44.83074" lon="-0.23407">
        <ele>73.8</ele>
        <time>2020-09-09T14:21:37Z</time>
      </trkpt>
      <trkpt lat="44.83073" lon="-0.23405">
        <ele>73.8</ele>
        <time>2020-09-09T14:21:38Z</time>
      </trkpt>
      <trkpt lat="44.83072" lon="-0.23402">
        <ele>73.8</ele>
        <time>2020-09-09T14:21:39Z</time>
      </trkpt>
      <trkpt lat="44.83072" lon="-0.23401">
        <ele>73.8</ele>
        <time>2020-09-09T14:21:40Z</time>
      </trkpt>
      <trkpt lat="44.83072" lon="-0.234">
        <ele>73.8</ele>
        <time>2020-09-09T14:21:41Z</time>
      </trkpt>
      <trkpt lat="44.83071" lon="-0.23398">
        <ele>73.8</ele>
        <time>2020-09-09T14:21:43Z</time>
      </trkpt>
      <trkpt lat="44.83071" lon="-0.23396">
        <ele>73.8</ele>
        <time>2020-09-09T14:21:44Z</time>
      </trkpt>
      <trkpt lat="44.8307" lon="-0.23395">
        <ele>73.8</ele>
        <time>2020-09-09T14:21:45Z</time>
      </trkpt>
      <trkpt lat="44.83069" lon="-0.23393">
        <ele>73.7</ele>
        <time>2020-09-09T14:21:46Z</time>
      </trkpt>
      <trkpt lat="44.83069" lon="-0.23391">
        <ele>73.7</ele>
        <time>2020-09-09T14:21:47Z</time>
      </trkpt>
      <trkpt lat="44.83068" lon="-0.23389">
        <ele>73.7</ele>
        <time>2020-09-09T14:21:48Z</time>
      </trkpt>
      <trkpt lat="44.83067" lon="-0.23386">
        <ele>73.7</ele>
        <time>2020-09-09T14:21:50Z</time>
      </trkpt>
      <trkpt lat="44.83067" lon="-0.23385">
        <ele>73.7</ele>
        <time>2020-09-09T14:21:51Z</time>
      </trkpt>
      <trkpt lat="44.83066" lon="-0.23382">
        <ele>73.7</ele>
        <time>2020-09-09T14:21:53Z</time>
      </trkpt>
      <trkpt lat="44.83066" lon="-0.2338">
        <ele>73.7</ele>
        <time>2020-09-09T14:21:54Z</time>
      </trkpt>
      <trkpt lat="44.83065" lon="-0.23378">
        <ele>73.7</ele>
        <time>2020-09-09T14:21:55Z</time>
      </trkpt>
      <trkpt lat="44.83065" lon="-0.23376">
        <ele>73.7</ele>
        <time>2020-09-09T14:21:56Z</time>
      </trkpt>
      <trkpt lat="44.83064" lon="-0.23374">
        <ele>73.7</ele>
        <time>2020-09-09T14:21:58Z</time>
      </trkpt>
      <trkpt lat="44.83064" lon="-0.23372">
        <ele>73.7</ele>
        <time>2020-09-09T14:21:59Z</time>
      </trkpt>
      <trkpt lat="44.83063" lon="-0.2337">
        <ele>73.7</ele>
        <time>2020-09-09T14:22:00Z</time>
      </trkpt>
      <trkpt lat="44.83063" lon="-0.23369">
        <ele>73.7</ele>
        <time>2020-09-09T14:22:01Z</time>
      </trkpt>
      <trkpt lat="44.83063" lon="-0.23367">
        <ele>73.7</ele>
        <time>2020-09-09T14:22:02Z</time>
      </trkpt>
      <trkpt lat="44.83062" lon="-0.23365">
        <ele>73.7</ele>
        <time>2020-09-09T14:22:03Z</time>
      </trkpt>
      <trkpt lat="44.83062" lon="-0.23363">
        <ele>73.7</ele>
        <time>2020-09-09T14:22:04Z</time>
      </trkpt>
      <trkpt lat="44.83062" lon="-0.23361">
        <ele>73.7</ele>
        <time>2020-09-09T14:22:05Z</time>
      </trkpt>
      <trkpt lat="44.83061" lon="-0.23359">
        <ele>73.6</ele>
        <time>2020-09-09T14:22:07Z</time>
      </trkpt>
      <trkpt lat="44.83061" lon="-0.23358">
        <ele>73.6</ele>
        <time>2020-09-09T14:22:08Z</time>
      </trkpt>
      <trkpt lat="44.83061" lon="-0.23356">
        <ele>73.6</ele>
        <time>2020-09-09T14:22:09Z</time>
      </trkpt>
      <trkpt lat="44.8306" lon="-0.23353">
        <ele>73.6</ele>
        <time>2020-09-09T14:22:11Z</time>
      </trkpt>
      <trkpt lat="44.8306" lon="-0.23351">
        <ele>73.6</ele>
        <time>2020-09-09T14:22:12Z</time>
      </trkpt>
      <trkpt lat="44.8306" lon="-0.23349">
        <ele>73.6</ele>
        <time>2020-09-09T14:22:13Z</time>
      </trkpt>
      <trkpt lat="44.83059" lon="-0.23347">
        <ele>73.6</ele>
        <time>2020-09-09T14:22:14Z</time>
      </trkpt>
      <trkpt lat="44.83059" lon="-0.23346">
        <ele>73.6</ele>
        <time>2020-09-09T14:22:15Z</time>
      </trkpt>
      <trkpt lat="44.83058" lon="-0.23344">
        <ele>73.6</ele>
        <time>2020-09-09T14:22:16Z</time>
      </trkpt>
      <trkpt lat="44.83058" lon="-0.23342">
        <ele>73.6</ele>
        <time>2020-09-09T14:22:17Z</time>
      </trkpt>
      <trkpt lat="44.83058" lon="-0.2334">
        <ele>73.6</ele>
        <time>2020-09-09T14:22:18Z</time>
      </trkpt>
      <trkpt lat="44.83057" lon="-0.23338">
        <ele>73.6</ele>
        <time>2020-09-09T14:22:20Z</time>
      </trkpt>
      <trkpt lat="44.83056" lon="-0.23336">
        <ele>73.6</ele>
        <time>2020-09-09T14:22:21Z</time>
      </trkpt>
      <trkpt lat="44.83056" lon="-0.23334">
        <ele>73.6</ele>
        <time>2020-09-09T14:22:22Z</time>
      </trkpt>
      <trkpt lat="44.83055" lon="-0.23332">
        <ele>73.5</ele>
        <time>2020-09-09T14:22:24Z</time>
      </trkpt>
      <trkpt lat="44.83055" lon="-0.23331">
        <ele>73.5</ele>
        <time>2020-09-09T14:22:25Z</time>
      </trkpt>
      <trkpt lat="44.83054" lon="-0.23329">
        <ele>73.5</ele>
        <time>2020-09-09T14:22:26Z</time>
      </trkpt>
      <trkpt lat="44.83054" lon="-0.23328">
        <ele>73.5</ele>
        <time>2020-09-09T14:22:27Z</time>
      </trkpt>
      <trkpt lat="44.83054" lon="-0.23326">
        <ele>73.5</ele>
        <time>2020-09-09T14:22:29Z</time>
      </trkpt>
      <trkpt lat="44.83053" lon="-0.23325">
        <ele>73.5</ele>
        <time>2020-09-09T14:22:30Z</time>
      </trkpt>
      <trkpt lat="44.83053" lon="-0.23323">
        <ele>73.4</ele>
        <time>2020-09-09T14:22:31Z</time>
      </trkpt>
      <trkpt lat="44.83052" lon="-0.2332">
        <ele>73.4</ele>
        <time>2020-09-09T14:22:32Z</time>
      </trkpt>
      <trkpt lat="44.83052" lon="-0.23319">
        <ele>73.4</ele>
        <time>2020-09-09T14:22:34Z</time>
      </trkpt>
      <trkpt lat="44.83051" lon="-0.23318">
        <ele>73.4</ele>
        <time>2020-09-09T14:22:35Z</time>
      </trkpt>
      <trkpt lat="44.83051" lon="-0.23315">
        <ele>73.3</ele>
        <time>2020-09-09T14:22:36Z</time>
      </trkpt>
      <trkpt lat="44.8305" lon="-0.23314">
        <ele>73.3</ele>
        <time>2020-09-09T14:22:37Z</time>
      </trkpt>
      <trkpt lat="44.8305" lon="-0.23313">
        <ele>73.3</ele>
        <time>2020-09-09T14:22:38Z</time>
      </trkpt>
      <trkpt lat="44.83049" lon="-0.23311">
        <ele>73.3</ele>
        <time>2020-09-09T14:22:39Z</time>
      </trkpt>
      <trkpt lat="44.83049" lon="-0.23309">
        <ele>73.2</ele>
        <time>2020-09-09T14:22:41Z</time>
      </trkpt>
      <trkpt lat="44.83048" lon="-0.23307">
        <ele>73.2</ele>
        <time>2020-09-09T14:22:42Z</time>
      </trkpt>
      <trkpt lat="44.83047" lon="-0.23305">
        <ele>73.2</ele>
        <time>2020-09-09T14:22:43Z</time>
      </trkpt>
      <trkpt lat="44.83047" lon="-0.23304">
        <ele>73.2</ele>
        <time>2020-09-09T14:22:44Z</time>
      </trkpt>
      <trkpt lat="44.83046" lon="-0.23302">
        <ele>73.1</ele>
        <time>2020-09-09T14:22:45Z</time>
      </trkpt>
      <trkpt lat="44.83045" lon="-0.233">
        <ele>73.1</ele>
        <time>2020-09-09T14:22:47Z</time>
      </trkpt>
      <trkpt lat="44.83044" lon="-0.23298">
        <ele>73</ele>
        <time>2020-09-09T14:22:48Z</time>
      </trkpt>
      <trkpt lat="44.83043" lon="-0.23296">
        <ele>73</ele>
        <time>2020-09-09T14:22:49Z</time>
      </trkpt>
      <trkpt lat="44.83042" lon="-0.23295">
        <ele>73</ele>
        <time>2020-09-09T14:22:50Z</time>
      </trkpt>
      <trkpt lat="44.83041" lon="-0.23293">
        <ele>72.9</ele>
        <time>2020-09-09T14:22:51Z</time>
      </trkpt>
      <trkpt lat="44.83041" lon="-0.23292">
        <ele>72.9</ele>
        <time>2020-09-09T14:22:52Z</time>
      </trkpt>
      <trkpt lat="44.8304" lon="-0.2329">
        <ele>72.8</ele>
        <time>2020-09-09T14:22:54Z</time>
      </trkpt>
      <trkpt lat="44.8304" lon="-0.23287">
        <ele>72.8</ele>
        <time>2020-09-09T14:22:55Z</time>
      </trkpt>
      <trkpt lat="44.8304" lon="-0.23286">
        <ele>72.8</ele>
        <time>2020-09-09T14:22:56Z</time>
      </trkpt>
      <trkpt lat="44.8304" lon="-0.23285">
        <ele>72.7</ele>
        <time>2020-09-09T14:22:57Z</time>
      </trkpt>
      <trkpt lat="44.83039" lon="-0.23282">
        <ele>72.7</ele>
        <time>2020-09-09T14:22:59Z</time>
      </trkpt>
      <trkpt lat="44.83039" lon="-0.23281">
        <ele>72.6</ele>
        <time>2020-09-09T14:23:00Z</time>
      </trkpt>
      <trkpt lat="44.83038" lon="-0.2328">
        <ele>72.6</ele>
        <time>2020-09-09T14:23:01Z</time>
      </trkpt>
      <trkpt lat="44.83038" lon="-0.23277">
        <ele>72.6</ele>
        <time>2020-09-09T14:23:02Z</time>
      </trkpt>
      <trkpt lat="44.83037" lon="-0.23276">
        <ele>72.6</ele>
        <time>2020-09-09T14:23:03Z</time>
      </trkpt>
      <trkpt lat="44.83037" lon="-0.23275">
        <ele>72.6</ele>
        <time>2020-09-09T14:23:04Z</time>
      </trkpt>
      <trkpt lat="44.83037" lon="-0.23273">
        <ele>72.5</ele>
        <time>2020-09-09T14:23:05Z</time>
      </trkpt>
      <trkpt lat="44.83036" lon="-0.23272">
        <ele>72.4</ele>
        <time>2020-09-09T14:23:06Z</time>
      </trkpt>
      <trkpt lat="44.83035" lon="-0.2327">
        <ele>72.4</ele>
        <time>2020-09-09T14:23:08Z</time>
      </trkpt>
      <trkpt lat="44.83035" lon="-0.23268">
        <ele>72.3</ele>
        <time>2020-09-09T14:23:09Z</time>
      </trkpt>
      <trkpt lat="44.83035" lon="-0.23267">
        <ele>72.3</ele>
        <time>2020-09-09T14:23:10Z</time>
      </trkpt>
      <trkpt lat="44.83035" lon="-0.23265">
        <ele>72.3</ele>
        <time>2020-09-09T14:23:11Z</time>
      </trkpt>
      <trkpt lat="44.83034" lon="-0.23264">
        <ele>72.3</ele>
        <time>2020-09-09T14:23:12Z</time>
      </trkpt>
      <trkpt lat="44.83033" lon="-0.23261">
        <ele>72.2</ele>
        <time>2020-09-09T14:23:14Z</time>
      </trkpt>
      <trkpt lat="44.83032" lon="-0.23259">
        <ele>72.1</ele>
        <time>2020-09-09T14:23:15Z</time>
      </trkpt>
      <trkpt lat="44.83031" lon="-0.23258">
        <ele>72</ele>
        <time>2020-09-09T14:23:16Z</time>
      </trkpt>
      <trkpt lat="44.8303" lon="-0.23257">
        <ele>72</ele>
        <time>2020-09-09T14:23:17Z</time>
      </trkpt>
      <trkpt lat="44.83028" lon="-0.23255">
        <ele>71.9</ele>
        <time>2020-09-09T14:23:19Z</time>
      </trkpt>
      <trkpt lat="44.83027" lon="-0.23254">
        <ele>71.8</ele>
        <time>2020-09-09T14:23:20Z</time>
      </trkpt>
      <trkpt lat="44.83027" lon="-0.23253">
        <ele>71.8</ele>
        <time>2020-09-09T14:23:22Z</time>
      </trkpt>
      <trkpt lat="44.83026" lon="-0.23252">
        <ele>71.8</ele>
        <time>2020-09-09T14:23:23Z</time>
      </trkpt>
      <trkpt lat="44.83026" lon="-0.23251">
        <ele>71.7</ele>
        <time>2020-09-09T14:23:24Z</time>
      </trkpt>
      <trkpt lat="44.83024" lon="-0.23251">
        <ele>71.6</ele>
        <time>2020-09-09T14:23:26Z</time>
      </trkpt>
      <trkpt lat="44.83023" lon="-0.23251">
        <ele>71.6</ele>
        <time>2020-09-09T14:23:27Z</time>
      </trkpt>
      <trkpt lat="44.83022" lon="-0.2325">
        <ele>71.6</ele>
        <time>2020-09-09T14:23:28Z</time>
      </trkpt>
      <trkpt lat="44.83022" lon="-0.23249">
        <ele>71.6</ele>
        <time>2020-09-09T14:23:29Z</time>
      </trkpt>
      <trkpt lat="44.83023" lon="-0.23248">
        <ele>71.6</ele>
        <time>2020-09-09T14:23:31Z</time>
      </trkpt>
      <trkpt lat="44.83023" lon="-0.23247">
        <ele>71.5</ele>
        <time>2020-09-09T14:23:32Z</time>
      </trkpt>
      <trkpt lat="44.83023" lon="-0.23245">
        <ele>71.5</ele>
        <time>2020-09-09T14:23:33Z</time>
      </trkpt>
      <trkpt lat="44.83023" lon="-0.23244">
        <ele>71.5</ele>
        <time>2020-09-09T14:23:34Z</time>
      </trkpt>
      <trkpt lat="44.83023" lon="-0.23243">
        <ele>71.5</ele>
        <time>2020-09-09T14:23:35Z</time>
      </trkpt>
      <trkpt lat="44.83023" lon="-0.23243">
        <ele>71.5</ele>
        <time>2020-09-09T14:23:36Z</time>
      </trkpt>
      <trkpt lat="44.83024" lon="-0.23243">
        <ele>71.5</ele>
        <time>2020-09-09T14:23:37Z</time>
      </trkpt>
      <trkpt lat="44.83025" lon="-0.23243">
        <ele>71.6</ele>
        <time>2020-09-09T14:23:38Z</time>
      </trkpt>
      <trkpt lat="44.83027" lon="-0.23242">
        <ele>71.6</ele>
        <time>2020-09-09T14:23:39Z</time>
      </trkpt>
      <trkpt lat="44.83028" lon="-0.23241">
        <ele>71.6</ele>
        <time>2020-09-09T14:23:41Z</time>
      </trkpt>
      <trkpt lat="44.83028" lon="-0.23241">
        <ele>71.7</ele>
        <time>2020-09-09T14:23:42Z</time>
      </trkpt>
      <trkpt lat="44.8303" lon="-0.2324">
        <ele>71.7</ele>
        <time>2020-09-09T14:23:43Z</time>
      </trkpt>
      <trkpt lat="44.83031" lon="-0.23239">
        <ele>71.7</ele>
        <time>2020-09-09T14:23:45Z</time>
      </trkpt>
      <trkpt lat="44.83032" lon="-0.23238">
        <ele>71.7</ele>
        <time>2020-09-09T14:23:46Z</time>
      </trkpt>
      <trkpt lat="44.83032" lon="-0.23237">
        <ele>71.7</ele>
        <time>2020-09-09T14:23:47Z</time>
      </trkpt>
      <trkpt lat="44.83033" lon="-0.23234">
        <ele>71.6</ele>
        <time>2020-09-09T14:23:49Z</time>
      </trkpt>
      <trkpt lat="44.83034" lon="-0.23234">
        <ele>71.6</ele>
        <time>2020-09-09T14:23:50Z</time>
      </trkpt>
      <trkpt lat="44.83034" lon="-0.23233">
        <ele>71.7</ele>
        <time>2020-09-09T14:23:51Z</time>
      </trkpt>
      <trkpt lat="44.83035" lon="-0.23232">
        <ele>71.7</ele>
        <time>2020-09-09T14:23:53Z</time>
      </trkpt>
      <trkpt lat="44.83036" lon="-0.23231">
        <ele>71.7</ele>
        <time>2020-09-09T14:23:54Z</time>
      </trkpt>
      <trkpt lat="44.83036" lon="-0.2323">
        <ele>71.7</ele>
        <time>2020-09-09T14:23:55Z</time>
      </trkpt>
      <trkpt lat="44.83038" lon="-0.2323">
        <ele>71.8</ele>
        <time>2020-09-09T14:23:57Z</time>
      </trkpt>
      <trkpt lat="44.83038" lon="-0.2323">
        <ele>71.7</ele>
        <time>2020-09-09T14:23:58Z</time>
      </trkpt>
      <trkpt lat="44.83039" lon="-0.23227">
        <ele>71.7</ele>
        <time>2020-09-09T14:23:59Z</time>
      </trkpt>
      <trkpt lat="44.83038" lon="-0.23225">
        <ele>71.7</ele>
        <time>2020-09-09T14:24:01Z</time>
      </trkpt>
      <trkpt lat="44.83038" lon="-0.23224">
        <ele>71.7</ele>
        <time>2020-09-09T14:24:03Z</time>
      </trkpt>
      <trkpt lat="44.83037" lon="-0.23223">
        <ele>71.7</ele>
        <time>2020-09-09T14:24:04Z</time>
      </trkpt>
      <trkpt lat="44.83037" lon="-0.23221">
        <ele>71.5</ele>
        <time>2020-09-09T14:24:05Z</time>
      </trkpt>
      <trkpt lat="44.83036" lon="-0.2322">
        <ele>71.5</ele>
        <time>2020-09-09T14:24:06Z</time>
      </trkpt>
      <trkpt lat="44.83035" lon="-0.23218">
        <ele>71.5</ele>
        <time>2020-09-09T14:24:07Z</time>
      </trkpt>
      <trkpt lat="44.83033" lon="-0.23218">
        <ele>71.4</ele>
        <time>2020-09-09T14:24:08Z</time>
      </trkpt>
      <trkpt lat="44.8303" lon="-0.23219">
        <ele>71.3</ele>
        <time>2020-09-09T14:24:09Z</time>
      </trkpt>
      <trkpt lat="44.83028" lon="-0.23218">
        <ele>71.3</ele>
        <time>2020-09-09T14:24:10Z</time>
      </trkpt>
      <trkpt lat="44.83026" lon="-0.23216">
        <ele>71.1</ele>
        <time>2020-09-09T14:24:12Z</time>
      </trkpt>
      <trkpt lat="44.83024" lon="-0.23215">
        <ele>71</ele>
        <time>2020-09-09T14:24:13Z</time>
      </trkpt>
      <trkpt lat="44.83023" lon="-0.23212">
        <ele>70.9</ele>
        <time>2020-09-09T14:24:15Z</time>
      </trkpt>
      <trkpt lat="44.83021" lon="-0.2321">
        <ele>70.8</ele>
        <time>2020-09-09T14:24:17Z</time>
      </trkpt>
      <trkpt lat="44.8302" lon="-0.23208">
        <ele>70.8</ele>
        <time>2020-09-09T14:24:19Z</time>
      </trkpt>
      <trkpt lat="44.8302" lon="-0.23209">
        <ele>70.8</ele>
        <time>2020-09-09T14:24:20Z</time>
      </trkpt>
      <trkpt lat="44.8302" lon="-0.23209">
        <ele>70.8</ele>
        <time>2020-09-09T14:24:21Z</time>
      </trkpt>
      <trkpt lat="44.83019" lon="-0.23208">
        <ele>70.8</ele>
        <time>2020-09-09T14:24:23Z</time>
      </trkpt>
      <trkpt lat="44.83019" lon="-0.23207">
        <ele>70.8</ele>
        <time>2020-09-09T14:24:24Z</time>
      </trkpt>
      <trkpt lat="44.83018" lon="-0.23204">
        <ele>70.6</ele>
        <time>2020-09-09T14:24:26Z</time>
      </trkpt>
      <trkpt lat="44.83016" lon="-0.232">
        <ele>70.5</ele>
        <time>2020-09-09T14:24:27Z</time>
      </trkpt>
      <trkpt lat="44.83015" lon="-0.23198">
        <ele>70.4</ele>
        <time>2020-09-09T14:24:28Z</time>
      </trkpt>
      <trkpt lat="44.83014" lon="-0.23196">
        <ele>70.4</ele>
        <time>2020-09-09T14:24:29Z</time>
      </trkpt>
      <trkpt lat="44.83013" lon="-0.23193">
        <ele>70.4</ele>
        <time>2020-09-09T14:24:30Z</time>
      </trkpt>
      <trkpt lat="44.83012" lon="-0.23189">
        <ele>70.2</ele>
        <time>2020-09-09T14:24:32Z</time>
      </trkpt>
      <trkpt lat="44.8301" lon="-0.23185">
        <ele>70.1</ele>
        <time>2020-09-09T14:24:33Z</time>
      </trkpt>
      <trkpt lat="44.8301" lon="-0.23181">
        <ele>69.9</ele>
        <time>2020-09-09T14:24:34Z</time>
      </trkpt>
      <trkpt lat="44.83009" lon="-0.2318">
        <ele>69.9</ele>
        <time>2020-09-09T14:24:35Z</time>
      </trkpt>
      <trkpt lat="44.83009" lon="-0.23178">
        <ele>69.9</ele>
        <time>2020-09-09T14:24:36Z</time>
      </trkpt>
      <trkpt lat="44.83008" lon="-0.23176">
        <ele>69.9</ele>
        <time>2020-09-09T14:24:37Z</time>
      </trkpt>
      <trkpt lat="44.83008" lon="-0.23175">
        <ele>69.9</ele>
        <time>2020-09-09T14:24:38Z</time>
      </trkpt>
      <trkpt lat="44.83007" lon="-0.23173">
        <ele>69.8</ele>
        <time>2020-09-09T14:24:39Z</time>
      </trkpt>
      <trkpt lat="44.83007" lon="-0.23173">
        <ele>69.8</ele>
        <time>2020-09-09T14:24:40Z</time>
      </trkpt>
      <trkpt lat="44.83005" lon="-0.2317">
        <ele>69.6</ele>
        <time>2020-09-09T14:24:42Z</time>
      </trkpt>
      <trkpt lat="44.83005" lon="-0.23169">
        <ele>69.6</ele>
        <time>2020-09-09T14:24:43Z</time>
      </trkpt>
      <trkpt lat="44.83004" lon="-0.23168">
        <ele>69.6</ele>
        <time>2020-09-09T14:24:44Z</time>
      </trkpt>
      <trkpt lat="44.83003" lon="-0.23165">
        <ele>69.4</ele>
        <time>2020-09-09T14:24:46Z</time>
      </trkpt>
      <trkpt lat="44.83002" lon="-0.23164">
        <ele>69.4</ele>
        <time>2020-09-09T14:24:48Z</time>
      </trkpt>
      <trkpt lat="44.83001" lon="-0.23162">
        <ele>69.4</ele>
        <time>2020-09-09T14:24:49Z</time>
      </trkpt>
      <trkpt lat="44.83" lon="-0.23161">
        <ele>69.2</ele>
        <time>2020-09-09T14:24:50Z</time>
      </trkpt>
      <trkpt lat="44.82999" lon="-0.23157">
        <ele>69.1</ele>
        <time>2020-09-09T14:24:51Z</time>
      </trkpt>
      <trkpt lat="44.82998" lon="-0.23154">
        <ele>69.1</ele>
        <time>2020-09-09T14:24:52Z</time>
      </trkpt>
      <trkpt lat="44.82997" lon="-0.23153">
        <ele>69</ele>
        <time>2020-09-09T14:24:54Z</time>
      </trkpt>
      <trkpt lat="44.82997" lon="-0.23151">
        <ele>68.9</ele>
        <time>2020-09-09T14:24:55Z</time>
      </trkpt>
      <trkpt lat="44.82996" lon="-0.2315">
        <ele>68.9</ele>
        <time>2020-09-09T14:24:56Z</time>
      </trkpt>
      <trkpt lat="44.82996" lon="-0.23148">
        <ele>68.8</ele>
        <time>2020-09-09T14:24:57Z</time>
      </trkpt>
      <trkpt lat="44.82995" lon="-0.23146">
        <ele>68.8</ele>
        <time>2020-09-09T14:24:58Z</time>
      </trkpt>
      <trkpt lat="44.82994" lon="-0.23144">
        <ele>68.6</ele>
        <time>2020-09-09T14:24:59Z</time>
      </trkpt>
      <trkpt lat="44.82992" lon="-0.2314">
        <ele>68.4</ele>
        <time>2020-09-09T14:25:01Z</time>
      </trkpt>
      <trkpt lat="44.82992" lon="-0.23139">
        <ele>68.4</ele>
        <time>2020-09-09T14:25:02Z</time>
      </trkpt>
      <trkpt lat="44.82991" lon="-0.23137">
        <ele>68.3</ele>
        <time>2020-09-09T14:25:03Z</time>
      </trkpt>
      <trkpt lat="44.8299" lon="-0.23135">
        <ele>68.2</ele>
        <time>2020-09-09T14:25:04Z</time>
      </trkpt>
      <trkpt lat="44.8299" lon="-0.23134">
        <ele>68.2</ele>
        <time>2020-09-09T14:25:06Z</time>
      </trkpt>
      <trkpt lat="44.82989" lon="-0.23132">
        <ele>68.2</ele>
        <time>2020-09-09T14:25:07Z</time>
      </trkpt>
      <trkpt lat="44.82988" lon="-0.23129">
        <ele>67.9</ele>
        <time>2020-09-09T14:25:08Z</time>
      </trkpt>
      <trkpt lat="44.82987" lon="-0.23128">
        <ele>67.9</ele>
        <time>2020-09-09T14:25:09Z</time>
      </trkpt>
      <trkpt lat="44.82987" lon="-0.23127">
        <ele>67.9</ele>
        <time>2020-09-09T14:25:10Z</time>
      </trkpt>
      <trkpt lat="44.82985" lon="-0.23124">
        <ele>67.7</ele>
        <time>2020-09-09T14:25:12Z</time>
      </trkpt>
      <trkpt lat="44.82984" lon="-0.23123">
        <ele>67.5</ele>
        <time>2020-09-09T14:25:13Z</time>
      </trkpt>
      <trkpt lat="44.82984" lon="-0.23121">
        <ele>67.5</ele>
        <time>2020-09-09T14:25:14Z</time>
      </trkpt>
      <trkpt lat="44.82983" lon="-0.23119">
        <ele>67.5</ele>
        <time>2020-09-09T14:25:15Z</time>
      </trkpt>
      <trkpt lat="44.82982" lon="-0.23117">
        <ele>67.4</ele>
        <time>2020-09-09T14:25:16Z</time>
      </trkpt>
      <trkpt lat="44.82982" lon="-0.23115">
        <ele>67.3</ele>
        <time>2020-09-09T14:25:17Z</time>
      </trkpt>
      <trkpt lat="44.82981" lon="-0.23113">
        <ele>67.1</ele>
        <time>2020-09-09T14:25:19Z</time>
      </trkpt>
      <trkpt lat="44.82981" lon="-0.23112">
        <ele>67.1</ele>
        <time>2020-09-09T14:25:20Z</time>
      </trkpt>
      <trkpt lat="44.8298" lon="-0.23111">
        <ele>67.1</ele>
        <time>2020-09-09T14:25:22Z</time>
      </trkpt>
      <trkpt lat="44.8298" lon="-0.2311">
        <ele>67</ele>
        <time>2020-09-09T14:25:23Z</time>
      </trkpt>
      <trkpt lat="44.82979" lon="-0.23109">
        <ele>67</ele>
        <time>2020-09-09T14:25:24Z</time>
      </trkpt>
      <trkpt lat="44.82979" lon="-0.23107">
        <ele>66.9</ele>
        <time>2020-09-09T14:25:25Z</time>
      </trkpt>
      <trkpt lat="44.82978" lon="-0.23106">
        <ele>66.9</ele>
        <time>2020-09-09T14:25:26Z</time>
      </trkpt>
      <trkpt lat="44.82977" lon="-0.23105">
        <ele>66.7</ele>
        <time>2020-09-09T14:25:27Z</time>
      </trkpt>
      <trkpt lat="44.82976" lon="-0.23103">
        <ele>66.7</ele>
        <time>2020-09-09T14:25:29Z</time>
      </trkpt>
      <trkpt lat="44.82975" lon="-0.231">
        <ele>66.4</ele>
        <time>2020-09-09T14:25:30Z</time>
      </trkpt>
      <trkpt lat="44.82975" lon="-0.231">
        <ele>66.4</ele>
        <time>2020-09-09T14:25:31Z</time>
      </trkpt>
      <trkpt lat="44.82974" lon="-0.23099">
        <ele>66.4</ele>
        <time>2020-09-09T14:25:32Z</time>
      </trkpt>
      <trkpt lat="44.82973" lon="-0.23095">
        <ele>66.1</ele>
        <time>2020-09-09T14:25:34Z</time>
      </trkpt>
      <trkpt lat="44.82973" lon="-0.23094">
        <ele>66.1</ele>
        <time>2020-09-09T14:25:35Z</time>
      </trkpt>
      <trkpt lat="44.82972" lon="-0.23093">
        <ele>66.1</ele>
        <time>2020-09-09T14:25:36Z</time>
      </trkpt>
      <trkpt lat="44.82972" lon="-0.23091">
        <ele>66</ele>
        <time>2020-09-09T14:25:38Z</time>
      </trkpt>
      <trkpt lat="44.82972" lon="-0.23089">
        <ele>66</ele>
        <time>2020-09-09T14:25:39Z</time>
      </trkpt>
      <trkpt lat="44.82971" lon="-0.23088">
        <ele>65.8</ele>
        <time>2020-09-09T14:25:40Z</time>
      </trkpt>
      <trkpt lat="44.82971" lon="-0.23087">
        <ele>65.8</ele>
        <time>2020-09-09T14:25:41Z</time>
      </trkpt>
      <trkpt lat="44.8297" lon="-0.23085">
        <ele>65.8</ele>
        <time>2020-09-09T14:25:42Z</time>
      </trkpt>
      <trkpt lat="44.8297" lon="-0.23083">
        <ele>65.5</ele>
        <time>2020-09-09T14:25:43Z</time>
      </trkpt>
      <trkpt lat="44.82969" lon="-0.23081">
        <ele>65.5</ele>
        <time>2020-09-09T14:25:44Z</time>
      </trkpt>
      <trkpt lat="44.82969" lon="-0.2308">
        <ele>65.5</ele>
        <time>2020-09-09T14:25:45Z</time>
      </trkpt>
      <trkpt lat="44.82968" lon="-0.23078">
        <ele>65.4</ele>
        <time>2020-09-09T14:25:47Z</time>
      </trkpt>
      <trkpt lat="44.82967" lon="-0.23076">
        <ele>65.4</ele>
        <time>2020-09-09T14:25:48Z</time>
      </trkpt>
      <trkpt lat="44.82966" lon="-0.23073">
        <ele>65.1</ele>
        <time>2020-09-09T14:25:49Z</time>
      </trkpt>
      <trkpt lat="44.82965" lon="-0.23071">
        <ele>65.1</ele>
        <time>2020-09-09T14:25:51Z</time>
      </trkpt>
      <trkpt lat="44.82964" lon="-0.2307">
        <ele>64.8</ele>
        <time>2020-09-09T14:25:52Z</time>
      </trkpt>
      <trkpt lat="44.82964" lon="-0.23069">
        <ele>64.7</ele>
        <time>2020-09-09T14:25:53Z</time>
      </trkpt>
      <trkpt lat="44.82963" lon="-0.23068">
        <ele>64.7</ele>
        <time>2020-09-09T14:25:54Z</time>
      </trkpt>
      <trkpt lat="44.82962" lon="-0.23066">
        <ele>64.5</ele>
        <time>2020-09-09T14:25:55Z</time>
      </trkpt>
      <trkpt lat="44.82962" lon="-0.23064">
        <ele>64.5</ele>
        <time>2020-09-09T14:25:56Z</time>
      </trkpt>
      <trkpt lat="44.82961" lon="-0.23063">
        <ele>64.5</ele>
        <time>2020-09-09T14:25:57Z</time>
      </trkpt>
      <trkpt lat="44.82961" lon="-0.23062">
        <ele>64.2</ele>
        <time>2020-09-09T14:25:58Z</time>
      </trkpt>
      <trkpt lat="44.8296" lon="-0.23061">
        <ele>64.2</ele>
        <time>2020-09-09T14:25:59Z</time>
      </trkpt>
      <trkpt lat="44.8296" lon="-0.2306">
        <ele>64.2</ele>
        <time>2020-09-09T14:26:00Z</time>
      </trkpt>
      <trkpt lat="44.82959" lon="-0.23058">
        <ele>64</ele>
        <time>2020-09-09T14:26:02Z</time>
      </trkpt>
      <trkpt lat="44.82958" lon="-0.23057">
        <ele>64</ele>
        <time>2020-09-09T14:26:03Z</time>
      </trkpt>
      <trkpt lat="44.82957" lon="-0.23055">
        <ele>63.8</ele>
        <time>2020-09-09T14:26:04Z</time>
      </trkpt>
      <trkpt lat="44.82957" lon="-0.23054">
        <ele>63.6</ele>
        <time>2020-09-09T14:26:05Z</time>
      </trkpt>
      <trkpt lat="44.82956" lon="-0.23051">
        <ele>63.6</ele>
        <time>2020-09-09T14:26:07Z</time>
      </trkpt>
      <trkpt lat="44.82956" lon="-0.23049">
        <ele>63.4</ele>
        <time>2020-09-09T14:26:08Z</time>
      </trkpt>
      <trkpt lat="44.82955" lon="-0.23047">
        <ele>63.4</ele>
        <time>2020-09-09T14:26:10Z</time>
      </trkpt>
      <trkpt lat="44.82955" lon="-0.23046">
        <ele>63.3</ele>
        <time>2020-09-09T14:26:11Z</time>
      </trkpt>
      <trkpt lat="44.82954" lon="-0.23043">
        <ele>63.1</ele>
        <time>2020-09-09T14:26:12Z</time>
      </trkpt>
      <trkpt lat="44.82954" lon="-0.23041">
        <ele>62.9</ele>
        <time>2020-09-09T14:26:14Z</time>
      </trkpt>
      <trkpt lat="44.82954" lon="-0.2304">
        <ele>62.9</ele>
        <time>2020-09-09T14:26:15Z</time>
      </trkpt>
      <trkpt lat="44.82954" lon="-0.23039">
        <ele>62.9</ele>
        <time>2020-09-09T14:26:16Z</time>
      </trkpt>
      <trkpt lat="44.82956" lon="-0.23037">
        <ele>62.8</ele>
        <time>2020-09-09T14:26:17Z</time>
      </trkpt>
      <trkpt lat="44.82957" lon="-0.23036">
        <ele>62.8</ele>
        <time>2020-09-09T14:26:18Z</time>
      </trkpt>
      <trkpt lat="44.82958" lon="-0.23036">
        <ele>62.8</ele>
        <time>2020-09-09T14:26:20Z</time>
      </trkpt>
      <trkpt lat="44.82959" lon="-0.23035">
        <ele>63</ele>
        <time>2020-09-09T14:26:21Z</time>
      </trkpt>
      <trkpt lat="44.8296" lon="-0.23034">
        <ele>63</ele>
        <time>2020-09-09T14:26:22Z</time>
      </trkpt>
      <trkpt lat="44.82961" lon="-0.23034">
        <ele>63.2</ele>
        <time>2020-09-09T14:26:24Z</time>
      </trkpt>
      <trkpt lat="44.82963" lon="-0.23033">
        <ele>63.2</ele>
        <time>2020-09-09T14:26:25Z</time>
      </trkpt>
      <trkpt lat="44.82964" lon="-0.23033">
        <ele>63.2</ele>
        <time>2020-09-09T14:26:26Z</time>
      </trkpt>
      <trkpt lat="44.82965" lon="-0.23032">
        <ele>63.2</ele>
        <time>2020-09-09T14:26:27Z</time>
      </trkpt>
      <trkpt lat="44.82967" lon="-0.23032">
        <ele>63.2</ele>
        <time>2020-09-09T14:26:29Z</time>
      </trkpt>
      <trkpt lat="44.82968" lon="-0.23032">
        <ele>63.4</ele>
        <time>2020-09-09T14:26:30Z</time>
      </trkpt>
      <trkpt lat="44.82969" lon="-0.23031">
        <ele>63.4</ele>
        <time>2020-09-09T14:26:31Z</time>
      </trkpt>
      <trkpt lat="44.82971" lon="-0.2303">
        <ele>63.6</ele>
        <time>2020-09-09T14:26:32Z</time>
      </trkpt>
      <trkpt lat="44.82972" lon="-0.2303">
        <ele>63.6</ele>
        <time>2020-09-09T14:26:33Z</time>
      </trkpt>
      <trkpt lat="44.82974" lon="-0.23029">
        <ele>63.8</ele>
        <time>2020-09-09T14:26:34Z</time>
      </trkpt>
      <trkpt lat="44.82975" lon="-0.23029">
        <ele>63.8</ele>
        <time>2020-09-09T14:26:36Z</time>
      </trkpt>
      <trkpt lat="44.82975" lon="-0.23029">
        <ele>63.8</ele>
        <time>2020-09-09T14:26:37Z</time>
      </trkpt>
      <trkpt lat="44.82976" lon="-0.23028">
        <ele>63.6</ele>
        <time>2020-09-09T14:26:39Z</time>
      </trkpt>
      <trkpt lat="44.82977" lon="-0.23028">
        <ele>63.8</ele>
        <time>2020-09-09T14:26:40Z</time>
      </trkpt>
      <trkpt lat="44.82978" lon="-0.23028">
        <ele>63.8</ele>
        <time>2020-09-09T14:26:41Z</time>
      </trkpt>
      <trkpt lat="44.82979" lon="-0.23027">
        <ele>63.8</ele>
        <time>2020-09-09T14:26:42Z</time>
      </trkpt>
      <trkpt lat="44.8298" lon="-0.23027">
        <ele>63.9</ele>
        <time>2020-09-09T14:26:43Z</time>
      </trkpt>
      <trkpt lat="44.82981" lon="-0.23025">
        <ele>63.9</ele>
        <time>2020-09-09T14:26:45Z</time>
      </trkpt>
      <trkpt lat="44.82984" lon="-0.23023">
        <ele>63.9</ele>
        <time>2020-09-09T14:26:47Z</time>
      </trkpt>
      <trkpt lat="44.82985" lon="-0.23022">
        <ele>63.9</ele>
        <time>2020-09-09T14:26:48Z</time>
      </trkpt>
      <trkpt lat="44.82986" lon="-0.2302">
        <ele>64.1</ele>
        <time>2020-09-09T14:26:50Z</time>
      </trkpt>
      <trkpt lat="44.82989" lon="-0.23018">
        <ele>64.1</ele>
        <time>2020-09-09T14:26:52Z</time>
      </trkpt>
      <trkpt lat="44.8299" lon="-0.23017">
        <ele>64.1</ele>
        <time>2020-09-09T14:26:54Z</time>
      </trkpt>
      <trkpt lat="44.82991" lon="-0.23016">
        <ele>64.1</ele>
        <time>2020-09-09T14:26:55Z</time>
      </trkpt>
      <trkpt lat="44.82992" lon="-0.23015">
        <ele>64</ele>
        <time>2020-09-09T14:26:56Z</time>
      </trkpt>
      <trkpt lat="44.82993" lon="-0.23013">
        <ele>64</ele>
        <time>2020-09-09T14:26:57Z</time>
      </trkpt>
      <trkpt lat="44.82994" lon="-0.23012">
        <ele>64</ele>
        <time>2020-09-09T14:26:58Z</time>
      </trkpt>
      <trkpt lat="44.82994" lon="-0.2301">
        <ele>64</ele>
        <time>2020-09-09T14:26:59Z</time>
      </trkpt>
      <trkpt lat="44.82995" lon="-0.23009">
        <ele>64</ele>
        <time>2020-09-09T14:27:01Z</time>
      </trkpt>
      <trkpt lat="44.82996" lon="-0.23008">
        <ele>64</ele>
        <time>2020-09-09T14:27:02Z</time>
      </trkpt>
      <trkpt lat="44.82997" lon="-0.23005">
        <ele>63.8</ele>
        <time>2020-09-09T14:27:03Z</time>
      </trkpt>
      <trkpt lat="44.82999" lon="-0.23003">
        <ele>64</ele>
        <time>2020-09-09T14:27:04Z</time>
      </trkpt>
      <trkpt lat="44.82999" lon="-0.23002">
        <ele>63.8</ele>
        <time>2020-09-09T14:27:05Z</time>
      </trkpt>
      <trkpt lat="44.83" lon="-0.23001">
        <ele>63.8</ele>
        <time>2020-09-09T14:27:06Z</time>
      </trkpt>
      <trkpt lat="44.83001" lon="-0.22999">
        <ele>63.9</ele>
        <time>2020-09-09T14:27:08Z</time>
      </trkpt>
      <trkpt lat="44.83002" lon="-0.22998">
        <ele>63.7</ele>
        <time>2020-09-09T14:27:09Z</time>
      </trkpt>
      <trkpt lat="44.83002" lon="-0.22997">
        <ele>63.7</ele>
        <time>2020-09-09T14:27:10Z</time>
      </trkpt>
      <trkpt lat="44.83003" lon="-0.22996">
        <ele>63.7</ele>
        <time>2020-09-09T14:27:11Z</time>
      </trkpt>
      <trkpt lat="44.83003" lon="-0.22995">
        <ele>63.7</ele>
        <time>2020-09-09T14:27:12Z</time>
      </trkpt>
      <trkpt lat="44.83003" lon="-0.22994">
        <ele>63.7</ele>
        <time>2020-09-09T14:27:14Z</time>
      </trkpt>
      <trkpt lat="44.83003" lon="-0.22994">
        <ele>63.5</ele>
        <time>2020-09-09T14:27:16Z</time>
      </trkpt>
      <trkpt lat="44.83004" lon="-0.22993">
        <ele>63.7</ele>
        <time>2020-09-09T14:27:18Z</time>
      </trkpt>
      <trkpt lat="44.83004" lon="-0.22993">
        <ele>63.7</ele>
        <time>2020-09-09T14:27:20Z</time>
      </trkpt>
      <trkpt lat="44.83005" lon="-0.22992">
        <ele>63.7</ele>
        <time>2020-09-09T14:27:22Z</time>
      </trkpt>
      <trkpt lat="44.83006" lon="-0.22991">
        <ele>63.7</ele>
        <time>2020-09-09T14:27:23Z</time>
      </trkpt>
      <trkpt lat="44.83006" lon="-0.2299">
        <ele>63.7</ele>
        <time>2020-09-09T14:27:24Z</time>
      </trkpt>
      <trkpt lat="44.83007" lon="-0.22989">
        <ele>63.6</ele>
        <time>2020-09-09T14:27:25Z</time>
      </trkpt>
      <trkpt lat="44.83008" lon="-0.22988">
        <ele>63.6</ele>
        <time>2020-09-09T14:27:26Z</time>
      </trkpt>
      <trkpt lat="44.83008" lon="-0.22987">
        <ele>63.6</ele>
        <time>2020-09-09T14:27:27Z</time>
      </trkpt>
      <trkpt lat="44.83009" lon="-0.22987">
        <ele>63.6</ele>
        <time>2020-09-09T14:27:28Z</time>
      </trkpt>
      <trkpt lat="44.83009" lon="-0.22986">
        <ele>63.6</ele>
        <time>2020-09-09T14:27:30Z</time>
      </trkpt>
      <trkpt lat="44.8301" lon="-0.22985">
        <ele>63.6</ele>
        <time>2020-09-09T14:27:31Z</time>
      </trkpt>
      <trkpt lat="44.83011" lon="-0.22984">
        <ele>63.6</ele>
        <time>2020-09-09T14:27:32Z</time>
      </trkpt>
      <trkpt lat="44.83011" lon="-0.22982">
        <ele>63.6</ele>
        <time>2020-09-09T14:27:33Z</time>
      </trkpt>
      <trkpt lat="44.83012" lon="-0.22981">
        <ele>63.4</ele>
        <time>2020-09-09T14:27:34Z</time>
      </trkpt>
      <trkpt lat="44.83013" lon="-0.2298">
        <ele>63.4</ele>
        <time>2020-09-09T14:27:35Z</time>
      </trkpt>
      <trkpt lat="44.83013" lon="-0.22978">
        <ele>63.5</ele>
        <time>2020-09-09T14:27:36Z</time>
      </trkpt>
      <trkpt lat="44.83014" lon="-0.22976">
        <ele>63.3</ele>
        <time>2020-09-09T14:27:38Z</time>
      </trkpt>
      <trkpt lat="44.83014" lon="-0.22974">
        <ele>63.3</ele>
        <time>2020-09-09T14:27:39Z</time>
      </trkpt>
      <trkpt lat="44.83014" lon="-0.22973">
        <ele>63.3</ele>
        <time>2020-09-09T14:27:40Z</time>
      </trkpt>
      <trkpt lat="44.83014" lon="-0.22971">
        <ele>63.1</ele>
        <time>2020-09-09T14:27:42Z</time>
      </trkpt>
      <trkpt lat="44.83015" lon="-0.22968">
        <ele>62.8</ele>
        <time>2020-09-09T14:27:43Z</time>
      </trkpt>
      <trkpt lat="44.83014" lon="-0.22967">
        <ele>62.8</ele>
        <time>2020-09-09T14:27:44Z</time>
      </trkpt>
      <trkpt lat="44.83013" lon="-0.22967">
        <ele>62.8</ele>
        <time>2020-09-09T14:27:45Z</time>
      </trkpt>
      <trkpt lat="44.83011" lon="-0.22967">
        <ele>62.7</ele>
        <time>2020-09-09T14:27:46Z</time>
      </trkpt>
      <trkpt lat="44.83009" lon="-0.22968">
        <ele>62.5</ele>
        <time>2020-09-09T14:27:47Z</time>
      </trkpt>
      <trkpt lat="44.83008" lon="-0.2297">
        <ele>62.8</ele>
        <time>2020-09-09T14:27:49Z</time>
      </trkpt>
      <trkpt lat="44.83008" lon="-0.22972">
        <ele>62.8</ele>
        <time>2020-09-09T14:27:50Z</time>
      </trkpt>
      <trkpt lat="44.83007" lon="-0.22974">
        <ele>63</ele>
        <time>2020-09-09T14:27:51Z</time>
      </trkpt>
      <trkpt lat="44.83006" lon="-0.22977">
        <ele>63.1</ele>
        <time>2020-09-09T14:27:53Z</time>
      </trkpt>
      <trkpt lat="44.83005" lon="-0.22979">
        <ele>63.1</ele>
        <time>2020-09-09T14:27:54Z</time>
      </trkpt>
      <trkpt lat="44.83005" lon="-0.22981">
        <ele>63.1</ele>
        <time>2020-09-09T14:27:55Z</time>
      </trkpt>
      <trkpt lat="44.83003" lon="-0.22984">
        <ele>63.1</ele>
        <time>2020-09-09T14:27:56Z</time>
      </trkpt>
      <trkpt lat="44.83002" lon="-0.22985">
        <ele>63.1</ele>
        <time>2020-09-09T14:27:57Z</time>
      </trkpt>
      <trkpt lat="44.83001" lon="-0.22987">
        <ele>63.3</ele>
        <time>2020-09-09T14:27:58Z</time>
      </trkpt>
      <trkpt lat="44.82999" lon="-0.22989">
        <ele>63.2</ele>
        <time>2020-09-09T14:28:00Z</time>
      </trkpt>
      <trkpt lat="44.82996" lon="-0.2299">
        <ele>63.2</ele>
        <time>2020-09-09T14:28:01Z</time>
      </trkpt>
      <trkpt lat="44.82993" lon="-0.22991">
        <ele>63</ele>
        <time>2020-09-09T14:28:02Z</time>
      </trkpt>
      <trkpt lat="44.82992" lon="-0.2299">
        <ele>63</ele>
        <time>2020-09-09T14:28:03Z</time>
      </trkpt>
      <trkpt lat="44.8299" lon="-0.2299">
        <ele>62.6</ele>
        <time>2020-09-09T14:28:05Z</time>
      </trkpt>
      <trkpt lat="44.82989" lon="-0.22989">
        <ele>62.6</ele>
        <time>2020-09-09T14:28:06Z</time>
      </trkpt>
      <trkpt lat="44.82988" lon="-0.22986">
        <ele>62.6</ele>
        <time>2020-09-09T14:28:08Z</time>
      </trkpt>
      <trkpt lat="44.82988" lon="-0.22985">
        <ele>62.2</ele>
        <time>2020-09-09T14:28:09Z</time>
      </trkpt>
      <trkpt lat="44.82987" lon="-0.22983">
        <ele>62.2</ele>
        <time>2020-09-09T14:28:11Z</time>
      </trkpt>
      <trkpt lat="44.82987" lon="-0.2298">
        <ele>62</ele>
        <time>2020-09-09T14:28:13Z</time>
      </trkpt>
      <trkpt lat="44.82987" lon="-0.22979">
        <ele>62</ele>
        <time>2020-09-09T14:28:14Z</time>
      </trkpt>
      <trkpt lat="44.82987" lon="-0.22978">
        <ele>62</ele>
        <time>2020-09-09T14:28:15Z</time>
      </trkpt>
      <trkpt lat="44.82988" lon="-0.22977">
        <ele>62</ele>
        <time>2020-09-09T14:28:16Z</time>
      </trkpt>
      <trkpt lat="44.82989" lon="-0.22975">
        <ele>61.9</ele>
        <time>2020-09-09T14:28:18Z</time>
      </trkpt>
      <trkpt lat="44.82989" lon="-0.22974">
        <ele>61.9</ele>
        <time>2020-09-09T14:28:19Z</time>
      </trkpt>
      <trkpt lat="44.8299" lon="-0.22973">
        <ele>61.9</ele>
        <time>2020-09-09T14:28:20Z</time>
      </trkpt>
      <trkpt lat="44.82991" lon="-0.22971">
        <ele>61.6</ele>
        <time>2020-09-09T14:28:21Z</time>
      </trkpt>
      <trkpt lat="44.82992" lon="-0.22967">
        <ele>61.5</ele>
        <time>2020-09-09T14:28:23Z</time>
      </trkpt>
      <trkpt lat="44.82993" lon="-0.22965">
        <ele>61.5</ele>
        <time>2020-09-09T14:28:24Z</time>
      </trkpt>
      <trkpt lat="44.82994" lon="-0.22964">
        <ele>61.5</ele>
        <time>2020-09-09T14:28:25Z</time>
      </trkpt>
      <trkpt lat="44.82994" lon="-0.22963">
        <ele>61.5</ele>
        <time>2020-09-09T14:28:26Z</time>
      </trkpt>
      <trkpt lat="44.82995" lon="-0.2296">
        <ele>61.2</ele>
        <time>2020-09-09T14:28:28Z</time>
      </trkpt>
      <trkpt lat="44.82996" lon="-0.22958">
        <ele>61.2</ele>
        <time>2020-09-09T14:28:29Z</time>
      </trkpt>
      <trkpt lat="44.82998" lon="-0.22956">
        <ele>61.4</ele>
        <time>2020-09-09T14:28:30Z</time>
      </trkpt>
      <trkpt lat="44.82999" lon="-0.22955">
        <ele>61.1</ele>
        <time>2020-09-09T14:28:32Z</time>
      </trkpt>
      <trkpt lat="44.83" lon="-0.22953">
        <ele>61.1</ele>
        <time>2020-09-09T14:28:33Z</time>
      </trkpt>
      <trkpt lat="44.83001" lon="-0.22952">
        <ele>61.3</ele>
        <time>2020-09-09T14:28:34Z</time>
      </trkpt>
      <trkpt lat="44.83002" lon="-0.22951">
        <ele>61.1</ele>
        <time>2020-09-09T14:28:36Z</time>
      </trkpt>
      <trkpt lat="44.83004" lon="-0.2295">
        <ele>61.3</ele>
        <time>2020-09-09T14:28:37Z</time>
      </trkpt>
      <trkpt lat="44.83006" lon="-0.22947">
        <ele>61.3</ele>
        <time>2020-09-09T14:28:39Z</time>
      </trkpt>
      <trkpt lat="44.83007" lon="-0.22946">
        <ele>61.3</ele>
        <time>2020-09-09T14:28:40Z</time>
      </trkpt>
      <trkpt lat="44.83008" lon="-0.22945">
        <ele>61.3</ele>
        <time>2020-09-09T14:28:41Z</time>
      </trkpt>
      <trkpt lat="44.83008" lon="-0.22943">
        <ele>61.3</ele>
        <time>2020-09-09T14:28:42Z</time>
      </trkpt>
      <trkpt lat="44.8301" lon="-0.22941">
        <ele>61.2</ele>
        <time>2020-09-09T14:28:43Z</time>
      </trkpt>
      <trkpt lat="44.83011" lon="-0.2294">
        <ele>61.2</ele>
        <time>2020-09-09T14:28:44Z</time>
      </trkpt>
      <trkpt lat="44.83012" lon="-0.22938">
        <ele>61</ele>
        <time>2020-09-09T14:28:46Z</time>
      </trkpt>
      <trkpt lat="44.83013" lon="-0.22936">
        <ele>61.2</ele>
        <time>2020-09-09T14:28:47Z</time>
      </trkpt>
      <trkpt lat="44.83014" lon="-0.22934">
        <ele>61</ele>
        <time>2020-09-09T14:28:48Z</time>
      </trkpt>
      <trkpt lat="44.83014" lon="-0.22933">
        <ele>61</ele>
        <time>2020-09-09T14:28:49Z</time>
      </trkpt>
      <trkpt lat="44.83015" lon="-0.22932">
        <ele>61</ele>
        <time>2020-09-09T14:28:50Z</time>
      </trkpt>
      <trkpt lat="44.83016" lon="-0.2293">
        <ele>61</ele>
        <time>2020-09-09T14:28:52Z</time>
      </trkpt>
      <trkpt lat="44.83017" lon="-0.22928">
        <ele>61</ele>
        <time>2020-09-09T14:28:53Z</time>
      </trkpt>
      <trkpt lat="44.83018" lon="-0.22926">
        <ele>61</ele>
        <time>2020-09-09T14:28:54Z</time>
      </trkpt>
      <trkpt lat="44.83019" lon="-0.22924">
        <ele>60.9</ele>
        <time>2020-09-09T14:28:56Z</time>
      </trkpt>
      <trkpt lat="44.8302" lon="-0.22923">
        <ele>60.9</ele>
        <time>2020-09-09T14:28:57Z</time>
      </trkpt>
      <trkpt lat="44.8302" lon="-0.22922">
        <ele>60.9</ele>
        <time>2020-09-09T14:28:58Z</time>
      </trkpt>
      <trkpt lat="44.8302" lon="-0.22919">
        <ele>60.6</ele>
        <time>2020-09-09T14:29:00Z</time>
      </trkpt>
      <trkpt lat="44.8302" lon="-0.22917">
        <ele>60.4</ele>
        <time>2020-09-09T14:29:01Z</time>
      </trkpt>
      <trkpt lat="44.8302" lon="-0.22916">
        <ele>60.4</ele>
        <time>2020-09-09T14:29:03Z</time>
      </trkpt>
      <trkpt lat="44.8302" lon="-0.22915">
        <ele>60.4</ele>
        <time>2020-09-09T14:29:04Z</time>
      </trkpt>
      <trkpt lat="44.8302" lon="-0.22914">
        <ele>60.4</ele>
        <time>2020-09-09T14:29:05Z</time>
      </trkpt>
      <trkpt lat="44.8302" lon="-0.22912">
        <ele>60.1</ele>
        <time>2020-09-09T14:29:06Z</time>
      </trkpt>
      <trkpt lat="44.8302" lon="-0.2291">
        <ele>60.1</ele>
        <time>2020-09-09T14:29:07Z</time>
      </trkpt>
      <trkpt lat="44.8302" lon="-0.22907">
        <ele>59.8</ele>
        <time>2020-09-09T14:29:08Z</time>
      </trkpt>
      <trkpt lat="44.8302" lon="-0.22906">
        <ele>59.8</ele>
        <time>2020-09-09T14:29:09Z</time>
      </trkpt>
      <trkpt lat="44.83021" lon="-0.22905">
        <ele>59.8</ele>
        <time>2020-09-09T14:29:10Z</time>
      </trkpt>
      <trkpt lat="44.83022" lon="-0.22904">
        <ele>59.5</ele>
        <time>2020-09-09T14:29:12Z</time>
      </trkpt>
      <trkpt lat="44.83023" lon="-0.22902">
        <ele>59.8</ele>
        <time>2020-09-09T14:29:13Z</time>
      </trkpt>
      <trkpt lat="44.83024" lon="-0.22902">
        <ele>59.8</ele>
        <time>2020-09-09T14:29:14Z</time>
      </trkpt>
      <trkpt lat="44.83025" lon="-0.22903">
        <ele>60.1</ele>
        <time>2020-09-09T14:29:15Z</time>
      </trkpt>
      <trkpt lat="44.83026" lon="-0.22903">
        <ele>60.1</ele>
        <time>2020-09-09T14:29:16Z</time>
      </trkpt>
      <trkpt lat="44.83028" lon="-0.22904">
        <ele>60.1</ele>
        <time>2020-09-09T14:29:17Z</time>
      </trkpt>
      <trkpt lat="44.8303" lon="-0.22904">
        <ele>60.6</ele>
        <time>2020-09-09T14:29:19Z</time>
      </trkpt>
      <trkpt lat="44.83032" lon="-0.22905">
        <ele>60.9</ele>
        <time>2020-09-09T14:29:20Z</time>
      </trkpt>
      <trkpt lat="44.83033" lon="-0.22906">
        <ele>60.9</ele>
        <time>2020-09-09T14:29:21Z</time>
      </trkpt>
      <trkpt lat="44.83033" lon="-0.22906">
        <ele>60.9</ele>
        <time>2020-09-09T14:29:22Z</time>
      </trkpt>
      <trkpt lat="44.83036" lon="-0.22907">
        <ele>61.1</ele>
        <time>2020-09-09T14:29:24Z</time>
      </trkpt>
      <trkpt lat="44.83037" lon="-0.22907">
        <ele>61.1</ele>
        <time>2020-09-09T14:29:25Z</time>
      </trkpt>
      <trkpt lat="44.83039" lon="-0.22908">
        <ele>61.4</ele>
        <time>2020-09-09T14:29:26Z</time>
      </trkpt>
      <trkpt lat="44.8304" lon="-0.22909">
        <ele>61.6</ele>
        <time>2020-09-09T14:29:28Z</time>
      </trkpt>
      <trkpt lat="44.83041" lon="-0.22909">
        <ele>61.8</ele>
        <time>2020-09-09T14:29:29Z</time>
      </trkpt>
      <trkpt lat="44.83042" lon="-0.22909">
        <ele>61.8</ele>
        <time>2020-09-09T14:29:30Z</time>
      </trkpt>
      <trkpt lat="44.83043" lon="-0.2291">
        <ele>61.8</ele>
        <time>2020-09-09T14:29:31Z</time>
      </trkpt>
      <trkpt lat="44.83044" lon="-0.22911">
        <ele>62</ele>
        <time>2020-09-09T14:29:32Z</time>
      </trkpt>
      <trkpt lat="44.83046" lon="-0.22914">
        <ele>62.4</ele>
        <time>2020-09-09T14:29:34Z</time>
      </trkpt>
      <trkpt lat="44.83046" lon="-0.22915">
        <ele>62.4</ele>
        <time>2020-09-09T14:29:35Z</time>
      </trkpt>
      <trkpt lat="44.83047" lon="-0.22917">
        <ele>62.4</ele>
        <time>2020-09-09T14:29:36Z</time>
      </trkpt>
      <trkpt lat="44.83048" lon="-0.22917">
        <ele>62.6</ele>
        <time>2020-09-09T14:29:37Z</time>
      </trkpt>
      <trkpt lat="44.83049" lon="-0.22918">
        <ele>62.6</ele>
        <time>2020-09-09T14:29:39Z</time>
      </trkpt>
      <trkpt lat="44.8305" lon="-0.22919">
        <ele>62.8</ele>
        <time>2020-09-09T14:29:40Z</time>
      </trkpt>
      <trkpt lat="44.83051" lon="-0.22919">
        <ele>62.8</ele>
        <time>2020-09-09T14:29:41Z</time>
      </trkpt>
      <trkpt lat="44.83052" lon="-0.22919">
        <ele>62.8</ele>
        <time>2020-09-09T14:29:42Z</time>
      </trkpt>
      <trkpt lat="44.83054" lon="-0.2292">
        <ele>62.9</ele>
        <time>2020-09-09T14:29:43Z</time>
      </trkpt>
      <trkpt lat="44.83055" lon="-0.2292">
        <ele>62.9</ele>
        <time>2020-09-09T14:29:45Z</time>
      </trkpt>
      <trkpt lat="44.83056" lon="-0.22919">
        <ele>63.1</ele>
        <time>2020-09-09T14:29:47Z</time>
      </trkpt>
      <trkpt lat="44.83057" lon="-0.22918">
        <ele>63.1</ele>
        <time>2020-09-09T14:29:49Z</time>
      </trkpt>
      <trkpt lat="44.83058" lon="-0.22916">
        <ele>62.9</ele>
        <time>2020-09-09T14:29:50Z</time>
      </trkpt>
      <trkpt lat="44.83058" lon="-0.22915">
        <ele>62.9</ele>
        <time>2020-09-09T14:29:51Z</time>
      </trkpt>
      <trkpt lat="44.83059" lon="-0.22913">
        <ele>63.1</ele>
        <time>2020-09-09T14:29:52Z</time>
      </trkpt>
      <trkpt lat="44.8306" lon="-0.2291">
        <ele>62.9</ele>
        <time>2020-09-09T14:29:54Z</time>
      </trkpt>
      <trkpt lat="44.83062" lon="-0.22906">
        <ele>62.9</ele>
        <time>2020-09-09T14:29:55Z</time>
      </trkpt>
      <trkpt lat="44.83062" lon="-0.22905">
        <ele>62.9</ele>
        <time>2020-09-09T14:29:57Z</time>
      </trkpt>
      <trkpt lat="44.83063" lon="-0.22903">
        <ele>62.7</ele>
        <time>2020-09-09T14:29:58Z</time>
      </trkpt>
      <trkpt lat="44.83064" lon="-0.22901">
        <ele>62.7</ele>
        <time>2020-09-09T14:29:59Z</time>
      </trkpt>
      <trkpt lat="44.83064" lon="-0.229">
        <ele>62.7</ele>
        <time>2020-09-09T14:30:00Z</time>
      </trkpt>
      <trkpt lat="44.83065" lon="-0.22897">
        <ele>62.7</ele>
        <time>2020-09-09T14:30:02Z</time>
      </trkpt>
      <trkpt lat="44.83067" lon="-0.22892">
        <ele>62.5</ele>
        <time>2020-09-09T14:30:03Z</time>
      </trkpt>
      <trkpt lat="44.83067" lon="-0.2289">
        <ele>62.3</ele>
        <time>2020-09-09T14:30:04Z</time>
      </trkpt>
      <trkpt lat="44.83067" lon="-0.22889">
        <ele>62.3</ele>
        <time>2020-09-09T14:30:05Z</time>
      </trkpt>
      <trkpt lat="44.83068" lon="-0.22886">
        <ele>62.2</ele>
        <time>2020-09-09T14:30:07Z</time>
      </trkpt>
      <trkpt lat="44.83069" lon="-0.22885">
        <ele>62.2</ele>
        <time>2020-09-09T14:30:08Z</time>
      </trkpt>
      <trkpt lat="44.83069" lon="-0.22882">
        <ele>62</ele>
        <time>2020-09-09T14:30:09Z</time>
      </trkpt>
      <trkpt lat="44.8307" lon="-0.22879">
        <ele>62</ele>
        <time>2020-09-09T14:30:10Z</time>
      </trkpt>
      <trkpt lat="44.83071" lon="-0.22878">
        <ele>61.9</ele>
        <time>2020-09-09T14:30:11Z</time>
      </trkpt>
      <trkpt lat="44.83071" lon="-0.22877">
        <ele>61.9</ele>
        <time>2020-09-09T14:30:12Z</time>
      </trkpt>
      <trkpt lat="44.83071" lon="-0.22875">
        <ele>61.9</ele>
        <time>2020-09-09T14:30:13Z</time>
      </trkpt>
      <trkpt lat="44.83073" lon="-0.2287">
        <ele>61.7</ele>
        <time>2020-09-09T14:30:15Z</time>
      </trkpt>
      <trkpt lat="44.83073" lon="-0.22869">
        <ele>61.5</ele>
        <time>2020-09-09T14:30:17Z</time>
      </trkpt>
      <trkpt lat="44.83073" lon="-0.22868">
        <ele>61.5</ele>
        <time>2020-09-09T14:30:18Z</time>
      </trkpt>
      <trkpt lat="44.83074" lon="-0.22866">
        <ele>61.6</ele>
        <time>2020-09-09T14:30:19Z</time>
      </trkpt>
      <trkpt lat="44.83074" lon="-0.22865">
        <ele>61.4</ele>
        <time>2020-09-09T14:30:20Z</time>
      </trkpt>
      <trkpt lat="44.83075" lon="-0.22863">
        <ele>61.4</ele>
        <time>2020-09-09T14:30:22Z</time>
      </trkpt>
      <trkpt lat="44.83075" lon="-0.22861">
        <ele>61.4</ele>
        <time>2020-09-09T14:30:23Z</time>
      </trkpt>
      <trkpt lat="44.83076" lon="-0.22858">
        <ele>61.1</ele>
        <time>2020-09-09T14:30:24Z</time>
      </trkpt>
      <trkpt lat="44.83076" lon="-0.22858">
        <ele>61.1</ele>
        <time>2020-09-09T14:30:25Z</time>
      </trkpt>
      <trkpt lat="44.83076" lon="-0.22855">
        <ele>60.9</ele>
        <time>2020-09-09T14:30:27Z</time>
      </trkpt>
      <trkpt lat="44.83076" lon="-0.22853">
        <ele>60.9</ele>
        <time>2020-09-09T14:30:28Z</time>
      </trkpt>
      <trkpt lat="44.83076" lon="-0.22852">
        <ele>60.7</ele>
        <time>2020-09-09T14:30:29Z</time>
      </trkpt>
      <trkpt lat="44.83076" lon="-0.22852">
        <ele>60.7</ele>
        <time>2020-09-09T14:30:30Z</time>
      </trkpt>
      <trkpt lat="44.83076" lon="-0.22851">
        <ele>60.7</ele>
        <time>2020-09-09T14:30:31Z</time>
      </trkpt>
      <trkpt lat="44.83076" lon="-0.22851">
        <ele>60.7</ele>
        <time>2020-09-09T14:30:32Z</time>
      </trkpt>
      <trkpt lat="44.83075" lon="-0.22852">
        <ele>60.7</ele>
        <time>2020-09-09T14:30:33Z</time>
      </trkpt>
      <trkpt lat="44.83075" lon="-0.22852">
        <ele>60.7</ele>
        <time>2020-09-09T14:30:34Z</time>
      </trkpt>
      <trkpt lat="44.83074" lon="-0.22855">
        <ele>60.9</ele>
        <time>2020-09-09T14:30:36Z</time>
      </trkpt>
      <trkpt lat="44.83073" lon="-0.22856">
        <ele>60.8</ele>
        <time>2020-09-09T14:30:37Z</time>
      </trkpt>
      <trkpt lat="44.83073" lon="-0.22857">
        <ele>61</ele>
        <time>2020-09-09T14:30:38Z</time>
      </trkpt>
      <trkpt lat="44.83072" lon="-0.22859">
        <ele>61</ele>
        <time>2020-09-09T14:30:40Z</time>
      </trkpt>
      <trkpt lat="44.83072" lon="-0.22861">
        <ele>61</ele>
        <time>2020-09-09T14:30:41Z</time>
      </trkpt>
      <trkpt lat="44.83071" lon="-0.22863">
        <ele>61.2</ele>
        <time>2020-09-09T14:30:43Z</time>
      </trkpt>
      <trkpt lat="44.8307" lon="-0.22865">
        <ele>61.1</ele>
        <time>2020-09-09T14:30:44Z</time>
      </trkpt>
      <trkpt lat="44.8307" lon="-0.22867">
        <ele>61.3</ele>
        <time>2020-09-09T14:30:45Z</time>
      </trkpt>
      <trkpt lat="44.83068" lon="-0.22871">
        <ele>61.6</ele>
        <time>2020-09-09T14:30:47Z</time>
      </trkpt>
      <trkpt lat="44.83068" lon="-0.22872">
        <ele>61.6</ele>
        <time>2020-09-09T14:30:48Z</time>
      </trkpt>
      <trkpt lat="44.83067" lon="-0.22873">
        <ele>61.4</ele>
        <time>2020-09-09T14:30:49Z</time>
      </trkpt>
      <trkpt lat="44.83066" lon="-0.22875">
        <ele>61.7</ele>
        <time>2020-09-09T14:30:51Z</time>
      </trkpt>
      <trkpt lat="44.83066" lon="-0.22876">
        <ele>61.7</ele>
        <time>2020-09-09T14:30:52Z</time>
      </trkpt>
      <trkpt lat="44.83065" lon="-0.22877">
        <ele>61.7</ele>
        <time>2020-09-09T14:30:54Z</time>
      </trkpt>
      <trkpt lat="44.83065" lon="-0.22878">
        <ele>61.9</ele>
        <time>2020-09-09T14:30:55Z</time>
      </trkpt>
      <trkpt lat="44.83065" lon="-0.22879">
        <ele>61.9</ele>
        <time>2020-09-09T14:30:56Z</time>
      </trkpt>
      <trkpt lat="44.83064" lon="-0.2288">
        <ele>61.7</ele>
        <time>2020-09-09T14:30:57Z</time>
      </trkpt>
      <trkpt lat="44.83063" lon="-0.22883">
        <ele>61.9</ele>
        <time>2020-09-09T14:30:59Z</time>
      </trkpt>
      <trkpt lat="44.83062" lon="-0.22884">
        <ele>61.9</ele>
        <time>2020-09-09T14:31:00Z</time>
      </trkpt>
      <trkpt lat="44.83062" lon="-0.22885">
        <ele>61.9</ele>
        <time>2020-09-09T14:31:01Z</time>
      </trkpt>
      <trkpt lat="44.83062" lon="-0.22886">
        <ele>61.9</ele>
        <time>2020-09-09T14:31:02Z</time>
      </trkpt>
      <trkpt lat="44.83061" lon="-0.22888">
        <ele>62</ele>
        <time>2020-09-09T14:31:04Z</time>
      </trkpt>
      <trkpt lat="44.83061" lon="-0.2289">
        <ele>62</ele>
        <time>2020-09-09T14:31:05Z</time>
      </trkpt>
      <trkpt lat="44.8306" lon="-0.22891">
        <ele>62</ele>
        <time>2020-09-09T14:31:06Z</time>
      </trkpt>
      <trkpt lat="44.8306" lon="-0.22893">
        <ele>62.2</ele>
        <time>2020-09-09T14:31:08Z</time>
      </trkpt>
      <trkpt lat="44.83059" lon="-0.22895">
        <ele>62.2</ele>
        <time>2020-09-09T14:31:09Z</time>
      </trkpt>
      <trkpt lat="44.83058" lon="-0.22897">
        <ele>62.2</ele>
        <time>2020-09-09T14:31:10Z</time>
      </trkpt>
      <trkpt lat="44.83058" lon="-0.22898">
        <ele>62.2</ele>
        <time>2020-09-09T14:31:11Z</time>
      </trkpt>
      <trkpt lat="44.83057" lon="-0.22899">
        <ele>62.2</ele>
        <time>2020-09-09T14:31:13Z</time>
      </trkpt>
      <trkpt lat="44.83056" lon="-0.229">
        <ele>62.2</ele>
        <time>2020-09-09T14:31:14Z</time>
      </trkpt>
      <trkpt lat="44.83056" lon="-0.22901">
        <ele>62.4</ele>
        <time>2020-09-09T14:31:15Z</time>
      </trkpt>
      <trkpt lat="44.83055" lon="-0.22902">
        <ele>62.2</ele>
        <time>2020-09-09T14:31:16Z</time>
      </trkpt>
      <trkpt lat="44.83054" lon="-0.22903">
        <ele>62.2</ele>
        <time>2020-09-09T14:31:17Z</time>
      </trkpt>
      <trkpt lat="44.83053" lon="-0.22905">
        <ele>62.4</ele>
        <time>2020-09-09T14:31:19Z</time>
      </trkpt>
      <trkpt lat="44.83053" lon="-0.22906">
        <ele>62.4</ele>
        <time>2020-09-09T14:31:20Z</time>
      </trkpt>
      <trkpt lat="44.83052" lon="-0.22907">
        <ele>62.2</ele>
        <time>2020-09-09T14:31:21Z</time>
      </trkpt>
      <trkpt lat="44.83052" lon="-0.22908">
        <ele>62.2</ele>
        <time>2020-09-09T14:31:22Z</time>
      </trkpt>
      <trkpt lat="44.83051" lon="-0.2291">
        <ele>62.4</ele>
        <time>2020-09-09T14:31:24Z</time>
      </trkpt>
      <trkpt lat="44.83051" lon="-0.22911">
        <ele>62.4</ele>
        <time>2020-09-09T14:31:25Z</time>
      </trkpt>
      <trkpt lat="44.83051" lon="-0.22912">
        <ele>62.4</ele>
        <time>2020-09-09T14:31:26Z</time>
      </trkpt>
      <trkpt lat="44.8305" lon="-0.22914">
        <ele>62.6</ele>
        <time>2020-09-09T14:31:27Z</time>
      </trkpt>
      <trkpt lat="44.8305" lon="-0.22915">
        <ele>62.6</ele>
        <time>2020-09-09T14:31:28Z</time>
      </trkpt>
      <trkpt lat="44.83048" lon="-0.22917">
        <ele>62.6</ele>
        <time>2020-09-09T14:31:29Z</time>
      </trkpt>
      <trkpt lat="44.83047" lon="-0.22917">
        <ele>62.6</ele>
        <time>2020-09-09T14:31:30Z</time>
      </trkpt>
      <trkpt lat="44.83045" lon="-0.22917">
        <ele>62.4</ele>
        <time>2020-09-09T14:31:32Z</time>
      </trkpt>
      <trkpt lat="44.83044" lon="-0.22917">
        <ele>62.2</ele>
        <time>2020-09-09T14:31:33Z</time>
      </trkpt>
      <trkpt lat="44.83043" lon="-0.22917">
        <ele>62.2</ele>
        <time>2020-09-09T14:31:34Z</time>
      </trkpt>
      <trkpt lat="44.83042" lon="-0.22917">
        <ele>62</ele>
        <time>2020-09-09T14:31:35Z</time>
      </trkpt>
      <trkpt lat="44.83041" lon="-0.22917">
        <ele>62</ele>
        <time>2020-09-09T14:31:37Z</time>
      </trkpt>
      <trkpt lat="44.8304" lon="-0.22917">
        <ele>62</ele>
        <time>2020-09-09T14:31:38Z</time>
      </trkpt>
      <trkpt lat="44.83038" lon="-0.22917">
        <ele>62</ele>
        <time>2020-09-09T14:31:39Z</time>
      </trkpt>
      <trkpt lat="44.83038" lon="-0.22917">
        <ele>62</ele>
        <time>2020-09-09T14:31:40Z</time>
      </trkpt>
      <trkpt lat="44.83037" lon="-0.22918">
        <ele>61.8</ele>
        <time>2020-09-09T14:31:41Z</time>
      </trkpt>
      <trkpt lat="44.83036" lon="-0.22918">
        <ele>61.8</ele>
        <time>2020-09-09T14:31:42Z</time>
      </trkpt>
      <trkpt lat="44.83033" lon="-0.22919">
        <ele>61.6</ele>
        <time>2020-09-09T14:31:44Z</time>
      </trkpt>
      <trkpt lat="44.83032" lon="-0.22919">
        <ele>61.6</ele>
        <time>2020-09-09T14:31:45Z</time>
      </trkpt>
      <trkpt lat="44.83032" lon="-0.2292">
        <ele>61.6</ele>
        <time>2020-09-09T14:31:46Z</time>
      </trkpt>
      <trkpt lat="44.83031" lon="-0.2292">
        <ele>61.6</ele>
        <time>2020-09-09T14:31:47Z</time>
      </trkpt>
      <trkpt lat="44.83029" lon="-0.22921">
        <ele>61.6</ele>
        <time>2020-09-09T14:31:49Z</time>
      </trkpt>
      <trkpt lat="44.83028" lon="-0.22922">
        <ele>61.6</ele>
        <time>2020-09-09T14:31:50Z</time>
      </trkpt>
      <trkpt lat="44.83028" lon="-0.22922">
        <ele>61.4</ele>
        <time>2020-09-09T14:31:51Z</time>
      </trkpt>
      <trkpt lat="44.83027" lon="-0.22923">
        <ele>61.4</ele>
        <time>2020-09-09T14:31:52Z</time>
      </trkpt>
      <trkpt lat="44.83024" lon="-0.22923">
        <ele>61.1</ele>
        <time>2020-09-09T14:31:54Z</time>
      </trkpt>
      <trkpt lat="44.83023" lon="-0.22923">
        <ele>61.1</ele>
        <time>2020-09-09T14:31:55Z</time>
      </trkpt>
      <trkpt lat="44.83021" lon="-0.22923">
        <ele>60.9</ele>
        <time>2020-09-09T14:31:57Z</time>
      </trkpt>
      <trkpt lat="44.8302" lon="-0.22923">
        <ele>60.9</ele>
        <time>2020-09-09T14:31:58Z</time>
      </trkpt>
      <trkpt lat="44.83018" lon="-0.22922">
        <ele>60.7</ele>
        <time>2020-09-09T14:31:59Z</time>
      </trkpt>
      <trkpt lat="44.83017" lon="-0.22921">
        <ele>60.7</ele>
        <time>2020-09-09T14:32:00Z</time>
      </trkpt>
      <trkpt lat="44.83015" lon="-0.2292">
        <ele>60.2</ele>
        <time>2020-09-09T14:32:01Z</time>
      </trkpt>
      <trkpt lat="44.83014" lon="-0.2292">
        <ele>60.2</ele>
        <time>2020-09-09T14:32:03Z</time>
      </trkpt>
      <trkpt lat="44.83014" lon="-0.22919">
        <ele>60.2</ele>
        <time>2020-09-09T14:32:04Z</time>
      </trkpt>
      <trkpt lat="44.83013" lon="-0.22919">
        <ele>60.2</ele>
        <time>2020-09-09T14:32:05Z</time>
      </trkpt>
      <trkpt lat="44.83011" lon="-0.22918">
        <ele>59.9</ele>
        <time>2020-09-09T14:32:06Z</time>
      </trkpt>
      <trkpt lat="44.83011" lon="-0.22917">
        <ele>59.6</ele>
        <time>2020-09-09T14:32:08Z</time>
      </trkpt>
      <trkpt lat="44.83009" lon="-0.22915">
        <ele>59.4</ele>
        <time>2020-09-09T14:32:09Z</time>
      </trkpt>
      <trkpt lat="44.83008" lon="-0.22914">
        <ele>59.4</ele>
        <time>2020-09-09T14:32:10Z</time>
      </trkpt>
      <trkpt lat="44.83007" lon="-0.22913">
        <ele>59.4</ele>
        <time>2020-09-09T14:32:12Z</time>
      </trkpt>
      <trkpt lat="44.83005" lon="-0.22911">
        <ele>58.8</ele>
        <time>2020-09-09T14:32:13Z</time>
      </trkpt>
      <trkpt lat="44.83003" lon="-0.22909">
        <ele>58.5</ele>
        <time>2020-09-09T14:32:15Z</time>
      </trkpt>
      <trkpt lat="44.83003" lon="-0.22908">
        <ele>58.1</ele>
        <time>2020-09-09T14:32:16Z</time>
      </trkpt>
      <trkpt lat="44.83002" lon="-0.22907">
        <ele>58.1</ele>
        <time>2020-09-09T14:32:17Z</time>
      </trkpt>
      <trkpt lat="44.83001" lon="-0.22907">
        <ele>58.1</ele>
        <time>2020-09-09T14:32:18Z</time>
      </trkpt>
      <trkpt lat="44.83" lon="-0.22905">
        <ele>57.8</ele>
        <time>2020-09-09T14:32:20Z</time>
      </trkpt>
      <trkpt lat="44.83002" lon="-0.22906">
        <ele>58.1</ele>
        <time>2020-09-09T14:32:22Z</time>
      </trkpt>
      <trkpt lat="44.83003" lon="-0.22906">
        <ele>58.1</ele>
        <time>2020-09-09T14:32:23Z</time>
      </trkpt>
      <trkpt lat="44.83002" lon="-0.22905">
        <ele>58.1</ele>
        <time>2020-09-09T14:32:24Z</time>
      </trkpt>
      <trkpt lat="44.83002" lon="-0.22905">
        <ele>58.1</ele>
        <time>2020-09-09T14:32:25Z</time>
      </trkpt>
      <trkpt lat="44.83001" lon="-0.22903">
        <ele>57.8</ele>
        <time>2020-09-09T14:32:26Z</time>
      </trkpt>
      <trkpt lat="44.83" lon="-0.229">
        <ele>57.5</ele>
        <time>2020-09-09T14:32:28Z</time>
      </trkpt>
      <trkpt lat="44.82999" lon="-0.22899">
        <ele>57.2</ele>
        <time>2020-09-09T14:32:29Z</time>
      </trkpt>
      <trkpt lat="44.82999" lon="-0.22897">
        <ele>57.2</ele>
        <time>2020-09-09T14:32:30Z</time>
      </trkpt>
      <trkpt lat="44.82998" lon="-0.22896">
        <ele>57.2</ele>
        <time>2020-09-09T14:32:31Z</time>
      </trkpt>
      <trkpt lat="44.82997" lon="-0.22894">
        <ele>56.5</ele>
        <time>2020-09-09T14:32:33Z</time>
      </trkpt>
      <trkpt lat="44.82995" lon="-0.22891">
        <ele>56.1</ele>
        <time>2020-09-09T14:32:34Z</time>
      </trkpt>
      <trkpt lat="44.82995" lon="-0.2289">
        <ele>56.1</ele>
        <time>2020-09-09T14:32:35Z</time>
      </trkpt>
      <trkpt lat="44.82994" lon="-0.22891">
        <ele>55.8</ele>
        <time>2020-09-09T14:32:37Z</time>
      </trkpt>
      <trkpt lat="44.82993" lon="-0.2289">
        <ele>55.8</ele>
        <time>2020-09-09T14:32:38Z</time>
      </trkpt>
      <trkpt lat="44.82993" lon="-0.22889">
        <ele>55.8</ele>
        <time>2020-09-09T14:32:39Z</time>
      </trkpt>
      <trkpt lat="44.82992" lon="-0.22888">
        <ele>55.8</ele>
        <time>2020-09-09T14:32:40Z</time>
      </trkpt>
      <trkpt lat="44.82991" lon="-0.22887">
        <ele>55.4</ele>
        <time>2020-09-09T14:32:41Z</time>
      </trkpt>
      <trkpt lat="44.82991" lon="-0.22886">
        <ele>55</ele>
        <time>2020-09-09T14:32:42Z</time>
      </trkpt>
      <trkpt lat="44.82989" lon="-0.22885">
        <ele>55</ele>
        <time>2020-09-09T14:32:43Z</time>
      </trkpt>
      <trkpt lat="44.82988" lon="-0.22883">
        <ele>54.7</ele>
        <time>2020-09-09T14:32:45Z</time>
      </trkpt>
      <trkpt lat="44.82986" lon="-0.22881">
        <ele>54.3</ele>
        <time>2020-09-09T14:32:46Z</time>
      </trkpt>
      <trkpt lat="44.82985" lon="-0.2288">
        <ele>54.3</ele>
        <time>2020-09-09T14:32:47Z</time>
      </trkpt>
      <trkpt lat="44.82985" lon="-0.22879">
        <ele>53.9</ele>
        <time>2020-09-09T14:32:48Z</time>
      </trkpt>
      <trkpt lat="44.82985" lon="-0.22878">
        <ele>53.5</ele>
        <time>2020-09-09T14:32:49Z</time>
      </trkpt>
      <trkpt lat="44.82984" lon="-0.22876">
        <ele>53.5</ele>
        <time>2020-09-09T14:32:50Z</time>
      </trkpt>
      <trkpt lat="44.82983" lon="-0.22874">
        <ele>53.1</ele>
        <time>2020-09-09T14:32:51Z</time>
      </trkpt>
      <trkpt lat="44.82982" lon="-0.22873">
        <ele>52.8</ele>
        <time>2020-09-09T14:32:52Z</time>
      </trkpt>
      <trkpt lat="44.82982" lon="-0.22872">
        <ele>52.8</ele>
        <time>2020-09-09T14:32:53Z</time>
      </trkpt>
      <trkpt lat="44.82981" lon="-0.2287">
        <ele>52.8</ele>
        <time>2020-09-09T14:32:54Z</time>
      </trkpt>
      <trkpt lat="44.82979" lon="-0.22867">
        <ele>52.3</ele>
        <time>2020-09-09T14:32:56Z</time>
      </trkpt>
      <trkpt lat="44.82979" lon="-0.22865">
        <ele>51.5</ele>
        <time>2020-09-09T14:32:57Z</time>
      </trkpt>
      <trkpt lat="44.82978" lon="-0.22863">
        <ele>51.5</ele>
        <time>2020-09-09T14:32:58Z</time>
      </trkpt>
      <trkpt lat="44.82977" lon="-0.22862">
        <ele>51.5</ele>
        <time>2020-09-09T14:32:59Z</time>
      </trkpt>
      <trkpt lat="44.82976" lon="-0.2286">
        <ele>51.1</ele>
        <time>2020-09-09T14:33:00Z</time>
      </trkpt>
      <trkpt lat="44.82976" lon="-0.22858">
        <ele>50.7</ele>
        <time>2020-09-09T14:33:02Z</time>
      </trkpt>
      <trkpt lat="44.82976" lon="-0.22857">
        <ele>50.7</ele>
        <time>2020-09-09T14:33:03Z</time>
      </trkpt>
      <trkpt lat="44.82976" lon="-0.22856">
        <ele>50.3</ele>
        <time>2020-09-09T14:33:04Z</time>
      </trkpt>
      <trkpt lat="44.82975" lon="-0.22853">
        <ele>50.3</ele>
        <time>2020-09-09T14:33:06Z</time>
      </trkpt>
      <trkpt lat="44.82974" lon="-0.2285">
        <ele>49.9</ele>
        <time>2020-09-09T14:33:08Z</time>
      </trkpt>
      <trkpt lat="44.82974" lon="-0.22849">
        <ele>49.9</ele>
        <time>2020-09-09T14:33:09Z</time>
      </trkpt>
      <trkpt lat="44.82974" lon="-0.22846">
        <ele>49.6</ele>
        <time>2020-09-09T14:33:10Z</time>
      </trkpt>
      <trkpt lat="44.82974" lon="-0.22845">
        <ele>49.6</ele>
        <time>2020-09-09T14:33:11Z</time>
      </trkpt>
      <trkpt lat="44.82974" lon="-0.22844">
        <ele>49.6</ele>
        <time>2020-09-09T14:33:12Z</time>
      </trkpt>
      <trkpt lat="44.82974" lon="-0.22842">
        <ele>49.2</ele>
        <time>2020-09-09T14:33:14Z</time>
      </trkpt>
      <trkpt lat="44.82974" lon="-0.2284">
        <ele>49.2</ele>
        <time>2020-09-09T14:33:15Z</time>
      </trkpt>
      <trkpt lat="44.82973" lon="-0.22839">
        <ele>48.8</ele>
        <time>2020-09-09T14:33:16Z</time>
      </trkpt>
      <trkpt lat="44.82973" lon="-0.22836">
        <ele>48.8</ele>
        <time>2020-09-09T14:33:17Z</time>
      </trkpt>
      <trkpt lat="44.82973" lon="-0.22835">
        <ele>48.3</ele>
        <time>2020-09-09T14:33:19Z</time>
      </trkpt>
      <trkpt lat="44.82973" lon="-0.22833">
        <ele>48</ele>
        <time>2020-09-09T14:33:20Z</time>
      </trkpt>
      <trkpt lat="44.82973" lon="-0.22832">
        <ele>48</ele>
        <time>2020-09-09T14:33:21Z</time>
      </trkpt>
      <trkpt lat="44.82973" lon="-0.22831">
        <ele>48</ele>
        <time>2020-09-09T14:33:22Z</time>
      </trkpt>
      <trkpt lat="44.82973" lon="-0.22829">
        <ele>47.5</ele>
        <time>2020-09-09T14:33:24Z</time>
      </trkpt>
      <trkpt lat="44.82973" lon="-0.22827">
        <ele>47.9</ele>
        <time>2020-09-09T14:33:25Z</time>
      </trkpt>
      <trkpt lat="44.82974" lon="-0.22827">
        <ele>47.5</ele>
        <time>2020-09-09T14:33:27Z</time>
      </trkpt>
      <trkpt lat="44.82974" lon="-0.22826">
        <ele>47.5</ele>
        <time>2020-09-09T14:33:28Z</time>
      </trkpt>
      <trkpt lat="44.82975" lon="-0.22824">
        <ele>47.5</ele>
        <time>2020-09-09T14:33:29Z</time>
      </trkpt>
      <trkpt lat="44.82975" lon="-0.22822">
        <ele>47.1</ele>
        <time>2020-09-09T14:33:30Z</time>
      </trkpt>
      <trkpt lat="44.82975" lon="-0.2282">
        <ele>47.1</ele>
        <time>2020-09-09T14:33:31Z</time>
      </trkpt>
      <trkpt lat="44.82975" lon="-0.22819">
        <ele>47.1</ele>
        <time>2020-09-09T14:33:32Z</time>
      </trkpt>
      <trkpt lat="44.82974" lon="-0.22817">
        <ele>46.7</ele>
        <time>2020-09-09T14:33:34Z</time>
      </trkpt>
      <trkpt lat="44.82973" lon="-0.22814">
        <ele>46</ele>
        <time>2020-09-09T14:33:35Z</time>
      </trkpt>
      <trkpt lat="44.82972" lon="-0.22812">
        <ele>46</ele>
        <time>2020-09-09T14:33:36Z</time>
      </trkpt>
      <trkpt lat="44.82971" lon="-0.22811">
        <ele>46</ele>
        <time>2020-09-09T14:33:37Z</time>
      </trkpt>
      <trkpt lat="44.82971" lon="-0.2281">
        <ele>46</ele>
        <time>2020-09-09T14:33:38Z</time>
      </trkpt>
      <trkpt lat="44.82969" lon="-0.22807">
        <ele>45.2</ele>
        <time>2020-09-09T14:33:40Z</time>
      </trkpt>
      <trkpt lat="44.82968" lon="-0.22805">
        <ele>44.9</ele>
        <time>2020-09-09T14:33:42Z</time>
      </trkpt>
      <trkpt lat="44.82967" lon="-0.22804">
        <ele>44.6</ele>
        <time>2020-09-09T14:33:43Z</time>
      </trkpt>
      <trkpt lat="44.82966" lon="-0.22803">
        <ele>44.6</ele>
        <time>2020-09-09T14:33:44Z</time>
      </trkpt>
      <trkpt lat="44.82965" lon="-0.22801">
        <ele>44.2</ele>
        <time>2020-09-09T14:33:46Z</time>
      </trkpt>
      <trkpt lat="44.82964" lon="-0.228">
        <ele>44.2</ele>
        <time>2020-09-09T14:33:47Z</time>
      </trkpt>
      <trkpt lat="44.82963" lon="-0.22797">
        <ele>43.9</ele>
        <time>2020-09-09T14:33:48Z</time>
      </trkpt>
      <trkpt lat="44.82963" lon="-0.22796">
        <ele>43.5</ele>
        <time>2020-09-09T14:33:49Z</time>
      </trkpt>
      <trkpt lat="44.82963" lon="-0.22795">
        <ele>43.5</ele>
        <time>2020-09-09T14:33:50Z</time>
      </trkpt>
      <trkpt lat="44.82962" lon="-0.22794">
        <ele>43.5</ele>
        <time>2020-09-09T14:33:51Z</time>
      </trkpt>
      <trkpt lat="44.82963" lon="-0.22793">
        <ele>43.5</ele>
        <time>2020-09-09T14:33:52Z</time>
      </trkpt>
      <trkpt lat="44.82963" lon="-0.22791">
        <ele>43.2</ele>
        <time>2020-09-09T14:33:54Z</time>
      </trkpt>
      <trkpt lat="44.82963" lon="-0.22788">
        <ele>42.8</ele>
        <time>2020-09-09T14:33:55Z</time>
      </trkpt>
      <trkpt lat="44.82962" lon="-0.22788">
        <ele>42.8</ele>
        <time>2020-09-09T14:33:56Z</time>
      </trkpt>
      <trkpt lat="44.82962" lon="-0.22786">
        <ele>42.8</ele>
        <time>2020-09-09T14:33:58Z</time>
      </trkpt>
      <trkpt lat="44.8296" lon="-0.22784">
        <ele>42.5</ele>
        <time>2020-09-09T14:33:59Z</time>
      </trkpt>
      <trkpt lat="44.82959" lon="-0.22783">
        <ele>42.1</ele>
        <time>2020-09-09T14:34:01Z</time>
      </trkpt>
      <trkpt lat="44.82959" lon="-0.22782">
        <ele>42.1</ele>
        <time>2020-09-09T14:34:02Z</time>
      </trkpt>
      <trkpt lat="44.82958" lon="-0.22781">
        <ele>41.9</ele>
        <time>2020-09-09T14:34:03Z</time>
      </trkpt>
      <trkpt lat="44.82957" lon="-0.2278">
        <ele>41.9</ele>
        <time>2020-09-09T14:34:04Z</time>
      </trkpt>
      <trkpt lat="44.82955" lon="-0.22777">
        <ele>41.5</ele>
        <time>2020-09-09T14:34:06Z</time>
      </trkpt>
      <trkpt lat="44.82954" lon="-0.22777">
        <ele>41.3</ele>
        <time>2020-09-09T14:34:07Z</time>
      </trkpt>
      <trkpt lat="44.82953" lon="-0.22776">
        <ele>41.3</ele>
        <time>2020-09-09T14:34:08Z</time>
      </trkpt>
      <trkpt lat="44.82952" lon="-0.22775">
        <ele>40.9</ele>
        <time>2020-09-09T14:34:09Z</time>
      </trkpt>
      <trkpt lat="44.82951" lon="-0.22774">
        <ele>40.7</ele>
        <time>2020-09-09T14:34:10Z</time>
      </trkpt>
      <trkpt lat="44.8295" lon="-0.22773">
        <ele>40.7</ele>
        <time>2020-09-09T14:34:11Z</time>
      </trkpt>
      <trkpt lat="44.82949" lon="-0.22772">
        <ele>40.7</ele>
        <time>2020-09-09T14:34:12Z</time>
      </trkpt>
      <trkpt lat="44.82948" lon="-0.22771">
        <ele>40.1</ele>
        <time>2020-09-09T14:34:14Z</time>
      </trkpt>
      <trkpt lat="44.82947" lon="-0.2277">
        <ele>40.1</ele>
        <time>2020-09-09T14:34:15Z</time>
      </trkpt>
      <trkpt lat="44.82946" lon="-0.22768">
        <ele>40.1</ele>
        <time>2020-09-09T14:34:16Z</time>
      </trkpt>
      <trkpt lat="44.82945" lon="-0.22767">
        <ele>39.8</ele>
        <time>2020-09-09T14:34:17Z</time>
      </trkpt>
      <trkpt lat="44.82945" lon="-0.22767">
        <ele>39.5</ele>
        <time>2020-09-09T14:34:18Z</time>
      </trkpt>
      <trkpt lat="44.82943" lon="-0.22765">
        <ele>39.5</ele>
        <time>2020-09-09T14:34:19Z</time>
      </trkpt>
      <trkpt lat="44.82943" lon="-0.22763">
        <ele>39.3</ele>
        <time>2020-09-09T14:34:20Z</time>
      </trkpt>
      <trkpt lat="44.82942" lon="-0.22762">
        <ele>39</ele>
        <time>2020-09-09T14:34:22Z</time>
      </trkpt>
      <trkpt lat="44.82941" lon="-0.22761">
        <ele>39</ele>
        <time>2020-09-09T14:34:23Z</time>
      </trkpt>
      <trkpt lat="44.8294" lon="-0.2276">
        <ele>39</ele>
        <time>2020-09-09T14:34:24Z</time>
      </trkpt>
      <trkpt lat="44.8294" lon="-0.22759">
        <ele>39</ele>
        <time>2020-09-09T14:34:25Z</time>
      </trkpt>
      <trkpt lat="44.82939" lon="-0.22758">
        <ele>38.5</ele>
        <time>2020-09-09T14:34:27Z</time>
      </trkpt>
      <trkpt lat="44.82938" lon="-0.22756">
        <ele>38.5</ele>
        <time>2020-09-09T14:34:28Z</time>
      </trkpt>
      <trkpt lat="44.82937" lon="-0.22755">
        <ele>38.5</ele>
        <time>2020-09-09T14:34:30Z</time>
      </trkpt>
      <trkpt lat="44.82936" lon="-0.22753">
        <ele>38</ele>
        <time>2020-09-09T14:34:31Z</time>
      </trkpt>
      <trkpt lat="44.82935" lon="-0.22752">
        <ele>38</ele>
        <time>2020-09-09T14:34:32Z</time>
      </trkpt>
      <trkpt lat="44.82935" lon="-0.22751">
        <ele>38</ele>
        <time>2020-09-09T14:34:33Z</time>
      </trkpt>
      <trkpt lat="44.82933" lon="-0.22749">
        <ele>37.6</ele>
        <time>2020-09-09T14:34:34Z</time>
      </trkpt>
      <trkpt lat="44.82932" lon="-0.22748">
        <ele>37.6</ele>
        <time>2020-09-09T14:34:35Z</time>
      </trkpt>
      <trkpt lat="44.82932" lon="-0.22746">
        <ele>37.6</ele>
        <time>2020-09-09T14:34:36Z</time>
      </trkpt>
      <trkpt lat="44.82931" lon="-0.22745">
        <ele>37.6</ele>
        <time>2020-09-09T14:34:37Z</time>
      </trkpt>
      <trkpt lat="44.8293" lon="-0.22744">
        <ele>37.2</ele>
        <time>2020-09-09T14:34:38Z</time>
      </trkpt>
      <trkpt lat="44.82929" lon="-0.22742">
        <ele>37.2</ele>
        <time>2020-09-09T14:34:40Z</time>
      </trkpt>
      <trkpt lat="44.82927" lon="-0.22738">
        <ele>36.8</ele>
        <time>2020-09-09T14:34:42Z</time>
      </trkpt>
      <trkpt lat="44.82927" lon="-0.22737">
        <ele>36.8</ele>
        <time>2020-09-09T14:34:43Z</time>
      </trkpt>
      <trkpt lat="44.82926" lon="-0.22736">
        <ele>36.5</ele>
        <time>2020-09-09T14:34:44Z</time>
      </trkpt>
      <trkpt lat="44.82926" lon="-0.22735">
        <ele>36.5</ele>
        <time>2020-09-09T14:34:45Z</time>
      </trkpt>
      <trkpt lat="44.82925" lon="-0.22732">
        <ele>36.5</ele>
        <time>2020-09-09T14:34:46Z</time>
      </trkpt>
      <trkpt lat="44.82924" lon="-0.22731">
        <ele>36.2</ele>
        <time>2020-09-09T14:34:48Z</time>
      </trkpt>
      <trkpt lat="44.82923" lon="-0.22729">
        <ele>36.2</ele>
        <time>2020-09-09T14:34:49Z</time>
      </trkpt>
      <trkpt lat="44.82922" lon="-0.22727">
        <ele>36</ele>
        <time>2020-09-09T14:34:51Z</time>
      </trkpt>
      <trkpt lat="44.82922" lon="-0.22725">
        <ele>36</ele>
        <time>2020-09-09T14:34:52Z</time>
      </trkpt>
      <trkpt lat="44.82921" lon="-0.22723">
        <ele>35.7</ele>
        <time>2020-09-09T14:34:54Z</time>
      </trkpt>
      <trkpt lat="44.82921" lon="-0.22722">
        <ele>35.7</ele>
        <time>2020-09-09T14:34:55Z</time>
      </trkpt>
      <trkpt lat="44.8292" lon="-0.2272">
        <ele>35.7</ele>
        <time>2020-09-09T14:34:56Z</time>
      </trkpt>
      <trkpt lat="44.82919" lon="-0.22719">
        <ele>35.5</ele>
        <time>2020-09-09T14:34:58Z</time>
      </trkpt>
      <trkpt lat="44.82919" lon="-0.22717">
        <ele>35.5</ele>
        <time>2020-09-09T14:34:59Z</time>
      </trkpt>
      <trkpt lat="44.82917" lon="-0.22715">
        <ele>35.3</ele>
        <time>2020-09-09T14:35:01Z</time>
      </trkpt>
      <trkpt lat="44.82917" lon="-0.22713">
        <ele>35.3</ele>
        <time>2020-09-09T14:35:03Z</time>
      </trkpt>
      <trkpt lat="44.82916" lon="-0.22712">
        <ele>35.3</ele>
        <time>2020-09-09T14:35:04Z</time>
      </trkpt>
      <trkpt lat="44.82915" lon="-0.22711">
        <ele>35.2</ele>
        <time>2020-09-09T14:35:05Z</time>
      </trkpt>
      <trkpt lat="44.82913" lon="-0.22709">
        <ele>35.1</ele>
        <time>2020-09-09T14:35:06Z</time>
      </trkpt>
      <trkpt lat="44.82913" lon="-0.22708">
        <ele>35.1</ele>
        <time>2020-09-09T14:35:07Z</time>
      </trkpt>
      <trkpt lat="44.82912" lon="-0.22706">
        <ele>34.9</ele>
        <time>2020-09-09T14:35:08Z</time>
      </trkpt>
      <trkpt lat="44.82912" lon="-0.22706">
        <ele>34.9</ele>
        <time>2020-09-09T14:35:09Z</time>
      </trkpt>
      <trkpt lat="44.8291" lon="-0.22703">
        <ele>34.9</ele>
        <time>2020-09-09T14:35:11Z</time>
      </trkpt>
      <trkpt lat="44.82909" lon="-0.22701">
        <ele>34.8</ele>
        <time>2020-09-09T14:35:12Z</time>
      </trkpt>
      <trkpt lat="44.82909" lon="-0.22701">
        <ele>34.7</ele>
        <time>2020-09-09T14:35:14Z</time>
      </trkpt>
      <trkpt lat="44.82908" lon="-0.22699">
        <ele>34.7</ele>
        <time>2020-09-09T14:35:15Z</time>
      </trkpt>
      <trkpt lat="44.82906" lon="-0.22695">
        <ele>34.6</ele>
        <time>2020-09-09T14:35:16Z</time>
      </trkpt>
      <trkpt lat="44.82906" lon="-0.22694">
        <ele>34.6</ele>
        <time>2020-09-09T14:35:18Z</time>
      </trkpt>
      <trkpt lat="44.82905" lon="-0.22693">
        <ele>34.4</ele>
        <time>2020-09-09T14:35:19Z</time>
      </trkpt>
      <trkpt lat="44.82904" lon="-0.22692">
        <ele>34.4</ele>
        <time>2020-09-09T14:35:20Z</time>
      </trkpt>
      <trkpt lat="44.82904" lon="-0.2269">
        <ele>34.4</ele>
        <time>2020-09-09T14:35:21Z</time>
      </trkpt>
      <trkpt lat="44.82902" lon="-0.22688">
        <ele>34.3</ele>
        <time>2020-09-09T14:35:23Z</time>
      </trkpt>
      <trkpt lat="44.82902" lon="-0.22687">
        <ele>34.3</ele>
        <time>2020-09-09T14:35:24Z</time>
      </trkpt>
      <trkpt lat="44.82901" lon="-0.22685">
        <ele>34.3</ele>
        <time>2020-09-09T14:35:25Z</time>
      </trkpt>
      <trkpt lat="44.829" lon="-0.22683">
        <ele>34.2</ele>
        <time>2020-09-09T14:35:26Z</time>
      </trkpt>
      <trkpt lat="44.82899" lon="-0.22681">
        <ele>34.2</ele>
        <time>2020-09-09T14:35:28Z</time>
      </trkpt>
      <trkpt lat="44.82898" lon="-0.22679">
        <ele>34.1</ele>
        <time>2020-09-09T14:35:29Z</time>
      </trkpt>
      <trkpt lat="44.82897" lon="-0.22676">
        <ele>34</ele>
        <time>2020-09-09T14:35:31Z</time>
      </trkpt>
      <trkpt lat="44.82897" lon="-0.22675">
        <ele>34</ele>
        <time>2020-09-09T14:35:32Z</time>
      </trkpt>
      <trkpt lat="44.82896" lon="-0.22672">
        <ele>34</ele>
        <time>2020-09-09T14:35:33Z</time>
      </trkpt>
      <trkpt lat="44.82895" lon="-0.22671">
        <ele>33.9</ele>
        <time>2020-09-09T14:35:35Z</time>
      </trkpt>
      <trkpt lat="44.82894" lon="-0.22669">
        <ele>33.9</ele>
        <time>2020-09-09T14:35:36Z</time>
      </trkpt>
      <trkpt lat="44.82894" lon="-0.22667">
        <ele>33.8</ele>
        <time>2020-09-09T14:35:38Z</time>
      </trkpt>
      <trkpt lat="44.82893" lon="-0.22665">
        <ele>33.8</ele>
        <time>2020-09-09T14:35:39Z</time>
      </trkpt>
      <trkpt lat="44.82892" lon="-0.22663">
        <ele>33.7</ele>
        <time>2020-09-09T14:35:40Z</time>
      </trkpt>
      <trkpt lat="44.8289" lon="-0.2266">
        <ele>33.8</ele>
        <time>2020-09-09T14:35:42Z</time>
      </trkpt>
      <trkpt lat="44.8289" lon="-0.22659">
        <ele>33.6</ele>
        <time>2020-09-09T14:35:43Z</time>
      </trkpt>
      <trkpt lat="44.82889" lon="-0.22657">
        <ele>33.6</ele>
        <time>2020-09-09T14:35:44Z</time>
      </trkpt>
      <trkpt lat="44.82889" lon="-0.22654">
        <ele>33.5</ele>
        <time>2020-09-09T14:35:45Z</time>
      </trkpt>
      <trkpt lat="44.82888" lon="-0.22653">
        <ele>33.5</ele>
        <time>2020-09-09T14:35:46Z</time>
      </trkpt>
      <trkpt lat="44.82888" lon="-0.22651">
        <ele>33.5</ele>
        <time>2020-09-09T14:35:47Z</time>
      </trkpt>
      <trkpt lat="44.82887" lon="-0.2265">
        <ele>33.4</ele>
        <time>2020-09-09T14:35:49Z</time>
      </trkpt>
      <trkpt lat="44.82886" lon="-0.2265">
        <ele>33.4</ele>
        <time>2020-09-09T14:35:50Z</time>
      </trkpt>
      <trkpt lat="44.82885" lon="-0.22648">
        <ele>33.4</ele>
        <time>2020-09-09T14:35:51Z</time>
      </trkpt>
      <trkpt lat="44.82885" lon="-0.22647">
        <ele>33.4</ele>
        <time>2020-09-09T14:35:52Z</time>
      </trkpt>
      <trkpt lat="44.82885" lon="-0.22646">
        <ele>33.3</ele>
        <time>2020-09-09T14:35:53Z</time>
      </trkpt>
      <trkpt lat="44.82884" lon="-0.22646">
        <ele>33.3</ele>
        <time>2020-09-09T14:35:54Z</time>
      </trkpt>
      <trkpt lat="44.82883" lon="-0.22645">
        <ele>33.3</ele>
        <time>2020-09-09T14:35:55Z</time>
      </trkpt>
      <trkpt lat="44.82882" lon="-0.22642">
        <ele>33.1</ele>
        <time>2020-09-09T14:35:56Z</time>
      </trkpt>
      <trkpt lat="44.82882" lon="-0.22641">
        <ele>33.1</ele>
        <time>2020-09-09T14:35:58Z</time>
      </trkpt>
      <trkpt lat="44.82881" lon="-0.22639">
        <ele>33.2</ele>
        <time>2020-09-09T14:35:59Z</time>
      </trkpt>
      <trkpt lat="44.82881" lon="-0.22638">
        <ele>33</ele>
        <time>2020-09-09T14:36:00Z</time>
      </trkpt>
      <trkpt lat="44.8288" lon="-0.22634">
        <ele>33</ele>
        <time>2020-09-09T14:36:02Z</time>
      </trkpt>
      <trkpt lat="44.82881" lon="-0.22633">
        <ele>32.9</ele>
        <time>2020-09-09T14:36:03Z</time>
      </trkpt>
      <trkpt lat="44.82881" lon="-0.22632">
        <ele>32.9</ele>
        <time>2020-09-09T14:36:05Z</time>
      </trkpt>
      <trkpt lat="44.82882" lon="-0.22629">
        <ele>32.8</ele>
        <time>2020-09-09T14:36:06Z</time>
      </trkpt>
      <trkpt lat="44.82882" lon="-0.22629">
        <ele>32.6</ele>
        <time>2020-09-09T14:36:07Z</time>
      </trkpt>
      <trkpt lat="44.82883" lon="-0.22627">
        <ele>32.6</ele>
        <time>2020-09-09T14:36:08Z</time>
      </trkpt>
      <trkpt lat="44.82884" lon="-0.22626">
        <ele>32.6</ele>
        <time>2020-09-09T14:36:09Z</time>
      </trkpt>
      <trkpt lat="44.82884" lon="-0.22624">
        <ele>32.5</ele>
        <time>2020-09-09T14:36:10Z</time>
      </trkpt>
      <trkpt lat="44.82885" lon="-0.22622">
        <ele>32.4</ele>
        <time>2020-09-09T14:36:11Z</time>
      </trkpt>
      <trkpt lat="44.82887" lon="-0.2262">
        <ele>32.2</ele>
        <time>2020-09-09T14:36:13Z</time>
      </trkpt>
      <trkpt lat="44.82887" lon="-0.22619">
        <ele>32.2</ele>
        <time>2020-09-09T14:36:14Z</time>
      </trkpt>
      <trkpt lat="44.82888" lon="-0.22618">
        <ele>32.2</ele>
        <time>2020-09-09T14:36:15Z</time>
      </trkpt>
      <trkpt lat="44.82889" lon="-0.22616">
        <ele>32</ele>
        <time>2020-09-09T14:36:16Z</time>
      </trkpt>
      <trkpt lat="44.8289" lon="-0.22615">
        <ele>32</ele>
        <time>2020-09-09T14:36:17Z</time>
      </trkpt>
      <trkpt lat="44.82891" lon="-0.22613">
        <ele>31.9</ele>
        <time>2020-09-09T14:36:18Z</time>
      </trkpt>
      <trkpt lat="44.82892" lon="-0.22612">
        <ele>31.9</ele>
        <time>2020-09-09T14:36:20Z</time>
      </trkpt>
      <trkpt lat="44.82892" lon="-0.22611">
        <ele>31.7</ele>
        <time>2020-09-09T14:36:21Z</time>
      </trkpt>
      <trkpt lat="44.82893" lon="-0.22609">
        <ele>31.7</ele>
        <time>2020-09-09T14:36:23Z</time>
      </trkpt>
      <trkpt lat="44.82893" lon="-0.22608">
        <ele>31.7</ele>
        <time>2020-09-09T14:36:24Z</time>
      </trkpt>
      <trkpt lat="44.82894" lon="-0.22606">
        <ele>31.5</ele>
        <time>2020-09-09T14:36:25Z</time>
      </trkpt>
      <trkpt lat="44.82895" lon="-0.22603">
        <ele>31.3</ele>
        <time>2020-09-09T14:36:26Z</time>
      </trkpt>
      <trkpt lat="44.82895" lon="-0.22602">
        <ele>31.3</ele>
        <time>2020-09-09T14:36:27Z</time>
      </trkpt>
      <trkpt lat="44.82895" lon="-0.22601">
        <ele>31.3</ele>
        <time>2020-09-09T14:36:28Z</time>
      </trkpt>
      <trkpt lat="44.82895" lon="-0.22601">
        <ele>31.3</ele>
        <time>2020-09-09T14:36:30Z</time>
      </trkpt>
      <trkpt lat="44.82895" lon="-0.226">
        <ele>31.3</ele>
        <time>2020-09-09T14:36:31Z</time>
      </trkpt>
      <trkpt lat="44.82895" lon="-0.22599">
        <ele>31.1</ele>
        <time>2020-09-09T14:36:32Z</time>
      </trkpt>
      <trkpt lat="44.82896" lon="-0.22598">
        <ele>31.1</ele>
        <time>2020-09-09T14:36:34Z</time>
      </trkpt>
      <trkpt lat="44.82896" lon="-0.22597">
        <ele>31.1</ele>
        <time>2020-09-09T14:36:35Z</time>
      </trkpt>
      <trkpt lat="44.82896" lon="-0.22596">
        <ele>31.1</ele>
        <time>2020-09-09T14:36:36Z</time>
      </trkpt>
      <trkpt lat="44.82896" lon="-0.22595">
        <ele>31.1</ele>
        <time>2020-09-09T14:36:38Z</time>
      </trkpt>
      <trkpt lat="44.82896" lon="-0.22594">
        <ele>30.9</ele>
        <time>2020-09-09T14:36:39Z</time>
      </trkpt>
      <trkpt lat="44.82896" lon="-0.22593">
        <ele>30.9</ele>
        <time>2020-09-09T14:36:40Z</time>
      </trkpt>
      <trkpt lat="44.82897" lon="-0.22593">
        <ele>30.9</ele>
        <time>2020-09-09T14:36:41Z</time>
      </trkpt>
      <trkpt lat="44.82897" lon="-0.22592">
        <ele>30.9</ele>
        <time>2020-09-09T14:36:42Z</time>
      </trkpt>
      <trkpt lat="44.82898" lon="-0.22591">
        <ele>30.7</ele>
        <time>2020-09-09T14:36:44Z</time>
      </trkpt>
      <trkpt lat="44.82898" lon="-0.22591">
        <ele>30.7</ele>
        <time>2020-09-09T14:36:47Z</time>
      </trkpt>
      <trkpt lat="44.82899" lon="-0.22591">
        <ele>30.7</ele>
        <time>2020-09-09T14:36:48Z</time>
      </trkpt>
      <trkpt lat="44.82899" lon="-0.2259">
        <ele>30.7</ele>
        <time>2020-09-09T14:36:49Z</time>
      </trkpt>
      <trkpt lat="44.829" lon="-0.22589">
        <ele>30.7</ele>
        <time>2020-09-09T14:36:50Z</time>
      </trkpt>
      <trkpt lat="44.82901" lon="-0.22587">
        <ele>30.6</ele>
        <time>2020-09-09T14:36:52Z</time>
      </trkpt>
      <trkpt lat="44.82902" lon="-0.22586">
        <ele>30.5</ele>
        <time>2020-09-09T14:36:53Z</time>
      </trkpt>
      <trkpt lat="44.82903" lon="-0.22584">
        <ele>30.5</ele>
        <time>2020-09-09T14:36:54Z</time>
      </trkpt>
      <trkpt lat="44.82904" lon="-0.22582">
        <ele>30.3</ele>
        <time>2020-09-09T14:36:55Z</time>
      </trkpt>
      <trkpt lat="44.82905" lon="-0.22581">
        <ele>30.3</ele>
        <time>2020-09-09T14:36:56Z</time>
      </trkpt>
      <trkpt lat="44.82905" lon="-0.2258">
        <ele>30.3</ele>
        <time>2020-09-09T14:36:57Z</time>
      </trkpt>
      <trkpt lat="44.82907" lon="-0.22579">
        <ele>30.2</ele>
        <time>2020-09-09T14:36:59Z</time>
      </trkpt>
      <trkpt lat="44.82908" lon="-0.22578">
        <ele>30.2</ele>
        <time>2020-09-09T14:37:00Z</time>
      </trkpt>
      <trkpt lat="44.82909" lon="-0.22577">
        <ele>30.1</ele>
        <time>2020-09-09T14:37:01Z</time>
      </trkpt>
      <trkpt lat="44.8291" lon="-0.22575">
        <ele>30</ele>
        <time>2020-09-09T14:37:02Z</time>
      </trkpt>
      <trkpt lat="44.8291" lon="-0.22574">
        <ele>30</ele>
        <time>2020-09-09T14:37:03Z</time>
      </trkpt>
      <trkpt lat="44.82911" lon="-0.22573">
        <ele>29.9</ele>
        <time>2020-09-09T14:37:04Z</time>
      </trkpt>
      <trkpt lat="44.82912" lon="-0.22572">
        <ele>29.9</ele>
        <time>2020-09-09T14:37:05Z</time>
      </trkpt>
      <trkpt lat="44.82914" lon="-0.2257">
        <ele>29.8</ele>
        <time>2020-09-09T14:37:06Z</time>
      </trkpt>
      <trkpt lat="44.82915" lon="-0.22569">
        <ele>29.8</ele>
        <time>2020-09-09T14:37:08Z</time>
      </trkpt>
      <trkpt lat="44.82916" lon="-0.22568">
        <ele>29.6</ele>
        <time>2020-09-09T14:37:09Z</time>
      </trkpt>
      <trkpt lat="44.82917" lon="-0.22567">
        <ele>29.6</ele>
        <time>2020-09-09T14:37:11Z</time>
      </trkpt>
      <trkpt lat="44.82918" lon="-0.22566">
        <ele>29.6</ele>
        <time>2020-09-09T14:37:12Z</time>
      </trkpt>
      <trkpt lat="44.8292" lon="-0.22565">
        <ele>29.5</ele>
        <time>2020-09-09T14:37:13Z</time>
      </trkpt>
      <trkpt lat="44.8292" lon="-0.22564">
        <ele>29.3</ele>
        <time>2020-09-09T14:37:14Z</time>
      </trkpt>
      <trkpt lat="44.82921" lon="-0.22564">
        <ele>29.3</ele>
        <time>2020-09-09T14:37:15Z</time>
      </trkpt>
      <trkpt lat="44.82922" lon="-0.22563">
        <ele>29.3</ele>
        <time>2020-09-09T14:37:17Z</time>
      </trkpt>
      <trkpt lat="44.82923" lon="-0.22563">
        <ele>29.3</ele>
        <time>2020-09-09T14:37:18Z</time>
      </trkpt>
      <trkpt lat="44.82924" lon="-0.22563">
        <ele>29.3</ele>
        <time>2020-09-09T14:37:19Z</time>
      </trkpt>
      <trkpt lat="44.82925" lon="-0.22563">
        <ele>29.2</ele>
        <time>2020-09-09T14:37:20Z</time>
      </trkpt>
      <trkpt lat="44.82925" lon="-0.22562">
        <ele>29.2</ele>
        <time>2020-09-09T14:37:21Z</time>
      </trkpt>
      <trkpt lat="44.82926" lon="-0.22561">
        <ele>29.2</ele>
        <time>2020-09-09T14:37:22Z</time>
      </trkpt>
      <trkpt lat="44.82927" lon="-0.22559">
        <ele>29</ele>
        <time>2020-09-09T14:37:24Z</time>
      </trkpt>
      <trkpt lat="44.82929" lon="-0.22559">
        <ele>28.9</ele>
        <time>2020-09-09T14:37:25Z</time>
      </trkpt>
      <trkpt lat="44.8293" lon="-0.22559">
        <ele>28.9</ele>
        <time>2020-09-09T14:37:26Z</time>
      </trkpt>
      <trkpt lat="44.82932" lon="-0.22559">
        <ele>28.8</ele>
        <time>2020-09-09T14:37:27Z</time>
      </trkpt>
      <trkpt lat="44.82935" lon="-0.2256">
        <ele>28.7</ele>
        <time>2020-09-09T14:37:29Z</time>
      </trkpt>
      <trkpt lat="44.82936" lon="-0.2256">
        <ele>28.7</ele>
        <time>2020-09-09T14:37:30Z</time>
      </trkpt>
      <trkpt lat="44.82937" lon="-0.2256">
        <ele>28.7</ele>
        <time>2020-09-09T14:37:31Z</time>
      </trkpt>
      <trkpt lat="44.82937" lon="-0.22561">
        <ele>28.7</ele>
        <time>2020-09-09T14:37:33Z</time>
      </trkpt>
      <trkpt lat="44.82936" lon="-0.22561">
        <ele>28.9</ele>
        <time>2020-09-09T14:37:34Z</time>
      </trkpt>
      <trkpt lat="44.82937" lon="-0.22562">
        <ele>28.9</ele>
        <time>2020-09-09T14:37:36Z</time>
      </trkpt>
      <trkpt lat="44.82938" lon="-0.22561">
        <ele>28.7</ele>
        <time>2020-09-09T14:37:38Z</time>
      </trkpt>
      <trkpt lat="44.82938" lon="-0.22561">
        <ele>28.7</ele>
        <time>2020-09-09T14:37:40Z</time>
      </trkpt>
      <trkpt lat="44.82938" lon="-0.22561">
        <ele>28.7</ele>
        <time>2020-09-09T14:37:42Z</time>
      </trkpt>
    </trkseg>
  </trk>
</gpx>